<?xml version="1.0" encoding="UTF-8" standalone="no" ?>
<gpx xmlns="http://www.topografix.com/GPX/1/1" xmlns:xsi="http://www.w3.org/2001/XMLSchema-instance" xsi:schemaLocation="http://www.topografix.com/GPX/1/1 http://www.topografix.com/GPX/1/1/gpx.xsd" version="1.1" creator="VisuGPX - https://www.visugpx.com">
  <metadata>
    <name>2021 11 28 08:51 Rocher de Roquebrune</name>
    <desc><![CDATA[Le Rocher de Roquebrune par le sentier bleu en traversée.
Quelques passages sécurisés par des chaînes. Il faut souvent "mettre les mains".
Chapelle troglodyte, Notre Dame de la Roquette, quelques errances pour trouver le Saint Trou! Traversée peu facile, réservé aux personnes sveltes pouvant passer par de petits trous!]]></desc>
  </metadata>
  <trk>
    <name><![CDATA[2021 11 28 08:51 Rocher de Roquebrune]]></name>
    <trkseg>
      <trkpt lat="43.45076" lon="6.61624">
        <ele>17.85888967663</ele>
        <time>2021-11-28T07:51:36Z</time>
      </trkpt>
      <trkpt lat="43.45076" lon="6.61624">
        <ele>17.85888967663</ele>
        <time>2021-11-28T07:51:41Z</time>
      </trkpt>
      <trkpt lat="43.4508" lon="6.61623">
        <ele>30.858557753265</ele>
        <time>2021-11-28T07:51:43Z</time>
      </trkpt>
      <trkpt lat="43.45081" lon="6.61624">
        <ele>34.858463875949</ele>
        <time>2021-11-28T07:51:44Z</time>
      </trkpt>
      <trkpt lat="43.45081" lon="6.61624">
        <ele>34.858463875949</ele>
        <time>2021-11-28T07:51:45Z</time>
      </trkpt>
      <trkpt lat="43.45074" lon="6.61619">
        <ele>27.858841061592</ele>
        <time>2021-11-28T07:51:46Z</time>
      </trkpt>
      <trkpt lat="43.45074" lon="6.61619">
        <ele>27.858845755458</ele>
        <time>2021-11-28T07:51:47Z</time>
      </trkpt>
      <trkpt lat="43.45073" lon="6.61619">
        <ele>23.85893125087</ele>
        <time>2021-11-28T07:51:48Z</time>
      </trkpt>
      <trkpt lat="43.45074" lon="6.61617">
        <ele>24.858770653605</ele>
        <time>2021-11-28T07:51:49Z</time>
      </trkpt>
      <trkpt lat="43.45075" lon="6.61618">
        <ele>23.858746178448</ele>
        <time>2021-11-28T07:53:08Z</time>
      </trkpt>
      <trkpt lat="43.45076" lon="6.61619">
        <ele>22.858715668321</ele>
        <time>2021-11-28T07:53:10Z</time>
      </trkpt>
      <trkpt lat="43.45076" lon="6.61619">
        <ele>22.85870795697</ele>
        <time>2021-11-28T07:53:18Z</time>
      </trkpt>
      <trkpt lat="43.45077" lon="6.61618">
        <ele>20.858607709408</ele>
        <time>2021-11-28T07:53:19Z</time>
      </trkpt>
      <trkpt lat="43.45077" lon="6.61618">
        <ele>20.858568146825</ele>
        <time>2021-11-28T07:53:24Z</time>
      </trkpt>
      <trkpt lat="43.45077" lon="6.61617">
        <ele>21.858488351107</ele>
        <time>2021-11-28T07:53:30Z</time>
      </trkpt>
      <trkpt lat="43.45077" lon="6.61618">
        <ele>22.858508132398</ele>
        <time>2021-11-28T07:53:37Z</time>
      </trkpt>
      <trkpt lat="43.45078" lon="6.61619">
        <ele>21.85852959007</ele>
        <time>2021-11-28T07:53:39Z</time>
      </trkpt>
      <trkpt lat="43.45077" lon="6.6162">
        <ele>21.858645260334</ele>
        <time>2021-11-28T07:53:41Z</time>
      </trkpt>
      <trkpt lat="43.45077" lon="6.6162">
        <ele>20.858656659722</ele>
        <time>2021-11-28T07:53:49Z</time>
      </trkpt>
      <trkpt lat="43.45076" lon="6.61621">
        <ele>20.858741819859</ele>
        <time>2021-11-28T07:53:50Z</time>
      </trkpt>
      <trkpt lat="43.45076" lon="6.61622">
        <ele>19.858817927539</ele>
        <time>2021-11-28T07:53:51Z</time>
      </trkpt>
      <trkpt lat="43.45076" lon="6.61624">
        <ele>19.858884647489</ele>
        <time>2021-11-28T07:53:52Z</time>
      </trkpt>
      <trkpt lat="43.45076" lon="6.61625">
        <ele>19.858943320811</ele>
        <time>2021-11-28T07:53:53Z</time>
      </trkpt>
      <trkpt lat="43.45076" lon="6.61627">
        <ele>19.858990259469</ele>
        <time>2021-11-28T07:53:54Z</time>
      </trkpt>
      <trkpt lat="43.45076" lon="6.61628">
        <ele>19.859043903649</ele>
        <time>2021-11-28T07:53:55Z</time>
      </trkpt>
      <trkpt lat="43.45076" lon="6.6163">
        <ele>19.859104588628</ele>
        <time>2021-11-28T07:53:56Z</time>
      </trkpt>
      <trkpt lat="43.45076" lon="6.61632">
        <ele>18.85916929692</ele>
        <time>2021-11-28T07:53:57Z</time>
      </trkpt>
      <trkpt lat="43.45077" lon="6.61634">
        <ele>18.859227970243</ele>
        <time>2021-11-28T07:53:58Z</time>
      </trkpt>
      <trkpt lat="43.45077" lon="6.61636">
        <ele>18.859325870872</ele>
        <time>2021-11-28T07:53:59Z</time>
      </trkpt>
      <trkpt lat="43.45076" lon="6.61638">
        <ele>19.859410025179</ele>
        <time>2021-11-28T07:54:00Z</time>
      </trkpt>
      <trkpt lat="43.45076" lon="6.6164">
        <ele>18.859513960779</ele>
        <time>2021-11-28T07:54:01Z</time>
      </trkpt>
      <trkpt lat="43.45076" lon="6.61641">
        <ele>19.859597444534</ele>
        <time>2021-11-28T07:54:02Z</time>
      </trkpt>
      <trkpt lat="43.45076" lon="6.61642">
        <ele>18.859645053744</ele>
        <time>2021-11-28T07:54:03Z</time>
      </trkpt>
      <trkpt lat="43.45076" lon="6.61644">
        <ele>19.85971210897</ele>
        <time>2021-11-28T07:54:04Z</time>
      </trkpt>
      <trkpt lat="43.45075" lon="6.61646">
        <ele>19.859807662666</ele>
        <time>2021-11-28T07:54:05Z</time>
      </trkpt>
      <trkpt lat="43.45075" lon="6.61647">
        <ele>19.859868682921</ele>
        <time>2021-11-28T07:54:06Z</time>
      </trkpt>
      <trkpt lat="43.45075" lon="6.61649">
        <ele>19.859929703176</ele>
        <time>2021-11-28T07:54:07Z</time>
      </trkpt>
      <trkpt lat="43.45076" lon="6.6165">
        <ele>19.859943449497</ele>
        <time>2021-11-28T07:54:08Z</time>
      </trkpt>
      <trkpt lat="43.45076" lon="6.61652">
        <ele>19.859997428954</ele>
        <time>2021-11-28T07:54:09Z</time>
      </trkpt>
      <trkpt lat="43.45076" lon="6.61654">
        <ele>19.860061131418</ele>
        <time>2021-11-28T07:54:10Z</time>
      </trkpt>
      <trkpt lat="43.45076" lon="6.61656">
        <ele>19.860115781426</ele>
        <time>2021-11-28T07:54:11Z</time>
      </trkpt>
      <trkpt lat="43.45077" lon="6.61657">
        <ele>18.860147297382</ele>
        <time>2021-11-28T07:54:12Z</time>
      </trkpt>
      <trkpt lat="43.45077" lon="6.61659">
        <ele>18.860177136958</ele>
        <time>2021-11-28T07:54:13Z</time>
      </trkpt>
      <trkpt lat="43.45077" lon="6.6166">
        <ele>18.860211335123</ele>
        <time>2021-11-28T07:54:14Z</time>
      </trkpt>
      <trkpt lat="43.45077" lon="6.61662">
        <ele>18.860281407833</ele>
        <time>2021-11-28T07:54:15Z</time>
      </trkpt>
      <trkpt lat="43.45077" lon="6.61663">
        <ele>18.860352151096</ele>
        <time>2021-11-28T07:54:16Z</time>
      </trkpt>
      <trkpt lat="43.45077" lon="6.61665">
        <ele>18.860412165523</ele>
        <time>2021-11-28T07:54:17Z</time>
      </trkpt>
      <trkpt lat="43.45077" lon="6.61667">
        <ele>18.860482573509</ele>
        <time>2021-11-28T07:54:18Z</time>
      </trkpt>
      <trkpt lat="43.45077" lon="6.61668">
        <ele>19.860561698675</ele>
        <time>2021-11-28T07:54:19Z</time>
      </trkpt>
      <trkpt lat="43.45077" lon="6.61669">
        <ele>19.860640153289</ele>
        <time>2021-11-28T07:54:20Z</time>
      </trkpt>
      <trkpt lat="43.45076" lon="6.61671">
        <ele>19.860726319253</ele>
        <time>2021-11-28T07:54:21Z</time>
      </trkpt>
      <trkpt lat="43.45076" lon="6.61673">
        <ele>19.86082790792</ele>
        <time>2021-11-28T07:54:22Z</time>
      </trkpt>
      <trkpt lat="43.45075" lon="6.61674">
        <ele>19.860925473273</ele>
        <time>2021-11-28T07:54:23Z</time>
      </trkpt>
      <trkpt lat="43.45075" lon="6.61675">
        <ele>19.861041143537</ele>
        <time>2021-11-28T07:54:24Z</time>
      </trkpt>
      <trkpt lat="43.45074" lon="6.61677">
        <ele>18.861161507666</ele>
        <time>2021-11-28T07:54:25Z</time>
      </trkpt>
      <trkpt lat="43.45073" lon="6.61679">
        <ele>19.861286565661</ele>
        <time>2021-11-28T07:54:26Z</time>
      </trkpt>
      <trkpt lat="43.45073" lon="6.6168">
        <ele>19.861408270895</ele>
        <time>2021-11-28T07:54:27Z</time>
      </trkpt>
      <trkpt lat="43.45072" lon="6.61682">
        <ele>19.861531317234</ele>
        <time>2021-11-28T07:54:28Z</time>
      </trkpt>
      <trkpt lat="43.45071" lon="6.61683">
        <ele>19.861639611423</ele>
        <time>2021-11-28T07:54:29Z</time>
      </trkpt>
      <trkpt lat="43.45071" lon="6.61685">
        <ele>19.861756958067</ele>
        <time>2021-11-28T07:54:30Z</time>
      </trkpt>
      <trkpt lat="43.45069" lon="6.61687">
        <ele>19.861924931407</ele>
        <time>2021-11-28T07:54:31Z</time>
      </trkpt>
      <trkpt lat="43.45068" lon="6.61689">
        <ele>19.862079493701</ele>
        <time>2021-11-28T07:54:32Z</time>
      </trkpt>
      <trkpt lat="43.45067" lon="6.6169">
        <ele>19.86221896857</ele>
        <time>2021-11-28T07:54:33Z</time>
      </trkpt>
      <trkpt lat="43.45066" lon="6.61691">
        <ele>18.862321898341</ele>
        <time>2021-11-28T07:54:34Z</time>
      </trkpt>
      <trkpt lat="43.45065" lon="6.61692">
        <ele>17.862450644374</ele>
        <time>2021-11-28T07:54:35Z</time>
      </trkpt>
      <trkpt lat="43.45064" lon="6.61693">
        <ele>17.862586766481</ele>
        <time>2021-11-28T07:54:36Z</time>
      </trkpt>
      <trkpt lat="43.45064" lon="6.61694">
        <ele>17.86268299073</ele>
        <time>2021-11-28T07:54:37Z</time>
      </trkpt>
      <trkpt lat="43.45063" lon="6.61695">
        <ele>17.862791955471</ele>
        <time>2021-11-28T07:54:38Z</time>
      </trkpt>
      <trkpt lat="43.45062" lon="6.61697">
        <ele>17.862934783101</ele>
        <time>2021-11-28T07:54:39Z</time>
      </trkpt>
      <trkpt lat="43.45061" lon="6.61698">
        <ele>16.863012231886</ele>
        <time>2021-11-28T07:54:40Z</time>
      </trkpt>
      <trkpt lat="43.45061" lon="6.61698">
        <ele>16.863039389253</ele>
        <time>2021-11-28T07:54:41Z</time>
      </trkpt>
      <trkpt lat="43.45061" lon="6.61699">
        <ele>17.863096050918</ele>
        <time>2021-11-28T07:54:42Z</time>
      </trkpt>
      <trkpt lat="43.4506" lon="6.617">
        <ele>17.86317986995</ele>
        <time>2021-11-28T07:54:43Z</time>
      </trkpt>
      <trkpt lat="43.45059" lon="6.617">
        <ele>17.863284140825</ele>
        <time>2021-11-28T07:54:44Z</time>
      </trkpt>
      <trkpt lat="43.45057" lon="6.617">
        <ele>16.863393440843</ele>
        <time>2021-11-28T07:54:45Z</time>
      </trkpt>
      <trkpt lat="43.45056" lon="6.61699">
        <ele>16.863433338702</ele>
        <time>2021-11-28T07:54:46Z</time>
      </trkpt>
      <trkpt lat="43.45055" lon="6.61697">
        <ele>15.863462507725</ele>
        <time>2021-11-28T07:54:47Z</time>
      </trkpt>
      <trkpt lat="43.45055" lon="6.61697">
        <ele>16.863471224904</ele>
        <time>2021-11-28T07:54:48Z</time>
      </trkpt>
      <trkpt lat="43.45054" lon="6.61696">
        <ele>16.863503076136</ele>
        <time>2021-11-28T07:54:49Z</time>
      </trkpt>
      <trkpt lat="43.45053" lon="6.61695">
        <ele>16.863539621234</ele>
        <time>2021-11-28T07:54:50Z</time>
      </trkpt>
      <trkpt lat="43.45052" lon="6.61694">
        <ele>16.863578177989</ele>
        <time>2021-11-28T07:54:51Z</time>
      </trkpt>
      <trkpt lat="43.45052" lon="6.61693">
        <ele>17.863564766943</ele>
        <time>2021-11-28T07:54:52Z</time>
      </trkpt>
      <trkpt lat="43.45051" lon="6.61692">
        <ele>18.863606005907</ele>
        <time>2021-11-28T07:54:53Z</time>
      </trkpt>
      <trkpt lat="43.4505" lon="6.61691">
        <ele>18.863685131073</ele>
        <time>2021-11-28T07:54:54Z</time>
      </trkpt>
      <trkpt lat="43.45049" lon="6.61691">
        <ele>18.863719329238</ele>
        <time>2021-11-28T07:54:55Z</time>
      </trkpt>
      <trkpt lat="43.45048" lon="6.6169">
        <ele>19.863770291209</ele>
        <time>2021-11-28T07:54:56Z</time>
      </trkpt>
      <trkpt lat="43.45047" lon="6.6169">
        <ele>19.863829635084</ele>
        <time>2021-11-28T07:54:57Z</time>
      </trkpt>
      <trkpt lat="43.45046" lon="6.6169">
        <ele>20.863875232637</ele>
        <time>2021-11-28T07:54:58Z</time>
      </trkpt>
      <trkpt lat="43.45046" lon="6.61689">
        <ele>20.863915130496</ele>
        <time>2021-11-28T07:54:59Z</time>
      </trkpt>
      <trkpt lat="43.45045" lon="6.61689">
        <ele>20.86397447437</ele>
        <time>2021-11-28T07:55:00Z</time>
      </trkpt>
      <trkpt lat="43.45044" lon="6.61687">
        <ele>20.863993249834</ele>
        <time>2021-11-28T07:55:01Z</time>
      </trkpt>
      <trkpt lat="43.45043" lon="6.61687">
        <ele>20.863991908729</ele>
        <time>2021-11-28T07:55:02Z</time>
      </trkpt>
      <trkpt lat="43.45043" lon="6.61686">
        <ele>20.864011690021</ele>
        <time>2021-11-28T07:55:03Z</time>
      </trkpt>
      <trkpt lat="43.45042" lon="6.61686">
        <ele>21.864075727761</ele>
        <time>2021-11-28T07:55:04Z</time>
      </trkpt>
      <trkpt lat="43.45042" lon="6.61686">
        <ele>21.864114955068</ele>
        <time>2021-11-28T07:55:05Z</time>
      </trkpt>
      <trkpt lat="43.45041" lon="6.61686">
        <ele>21.864142112434</ele>
        <time>2021-11-28T07:55:06Z</time>
      </trkpt>
      <trkpt lat="43.45041" lon="6.61685">
        <ele>21.864170275629</ele>
        <time>2021-11-28T07:55:07Z</time>
      </trkpt>
      <trkpt lat="43.4504" lon="6.61684">
        <ele>22.864198103547</ele>
        <time>2021-11-28T07:55:08Z</time>
      </trkpt>
      <trkpt lat="43.45039" lon="6.61684">
        <ele>22.864222243428</ele>
        <time>2021-11-28T07:55:09Z</time>
      </trkpt>
      <trkpt lat="43.45038" lon="6.61683">
        <ele>23.864247724414</ele>
        <time>2021-11-28T07:55:10Z</time>
      </trkpt>
      <trkpt lat="43.45038" lon="6.61682">
        <ele>22.864243365824</ele>
        <time>2021-11-28T07:55:11Z</time>
      </trkpt>
      <trkpt lat="43.45037" lon="6.61681">
        <ele>23.864251412451</ele>
        <time>2021-11-28T07:55:12Z</time>
      </trkpt>
      <trkpt lat="43.45037" lon="6.61681">
        <ele>23.864286951721</ele>
        <time>2021-11-28T07:55:13Z</time>
      </trkpt>
      <trkpt lat="43.45036" lon="6.61681">
        <ele>23.864335566759</ele>
        <time>2021-11-28T07:55:14Z</time>
      </trkpt>
      <trkpt lat="43.45036" lon="6.6168">
        <ele>23.864335566759</ele>
        <time>2021-11-28T07:55:15Z</time>
      </trkpt>
      <trkpt lat="43.45035" lon="6.6168">
        <ele>23.864362388849</ele>
        <time>2021-11-28T07:55:16Z</time>
      </trkpt>
      <trkpt lat="43.45035" lon="6.6168">
        <ele>24.864413350821</ele>
        <time>2021-11-28T07:55:17Z</time>
      </trkpt>
      <trkpt lat="43.45034" lon="6.61679">
        <ele>24.864425756037</ele>
        <time>2021-11-28T07:55:18Z</time>
      </trkpt>
      <trkpt lat="43.45033" lon="6.61679">
        <ele>24.864474706352</ele>
        <time>2021-11-28T07:55:19Z</time>
      </trkpt>
      <trkpt lat="43.45033" lon="6.61678">
        <ele>24.864504210651</ele>
        <time>2021-11-28T07:55:20Z</time>
      </trkpt>
      <trkpt lat="43.45032" lon="6.61678">
        <ele>25.864521980286</ele>
        <time>2021-11-28T07:55:21Z</time>
      </trkpt>
      <trkpt lat="43.45032" lon="6.61677">
        <ele>25.864541091025</ele>
        <time>2021-11-28T07:55:22Z</time>
      </trkpt>
      <trkpt lat="43.45031" lon="6.61677">
        <ele>25.86455886066</ele>
        <time>2021-11-28T07:55:23Z</time>
      </trkpt>
      <trkpt lat="43.45031" lon="6.61676">
        <ele>24.864531032741</ele>
        <time>2021-11-28T07:55:24Z</time>
      </trkpt>
      <trkpt lat="43.45031" lon="6.61675">
        <ele>24.864506557584</ele>
        <time>2021-11-28T07:55:25Z</time>
      </trkpt>
      <trkpt lat="43.45031" lon="6.61674">
        <ele>24.864491805434</ele>
        <time>2021-11-28T07:55:26Z</time>
      </trkpt>
      <trkpt lat="43.45031" lon="6.61673">
        <ele>23.864458613098</ele>
        <time>2021-11-28T07:55:29Z</time>
      </trkpt>
      <trkpt lat="43.4503" lon="6.61672">
        <ele>23.864475376904</ele>
        <time>2021-11-28T07:55:32Z</time>
      </trkpt>
      <trkpt lat="43.45029" lon="6.61671">
        <ele>22.864487782121</ele>
        <time>2021-11-28T07:55:37Z</time>
      </trkpt>
      <trkpt lat="43.45029" lon="6.6167">
        <ele>22.864496164024</ele>
        <time>2021-11-28T07:55:38Z</time>
      </trkpt>
      <trkpt lat="43.45029" lon="6.6167">
        <ele>21.864474706352</ele>
        <time>2021-11-28T07:55:39Z</time>
      </trkpt>
      <trkpt lat="43.45028" lon="6.61668">
        <ele>21.86447135359</ele>
        <time>2021-11-28T07:55:40Z</time>
      </trkpt>
      <trkpt lat="43.45027" lon="6.61667">
        <ele>21.864502198994</ele>
        <time>2021-11-28T07:55:41Z</time>
      </trkpt>
      <trkpt lat="43.45026" lon="6.61666">
        <ele>21.864553160965</ele>
        <time>2021-11-28T07:55:42Z</time>
      </trkpt>
      <trkpt lat="43.45025" lon="6.61665">
        <ele>21.864594735205</ele>
        <time>2021-11-28T07:55:43Z</time>
      </trkpt>
      <trkpt lat="43.45025" lon="6.61665">
        <ele>22.864601776004</ele>
        <time>2021-11-28T07:55:44Z</time>
      </trkpt>
      <trkpt lat="43.45024" lon="6.61664">
        <ele>22.864636979997</ele>
        <time>2021-11-28T07:55:45Z</time>
      </trkpt>
      <trkpt lat="43.45023" lon="6.61664">
        <ele>22.864677883685</ele>
        <time>2021-11-28T07:55:46Z</time>
      </trkpt>
      <trkpt lat="43.45023" lon="6.61664">
        <ele>22.864736221731</ele>
        <time>2021-11-28T07:55:47Z</time>
      </trkpt>
      <trkpt lat="43.45022" lon="6.61663">
        <ele>22.864789530635</ele>
        <time>2021-11-28T07:55:48Z</time>
      </trkpt>
      <trkpt lat="43.45021" lon="6.61662">
        <ele>22.864816688001</ele>
        <time>2021-11-28T07:55:49Z</time>
      </trkpt>
      <trkpt lat="43.4502" lon="6.61661">
        <ele>23.864830434322</ele>
        <time>2021-11-28T07:55:50Z</time>
      </trkpt>
      <trkpt lat="43.4502" lon="6.6166">
        <ele>24.864835128188</ele>
        <time>2021-11-28T07:55:51Z</time>
      </trkpt>
      <trkpt lat="43.45019" lon="6.61659">
        <ele>24.864823058248</ele>
        <time>2021-11-28T07:55:56Z</time>
      </trkpt>
      <trkpt lat="43.45019" lon="6.61659">
        <ele>25.864881061018</ele>
        <time>2021-11-28T07:55:57Z</time>
      </trkpt>
      <trkpt lat="43.45018" lon="6.61659">
        <ele>25.864955492318</ele>
        <time>2021-11-28T07:55:58Z</time>
      </trkpt>
      <trkpt lat="43.45017" lon="6.6166">
        <ele>25.8650245592</ele>
        <time>2021-11-28T07:55:59Z</time>
      </trkpt>
      <trkpt lat="43.45016" lon="6.6166">
        <ele>25.865144252777</ele>
        <time>2021-11-28T07:56:00Z</time>
      </trkpt>
      <trkpt lat="43.45015" lon="6.61661">
        <ele>25.865222036839</ele>
        <time>2021-11-28T07:56:01Z</time>
      </trkpt>
      <trkpt lat="43.45014" lon="6.61661">
        <ele>26.865290097892</ele>
        <time>2021-11-28T07:56:02Z</time>
      </trkpt>
      <trkpt lat="43.45014" lon="6.61661">
        <ele>26.865313231945</ele>
        <time>2021-11-28T07:56:03Z</time>
      </trkpt>
      <trkpt lat="43.45013" lon="6.6166">
        <ele>26.865325972438</ele>
        <time>2021-11-28T07:56:04Z</time>
      </trkpt>
      <trkpt lat="43.45013" lon="6.61659">
        <ele>26.865354135633</ele>
        <time>2021-11-28T07:56:05Z</time>
      </trkpt>
      <trkpt lat="43.45012" lon="6.61658">
        <ele>26.865375258029</ele>
        <time>2021-11-28T07:56:06Z</time>
      </trkpt>
      <trkpt lat="43.45011" lon="6.61657">
        <ele>26.865373916924</ele>
        <time>2021-11-28T07:56:07Z</time>
      </trkpt>
      <trkpt lat="43.45011" lon="6.61656">
        <ele>26.86536989361</ele>
        <time>2021-11-28T07:56:08Z</time>
      </trkpt>
      <trkpt lat="43.4501" lon="6.61655">
        <ele>26.865383304656</ele>
        <time>2021-11-28T07:56:09Z</time>
      </trkpt>
      <trkpt lat="43.45009" lon="6.61654">
        <ele>26.865410797298</ele>
        <time>2021-11-28T07:56:10Z</time>
      </trkpt>
      <trkpt lat="43.45009" lon="6.61653">
        <ele>26.865391016006</ele>
        <time>2021-11-28T07:56:11Z</time>
      </trkpt>
      <trkpt lat="43.45009" lon="6.61653">
        <ele>26.865396715701</ele>
        <time>2021-11-28T07:56:12Z</time>
      </trkpt>
      <trkpt lat="43.45008" lon="6.61652">
        <ele>26.865397386253</ele>
        <time>2021-11-28T07:56:13Z</time>
      </trkpt>
      <trkpt lat="43.45008" lon="6.61652">
        <ele>26.865442983806</ele>
        <time>2021-11-28T07:56:14Z</time>
      </trkpt>
      <trkpt lat="43.45007" lon="6.61651">
        <ele>26.865461759269</ele>
        <time>2021-11-28T07:56:15Z</time>
      </trkpt>
      <trkpt lat="43.45007" lon="6.6165">
        <ele>26.865473158658</ele>
        <time>2021-11-28T07:56:16Z</time>
      </trkpt>
      <trkpt lat="43.45006" lon="6.61649">
        <ele>27.865486569703</ele>
        <time>2021-11-28T07:56:17Z</time>
      </trkpt>
      <trkpt lat="43.45006" lon="6.61648">
        <ele>27.865487575531</ele>
        <time>2021-11-28T07:56:18Z</time>
      </trkpt>
      <trkpt lat="43.45005" lon="6.61648">
        <ele>27.865514732897</ele>
        <time>2021-11-28T07:56:19Z</time>
      </trkpt>
      <trkpt lat="43.45004" lon="6.61647">
        <ele>28.865550607443</ele>
        <time>2021-11-28T07:56:20Z</time>
      </trkpt>
      <trkpt lat="43.45003" lon="6.61647">
        <ele>28.865591175854</ele>
        <time>2021-11-28T07:56:21Z</time>
      </trkpt>
      <trkpt lat="43.45003" lon="6.61646">
        <ele>28.865630067885</ele>
        <time>2021-11-28T07:56:22Z</time>
      </trkpt>
      <trkpt lat="43.45002" lon="6.61645">
        <ele>28.865663260221</ele>
        <time>2021-11-28T07:56:23Z</time>
      </trkpt>
      <trkpt lat="43.45001" lon="6.61644">
        <ele>28.865688405931</ele>
        <time>2021-11-28T07:56:24Z</time>
      </trkpt>
      <trkpt lat="43.45" lon="6.61644">
        <ele>27.865722604096</ele>
        <time>2021-11-28T07:56:25Z</time>
      </trkpt>
      <trkpt lat="43.45" lon="6.61643">
        <ele>27.865728974342</ele>
        <time>2021-11-28T07:56:26Z</time>
      </trkpt>
      <trkpt lat="43.44999" lon="6.61642">
        <ele>28.865750096738</ele>
        <time>2021-11-28T07:56:27Z</time>
      </trkpt>
      <trkpt lat="43.44999" lon="6.61641">
        <ele>28.865762837231</ele>
        <time>2021-11-28T07:56:28Z</time>
      </trkpt>
      <trkpt lat="43.44998" lon="6.6164">
        <ele>28.865765184164</ele>
        <time>2021-11-28T07:56:29Z</time>
      </trkpt>
      <trkpt lat="43.44998" lon="6.61639">
        <ele>28.865767531097</ele>
        <time>2021-11-28T07:56:30Z</time>
      </trkpt>
      <trkpt lat="43.44997" lon="6.61639">
        <ele>28.865796364844</ele>
        <time>2021-11-28T07:56:31Z</time>
      </trkpt>
      <trkpt lat="43.44997" lon="6.61638">
        <ele>28.865784294903</ele>
        <time>2021-11-28T07:56:32Z</time>
      </trkpt>
      <trkpt lat="43.44996" lon="6.61637">
        <ele>28.865786977112</ele>
        <time>2021-11-28T07:56:33Z</time>
      </trkpt>
      <trkpt lat="43.44996" lon="6.61636">
        <ele>28.86578027159</ele>
        <time>2021-11-28T07:56:34Z</time>
      </trkpt>
      <trkpt lat="43.44995" lon="6.61635">
        <ele>28.865800723433</ele>
        <time>2021-11-28T07:56:35Z</time>
      </trkpt>
      <trkpt lat="43.44994" lon="6.61634">
        <ele>28.865811787546</ele>
        <time>2021-11-28T07:56:36Z</time>
      </trkpt>
      <trkpt lat="43.44994" lon="6.61633">
        <ele>28.865803070366</ele>
        <time>2021-11-28T07:56:37Z</time>
      </trkpt>
      <trkpt lat="43.44994" lon="6.61632">
        <ele>27.865806758404</ele>
        <time>2021-11-28T07:56:38Z</time>
      </trkpt>
      <trkpt lat="43.44993" lon="6.61631">
        <ele>27.865831904113</ele>
        <time>2021-11-28T07:56:39Z</time>
      </trkpt>
      <trkpt lat="43.44992" lon="6.6163">
        <ele>27.865849673748</ele>
        <time>2021-11-28T07:56:40Z</time>
      </trkpt>
      <trkpt lat="43.44991" lon="6.61629">
        <ele>27.865890242159</ele>
        <time>2021-11-28T07:56:41Z</time>
      </trkpt>
      <trkpt lat="43.44991" lon="6.61628">
        <ele>27.865879848599</ele>
        <time>2021-11-28T07:56:42Z</time>
      </trkpt>
      <trkpt lat="43.4499" lon="6.61627">
        <ele>27.865870796144</ele>
        <time>2021-11-28T07:56:43Z</time>
      </trkpt>
      <trkpt lat="43.4499" lon="6.61626">
        <ele>27.865850679576</ele>
        <time>2021-11-28T07:56:44Z</time>
      </trkpt>
      <trkpt lat="43.44989" lon="6.61625">
        <ele>27.86586677283</ele>
        <time>2021-11-28T07:56:45Z</time>
      </trkpt>
      <trkpt lat="43.44988" lon="6.61624">
        <ele>27.865879513323</ele>
        <time>2021-11-28T07:56:46Z</time>
      </trkpt>
      <trkpt lat="43.44988" lon="6.61623">
        <ele>27.86588152498</ele>
        <time>2021-11-28T07:56:47Z</time>
      </trkpt>
      <trkpt lat="43.44988" lon="6.61622">
        <ele>27.86586945504</ele>
        <time>2021-11-28T07:56:48Z</time>
      </trkpt>
      <trkpt lat="43.44987" lon="6.61621">
        <ele>28.865868784487</ele>
        <time>2021-11-28T07:56:49Z</time>
      </trkpt>
      <trkpt lat="43.44986" lon="6.6162">
        <ele>28.865878172219</ele>
        <time>2021-11-28T07:56:50Z</time>
      </trkpt>
      <trkpt lat="43.44986" lon="6.61618">
        <ele>28.865876495838</ele>
        <time>2021-11-28T07:56:51Z</time>
      </trkpt>
      <trkpt lat="43.44985" lon="6.61617">
        <ele>28.865889236331</ele>
        <time>2021-11-28T07:56:52Z</time>
      </trkpt>
      <trkpt lat="43.44985" lon="6.61616">
        <ele>28.865875825286</ele>
        <time>2021-11-28T07:56:53Z</time>
      </trkpt>
      <trkpt lat="43.44984" lon="6.61615">
        <ele>29.865869119763</ele>
        <time>2021-11-28T07:56:54Z</time>
      </trkpt>
      <trkpt lat="43.44983" lon="6.61614">
        <ele>29.865901641548</ele>
        <time>2021-11-28T07:56:55Z</time>
      </trkpt>
      <trkpt lat="43.44983" lon="6.61613">
        <ele>29.865915052593</ele>
        <time>2021-11-28T07:56:56Z</time>
      </trkpt>
      <trkpt lat="43.44982" lon="6.61612">
        <ele>29.865928128362</ele>
        <time>2021-11-28T07:56:57Z</time>
      </trkpt>
      <trkpt lat="43.44981" lon="6.61611">
        <ele>29.865957632661</ele>
        <time>2021-11-28T07:56:58Z</time>
      </trkpt>
      <trkpt lat="43.4498" lon="6.61611">
        <ele>29.866013288498</ele>
        <time>2021-11-28T07:56:59Z</time>
      </trkpt>
      <trkpt lat="43.44979" lon="6.6161">
        <ele>29.866061903536</ele>
        <time>2021-11-28T07:57:00Z</time>
      </trkpt>
      <trkpt lat="43.44979" lon="6.6161">
        <ele>30.866116553545</ele>
        <time>2021-11-28T07:57:01Z</time>
      </trkpt>
      <trkpt lat="43.44978" lon="6.6161">
        <ele>30.866144046187</ele>
        <time>2021-11-28T07:57:02Z</time>
      </trkpt>
      <trkpt lat="43.44977" lon="6.61608">
        <ele>30.866163156927</ele>
        <time>2021-11-28T07:57:03Z</time>
      </trkpt>
      <trkpt lat="43.44977" lon="6.61607">
        <ele>30.866166844964</ele>
        <time>2021-11-28T07:57:04Z</time>
      </trkpt>
      <trkpt lat="43.44976" lon="6.61607">
        <ele>31.866203390062</ele>
        <time>2021-11-28T07:57:05Z</time>
      </trkpt>
      <trkpt lat="43.44975" lon="6.61606">
        <ele>32.86625636369</ele>
        <time>2021-11-28T07:57:06Z</time>
      </trkpt>
      <trkpt lat="43.44974" lon="6.61606">
        <ele>32.866292908788</ele>
        <time>2021-11-28T07:57:07Z</time>
      </trkpt>
      <trkpt lat="43.44973" lon="6.61605">
        <ele>32.866343200207</ele>
        <time>2021-11-28T07:57:08Z</time>
      </trkpt>
      <trkpt lat="43.44973" lon="6.61605">
        <ele>32.866380415857</ele>
        <time>2021-11-28T07:57:09Z</time>
      </trkpt>
      <trkpt lat="43.44972" lon="6.61605">
        <ele>33.866412267089</ele>
        <time>2021-11-28T07:57:10Z</time>
      </trkpt>
      <trkpt lat="43.44971" lon="6.61604">
        <ele>33.866480663419</ele>
        <time>2021-11-28T07:57:11Z</time>
      </trkpt>
      <trkpt lat="43.4497" lon="6.61604">
        <ele>33.86652559042</ele>
        <time>2021-11-28T07:57:12Z</time>
      </trkpt>
      <trkpt lat="43.4497" lon="6.61603">
        <ele>33.86653766036</ele>
        <time>2021-11-28T07:57:14Z</time>
      </trkpt>
      <trkpt lat="43.44969" lon="6.61602">
        <ele>33.866563476622</ele>
        <time>2021-11-28T07:57:15Z</time>
      </trkpt>
      <trkpt lat="43.44968" lon="6.61602">
        <ele>33.86662080884</ele>
        <time>2021-11-28T07:57:16Z</time>
      </trkpt>
      <trkpt lat="43.44968" lon="6.61602">
        <ele>34.866674117744</ele>
        <time>2021-11-28T07:57:17Z</time>
      </trkpt>
      <trkpt lat="43.44967" lon="6.61601">
        <ele>34.866703622043</ele>
        <time>2021-11-28T07:57:18Z</time>
      </trkpt>
      <trkpt lat="43.44966" lon="6.61601">
        <ele>35.866744190454</ele>
        <time>2021-11-28T07:57:19Z</time>
      </trkpt>
      <trkpt lat="43.44966" lon="6.61601">
        <ele>36.866783417761</ele>
        <time>2021-11-28T07:57:20Z</time>
      </trkpt>
      <trkpt lat="43.44965" lon="6.616">
        <ele>36.866825327277</ele>
        <time>2021-11-28T07:57:21Z</time>
      </trkpt>
      <trkpt lat="43.44964" lon="6.61599">
        <ele>36.866870254278</ele>
        <time>2021-11-28T07:57:22Z</time>
      </trkpt>
      <trkpt lat="43.44963" lon="6.61598">
        <ele>36.866888023913</ele>
        <time>2021-11-28T07:57:23Z</time>
      </trkpt>
      <trkpt lat="43.44962" lon="6.61597">
        <ele>36.866913169622</ele>
        <time>2021-11-28T07:57:24Z</time>
      </trkpt>
      <trkpt lat="43.44962" lon="6.61596">
        <ele>35.866896405816</ele>
        <time>2021-11-28T07:57:25Z</time>
      </trkpt>
      <trkpt lat="43.44961" lon="6.61596">
        <ele>36.866939991713</ele>
        <time>2021-11-28T07:57:28Z</time>
      </trkpt>
      <trkpt lat="43.44961" lon="6.61596">
        <ele>36.866982236505</ele>
        <time>2021-11-28T07:57:29Z</time>
      </trkpt>
      <trkpt lat="43.4496" lon="6.61595">
        <ele>36.867015093565</ele>
        <time>2021-11-28T07:57:30Z</time>
      </trkpt>
      <trkpt lat="43.44959" lon="6.61595">
        <ele>36.867056667805</ele>
        <time>2021-11-28T07:57:31Z</time>
      </trkpt>
      <trkpt lat="43.44958" lon="6.61595">
        <ele>36.867124393582</ele>
        <time>2021-11-28T07:57:32Z</time>
      </trkpt>
      <trkpt lat="43.44957" lon="6.61594">
        <ele>37.867178373039</ele>
        <time>2021-11-28T07:57:33Z</time>
      </trkpt>
      <trkpt lat="43.44957" lon="6.61594">
        <ele>37.867228664458</ele>
        <time>2021-11-28T07:57:34Z</time>
      </trkpt>
      <trkpt lat="43.44956" lon="6.61593">
        <ele>37.867268562317</ele>
        <time>2021-11-28T07:57:35Z</time>
      </trkpt>
      <trkpt lat="43.44955" lon="6.61592">
        <ele>37.867292031646</ele>
        <time>2021-11-28T07:57:36Z</time>
      </trkpt>
      <trkpt lat="43.44954" lon="6.61592">
        <ele>38.8673081249</ele>
        <time>2021-11-28T07:57:37Z</time>
      </trkpt>
      <trkpt lat="43.44953" lon="6.61591">
        <ele>38.867361433804</ele>
        <time>2021-11-28T07:57:38Z</time>
      </trkpt>
      <trkpt lat="43.44953" lon="6.61591">
        <ele>38.867425471544</ele>
        <time>2021-11-28T07:57:39Z</time>
      </trkpt>
      <trkpt lat="43.44952" lon="6.61591">
        <ele>38.867464698851</ele>
        <time>2021-11-28T07:57:40Z</time>
      </trkpt>
      <trkpt lat="43.44951" lon="6.61591">
        <ele>38.867516666651</ele>
        <time>2021-11-28T07:57:41Z</time>
      </trkpt>
      <trkpt lat="43.4495" lon="6.61591">
        <ele>38.867596797645</ele>
        <time>2021-11-28T07:57:42Z</time>
      </trkpt>
      <trkpt lat="43.4495" lon="6.61591">
        <ele>39.867665864527</ele>
        <time>2021-11-28T07:57:43Z</time>
      </trkpt>
      <trkpt lat="43.44949" lon="6.61591">
        <ele>38.86770542711</ele>
        <time>2021-11-28T07:57:44Z</time>
      </trkpt>
      <trkpt lat="43.44948" lon="6.61591">
        <ele>38.86776342988</ele>
        <time>2021-11-28T07:57:45Z</time>
      </trkpt>
      <trkpt lat="43.44947" lon="6.61591">
        <ele>38.867835849524</ele>
        <time>2021-11-28T07:57:46Z</time>
      </trkpt>
      <trkpt lat="43.44946" lon="6.6159">
        <ele>38.867892175913</ele>
        <time>2021-11-28T07:57:47Z</time>
      </trkpt>
      <trkpt lat="43.44945" lon="6.61589">
        <ele>39.867944143713</ele>
        <time>2021-11-28T07:57:48Z</time>
      </trkpt>
      <trkpt lat="43.44945" lon="6.61589">
        <ele>39.867987059057</ele>
        <time>2021-11-28T07:57:49Z</time>
      </trkpt>
      <trkpt lat="43.44943" lon="6.61587">
        <ele>39.868033662438</ele>
        <time>2021-11-28T07:57:51Z</time>
      </trkpt>
      <trkpt lat="43.44943" lon="6.61587">
        <ele>40.868062831461</ele>
        <time>2021-11-28T07:57:52Z</time>
      </trkpt>
      <trkpt lat="43.44942" lon="6.61587">
        <ele>40.868122845888</ele>
        <time>2021-11-28T07:57:53Z</time>
      </trkpt>
      <trkpt lat="43.44941" lon="6.61586">
        <ele>40.868152014911</ele>
        <time>2021-11-28T07:57:54Z</time>
      </trkpt>
      <trkpt lat="43.4494" lon="6.61585">
        <ele>40.86820230633</ele>
        <time>2021-11-28T07:57:55Z</time>
      </trkpt>
      <trkpt lat="43.44939" lon="6.61585">
        <ele>41.868240863085</ele>
        <time>2021-11-28T07:57:56Z</time>
      </trkpt>
      <trkpt lat="43.44938" lon="6.61584">
        <ele>41.868302218616</ele>
        <time>2021-11-28T07:57:57Z</time>
      </trkpt>
      <trkpt lat="43.44937" lon="6.61585">
        <ele>41.868388049304</ele>
        <time>2021-11-28T07:57:58Z</time>
      </trkpt>
      <trkpt lat="43.44936" lon="6.61585">
        <ele>41.868472203612</ele>
        <time>2021-11-28T07:57:59Z</time>
      </trkpt>
      <trkpt lat="43.44935" lon="6.61584">
        <ele>41.868533559144</ele>
        <time>2021-11-28T07:58:00Z</time>
      </trkpt>
      <trkpt lat="43.44935" lon="6.61583">
        <ele>42.86856239289</ele>
        <time>2021-11-28T07:58:01Z</time>
      </trkpt>
      <trkpt lat="43.44934" lon="6.61583">
        <ele>42.868606314063</ele>
        <time>2021-11-28T07:58:02Z</time>
      </trkpt>
      <trkpt lat="43.44933" lon="6.61583">
        <ele>43.868672698736</ele>
        <time>2021-11-28T07:58:03Z</time>
      </trkpt>
      <trkpt lat="43.44933" lon="6.61583">
        <ele>43.868701197207</ele>
        <time>2021-11-28T07:58:04Z</time>
      </trkpt>
      <trkpt lat="43.44932" lon="6.61582">
        <ele>43.868741430342</ele>
        <time>2021-11-28T07:58:05Z</time>
      </trkpt>
      <trkpt lat="43.44931" lon="6.61583">
        <ele>43.868810161948</ele>
        <time>2021-11-28T07:58:06Z</time>
      </trkpt>
      <trkpt lat="43.44931" lon="6.61582">
        <ele>43.86885844171</ele>
        <time>2021-11-28T07:58:07Z</time>
      </trkpt>
      <trkpt lat="43.4493" lon="6.61582">
        <ele>43.868906721473</ele>
        <time>2021-11-28T07:58:08Z</time>
      </trkpt>
      <trkpt lat="43.44929" lon="6.61582">
        <ele>43.868957348168</ele>
        <time>2021-11-28T07:58:09Z</time>
      </trkpt>
      <trkpt lat="43.44928" lon="6.61581">
        <ele>43.868994228542</ele>
        <time>2021-11-28T07:58:10Z</time>
      </trkpt>
      <trkpt lat="43.44927" lon="6.61581">
        <ele>43.869050219655</ele>
        <time>2021-11-28T07:58:11Z</time>
      </trkpt>
      <trkpt lat="43.44927" lon="6.61581">
        <ele>44.869097828865</ele>
        <time>2021-11-28T07:58:12Z</time>
      </trkpt>
      <trkpt lat="43.44926" lon="6.61581">
        <ele>44.869171924889</ele>
        <time>2021-11-28T07:58:13Z</time>
      </trkpt>
      <trkpt lat="43.44925" lon="6.6158">
        <ele>44.869215846062</ele>
        <time>2021-11-28T07:58:14Z</time>
      </trkpt>
      <trkpt lat="43.44924" lon="6.6158">
        <ele>44.869252055883</ele>
        <time>2021-11-28T07:58:15Z</time>
      </trkpt>
      <trkpt lat="43.44924" lon="6.6158">
        <ele>44.869290947914</ele>
        <time>2021-11-28T07:58:16Z</time>
      </trkpt>
      <trkpt lat="43.44923" lon="6.6158">
        <ele>44.869356662035</ele>
        <time>2021-11-28T07:58:17Z</time>
      </trkpt>
      <trkpt lat="43.44922" lon="6.6158">
        <ele>44.86942807585</ele>
        <time>2021-11-28T07:58:18Z</time>
      </trkpt>
      <trkpt lat="43.44921" lon="6.61579">
        <ele>44.869477026165</ele>
        <time>2021-11-28T07:58:19Z</time>
      </trkpt>
      <trkpt lat="43.44921" lon="6.61579">
        <ele>45.869483061135</ele>
        <time>2021-11-28T07:58:20Z</time>
      </trkpt>
      <trkpt lat="43.4492" lon="6.61579">
        <ele>45.869528658688</ele>
        <time>2021-11-28T07:58:21Z</time>
      </trkpt>
      <trkpt lat="43.4492" lon="6.61579">
        <ele>45.869577609003</ele>
        <time>2021-11-28T07:58:22Z</time>
      </trkpt>
      <trkpt lat="43.44919" lon="6.61578">
        <ele>45.869627565145</ele>
        <time>2021-11-28T07:58:23Z</time>
      </trkpt>
      <trkpt lat="43.44918" lon="6.61578">
        <ele>45.869664110243</ele>
        <time>2021-11-28T07:58:24Z</time>
      </trkpt>
      <trkpt lat="43.44917" lon="6.61577">
        <ele>45.869707360864</ele>
        <time>2021-11-28T07:58:25Z</time>
      </trkpt>
      <trkpt lat="43.44917" lon="6.61576">
        <ele>45.869732171297</ele>
        <time>2021-11-28T07:58:26Z</time>
      </trkpt>
      <trkpt lat="43.44916" lon="6.61576">
        <ele>45.869790174067</ele>
        <time>2021-11-28T07:58:27Z</time>
      </trkpt>
      <trkpt lat="43.44915" lon="6.61576">
        <ele>46.869864270091</ele>
        <time>2021-11-28T07:58:28Z</time>
      </trkpt>
      <trkpt lat="43.44914" lon="6.61576">
        <ele>45.869905509055</ele>
        <time>2021-11-28T07:58:29Z</time>
      </trkpt>
      <trkpt lat="43.44914" lon="6.61576">
        <ele>45.869954459369</ele>
        <time>2021-11-28T07:58:30Z</time>
      </trkpt>
      <trkpt lat="43.44913" lon="6.61576">
        <ele>45.869994357228</ele>
        <time>2021-11-28T07:58:31Z</time>
      </trkpt>
      <trkpt lat="43.44912" lon="6.61575">
        <ele>45.870033249259</ele>
        <time>2021-11-28T07:58:32Z</time>
      </trkpt>
      <trkpt lat="43.44911" lon="6.61575">
        <ele>45.870081529021</ele>
        <time>2021-11-28T07:58:33Z</time>
      </trkpt>
      <trkpt lat="43.44911" lon="6.61574">
        <ele>45.870107680559</ele>
        <time>2021-11-28T07:58:34Z</time>
      </trkpt>
      <trkpt lat="43.4491" lon="6.61573">
        <ele>44.870129473507</ele>
        <time>2021-11-28T07:58:35Z</time>
      </trkpt>
      <trkpt lat="43.4491" lon="6.61573">
        <ele>44.870159648359</ele>
        <time>2021-11-28T07:58:36Z</time>
      </trkpt>
      <trkpt lat="43.44909" lon="6.61572">
        <ele>44.870193846524</ele>
        <time>2021-11-28T07:58:37Z</time>
      </trkpt>
      <trkpt lat="43.44908" lon="6.61572">
        <ele>45.870240114629</ele>
        <time>2021-11-28T07:58:38Z</time>
      </trkpt>
      <trkpt lat="43.44907" lon="6.61572">
        <ele>46.870293088257</ele>
        <time>2021-11-28T07:58:39Z</time>
      </trkpt>
      <trkpt lat="43.44907" lon="6.61572">
        <ele>46.870343714952</ele>
        <time>2021-11-28T07:58:40Z</time>
      </trkpt>
      <trkpt lat="43.44906" lon="6.61572">
        <ele>46.870404735208</ele>
        <time>2021-11-28T07:58:41Z</time>
      </trkpt>
      <trkpt lat="43.44905" lon="6.61571">
        <ele>46.870447985828</ele>
        <time>2021-11-28T07:58:42Z</time>
      </trkpt>
      <trkpt lat="43.44905" lon="6.6157">
        <ele>46.870441280305</ele>
        <time>2021-11-28T07:58:43Z</time>
      </trkpt>
      <trkpt lat="43.44904" lon="6.61569">
        <ele>46.870462402701</ele>
        <time>2021-11-28T07:58:44Z</time>
      </trkpt>
      <trkpt lat="43.44903" lon="6.61569">
        <ele>46.870485536754</ele>
        <time>2021-11-28T07:58:45Z</time>
      </trkpt>
      <trkpt lat="43.44903" lon="6.61568">
        <ele>46.870529457927</ele>
        <time>2021-11-28T07:58:46Z</time>
      </trkpt>
      <trkpt lat="43.44902" lon="6.61567">
        <ele>46.870546892285</ele>
        <time>2021-11-28T07:58:47Z</time>
      </trkpt>
      <trkpt lat="43.44901" lon="6.61567">
        <ele>47.870592825115</ele>
        <time>2021-11-28T07:58:48Z</time>
      </trkpt>
      <trkpt lat="43.44901" lon="6.61567">
        <ele>47.870615288615</ele>
        <time>2021-11-28T07:58:49Z</time>
      </trkpt>
      <trkpt lat="43.449" lon="6.61566">
        <ele>47.870641440153</ele>
        <time>2021-11-28T07:58:50Z</time>
      </trkpt>
      <trkpt lat="43.449" lon="6.61566">
        <ele>47.870661556721</ele>
        <time>2021-11-28T07:58:51Z</time>
      </trkpt>
      <trkpt lat="43.44899" lon="6.61566">
        <ele>47.870736993849</ele>
        <time>2021-11-28T07:58:53Z</time>
      </trkpt>
      <trkpt lat="43.44898" lon="6.61566">
        <ele>48.870788961649</ele>
        <time>2021-11-28T07:58:55Z</time>
      </trkpt>
      <trkpt lat="43.44898" lon="6.61566">
        <ele>49.870824500918</ele>
        <time>2021-11-28T07:58:58Z</time>
      </trkpt>
      <trkpt lat="43.44896" lon="6.61566">
        <ele>50.870939835906</ele>
        <time>2021-11-28T07:58:59Z</time>
      </trkpt>
      <trkpt lat="43.44895" lon="6.61565">
        <ele>50.87098710984</ele>
        <time>2021-11-28T07:59:00Z</time>
      </trkpt>
      <trkpt lat="43.44895" lon="6.61565">
        <ele>50.870996497571</ele>
        <time>2021-11-28T07:59:01Z</time>
      </trkpt>
      <trkpt lat="43.44894" lon="6.61564">
        <ele>50.871004879475</ele>
        <time>2021-11-28T07:59:02Z</time>
      </trkpt>
      <trkpt lat="43.44894" lon="6.61562">
        <ele>50.870953917503</ele>
        <time>2021-11-28T07:59:04Z</time>
      </trkpt>
      <trkpt lat="43.44894" lon="6.6156">
        <ele>50.870858699083</ele>
        <time>2021-11-28T07:59:06Z</time>
      </trkpt>
      <trkpt lat="43.44894" lon="6.61559">
        <ele>50.870798684657</ele>
        <time>2021-11-28T07:59:07Z</time>
      </trkpt>
      <trkpt lat="43.44895" lon="6.61558">
        <ele>50.870734982193</ele>
        <time>2021-11-28T07:59:08Z</time>
      </trkpt>
      <trkpt lat="43.44895" lon="6.61557">
        <ele>49.870667591691</ele>
        <time>2021-11-28T07:59:10Z</time>
      </trkpt>
      <trkpt lat="43.44896" lon="6.61556">
        <ele>49.870596848428</ele>
        <time>2021-11-28T07:59:11Z</time>
      </trkpt>
      <trkpt lat="43.44896" lon="6.61556">
        <ele>50.870538510382</ele>
        <time>2021-11-28T07:59:48Z</time>
      </trkpt>
      <trkpt lat="43.44897" lon="6.61553">
        <ele>49.87036383152</ele>
        <time>2021-11-28T07:59:50Z</time>
      </trkpt>
      <trkpt lat="43.44897" lon="6.61552">
        <ele>49.870343714952</ele>
        <time>2021-11-28T07:59:51Z</time>
      </trkpt>
      <trkpt lat="43.44897" lon="6.61551">
        <ele>49.870317563415</ele>
        <time>2021-11-28T07:59:52Z</time>
      </trkpt>
      <trkpt lat="43.44897" lon="6.6155">
        <ele>49.870290070772</ele>
        <time>2021-11-28T07:59:53Z</time>
      </trkpt>
      <trkpt lat="43.44897" lon="6.6155">
        <ele>49.870258554816</ele>
        <time>2021-11-28T07:59:57Z</time>
      </trkpt>
      <trkpt lat="43.44897" lon="6.61548">
        <ele>49.870151937008</ele>
        <time>2021-11-28T07:59:59Z</time>
      </trkpt>
      <trkpt lat="43.44898" lon="6.61546">
        <ele>49.870048001409</ele>
        <time>2021-11-28T08:00:01Z</time>
      </trkpt>
      <trkpt lat="43.44897" lon="6.61546">
        <ele>49.870030231774</ele>
        <time>2021-11-28T08:00:02Z</time>
      </trkpt>
      <trkpt lat="43.44897" lon="6.61545">
        <ele>49.870020844042</ele>
        <time>2021-11-28T08:00:03Z</time>
      </trkpt>
      <trkpt lat="43.44896" lon="6.61544">
        <ele>49.870088234544</ele>
        <time>2021-11-28T08:00:05Z</time>
      </trkpt>
      <trkpt lat="43.44896" lon="6.61544">
        <ele>50.870096951723</ele>
        <time>2021-11-28T08:00:06Z</time>
      </trkpt>
      <trkpt lat="43.44895" lon="6.61543">
        <ele>50.870106004179</ele>
        <time>2021-11-28T08:00:09Z</time>
      </trkpt>
      <trkpt lat="43.44893" lon="6.61541">
        <ele>51.870212621987</ele>
        <time>2021-11-28T08:00:11Z</time>
      </trkpt>
      <trkpt lat="43.44892" lon="6.61541">
        <ele>51.870277665555</ele>
        <time>2021-11-28T08:00:12Z</time>
      </trkpt>
      <trkpt lat="43.44892" lon="6.6154">
        <ele>52.870294429362</ele>
        <time>2021-11-28T08:00:13Z</time>
      </trkpt>
      <trkpt lat="43.4489" lon="6.61539">
        <ele>52.870327956975</ele>
        <time>2021-11-28T08:00:15Z</time>
      </trkpt>
      <trkpt lat="43.44889" lon="6.61539">
        <ele>52.870394006371</ele>
        <time>2021-11-28T08:00:16Z</time>
      </trkpt>
      <trkpt lat="43.44889" lon="6.61538">
        <ele>53.870427533984</ele>
        <time>2021-11-28T08:00:17Z</time>
      </trkpt>
      <trkpt lat="43.44887" lon="6.61538">
        <ele>54.870542868972</ele>
        <time>2021-11-28T08:00:19Z</time>
      </trkpt>
      <trkpt lat="43.44886" lon="6.61539">
        <ele>55.870665580034</ele>
        <time>2021-11-28T08:00:21Z</time>
      </trkpt>
      <trkpt lat="43.44886" lon="6.61539">
        <ele>55.870665580034</ele>
        <time>2021-11-28T08:00:23Z</time>
      </trkpt>
      <trkpt lat="43.44885" lon="6.61538">
        <ele>56.870746716857</ele>
        <time>2021-11-28T08:00:24Z</time>
      </trkpt>
      <trkpt lat="43.44883" lon="6.61537">
        <ele>56.870836235583</ele>
        <time>2021-11-28T08:00:26Z</time>
      </trkpt>
      <trkpt lat="43.44882" lon="6.61537">
        <ele>56.870877474546</ele>
        <time>2021-11-28T08:00:27Z</time>
      </trkpt>
      <trkpt lat="43.44882" lon="6.61536">
        <ele>57.870907984674</ele>
        <time>2021-11-28T08:00:28Z</time>
      </trkpt>
      <trkpt lat="43.4488" lon="6.61535">
        <ele>57.871009908617</ele>
        <time>2021-11-28T08:00:30Z</time>
      </trkpt>
      <trkpt lat="43.4488" lon="6.61535">
        <ele>56.871037401259</ele>
        <time>2021-11-28T08:00:31Z</time>
      </trkpt>
      <trkpt lat="43.44879" lon="6.61535">
        <ele>58.871085010469</ele>
        <time>2021-11-28T08:00:32Z</time>
      </trkpt>
      <trkpt lat="43.44878" lon="6.61535">
        <ele>59.871156089008</ele>
        <time>2021-11-28T08:00:33Z</time>
      </trkpt>
      <trkpt lat="43.44878" lon="6.61535">
        <ele>60.871186263859</ele>
        <time>2021-11-28T08:00:34Z</time>
      </trkpt>
      <trkpt lat="43.44877" lon="6.61533">
        <ele>60.871174193919</ele>
        <time>2021-11-28T08:00:35Z</time>
      </trkpt>
      <trkpt lat="43.44876" lon="6.61532">
        <ele>60.871186934412</ele>
        <time>2021-11-28T08:00:36Z</time>
      </trkpt>
      <trkpt lat="43.44876" lon="6.61532">
        <ele>60.871201016009</ele>
        <time>2021-11-28T08:00:37Z</time>
      </trkpt>
      <trkpt lat="43.44876" lon="6.61532">
        <ele>60.8712207973</ele>
        <time>2021-11-28T08:00:38Z</time>
      </trkpt>
      <trkpt lat="43.44875" lon="6.61531">
        <ele>60.87124594301</ele>
        <time>2021-11-28T08:00:39Z</time>
      </trkpt>
      <trkpt lat="43.44875" lon="6.6153">
        <ele>60.871240243316</ele>
        <time>2021-11-28T08:00:40Z</time>
      </trkpt>
      <trkpt lat="43.44874" lon="6.61529">
        <ele>60.871237896383</ele>
        <time>2021-11-28T08:00:41Z</time>
      </trkpt>
      <trkpt lat="43.44874" lon="6.61528">
        <ele>61.871229179204</ele>
        <time>2021-11-28T08:00:42Z</time>
      </trkpt>
      <trkpt lat="43.44873" lon="6.61526">
        <ele>60.871192634106</ele>
        <time>2021-11-28T08:00:44Z</time>
      </trkpt>
      <trkpt lat="43.44873" lon="6.61526">
        <ele>60.871195651591</ele>
        <time>2021-11-28T08:00:45Z</time>
      </trkpt>
      <trkpt lat="43.44872" lon="6.61525">
        <ele>61.871245607734</ele>
        <time>2021-11-28T08:00:47Z</time>
      </trkpt>
      <trkpt lat="43.44872" lon="6.61524">
        <ele>61.871243596077</ele>
        <time>2021-11-28T08:00:48Z</time>
      </trkpt>
      <trkpt lat="43.44871" lon="6.61524">
        <ele>61.871232867241</ele>
        <time>2021-11-28T08:00:49Z</time>
      </trkpt>
      <trkpt lat="43.44871" lon="6.61522">
        <ele>61.871178552508</ele>
        <time>2021-11-28T08:00:51Z</time>
      </trkpt>
      <trkpt lat="43.44871" lon="6.61522">
        <ele>61.871160447598</ele>
        <time>2021-11-28T08:00:52Z</time>
      </trkpt>
      <trkpt lat="43.44871" lon="6.61521">
        <ele>61.871163129807</ele>
        <time>2021-11-28T08:00:55Z</time>
      </trkpt>
      <trkpt lat="43.4487" lon="6.6152">
        <ele>61.871233873069</ele>
        <time>2021-11-28T08:00:56Z</time>
      </trkpt>
      <trkpt lat="43.44869" lon="6.61521">
        <ele>61.871311992407</ele>
        <time>2021-11-28T08:01:00Z</time>
      </trkpt>
      <trkpt lat="43.44869" lon="6.61521">
        <ele>61.871331103146</ele>
        <time>2021-11-28T08:01:09Z</time>
      </trkpt>
      <trkpt lat="43.44868" lon="6.6152">
        <ele>60.8713991642</ele>
        <time>2021-11-28T08:01:11Z</time>
      </trkpt>
      <trkpt lat="43.44868" lon="6.61521">
        <ele>60.871421962976</ele>
        <time>2021-11-28T08:01:23Z</time>
      </trkpt>
      <trkpt lat="43.44868" lon="6.61522">
        <ele>59.871417939663</ele>
        <time>2021-11-28T08:01:34Z</time>
      </trkpt>
      <trkpt lat="43.44869" lon="6.61519">
        <ele>60.871254995465</ele>
        <time>2021-11-28T08:01:36Z</time>
      </trkpt>
      <trkpt lat="43.44868" lon="6.6152">
        <ele>60.87131433934</ele>
        <time>2021-11-28T08:02:09Z</time>
      </trkpt>
      <trkpt lat="43.44868" lon="6.61518">
        <ele>59.871236555278</ele>
        <time>2021-11-28T08:02:11Z</time>
      </trkpt>
      <trkpt lat="43.44869" lon="6.61518">
        <ele>59.871238566935</ele>
        <time>2021-11-28T08:02:15Z</time>
      </trkpt>
      <trkpt lat="43.4487" lon="6.61519">
        <ele>58.871185928583</ele>
        <time>2021-11-28T08:02:17Z</time>
      </trkpt>
      <trkpt lat="43.44869" lon="6.61519">
        <ele>59.871223479509</ele>
        <time>2021-11-28T08:02:23Z</time>
      </trkpt>
      <trkpt lat="43.44869" lon="6.6152">
        <ele>61.871235884726</ele>
        <time>2021-11-28T08:02:28Z</time>
      </trkpt>
      <trkpt lat="43.4487" lon="6.61518">
        <ele>62.871142677963</ele>
        <time>2021-11-28T08:02:30Z</time>
      </trkpt>
      <trkpt lat="43.4487" lon="6.61517">
        <ele>62.871093057096</ele>
        <time>2021-11-28T08:02:31Z</time>
      </trkpt>
      <trkpt lat="43.4487" lon="6.61517">
        <ele>61.87108232826</ele>
        <time>2021-11-28T08:02:32Z</time>
      </trkpt>
      <trkpt lat="43.44869" lon="6.61515">
        <ele>62.871090374887</ele>
        <time>2021-11-28T08:02:34Z</time>
      </trkpt>
      <trkpt lat="43.44868" lon="6.61514">
        <ele>62.871076628566</ele>
        <time>2021-11-28T08:02:36Z</time>
      </trkpt>
      <trkpt lat="43.44868" lon="6.61513">
        <ele>62.871117867529</ele>
        <time>2021-11-28T08:02:53Z</time>
      </trkpt>
      <trkpt lat="43.44867" lon="6.61513">
        <ele>62.871164806187</ele>
        <time>2021-11-28T08:02:54Z</time>
      </trkpt>
      <trkpt lat="43.44867" lon="6.61512">
        <ele>62.871152065694</ele>
        <time>2021-11-28T08:02:57Z</time>
      </trkpt>
      <trkpt lat="43.44867" lon="6.61511">
        <ele>61.871107473969</ele>
        <time>2021-11-28T08:02:58Z</time>
      </trkpt>
      <trkpt lat="43.44867" lon="6.6151">
        <ele>60.871069587767</ele>
        <time>2021-11-28T08:02:59Z</time>
      </trkpt>
      <trkpt lat="43.44867" lon="6.61509">
        <ele>60.871009908617</ele>
        <time>2021-11-28T08:03:00Z</time>
      </trkpt>
      <trkpt lat="43.44867" lon="6.61508">
        <ele>60.870982415974</ele>
        <time>2021-11-28T08:03:01Z</time>
      </trkpt>
      <trkpt lat="43.44867" lon="6.61507">
        <ele>60.870926760137</ele>
        <time>2021-11-28T08:03:02Z</time>
      </trkpt>
      <trkpt lat="43.44866" lon="6.61506">
        <ele>60.870948888361</ele>
        <time>2021-11-28T08:03:04Z</time>
      </trkpt>
      <trkpt lat="43.44866" lon="6.61506">
        <ele>60.870949223638</ele>
        <time>2021-11-28T08:03:05Z</time>
      </trkpt>
      <trkpt lat="43.44866" lon="6.61505">
        <ele>60.870920389891</ele>
        <time>2021-11-28T08:03:06Z</time>
      </trkpt>
      <trkpt lat="43.44866" lon="6.61504">
        <ele>60.870894238353</ele>
        <time>2021-11-28T08:03:07Z</time>
      </trkpt>
      <trkpt lat="43.44865" lon="6.61503">
        <ele>61.870876133442</ele>
        <time>2021-11-28T08:03:08Z</time>
      </trkpt>
      <trkpt lat="43.44865" lon="6.61501">
        <ele>61.870877474546</ele>
        <time>2021-11-28T08:03:09Z</time>
      </trkpt>
      <trkpt lat="43.44864" lon="6.615">
        <ele>61.870863392949</ele>
        <time>2021-11-28T08:03:10Z</time>
      </trkpt>
      <trkpt lat="43.44864" lon="6.61499">
        <ele>62.870840258896</ele>
        <time>2021-11-28T08:03:11Z</time>
      </trkpt>
      <trkpt lat="43.44864" lon="6.61498">
        <ele>62.87079834938</ele>
        <time>2021-11-28T08:03:12Z</time>
      </trkpt>
      <trkpt lat="43.44864" lon="6.61497">
        <ele>62.870746716857</ele>
        <time>2021-11-28T08:03:13Z</time>
      </trkpt>
      <trkpt lat="43.44864" lon="6.61496">
        <ele>62.870741687715</ele>
        <time>2021-11-28T08:03:14Z</time>
      </trkpt>
      <trkpt lat="43.44863" lon="6.61496">
        <ele>62.87076113373</ele>
        <time>2021-11-28T08:03:15Z</time>
      </trkpt>
      <trkpt lat="43.44863" lon="6.61495">
        <ele>63.870729617774</ele>
        <time>2021-11-28T08:03:16Z</time>
      </trkpt>
      <trkpt lat="43.44863" lon="6.61494">
        <ele>62.870731964707</ele>
        <time>2021-11-28T08:03:17Z</time>
      </trkpt>
      <trkpt lat="43.44863" lon="6.61493">
        <ele>62.870691731572</ele>
        <time>2021-11-28T08:03:18Z</time>
      </trkpt>
      <trkpt lat="43.44862" lon="6.61491">
        <ele>62.870678655803</ele>
        <time>2021-11-28T08:03:20Z</time>
      </trkpt>
      <trkpt lat="43.44861" lon="6.61489">
        <ele>63.870694413781</ele>
        <time>2021-11-28T08:03:22Z</time>
      </trkpt>
      <trkpt lat="43.44861" lon="6.61489">
        <ele>63.870688043535</ele>
        <time>2021-11-28T08:03:23Z</time>
      </trkpt>
      <trkpt lat="43.4486" lon="6.61488">
        <ele>63.870698772371</ele>
        <time>2021-11-28T08:03:24Z</time>
      </trkpt>
      <trkpt lat="43.4486" lon="6.61486">
        <ele>64.870677649975</ele>
        <time>2021-11-28T08:03:26Z</time>
      </trkpt>
      <trkpt lat="43.44859" lon="6.61486">
        <ele>64.87068066746</ele>
        <time>2021-11-28T08:03:27Z</time>
      </trkpt>
      <trkpt lat="43.44859" lon="6.61484">
        <ele>64.870642110705</ele>
        <time>2021-11-28T08:03:28Z</time>
      </trkpt>
      <trkpt lat="43.44859" lon="6.61484">
        <ele>64.870616964996</ele>
        <time>2021-11-28T08:03:29Z</time>
      </trkpt>
      <trkpt lat="43.44859" lon="6.61483">
        <ele>64.870568014681</ele>
        <time>2021-11-28T08:03:31Z</time>
      </trkpt>
      <trkpt lat="43.44859" lon="6.61482">
        <ele>65.870545886457</ele>
        <time>2021-11-28T08:03:32Z</time>
      </trkpt>
      <trkpt lat="43.44859" lon="6.61481">
        <ele>65.870533145964</ele>
        <time>2021-11-28T08:03:33Z</time>
      </trkpt>
      <trkpt lat="43.44858" lon="6.6148">
        <ele>66.87054219842</ele>
        <time>2021-11-28T08:03:34Z</time>
      </trkpt>
      <trkpt lat="43.44858" lon="6.6148">
        <ele>66.870540857315</ele>
        <time>2021-11-28T08:03:35Z</time>
      </trkpt>
      <trkpt lat="43.44858" lon="6.61478">
        <ele>66.870505318046</ele>
        <time>2021-11-28T08:03:37Z</time>
      </trkpt>
      <trkpt lat="43.44857" lon="6.61476">
        <ele>66.870470784605</ele>
        <time>2021-11-28T08:03:39Z</time>
      </trkpt>
      <trkpt lat="43.44856" lon="6.61474">
        <ele>67.870484530926</ele>
        <time>2021-11-28T08:03:41Z</time>
      </trkpt>
      <trkpt lat="43.44855" lon="6.61474">
        <ele>67.870521076024</ele>
        <time>2021-11-28T08:03:42Z</time>
      </trkpt>
      <trkpt lat="43.44855" lon="6.61473">
        <ele>68.870562314987</ele>
        <time>2021-11-28T08:03:43Z</time>
      </trkpt>
      <trkpt lat="43.44854" lon="6.61473">
        <ele>68.870587125421</ele>
        <time>2021-11-28T08:03:44Z</time>
      </trkpt>
      <trkpt lat="43.44853" lon="6.61471">
        <ele>67.870578072965</ele>
        <time>2021-11-28T08:03:46Z</time>
      </trkpt>
      <trkpt lat="43.44852" lon="6.6147">
        <ele>68.870606906712</ele>
        <time>2021-11-28T08:03:47Z</time>
      </trkpt>
      <trkpt lat="43.44852" lon="6.6147">
        <ele>69.87060791254</ele>
        <time>2021-11-28T08:03:48Z</time>
      </trkpt>
      <trkpt lat="43.44852" lon="6.61468">
        <ele>70.870613612235</ele>
        <time>2021-11-28T08:03:50Z</time>
      </trkpt>
      <trkpt lat="43.44851" lon="6.61468">
        <ele>70.870631046593</ele>
        <time>2021-11-28T08:03:53Z</time>
      </trkpt>
      <trkpt lat="43.4485" lon="6.61467">
        <ele>71.870671615005</ele>
        <time>2021-11-28T08:03:54Z</time>
      </trkpt>
      <trkpt lat="43.44849" lon="6.61466">
        <ele>72.870706148446</ele>
        <time>2021-11-28T08:03:56Z</time>
      </trkpt>
      <trkpt lat="43.44849" lon="6.61465">
        <ele>73.870673626661</ele>
        <time>2021-11-28T08:03:57Z</time>
      </trkpt>
      <trkpt lat="43.44849" lon="6.61464">
        <ele>73.87065988034</ele>
        <time>2021-11-28T08:03:58Z</time>
      </trkpt>
      <trkpt lat="43.44848" lon="6.61463">
        <ele>73.870644122362</ele>
        <time>2021-11-28T08:04:02Z</time>
      </trkpt>
      <trkpt lat="43.44846" lon="6.61461">
        <ele>74.870731294155</ele>
        <time>2021-11-28T08:04:04Z</time>
      </trkpt>
      <trkpt lat="43.44846" lon="6.61461">
        <ele>74.870746716857</ele>
        <time>2021-11-28T08:04:05Z</time>
      </trkpt>
      <trkpt lat="43.44846" lon="6.61461">
        <ele>74.870778903365</ele>
        <time>2021-11-28T08:04:11Z</time>
      </trkpt>
      <trkpt lat="43.44844" lon="6.6146">
        <ele>76.870916031301</ele>
        <time>2021-11-28T08:04:12Z</time>
      </trkpt>
      <trkpt lat="43.44843" lon="6.61461">
        <ele>76.870989792049</ele>
        <time>2021-11-28T08:04:13Z</time>
      </trkpt>
      <trkpt lat="43.44842" lon="6.61461">
        <ele>77.871029354632</ele>
        <time>2021-11-28T08:04:14Z</time>
      </trkpt>
      <trkpt lat="43.44842" lon="6.6146">
        <ele>77.871062211692</ele>
        <time>2021-11-28T08:04:18Z</time>
      </trkpt>
      <trkpt lat="43.4484" lon="6.61459">
        <ele>77.87117754668</ele>
        <time>2021-11-28T08:04:19Z</time>
      </trkpt>
      <trkpt lat="43.44838" lon="6.61458">
        <ele>78.871252313256</ele>
        <time>2021-11-28T08:04:21Z</time>
      </trkpt>
      <trkpt lat="43.44837" lon="6.61457">
        <ele>78.871325403452</ele>
        <time>2021-11-28T08:04:22Z</time>
      </trkpt>
      <trkpt lat="43.44837" lon="6.61456">
        <ele>79.871322385967</ele>
        <time>2021-11-28T08:04:23Z</time>
      </trkpt>
      <trkpt lat="43.44836" lon="6.61455">
        <ele>80.87130394578</ele>
        <time>2021-11-28T08:04:25Z</time>
      </trkpt>
      <trkpt lat="43.44835" lon="6.61452">
        <ele>80.871265724301</ele>
        <time>2021-11-28T08:04:27Z</time>
      </trkpt>
      <trkpt lat="43.44835" lon="6.61452">
        <ele>80.871294558048</ele>
        <time>2021-11-28T08:04:28Z</time>
      </trkpt>
      <trkpt lat="43.44833" lon="6.61451">
        <ele>81.871394135058</ele>
        <time>2021-11-28T08:04:30Z</time>
      </trkpt>
      <trkpt lat="43.44832" lon="6.61451">
        <ele>82.871498405933</ele>
        <time>2021-11-28T08:04:32Z</time>
      </trkpt>
      <trkpt lat="43.44831" lon="6.61451">
        <ele>83.871536292136</ele>
        <time>2021-11-28T08:04:33Z</time>
      </trkpt>
      <trkpt lat="43.4483" lon="6.61451">
        <ele>83.871586248279</ele>
        <time>2021-11-28T08:04:34Z</time>
      </trkpt>
      <trkpt lat="43.44829" lon="6.6145">
        <ele>82.871654309332</ele>
        <time>2021-11-28T08:04:36Z</time>
      </trkpt>
      <trkpt lat="43.44828" lon="6.61448">
        <ele>82.871668055654</ele>
        <time>2021-11-28T08:04:37Z</time>
      </trkpt>
      <trkpt lat="43.44828" lon="6.61447">
        <ele>83.87167878449</ele>
        <time>2021-11-28T08:04:38Z</time>
      </trkpt>
      <trkpt lat="43.44827" lon="6.61447">
        <ele>83.871725387871</ele>
        <time>2021-11-28T08:04:39Z</time>
      </trkpt>
      <trkpt lat="43.44826" lon="6.61447">
        <ele>83.871792443097</ele>
        <time>2021-11-28T08:04:41Z</time>
      </trkpt>
      <trkpt lat="43.44825" lon="6.61447">
        <ele>83.871852122247</ele>
        <time>2021-11-28T08:04:42Z</time>
      </trkpt>
      <trkpt lat="43.44825" lon="6.61447">
        <ele>83.871875926852</ele>
        <time>2021-11-28T08:04:43Z</time>
      </trkpt>
      <trkpt lat="43.44824" lon="6.61446">
        <ele>83.871934264898</ele>
        <time>2021-11-28T08:04:45Z</time>
      </trkpt>
      <trkpt lat="43.44823" lon="6.61444">
        <ele>83.871941640973</ele>
        <time>2021-11-28T08:04:47Z</time>
      </trkpt>
      <trkpt lat="43.44822" lon="6.61443">
        <ele>83.871942646801</ele>
        <time>2021-11-28T08:04:48Z</time>
      </trkpt>
      <trkpt lat="43.44822" lon="6.61442">
        <ele>83.871961757541</ele>
        <time>2021-11-28T08:04:49Z</time>
      </trkpt>
      <trkpt lat="43.44821" lon="6.61441">
        <ele>83.871962092817</ele>
        <time>2021-11-28T08:04:50Z</time>
      </trkpt>
      <trkpt lat="43.44821" lon="6.6144">
        <ele>83.871962428093</ele>
        <time>2021-11-28T08:04:51Z</time>
      </trkpt>
      <trkpt lat="43.4482" lon="6.6144">
        <ele>83.872000314295</ele>
        <time>2021-11-28T08:04:52Z</time>
      </trkpt>
      <trkpt lat="43.4482" lon="6.61439">
        <ele>83.871984891593</ele>
        <time>2021-11-28T08:04:53Z</time>
      </trkpt>
      <trkpt lat="43.44819" lon="6.61438">
        <ele>83.87197483331</ele>
        <time>2021-11-28T08:04:54Z</time>
      </trkpt>
      <trkpt lat="43.44819" lon="6.61438">
        <ele>84.872014060616</ele>
        <time>2021-11-28T08:04:56Z</time>
      </trkpt>
      <trkpt lat="43.44818" lon="6.61437">
        <ele>84.872061669827</ele>
        <time>2021-11-28T08:04:57Z</time>
      </trkpt>
      <trkpt lat="43.44817" lon="6.61436">
        <ele>84.872090503573</ele>
        <time>2021-11-28T08:04:58Z</time>
      </trkpt>
      <trkpt lat="43.44817" lon="6.61436">
        <ele>84.872094526887</ele>
        <time>2021-11-28T08:04:59Z</time>
      </trkpt>
      <trkpt lat="43.44816" lon="6.61435">
        <ele>84.872100897133</ele>
        <time>2021-11-28T08:05:02Z</time>
      </trkpt>
      <trkpt lat="43.44815" lon="6.61434">
        <ele>85.872174993157</ele>
        <time>2021-11-28T08:05:03Z</time>
      </trkpt>
      <trkpt lat="43.44814" lon="6.61433">
        <ele>86.872253783047</ele>
        <time>2021-11-28T08:05:05Z</time>
      </trkpt>
      <trkpt lat="43.44812" lon="6.61432">
        <ele>87.872301056981</ele>
        <time>2021-11-28T08:05:07Z</time>
      </trkpt>
      <trkpt lat="43.44812" lon="6.61431">
        <ele>87.872304409742</ele>
        <time>2021-11-28T08:05:08Z</time>
      </trkpt>
      <trkpt lat="43.44811" lon="6.61431">
        <ele>87.87232016772</ele>
        <time>2021-11-28T08:05:09Z</time>
      </trkpt>
      <trkpt lat="43.4481" lon="6.6143">
        <ele>87.872364088893</ele>
        <time>2021-11-28T08:05:11Z</time>
      </trkpt>
      <trkpt lat="43.4481" lon="6.6143">
        <ele>87.872404657304</ele>
        <time>2021-11-28T08:05:12Z</time>
      </trkpt>
      <trkpt lat="43.44809" lon="6.61429">
        <ele>88.872430808842</ele>
        <time>2021-11-28T08:05:13Z</time>
      </trkpt>
      <trkpt lat="43.44808" lon="6.61428">
        <ele>88.87251496315</ele>
        <time>2021-11-28T08:05:15Z</time>
      </trkpt>
      <trkpt lat="43.44806" lon="6.61428">
        <ele>88.872622922063</ele>
        <time>2021-11-28T08:05:17Z</time>
      </trkpt>
      <trkpt lat="43.44806" lon="6.61428">
        <ele>88.872672207654</ele>
        <time>2021-11-28T08:05:18Z</time>
      </trkpt>
      <trkpt lat="43.44805" lon="6.61428">
        <ele>88.872736245394</ele>
        <time>2021-11-28T08:05:19Z</time>
      </trkpt>
      <trkpt lat="43.44803" lon="6.61427">
        <ele>89.872835151851</ele>
        <time>2021-11-28T08:05:21Z</time>
      </trkpt>
      <trkpt lat="43.44802" lon="6.61427">
        <ele>89.87288376689</ele>
        <time>2021-11-28T08:05:22Z</time>
      </trkpt>
      <trkpt lat="43.44802" lon="6.61426">
        <ele>90.872891813517</ele>
        <time>2021-11-28T08:05:23Z</time>
      </trkpt>
      <trkpt lat="43.448" lon="6.61424">
        <ele>90.872924000025</ele>
        <time>2021-11-28T08:05:25Z</time>
      </trkpt>
      <trkpt lat="43.44799" lon="6.61423">
        <ele>91.872985690832</ele>
        <time>2021-11-28T08:05:27Z</time>
      </trkpt>
      <trkpt lat="43.44799" lon="6.61422">
        <ele>91.872977979481</ele>
        <time>2021-11-28T08:05:28Z</time>
      </trkpt>
      <trkpt lat="43.44799" lon="6.6142">
        <ele>91.872899524868</ele>
        <time>2021-11-28T08:05:30Z</time>
      </trkpt>
      <trkpt lat="43.44799" lon="6.61419">
        <ele>92.872864320874</ele>
        <time>2021-11-28T08:05:32Z</time>
      </trkpt>
      <trkpt lat="43.44799" lon="6.61418">
        <ele>92.872835822403</ele>
        <time>2021-11-28T08:05:33Z</time>
      </trkpt>
      <trkpt lat="43.44799" lon="6.61416">
        <ele>92.872759714723</ele>
        <time>2021-11-28T08:05:35Z</time>
      </trkpt>
      <trkpt lat="43.44798" lon="6.61414">
        <ele>91.872708082199</ele>
        <time>2021-11-28T08:05:37Z</time>
      </trkpt>
      <trkpt lat="43.44798" lon="6.61413">
        <ele>92.872708082199</ele>
        <time>2021-11-28T08:05:38Z</time>
      </trkpt>
      <trkpt lat="43.44797" lon="6.61413">
        <ele>92.872727863491</ele>
        <time>2021-11-28T08:05:39Z</time>
      </trkpt>
      <trkpt lat="43.44797" lon="6.61412">
        <ele>91.872743621469</ele>
        <time>2021-11-28T08:05:41Z</time>
      </trkpt>
      <trkpt lat="43.44796" lon="6.61411">
        <ele>91.872747309506</ele>
        <time>2021-11-28T08:05:42Z</time>
      </trkpt>
      <trkpt lat="43.44796" lon="6.61411">
        <ele>91.872768431902</ele>
        <time>2021-11-28T08:05:43Z</time>
      </trkpt>
      <trkpt lat="43.44795" lon="6.61411">
        <ele>91.872838504612</ele>
        <time>2021-11-28T08:05:45Z</time>
      </trkpt>
      <trkpt lat="43.44794" lon="6.61411">
        <ele>92.872919976711</ele>
        <time>2021-11-28T08:05:47Z</time>
      </trkpt>
      <trkpt lat="43.44793" lon="6.61409">
        <ele>93.872910924256</ele>
        <time>2021-11-28T08:05:49Z</time>
      </trkpt>
      <trkpt lat="43.44793" lon="6.61409">
        <ele>93.872930034995</ele>
        <time>2021-11-28T08:05:50Z</time>
      </trkpt>
      <trkpt lat="43.44792" lon="6.61408">
        <ele>93.872946798801</ele>
        <time>2021-11-28T08:05:51Z</time>
      </trkpt>
      <trkpt lat="43.44792" lon="6.61408">
        <ele>93.872976973653</ele>
        <time>2021-11-28T08:05:52Z</time>
      </trkpt>
      <trkpt lat="43.44791" lon="6.61408">
        <ele>93.872991390526</ele>
        <time>2021-11-28T08:05:53Z</time>
      </trkpt>
      <trkpt lat="43.44791" lon="6.61407">
        <ele>93.872987031937</ele>
        <time>2021-11-28T08:05:54Z</time>
      </trkpt>
      <trkpt lat="43.44791" lon="6.61407">
        <ele>93.873022906482</ele>
        <time>2021-11-28T08:05:56Z</time>
      </trkpt>
      <trkpt lat="43.4479" lon="6.61406">
        <ele>93.873012848198</ele>
        <time>2021-11-28T08:05:57Z</time>
      </trkpt>
      <trkpt lat="43.4479" lon="6.61405">
        <ele>94.873001113534</ele>
        <time>2021-11-28T08:05:58Z</time>
      </trkpt>
      <trkpt lat="43.44789" lon="6.61404">
        <ele>94.873046040535</ele>
        <time>2021-11-28T08:05:59Z</time>
      </trkpt>
      <trkpt lat="43.44789" lon="6.61404">
        <ele>94.873046040535</ele>
        <time>2021-11-28T08:06:01Z</time>
      </trkpt>
      <trkpt lat="43.44788" lon="6.61402">
        <ele>95.87306548655</ele>
        <time>2021-11-28T08:06:02Z</time>
      </trkpt>
      <trkpt lat="43.44788" lon="6.61401">
        <ele>96.873018883169</ele>
        <time>2021-11-28T08:06:03Z</time>
      </trkpt>
      <trkpt lat="43.44788" lon="6.614">
        <ele>96.872978650033</ele>
        <time>2021-11-28T08:06:04Z</time>
      </trkpt>
      <trkpt lat="43.44788" lon="6.61399">
        <ele>96.87294176966</ele>
        <time>2021-11-28T08:06:05Z</time>
      </trkpt>
      <trkpt lat="43.44788" lon="6.61399">
        <ele>96.872904554009</ele>
        <time>2021-11-28T08:06:06Z</time>
      </trkpt>
      <trkpt lat="43.44788" lon="6.61397">
        <ele>97.87286465615</ele>
        <time>2021-11-28T08:06:11Z</time>
      </trkpt>
      <trkpt lat="43.44787" lon="6.61395">
        <ele>96.872820734978</ele>
        <time>2021-11-28T08:06:12Z</time>
      </trkpt>
      <trkpt lat="43.44787" lon="6.61395">
        <ele>96.872857615352</ele>
        <time>2021-11-28T08:06:13Z</time>
      </trkpt>
      <trkpt lat="43.44786" lon="6.61394">
        <ele>97.872878737748</ele>
        <time>2021-11-28T08:06:14Z</time>
      </trkpt>
      <trkpt lat="43.44786" lon="6.61394">
        <ele>97.872890472412</ele>
        <time>2021-11-28T08:06:16Z</time>
      </trkpt>
      <trkpt lat="43.44785" lon="6.61393">
        <ele>98.872935064137</ele>
        <time>2021-11-28T08:06:17Z</time>
      </trkpt>
      <trkpt lat="43.44784" lon="6.61392">
        <ele>99.872961550951</ele>
        <time>2021-11-28T08:06:18Z</time>
      </trkpt>
      <trkpt lat="43.44784" lon="6.61392">
        <ele>99.872950822115</ele>
        <time>2021-11-28T08:06:19Z</time>
      </trkpt>
      <trkpt lat="43.44784" lon="6.61391">
        <ele>100.87295149267</ele>
        <time>2021-11-28T08:06:20Z</time>
      </trkpt>
      <trkpt lat="43.44783" lon="6.6139">
        <ele>100.87295886874</ele>
        <time>2021-11-28T08:06:21Z</time>
      </trkpt>
      <trkpt lat="43.44783" lon="6.6139">
        <ele>100.87296389788</ele>
        <time>2021-11-28T08:06:22Z</time>
      </trkpt>
      <trkpt lat="43.44783" lon="6.61389">
        <ele>100.87292802334</ele>
        <time>2021-11-28T08:06:23Z</time>
      </trkpt>
      <trkpt lat="43.44782" lon="6.61388">
        <ele>101.87292500585</ele>
        <time>2021-11-28T08:06:24Z</time>
      </trkpt>
      <trkpt lat="43.44782" lon="6.61388">
        <ele>101.87295182794</ele>
        <time>2021-11-28T08:06:25Z</time>
      </trkpt>
      <trkpt lat="43.44782" lon="6.61387">
        <ele>101.87295316905</ele>
        <time>2021-11-28T08:06:26Z</time>
      </trkpt>
      <trkpt lat="43.44781" lon="6.61386">
        <ele>101.87294512242</ele>
        <time>2021-11-28T08:06:27Z</time>
      </trkpt>
      <trkpt lat="43.44781" lon="6.61385">
        <ele>101.87292198837</ele>
        <time>2021-11-28T08:06:28Z</time>
      </trkpt>
      <trkpt lat="43.44781" lon="6.61384">
        <ele>100.87289751321</ele>
        <time>2021-11-28T08:06:29Z</time>
      </trkpt>
      <trkpt lat="43.44781" lon="6.61383">
        <ele>100.87287069112</ele>
        <time>2021-11-28T08:06:30Z</time>
      </trkpt>
      <trkpt lat="43.4478" lon="6.61381">
        <ele>101.87282945216</ele>
        <time>2021-11-28T08:06:32Z</time>
      </trkpt>
      <trkpt lat="43.4478" lon="6.61381">
        <ele>101.87279726565</ele>
        <time>2021-11-28T08:06:33Z</time>
      </trkpt>
      <trkpt lat="43.4478" lon="6.6138">
        <ele>102.87277580798</ele>
        <time>2021-11-28T08:06:34Z</time>
      </trkpt>
      <trkpt lat="43.4478" lon="6.61379">
        <ele>101.87272015214</ele>
        <time>2021-11-28T08:06:35Z</time>
      </trkpt>
      <trkpt lat="43.4478" lon="6.61377">
        <ele>101.87265276164</ele>
        <time>2021-11-28T08:06:37Z</time>
      </trkpt>
      <trkpt lat="43.4478" lon="6.61377">
        <ele>103.87269031256</ele>
        <time>2021-11-28T08:06:39Z</time>
      </trkpt>
      <trkpt lat="43.44779" lon="6.61376">
        <ele>102.87271177024</ele>
        <time>2021-11-28T08:06:41Z</time>
      </trkpt>
      <trkpt lat="43.44779" lon="6.61375">
        <ele>102.87267388403</ele>
        <time>2021-11-28T08:06:42Z</time>
      </trkpt>
      <trkpt lat="43.44779" lon="6.61374">
        <ele>102.87266114354</ele>
        <time>2021-11-28T08:06:43Z</time>
      </trkpt>
      <trkpt lat="43.44779" lon="6.61372">
        <ele>102.87257698923</ele>
        <time>2021-11-28T08:06:45Z</time>
      </trkpt>
      <trkpt lat="43.44779" lon="6.6137">
        <ele>103.87248445302</ele>
        <time>2021-11-28T08:06:47Z</time>
      </trkpt>
      <trkpt lat="43.44779" lon="6.61368">
        <ele>103.8724482432</ele>
        <time>2021-11-28T08:06:48Z</time>
      </trkpt>
      <trkpt lat="43.44778" lon="6.61367">
        <ele>103.87241605669</ele>
        <time>2021-11-28T08:06:49Z</time>
      </trkpt>
      <trkpt lat="43.44778" lon="6.61365">
        <ele>103.87236543</ele>
        <time>2021-11-28T08:06:51Z</time>
      </trkpt>
      <trkpt lat="43.44777" lon="6.61364">
        <ele>103.87236811221</ele>
        <time>2021-11-28T08:06:52Z</time>
      </trkpt>
      <trkpt lat="43.44777" lon="6.61363">
        <ele>104.87236274779</ele>
        <time>2021-11-28T08:06:53Z</time>
      </trkpt>
      <trkpt lat="43.44776" lon="6.61362">
        <ele>104.87238956988</ele>
        <time>2021-11-28T08:06:55Z</time>
      </trkpt>
      <trkpt lat="43.44775" lon="6.6136">
        <ele>104.87234866619</ele>
        <time>2021-11-28T08:06:57Z</time>
      </trkpt>
      <trkpt lat="43.44775" lon="6.61359">
        <ele>104.87235872447</ele>
        <time>2021-11-28T08:06:58Z</time>
      </trkpt>
      <trkpt lat="43.44775" lon="6.61359">
        <ele>104.87236811221</ele>
        <time>2021-11-28T08:06:59Z</time>
      </trkpt>
      <trkpt lat="43.44774" lon="6.61358">
        <ele>104.87240398675</ele>
        <time>2021-11-28T08:07:00Z</time>
      </trkpt>
      <trkpt lat="43.44773" lon="6.61358">
        <ele>104.87252368033</ele>
        <time>2021-11-28T08:07:02Z</time>
      </trkpt>
      <trkpt lat="43.44772" lon="6.61358">
        <ele>105.8725521788</ele>
        <time>2021-11-28T08:07:03Z</time>
      </trkpt>
      <trkpt lat="43.44771" lon="6.61357">
        <ele>106.87258604169</ele>
        <time>2021-11-28T08:07:04Z</time>
      </trkpt>
      <trkpt lat="43.44771" lon="6.61356">
        <ele>106.87256726623</ele>
        <time>2021-11-28T08:07:05Z</time>
      </trkpt>
      <trkpt lat="43.4477" lon="6.61355">
        <ele>106.87255653739</ele>
        <time>2021-11-28T08:07:06Z</time>
      </trkpt>
      <trkpt lat="43.4477" lon="6.61354">
        <ele>106.8725310564</ele>
        <time>2021-11-28T08:07:07Z</time>
      </trkpt>
      <trkpt lat="43.4477" lon="6.61354">
        <ele>106.87251932174</ele>
        <time>2021-11-28T08:07:08Z</time>
      </trkpt>
      <trkpt lat="43.4477" lon="6.61352">
        <ele>106.87249518186</ele>
        <time>2021-11-28T08:07:09Z</time>
      </trkpt>
      <trkpt lat="43.4477" lon="6.61351">
        <ele>106.87248981744</ele>
        <time>2021-11-28T08:07:10Z</time>
      </trkpt>
      <trkpt lat="43.44769" lon="6.61351">
        <ele>105.8724707067</ele>
        <time>2021-11-28T08:07:12Z</time>
      </trkpt>
      <trkpt lat="43.44769" lon="6.6135">
        <ele>105.872455284</ele>
        <time>2021-11-28T08:07:13Z</time>
      </trkpt>
      <trkpt lat="43.44769" lon="6.61349">
        <ele>105.87241706252</ele>
        <time>2021-11-28T08:07:14Z</time>
      </trkpt>
      <trkpt lat="43.4477" lon="6.61348">
        <ele>105.87235604227</ele>
        <time>2021-11-28T08:07:15Z</time>
      </trkpt>
      <trkpt lat="43.4477" lon="6.61345">
        <ele>105.87219075114</ele>
        <time>2021-11-28T08:07:17Z</time>
      </trkpt>
      <trkpt lat="43.4477" lon="6.61343">
        <ele>105.87215454131</ele>
        <time>2021-11-28T08:07:18Z</time>
      </trkpt>
      <trkpt lat="43.4477" lon="6.61342">
        <ele>105.87212302536</ele>
        <time>2021-11-28T08:07:19Z</time>
      </trkpt>
      <trkpt lat="43.44769" lon="6.61341">
        <ele>105.8720998913</ele>
        <time>2021-11-28T08:07:23Z</time>
      </trkpt>
      <trkpt lat="43.4477" lon="6.6134">
        <ele>105.87201942503</ele>
        <time>2021-11-28T08:07:25Z</time>
      </trkpt>
      <trkpt lat="43.44769" lon="6.61339">
        <ele>105.87203216553</ele>
        <time>2021-11-28T08:07:27Z</time>
      </trkpt>
      <trkpt lat="43.44768" lon="6.6134">
        <ele>106.87210458517</ele>
        <time>2021-11-28T08:07:29Z</time>
      </trkpt>
      <trkpt lat="43.44767" lon="6.61338">
        <ele>106.87219846249</ele>
        <time>2021-11-28T08:07:31Z</time>
      </trkpt>
      <trkpt lat="43.44766" lon="6.61337">
        <ele>107.87223634869</ele>
        <time>2021-11-28T08:07:32Z</time>
      </trkpt>
      <trkpt lat="43.44765" lon="6.61336">
        <ele>106.87227188796</ele>
        <time>2021-11-28T08:07:33Z</time>
      </trkpt>
      <trkpt lat="43.44764" lon="6.61334">
        <ele>106.87222461402</ele>
        <time>2021-11-28T08:07:35Z</time>
      </trkpt>
      <trkpt lat="43.44764" lon="6.61331">
        <ele>106.87213006616</ele>
        <time>2021-11-28T08:07:37Z</time>
      </trkpt>
      <trkpt lat="43.44764" lon="6.6133">
        <ele>106.87210056186</ele>
        <time>2021-11-28T08:07:38Z</time>
      </trkpt>
      <trkpt lat="43.44763" lon="6.61328">
        <ele>105.87210089713</ele>
        <time>2021-11-28T08:07:39Z</time>
      </trkpt>
      <trkpt lat="43.44762" lon="6.61326">
        <ele>105.87205731124</ele>
        <time>2021-11-28T08:07:41Z</time>
      </trkpt>
      <trkpt lat="43.44762" lon="6.61325">
        <ele>104.87204021215</ele>
        <time>2021-11-28T08:07:43Z</time>
      </trkpt>
      <trkpt lat="43.44762" lon="6.61324">
        <ele>104.87203585356</ele>
        <time>2021-11-28T08:07:44Z</time>
      </trkpt>
      <trkpt lat="43.44761" lon="6.61324">
        <ele>104.87205898762</ele>
        <time>2021-11-28T08:07:47Z</time>
      </trkpt>
      <trkpt lat="43.4476" lon="6.61323">
        <ele>105.87207206339</ele>
        <time>2021-11-28T08:07:48Z</time>
      </trkpt>
      <trkpt lat="43.44759" lon="6.61323">
        <ele>105.8721870631</ele>
        <time>2021-11-28T08:07:50Z</time>
      </trkpt>
      <trkpt lat="43.44759" lon="6.61323">
        <ele>105.87217566371</ele>
        <time>2021-11-28T08:07:53Z</time>
      </trkpt>
      <trkpt lat="43.44758" lon="6.61322">
        <ele>105.87221489102</ele>
        <time>2021-11-28T08:07:54Z</time>
      </trkpt>
      <trkpt lat="43.44758" lon="6.61321">
        <ele>106.87224137783</ele>
        <time>2021-11-28T08:07:55Z</time>
      </trkpt>
      <trkpt lat="43.44757" lon="6.6132">
        <ele>107.87225277722</ele>
        <time>2021-11-28T08:07:57Z</time>
      </trkpt>
      <trkpt lat="43.44757" lon="6.61318">
        <ele>107.87221455574</ele>
        <time>2021-11-28T08:07:58Z</time>
      </trkpt>
      <trkpt lat="43.44756" lon="6.61317">
        <ele>107.87217465788</ele>
        <time>2021-11-28T08:07:59Z</time>
      </trkpt>
      <trkpt lat="43.44755" lon="6.61314">
        <ele>106.87213140726</ele>
        <time>2021-11-28T08:08:01Z</time>
      </trkpt>
      <trkpt lat="43.44755" lon="6.61312">
        <ele>106.87209519744</ele>
        <time>2021-11-28T08:08:02Z</time>
      </trkpt>
      <trkpt lat="43.44755" lon="6.61311">
        <ele>106.87205999345</ele>
        <time>2021-11-28T08:08:03Z</time>
      </trkpt>
      <trkpt lat="43.44754" lon="6.61309">
        <ele>108.87201808393</ele>
        <time>2021-11-28T08:08:05Z</time>
      </trkpt>
      <trkpt lat="43.44753" lon="6.61309">
        <ele>109.87207306921</ele>
        <time>2021-11-28T08:08:07Z</time>
      </trkpt>
      <trkpt lat="43.44753" lon="6.61307">
        <ele>110.87206703424</ele>
        <time>2021-11-28T08:08:08Z</time>
      </trkpt>
      <trkpt lat="43.44753" lon="6.61307">
        <ele>110.87207206339</ele>
        <time>2021-11-28T08:08:12Z</time>
      </trkpt>
      <trkpt lat="43.44752" lon="6.61307">
        <ele>112.87214548886</ele>
        <time>2021-11-28T08:08:13Z</time>
      </trkpt>
      <trkpt lat="43.44751" lon="6.61307">
        <ele>113.8721659407</ele>
        <time>2021-11-28T08:08:14Z</time>
      </trkpt>
      <trkpt lat="43.44751" lon="6.61306">
        <ele>112.87217901647</ele>
        <time>2021-11-28T08:08:18Z</time>
      </trkpt>
      <trkpt lat="43.4475" lon="6.61304">
        <ele>112.87214750051</ele>
        <time>2021-11-28T08:08:19Z</time>
      </trkpt>
      <trkpt lat="43.4475" lon="6.61304">
        <ele>111.87217499316</ele>
        <time>2021-11-28T08:08:20Z</time>
      </trkpt>
      <trkpt lat="43.44749" lon="6.61303">
        <ele>111.87218538672</ele>
        <time>2021-11-28T08:08:21Z</time>
      </trkpt>
      <trkpt lat="43.44749" lon="6.61302">
        <ele>111.87216191739</ele>
        <time>2021-11-28T08:08:22Z</time>
      </trkpt>
      <trkpt lat="43.44749" lon="6.61301">
        <ele>111.87216962874</ele>
        <time>2021-11-28T08:08:23Z</time>
      </trkpt>
      <trkpt lat="43.44747" lon="6.61299">
        <ele>111.87221354991</ele>
        <time>2021-11-28T08:08:25Z</time>
      </trkpt>
      <trkpt lat="43.44746" lon="6.61297">
        <ele>111.87216292322</ele>
        <time>2021-11-28T08:08:27Z</time>
      </trkpt>
      <trkpt lat="43.44746" lon="6.61297">
        <ele>112.8721800223</ele>
        <time>2021-11-28T08:08:35Z</time>
      </trkpt>
      <trkpt lat="43.44744" lon="6.61297">
        <ele>113.87232117355</ele>
        <time>2021-11-28T08:08:37Z</time>
      </trkpt>
      <trkpt lat="43.44744" lon="6.61296">
        <ele>113.87234229594</ele>
        <time>2021-11-28T08:08:38Z</time>
      </trkpt>
      <trkpt lat="43.44744" lon="6.61295">
        <ele>113.8722839579</ele>
        <time>2021-11-28T08:08:39Z</time>
      </trkpt>
      <trkpt lat="43.44744" lon="6.61295">
        <ele>112.87227892876</ele>
        <time>2021-11-28T08:08:45Z</time>
      </trkpt>
      <trkpt lat="43.44744" lon="6.61293">
        <ele>112.87226015329</ele>
        <time>2021-11-28T08:08:46Z</time>
      </trkpt>
      <trkpt lat="43.44743" lon="6.61293">
        <ele>112.87229602784</ele>
        <time>2021-11-28T08:08:47Z</time>
      </trkpt>
      <trkpt lat="43.44742" lon="6.61292">
        <ele>112.87230843306</ele>
        <time>2021-11-28T08:08:48Z</time>
      </trkpt>
      <trkpt lat="43.44741" lon="6.61292">
        <ele>111.87238487601</ele>
        <time>2021-11-28T08:08:50Z</time>
      </trkpt>
      <trkpt lat="43.4474" lon="6.61292">
        <ele>111.87245360762</ele>
        <time>2021-11-28T08:08:54Z</time>
      </trkpt>
      <trkpt lat="43.4474" lon="6.61292">
        <ele>112.87249954045</ele>
        <time>2021-11-28T08:08:58Z</time>
      </trkpt>
      <trkpt lat="43.44739" lon="6.61292">
        <ele>112.87254346162</ele>
        <time>2021-11-28T08:08:59Z</time>
      </trkpt>
      <trkpt lat="43.44738" lon="6.61292">
        <ele>112.87261454016</ele>
        <time>2021-11-28T08:09:00Z</time>
      </trkpt>
      <trkpt lat="43.44738" lon="6.61292">
        <ele>113.87263868004</ele>
        <time>2021-11-28T08:09:03Z</time>
      </trkpt>
      <trkpt lat="43.44738" lon="6.61292">
        <ele>113.87269299477</ele>
        <time>2021-11-28T08:09:04Z</time>
      </trkpt>
      <trkpt lat="43.44737" lon="6.61293">
        <ele>114.87274395674</ele>
        <time>2021-11-28T08:09:05Z</time>
      </trkpt>
      <trkpt lat="43.44737" lon="6.61293">
        <ele>114.87278854847</ele>
        <time>2021-11-28T08:09:06Z</time>
      </trkpt>
      <trkpt lat="43.44736" lon="6.61293">
        <ele>114.87283515185</ele>
        <time>2021-11-28T08:09:09Z</time>
      </trkpt>
      <trkpt lat="43.44735" lon="6.61295">
        <ele>114.87298803777</ele>
        <time>2021-11-28T08:09:10Z</time>
      </trkpt>
      <trkpt lat="43.44735" lon="6.61296">
        <ele>114.87304335833</ele>
        <time>2021-11-28T08:09:11Z</time>
      </trkpt>
      <trkpt lat="43.44734" lon="6.61296">
        <ele>114.87310102582</ele>
        <time>2021-11-28T08:09:12Z</time>
      </trkpt>
      <trkpt lat="43.44734" lon="6.61297">
        <ele>114.87316238135</ele>
        <time>2021-11-28T08:09:15Z</time>
      </trkpt>
      <trkpt lat="43.44733" lon="6.61298">
        <ele>115.87330152094</ele>
        <time>2021-11-28T08:09:16Z</time>
      </trkpt>
      <trkpt lat="43.44732" lon="6.61298">
        <ele>117.87337628752</ele>
        <time>2021-11-28T08:09:19Z</time>
      </trkpt>
      <trkpt lat="43.44731" lon="6.61299">
        <ele>117.87345306575</ele>
        <time>2021-11-28T08:09:31Z</time>
      </trkpt>
      <trkpt lat="43.4473" lon="6.613">
        <ele>119.87359723449</ele>
        <time>2021-11-28T08:09:32Z</time>
      </trkpt>
      <trkpt lat="43.4473" lon="6.61301">
        <ele>119.87366261333</ele>
        <time>2021-11-28T08:09:33Z</time>
      </trkpt>
      <trkpt lat="43.44729" lon="6.61302">
        <ele>119.87371391058</ele>
        <time>2021-11-28T08:09:34Z</time>
      </trkpt>
      <trkpt lat="43.44729" lon="6.61302">
        <ele>120.87374844402</ele>
        <time>2021-11-28T08:09:37Z</time>
      </trkpt>
      <trkpt lat="43.44729" lon="6.61304">
        <ele>120.8738527149</ele>
        <time>2021-11-28T08:09:38Z</time>
      </trkpt>
      <trkpt lat="43.44729" lon="6.61305">
        <ele>121.87389026582</ele>
        <time>2021-11-28T08:09:39Z</time>
      </trkpt>
      <trkpt lat="43.44729" lon="6.61306">
        <ele>121.87394290417</ele>
        <time>2021-11-28T08:09:40Z</time>
      </trkpt>
      <trkpt lat="43.44728" lon="6.61307">
        <ele>122.87401599437</ele>
        <time>2021-11-28T08:09:44Z</time>
      </trkpt>
      <trkpt lat="43.44728" lon="6.61308">
        <ele>122.87409344316</ele>
        <time>2021-11-28T08:09:50Z</time>
      </trkpt>
      <trkpt lat="43.44728" lon="6.61309">
        <ele>124.87414876372</ele>
        <time>2021-11-28T08:09:52Z</time>
      </trkpt>
      <trkpt lat="43.44727" lon="6.61308">
        <ele>125.87412898242</ele>
        <time>2021-11-28T08:10:14Z</time>
      </trkpt>
      <trkpt lat="43.44727" lon="6.61307">
        <ele>125.87410316616</ele>
        <time>2021-11-28T08:10:20Z</time>
      </trkpt>
      <trkpt lat="43.44727" lon="6.61308">
        <ele>125.87420542538</ele>
        <time>2021-11-28T08:10:21Z</time>
      </trkpt>
      <trkpt lat="43.44726" lon="6.61309">
        <ele>124.87427717447</ele>
        <time>2021-11-28T08:10:22Z</time>
      </trkpt>
      <trkpt lat="43.44725" lon="6.61309">
        <ele>125.87433484197</ele>
        <time>2021-11-28T08:10:23Z</time>
      </trkpt>
      <trkpt lat="43.44724" lon="6.61308">
        <ele>124.87437406927</ele>
        <time>2021-11-28T08:10:35Z</time>
      </trkpt>
      <trkpt lat="43.44726" lon="6.61306">
        <ele>123.87417457998</ele>
        <time>2021-11-28T08:10:36Z</time>
      </trkpt>
      <trkpt lat="43.44726" lon="6.61306">
        <ele>123.87419201434</ele>
        <time>2021-11-28T08:10:37Z</time>
      </trkpt>
      <trkpt lat="43.44725" lon="6.61306">
        <ele>123.87421514839</ele>
        <time>2021-11-28T08:10:38Z</time>
      </trkpt>
      <trkpt lat="43.44725" lon="6.61306">
        <ele>123.87426074594</ele>
        <time>2021-11-28T08:10:39Z</time>
      </trkpt>
      <trkpt lat="43.44724" lon="6.61305">
        <ele>123.87427549809</ele>
        <time>2021-11-28T08:10:40Z</time>
      </trkpt>
      <trkpt lat="43.44724" lon="6.61304">
        <ele>124.87423794717</ele>
        <time>2021-11-28T08:10:42Z</time>
      </trkpt>
      <trkpt lat="43.44724" lon="6.61303">
        <ele>124.87422755361</ele>
        <time>2021-11-28T08:10:44Z</time>
      </trkpt>
      <trkpt lat="43.44723" lon="6.61302">
        <ele>124.87421548367</ele>
        <time>2021-11-28T08:10:45Z</time>
      </trkpt>
      <trkpt lat="43.44723" lon="6.61301">
        <ele>125.874203749</ele>
        <time>2021-11-28T08:10:49Z</time>
      </trkpt>
      <trkpt lat="43.44723" lon="6.613">
        <ele>126.87418564409</ele>
        <time>2021-11-28T08:10:50Z</time>
      </trkpt>
      <trkpt lat="43.44722" lon="6.61299">
        <ele>127.87415848672</ele>
        <time>2021-11-28T08:10:54Z</time>
      </trkpt>
      <trkpt lat="43.44722" lon="6.61298">
        <ele>127.87417223305</ele>
        <time>2021-11-28T08:10:56Z</time>
      </trkpt>
      <trkpt lat="43.44722" lon="6.61297">
        <ele>126.87416485697</ele>
        <time>2021-11-28T08:11:00Z</time>
      </trkpt>
      <trkpt lat="43.44722" lon="6.61296">
        <ele>126.87413736433</ele>
        <time>2021-11-28T08:11:02Z</time>
      </trkpt>
      <trkpt lat="43.44721" lon="6.61296">
        <ele>126.87414440513</ele>
        <time>2021-11-28T08:11:03Z</time>
      </trkpt>
      <trkpt lat="43.44721" lon="6.61296">
        <ele>127.87416452169</ele>
        <time>2021-11-28T08:11:04Z</time>
      </trkpt>
      <trkpt lat="43.4472" lon="6.61295">
        <ele>127.87420609593</ele>
        <time>2021-11-28T08:11:07Z</time>
      </trkpt>
      <trkpt lat="43.44719" lon="6.61297">
        <ele>127.87434825301</ele>
        <time>2021-11-28T08:11:08Z</time>
      </trkpt>
      <trkpt lat="43.44718" lon="6.61298">
        <ele>127.87443877757</ele>
        <time>2021-11-28T08:11:09Z</time>
      </trkpt>
      <trkpt lat="43.44718" lon="6.61297">
        <ele>127.87448705733</ele>
        <time>2021-11-28T08:11:10Z</time>
      </trkpt>
      <trkpt lat="43.44718" lon="6.61296">
        <ele>127.87445252389</ele>
        <time>2021-11-28T08:11:11Z</time>
      </trkpt>
      <trkpt lat="43.44718" lon="6.61296">
        <ele>127.87442201376</ele>
        <time>2021-11-28T08:11:12Z</time>
      </trkpt>
      <trkpt lat="43.44718" lon="6.61295">
        <ele>128.87438815087</ele>
        <time>2021-11-28T08:11:13Z</time>
      </trkpt>
      <trkpt lat="43.44718" lon="6.61294">
        <ele>128.8743596524</ele>
        <time>2021-11-28T08:11:14Z</time>
      </trkpt>
      <trkpt lat="43.44717" lon="6.61294">
        <ele>128.87442234904</ele>
        <time>2021-11-28T08:11:16Z</time>
      </trkpt>
      <trkpt lat="43.44716" lon="6.61294">
        <ele>129.87446325272</ele>
        <time>2021-11-28T08:11:18Z</time>
      </trkpt>
      <trkpt lat="43.44716" lon="6.61293">
        <ele>130.8744354248</ele>
        <time>2021-11-28T08:11:20Z</time>
      </trkpt>
      <trkpt lat="43.44716" lon="6.61294">
        <ele>129.87449208647</ele>
        <time>2021-11-28T08:11:23Z</time>
      </trkpt>
      <trkpt lat="43.44715" lon="6.61294">
        <ele>130.87452192605</ele>
        <time>2021-11-28T08:11:24Z</time>
      </trkpt>
      <trkpt lat="43.44715" lon="6.61292">
        <ele>130.87449745089</ele>
        <time>2021-11-28T08:11:26Z</time>
      </trkpt>
      <trkpt lat="43.44714" lon="6.61293">
        <ele>132.87455511838</ele>
        <time>2021-11-28T08:11:30Z</time>
      </trkpt>
      <trkpt lat="43.44713" lon="6.61292">
        <ele>132.87461010367</ele>
        <time>2021-11-28T08:11:32Z</time>
      </trkpt>
      <trkpt lat="43.44713" lon="6.61292">
        <ele>133.87466173619</ele>
        <time>2021-11-28T08:11:33Z</time>
      </trkpt>
      <trkpt lat="43.44712" lon="6.61292">
        <ele>133.87474354357</ele>
        <time>2021-11-28T08:11:34Z</time>
      </trkpt>
      <trkpt lat="43.44709" lon="6.61291">
        <ele>134.87489944696</ele>
        <time>2021-11-28T08:11:36Z</time>
      </trkpt>
      <trkpt lat="43.44709" lon="6.61291">
        <ele>134.87495242059</ele>
        <time>2021-11-28T08:11:37Z</time>
      </trkpt>
      <trkpt lat="43.44708" lon="6.61292">
        <ele>134.87503892183</ele>
        <time>2021-11-28T08:11:38Z</time>
      </trkpt>
      <trkpt lat="43.44708" lon="6.61291">
        <ele>135.87504026294</ele>
        <time>2021-11-28T08:11:40Z</time>
      </trkpt>
      <trkpt lat="43.44707" lon="6.61291">
        <ele>135.87509491295</ele>
        <time>2021-11-28T08:11:42Z</time>
      </trkpt>
      <trkpt lat="43.44706" lon="6.61291">
        <ele>136.87516532093</ele>
        <time>2021-11-28T08:11:44Z</time>
      </trkpt>
      <trkpt lat="43.44706" lon="6.61292">
        <ele>136.8752290234</ele>
        <time>2021-11-28T08:11:45Z</time>
      </trkpt>
      <trkpt lat="43.44705" lon="6.61292">
        <ele>136.87532759458</ele>
        <time>2021-11-28T08:11:47Z</time>
      </trkpt>
      <trkpt lat="43.44704" lon="6.61293">
        <ele>136.87539163232</ele>
        <time>2021-11-28T08:11:48Z</time>
      </trkpt>
      <trkpt lat="43.44704" lon="6.61292">
        <ele>136.87540135533</ele>
        <time>2021-11-28T08:11:49Z</time>
      </trkpt>
      <trkpt lat="43.44704" lon="6.61291">
        <ele>136.8753651455</ele>
        <time>2021-11-28T08:11:50Z</time>
      </trkpt>
      <trkpt lat="43.44703" lon="6.61291">
        <ele>136.87541644275</ele>
        <time>2021-11-28T08:11:53Z</time>
      </trkpt>
      <trkpt lat="43.44701" lon="6.61292">
        <ele>137.87560889125</ele>
        <time>2021-11-28T08:11:54Z</time>
      </trkpt>
      <trkpt lat="43.447" lon="6.61292">
        <ele>137.87569170445</ele>
        <time>2021-11-28T08:11:55Z</time>
      </trkpt>
      <trkpt lat="43.44699" lon="6.61292">
        <ele>138.87573998421</ele>
        <time>2021-11-28T08:11:56Z</time>
      </trkpt>
      <trkpt lat="43.44698" lon="6.61291">
        <ele>139.87579429895</ele>
        <time>2021-11-28T08:11:58Z</time>
      </trkpt>
      <trkpt lat="43.44698" lon="6.61291">
        <ele>139.87584023178</ele>
        <time>2021-11-28T08:11:59Z</time>
      </trkpt>
      <trkpt lat="43.44697" lon="6.61292">
        <ele>138.87590561062</ele>
        <time>2021-11-28T08:12:01Z</time>
      </trkpt>
      <trkpt lat="43.44696" lon="6.61292">
        <ele>139.87596059591</ele>
        <time>2021-11-28T08:12:02Z</time>
      </trkpt>
      <trkpt lat="43.44696" lon="6.61292">
        <ele>139.87599378824</ele>
        <time>2021-11-28T08:12:03Z</time>
      </trkpt>
      <trkpt lat="43.44696" lon="6.61291">
        <ele>139.87598909438</ele>
        <time>2021-11-28T08:12:04Z</time>
      </trkpt>
      <trkpt lat="43.44694" lon="6.6129">
        <ele>140.87606386095</ele>
        <time>2021-11-28T08:12:06Z</time>
      </trkpt>
      <trkpt lat="43.44694" lon="6.61291">
        <ele>140.87615237385</ele>
        <time>2021-11-28T08:12:07Z</time>
      </trkpt>
      <trkpt lat="43.44693" lon="6.61291">
        <ele>139.87617517263</ele>
        <time>2021-11-28T08:12:19Z</time>
      </trkpt>
      <trkpt lat="43.44693" lon="6.6129">
        <ele>140.87619897723</ele>
        <time>2021-11-28T08:12:21Z</time>
      </trkpt>
      <trkpt lat="43.44692" lon="6.6129">
        <ele>139.87625865638</ele>
        <time>2021-11-28T08:12:24Z</time>
      </trkpt>
      <trkpt lat="43.44691" lon="6.61291">
        <ele>139.87639913708</ele>
        <time>2021-11-28T08:12:26Z</time>
      </trkpt>
      <trkpt lat="43.4469" lon="6.61292">
        <ele>140.87648530304</ele>
        <time>2021-11-28T08:12:27Z</time>
      </trkpt>
      <trkpt lat="43.44689" lon="6.61291">
        <ele>140.8765252009</ele>
        <time>2021-11-28T08:12:30Z</time>
      </trkpt>
      <trkpt lat="43.44689" lon="6.61291">
        <ele>140.87655202299</ele>
        <time>2021-11-28T08:12:32Z</time>
      </trkpt>
      <trkpt lat="43.44688" lon="6.61292">
        <ele>140.87661740184</ele>
        <time>2021-11-28T08:12:33Z</time>
      </trkpt>
      <trkpt lat="43.44688" lon="6.61293">
        <ele>140.87670826167</ele>
        <time>2021-11-28T08:12:34Z</time>
      </trkpt>
      <trkpt lat="43.44686" lon="6.61293">
        <ele>141.8768370077</ele>
        <time>2021-11-28T08:12:36Z</time>
      </trkpt>
      <trkpt lat="43.44686" lon="6.61293">
        <ele>142.87686282396</ele>
        <time>2021-11-28T08:12:37Z</time>
      </trkpt>
      <trkpt lat="43.44685" lon="6.61294">
        <ele>141.8769409433</ele>
        <time>2021-11-28T08:12:40Z</time>
      </trkpt>
      <trkpt lat="43.44684" lon="6.61294">
        <ele>141.87706298381</ele>
        <time>2021-11-28T08:12:42Z</time>
      </trkpt>
      <trkpt lat="43.44683" lon="6.61294">
        <ele>142.87709986418</ele>
        <time>2021-11-28T08:12:44Z</time>
      </trkpt>
      <trkpt lat="43.44682" lon="6.61294">
        <ele>142.87718468904</ele>
        <time>2021-11-28T08:12:46Z</time>
      </trkpt>
      <trkpt lat="43.44681" lon="6.61294">
        <ele>142.87724269181</ele>
        <time>2021-11-28T08:12:47Z</time>
      </trkpt>
      <trkpt lat="43.44681" lon="6.61293">
        <ele>142.87725476176</ele>
        <time>2021-11-28T08:12:48Z</time>
      </trkpt>
      <trkpt lat="43.4468" lon="6.61292">
        <ele>142.87729667127</ele>
        <time>2021-11-28T08:12:50Z</time>
      </trkpt>
      <trkpt lat="43.44679" lon="6.61293">
        <ele>143.87735903263</ele>
        <time>2021-11-28T08:12:51Z</time>
      </trkpt>
      <trkpt lat="43.44679" lon="6.61293">
        <ele>143.87741804123</ele>
        <time>2021-11-28T08:12:52Z</time>
      </trkpt>
      <trkpt lat="43.44678" lon="6.61292">
        <ele>145.87746732682</ele>
        <time>2021-11-28T08:12:54Z</time>
      </trkpt>
      <trkpt lat="43.44678" lon="6.61293">
        <ele>146.87750051916</ele>
        <time>2021-11-28T08:12:57Z</time>
      </trkpt>
      <trkpt lat="43.44677" lon="6.61292">
        <ele>147.87753572315</ele>
        <time>2021-11-28T08:12:58Z</time>
      </trkpt>
      <trkpt lat="43.44677" lon="6.6129">
        <ele>147.87746129185</ele>
        <time>2021-11-28T08:12:59Z</time>
      </trkpt>
      <trkpt lat="43.44677" lon="6.61289">
        <ele>148.87744486332</ele>
        <time>2021-11-28T08:13:08Z</time>
      </trkpt>
      <trkpt lat="43.44677" lon="6.61287">
        <ele>150.87736339122</ele>
        <time>2021-11-28T08:13:10Z</time>
      </trkpt>
      <trkpt lat="43.44676" lon="6.61286">
        <ele>150.87732081115</ele>
        <time>2021-11-28T08:13:12Z</time>
      </trkpt>
      <trkpt lat="43.44676" lon="6.61285">
        <ele>150.87729432434</ele>
        <time>2021-11-28T08:13:13Z</time>
      </trkpt>
      <trkpt lat="43.44677" lon="6.61284">
        <ele>150.87723699212</ele>
        <time>2021-11-28T08:13:14Z</time>
      </trkpt>
      <trkpt lat="43.44677" lon="6.61284">
        <ele>150.87716624886</ele>
        <time>2021-11-28T08:13:17Z</time>
      </trkpt>
      <trkpt lat="43.44677" lon="6.61283">
        <ele>150.87712568045</ele>
        <time>2021-11-28T08:13:18Z</time>
      </trkpt>
      <trkpt lat="43.44678" lon="6.61282">
        <ele>150.87701135129</ele>
        <time>2021-11-28T08:13:20Z</time>
      </trkpt>
      <trkpt lat="43.44679" lon="6.61281">
        <ele>150.87693859637</ele>
        <time>2021-11-28T08:13:22Z</time>
      </trkpt>
      <trkpt lat="43.4468" lon="6.6128">
        <ele>150.87680683285</ele>
        <time>2021-11-28T08:13:23Z</time>
      </trkpt>
      <trkpt lat="43.44681" lon="6.61279">
        <ele>149.87668982148</ele>
        <time>2021-11-28T08:13:24Z</time>
      </trkpt>
      <trkpt lat="43.44681" lon="6.61278">
        <ele>149.87667305768</ele>
        <time>2021-11-28T08:13:26Z</time>
      </trkpt>
      <trkpt lat="43.44681" lon="6.61279">
        <ele>149.87673139572</ele>
        <time>2021-11-28T08:13:27Z</time>
      </trkpt>
      <trkpt lat="43.4468" lon="6.6128">
        <ele>149.87676525861</ele>
        <time>2021-11-28T08:13:29Z</time>
      </trkpt>
      <trkpt lat="43.4468" lon="6.61279">
        <ele>148.87678202242</ele>
        <time>2021-11-28T08:13:31Z</time>
      </trkpt>
      <trkpt lat="43.44679" lon="6.61279">
        <ele>149.87680985034</ele>
        <time>2021-11-28T08:13:33Z</time>
      </trkpt>
      <trkpt lat="43.44679" lon="6.61277">
        <ele>149.87676190585</ele>
        <time>2021-11-28T08:13:38Z</time>
      </trkpt>
      <trkpt lat="43.44679" lon="6.61277">
        <ele>148.87673240155</ele>
        <time>2021-11-28T08:13:40Z</time>
      </trkpt>
      <trkpt lat="43.44679" lon="6.61276">
        <ele>147.87676224113</ele>
        <time>2021-11-28T08:13:42Z</time>
      </trkpt>
      <trkpt lat="43.44678" lon="6.61276">
        <ele>147.87676492333</ele>
        <time>2021-11-28T08:13:43Z</time>
      </trkpt>
      <trkpt lat="43.44678" lon="6.61276">
        <ele>145.87683633715</ele>
        <time>2021-11-28T08:13:45Z</time>
      </trkpt>
      <trkpt lat="43.44677" lon="6.61276">
        <ele>146.87685880065</ele>
        <time>2021-11-28T08:13:47Z</time>
      </trkpt>
      <trkpt lat="43.44677" lon="6.61275">
        <ele>146.87688562274</ele>
        <time>2021-11-28T08:13:48Z</time>
      </trkpt>
      <trkpt lat="43.44676" lon="6.61275">
        <ele>146.87688126415</ele>
        <time>2021-11-28T08:13:51Z</time>
      </trkpt>
      <trkpt lat="43.44676" lon="6.61273">
        <ele>146.876821585</ele>
        <time>2021-11-28T08:13:52Z</time>
      </trkpt>
      <trkpt lat="43.44676" lon="6.61272">
        <ele>145.87676760554</ele>
        <time>2021-11-28T08:13:54Z</time>
      </trkpt>
      <trkpt lat="43.44676" lon="6.61271">
        <ele>146.87673072517</ele>
        <time>2021-11-28T08:13:55Z</time>
      </trkpt>
      <trkpt lat="43.44676" lon="6.6127">
        <ele>146.87670658529</ele>
        <time>2021-11-28T08:13:57Z</time>
      </trkpt>
      <trkpt lat="43.44675" lon="6.61269">
        <ele>146.87674313039</ele>
        <time>2021-11-28T08:13:59Z</time>
      </trkpt>
      <trkpt lat="43.44675" lon="6.61269">
        <ele>145.87675218284</ele>
        <time>2021-11-28T08:14:00Z</time>
      </trkpt>
      <trkpt lat="43.44675" lon="6.61268">
        <ele>145.87672636658</ele>
        <time>2021-11-28T08:14:01Z</time>
      </trkpt>
      <trkpt lat="43.44675" lon="6.61267">
        <ele>145.87671228498</ele>
        <time>2021-11-28T08:14:02Z</time>
      </trkpt>
      <trkpt lat="43.44675" lon="6.61267">
        <ele>145.87666702271</ele>
        <time>2021-11-28T08:14:03Z</time>
      </trkpt>
      <trkpt lat="43.44675" lon="6.61266">
        <ele>144.87659996748</ele>
        <time>2021-11-28T08:14:04Z</time>
      </trkpt>
      <trkpt lat="43.44676" lon="6.61264">
        <ele>144.8765154779</ele>
        <time>2021-11-28T08:14:05Z</time>
      </trkpt>
      <trkpt lat="43.44676" lon="6.61263">
        <ele>143.87644506991</ele>
        <time>2021-11-28T08:14:06Z</time>
      </trkpt>
      <trkpt lat="43.44676" lon="6.61261">
        <ele>143.87634348124</ele>
        <time>2021-11-28T08:14:07Z</time>
      </trkpt>
      <trkpt lat="43.44676" lon="6.61258">
        <ele>143.87626200914</ele>
        <time>2021-11-28T08:14:08Z</time>
      </trkpt>
      <trkpt lat="43.44675" lon="6.61257">
        <ele>144.8762640208</ele>
        <time>2021-11-28T08:14:09Z</time>
      </trkpt>
      <trkpt lat="43.44674" lon="6.61256">
        <ele>143.87631397694</ele>
        <time>2021-11-28T08:14:11Z</time>
      </trkpt>
      <trkpt lat="43.44673" lon="6.61255">
        <ele>143.87633409351</ele>
        <time>2021-11-28T08:14:12Z</time>
      </trkpt>
      <trkpt lat="43.44673" lon="6.61254">
        <ele>143.87634348124</ele>
        <time>2021-11-28T08:14:13Z</time>
      </trkpt>
      <trkpt lat="43.44673" lon="6.61254">
        <ele>143.87633912265</ele>
        <time>2021-11-28T08:14:15Z</time>
      </trkpt>
      <trkpt lat="43.44671" lon="6.61252">
        <ele>143.87638237327</ele>
        <time>2021-11-28T08:14:17Z</time>
      </trkpt>
      <trkpt lat="43.44671" lon="6.61251">
        <ele>143.87635923922</ele>
        <time>2021-11-28T08:14:19Z</time>
      </trkpt>
      <trkpt lat="43.44671" lon="6.61251">
        <ele>143.87637734413</ele>
        <time>2021-11-28T08:15:28Z</time>
      </trkpt>
      <trkpt lat="43.44671" lon="6.6125">
        <ele>143.87629888952</ele>
        <time>2021-11-28T08:15:30Z</time>
      </trkpt>
      <trkpt lat="43.44671" lon="6.61249">
        <ele>144.87629721314</ele>
        <time>2021-11-28T08:15:38Z</time>
      </trkpt>
      <trkpt lat="43.44671" lon="6.61249">
        <ele>142.87623384595</ele>
        <time>2021-11-28T08:16:00Z</time>
      </trkpt>
      <trkpt lat="43.44672" lon="6.61249">
        <ele>142.876167126</ele>
        <time>2021-11-28T08:16:02Z</time>
      </trkpt>
      <trkpt lat="43.44673" lon="6.6125">
        <ele>141.87615472078</ele>
        <time>2021-11-28T08:16:33Z</time>
      </trkpt>
      <trkpt lat="43.44672" lon="6.6125">
        <ele>142.87623082846</ele>
        <time>2021-11-28T08:16:51Z</time>
      </trkpt>
      <trkpt lat="43.44671" lon="6.61251">
        <ele>142.87630660087</ele>
        <time>2021-11-28T08:17:00Z</time>
      </trkpt>
      <trkpt lat="43.44671" lon="6.6125">
        <ele>144.87628849596</ele>
        <time>2021-11-28T08:17:30Z</time>
      </trkpt>
      <trkpt lat="43.44671" lon="6.61249">
        <ele>144.87629788369</ele>
        <time>2021-11-28T08:17:33Z</time>
      </trkpt>
      <trkpt lat="43.44671" lon="6.61249">
        <ele>145.87624725699</ele>
        <time>2021-11-28T08:17:42Z</time>
      </trkpt>
      <trkpt lat="43.44672" lon="6.61249">
        <ele>145.87617483735</ele>
        <time>2021-11-28T08:17:43Z</time>
      </trkpt>
      <trkpt lat="43.44673" lon="6.61247">
        <ele>145.87604039162</ele>
        <time>2021-11-28T08:17:45Z</time>
      </trkpt>
      <trkpt lat="43.44674" lon="6.61245">
        <ele>145.87587409467</ele>
        <time>2021-11-28T08:17:47Z</time>
      </trkpt>
      <trkpt lat="43.44674" lon="6.61244">
        <ele>146.87581508607</ele>
        <time>2021-11-28T08:17:48Z</time>
      </trkpt>
      <trkpt lat="43.44675" lon="6.61244">
        <ele>146.87578189373</ele>
        <time>2021-11-28T08:17:49Z</time>
      </trkpt>
      <trkpt lat="43.44675" lon="6.61243">
        <ele>147.87574970722</ele>
        <time>2021-11-28T08:17:50Z</time>
      </trkpt>
      <trkpt lat="43.44675" lon="6.61242">
        <ele>147.8756306842</ele>
        <time>2021-11-28T08:17:52Z</time>
      </trkpt>
      <trkpt lat="43.44676" lon="6.61242">
        <ele>147.87564141303</ele>
        <time>2021-11-28T08:17:56Z</time>
      </trkpt>
      <trkpt lat="43.44674" lon="6.61242">
        <ele>147.87573495507</ele>
        <time>2021-11-28T08:17:57Z</time>
      </trkpt>
      <trkpt lat="43.44674" lon="6.61241">
        <ele>147.87570679188</ele>
        <time>2021-11-28T08:17:58Z</time>
      </trkpt>
      <trkpt lat="43.44675" lon="6.6124">
        <ele>147.87560587376</ele>
        <time>2021-11-28T08:17:59Z</time>
      </trkpt>
      <trkpt lat="43.44677" lon="6.61239">
        <ele>148.87542348355</ele>
        <time>2021-11-28T08:18:01Z</time>
      </trkpt>
      <trkpt lat="43.44677" lon="6.61238">
        <ele>148.87534201145</ele>
        <time>2021-11-28T08:18:02Z</time>
      </trkpt>
      <trkpt lat="43.44678" lon="6.61237">
        <ele>148.87528736144</ele>
        <time>2021-11-28T08:18:03Z</time>
      </trkpt>
      <trkpt lat="43.44678" lon="6.61237">
        <ele>149.87520890683</ele>
        <time>2021-11-28T08:18:04Z</time>
      </trkpt>
      <trkpt lat="43.44679" lon="6.61237">
        <ele>149.87514956295</ele>
        <time>2021-11-28T08:18:06Z</time>
      </trkpt>
      <trkpt lat="43.4468" lon="6.61237">
        <ele>150.87510631233</ele>
        <time>2021-11-28T08:18:07Z</time>
      </trkpt>
      <trkpt lat="43.44681" lon="6.61238">
        <ele>149.87503623962</ele>
        <time>2021-11-28T08:18:08Z</time>
      </trkpt>
      <trkpt lat="43.44683" lon="6.61239">
        <ele>150.87494001538</ele>
        <time>2021-11-28T08:18:10Z</time>
      </trkpt>
      <trkpt lat="43.44684" lon="6.61239">
        <ele>150.87486793101</ele>
        <time>2021-11-28T08:18:12Z</time>
      </trkpt>
      <trkpt lat="43.44684" lon="6.61238">
        <ele>150.87479517609</ele>
        <time>2021-11-28T08:18:14Z</time>
      </trkpt>
      <trkpt lat="43.44685" lon="6.61237">
        <ele>150.87472175062</ele>
        <time>2021-11-28T08:18:16Z</time>
      </trkpt>
      <trkpt lat="43.44685" lon="6.61237">
        <ele>150.87464933097</ele>
        <time>2021-11-28T08:18:17Z</time>
      </trkpt>
      <trkpt lat="43.44685" lon="6.61236">
        <ele>150.8746124506</ele>
        <time>2021-11-28T08:18:18Z</time>
      </trkpt>
      <trkpt lat="43.44685" lon="6.61235">
        <ele>150.87458227575</ele>
        <time>2021-11-28T08:18:19Z</time>
      </trkpt>
      <trkpt lat="43.44685" lon="6.61235">
        <ele>150.87463156134</ele>
        <time>2021-11-28T08:18:20Z</time>
      </trkpt>
      <trkpt lat="43.44684" lon="6.61234">
        <ele>150.8746278733</ele>
        <time>2021-11-28T08:18:23Z</time>
      </trkpt>
      <trkpt lat="43.44685" lon="6.61234">
        <ele>150.87454103678</ele>
        <time>2021-11-28T08:18:24Z</time>
      </trkpt>
      <trkpt lat="43.44685" lon="6.61234">
        <ele>150.87454103678</ele>
        <time>2021-11-28T08:18:25Z</time>
      </trkpt>
      <trkpt lat="43.44685" lon="6.61232">
        <ele>151.87445453554</ele>
        <time>2021-11-28T08:18:26Z</time>
      </trkpt>
      <trkpt lat="43.44686" lon="6.61232">
        <ele>151.8743891567</ele>
        <time>2021-11-28T08:18:27Z</time>
      </trkpt>
      <trkpt lat="43.44686" lon="6.61231">
        <ele>152.8743231073</ele>
        <time>2021-11-28T08:18:28Z</time>
      </trkpt>
      <trkpt lat="43.44687" lon="6.6123">
        <ele>152.874248676</ele>
        <time>2021-11-28T08:18:29Z</time>
      </trkpt>
      <trkpt lat="43.44687" lon="6.61229">
        <ele>153.87418631464</ele>
        <time>2021-11-28T08:18:30Z</time>
      </trkpt>
      <trkpt lat="43.44687" lon="6.61229">
        <ele>153.87414809316</ele>
        <time>2021-11-28T08:18:31Z</time>
      </trkpt>
      <trkpt lat="43.44688" lon="6.61228">
        <ele>154.87408707291</ele>
        <time>2021-11-28T08:18:32Z</time>
      </trkpt>
      <trkpt lat="43.44688" lon="6.61227">
        <ele>154.87406595051</ele>
        <time>2021-11-28T08:18:33Z</time>
      </trkpt>
      <trkpt lat="43.44687" lon="6.61225">
        <ele>155.87405220419</ele>
        <time>2021-11-28T08:18:35Z</time>
      </trkpt>
      <trkpt lat="43.44687" lon="6.61225">
        <ele>156.8740170002</ele>
        <time>2021-11-28T08:18:38Z</time>
      </trkpt>
      <trkpt lat="43.44686" lon="6.61224">
        <ele>156.87406159192</ele>
        <time>2021-11-28T08:18:43Z</time>
      </trkpt>
      <trkpt lat="43.44686" lon="6.61225">
        <ele>156.87412294745</ele>
        <time>2021-11-28T08:18:44Z</time>
      </trkpt>
      <trkpt lat="43.44684" lon="6.61224">
        <ele>157.87424264103</ele>
        <time>2021-11-28T08:18:46Z</time>
      </trkpt>
      <trkpt lat="43.44684" lon="6.61224">
        <ele>157.87423057109</ele>
        <time>2021-11-28T08:18:48Z</time>
      </trkpt>
      <trkpt lat="43.44685" lon="6.61222">
        <ele>157.87409344316</ele>
        <time>2021-11-28T08:18:50Z</time>
      </trkpt>
      <trkpt lat="43.44685" lon="6.6122">
        <ele>158.87399051338</ele>
        <time>2021-11-28T08:18:52Z</time>
      </trkpt>
      <trkpt lat="43.44685" lon="6.61219">
        <ele>158.87393150479</ele>
        <time>2021-11-28T08:18:53Z</time>
      </trkpt>
      <trkpt lat="43.44686" lon="6.61218">
        <ele>159.87387786061</ele>
        <time>2021-11-28T08:18:54Z</time>
      </trkpt>
      <trkpt lat="43.44686" lon="6.61217">
        <ele>159.87382991612</ele>
        <time>2021-11-28T08:18:56Z</time>
      </trkpt>
      <trkpt lat="43.44686" lon="6.61217">
        <ele>159.87382052839</ele>
        <time>2021-11-28T08:18:57Z</time>
      </trkpt>
      <trkpt lat="43.44685" lon="6.61216">
        <ele>159.87382354587</ele>
        <time>2021-11-28T08:18:58Z</time>
      </trkpt>
      <trkpt lat="43.44685" lon="6.61215">
        <ele>161.87385372072</ele>
        <time>2021-11-28T08:19:00Z</time>
      </trkpt>
      <trkpt lat="43.44684" lon="6.61215">
        <ele>160.87387450784</ele>
        <time>2021-11-28T08:19:02Z</time>
      </trkpt>
      <trkpt lat="43.44683" lon="6.61214">
        <ele>160.87387953699</ele>
        <time>2021-11-28T08:19:03Z</time>
      </trkpt>
      <trkpt lat="43.44683" lon="6.61213">
        <ele>160.87390501797</ele>
        <time>2021-11-28T08:19:04Z</time>
      </trkpt>
      <trkpt lat="43.44682" lon="6.61213">
        <ele>161.87398079038</ele>
        <time>2021-11-28T08:19:05Z</time>
      </trkpt>
      <trkpt lat="43.44681" lon="6.61213">
        <ele>161.87400425971</ele>
        <time>2021-11-28T08:19:06Z</time>
      </trkpt>
      <trkpt lat="43.4468" lon="6.61211">
        <ele>160.87398984283</ele>
        <time>2021-11-28T08:19:08Z</time>
      </trkpt>
      <trkpt lat="43.4468" lon="6.6121">
        <ele>160.87401767075</ele>
        <time>2021-11-28T08:19:09Z</time>
      </trkpt>
      <trkpt lat="43.44679" lon="6.61208">
        <ele>160.87401431799</ele>
        <time>2021-11-28T08:19:10Z</time>
      </trkpt>
      <trkpt lat="43.44679" lon="6.61208">
        <ele>161.87399520725</ele>
        <time>2021-11-28T08:19:11Z</time>
      </trkpt>
      <trkpt lat="43.44679" lon="6.61206">
        <ele>161.87392915785</ele>
        <time>2021-11-28T08:19:12Z</time>
      </trkpt>
      <trkpt lat="43.44679" lon="6.61205">
        <ele>161.87389328331</ele>
        <time>2021-11-28T08:19:13Z</time>
      </trkpt>
      <trkpt lat="43.44679" lon="6.61204">
        <ele>161.8738835603</ele>
        <time>2021-11-28T08:19:14Z</time>
      </trkpt>
      <trkpt lat="43.44678" lon="6.61204">
        <ele>161.87387417257</ele>
        <time>2021-11-28T08:19:15Z</time>
      </trkpt>
      <trkpt lat="43.44678" lon="6.61202">
        <ele>161.87382522225</ele>
        <time>2021-11-28T08:19:17Z</time>
      </trkpt>
      <trkpt lat="43.44678" lon="6.61201">
        <ele>162.87381952256</ele>
        <time>2021-11-28T08:19:18Z</time>
      </trkpt>
      <trkpt lat="43.44678" lon="6.612">
        <ele>162.87377861887</ele>
        <time>2021-11-28T08:19:19Z</time>
      </trkpt>
      <trkpt lat="43.44678" lon="6.612">
        <ele>162.87378901243</ele>
        <time>2021-11-28T08:19:21Z</time>
      </trkpt>
      <trkpt lat="43.44678" lon="6.61198">
        <ele>163.87373872101</ele>
        <time>2021-11-28T08:19:23Z</time>
      </trkpt>
      <trkpt lat="43.44678" lon="6.61198">
        <ele>163.87369949371</ele>
        <time>2021-11-28T08:19:29Z</time>
      </trkpt>
      <trkpt lat="43.44678" lon="6.61194">
        <ele>164.87355934829</ele>
        <time>2021-11-28T08:19:30Z</time>
      </trkpt>
      <trkpt lat="43.44677" lon="6.61193">
        <ele>164.87356169522</ele>
        <time>2021-11-28T08:19:32Z</time>
      </trkpt>
      <trkpt lat="43.44677" lon="6.61193">
        <ele>165.8735549897</ele>
        <time>2021-11-28T08:19:33Z</time>
      </trkpt>
      <trkpt lat="43.44677" lon="6.61192">
        <ele>165.8735422492</ele>
        <time>2021-11-28T08:19:34Z</time>
      </trkpt>
      <trkpt lat="43.44676" lon="6.61191">
        <ele>166.87355063111</ele>
        <time>2021-11-28T08:19:35Z</time>
      </trkpt>
      <trkpt lat="43.44676" lon="6.61188">
        <ele>166.8734678179</ele>
        <time>2021-11-28T08:19:37Z</time>
      </trkpt>
      <trkpt lat="43.44676" lon="6.61187">
        <ele>166.87343194336</ele>
        <time>2021-11-28T08:19:38Z</time>
      </trkpt>
      <trkpt lat="43.44676" lon="6.61186">
        <ele>166.87341383845</ele>
        <time>2021-11-28T08:19:39Z</time>
      </trkpt>
      <trkpt lat="43.44676" lon="6.61185">
        <ele>167.87333102524</ele>
        <time>2021-11-28T08:19:41Z</time>
      </trkpt>
      <trkpt lat="43.44675" lon="6.61185">
        <ele>166.87336723506</ele>
        <time>2021-11-28T08:19:43Z</time>
      </trkpt>
      <trkpt lat="43.44675" lon="6.61184">
        <ele>167.87336857617</ele>
        <time>2021-11-28T08:19:44Z</time>
      </trkpt>
      <trkpt lat="43.44675" lon="6.61184">
        <ele>168.87334812433</ele>
        <time>2021-11-28T08:19:46Z</time>
      </trkpt>
      <trkpt lat="43.44675" lon="6.61182">
        <ele>168.8732824102</ele>
        <time>2021-11-28T08:19:48Z</time>
      </trkpt>
      <trkpt lat="43.44675" lon="6.61181">
        <ele>169.87326899916</ele>
        <time>2021-11-28T08:19:50Z</time>
      </trkpt>
      <trkpt lat="43.44674" lon="6.61179">
        <ele>169.87325190008</ele>
        <time>2021-11-28T08:19:52Z</time>
      </trkpt>
      <trkpt lat="43.44674" lon="6.61179">
        <ele>170.87325692922</ele>
        <time>2021-11-28T08:19:54Z</time>
      </trkpt>
      <trkpt lat="43.44674" lon="6.61175">
        <ele>169.87306448072</ele>
        <time>2021-11-28T08:19:56Z</time>
      </trkpt>
      <trkpt lat="43.44674" lon="6.61175">
        <ele>169.87310236692</ele>
        <time>2021-11-28T08:19:58Z</time>
      </trkpt>
      <trkpt lat="43.44672" lon="6.61174">
        <ele>169.87320864946</ele>
        <time>2021-11-28T08:20:00Z</time>
      </trkpt>
      <trkpt lat="43.44672" lon="6.61173">
        <ele>170.87317042798</ele>
        <time>2021-11-28T08:20:02Z</time>
      </trkpt>
      <trkpt lat="43.44671" lon="6.61172">
        <ele>170.87318383902</ele>
        <time>2021-11-28T08:20:03Z</time>
      </trkpt>
      <trkpt lat="43.44671" lon="6.61171">
        <ele>171.87318585068</ele>
        <time>2021-11-28T08:20:04Z</time>
      </trkpt>
      <trkpt lat="43.4467" lon="6.6117">
        <ele>171.87316506356</ele>
        <time>2021-11-28T08:20:06Z</time>
      </trkpt>
      <trkpt lat="43.44669" lon="6.61168">
        <ele>171.87321300805</ele>
        <time>2021-11-28T08:20:08Z</time>
      </trkpt>
      <trkpt lat="43.44669" lon="6.61167">
        <ele>171.87317679822</ele>
        <time>2021-11-28T08:20:09Z</time>
      </trkpt>
      <trkpt lat="43.44669" lon="6.61165">
        <ele>171.87309733778</ele>
        <time>2021-11-28T08:20:10Z</time>
      </trkpt>
      <trkpt lat="43.44669" lon="6.61162">
        <ele>171.87298233807</ele>
        <time>2021-11-28T08:20:12Z</time>
      </trkpt>
      <trkpt lat="43.44668" lon="6.6116">
        <ele>172.87296423316</ele>
        <time>2021-11-28T08:20:13Z</time>
      </trkpt>
      <trkpt lat="43.44668" lon="6.61159">
        <ele>172.87291394174</ele>
        <time>2021-11-28T08:20:14Z</time>
      </trkpt>
      <trkpt lat="43.44668" lon="6.61156">
        <ele>173.87277580798</ele>
        <time>2021-11-28T08:20:16Z</time>
      </trkpt>
      <trkpt lat="43.44668" lon="6.61154">
        <ele>173.87274295092</ele>
        <time>2021-11-28T08:20:18Z</time>
      </trkpt>
      <trkpt lat="43.44667" lon="6.61152">
        <ele>173.87275870889</ele>
        <time>2021-11-28T08:20:19Z</time>
      </trkpt>
      <trkpt lat="43.44666" lon="6.61152">
        <ele>173.87280531228</ele>
        <time>2021-11-28T08:20:20Z</time>
      </trkpt>
      <trkpt lat="43.44665" lon="6.61149">
        <ele>173.87274429202</ele>
        <time>2021-11-28T08:20:22Z</time>
      </trkpt>
      <trkpt lat="43.44666" lon="6.61148">
        <ele>173.87266851962</ele>
        <time>2021-11-28T08:20:23Z</time>
      </trkpt>
      <trkpt lat="43.44666" lon="6.61147">
        <ele>173.8725830242</ele>
        <time>2021-11-28T08:20:24Z</time>
      </trkpt>
      <trkpt lat="43.44666" lon="6.61145">
        <ele>173.8725380972</ele>
        <time>2021-11-28T08:20:26Z</time>
      </trkpt>
      <trkpt lat="43.44665" lon="6.61143">
        <ele>173.87246735394</ele>
        <time>2021-11-28T08:20:28Z</time>
      </trkpt>
      <trkpt lat="43.44665" lon="6.61141">
        <ele>172.87244656682</ele>
        <time>2021-11-28T08:20:29Z</time>
      </trkpt>
      <trkpt lat="43.44665" lon="6.6114">
        <ele>173.87239359319</ele>
        <time>2021-11-28T08:20:30Z</time>
      </trkpt>
      <trkpt lat="43.44665" lon="6.61139">
        <ele>173.87240767479</ele>
        <time>2021-11-28T08:20:32Z</time>
      </trkpt>
      <trkpt lat="43.44664" lon="6.61138">
        <ele>173.87238387018</ele>
        <time>2021-11-28T08:20:33Z</time>
      </trkpt>
      <trkpt lat="43.44664" lon="6.61137">
        <ele>172.87237615883</ele>
        <time>2021-11-28T08:20:34Z</time>
      </trkpt>
      <trkpt lat="43.44664" lon="6.61136">
        <ele>172.87234229594</ele>
        <time>2021-11-28T08:20:35Z</time>
      </trkpt>
      <trkpt lat="43.44664" lon="6.61135">
        <ele>173.87228161097</ele>
        <time>2021-11-28T08:20:36Z</time>
      </trkpt>
      <trkpt lat="43.44664" lon="6.61134">
        <ele>173.87227121741</ele>
        <time>2021-11-28T08:20:37Z</time>
      </trkpt>
      <trkpt lat="43.44663" lon="6.61133">
        <ele>172.8722474128</ele>
        <time>2021-11-28T08:20:38Z</time>
      </trkpt>
      <trkpt lat="43.44663" lon="6.61132">
        <ele>172.87224942446</ele>
        <time>2021-11-28T08:20:39Z</time>
      </trkpt>
      <trkpt lat="43.44663" lon="6.6113">
        <ele>173.87217633426</ele>
        <time>2021-11-28T08:20:41Z</time>
      </trkpt>
      <trkpt lat="43.44663" lon="6.61128">
        <ele>173.87207273394</ele>
        <time>2021-11-28T08:20:43Z</time>
      </trkpt>
      <trkpt lat="43.44663" lon="6.61127">
        <ele>175.87204490602</ele>
        <time>2021-11-28T08:20:45Z</time>
      </trkpt>
      <trkpt lat="43.44663" lon="6.61126">
        <ele>174.87203518301</ele>
        <time>2021-11-28T08:20:47Z</time>
      </trkpt>
      <trkpt lat="43.44663" lon="6.61126">
        <ele>174.87202680111</ele>
        <time>2021-11-28T08:20:48Z</time>
      </trkpt>
      <trkpt lat="43.44662" lon="6.61125">
        <ele>174.87208983302</ele>
        <time>2021-11-28T08:20:49Z</time>
      </trkpt>
      <trkpt lat="43.44661" lon="6.61125">
        <ele>175.87209385633</ele>
        <time>2021-11-28T08:20:50Z</time>
      </trkpt>
      <trkpt lat="43.44662" lon="6.61124">
        <ele>174.87197818607</ele>
        <time>2021-11-28T08:20:52Z</time>
      </trkpt>
      <trkpt lat="43.44663" lon="6.61124">
        <ele>174.8719426468</ele>
        <time>2021-11-28T08:20:53Z</time>
      </trkpt>
      <trkpt lat="43.44662" lon="6.61123">
        <ele>175.871925883</ele>
        <time>2021-11-28T08:20:54Z</time>
      </trkpt>
      <trkpt lat="43.44663" lon="6.61121">
        <ele>176.87185379863</ele>
        <time>2021-11-28T08:20:56Z</time>
      </trkpt>
      <trkpt lat="43.44662" lon="6.6112">
        <ele>175.87180417776</ele>
        <time>2021-11-28T08:20:58Z</time>
      </trkpt>
      <trkpt lat="43.44663" lon="6.61118">
        <ele>176.87173008174</ele>
        <time>2021-11-28T08:20:59Z</time>
      </trkpt>
      <trkpt lat="43.44663" lon="6.61118">
        <ele>176.8716730848</ele>
        <time>2021-11-28T08:21:00Z</time>
      </trkpt>
      <trkpt lat="43.44663" lon="6.61116">
        <ele>177.87157116085</ele>
        <time>2021-11-28T08:21:02Z</time>
      </trkpt>
      <trkpt lat="43.44664" lon="6.61116">
        <ele>178.87152455747</ele>
        <time>2021-11-28T08:21:04Z</time>
      </trkpt>
      <trkpt lat="43.44665" lon="6.61116">
        <ele>179.8714440912</ele>
        <time>2021-11-28T08:21:06Z</time>
      </trkpt>
      <trkpt lat="43.44665" lon="6.61114">
        <ele>180.87139145285</ele>
        <time>2021-11-28T08:21:08Z</time>
      </trkpt>
      <trkpt lat="43.44664" lon="6.61113">
        <ele>181.87139715254</ele>
        <time>2021-11-28T08:21:09Z</time>
      </trkpt>
      <trkpt lat="43.44665" lon="6.61113">
        <ele>180.87133043259</ele>
        <time>2021-11-28T08:21:10Z</time>
      </trkpt>
      <trkpt lat="43.44665" lon="6.61112">
        <ele>181.87127544731</ele>
        <time>2021-11-28T08:21:11Z</time>
      </trkpt>
      <trkpt lat="43.44666" lon="6.61111">
        <ele>181.87115608901</ele>
        <time>2021-11-28T08:21:13Z</time>
      </trkpt>
      <trkpt lat="43.44666" lon="6.6111">
        <ele>181.87110512704</ele>
        <time>2021-11-28T08:21:15Z</time>
      </trkpt>
      <trkpt lat="43.44668" lon="6.61108">
        <ele>181.87088719755</ele>
        <time>2021-11-28T08:21:17Z</time>
      </trkpt>
      <trkpt lat="43.44669" lon="6.61108">
        <ele>182.8708177954</ele>
        <time>2021-11-28T08:21:19Z</time>
      </trkpt>
      <trkpt lat="43.4467" lon="6.61106">
        <ele>181.87064177543</ele>
        <time>2021-11-28T08:21:21Z</time>
      </trkpt>
      <trkpt lat="43.4467" lon="6.61104">
        <ele>181.87055628002</ele>
        <time>2021-11-28T08:21:23Z</time>
      </trkpt>
      <trkpt lat="43.44671" lon="6.61104">
        <ele>182.87050665915</ele>
        <time>2021-11-28T08:21:25Z</time>
      </trkpt>
      <trkpt lat="43.44672" lon="6.61104">
        <ele>182.87038361281</ele>
        <time>2021-11-28T08:21:27Z</time>
      </trkpt>
      <trkpt lat="43.44673" lon="6.61103">
        <ele>183.87030683458</ele>
        <time>2021-11-28T08:21:28Z</time>
      </trkpt>
      <trkpt lat="43.44673" lon="6.61103">
        <ele>182.87025386095</ele>
        <time>2021-11-28T08:21:29Z</time>
      </trkpt>
      <trkpt lat="43.44673" lon="6.61102">
        <ele>183.87022972107</ele>
        <time>2021-11-28T08:21:30Z</time>
      </trkpt>
      <trkpt lat="43.44673" lon="6.61101">
        <ele>185.87018244714</ele>
        <time>2021-11-28T08:21:32Z</time>
      </trkpt>
      <trkpt lat="43.44674" lon="6.611">
        <ele>185.87011539191</ele>
        <time>2021-11-28T08:21:33Z</time>
      </trkpt>
      <trkpt lat="43.44673" lon="6.61099">
        <ele>185.87010600418</ele>
        <time>2021-11-28T08:21:35Z</time>
      </trkpt>
      <trkpt lat="43.44674" lon="6.61098">
        <ele>185.87005068362</ele>
        <time>2021-11-28T08:21:37Z</time>
      </trkpt>
      <trkpt lat="43.44674" lon="6.61097">
        <ele>186.87001145631</ele>
        <time>2021-11-28T08:21:40Z</time>
      </trkpt>
      <trkpt lat="43.44674" lon="6.61096">
        <ele>186.869972229</ele>
        <time>2021-11-28T08:21:41Z</time>
      </trkpt>
      <trkpt lat="43.44674" lon="6.61095">
        <ele>186.86992160231</ele>
        <time>2021-11-28T08:21:42Z</time>
      </trkpt>
      <trkpt lat="43.44674" lon="6.61095">
        <ele>186.86989913881</ele>
        <time>2021-11-28T08:21:43Z</time>
      </trkpt>
      <trkpt lat="43.44674" lon="6.61094">
        <ele>186.86987332255</ele>
        <time>2021-11-28T08:21:44Z</time>
      </trkpt>
      <trkpt lat="43.44673" lon="6.61094">
        <ele>186.8698739931</ele>
        <time>2021-11-28T08:21:47Z</time>
      </trkpt>
      <trkpt lat="43.44673" lon="6.61092">
        <ele>186.86988773942</ele>
        <time>2021-11-28T08:21:48Z</time>
      </trkpt>
      <trkpt lat="43.44673" lon="6.61091">
        <ele>186.86984817684</ele>
        <time>2021-11-28T08:21:49Z</time>
      </trkpt>
      <trkpt lat="43.44673" lon="6.6109">
        <ele>186.86979687959</ele>
        <time>2021-11-28T08:21:50Z</time>
      </trkpt>
      <trkpt lat="43.44673" lon="6.61089">
        <ele>185.86976502836</ele>
        <time>2021-11-28T08:21:51Z</time>
      </trkpt>
      <trkpt lat="43.44672" lon="6.61088">
        <ele>186.8697335124</ele>
        <time>2021-11-28T08:21:55Z</time>
      </trkpt>
      <trkpt lat="43.44672" lon="6.61086">
        <ele>186.86969495565</ele>
        <time>2021-11-28T08:21:56Z</time>
      </trkpt>
      <trkpt lat="43.44672" lon="6.61086">
        <ele>186.86971540749</ele>
        <time>2021-11-28T08:21:57Z</time>
      </trkpt>
      <trkpt lat="43.44671" lon="6.61085">
        <ele>186.86972345412</ele>
        <time>2021-11-28T08:21:58Z</time>
      </trkpt>
      <trkpt lat="43.44671" lon="6.61084">
        <ele>186.86966779828</ele>
        <time>2021-11-28T08:21:59Z</time>
      </trkpt>
      <trkpt lat="43.44672" lon="6.61082">
        <ele>187.86952396482</ele>
        <time>2021-11-28T08:22:01Z</time>
      </trkpt>
      <trkpt lat="43.44672" lon="6.61081">
        <ele>187.86943779886</ele>
        <time>2021-11-28T08:22:02Z</time>
      </trkpt>
      <trkpt lat="43.44673" lon="6.6108">
        <ele>187.8693613559</ele>
        <time>2021-11-28T08:22:03Z</time>
      </trkpt>
      <trkpt lat="43.44674" lon="6.61078">
        <ele>187.86925105006</ele>
        <time>2021-11-28T08:22:04Z</time>
      </trkpt>
      <trkpt lat="43.44673" lon="6.61077">
        <ele>188.86923763901</ele>
        <time>2021-11-28T08:22:06Z</time>
      </trkpt>
      <trkpt lat="43.44673" lon="6.61076">
        <ele>188.86922020465</ele>
        <time>2021-11-28T08:22:08Z</time>
      </trkpt>
      <trkpt lat="43.44672" lon="6.61075">
        <ele>189.86922221631</ele>
        <time>2021-11-28T08:22:09Z</time>
      </trkpt>
      <trkpt lat="43.44672" lon="6.61074">
        <ele>189.8692406565</ele>
        <time>2021-11-28T08:22:10Z</time>
      </trkpt>
      <trkpt lat="43.44671" lon="6.61074">
        <ele>190.86926043779</ele>
        <time>2021-11-28T08:22:12Z</time>
      </trkpt>
      <trkpt lat="43.44671" lon="6.61074">
        <ele>190.86929094791</ele>
        <time>2021-11-28T08:22:13Z</time>
      </trkpt>
      <trkpt lat="43.4467" lon="6.61073">
        <ele>189.86928860098</ele>
        <time>2021-11-28T08:22:15Z</time>
      </trkpt>
      <trkpt lat="43.4467" lon="6.61071">
        <ele>189.86921986938</ele>
        <time>2021-11-28T08:22:17Z</time>
      </trkpt>
      <trkpt lat="43.4467" lon="6.6107">
        <ele>189.86924568564</ele>
        <time>2021-11-28T08:22:19Z</time>
      </trkpt>
      <trkpt lat="43.44668" lon="6.6107">
        <ele>189.8693895191</ele>
        <time>2021-11-28T08:22:21Z</time>
      </trkpt>
      <trkpt lat="43.44667" lon="6.61068">
        <ele>189.86937879026</ele>
        <time>2021-11-28T08:22:23Z</time>
      </trkpt>
      <trkpt lat="43.44666" lon="6.61066">
        <ele>190.86936873198</ele>
        <time>2021-11-28T08:22:24Z</time>
      </trkpt>
      <trkpt lat="43.44666" lon="6.61065">
        <ele>190.86936672032</ele>
        <time>2021-11-28T08:22:25Z</time>
      </trkpt>
      <trkpt lat="43.44665" lon="6.61063">
        <ele>190.86930871755</ele>
        <time>2021-11-28T08:22:27Z</time>
      </trkpt>
      <trkpt lat="43.44664" lon="6.61062">
        <ele>190.86932011694</ele>
        <time>2021-11-28T08:22:28Z</time>
      </trkpt>
      <trkpt lat="43.44664" lon="6.6106">
        <ele>189.86927317828</ele>
        <time>2021-11-28T08:22:29Z</time>
      </trkpt>
      <trkpt lat="43.44664" lon="6.6106">
        <ele>189.86926077306</ele>
        <time>2021-11-28T08:22:30Z</time>
      </trkpt>
      <trkpt lat="43.44664" lon="6.61059">
        <ele>189.86925306171</ele>
        <time>2021-11-28T08:22:31Z</time>
      </trkpt>
      <trkpt lat="43.44663" lon="6.61058">
        <ele>189.86925876141</ele>
        <time>2021-11-28T08:22:32Z</time>
      </trkpt>
      <trkpt lat="43.44663" lon="6.61058">
        <ele>189.86929262429</ele>
        <time>2021-11-28T08:22:34Z</time>
      </trkpt>
      <trkpt lat="43.44662" lon="6.61055">
        <ele>189.86927887797</ele>
        <time>2021-11-28T08:22:36Z</time>
      </trkpt>
      <trkpt lat="43.44661" lon="6.61054">
        <ele>189.86923696846</ele>
        <time>2021-11-28T08:22:38Z</time>
      </trkpt>
      <trkpt lat="43.44661" lon="6.61053">
        <ele>189.86918634176</ele>
        <time>2021-11-28T08:22:39Z</time>
      </trkpt>
      <trkpt lat="43.44662" lon="6.61052">
        <ele>190.8691239804</ele>
        <time>2021-11-28T08:22:40Z</time>
      </trkpt>
      <trkpt lat="43.44663" lon="6.61051">
        <ele>190.86904619634</ele>
        <time>2021-11-28T08:22:41Z</time>
      </trkpt>
      <trkpt lat="43.44663" lon="6.6105">
        <ele>190.86895768344</ele>
        <time>2021-11-28T08:22:42Z</time>
      </trkpt>
      <trkpt lat="43.44663" lon="6.61049">
        <ele>190.86891208589</ele>
        <time>2021-11-28T08:22:45Z</time>
      </trkpt>
      <trkpt lat="43.44663" lon="6.61047">
        <ele>190.86884134263</ele>
        <time>2021-11-28T08:22:46Z</time>
      </trkpt>
      <trkpt lat="43.44663" lon="6.61047">
        <ele>190.86880312115</ele>
        <time>2021-11-28T08:22:47Z</time>
      </trkpt>
      <trkpt lat="43.44664" lon="6.61046">
        <ele>191.86874042451</ele>
        <time>2021-11-28T08:22:48Z</time>
      </trkpt>
      <trkpt lat="43.44664" lon="6.61045">
        <ele>191.86866029352</ele>
        <time>2021-11-28T08:22:49Z</time>
      </trkpt>
      <trkpt lat="43.44665" lon="6.61043">
        <ele>192.86853490025</ele>
        <time>2021-11-28T08:22:51Z</time>
      </trkpt>
      <trkpt lat="43.44666" lon="6.61042">
        <ele>192.86844672263</ele>
        <time>2021-11-28T08:22:52Z</time>
      </trkpt>
      <trkpt lat="43.44666" lon="6.61042">
        <ele>192.86838503182</ele>
        <time>2021-11-28T08:22:53Z</time>
      </trkpt>
      <trkpt lat="43.44666" lon="6.61041">
        <ele>193.86833909899</ele>
        <time>2021-11-28T08:22:54Z</time>
      </trkpt>
      <trkpt lat="43.44666" lon="6.6104">
        <ele>193.86827070266</ele>
        <time>2021-11-28T08:22:56Z</time>
      </trkpt>
      <trkpt lat="43.44667" lon="6.61039">
        <ele>193.86822208762</ele>
        <time>2021-11-28T08:22:58Z</time>
      </trkpt>
      <trkpt lat="43.44668" lon="6.61038">
        <ele>194.8681030646</ele>
        <time>2021-11-28T08:22:59Z</time>
      </trkpt>
      <trkpt lat="43.44668" lon="6.61037">
        <ele>195.86806182563</ele>
        <time>2021-11-28T08:23:04Z</time>
      </trkpt>
      <trkpt lat="43.44668" lon="6.61037">
        <ele>195.86800080538</ele>
        <time>2021-11-28T08:23:05Z</time>
      </trkpt>
      <trkpt lat="43.44669" lon="6.61036">
        <ele>196.86793978512</ele>
        <time>2021-11-28T08:23:06Z</time>
      </trkpt>
      <trkpt lat="43.44668" lon="6.61034">
        <ele>196.86791530997</ele>
        <time>2021-11-28T08:23:08Z</time>
      </trkpt>
      <trkpt lat="43.44667" lon="6.61035">
        <ele>195.86799141765</ele>
        <time>2021-11-28T08:23:10Z</time>
      </trkpt>
      <trkpt lat="43.44667" lon="6.61033">
        <ele>196.86799845845</ele>
        <time>2021-11-28T08:23:12Z</time>
      </trkpt>
      <trkpt lat="43.44666" lon="6.61033">
        <ele>196.86803433299</ele>
        <time>2021-11-28T08:23:13Z</time>
      </trkpt>
      <trkpt lat="43.44665" lon="6.61032">
        <ele>197.86806383729</ele>
        <time>2021-11-28T08:23:16Z</time>
      </trkpt>
      <trkpt lat="43.44665" lon="6.61032">
        <ele>197.86805679649</ele>
        <time>2021-11-28T08:23:19Z</time>
      </trkpt>
      <trkpt lat="43.44664" lon="6.61031">
        <ele>197.8681550324</ele>
        <time>2021-11-28T08:23:20Z</time>
      </trkpt>
      <trkpt lat="43.44663" lon="6.61031">
        <ele>198.86817112565</ele>
        <time>2021-11-28T08:23:22Z</time>
      </trkpt>
      <trkpt lat="43.44663" lon="6.6103">
        <ele>198.86815939099</ele>
        <time>2021-11-28T08:23:23Z</time>
      </trkpt>
      <trkpt lat="43.44663" lon="6.6103">
        <ele>198.86818386614</ele>
        <time>2021-11-28T08:23:24Z</time>
      </trkpt>
      <trkpt lat="43.44662" lon="6.61028">
        <ele>198.86816777289</ele>
        <time>2021-11-28T08:23:26Z</time>
      </trkpt>
      <trkpt lat="43.44661" lon="6.61028">
        <ele>199.86820096523</ele>
        <time>2021-11-28T08:23:27Z</time>
      </trkpt>
      <trkpt lat="43.44661" lon="6.61028">
        <ele>199.86826265603</ele>
        <time>2021-11-28T08:23:28Z</time>
      </trkpt>
      <trkpt lat="43.4466" lon="6.61028">
        <ele>199.86829953641</ele>
        <time>2021-11-28T08:23:29Z</time>
      </trkpt>
      <trkpt lat="43.44659" lon="6.61027">
        <ele>199.86833909899</ele>
        <time>2021-11-28T08:23:31Z</time>
      </trkpt>
      <trkpt lat="43.44659" lon="6.61027">
        <ele>199.86839240789</ele>
        <time>2021-11-28T08:23:33Z</time>
      </trkpt>
      <trkpt lat="43.44658" lon="6.61027">
        <ele>200.8684021309</ele>
        <time>2021-11-28T08:23:34Z</time>
      </trkpt>
      <trkpt lat="43.44658" lon="6.61026">
        <ele>201.86839676648</ele>
        <time>2021-11-28T08:23:39Z</time>
      </trkpt>
      <trkpt lat="43.44658" lon="6.61024">
        <ele>202.86834111065</ele>
        <time>2021-11-28T08:23:41Z</time>
      </trkpt>
      <trkpt lat="43.44658" lon="6.61022">
        <ele>202.86821806431</ele>
        <time>2021-11-28T08:23:43Z</time>
      </trkpt>
      <trkpt lat="43.44659" lon="6.61021">
        <ele>202.86815905571</ele>
        <time>2021-11-28T08:23:44Z</time>
      </trkpt>
      <trkpt lat="43.44659" lon="6.6102">
        <ele>202.86808395386</ele>
        <time>2021-11-28T08:23:45Z</time>
      </trkpt>
      <trkpt lat="43.44659" lon="6.61019">
        <ele>202.86804874986</ele>
        <time>2021-11-28T08:23:47Z</time>
      </trkpt>
      <trkpt lat="43.4466" lon="6.61019">
        <ele>202.86801052839</ele>
        <time>2021-11-28T08:23:53Z</time>
      </trkpt>
      <trkpt lat="43.44658" lon="6.61019">
        <ele>203.86816944927</ele>
        <time>2021-11-28T08:23:54Z</time>
      </trkpt>
      <trkpt lat="43.44657" lon="6.61019">
        <ele>204.86818956584</ele>
        <time>2021-11-28T08:23:55Z</time>
      </trkpt>
      <trkpt lat="43.44657" lon="6.61018">
        <ele>204.86815134436</ele>
        <time>2021-11-28T08:23:59Z</time>
      </trkpt>
      <trkpt lat="43.44657" lon="6.61017">
        <ele>203.86815771461</ele>
        <time>2021-11-28T08:24:00Z</time>
      </trkpt>
      <trkpt lat="43.44656" lon="6.61016">
        <ele>204.86816039681</ele>
        <time>2021-11-28T08:24:01Z</time>
      </trkpt>
      <trkpt lat="43.44656" lon="6.61015">
        <ele>205.86812385172</ele>
        <time>2021-11-28T08:24:02Z</time>
      </trkpt>
      <trkpt lat="43.44656" lon="6.61015">
        <ele>205.86807255447</ele>
        <time>2021-11-28T08:24:03Z</time>
      </trkpt>
      <trkpt lat="43.44657" lon="6.61013">
        <ele>205.86800382286</ele>
        <time>2021-11-28T08:24:04Z</time>
      </trkpt>
      <trkpt lat="43.44656" lon="6.61012">
        <ele>205.86797867715</ele>
        <time>2021-11-28T08:24:05Z</time>
      </trkpt>
      <trkpt lat="43.44656" lon="6.6101">
        <ele>205.86791631579</ele>
        <time>2021-11-28T08:24:07Z</time>
      </trkpt>
      <trkpt lat="43.44655" lon="6.6101">
        <ele>205.86795789003</ele>
        <time>2021-11-28T08:24:09Z</time>
      </trkpt>
      <trkpt lat="43.44655" lon="6.6101">
        <ele>206.86798135936</ele>
        <time>2021-11-28T08:24:10Z</time>
      </trkpt>
      <trkpt lat="43.44654" lon="6.61008">
        <ele>205.86800482869</ele>
        <time>2021-11-28T08:24:12Z</time>
      </trkpt>
      <trkpt lat="43.44653" lon="6.61007">
        <ele>206.86802561581</ele>
        <time>2021-11-28T08:24:13Z</time>
      </trkpt>
      <trkpt lat="43.44653" lon="6.61006">
        <ele>205.86800549924</ele>
        <time>2021-11-28T08:24:14Z</time>
      </trkpt>
      <trkpt lat="43.44652" lon="6.61006">
        <ele>205.86805210263</ele>
        <time>2021-11-28T08:24:16Z</time>
      </trkpt>
      <trkpt lat="43.44651" lon="6.61005">
        <ele>206.86809937656</ele>
        <time>2021-11-28T08:24:18Z</time>
      </trkpt>
      <trkpt lat="43.4465" lon="6.61004">
        <ele>206.86815369129</ele>
        <time>2021-11-28T08:24:19Z</time>
      </trkpt>
      <trkpt lat="43.4465" lon="6.61004">
        <ele>206.86819124222</ele>
        <time>2021-11-28T08:24:20Z</time>
      </trkpt>
      <trkpt lat="43.44649" lon="6.61004">
        <ele>205.86823516339</ele>
        <time>2021-11-28T08:24:23Z</time>
      </trkpt>
      <trkpt lat="43.44648" lon="6.61003">
        <ele>206.86827103794</ele>
        <time>2021-11-28T08:24:24Z</time>
      </trkpt>
      <trkpt lat="43.44648" lon="6.61002">
        <ele>206.86824589223</ele>
        <time>2021-11-28T08:24:26Z</time>
      </trkpt>
      <trkpt lat="43.44647" lon="6.61">
        <ele>206.86824522167</ele>
        <time>2021-11-28T08:24:28Z</time>
      </trkpt>
      <trkpt lat="43.44646" lon="6.60999">
        <ele>206.86825829744</ele>
        <time>2021-11-28T08:24:29Z</time>
      </trkpt>
      <trkpt lat="43.44646" lon="6.60998">
        <ele>206.86822175235</ele>
        <time>2021-11-28T08:24:32Z</time>
      </trkpt>
      <trkpt lat="43.44646" lon="6.60997">
        <ele>206.8681858778</ele>
        <time>2021-11-28T08:24:33Z</time>
      </trkpt>
      <trkpt lat="43.44646" lon="6.60996">
        <ele>205.86813558638</ele>
        <time>2021-11-28T08:24:34Z</time>
      </trkpt>
      <trkpt lat="43.44647" lon="6.60996">
        <ele>205.86808160692</ele>
        <time>2021-11-28T08:24:36Z</time>
      </trkpt>
      <trkpt lat="43.44647" lon="6.60995">
        <ele>205.86805512011</ele>
        <time>2021-11-28T08:24:38Z</time>
      </trkpt>
      <trkpt lat="43.44646" lon="6.60994">
        <ele>205.86806819588</ele>
        <time>2021-11-28T08:24:39Z</time>
      </trkpt>
      <trkpt lat="43.44646" lon="6.60993">
        <ele>205.86806685477</ele>
        <time>2021-11-28T08:24:40Z</time>
      </trkpt>
      <trkpt lat="43.44646" lon="6.60992">
        <ele>203.86801153421</ele>
        <time>2021-11-28T08:24:42Z</time>
      </trkpt>
      <trkpt lat="43.44645" lon="6.60992">
        <ele>203.86805512011</ele>
        <time>2021-11-28T08:24:43Z</time>
      </trkpt>
      <trkpt lat="43.44645" lon="6.60992">
        <ele>203.86809803545</ele>
        <time>2021-11-28T08:24:44Z</time>
      </trkpt>
      <trkpt lat="43.44644" lon="6.60992">
        <ele>203.86816676706</ele>
        <time>2021-11-28T08:24:51Z</time>
      </trkpt>
      <trkpt lat="43.44642" lon="6.60991">
        <ele>203.86825092137</ele>
        <time>2021-11-28T08:24:52Z</time>
      </trkpt>
      <trkpt lat="43.44643" lon="6.60991">
        <ele>205.86822007596</ele>
        <time>2021-11-28T08:24:57Z</time>
      </trkpt>
      <trkpt lat="43.44642" lon="6.6099">
        <ele>206.86824220419</ele>
        <time>2021-11-28T08:24:58Z</time>
      </trkpt>
      <trkpt lat="43.44641" lon="6.6099">
        <ele>206.86827975512</ele>
        <time>2021-11-28T08:25:00Z</time>
      </trkpt>
      <trkpt lat="43.44641" lon="6.60989">
        <ele>206.86832166463</ele>
        <time>2021-11-28T08:25:01Z</time>
      </trkpt>
      <trkpt lat="43.4464" lon="6.60989">
        <ele>206.86837497354</ele>
        <time>2021-11-28T08:25:02Z</time>
      </trkpt>
      <trkpt lat="43.4464" lon="6.60988">
        <ele>206.86835686862</ele>
        <time>2021-11-28T08:25:04Z</time>
      </trkpt>
      <trkpt lat="43.44639" lon="6.60988">
        <ele>206.86838469654</ele>
        <time>2021-11-28T08:25:07Z</time>
      </trkpt>
      <trkpt lat="43.44639" lon="6.60987">
        <ele>206.86837027967</ele>
        <time>2021-11-28T08:25:08Z</time>
      </trkpt>
      <trkpt lat="43.44639" lon="6.60986">
        <ele>205.8683417812</ele>
        <time>2021-11-28T08:25:09Z</time>
      </trkpt>
      <trkpt lat="43.44638" lon="6.60985">
        <ele>205.86834546924</ele>
        <time>2021-11-28T08:25:10Z</time>
      </trkpt>
      <trkpt lat="43.44638" lon="6.60985">
        <ele>205.86836390942</ele>
        <time>2021-11-28T08:25:13Z</time>
      </trkpt>
      <trkpt lat="43.44637" lon="6.60984">
        <ele>207.8684302941</ele>
        <time>2021-11-28T08:25:14Z</time>
      </trkpt>
      <trkpt lat="43.44637" lon="6.60982">
        <ele>207.8683193177</ele>
        <time>2021-11-28T08:25:16Z</time>
      </trkpt>
      <trkpt lat="43.44636" lon="6.6098">
        <ele>208.86831529438</ele>
        <time>2021-11-28T08:25:18Z</time>
      </trkpt>
      <trkpt lat="43.44636" lon="6.60979">
        <ele>209.86826198548</ele>
        <time>2021-11-28T08:25:19Z</time>
      </trkpt>
      <trkpt lat="43.44636" lon="6.60978">
        <ele>209.86826131493</ele>
        <time>2021-11-28T08:25:20Z</time>
      </trkpt>
      <trkpt lat="43.44635" lon="6.60977">
        <ele>208.86825695634</ele>
        <time>2021-11-28T08:25:22Z</time>
      </trkpt>
      <trkpt lat="43.44635" lon="6.60977">
        <ele>208.86829316616</ele>
        <time>2021-11-28T08:25:24Z</time>
      </trkpt>
      <trkpt lat="43.44634" lon="6.60976">
        <ele>209.8683360815</ele>
        <time>2021-11-28T08:25:26Z</time>
      </trkpt>
      <trkpt lat="43.44633" lon="6.60976">
        <ele>209.86835452169</ele>
        <time>2021-11-28T08:25:28Z</time>
      </trkpt>
      <trkpt lat="43.44633" lon="6.60975">
        <ele>210.8683796674</ele>
        <time>2021-11-28T08:25:33Z</time>
      </trkpt>
      <trkpt lat="43.44632" lon="6.60974">
        <ele>211.86837363243</ele>
        <time>2021-11-28T08:25:35Z</time>
      </trkpt>
      <trkpt lat="43.44632" lon="6.60973">
        <ele>211.86837363243</ele>
        <time>2021-11-28T08:25:36Z</time>
      </trkpt>
      <trkpt lat="43.44631" lon="6.60973">
        <ele>211.86842358857</ele>
        <time>2021-11-28T08:25:38Z</time>
      </trkpt>
      <trkpt lat="43.44631" lon="6.60973">
        <ele>212.86846717447</ele>
        <time>2021-11-28T08:25:41Z</time>
      </trkpt>
      <trkpt lat="43.4463" lon="6.60973">
        <ele>211.86853154749</ele>
        <time>2021-11-28T08:25:45Z</time>
      </trkpt>
      <trkpt lat="43.44629" lon="6.60972">
        <ele>212.8685144484</ele>
        <time>2021-11-28T08:25:48Z</time>
      </trkpt>
      <trkpt lat="43.44629" lon="6.60971">
        <ele>213.86850841343</ele>
        <time>2021-11-28T08:25:51Z</time>
      </trkpt>
      <trkpt lat="43.44628" lon="6.60971">
        <ele>213.86856943369</ele>
        <time>2021-11-28T08:25:53Z</time>
      </trkpt>
      <trkpt lat="43.44628" lon="6.60971">
        <ele>213.86862173676</ele>
        <time>2021-11-28T08:25:55Z</time>
      </trkpt>
      <trkpt lat="43.44627" lon="6.6097">
        <ele>213.86863749474</ele>
        <time>2021-11-28T08:25:56Z</time>
      </trkpt>
      <trkpt lat="43.44626" lon="6.6097">
        <ele>214.86868041009</ele>
        <time>2021-11-28T08:25:58Z</time>
      </trkpt>
      <trkpt lat="43.44626" lon="6.60969">
        <ele>214.86868409812</ele>
        <time>2021-11-28T08:25:59Z</time>
      </trkpt>
      <trkpt lat="43.44626" lon="6.60969">
        <ele>215.86871829629</ele>
        <time>2021-11-28T08:26:00Z</time>
      </trkpt>
      <trkpt lat="43.44625" lon="6.60968">
        <ele>215.86874008924</ele>
        <time>2021-11-28T08:26:03Z</time>
      </trkpt>
      <trkpt lat="43.44624" lon="6.60968">
        <ele>216.86878199875</ele>
        <time>2021-11-28T08:26:06Z</time>
      </trkpt>
      <trkpt lat="43.44624" lon="6.60967">
        <ele>216.86877361685</ele>
        <time>2021-11-28T08:26:07Z</time>
      </trkpt>
      <trkpt lat="43.44624" lon="6.60966">
        <ele>216.86876959354</ele>
        <time>2021-11-28T08:26:11Z</time>
      </trkpt>
      <trkpt lat="43.44624" lon="6.60965">
        <ele>217.86870220304</ele>
        <time>2021-11-28T08:26:13Z</time>
      </trkpt>
      <trkpt lat="43.44624" lon="6.60964">
        <ele>217.86867973953</ele>
        <time>2021-11-28T08:26:14Z</time>
      </trkpt>
      <trkpt lat="43.44624" lon="6.60963">
        <ele>217.86863715947</ele>
        <time>2021-11-28T08:26:15Z</time>
      </trkpt>
      <trkpt lat="43.44623" lon="6.60962">
        <ele>216.86865627021</ele>
        <time>2021-11-28T08:26:17Z</time>
      </trkpt>
      <trkpt lat="43.44622" lon="6.60962">
        <ele>217.86873237789</ele>
        <time>2021-11-28T08:26:18Z</time>
      </trkpt>
      <trkpt lat="43.44622" lon="6.60963">
        <ele>217.86878870428</ele>
        <time>2021-11-28T08:26:19Z</time>
      </trkpt>
      <trkpt lat="43.44621" lon="6.60963">
        <ele>217.86882927269</ele>
        <time>2021-11-28T08:26:20Z</time>
      </trkpt>
      <trkpt lat="43.44622" lon="6.60962">
        <ele>222.86877462268</ele>
        <time>2021-11-28T08:26:33Z</time>
      </trkpt>
      <trkpt lat="43.44622" lon="6.60962">
        <ele>223.86874109507</ele>
        <time>2021-11-28T08:26:34Z</time>
      </trkpt>
      <trkpt lat="43.44622" lon="6.60961">
        <ele>224.86869583279</ele>
        <time>2021-11-28T08:26:38Z</time>
      </trkpt>
      <trkpt lat="43.44621" lon="6.60961">
        <ele>226.8687659055</ele>
        <time>2021-11-28T08:26:40Z</time>
      </trkpt>
      <trkpt lat="43.44621" lon="6.60962">
        <ele>226.86880110949</ele>
        <time>2021-11-28T08:26:45Z</time>
      </trkpt>
      <trkpt lat="43.44621" lon="6.60963">
        <ele>228.86882860214</ele>
        <time>2021-11-28T08:26:47Z</time>
      </trkpt>
      <trkpt lat="43.44621" lon="6.60963">
        <ele>229.86886883527</ele>
        <time>2021-11-28T08:26:53Z</time>
      </trkpt>
      <trkpt lat="43.4462" lon="6.60964">
        <ele>230.86892046779</ele>
        <time>2021-11-28T08:26:54Z</time>
      </trkpt>
      <trkpt lat="43.4462" lon="6.60963">
        <ele>230.86889968067</ele>
        <time>2021-11-28T08:26:56Z</time>
      </trkpt>
      <trkpt lat="43.4462" lon="6.60963">
        <ele>230.86889331043</ele>
        <time>2021-11-28T08:27:01Z</time>
      </trkpt>
      <trkpt lat="43.44619" lon="6.60963">
        <ele>230.86898484081</ele>
        <time>2021-11-28T08:27:03Z</time>
      </trkpt>
      <trkpt lat="43.44619" lon="6.60964">
        <ele>231.86905893683</ele>
        <time>2021-11-28T08:27:04Z</time>
      </trkpt>
      <trkpt lat="43.44618" lon="6.60964">
        <ele>232.86914242059</ele>
        <time>2021-11-28T08:27:11Z</time>
      </trkpt>
      <trkpt lat="43.44618" lon="6.60965">
        <ele>232.86917527765</ele>
        <time>2021-11-28T08:27:21Z</time>
      </trkpt>
      <trkpt lat="43.44617" lon="6.60966">
        <ele>233.86925071478</ele>
        <time>2021-11-28T08:27:23Z</time>
      </trkpt>
      <trkpt lat="43.44617" lon="6.60966">
        <ele>232.86930000037</ele>
        <time>2021-11-28T08:27:41Z</time>
      </trkpt>
      <trkpt lat="43.44617" lon="6.60966">
        <ele>234.86927016079</ele>
        <time>2021-11-28T08:27:56Z</time>
      </trkpt>
      <trkpt lat="43.44617" lon="6.60967">
        <ele>233.86935163289</ele>
        <time>2021-11-28T08:27:58Z</time>
      </trkpt>
      <trkpt lat="43.44617" lon="6.60967">
        <ele>233.86931877583</ele>
        <time>2021-11-28T08:28:11Z</time>
      </trkpt>
      <trkpt lat="43.44617" lon="6.60965">
        <ele>234.86926781386</ele>
        <time>2021-11-28T08:28:12Z</time>
      </trkpt>
      <trkpt lat="43.44617" lon="6.60964">
        <ele>234.86922322214</ele>
        <time>2021-11-28T08:28:30Z</time>
      </trkpt>
      <trkpt lat="43.44616" lon="6.60964">
        <ele>233.86923763901</ele>
        <time>2021-11-28T08:28:51Z</time>
      </trkpt>
      <trkpt lat="43.44616" lon="6.60964">
        <ele>233.86928759515</ele>
        <time>2021-11-28T08:28:52Z</time>
      </trkpt>
      <trkpt lat="43.44615" lon="6.60964">
        <ele>233.86931542307</ele>
        <time>2021-11-28T08:29:05Z</time>
      </trkpt>
      <trkpt lat="43.44617" lon="6.60965">
        <ele>233.86923093349</ele>
        <time>2021-11-28T08:29:07Z</time>
      </trkpt>
      <trkpt lat="43.44618" lon="6.60964">
        <ele>233.86914543808</ele>
        <time>2021-11-28T08:29:08Z</time>
      </trkpt>
      <trkpt lat="43.44618" lon="6.60963">
        <ele>233.86907670647</ele>
        <time>2021-11-28T08:29:09Z</time>
      </trkpt>
      <trkpt lat="43.44618" lon="6.60962">
        <ele>232.86906430125</ele>
        <time>2021-11-28T08:29:47Z</time>
      </trkpt>
      <trkpt lat="43.44617" lon="6.60961">
        <ele>233.86905692518</ele>
        <time>2021-11-28T08:29:54Z</time>
      </trkpt>
      <trkpt lat="43.44617" lon="6.60961">
        <ele>234.86909883469</ele>
        <time>2021-11-28T08:29:55Z</time>
      </trkpt>
      <trkpt lat="43.44616" lon="6.60961">
        <ele>233.86918433011</ele>
        <time>2021-11-28T08:29:57Z</time>
      </trkpt>
      <trkpt lat="43.44616" lon="6.60961">
        <ele>233.86917728931</ele>
        <time>2021-11-28T08:29:59Z</time>
      </trkpt>
      <trkpt lat="43.44617" lon="6.6096">
        <ele>234.86903613806</ele>
        <time>2021-11-28T08:30:01Z</time>
      </trkpt>
      <trkpt lat="43.44619" lon="6.60959">
        <ele>235.86889632791</ele>
        <time>2021-11-28T08:30:03Z</time>
      </trkpt>
      <trkpt lat="43.44619" lon="6.60959">
        <ele>233.86885944754</ele>
        <time>2021-11-28T08:30:20Z</time>
      </trkpt>
      <trkpt lat="43.44618" lon="6.60959">
        <ele>231.86887487024</ele>
        <time>2021-11-28T08:30:25Z</time>
      </trkpt>
      <trkpt lat="43.44618" lon="6.60958">
        <ele>231.86892516166</ele>
        <time>2021-11-28T08:30:28Z</time>
      </trkpt>
      <trkpt lat="43.44617" lon="6.60957">
        <ele>232.86889867485</ele>
        <time>2021-11-28T08:30:31Z</time>
      </trkpt>
      <trkpt lat="43.44617" lon="6.60957">
        <ele>231.86888794601</ele>
        <time>2021-11-28T08:30:35Z</time>
      </trkpt>
      <trkpt lat="43.44617" lon="6.60955">
        <ele>231.86882256716</ele>
        <time>2021-11-28T08:30:36Z</time>
      </trkpt>
      <trkpt lat="43.44618" lon="6.60954">
        <ele>230.8687504828</ele>
        <time>2021-11-28T08:30:37Z</time>
      </trkpt>
      <trkpt lat="43.44618" lon="6.60953">
        <ele>231.86867068708</ele>
        <time>2021-11-28T08:30:40Z</time>
      </trkpt>
      <trkpt lat="43.44618" lon="6.60952">
        <ele>231.86865828186</ele>
        <time>2021-11-28T08:30:43Z</time>
      </trkpt>
      <trkpt lat="43.44618" lon="6.60951">
        <ele>231.86864922941</ele>
        <time>2021-11-28T08:30:46Z</time>
      </trkpt>
      <trkpt lat="43.44617" lon="6.6095">
        <ele>230.86863380671</ele>
        <time>2021-11-28T08:30:48Z</time>
      </trkpt>
      <trkpt lat="43.44617" lon="6.60949">
        <ele>230.86860497296</ele>
        <time>2021-11-28T08:30:49Z</time>
      </trkpt>
      <trkpt lat="43.44616" lon="6.60948">
        <ele>229.86860899627</ele>
        <time>2021-11-28T08:30:52Z</time>
      </trkpt>
      <trkpt lat="43.44616" lon="6.60947">
        <ele>229.86859323829</ele>
        <time>2021-11-28T08:30:53Z</time>
      </trkpt>
      <trkpt lat="43.44616" lon="6.60947">
        <ele>229.86862307787</ele>
        <time>2021-11-28T08:30:54Z</time>
      </trkpt>
      <trkpt lat="43.44616" lon="6.60945">
        <ele>229.86855501682</ele>
        <time>2021-11-28T08:30:56Z</time>
      </trkpt>
      <trkpt lat="43.44616" lon="6.60944">
        <ele>228.86847890913</ele>
        <time>2021-11-28T08:30:58Z</time>
      </trkpt>
      <trkpt lat="43.44616" lon="6.60943">
        <ele>228.8684373349</ele>
        <time>2021-11-28T08:30:59Z</time>
      </trkpt>
      <trkpt lat="43.44616" lon="6.60943">
        <ele>228.86840548366</ele>
        <time>2021-11-28T08:31:00Z</time>
      </trkpt>
      <trkpt lat="43.44617" lon="6.60942">
        <ele>228.86833004653</ele>
        <time>2021-11-28T08:31:02Z</time>
      </trkpt>
      <trkpt lat="43.44617" lon="6.60942">
        <ele>228.86831529438</ele>
        <time>2021-11-28T08:31:05Z</time>
      </trkpt>
      <trkpt lat="43.44616" lon="6.60941">
        <ele>228.86833876371</ele>
        <time>2021-11-28T08:31:06Z</time>
      </trkpt>
      <trkpt lat="43.44616" lon="6.6094">
        <ele>227.8683263585</ele>
        <time>2021-11-28T08:31:07Z</time>
      </trkpt>
      <trkpt lat="43.44616" lon="6.60939">
        <ele>227.86830791831</ele>
        <time>2021-11-28T08:31:08Z</time>
      </trkpt>
      <trkpt lat="43.44615" lon="6.60938">
        <ele>227.86829216033</ele>
        <time>2021-11-28T08:31:09Z</time>
      </trkpt>
      <trkpt lat="43.44614" lon="6.60935">
        <ele>227.86827874929</ele>
        <time>2021-11-28T08:31:11Z</time>
      </trkpt>
      <trkpt lat="43.44613" lon="6.60931">
        <ele>226.86821135879</ele>
        <time>2021-11-28T08:31:13Z</time>
      </trkpt>
      <trkpt lat="43.44613" lon="6.60929">
        <ele>226.86816710234</ele>
        <time>2021-11-28T08:31:14Z</time>
      </trkpt>
      <trkpt lat="43.44613" lon="6.60928">
        <ele>226.86807825416</ele>
        <time>2021-11-28T08:31:15Z</time>
      </trkpt>
      <trkpt lat="43.44613" lon="6.60927">
        <ele>226.86802360415</ele>
        <time>2021-11-28T08:31:16Z</time>
      </trkpt>
      <trkpt lat="43.44614" lon="6.60926">
        <ele>226.86791933328</ele>
        <time>2021-11-28T08:31:18Z</time>
      </trkpt>
      <trkpt lat="43.44614" lon="6.60924">
        <ele>226.86782847345</ele>
        <time>2021-11-28T08:31:19Z</time>
      </trkpt>
      <trkpt lat="43.44614" lon="6.60922">
        <ele>226.86776980013</ele>
        <time>2021-11-28T08:31:20Z</time>
      </trkpt>
      <trkpt lat="43.44614" lon="6.6092">
        <ele>225.86768598109</ele>
        <time>2021-11-28T08:31:22Z</time>
      </trkpt>
      <trkpt lat="43.44613" lon="6.60918">
        <ele>225.86767022312</ele>
        <time>2021-11-28T08:31:23Z</time>
      </trkpt>
      <trkpt lat="43.44613" lon="6.60917">
        <ele>224.86765848845</ele>
        <time>2021-11-28T08:31:24Z</time>
      </trkpt>
      <trkpt lat="43.44613" lon="6.60916">
        <ele>224.86763166636</ele>
        <time>2021-11-28T08:31:25Z</time>
      </trkpt>
      <trkpt lat="43.44613" lon="6.60914">
        <ele>223.86756662279</ele>
        <time>2021-11-28T08:31:27Z</time>
      </trkpt>
      <trkpt lat="43.44613" lon="6.60914">
        <ele>222.86748280376</ele>
        <time>2021-11-28T08:31:30Z</time>
      </trkpt>
      <trkpt lat="43.44613" lon="6.60911">
        <ele>223.86737316847</ele>
        <time>2021-11-28T08:31:32Z</time>
      </trkpt>
      <trkpt lat="43.44614" lon="6.6091">
        <ele>223.86732019484</ele>
        <time>2021-11-28T08:31:33Z</time>
      </trkpt>
      <trkpt lat="43.44613" lon="6.6091">
        <ele>223.86738087982</ele>
        <time>2021-11-28T08:31:34Z</time>
      </trkpt>
      <trkpt lat="43.44612" lon="6.60909">
        <ele>223.8674134016</ele>
        <time>2021-11-28T08:31:35Z</time>
      </trkpt>
      <trkpt lat="43.44611" lon="6.60908">
        <ele>223.86742278934</ele>
        <time>2021-11-28T08:31:36Z</time>
      </trkpt>
      <trkpt lat="43.4461" lon="6.60906">
        <ele>224.86744659394</ele>
        <time>2021-11-28T08:31:38Z</time>
      </trkpt>
      <trkpt lat="43.4461" lon="6.60906">
        <ele>223.86745598167</ele>
        <time>2021-11-28T08:31:39Z</time>
      </trkpt>
      <trkpt lat="43.44609" lon="6.60906">
        <ele>223.86750090867</ele>
        <time>2021-11-28T08:31:40Z</time>
      </trkpt>
      <trkpt lat="43.44609" lon="6.60905">
        <ele>223.86748079211</ele>
        <time>2021-11-28T08:31:41Z</time>
      </trkpt>
      <trkpt lat="43.44609" lon="6.60903">
        <ele>223.8673838973</ele>
        <time>2021-11-28T08:31:42Z</time>
      </trkpt>
      <trkpt lat="43.4461" lon="6.60902">
        <ele>223.8673081249</ele>
        <time>2021-11-28T08:31:43Z</time>
      </trkpt>
      <trkpt lat="43.4461" lon="6.60901">
        <ele>224.8672253117</ele>
        <time>2021-11-28T08:31:44Z</time>
      </trkpt>
      <trkpt lat="43.44611" lon="6.609">
        <ele>225.86716730893</ele>
        <time>2021-11-28T08:31:46Z</time>
      </trkpt>
      <trkpt lat="43.44611" lon="6.60898">
        <ele>226.86703789234</ele>
        <time>2021-11-28T08:31:48Z</time>
      </trkpt>
      <trkpt lat="43.44611" lon="6.60899">
        <ele>226.86708885431</ele>
        <time>2021-11-28T08:31:50Z</time>
      </trkpt>
      <trkpt lat="43.4461" lon="6.60897">
        <ele>226.86710427701</ele>
        <time>2021-11-28T08:31:52Z</time>
      </trkpt>
      <trkpt lat="43.4461" lon="6.60896">
        <ele>226.86702649295</ele>
        <time>2021-11-28T08:31:53Z</time>
      </trkpt>
      <trkpt lat="43.44611" lon="6.60895">
        <ele>226.8669570908</ele>
        <time>2021-11-28T08:31:54Z</time>
      </trkpt>
      <trkpt lat="43.44611" lon="6.60894">
        <ele>227.86685147882</ele>
        <time>2021-11-28T08:31:56Z</time>
      </trkpt>
      <trkpt lat="43.44612" lon="6.60893">
        <ele>227.86677268893</ele>
        <time>2021-11-28T08:31:58Z</time>
      </trkpt>
      <trkpt lat="43.44612" lon="6.60892">
        <ele>228.86675156653</ele>
        <time>2021-11-28T08:31:59Z</time>
      </trkpt>
      <trkpt lat="43.44611" lon="6.6089">
        <ele>228.86670932174</ele>
        <time>2021-11-28T08:32:00Z</time>
      </trkpt>
      <trkpt lat="43.44611" lon="6.60889">
        <ele>228.86666238308</ele>
        <time>2021-11-28T08:32:01Z</time>
      </trkpt>
      <trkpt lat="43.44613" lon="6.60888">
        <ele>228.86647798121</ele>
        <time>2021-11-28T08:32:03Z</time>
      </trkpt>
      <trkpt lat="43.44615" lon="6.60888">
        <ele>228.86636465788</ele>
        <time>2021-11-28T08:32:04Z</time>
      </trkpt>
      <trkpt lat="43.44614" lon="6.60889">
        <ele>228.86640992016</ele>
        <time>2021-11-28T08:32:07Z</time>
      </trkpt>
      <trkpt lat="43.44614" lon="6.6089">
        <ele>227.86646926403</ele>
        <time>2021-11-28T08:32:08Z</time>
      </trkpt>
      <trkpt lat="43.44614" lon="6.6089">
        <ele>227.86651586741</ele>
        <time>2021-11-28T08:32:09Z</time>
      </trkpt>
      <trkpt lat="43.44613" lon="6.60889">
        <ele>227.86649105698</ele>
        <time>2021-11-28T08:32:14Z</time>
      </trkpt>
      <trkpt lat="43.44615" lon="6.60888">
        <ele>227.86636096984</ele>
        <time>2021-11-28T08:32:16Z</time>
      </trkpt>
      <trkpt lat="43.44616" lon="6.60888">
        <ele>228.86624999344</ele>
        <time>2021-11-28T08:32:18Z</time>
      </trkpt>
      <trkpt lat="43.44615" lon="6.60887">
        <ele>228.86626340449</ele>
        <time>2021-11-28T08:32:19Z</time>
      </trkpt>
      <trkpt lat="43.44615" lon="6.60887">
        <ele>229.8663026318</ele>
        <time>2021-11-28T08:32:22Z</time>
      </trkpt>
      <trkpt lat="43.44615" lon="6.60886">
        <ele>229.86626306921</ele>
        <time>2021-11-28T08:32:23Z</time>
      </trkpt>
      <trkpt lat="43.44615" lon="6.60885">
        <ele>228.86619634926</ele>
        <time>2021-11-28T08:32:24Z</time>
      </trkpt>
      <trkpt lat="43.44616" lon="6.60885">
        <ele>228.86610113084</ele>
        <time>2021-11-28T08:32:25Z</time>
      </trkpt>
      <trkpt lat="43.44618" lon="6.60883">
        <ele>227.86588890105</ele>
        <time>2021-11-28T08:32:27Z</time>
      </trkpt>
      <trkpt lat="43.44618" lon="6.60883">
        <ele>227.86585637927</ele>
        <time>2021-11-28T08:32:28Z</time>
      </trkpt>
      <trkpt lat="43.44619" lon="6.60883">
        <ele>226.86580910534</ele>
        <time>2021-11-28T08:32:29Z</time>
      </trkpt>
      <trkpt lat="43.44622" lon="6.60882">
        <ele>226.86553417891</ele>
        <time>2021-11-28T08:32:31Z</time>
      </trkpt>
      <trkpt lat="43.44623" lon="6.60882">
        <ele>227.86546075344</ele>
        <time>2021-11-28T08:32:33Z</time>
      </trkpt>
      <trkpt lat="43.44623" lon="6.60881">
        <ele>227.86543225497</ele>
        <time>2021-11-28T08:32:34Z</time>
      </trkpt>
      <trkpt lat="43.44622" lon="6.6088">
        <ele>227.86543963104</ele>
        <time>2021-11-28T08:32:36Z</time>
      </trkpt>
      <trkpt lat="43.44622" lon="6.6088">
        <ele>228.86542420834</ele>
        <time>2021-11-28T08:32:38Z</time>
      </trkpt>
      <trkpt lat="43.44623" lon="6.60879">
        <ele>228.86534843594</ele>
        <time>2021-11-28T08:32:39Z</time>
      </trkpt>
      <trkpt lat="43.44624" lon="6.60879">
        <ele>229.86526629329</ele>
        <time>2021-11-28T08:32:40Z</time>
      </trkpt>
      <trkpt lat="43.44624" lon="6.60879">
        <ele>229.86521365494</ele>
        <time>2021-11-28T08:32:41Z</time>
      </trkpt>
      <trkpt lat="43.44625" lon="6.60879">
        <ele>230.86517174542</ele>
        <time>2021-11-28T08:32:42Z</time>
      </trkpt>
      <trkpt lat="43.44626" lon="6.60879">
        <ele>230.86509127915</ele>
        <time>2021-11-28T08:32:43Z</time>
      </trkpt>
      <trkpt lat="43.44626" lon="6.60878">
        <ele>230.86502958834</ele>
        <time>2021-11-28T08:32:44Z</time>
      </trkpt>
      <trkpt lat="43.44627" lon="6.60878">
        <ele>230.86498767883</ele>
        <time>2021-11-28T08:32:45Z</time>
      </trkpt>
      <trkpt lat="43.44627" lon="6.60879">
        <ele>230.86495683342</ele>
        <time>2021-11-28T08:32:48Z</time>
      </trkpt>
      <trkpt lat="43.44628" lon="6.60879">
        <ele>230.86496890336</ele>
        <time>2021-11-28T08:32:50Z</time>
      </trkpt>
      <trkpt lat="43.44629" lon="6.60879">
        <ele>231.8648827374</ele>
        <time>2021-11-28T08:32:52Z</time>
      </trkpt>
      <trkpt lat="43.44629" lon="6.6088">
        <ele>232.8648378104</ele>
        <time>2021-11-28T08:32:53Z</time>
      </trkpt>
      <trkpt lat="43.4463" lon="6.60881">
        <ele>232.86482942849</ele>
        <time>2021-11-28T08:32:56Z</time>
      </trkpt>
      <trkpt lat="43.44631" lon="6.60879">
        <ele>232.86466480792</ele>
        <time>2021-11-28T08:32:58Z</time>
      </trkpt>
      <trkpt lat="43.44632" lon="6.60879">
        <ele>232.86459674686</ele>
        <time>2021-11-28T08:32:59Z</time>
      </trkpt>
      <trkpt lat="43.44632" lon="6.60879">
        <ele>232.86455584317</ele>
        <time>2021-11-28T08:33:00Z</time>
      </trkpt>
      <trkpt lat="43.44633" lon="6.6088">
        <ele>232.86453036219</ele>
        <time>2021-11-28T08:33:02Z</time>
      </trkpt>
      <trkpt lat="43.44634" lon="6.6088">
        <ele>232.86447805911</ele>
        <time>2021-11-28T08:33:04Z</time>
      </trkpt>
      <trkpt lat="43.44635" lon="6.6088">
        <ele>232.86444687843</ele>
        <time>2021-11-28T08:33:06Z</time>
      </trkpt>
      <trkpt lat="43.44635" lon="6.60882">
        <ele>232.86445794255</ele>
        <time>2021-11-28T08:33:08Z</time>
      </trkpt>
      <trkpt lat="43.44636" lon="6.60882">
        <ele>232.86445559561</ele>
        <time>2021-11-28T08:33:09Z</time>
      </trkpt>
      <trkpt lat="43.44636" lon="6.60883">
        <ele>231.86446062475</ele>
        <time>2021-11-28T08:33:10Z</time>
      </trkpt>
      <trkpt lat="43.44637" lon="6.60882">
        <ele>232.86435031891</ele>
        <time>2021-11-28T08:33:12Z</time>
      </trkpt>
      <trkpt lat="43.44638" lon="6.60883">
        <ele>232.86430170387</ele>
        <time>2021-11-28T08:33:14Z</time>
      </trkpt>
      <trkpt lat="43.44639" lon="6.60883">
        <ele>233.86417966336</ele>
        <time>2021-11-28T08:33:16Z</time>
      </trkpt>
      <trkpt lat="43.4464" lon="6.60882">
        <ele>233.86407807469</ele>
        <time>2021-11-28T08:33:18Z</time>
      </trkpt>
      <trkpt lat="43.44641" lon="6.60882">
        <ele>234.86403180659</ele>
        <time>2021-11-28T08:33:22Z</time>
      </trkpt>
      <trkpt lat="43.44641" lon="6.60882">
        <ele>234.86396877468</ele>
        <time>2021-11-28T08:33:31Z</time>
      </trkpt>
      <trkpt lat="43.44643" lon="6.60882">
        <ele>234.86384371668</ele>
        <time>2021-11-28T08:33:33Z</time>
      </trkpt>
      <trkpt lat="43.44643" lon="6.60883">
        <ele>233.86387255043</ele>
        <time>2021-11-28T08:33:37Z</time>
      </trkpt>
      <trkpt lat="43.44643" lon="6.60884">
        <ele>233.86392518878</ele>
        <time>2021-11-28T08:33:38Z</time>
      </trkpt>
      <trkpt lat="43.44643" lon="6.60885">
        <ele>233.86397045106</ele>
        <time>2021-11-28T08:33:39Z</time>
      </trkpt>
      <trkpt lat="43.44642" lon="6.60886">
        <ele>232.86403113604</ele>
        <time>2021-11-28T08:33:40Z</time>
      </trkpt>
      <trkpt lat="43.44642" lon="6.60887">
        <ele>231.86408612132</ele>
        <time>2021-11-28T08:33:42Z</time>
      </trkpt>
      <trkpt lat="43.44642" lon="6.60887">
        <ele>231.864162229</ele>
        <time>2021-11-28T08:33:46Z</time>
      </trkpt>
      <trkpt lat="43.44642" lon="6.60888">
        <ele>232.86416960508</ele>
        <time>2021-11-28T08:33:48Z</time>
      </trkpt>
      <trkpt lat="43.44643" lon="6.60888">
        <ele>233.86412266642</ele>
        <time>2021-11-28T08:33:50Z</time>
      </trkpt>
      <trkpt lat="43.44643" lon="6.60889">
        <ele>233.8640794158</ele>
        <time>2021-11-28T08:33:51Z</time>
      </trkpt>
      <trkpt lat="43.44644" lon="6.60888">
        <ele>235.86402443051</ele>
        <time>2021-11-28T08:33:53Z</time>
      </trkpt>
      <trkpt lat="43.44644" lon="6.60887">
        <ele>236.86394195259</ele>
        <time>2021-11-28T08:33:56Z</time>
      </trkpt>
      <trkpt lat="43.44645" lon="6.60887">
        <ele>236.86389233172</ele>
        <time>2021-11-28T08:33:58Z</time>
      </trkpt>
      <trkpt lat="43.44645" lon="6.60886">
        <ele>236.86383131146</ele>
        <time>2021-11-28T08:33:59Z</time>
      </trkpt>
      <trkpt lat="43.44646" lon="6.60885">
        <ele>237.86372502893</ele>
        <time>2021-11-28T08:34:01Z</time>
      </trkpt>
      <trkpt lat="43.44646" lon="6.60885">
        <ele>238.86369351298</ele>
        <time>2021-11-28T08:34:04Z</time>
      </trkpt>
      <trkpt lat="43.44647" lon="6.60885">
        <ele>238.86362779886</ele>
        <time>2021-11-28T08:34:05Z</time>
      </trkpt>
      <trkpt lat="43.44648" lon="6.60883">
        <ele>239.86350709945</ele>
        <time>2021-11-28T08:34:07Z</time>
      </trkpt>
      <trkpt lat="43.44649" lon="6.60883">
        <ele>239.86342126876</ele>
        <time>2021-11-28T08:34:08Z</time>
      </trkpt>
      <trkpt lat="43.44649" lon="6.60883">
        <ele>239.86342126876</ele>
        <time>2021-11-28T08:34:10Z</time>
      </trkpt>
      <trkpt lat="43.4465" lon="6.60883">
        <ele>240.86331163347</ele>
        <time>2021-11-28T08:34:12Z</time>
      </trkpt>
      <trkpt lat="43.44651" lon="6.60881">
        <ele>240.86321440339</ele>
        <time>2021-11-28T08:34:13Z</time>
      </trkpt>
      <trkpt lat="43.44651" lon="6.60881">
        <ele>242.86313226074</ele>
        <time>2021-11-28T08:34:18Z</time>
      </trkpt>
      <trkpt lat="43.44652" lon="6.60881">
        <ele>242.86307794601</ele>
        <time>2021-11-28T08:34:19Z</time>
      </trkpt>
      <trkpt lat="43.44652" lon="6.6088">
        <ele>243.86301793158</ele>
        <time>2021-11-28T08:34:21Z</time>
      </trkpt>
      <trkpt lat="43.44653" lon="6.60878">
        <ele>245.86292841285</ele>
        <time>2021-11-28T08:34:23Z</time>
      </trkpt>
      <trkpt lat="43.44653" lon="6.60878">
        <ele>245.86287108064</ele>
        <time>2021-11-28T08:34:24Z</time>
      </trkpt>
      <trkpt lat="43.44654" lon="6.60878">
        <ele>245.86277854443</ele>
        <time>2021-11-28T08:34:26Z</time>
      </trkpt>
      <trkpt lat="43.44654" lon="6.60877">
        <ele>245.86273663491</ele>
        <time>2021-11-28T08:34:28Z</time>
      </trkpt>
      <trkpt lat="43.44655" lon="6.60877">
        <ele>245.86266253889</ele>
        <time>2021-11-28T08:34:29Z</time>
      </trkpt>
      <trkpt lat="43.44656" lon="6.60876">
        <ele>245.86257134378</ele>
        <time>2021-11-28T08:34:30Z</time>
      </trkpt>
      <trkpt lat="43.44657" lon="6.60875">
        <ele>246.86243857443</ele>
        <time>2021-11-28T08:34:32Z</time>
      </trkpt>
      <trkpt lat="43.44657" lon="6.60875">
        <ele>246.86243857443</ele>
        <time>2021-11-28T08:34:33Z</time>
      </trkpt>
      <trkpt lat="43.44659" lon="6.60873">
        <ele>246.86220488697</ele>
        <time>2021-11-28T08:34:34Z</time>
      </trkpt>
      <trkpt lat="43.4466" lon="6.60873">
        <ele>245.86211134493</ele>
        <time>2021-11-28T08:34:36Z</time>
      </trkpt>
      <trkpt lat="43.4466" lon="6.60872">
        <ele>247.86207479984</ele>
        <time>2021-11-28T08:34:38Z</time>
      </trkpt>
      <trkpt lat="43.44661" lon="6.60871">
        <ele>247.86199433357</ele>
        <time>2021-11-28T08:34:43Z</time>
      </trkpt>
      <trkpt lat="43.44661" lon="6.60871">
        <ele>246.86197287589</ele>
        <time>2021-11-28T08:34:44Z</time>
      </trkpt>
      <trkpt lat="43.44662" lon="6.60871">
        <ele>246.86188771576</ele>
        <time>2021-11-28T08:34:46Z</time>
      </trkpt>
      <trkpt lat="43.44662" lon="6.6087">
        <ele>246.86182568967</ele>
        <time>2021-11-28T08:34:48Z</time>
      </trkpt>
      <trkpt lat="43.44663" lon="6.60869">
        <ele>246.86171102524</ele>
        <time>2021-11-28T08:34:49Z</time>
      </trkpt>
      <trkpt lat="43.44663" lon="6.60867">
        <ele>246.86161211878</ele>
        <time>2021-11-28T08:34:50Z</time>
      </trkpt>
      <trkpt lat="43.44664" lon="6.60867">
        <ele>247.86155042797</ele>
        <time>2021-11-28T08:34:52Z</time>
      </trkpt>
      <trkpt lat="43.44665" lon="6.60866">
        <ele>247.86147934943</ele>
        <time>2021-11-28T08:34:53Z</time>
      </trkpt>
      <trkpt lat="43.44665" lon="6.60866">
        <ele>248.86141464114</ele>
        <time>2021-11-28T08:34:54Z</time>
      </trkpt>
      <trkpt lat="43.44666" lon="6.60866">
        <ele>248.86135127395</ele>
        <time>2021-11-28T08:34:55Z</time>
      </trkpt>
      <trkpt lat="43.44667" lon="6.60866">
        <ele>247.86130936444</ele>
        <time>2021-11-28T08:34:57Z</time>
      </trkpt>
      <trkpt lat="43.44667" lon="6.60865">
        <ele>247.86126343161</ele>
        <time>2021-11-28T08:35:00Z</time>
      </trkpt>
      <trkpt lat="43.44668" lon="6.60865">
        <ele>247.86114809662</ele>
        <time>2021-11-28T08:35:01Z</time>
      </trkpt>
      <trkpt lat="43.44669" lon="6.60864">
        <ele>248.86106528342</ele>
        <time>2021-11-28T08:35:06Z</time>
      </trkpt>
      <trkpt lat="43.4467" lon="6.60863">
        <ele>249.86093385518</ele>
        <time>2021-11-28T08:35:08Z</time>
      </trkpt>
      <trkpt lat="43.4467" lon="6.60863">
        <ele>249.86091306806</ele>
        <time>2021-11-28T08:35:11Z</time>
      </trkpt>
      <trkpt lat="43.44671" lon="6.60862">
        <ele>248.8608141616</ele>
        <time>2021-11-28T08:35:13Z</time>
      </trkpt>
      <trkpt lat="43.44671" lon="6.60861">
        <ele>248.86074509472</ele>
        <time>2021-11-28T08:35:14Z</time>
      </trkpt>
      <trkpt lat="43.44672" lon="6.60861">
        <ele>249.86068876833</ele>
        <time>2021-11-28T08:35:17Z</time>
      </trkpt>
      <trkpt lat="43.44673" lon="6.60861">
        <ele>251.86061266065</ele>
        <time>2021-11-28T08:35:21Z</time>
      </trkpt>
      <trkpt lat="43.44673" lon="6.60859">
        <ele>251.8605767861</ele>
        <time>2021-11-28T08:35:23Z</time>
      </trkpt>
      <trkpt lat="43.44673" lon="6.60857">
        <ele>251.86045809835</ele>
        <time>2021-11-28T08:35:24Z</time>
      </trkpt>
      <trkpt lat="43.44673" lon="6.60855">
        <ele>251.86035885662</ele>
        <time>2021-11-28T08:35:25Z</time>
      </trkpt>
      <trkpt lat="43.44673" lon="6.60854">
        <ele>251.86030118912</ele>
        <time>2021-11-28T08:35:28Z</time>
      </trkpt>
      <trkpt lat="43.44674" lon="6.60854">
        <ele>252.86022374034</ele>
        <time>2021-11-28T08:35:29Z</time>
      </trkpt>
      <trkpt lat="43.44675" lon="6.60853">
        <ele>251.86010505259</ele>
        <time>2021-11-28T08:35:31Z</time>
      </trkpt>
      <trkpt lat="43.44676" lon="6.60852">
        <ele>252.86001352221</ele>
        <time>2021-11-28T08:35:33Z</time>
      </trkpt>
      <trkpt lat="43.44677" lon="6.60852">
        <ele>253.85994210839</ele>
        <time>2021-11-28T08:35:35Z</time>
      </trkpt>
      <trkpt lat="43.44677" lon="6.60852">
        <ele>253.85986935347</ele>
        <time>2021-11-28T08:35:37Z</time>
      </trkpt>
      <trkpt lat="43.44678" lon="6.60851">
        <ele>253.85978989303</ele>
        <time>2021-11-28T08:35:39Z</time>
      </trkpt>
      <trkpt lat="43.44679" lon="6.6085">
        <ele>253.85969098657</ele>
        <time>2021-11-28T08:35:41Z</time>
      </trkpt>
      <trkpt lat="43.4468" lon="6.60851">
        <ele>254.8596175611</ele>
        <time>2021-11-28T08:35:43Z</time>
      </trkpt>
      <trkpt lat="43.44681" lon="6.60852">
        <ele>255.85961990803</ele>
        <time>2021-11-28T08:35:45Z</time>
      </trkpt>
      <trkpt lat="43.44682" lon="6.60852">
        <ele>255.85957296938</ele>
        <time>2021-11-28T08:35:48Z</time>
      </trkpt>
      <trkpt lat="43.44683" lon="6.60852">
        <ele>256.85941203684</ele>
        <time>2021-11-28T08:35:49Z</time>
      </trkpt>
      <trkpt lat="43.44684" lon="6.60851">
        <ele>256.85933995247</ele>
        <time>2021-11-28T08:35:51Z</time>
      </trkpt>
      <trkpt lat="43.44685" lon="6.6085">
        <ele>257.85921120644</ele>
        <time>2021-11-28T08:35:53Z</time>
      </trkpt>
      <trkpt lat="43.44685" lon="6.60849">
        <ele>258.85917566717</ele>
        <time>2021-11-28T08:35:55Z</time>
      </trkpt>
      <trkpt lat="43.44684" lon="6.60848">
        <ele>258.85918237269</ele>
        <time>2021-11-28T08:35:58Z</time>
      </trkpt>
      <trkpt lat="43.44685" lon="6.60847">
        <ele>258.85913845152</ele>
        <time>2021-11-28T08:35:59Z</time>
      </trkpt>
      <trkpt lat="43.44684" lon="6.60847">
        <ele>258.85911665857</ele>
        <time>2021-11-28T08:36:00Z</time>
      </trkpt>
      <trkpt lat="43.44684" lon="6.60846">
        <ele>258.85913107544</ele>
        <time>2021-11-28T08:36:01Z</time>
      </trkpt>
      <trkpt lat="43.44684" lon="6.60845">
        <ele>258.85909620672</ele>
        <time>2021-11-28T08:36:02Z</time>
      </trkpt>
      <trkpt lat="43.44685" lon="6.60845">
        <ele>257.85904558003</ele>
        <time>2021-11-28T08:36:03Z</time>
      </trkpt>
      <trkpt lat="43.44685" lon="6.60845">
        <ele>258.85899696499</ele>
        <time>2021-11-28T08:36:04Z</time>
      </trkpt>
      <trkpt lat="43.44685" lon="6.60844">
        <ele>258.85893795639</ele>
        <time>2021-11-28T08:36:05Z</time>
      </trkpt>
      <trkpt lat="43.44685" lon="6.60843">
        <ele>258.85890174657</ele>
        <time>2021-11-28T08:36:06Z</time>
      </trkpt>
      <trkpt lat="43.44685" lon="6.6084">
        <ele>257.85879412293</ele>
        <time>2021-11-28T08:36:08Z</time>
      </trkpt>
      <trkpt lat="43.44686" lon="6.6084">
        <ele>257.85873109102</ele>
        <time>2021-11-28T08:36:09Z</time>
      </trkpt>
      <trkpt lat="43.44686" lon="6.60839">
        <ele>257.85867208242</ele>
        <time>2021-11-28T08:36:15Z</time>
      </trkpt>
      <trkpt lat="43.44685" lon="6.60838">
        <ele>256.85873679072</ele>
        <time>2021-11-28T08:36:17Z</time>
      </trkpt>
      <trkpt lat="43.44684" lon="6.60837">
        <ele>256.85875489563</ele>
        <time>2021-11-28T08:36:18Z</time>
      </trkpt>
      <trkpt lat="43.44684" lon="6.60836">
        <ele>256.85874249041</ele>
        <time>2021-11-28T08:36:19Z</time>
      </trkpt>
      <trkpt lat="43.44683" lon="6.60835">
        <ele>256.85874416679</ele>
        <time>2021-11-28T08:36:21Z</time>
      </trkpt>
      <trkpt lat="43.44682" lon="6.60833">
        <ele>257.85873578489</ele>
        <time>2021-11-28T08:36:23Z</time>
      </trkpt>
      <trkpt lat="43.44682" lon="6.60832">
        <ele>257.85871063918</ele>
        <time>2021-11-28T08:36:24Z</time>
      </trkpt>
      <trkpt lat="43.44682" lon="6.60831">
        <ele>257.85866906494</ele>
        <time>2021-11-28T08:36:25Z</time>
      </trkpt>
      <trkpt lat="43.44682" lon="6.6083">
        <ele>257.85864425451</ele>
        <time>2021-11-28T08:36:26Z</time>
      </trkpt>
      <trkpt lat="43.44683" lon="6.60829">
        <ele>257.85850444436</ele>
        <time>2021-11-28T08:36:28Z</time>
      </trkpt>
      <trkpt lat="43.44684" lon="6.6083">
        <ele>257.85849472135</ele>
        <time>2021-11-28T08:36:35Z</time>
      </trkpt>
      <trkpt lat="43.44684" lon="6.60829">
        <ele>258.85845012963</ele>
        <time>2021-11-28T08:36:37Z</time>
      </trkpt>
      <trkpt lat="43.44684" lon="6.60828">
        <ele>258.85844945908</ele>
        <time>2021-11-28T08:36:41Z</time>
      </trkpt>
      <trkpt lat="43.44684" lon="6.60827">
        <ele>257.85837905109</ele>
        <time>2021-11-28T08:36:45Z</time>
      </trkpt>
      <trkpt lat="43.44683" lon="6.60826">
        <ele>257.85835390538</ele>
        <time>2021-11-28T08:36:47Z</time>
      </trkpt>
      <trkpt lat="43.44683" lon="6.60825">
        <ele>257.85833412409</ele>
        <time>2021-11-28T08:36:49Z</time>
      </trkpt>
      <trkpt lat="43.44683" lon="6.60824">
        <ele>258.85832373053</ele>
        <time>2021-11-28T08:37:02Z</time>
      </trkpt>
      <trkpt lat="43.44682" lon="6.60822">
        <ele>258.85832708329</ele>
        <time>2021-11-28T08:37:03Z</time>
      </trkpt>
      <trkpt lat="43.44682" lon="6.60821">
        <ele>260.85831803083</ele>
        <time>2021-11-28T08:37:07Z</time>
      </trkpt>
      <trkpt lat="43.44682" lon="6.6082">
        <ele>261.85828047991</ele>
        <time>2021-11-28T08:37:08Z</time>
      </trkpt>
      <trkpt lat="43.44682" lon="6.6082">
        <ele>261.85821610689</ele>
        <time>2021-11-28T08:37:12Z</time>
      </trkpt>
      <trkpt lat="43.44683" lon="6.6082">
        <ele>262.85811921209</ele>
        <time>2021-11-28T08:37:13Z</time>
      </trkpt>
      <trkpt lat="43.44683" lon="6.60819">
        <ele>263.8580769673</ele>
        <time>2021-11-28T08:37:18Z</time>
      </trkpt>
      <trkpt lat="43.44684" lon="6.60818">
        <ele>264.85798040777</ele>
        <time>2021-11-28T08:37:19Z</time>
      </trkpt>
      <trkpt lat="43.44684" lon="6.60817">
        <ele>265.85796632618</ele>
        <time>2021-11-28T08:37:21Z</time>
      </trkpt>
      <trkpt lat="43.44684" lon="6.60816">
        <ele>265.85795224458</ele>
        <time>2021-11-28T08:37:25Z</time>
      </trkpt>
      <trkpt lat="43.44683" lon="6.60814">
        <ele>265.85789759457</ele>
        <time>2021-11-28T08:37:27Z</time>
      </trkpt>
      <trkpt lat="43.44683" lon="6.60814">
        <ele>266.85792475194</ele>
        <time>2021-11-28T08:37:28Z</time>
      </trkpt>
      <trkpt lat="43.44682" lon="6.60813">
        <ele>266.85795358568</ele>
        <time>2021-11-28T08:37:29Z</time>
      </trkpt>
      <trkpt lat="43.44682" lon="6.60811">
        <ele>267.85783389211</ele>
        <time>2021-11-28T08:37:31Z</time>
      </trkpt>
      <trkpt lat="43.44684" lon="6.60809">
        <ele>267.85769475251</ele>
        <time>2021-11-28T08:37:33Z</time>
      </trkpt>
      <trkpt lat="43.44684" lon="6.60809">
        <ele>268.8576092571</ele>
        <time>2021-11-28T08:37:35Z</time>
      </trkpt>
      <trkpt lat="43.44685" lon="6.60808">
        <ele>268.85749492794</ele>
        <time>2021-11-28T08:37:36Z</time>
      </trkpt>
      <trkpt lat="43.44686" lon="6.60806">
        <ele>267.85733500123</ele>
        <time>2021-11-28T08:37:38Z</time>
      </trkpt>
      <trkpt lat="43.44687" lon="6.60805">
        <ele>267.85721866041</ele>
        <time>2021-11-28T08:37:39Z</time>
      </trkpt>
      <trkpt lat="43.44688" lon="6.60804">
        <ele>267.85710969567</ele>
        <time>2021-11-28T08:37:40Z</time>
      </trkpt>
      <trkpt lat="43.44689" lon="6.60804">
        <ele>267.85701783001</ele>
        <time>2021-11-28T08:37:41Z</time>
      </trkpt>
      <trkpt lat="43.4469" lon="6.60803">
        <ele>267.85688439012</ele>
        <time>2021-11-28T08:37:43Z</time>
      </trkpt>
      <trkpt lat="43.44691" lon="6.60802">
        <ele>267.85677676648</ele>
        <time>2021-11-28T08:37:44Z</time>
      </trkpt>
      <trkpt lat="43.44692" lon="6.60801">
        <ele>266.85669160634</ele>
        <time>2021-11-28T08:37:45Z</time>
      </trkpt>
      <trkpt lat="43.44693" lon="6.608">
        <ele>266.85652564466</ele>
        <time>2021-11-28T08:37:47Z</time>
      </trkpt>
      <trkpt lat="43.44694" lon="6.60799">
        <ele>266.85642003268</ele>
        <time>2021-11-28T08:37:48Z</time>
      </trkpt>
      <trkpt lat="43.44695" lon="6.60798">
        <ele>266.85631106794</ele>
        <time>2021-11-28T08:37:49Z</time>
      </trkpt>
      <trkpt lat="43.44696" lon="6.60795">
        <ele>266.85613068938</ele>
        <time>2021-11-28T08:37:51Z</time>
      </trkpt>
      <trkpt lat="43.44698" lon="6.60794">
        <ele>266.85592315346</ele>
        <time>2021-11-28T08:37:53Z</time>
      </trkpt>
      <trkpt lat="43.44699" lon="6.60794">
        <ele>266.85586179793</ele>
        <time>2021-11-28T08:37:54Z</time>
      </trkpt>
      <trkpt lat="43.447" lon="6.60794">
        <ele>266.85577965528</ele>
        <time>2021-11-28T08:37:55Z</time>
      </trkpt>
      <trkpt lat="43.447" lon="6.60794">
        <ele>266.85571427643</ele>
        <time>2021-11-28T08:37:58Z</time>
      </trkpt>
      <trkpt lat="43.44701" lon="6.60794">
        <ele>267.85569315404</ele>
        <time>2021-11-28T08:38:02Z</time>
      </trkpt>
      <trkpt lat="43.44702" lon="6.60794">
        <ele>267.85558385402</ele>
        <time>2021-11-28T08:38:03Z</time>
      </trkpt>
      <trkpt lat="43.44703" lon="6.60793">
        <ele>267.85551746935</ele>
        <time>2021-11-28T08:38:21Z</time>
      </trkpt>
      <trkpt lat="43.44703" lon="6.60792">
        <ele>267.85547824204</ele>
        <time>2021-11-28T08:38:27Z</time>
      </trkpt>
      <trkpt lat="43.44702" lon="6.60792">
        <ele>266.85553758591</ele>
        <time>2021-11-28T08:38:33Z</time>
      </trkpt>
      <trkpt lat="43.44702" lon="6.60793">
        <ele>267.85557245463</ele>
        <time>2021-11-28T08:38:35Z</time>
      </trkpt>
      <trkpt lat="43.44702" lon="6.60794">
        <ele>267.85558854789</ele>
        <time>2021-11-28T08:38:38Z</time>
      </trkpt>
      <trkpt lat="43.44702" lon="6.60793">
        <ele>267.85556105524</ele>
        <time>2021-11-28T08:38:39Z</time>
      </trkpt>
      <trkpt lat="43.44702" lon="6.6079">
        <ele>267.85545510799</ele>
        <time>2021-11-28T08:38:40Z</time>
      </trkpt>
      <trkpt lat="43.44704" lon="6.60786">
        <ele>267.85515470058</ele>
        <time>2021-11-28T08:38:42Z</time>
      </trkpt>
      <trkpt lat="43.44705" lon="6.60785">
        <ele>266.85503768921</ele>
        <time>2021-11-28T08:38:43Z</time>
      </trkpt>
      <trkpt lat="43.44705" lon="6.60784">
        <ele>266.85495956987</ele>
        <time>2021-11-28T08:38:44Z</time>
      </trkpt>
      <trkpt lat="43.44707" lon="6.60782">
        <ele>266.85474834591</ele>
        <time>2021-11-28T08:38:46Z</time>
      </trkpt>
      <trkpt lat="43.44707" lon="6.60782">
        <ele>265.85472722352</ele>
        <time>2021-11-28T08:38:51Z</time>
      </trkpt>
      <trkpt lat="43.44709" lon="6.60782">
        <ele>265.85452203453</ele>
        <time>2021-11-28T08:38:52Z</time>
      </trkpt>
      <trkpt lat="43.4471" lon="6.60782">
        <ele>265.85447375476</ele>
        <time>2021-11-28T08:38:53Z</time>
      </trkpt>
      <trkpt lat="43.44711" lon="6.60782">
        <ele>265.85444860905</ele>
        <time>2021-11-28T08:38:54Z</time>
      </trkpt>
      <trkpt lat="43.44711" lon="6.60781">
        <ele>264.85438624769</ele>
        <time>2021-11-28T08:38:56Z</time>
      </trkpt>
      <trkpt lat="43.4471" lon="6.60781">
        <ele>265.85441306978</ele>
        <time>2021-11-28T08:39:01Z</time>
      </trkpt>
      <trkpt lat="43.4471" lon="6.60782">
        <ele>264.85448247194</ele>
        <time>2021-11-28T08:39:05Z</time>
      </trkpt>
      <trkpt lat="43.4471" lon="6.6078">
        <ele>264.85437652469</ele>
        <time>2021-11-28T08:39:07Z</time>
      </trkpt>
      <trkpt lat="43.4471" lon="6.60781">
        <ele>265.85440133512</ele>
        <time>2021-11-28T08:39:25Z</time>
      </trkpt>
      <trkpt lat="43.4471" lon="6.60781">
        <ele>265.85448113084</ele>
        <time>2021-11-28T08:39:26Z</time>
      </trkpt>
      <trkpt lat="43.44709" lon="6.6078">
        <ele>264.85444961488</ele>
        <time>2021-11-28T08:39:32Z</time>
      </trkpt>
      <trkpt lat="43.4471" lon="6.6078">
        <ele>265.85441608727</ele>
        <time>2021-11-28T08:39:39Z</time>
      </trkpt>
      <trkpt lat="43.44709" lon="6.60781">
        <ele>266.85454013944</ele>
        <time>2021-11-28T08:39:40Z</time>
      </trkpt>
      <trkpt lat="43.44708" lon="6.60781">
        <ele>266.85461322963</ele>
        <time>2021-11-28T08:39:44Z</time>
      </trkpt>
      <trkpt lat="43.44708" lon="6.6078">
        <ele>265.85454919189</ele>
        <time>2021-11-28T08:39:47Z</time>
      </trkpt>
      <trkpt lat="43.44709" lon="6.60779">
        <ele>265.85448783636</ele>
        <time>2021-11-28T08:39:48Z</time>
      </trkpt>
      <trkpt lat="43.44709" lon="6.60778">
        <ele>265.85440837592</ele>
        <time>2021-11-28T08:39:49Z</time>
      </trkpt>
      <trkpt lat="43.44709" lon="6.60777">
        <ele>266.85436847806</ele>
        <time>2021-11-28T08:39:51Z</time>
      </trkpt>
      <trkpt lat="43.44709" lon="6.60776">
        <ele>266.85434534401</ele>
        <time>2021-11-28T08:39:52Z</time>
      </trkpt>
      <trkpt lat="43.44708" lon="6.60776">
        <ele>267.85434802622</ele>
        <time>2021-11-28T08:39:54Z</time>
      </trkpt>
      <trkpt lat="43.44708" lon="6.60774">
        <ele>267.85431483388</ele>
        <time>2021-11-28T08:39:55Z</time>
      </trkpt>
      <trkpt lat="43.44708" lon="6.60773">
        <ele>267.85423637927</ele>
        <time>2021-11-28T08:39:56Z</time>
      </trkpt>
      <trkpt lat="43.44709" lon="6.60772">
        <ele>267.85415088385</ele>
        <time>2021-11-28T08:39:57Z</time>
      </trkpt>
      <trkpt lat="43.4471" lon="6.60771">
        <ele>266.85405063629</ele>
        <time>2021-11-28T08:39:58Z</time>
      </trkpt>
      <trkpt lat="43.44711" lon="6.60771">
        <ele>266.85397151113</ele>
        <time>2021-11-28T08:39:59Z</time>
      </trkpt>
      <trkpt lat="43.44712" lon="6.60771">
        <ele>266.85390948504</ele>
        <time>2021-11-28T08:40:00Z</time>
      </trkpt>
      <trkpt lat="43.44712" lon="6.6077">
        <ele>266.85384008288</ele>
        <time>2021-11-28T08:40:01Z</time>
      </trkpt>
      <trkpt lat="43.44713" lon="6.60769">
        <ele>266.85373648256</ele>
        <time>2021-11-28T08:40:02Z</time>
      </trkpt>
      <trkpt lat="43.44713" lon="6.60768">
        <ele>266.85368451476</ele>
        <time>2021-11-28T08:40:03Z</time>
      </trkpt>
      <trkpt lat="43.44713" lon="6.60768">
        <ele>266.85368384421</ele>
        <time>2021-11-28T08:40:04Z</time>
      </trkpt>
      <trkpt lat="43.44713" lon="6.60766">
        <ele>266.85364763439</ele>
        <time>2021-11-28T08:40:05Z</time>
      </trkpt>
      <trkpt lat="43.44712" lon="6.60765">
        <ele>266.85363355279</ele>
        <time>2021-11-28T08:40:06Z</time>
      </trkpt>
      <trkpt lat="43.44712" lon="6.60763">
        <ele>266.85352123529</ele>
        <time>2021-11-28T08:40:08Z</time>
      </trkpt>
      <trkpt lat="43.44713" lon="6.60762">
        <ele>266.85345585644</ele>
        <time>2021-11-28T08:40:09Z</time>
      </trkpt>
      <trkpt lat="43.44713" lon="6.60761">
        <ele>267.85343004018</ele>
        <time>2021-11-28T08:40:10Z</time>
      </trkpt>
      <trkpt lat="43.44713" lon="6.6076">
        <ele>267.85338142514</ele>
        <time>2021-11-28T08:40:11Z</time>
      </trkpt>
      <trkpt lat="43.44713" lon="6.60759">
        <ele>268.85333884507</ele>
        <time>2021-11-28T08:40:12Z</time>
      </trkpt>
      <trkpt lat="43.44713" lon="6.60758">
        <ele>268.85329257697</ele>
        <time>2021-11-28T08:40:14Z</time>
      </trkpt>
      <trkpt lat="43.44712" lon="6.60755">
        <ele>268.85323189199</ele>
        <time>2021-11-28T08:40:16Z</time>
      </trkpt>
      <trkpt lat="43.44712" lon="6.60755">
        <ele>269.85322954506</ele>
        <time>2021-11-28T08:40:18Z</time>
      </trkpt>
      <trkpt lat="43.44712" lon="6.60754">
        <ele>269.85316416621</ele>
        <time>2021-11-28T08:40:19Z</time>
      </trkpt>
      <trkpt lat="43.44713" lon="6.60753">
        <ele>269.85305788368</ele>
        <time>2021-11-28T08:40:20Z</time>
      </trkpt>
      <trkpt lat="43.44714" lon="6.60753">
        <ele>269.85300625116</ele>
        <time>2021-11-28T08:40:21Z</time>
      </trkpt>
      <trkpt lat="43.44715" lon="6.60753">
        <ele>269.85292779654</ele>
        <time>2021-11-28T08:40:22Z</time>
      </trkpt>
      <trkpt lat="43.44716" lon="6.60752">
        <ele>268.85283224285</ele>
        <time>2021-11-28T08:40:23Z</time>
      </trkpt>
      <trkpt lat="43.44715" lon="6.60751">
        <ele>268.85284900665</ele>
        <time>2021-11-28T08:40:25Z</time>
      </trkpt>
      <trkpt lat="43.44715" lon="6.60751">
        <ele>267.85286845267</ele>
        <time>2021-11-28T08:40:26Z</time>
      </trkpt>
      <trkpt lat="43.44714" lon="6.6075">
        <ele>268.85282419622</ele>
        <time>2021-11-28T08:40:27Z</time>
      </trkpt>
      <trkpt lat="43.44715" lon="6.60749">
        <ele>267.8527809456</ele>
        <time>2021-11-28T08:40:28Z</time>
      </trkpt>
      <trkpt lat="43.44715" lon="6.60748">
        <ele>267.85272260755</ele>
        <time>2021-11-28T08:40:29Z</time>
      </trkpt>
      <trkpt lat="43.44715" lon="6.60747">
        <ele>268.85266326368</ele>
        <time>2021-11-28T08:40:30Z</time>
      </trkpt>
      <trkpt lat="43.44716" lon="6.60746">
        <ele>269.85259352624</ele>
        <time>2021-11-28T08:40:31Z</time>
      </trkpt>
      <trkpt lat="43.44717" lon="6.60745">
        <ele>270.85242924094</ele>
        <time>2021-11-28T08:40:33Z</time>
      </trkpt>
      <trkpt lat="43.44717" lon="6.60743">
        <ele>270.85235179216</ele>
        <time>2021-11-28T08:40:34Z</time>
      </trkpt>
      <trkpt lat="43.44717" lon="6.60742">
        <ele>270.85230753571</ele>
        <time>2021-11-28T08:40:35Z</time>
      </trkpt>
      <trkpt lat="43.44718" lon="6.60741">
        <ele>271.85222606361</ele>
        <time>2021-11-28T08:40:36Z</time>
      </trkpt>
      <trkpt lat="43.44719" lon="6.60738">
        <ele>270.85199639946</ele>
        <time>2021-11-28T08:40:38Z</time>
      </trkpt>
      <trkpt lat="43.4472" lon="6.60738">
        <ele>271.85193604976</ele>
        <time>2021-11-28T08:40:39Z</time>
      </trkpt>
      <trkpt lat="43.4472" lon="6.60738">
        <ele>271.85188005865</ele>
        <time>2021-11-28T08:40:40Z</time>
      </trkpt>
      <trkpt lat="43.4472" lon="6.60735">
        <ele>271.85180529207</ele>
        <time>2021-11-28T08:40:42Z</time>
      </trkpt>
      <trkpt lat="43.4472" lon="6.60734">
        <ele>271.85175466537</ele>
        <time>2021-11-28T08:40:43Z</time>
      </trkpt>
      <trkpt lat="43.44721" lon="6.60732">
        <ele>271.85164804757</ele>
        <time>2021-11-28T08:40:44Z</time>
      </trkpt>
      <trkpt lat="43.44721" lon="6.60731">
        <ele>271.85155551136</ele>
        <time>2021-11-28T08:40:45Z</time>
      </trkpt>
      <trkpt lat="43.44722" lon="6.60727">
        <ele>271.85137245059</ele>
        <time>2021-11-28T08:40:47Z</time>
      </trkpt>
      <trkpt lat="43.44722" lon="6.60726">
        <ele>271.8513020426</ele>
        <time>2021-11-28T08:40:48Z</time>
      </trkpt>
      <trkpt lat="43.44722" lon="6.60726">
        <ele>272.85128159076</ele>
        <time>2021-11-28T08:40:49Z</time>
      </trkpt>
      <trkpt lat="43.44721" lon="6.60725">
        <ele>272.85132350028</ele>
        <time>2021-11-28T08:40:50Z</time>
      </trkpt>
      <trkpt lat="43.44721" lon="6.60723">
        <ele>272.85123800486</ele>
        <time>2021-11-28T08:40:52Z</time>
      </trkpt>
      <trkpt lat="43.4472" lon="6.6072">
        <ele>272.85117363185</ele>
        <time>2021-11-28T08:40:54Z</time>
      </trkpt>
      <trkpt lat="43.44719" lon="6.60718">
        <ele>273.8511967659</ele>
        <time>2021-11-28T08:40:56Z</time>
      </trkpt>
      <trkpt lat="43.44719" lon="6.60717">
        <ele>273.85113339871</ele>
        <time>2021-11-28T08:40:57Z</time>
      </trkpt>
      <trkpt lat="43.44719" lon="6.60715">
        <ele>273.85106366128</ele>
        <time>2021-11-28T08:40:59Z</time>
      </trkpt>
      <trkpt lat="43.44719" lon="6.60714">
        <ele>274.85105360299</ele>
        <time>2021-11-28T08:41:00Z</time>
      </trkpt>
      <trkpt lat="43.44719" lon="6.60713">
        <ele>274.85102577507</ele>
        <time>2021-11-28T08:41:01Z</time>
      </trkpt>
      <trkpt lat="43.44718" lon="6.60711">
        <ele>274.85097045451</ele>
        <time>2021-11-28T08:41:03Z</time>
      </trkpt>
      <trkpt lat="43.44718" lon="6.6071">
        <ele>275.85095771402</ele>
        <time>2021-11-28T08:41:04Z</time>
      </trkpt>
      <trkpt lat="43.44718" lon="6.60708">
        <ele>275.85093390942</ele>
        <time>2021-11-28T08:41:06Z</time>
      </trkpt>
      <trkpt lat="43.44717" lon="6.60706">
        <ele>275.8508611545</ele>
        <time>2021-11-28T08:41:07Z</time>
      </trkpt>
      <trkpt lat="43.44717" lon="6.60703">
        <ele>274.85076224804</ele>
        <time>2021-11-28T08:41:09Z</time>
      </trkpt>
      <trkpt lat="43.44717" lon="6.60701">
        <ele>275.85067407042</ele>
        <time>2021-11-28T08:41:11Z</time>
      </trkpt>
      <trkpt lat="43.44717" lon="6.60701">
        <ele>276.85062880814</ele>
        <time>2021-11-28T08:41:13Z</time>
      </trkpt>
      <trkpt lat="43.44717" lon="6.607">
        <ele>276.85061573237</ele>
        <time>2021-11-28T08:41:17Z</time>
      </trkpt>
      <trkpt lat="43.44717" lon="6.60699">
        <ele>276.85056108236</ele>
        <time>2021-11-28T08:41:18Z</time>
      </trkpt>
      <trkpt lat="43.44717" lon="6.60699">
        <ele>277.8505718112</ele>
        <time>2021-11-28T08:41:26Z</time>
      </trkpt>
      <trkpt lat="43.44716" lon="6.60699">
        <ele>278.85064557195</ele>
        <time>2021-11-28T08:41:27Z</time>
      </trkpt>
      <trkpt lat="43.44716" lon="6.60699">
        <ele>278.85064389557</ele>
        <time>2021-11-28T08:41:34Z</time>
      </trkpt>
      <trkpt lat="43.44716" lon="6.60698">
        <ele>278.85065931827</ele>
        <time>2021-11-28T08:41:35Z</time>
      </trkpt>
      <trkpt lat="43.44715" lon="6.60696">
        <ele>278.85062210262</ele>
        <time>2021-11-28T08:41:36Z</time>
      </trkpt>
      <trkpt lat="43.44716" lon="6.60695">
        <ele>278.8505409658</ele>
        <time>2021-11-28T08:41:37Z</time>
      </trkpt>
      <trkpt lat="43.44716" lon="6.60694">
        <ele>279.85052386671</ele>
        <time>2021-11-28T08:41:40Z</time>
      </trkpt>
      <trkpt lat="43.44715" lon="6.60694">
        <ele>279.85056979954</ele>
        <time>2021-11-28T08:41:42Z</time>
      </trkpt>
      <trkpt lat="43.44715" lon="6.60694">
        <ele>279.85056979954</ele>
        <time>2021-11-28T08:41:44Z</time>
      </trkpt>
      <trkpt lat="43.44714" lon="6.60693">
        <ele>279.85064121336</ele>
        <time>2021-11-28T08:41:45Z</time>
      </trkpt>
      <trkpt lat="43.44712" lon="6.60692">
        <ele>278.85071497411</ele>
        <time>2021-11-28T08:41:47Z</time>
      </trkpt>
      <trkpt lat="43.44712" lon="6.60692">
        <ele>278.85073576123</ele>
        <time>2021-11-28T08:41:48Z</time>
      </trkpt>
      <trkpt lat="43.44712" lon="6.60691">
        <ele>278.85068714619</ele>
        <time>2021-11-28T08:41:49Z</time>
      </trkpt>
      <trkpt lat="43.44712" lon="6.6069">
        <ele>278.85063014925</ele>
        <time>2021-11-28T08:41:50Z</time>
      </trkpt>
      <trkpt lat="43.44713" lon="6.60689">
        <ele>278.85054431856</ele>
        <time>2021-11-28T08:41:51Z</time>
      </trkpt>
      <trkpt lat="43.44714" lon="6.60688">
        <ele>278.85037567466</ele>
        <time>2021-11-28T08:41:53Z</time>
      </trkpt>
      <trkpt lat="43.44715" lon="6.60688">
        <ele>278.85030258447</ele>
        <time>2021-11-28T08:41:54Z</time>
      </trkpt>
      <trkpt lat="43.44716" lon="6.60687">
        <ele>279.85024860501</ele>
        <time>2021-11-28T08:41:55Z</time>
      </trkpt>
      <trkpt lat="43.44716" lon="6.60686">
        <ele>279.85011013597</ele>
        <time>2021-11-28T08:41:57Z</time>
      </trkpt>
      <trkpt lat="43.44717" lon="6.60685">
        <ele>279.85006252676</ele>
        <time>2021-11-28T08:41:58Z</time>
      </trkpt>
      <trkpt lat="43.44717" lon="6.60684">
        <ele>279.84999077767</ele>
        <time>2021-11-28T08:41:59Z</time>
      </trkpt>
      <trkpt lat="43.44718" lon="6.60684">
        <ele>279.84993009269</ele>
        <time>2021-11-28T08:42:01Z</time>
      </trkpt>
      <trkpt lat="43.44718" lon="6.60684">
        <ele>280.84989187121</ele>
        <time>2021-11-28T08:42:05Z</time>
      </trkpt>
      <trkpt lat="43.4472" lon="6.60683">
        <ele>280.84975407273</ele>
        <time>2021-11-28T08:42:07Z</time>
      </trkpt>
      <trkpt lat="43.4472" lon="6.60682">
        <ele>282.84966120124</ele>
        <time>2021-11-28T08:42:09Z</time>
      </trkpt>
      <trkpt lat="43.44721" lon="6.60682">
        <ele>282.8496125862</ele>
        <time>2021-11-28T08:42:10Z</time>
      </trkpt>
      <trkpt lat="43.44721" lon="6.60681">
        <ele>283.8495381549</ele>
        <time>2021-11-28T08:42:11Z</time>
      </trkpt>
      <trkpt lat="43.44722" lon="6.6068">
        <ele>283.84944628924</ele>
        <time>2021-11-28T08:42:12Z</time>
      </trkpt>
      <trkpt lat="43.44722" lon="6.60679">
        <ele>283.84938996285</ele>
        <time>2021-11-28T08:42:13Z</time>
      </trkpt>
      <trkpt lat="43.44722" lon="6.60678">
        <ele>283.84936079383</ele>
        <time>2021-11-28T08:42:14Z</time>
      </trkpt>
      <trkpt lat="43.44722" lon="6.60677">
        <ele>284.84932793677</ele>
        <time>2021-11-28T08:42:15Z</time>
      </trkpt>
      <trkpt lat="43.44723" lon="6.60677">
        <ele>284.84926490486</ele>
        <time>2021-11-28T08:42:16Z</time>
      </trkpt>
      <trkpt lat="43.44723" lon="6.60675">
        <ele>283.8491968438</ele>
        <time>2021-11-28T08:42:18Z</time>
      </trkpt>
      <trkpt lat="43.44722" lon="6.60674">
        <ele>283.8491673395</ele>
        <time>2021-11-28T08:42:19Z</time>
      </trkpt>
      <trkpt lat="43.44722" lon="6.60672">
        <ele>283.84913615882</ele>
        <time>2021-11-28T08:42:20Z</time>
      </trkpt>
      <trkpt lat="43.44723" lon="6.60671">
        <ele>284.84904194623</ele>
        <time>2021-11-28T08:42:22Z</time>
      </trkpt>
      <trkpt lat="43.44722" lon="6.60669">
        <ele>284.84897556156</ele>
        <time>2021-11-28T08:42:24Z</time>
      </trkpt>
      <trkpt lat="43.44722" lon="6.60668">
        <ele>284.84892627597</ele>
        <time>2021-11-28T08:42:25Z</time>
      </trkpt>
      <trkpt lat="43.44723" lon="6.60666">
        <ele>283.84884681553</ele>
        <time>2021-11-28T08:42:26Z</time>
      </trkpt>
      <trkpt lat="43.44724" lon="6.60666">
        <ele>284.84868487716</ele>
        <time>2021-11-28T08:42:28Z</time>
      </trkpt>
      <trkpt lat="43.44725" lon="6.60666">
        <ele>284.84864900261</ele>
        <time>2021-11-28T08:42:29Z</time>
      </trkpt>
      <trkpt lat="43.44725" lon="6.60665">
        <ele>284.84859234095</ele>
        <time>2021-11-28T08:42:30Z</time>
      </trkpt>
      <trkpt lat="43.44725" lon="6.60663">
        <ele>285.8485115394</ele>
        <time>2021-11-28T08:42:32Z</time>
      </trkpt>
      <trkpt lat="43.44725" lon="6.60662">
        <ele>286.84848438203</ele>
        <time>2021-11-28T08:42:35Z</time>
      </trkpt>
      <trkpt lat="43.44725" lon="6.60661">
        <ele>287.84842235595</ele>
        <time>2021-11-28T08:42:36Z</time>
      </trkpt>
      <trkpt lat="43.44726" lon="6.6066">
        <ele>287.84833116084</ele>
        <time>2021-11-28T08:42:38Z</time>
      </trkpt>
      <trkpt lat="43.44726" lon="6.60659">
        <ele>288.84827349335</ele>
        <time>2021-11-28T08:42:44Z</time>
      </trkpt>
      <trkpt lat="43.44728" lon="6.60658">
        <ele>289.84810518473</ele>
        <time>2021-11-28T08:42:45Z</time>
      </trkpt>
      <trkpt lat="43.44728" lon="6.60658">
        <ele>289.84805891663</ele>
        <time>2021-11-28T08:42:46Z</time>
      </trkpt>
      <trkpt lat="43.44729" lon="6.60659">
        <ele>289.84806964546</ele>
        <time>2021-11-28T08:42:57Z</time>
      </trkpt>
      <trkpt lat="43.44731" lon="6.60658">
        <ele>289.84781248868</ele>
        <time>2021-11-28T08:42:59Z</time>
      </trkpt>
      <trkpt lat="43.44732" lon="6.60657">
        <ele>290.8477615267</ele>
        <time>2021-11-28T08:43:00Z</time>
      </trkpt>
      <trkpt lat="43.44732" lon="6.60655">
        <ele>290.84762976319</ele>
        <time>2021-11-28T08:43:02Z</time>
      </trkpt>
      <trkpt lat="43.44734" lon="6.60653">
        <ele>290.84744301438</ele>
        <time>2021-11-28T08:43:04Z</time>
      </trkpt>
      <trkpt lat="43.44734" lon="6.60652">
        <ele>291.84735886008</ele>
        <time>2021-11-28T08:43:05Z</time>
      </trkpt>
      <trkpt lat="43.44734" lon="6.60651">
        <ele>291.8473374024</ele>
        <time>2021-11-28T08:43:06Z</time>
      </trkpt>
      <trkpt lat="43.44733" lon="6.6065">
        <ele>291.84736288339</ele>
        <time>2021-11-28T08:43:10Z</time>
      </trkpt>
      <trkpt lat="43.44733" lon="6.60649">
        <ele>292.84731393307</ele>
        <time>2021-11-28T08:43:15Z</time>
      </trkpt>
      <trkpt lat="43.44733" lon="6.60648">
        <ele>292.84727939963</ele>
        <time>2021-11-28T08:43:17Z</time>
      </trkpt>
      <trkpt lat="43.44732" lon="6.60648">
        <ele>292.84732499719</ele>
        <time>2021-11-28T08:43:18Z</time>
      </trkpt>
      <trkpt lat="43.44732" lon="6.60648">
        <ele>292.84736757725</ele>
        <time>2021-11-28T08:43:21Z</time>
      </trkpt>
      <trkpt lat="43.44731" lon="6.60648">
        <ele>292.84747821838</ele>
        <time>2021-11-28T08:43:23Z</time>
      </trkpt>
      <trkpt lat="43.44731" lon="6.60648">
        <ele>292.84745743126</ele>
        <time>2021-11-28T08:43:29Z</time>
      </trkpt>
      <trkpt lat="43.44731" lon="6.60646">
        <ele>293.8473219797</ele>
        <time>2021-11-28T08:43:30Z</time>
      </trkpt>
      <trkpt lat="43.44732" lon="6.60645">
        <ele>293.84724788368</ele>
        <time>2021-11-28T08:43:33Z</time>
      </trkpt>
      <trkpt lat="43.44732" lon="6.60645">
        <ele>293.84721066803</ele>
        <time>2021-11-28T08:43:35Z</time>
      </trkpt>
      <trkpt lat="43.44733" lon="6.60645">
        <ele>294.84716071188</ele>
        <time>2021-11-28T08:43:46Z</time>
      </trkpt>
      <trkpt lat="43.44734" lon="6.60644">
        <ele>294.84703330696</ele>
        <time>2021-11-28T08:43:47Z</time>
      </trkpt>
      <trkpt lat="43.44735" lon="6.60644">
        <ele>295.84696591645</ele>
        <time>2021-11-28T08:43:49Z</time>
      </trkpt>
      <trkpt lat="43.44735" lon="6.60643">
        <ele>295.84687170386</ele>
        <time>2021-11-28T08:43:51Z</time>
      </trkpt>
      <trkpt lat="43.44736" lon="6.60642">
        <ele>295.8467939198</ele>
        <time>2021-11-28T08:43:54Z</time>
      </trkpt>
      <trkpt lat="43.44736" lon="6.60641">
        <ele>294.8467251882</ele>
        <time>2021-11-28T08:43:56Z</time>
      </trkpt>
      <trkpt lat="43.44737" lon="6.6064">
        <ele>294.84666886181</ele>
        <time>2021-11-28T08:44:12Z</time>
      </trkpt>
      <trkpt lat="43.44737" lon="6.60639">
        <ele>294.84660247713</ele>
        <time>2021-11-28T08:44:13Z</time>
      </trkpt>
      <trkpt lat="43.44738" lon="6.60639">
        <ele>293.84654279798</ele>
        <time>2021-11-28T08:44:15Z</time>
      </trkpt>
      <trkpt lat="43.44738" lon="6.60638">
        <ele>293.84647574276</ele>
        <time>2021-11-28T08:44:20Z</time>
      </trkpt>
      <trkpt lat="43.44739" lon="6.60638">
        <ele>293.84641941637</ele>
        <time>2021-11-28T08:44:21Z</time>
      </trkpt>
      <trkpt lat="43.44739" lon="6.60637">
        <ele>293.8463627547</ele>
        <time>2021-11-28T08:44:24Z</time>
      </trkpt>
      <trkpt lat="43.4474" lon="6.60637">
        <ele>293.84629201144</ele>
        <time>2021-11-28T08:44:25Z</time>
      </trkpt>
      <trkpt lat="43.44739" lon="6.60637">
        <ele>293.84637851268</ele>
        <time>2021-11-28T08:44:27Z</time>
      </trkpt>
      <trkpt lat="43.44738" lon="6.60636">
        <ele>294.84639829397</ele>
        <time>2021-11-28T08:44:31Z</time>
      </trkpt>
      <trkpt lat="43.44738" lon="6.60636">
        <ele>294.84644187987</ele>
        <time>2021-11-28T08:44:32Z</time>
      </trkpt>
      <trkpt lat="43.44737" lon="6.60636">
        <ele>293.84645462036</ele>
        <time>2021-11-28T08:44:34Z</time>
      </trkpt>
      <trkpt lat="43.44737" lon="6.60635">
        <ele>293.84648747742</ele>
        <time>2021-11-28T08:44:35Z</time>
      </trkpt>
      <trkpt lat="43.44736" lon="6.60635">
        <ele>293.84651597589</ele>
        <time>2021-11-28T08:44:37Z</time>
      </trkpt>
      <trkpt lat="43.44736" lon="6.60634">
        <ele>293.84653240442</ele>
        <time>2021-11-28T08:44:39Z</time>
      </trkpt>
      <trkpt lat="43.44735" lon="6.60633">
        <ele>294.84655419737</ele>
        <time>2021-11-28T08:44:40Z</time>
      </trkpt>
      <trkpt lat="43.44733" lon="6.60633">
        <ele>293.84664136916</ele>
        <time>2021-11-28T08:44:41Z</time>
      </trkpt>
      <trkpt lat="43.44732" lon="6.60632">
        <ele>293.84668897837</ele>
        <time>2021-11-28T08:44:42Z</time>
      </trkpt>
      <trkpt lat="43.44732" lon="6.60631">
        <ele>294.84669266641</ele>
        <time>2021-11-28T08:44:43Z</time>
      </trkpt>
      <trkpt lat="43.44732" lon="6.60629">
        <ele>294.84664237499</ele>
        <time>2021-11-28T08:44:44Z</time>
      </trkpt>
      <trkpt lat="43.44732" lon="6.60628">
        <ele>295.84659107774</ele>
        <time>2021-11-28T08:44:46Z</time>
      </trkpt>
      <trkpt lat="43.44731" lon="6.60628">
        <ele>295.84661588818</ele>
        <time>2021-11-28T08:44:53Z</time>
      </trkpt>
      <trkpt lat="43.4473" lon="6.60627">
        <ele>294.84664908051</ele>
        <time>2021-11-28T08:44:57Z</time>
      </trkpt>
      <trkpt lat="43.4473" lon="6.60626">
        <ele>295.84661588818</ele>
        <time>2021-11-28T08:44:59Z</time>
      </trkpt>
      <trkpt lat="43.44731" lon="6.60626">
        <ele>295.84655889124</ele>
        <time>2021-11-28T08:45:00Z</time>
      </trkpt>
      <trkpt lat="43.44731" lon="6.60625">
        <ele>295.84649518877</ele>
        <time>2021-11-28T08:45:01Z</time>
      </trkpt>
      <trkpt lat="43.44733" lon="6.60624">
        <ele>295.84627759457</ele>
        <time>2021-11-28T08:45:03Z</time>
      </trkpt>
      <trkpt lat="43.44734" lon="6.60623">
        <ele>294.84621422738</ele>
        <time>2021-11-28T08:45:20Z</time>
      </trkpt>
      <trkpt lat="43.44735" lon="6.60623">
        <ele>293.8461535424</ele>
        <time>2021-11-28T08:45:24Z</time>
      </trkpt>
      <trkpt lat="43.44735" lon="6.60623">
        <ele>293.84608313441</ele>
        <time>2021-11-28T08:45:26Z</time>
      </trkpt>
      <trkpt lat="43.44735" lon="6.60622">
        <ele>293.84605731815</ele>
        <time>2021-11-28T08:45:27Z</time>
      </trkpt>
      <trkpt lat="43.44737" lon="6.60623">
        <ele>293.84591247886</ele>
        <time>2021-11-28T08:45:29Z</time>
      </trkpt>
      <trkpt lat="43.44737" lon="6.60622">
        <ele>292.84587895125</ele>
        <time>2021-11-28T08:45:31Z</time>
      </trkpt>
      <trkpt lat="43.44736" lon="6.60622">
        <ele>292.84598623961</ele>
        <time>2021-11-28T08:45:33Z</time>
      </trkpt>
      <trkpt lat="43.44736" lon="6.60622">
        <ele>292.84604725987</ele>
        <time>2021-11-28T08:45:34Z</time>
      </trkpt>
      <trkpt lat="43.44735" lon="6.60622">
        <ele>292.84609419852</ele>
        <time>2021-11-28T08:45:35Z</time>
      </trkpt>
      <trkpt lat="43.44734" lon="6.6062">
        <ele>292.84609788656</ele>
        <time>2021-11-28T08:45:36Z</time>
      </trkpt>
      <trkpt lat="43.44734" lon="6.60619">
        <ele>292.84602747858</ele>
        <time>2021-11-28T08:45:38Z</time>
      </trkpt>
      <trkpt lat="43.44735" lon="6.60619">
        <ele>292.84595204145</ele>
        <time>2021-11-28T08:45:40Z</time>
      </trkpt>
      <trkpt lat="43.44735" lon="6.60619">
        <ele>292.84591985494</ele>
        <time>2021-11-28T08:45:41Z</time>
      </trkpt>
      <trkpt lat="43.44736" lon="6.60618">
        <ele>291.84585279971</ele>
        <time>2021-11-28T08:45:43Z</time>
      </trkpt>
      <trkpt lat="43.44735" lon="6.60617">
        <ele>291.84587626904</ele>
        <time>2021-11-28T08:45:50Z</time>
      </trkpt>
      <trkpt lat="43.44735" lon="6.60618">
        <ele>291.84592689574</ele>
        <time>2021-11-28T08:45:52Z</time>
      </trkpt>
      <trkpt lat="43.44735" lon="6.60617">
        <ele>290.84592421353</ele>
        <time>2021-11-28T08:45:57Z</time>
      </trkpt>
      <trkpt lat="43.44736" lon="6.60618">
        <ele>290.84581726044</ele>
        <time>2021-11-28T08:45:58Z</time>
      </trkpt>
      <trkpt lat="43.44736" lon="6.60617">
        <ele>289.8457968086</ele>
        <time>2021-11-28T08:46:02Z</time>
      </trkpt>
      <trkpt lat="43.44737" lon="6.60617">
        <ele>288.84572774172</ele>
        <time>2021-11-28T08:46:04Z</time>
      </trkpt>
      <trkpt lat="43.44737" lon="6.60616">
        <ele>288.84570930153</ele>
        <time>2021-11-28T08:46:05Z</time>
      </trkpt>
      <trkpt lat="43.44736" lon="6.60615">
        <ele>288.84569924325</ele>
        <time>2021-11-28T08:46:08Z</time>
      </trkpt>
      <trkpt lat="43.44736" lon="6.60615">
        <ele>288.8456844911</ele>
        <time>2021-11-28T08:46:09Z</time>
      </trkpt>
      <trkpt lat="43.44736" lon="6.60614">
        <ele>288.84567510337</ele>
        <time>2021-11-28T08:46:10Z</time>
      </trkpt>
      <trkpt lat="43.44736" lon="6.60612">
        <ele>288.84561643004</ele>
        <time>2021-11-28T08:46:12Z</time>
      </trkpt>
      <trkpt lat="43.44736" lon="6.60612">
        <ele>288.84561374784</ele>
        <time>2021-11-28T08:46:27Z</time>
      </trkpt>
      <trkpt lat="43.44735" lon="6.60611">
        <ele>288.84564325213</ele>
        <time>2021-11-28T08:46:33Z</time>
      </trkpt>
      <trkpt lat="43.44735" lon="6.6061">
        <ele>289.84564727545</ele>
        <time>2021-11-28T08:46:40Z</time>
      </trkpt>
      <trkpt lat="43.44735" lon="6.60609">
        <ele>289.84558558464</ele>
        <time>2021-11-28T08:46:44Z</time>
      </trkpt>
      <trkpt lat="43.44736" lon="6.60609">
        <ele>289.84549103677</ele>
        <time>2021-11-28T08:46:45Z</time>
      </trkpt>
      <trkpt lat="43.44735" lon="6.60609">
        <ele>288.84553227574</ele>
        <time>2021-11-28T08:46:48Z</time>
      </trkpt>
      <trkpt lat="43.44736" lon="6.60608">
        <ele>286.8454907015</ele>
        <time>2021-11-28T08:46:52Z</time>
      </trkpt>
      <trkpt lat="43.44737" lon="6.60607">
        <ele>286.84532406926</ele>
        <time>2021-11-28T08:46:54Z</time>
      </trkpt>
      <trkpt lat="43.44737" lon="6.60606">
        <ele>287.84531568736</ele>
        <time>2021-11-28T08:47:02Z</time>
      </trkpt>
      <trkpt lat="43.44736" lon="6.60606">
        <ele>288.84536061436</ele>
        <time>2021-11-28T08:47:03Z</time>
      </trkpt>
      <trkpt lat="43.44735" lon="6.60605">
        <ele>288.84535122663</ele>
        <time>2021-11-28T08:47:07Z</time>
      </trkpt>
      <trkpt lat="43.44736" lon="6.60604">
        <ele>287.84529724717</ele>
        <time>2021-11-28T08:47:09Z</time>
      </trkpt>
      <trkpt lat="43.44736" lon="6.60604">
        <ele>286.84523823857</ele>
        <time>2021-11-28T08:47:10Z</time>
      </trkpt>
      <trkpt lat="43.44737" lon="6.60603">
        <ele>287.84515576065</ele>
        <time>2021-11-28T08:47:19Z</time>
      </trkpt>
      <trkpt lat="43.44738" lon="6.60601">
        <ele>286.84497538209</ele>
        <time>2021-11-28T08:47:20Z</time>
      </trkpt>
      <trkpt lat="43.44738" lon="6.606">
        <ele>286.84494554251</ele>
        <time>2021-11-28T08:47:26Z</time>
      </trkpt>
      <trkpt lat="43.44738" lon="6.60599">
        <ele>286.84491268545</ele>
        <time>2021-11-28T08:47:27Z</time>
      </trkpt>
      <trkpt lat="43.44738" lon="6.60598">
        <ele>287.84487681091</ele>
        <time>2021-11-28T08:47:32Z</time>
      </trkpt>
      <trkpt lat="43.44737" lon="6.60597">
        <ele>287.84495392442</ele>
        <time>2021-11-28T08:47:34Z</time>
      </trkpt>
      <trkpt lat="43.44736" lon="6.60597">
        <ele>287.84501025081</ele>
        <time>2021-11-28T08:47:35Z</time>
      </trkpt>
      <trkpt lat="43.44736" lon="6.60595">
        <ele>287.84489759803</ele>
        <time>2021-11-28T08:47:37Z</time>
      </trkpt>
      <trkpt lat="43.44737" lon="6.60594">
        <ele>287.84479165077</ele>
        <time>2021-11-28T08:47:39Z</time>
      </trkpt>
      <trkpt lat="43.44738" lon="6.60594">
        <ele>288.84473163635</ele>
        <time>2021-11-28T08:47:47Z</time>
      </trkpt>
      <trkpt lat="43.44739" lon="6.60593">
        <ele>288.84464915842</ele>
        <time>2021-11-28T08:47:51Z</time>
      </trkpt>
      <trkpt lat="43.44739" lon="6.60593">
        <ele>287.84459249675</ele>
        <time>2021-11-28T08:47:53Z</time>
      </trkpt>
      <trkpt lat="43.44739" lon="6.60592">
        <ele>287.8445468992</ele>
        <time>2021-11-28T08:48:16Z</time>
      </trkpt>
      <trkpt lat="43.4474" lon="6.60593">
        <ele>288.84453885257</ele>
        <time>2021-11-28T08:48:30Z</time>
      </trkpt>
      <trkpt lat="43.44739" lon="6.60594">
        <ele>288.84461697191</ele>
        <time>2021-11-28T08:48:32Z</time>
      </trkpt>
      <trkpt lat="43.44739" lon="6.60593">
        <ele>287.84460423142</ele>
        <time>2021-11-28T08:48:35Z</time>
      </trkpt>
      <trkpt lat="43.44738" lon="6.60593">
        <ele>286.84466391057</ele>
        <time>2021-11-28T08:48:42Z</time>
      </trkpt>
      <trkpt lat="43.44738" lon="6.60594">
        <ele>286.84472325444</ele>
        <time>2021-11-28T08:49:51Z</time>
      </trkpt>
      <trkpt lat="43.44738" lon="6.60595">
        <ele>285.84477991611</ele>
        <time>2021-11-28T08:49:54Z</time>
      </trkpt>
      <trkpt lat="43.44737" lon="6.60597">
        <ele>285.84487144649</ele>
        <time>2021-11-28T08:49:55Z</time>
      </trkpt>
      <trkpt lat="43.44738" lon="6.60598">
        <ele>283.8448952511</ele>
        <time>2021-11-28T08:50:04Z</time>
      </trkpt>
      <trkpt lat="43.44738" lon="6.60598">
        <ele>283.84483121336</ele>
        <time>2021-11-28T08:50:06Z</time>
      </trkpt>
      <trkpt lat="43.44739" lon="6.60598">
        <ele>282.84478796273</ele>
        <time>2021-11-28T08:50:08Z</time>
      </trkpt>
      <trkpt lat="43.44739" lon="6.60597">
        <ele>284.84475342929</ele>
        <time>2021-11-28T08:50:32Z</time>
      </trkpt>
      <trkpt lat="43.44739" lon="6.60596">
        <ele>284.84468905628</ele>
        <time>2021-11-28T08:50:34Z</time>
      </trkpt>
      <trkpt lat="43.4474" lon="6.60595">
        <ele>283.84461563081</ele>
        <time>2021-11-28T08:50:35Z</time>
      </trkpt>
      <trkpt lat="43.4474" lon="6.60594">
        <ele>283.84458512068</ele>
        <time>2021-11-28T08:50:36Z</time>
      </trkpt>
      <trkpt lat="43.4474" lon="6.60594">
        <ele>279.84457942098</ele>
        <time>2021-11-28T08:50:40Z</time>
      </trkpt>
      <trkpt lat="43.44739" lon="6.60595">
        <ele>279.84470246732</ele>
        <time>2021-11-28T08:50:42Z</time>
      </trkpt>
      <trkpt lat="43.44738" lon="6.60597">
        <ele>279.84479701519</ele>
        <time>2021-11-28T08:50:44Z</time>
      </trkpt>
      <trkpt lat="43.44739" lon="6.60598">
        <ele>279.84479835629</ele>
        <time>2021-11-28T08:50:45Z</time>
      </trkpt>
      <trkpt lat="43.4474" lon="6.60599">
        <ele>278.84477488697</ele>
        <time>2021-11-28T08:50:46Z</time>
      </trkpt>
      <trkpt lat="43.44741" lon="6.60598">
        <ele>279.84468436241</ele>
        <time>2021-11-28T08:50:48Z</time>
      </trkpt>
      <trkpt lat="43.44742" lon="6.60598">
        <ele>279.84459618479</ele>
        <time>2021-11-28T08:50:49Z</time>
      </trkpt>
      <trkpt lat="43.44742" lon="6.60599">
        <ele>280.84455058724</ele>
        <time>2021-11-28T08:50:54Z</time>
      </trkpt>
      <trkpt lat="43.44743" lon="6.60598">
        <ele>280.8445173949</ele>
        <time>2021-11-28T08:50:56Z</time>
      </trkpt>
      <trkpt lat="43.44744" lon="6.60598">
        <ele>280.84445603937</ele>
        <time>2021-11-28T08:50:58Z</time>
      </trkpt>
      <trkpt lat="43.44744" lon="6.60598">
        <ele>279.84441010654</ele>
        <time>2021-11-28T08:51:05Z</time>
      </trkpt>
      <trkpt lat="43.44743" lon="6.60597">
        <ele>278.84441111237</ele>
        <time>2021-11-28T08:51:06Z</time>
      </trkpt>
      <trkpt lat="43.44743" lon="6.60596">
        <ele>278.84434506297</ele>
        <time>2021-11-28T08:51:09Z</time>
      </trkpt>
      <trkpt lat="43.44743" lon="6.60595">
        <ele>278.84438764304</ele>
        <time>2021-11-28T08:51:10Z</time>
      </trkpt>
      <trkpt lat="43.44742" lon="6.60594">
        <ele>278.84439468384</ele>
        <time>2021-11-28T08:51:11Z</time>
      </trkpt>
      <trkpt lat="43.44742" lon="6.60594">
        <ele>277.8444205001</ele>
        <time>2021-11-28T08:51:13Z</time>
      </trkpt>
      <trkpt lat="43.44741" lon="6.60593">
        <ele>277.84440138936</ele>
        <time>2021-11-28T08:51:14Z</time>
      </trkpt>
      <trkpt lat="43.44741" lon="6.60593">
        <ele>277.84445302188</ele>
        <time>2021-11-28T08:51:17Z</time>
      </trkpt>
      <trkpt lat="43.44741" lon="6.60594">
        <ele>276.84453449398</ele>
        <time>2021-11-28T08:51:19Z</time>
      </trkpt>
      <trkpt lat="43.4474" lon="6.60594">
        <ele>278.84454589337</ele>
        <time>2021-11-28T08:51:28Z</time>
      </trkpt>
      <trkpt lat="43.4474" lon="6.60593">
        <ele>277.84450264275</ele>
        <time>2021-11-28T08:51:29Z</time>
      </trkpt>
      <trkpt lat="43.4474" lon="6.60592">
        <ele>277.84447649121</ele>
        <time>2021-11-28T08:51:30Z</time>
      </trkpt>
      <trkpt lat="43.44741" lon="6.60592">
        <ele>278.84437724948</ele>
        <time>2021-11-28T08:51:31Z</time>
      </trkpt>
      <trkpt lat="43.44741" lon="6.60591">
        <ele>278.84436249733</ele>
        <time>2021-11-28T08:51:32Z</time>
      </trkpt>
      <trkpt lat="43.44742" lon="6.60591">
        <ele>278.84428303689</ele>
        <time>2021-11-28T08:51:35Z</time>
      </trkpt>
      <trkpt lat="43.44743" lon="6.60589">
        <ele>277.84412847459</ele>
        <time>2021-11-28T08:51:36Z</time>
      </trkpt>
      <trkpt lat="43.44743" lon="6.60588">
        <ele>277.84409662336</ele>
        <time>2021-11-28T08:51:38Z</time>
      </trkpt>
      <trkpt lat="43.44743" lon="6.60587">
        <ele>277.8440567255</ele>
        <time>2021-11-28T08:51:41Z</time>
      </trkpt>
      <trkpt lat="43.44744" lon="6.60586">
        <ele>276.84391289204</ele>
        <time>2021-11-28T08:51:42Z</time>
      </trkpt>
      <trkpt lat="43.44744" lon="6.60584">
        <ele>276.84386427701</ele>
        <time>2021-11-28T08:51:44Z</time>
      </trkpt>
      <trkpt lat="43.44744" lon="6.60584">
        <ele>277.84382471442</ele>
        <time>2021-11-28T08:51:45Z</time>
      </trkpt>
      <trkpt lat="43.44744" lon="6.60583">
        <ele>277.84378649294</ele>
        <time>2021-11-28T08:51:46Z</time>
      </trkpt>
      <trkpt lat="43.44744" lon="6.60582">
        <ele>277.84376436472</ele>
        <time>2021-11-28T08:51:47Z</time>
      </trkpt>
      <trkpt lat="43.44744" lon="6.60582">
        <ele>276.84376302361</ele>
        <time>2021-11-28T08:51:52Z</time>
      </trkpt>
      <trkpt lat="43.44742" lon="6.6058">
        <ele>277.84386125952</ele>
        <time>2021-11-28T08:51:54Z</time>
      </trkpt>
      <trkpt lat="43.44742" lon="6.60581">
        <ele>277.84388774633</ele>
        <time>2021-11-28T08:51:56Z</time>
      </trkpt>
      <trkpt lat="43.44743" lon="6.60583">
        <ele>275.84384483099</ele>
        <time>2021-11-28T08:51:58Z</time>
      </trkpt>
      <trkpt lat="43.44745" lon="6.60583">
        <ele>275.8437422365</ele>
        <time>2021-11-28T08:51:59Z</time>
      </trkpt>
      <trkpt lat="43.44745" lon="6.60582">
        <ele>276.84367149323</ele>
        <time>2021-11-28T08:52:01Z</time>
      </trkpt>
      <trkpt lat="43.44746" lon="6.60583">
        <ele>275.84362623096</ele>
        <time>2021-11-28T08:52:05Z</time>
      </trkpt>
      <trkpt lat="43.44746" lon="6.60582">
        <ele>275.84357124567</ele>
        <time>2021-11-28T08:52:07Z</time>
      </trkpt>
      <trkpt lat="43.44745" lon="6.60581">
        <ele>274.8436537236</ele>
        <time>2021-11-28T08:52:09Z</time>
      </trkpt>
      <trkpt lat="43.44744" lon="6.60582">
        <ele>274.84372681379</ele>
        <time>2021-11-28T08:52:12Z</time>
      </trkpt>
      <trkpt lat="43.44744" lon="6.60582">
        <ele>274.84380325675</ele>
        <time>2021-11-28T08:52:29Z</time>
      </trkpt>
      <trkpt lat="43.44743" lon="6.60582">
        <ele>275.84383007884</ele>
        <time>2021-11-28T08:53:02Z</time>
      </trkpt>
      <trkpt lat="43.44743" lon="6.60581">
        <ele>275.84381499141</ele>
        <time>2021-11-28T08:53:19Z</time>
      </trkpt>
      <trkpt lat="43.44743" lon="6.60581">
        <ele>277.84375263005</ele>
        <time>2021-11-28T08:53:25Z</time>
      </trkpt>
      <trkpt lat="43.44743" lon="6.6058">
        <ele>278.84372480214</ele>
        <time>2021-11-28T08:53:32Z</time>
      </trkpt>
      <trkpt lat="43.44742" lon="6.60578">
        <ele>277.84372211993</ele>
        <time>2021-11-28T08:53:34Z</time>
      </trkpt>
      <trkpt lat="43.44742" lon="6.60578">
        <ele>277.84377945215</ele>
        <time>2021-11-28T08:53:36Z</time>
      </trkpt>
      <trkpt lat="43.44741" lon="6.60578">
        <ele>277.84386394173</ele>
        <time>2021-11-28T08:53:38Z</time>
      </trkpt>
      <trkpt lat="43.44742" lon="6.60579">
        <ele>278.8438166678</ele>
        <time>2021-11-28T08:53:39Z</time>
      </trkpt>
      <trkpt lat="43.44741" lon="6.60578">
        <ele>276.84379286319</ele>
        <time>2021-11-28T08:53:40Z</time>
      </trkpt>
      <trkpt lat="43.44741" lon="6.60577">
        <ele>277.84379219264</ele>
        <time>2021-11-28T08:53:42Z</time>
      </trkpt>
      <trkpt lat="43.44741" lon="6.60576">
        <ele>277.84378582239</ele>
        <time>2021-11-28T08:53:46Z</time>
      </trkpt>
      <trkpt lat="43.44741" lon="6.60575">
        <ele>277.84373687208</ele>
        <time>2021-11-28T08:53:48Z</time>
      </trkpt>
      <trkpt lat="43.44741" lon="6.60575">
        <ele>278.84368155152</ele>
        <time>2021-11-28T08:53:54Z</time>
      </trkpt>
      <trkpt lat="43.44742" lon="6.60574">
        <ele>280.84358834475</ele>
        <time>2021-11-28T08:53:55Z</time>
      </trkpt>
      <trkpt lat="43.44742" lon="6.60574">
        <ele>280.8435652107</ele>
        <time>2021-11-28T08:53:57Z</time>
      </trkpt>
      <trkpt lat="43.44741" lon="6.60573">
        <ele>279.84365405887</ele>
        <time>2021-11-28T08:53:59Z</time>
      </trkpt>
      <trkpt lat="43.4474" lon="6.60574">
        <ele>280.84370971471</ele>
        <time>2021-11-28T08:54:00Z</time>
      </trkpt>
      <trkpt lat="43.4474" lon="6.60573">
        <ele>280.84371306747</ele>
        <time>2021-11-28T08:54:01Z</time>
      </trkpt>
      <trkpt lat="43.44741" lon="6.60572">
        <ele>278.84363193065</ele>
        <time>2021-11-28T08:54:03Z</time>
      </trkpt>
      <trkpt lat="43.44741" lon="6.60573">
        <ele>278.8435960561</ele>
        <time>2021-11-28T08:54:06Z</time>
      </trkpt>
      <trkpt lat="43.44742" lon="6.60571">
        <ele>278.84348742664</ele>
        <time>2021-11-28T08:54:08Z</time>
      </trkpt>
      <trkpt lat="43.44743" lon="6.60571">
        <ele>278.84341299534</ele>
        <time>2021-11-28T08:54:12Z</time>
      </trkpt>
      <trkpt lat="43.44744" lon="6.6057">
        <ele>279.8433110714</ele>
        <time>2021-11-28T08:54:14Z</time>
      </trkpt>
      <trkpt lat="43.44744" lon="6.6057">
        <ele>279.84329497814</ele>
        <time>2021-11-28T08:54:22Z</time>
      </trkpt>
      <trkpt lat="43.44745" lon="6.60569">
        <ele>279.84317494929</ele>
        <time>2021-11-28T08:54:23Z</time>
      </trkpt>
      <trkpt lat="43.44745" lon="6.60568">
        <ele>282.84310957044</ele>
        <time>2021-11-28T08:54:27Z</time>
      </trkpt>
      <trkpt lat="43.44746" lon="6.60566">
        <ele>282.84300496429</ele>
        <time>2021-11-28T08:54:29Z</time>
      </trkpt>
      <trkpt lat="43.44747" lon="6.60566">
        <ele>283.8428896293</ele>
        <time>2021-11-28T08:54:30Z</time>
      </trkpt>
      <trkpt lat="43.44748" lon="6.60566">
        <ele>284.84283196181</ele>
        <time>2021-11-28T08:54:31Z</time>
      </trkpt>
      <trkpt lat="43.44749" lon="6.60566">
        <ele>283.84272802621</ele>
        <time>2021-11-28T08:54:33Z</time>
      </trkpt>
      <trkpt lat="43.44749" lon="6.60566">
        <ele>284.84271897376</ele>
        <time>2021-11-28T08:54:34Z</time>
      </trkpt>
      <trkpt lat="43.4475" lon="6.60567">
        <ele>284.84271394461</ele>
        <time>2021-11-28T08:54:35Z</time>
      </trkpt>
      <trkpt lat="43.44749" lon="6.60567">
        <ele>284.84277697653</ele>
        <time>2021-11-28T08:54:37Z</time>
      </trkpt>
      <trkpt lat="43.4475" lon="6.60565">
        <ele>286.84261839092</ele>
        <time>2021-11-28T08:54:39Z</time>
      </trkpt>
      <trkpt lat="43.4475" lon="6.60564">
        <ele>286.84255334735</ele>
        <time>2021-11-28T08:54:40Z</time>
      </trkpt>
      <trkpt lat="43.44751" lon="6.60563">
        <ele>287.84247321635</ele>
        <time>2021-11-28T08:54:42Z</time>
      </trkpt>
      <trkpt lat="43.4475" lon="6.60563">
        <ele>286.84249031544</ele>
        <time>2021-11-28T08:54:48Z</time>
      </trkpt>
      <trkpt lat="43.44749" lon="6.60562">
        <ele>286.84252853692</ele>
        <time>2021-11-28T08:54:49Z</time>
      </trkpt>
      <trkpt lat="43.44749" lon="6.60561">
        <ele>286.84249970317</ele>
        <time>2021-11-28T08:54:51Z</time>
      </trkpt>
      <trkpt lat="43.4475" lon="6.6056">
        <ele>286.84244438261</ele>
        <time>2021-11-28T08:54:53Z</time>
      </trkpt>
      <trkpt lat="43.4475" lon="6.6056">
        <ele>287.84237866849</ele>
        <time>2021-11-28T08:54:54Z</time>
      </trkpt>
      <trkpt lat="43.44751" lon="6.60559">
        <ele>286.84227372706</ele>
        <time>2021-11-28T08:54:55Z</time>
      </trkpt>
      <trkpt lat="43.44751" lon="6.60559">
        <ele>287.84226635098</ele>
        <time>2021-11-28T08:54:56Z</time>
      </trkpt>
      <trkpt lat="43.44751" lon="6.60558">
        <ele>287.84222175926</ele>
        <time>2021-11-28T08:54:57Z</time>
      </trkpt>
      <trkpt lat="43.44752" lon="6.60557">
        <ele>287.84207893163</ele>
        <time>2021-11-28T08:54:58Z</time>
      </trkpt>
      <trkpt lat="43.44753" lon="6.60557">
        <ele>288.84207926691</ele>
        <time>2021-11-28T08:55:05Z</time>
      </trkpt>
      <trkpt lat="43.44751" lon="6.60558">
        <ele>289.84223885834</ele>
        <time>2021-11-28T08:55:07Z</time>
      </trkpt>
      <trkpt lat="43.44751" lon="6.60558">
        <ele>291.84226970375</ele>
        <time>2021-11-28T08:55:11Z</time>
      </trkpt>
      <trkpt lat="43.44751" lon="6.60557">
        <ele>291.84220398962</ele>
        <time>2021-11-28T08:55:14Z</time>
      </trkpt>
      <trkpt lat="43.44752" lon="6.60557">
        <ele>291.84212385863</ele>
        <time>2021-11-28T08:55:17Z</time>
      </trkpt>
      <trkpt lat="43.44752" lon="6.60556">
        <ele>290.84209804237</ele>
        <time>2021-11-28T08:55:19Z</time>
      </trkpt>
      <trkpt lat="43.44752" lon="6.60555">
        <ele>289.84206350893</ele>
        <time>2021-11-28T08:55:33Z</time>
      </trkpt>
      <trkpt lat="43.44752" lon="6.60554">
        <ele>289.8420343399</ele>
        <time>2021-11-28T08:55:35Z</time>
      </trkpt>
      <trkpt lat="43.44753" lon="6.60553">
        <ele>289.84190056473</ele>
        <time>2021-11-28T08:55:37Z</time>
      </trkpt>
      <trkpt lat="43.44753" lon="6.60554">
        <ele>291.84194348007</ele>
        <time>2021-11-28T08:55:40Z</time>
      </trkpt>
      <trkpt lat="43.44752" lon="6.60554">
        <ele>290.8420316577</ele>
        <time>2021-11-28T08:55:42Z</time>
      </trkpt>
      <trkpt lat="43.44751" lon="6.60554">
        <ele>291.84207960218</ele>
        <time>2021-11-28T08:55:46Z</time>
      </trkpt>
      <trkpt lat="43.44751" lon="6.60555">
        <ele>290.84215604514</ele>
        <time>2021-11-28T08:55:48Z</time>
      </trkpt>
      <trkpt lat="43.4475" lon="6.60554">
        <ele>291.84212050587</ele>
        <time>2021-11-28T08:55:52Z</time>
      </trkpt>
      <trkpt lat="43.4475" lon="6.60553">
        <ele>291.84211011231</ele>
        <time>2021-11-28T08:55:55Z</time>
      </trkpt>
      <trkpt lat="43.44749" lon="6.60553">
        <ele>291.84218957275</ele>
        <time>2021-11-28T08:55:57Z</time>
      </trkpt>
      <trkpt lat="43.44749" lon="6.60553">
        <ele>291.8421805203</ele>
        <time>2021-11-28T08:56:00Z</time>
      </trkpt>
      <trkpt lat="43.44748" lon="6.60551">
        <ele>291.84219057858</ele>
        <time>2021-11-28T08:56:01Z</time>
      </trkpt>
      <trkpt lat="43.44748" lon="6.60551">
        <ele>291.84218856692</ele>
        <time>2021-11-28T08:56:02Z</time>
      </trkpt>
      <trkpt lat="43.44747" lon="6.60551">
        <ele>291.84229920805</ele>
        <time>2021-11-28T08:56:03Z</time>
      </trkpt>
      <trkpt lat="43.44747" lon="6.6055">
        <ele>291.84225897491</ele>
        <time>2021-11-28T08:56:09Z</time>
      </trkpt>
      <trkpt lat="43.44746" lon="6.60549">
        <ele>292.84224154055</ele>
        <time>2021-11-28T08:56:10Z</time>
      </trkpt>
      <trkpt lat="43.44746" lon="6.60549">
        <ele>292.84225964546</ele>
        <time>2021-11-28T08:56:11Z</time>
      </trkpt>
      <trkpt lat="43.44745" lon="6.60548">
        <ele>292.84234379977</ele>
        <time>2021-11-28T08:56:13Z</time>
      </trkpt>
      <trkpt lat="43.44745" lon="6.60548">
        <ele>292.84234379977</ele>
        <time>2021-11-28T08:56:15Z</time>
      </trkpt>
      <trkpt lat="43.44743" lon="6.60547">
        <ele>292.84244371206</ele>
        <time>2021-11-28T08:56:17Z</time>
      </trkpt>
      <trkpt lat="43.44744" lon="6.60545">
        <ele>292.84230457246</ele>
        <time>2021-11-28T08:56:19Z</time>
      </trkpt>
      <trkpt lat="43.44744" lon="6.60544">
        <ele>292.84225293994</ele>
        <time>2021-11-28T08:56:20Z</time>
      </trkpt>
      <trkpt lat="43.44743" lon="6.60543">
        <ele>293.84226936847</ele>
        <time>2021-11-28T08:56:21Z</time>
      </trkpt>
      <trkpt lat="43.44743" lon="6.60542">
        <ele>291.84228043258</ele>
        <time>2021-11-28T08:56:23Z</time>
      </trkpt>
      <trkpt lat="43.44742" lon="6.60541">
        <ele>291.84228546172</ele>
        <time>2021-11-28T08:56:24Z</time>
      </trkpt>
      <trkpt lat="43.44741" lon="6.6054">
        <ele>292.84227473289</ele>
        <time>2021-11-28T08:56:25Z</time>
      </trkpt>
      <trkpt lat="43.44742" lon="6.60538">
        <ele>292.84217314422</ele>
        <time>2021-11-28T08:56:27Z</time>
      </trkpt>
      <trkpt lat="43.44742" lon="6.60537">
        <ele>292.84214766324</ele>
        <time>2021-11-28T08:56:29Z</time>
      </trkpt>
      <trkpt lat="43.44742" lon="6.60537">
        <ele>293.84209133685</ele>
        <time>2021-11-28T08:56:31Z</time>
      </trkpt>
      <trkpt lat="43.44743" lon="6.60536">
        <ele>295.84202729911</ele>
        <time>2021-11-28T08:56:33Z</time>
      </trkpt>
      <trkpt lat="43.44743" lon="6.60535">
        <ele>296.8419796899</ele>
        <time>2021-11-28T08:56:35Z</time>
      </trkpt>
      <trkpt lat="43.44744" lon="6.60536">
        <ele>296.84193442762</ele>
        <time>2021-11-28T08:56:37Z</time>
      </trkpt>
      <trkpt lat="43.44745" lon="6.60536">
        <ele>295.84181942791</ele>
        <time>2021-11-28T08:56:39Z</time>
      </trkpt>
      <trkpt lat="43.44745" lon="6.60535">
        <ele>296.84179696441</ele>
        <time>2021-11-28T08:56:41Z</time>
      </trkpt>
      <trkpt lat="43.44746" lon="6.60534">
        <ele>297.84169638157</ele>
        <time>2021-11-28T08:56:43Z</time>
      </trkpt>
      <trkpt lat="43.44746" lon="6.60533">
        <ele>298.84163502604</ele>
        <time>2021-11-28T08:56:44Z</time>
      </trkpt>
      <trkpt lat="43.44747" lon="6.60533">
        <ele>298.84158205241</ele>
        <time>2021-11-28T08:56:45Z</time>
      </trkpt>
      <trkpt lat="43.44748" lon="6.60531">
        <ele>298.84144090116</ele>
        <time>2021-11-28T08:56:47Z</time>
      </trkpt>
      <trkpt lat="43.44748" lon="6.6053">
        <ele>299.84139496833</ele>
        <time>2021-11-28T08:56:53Z</time>
      </trkpt>
      <trkpt lat="43.44747" lon="6.60529">
        <ele>300.84137216955</ele>
        <time>2021-11-28T08:56:54Z</time>
      </trkpt>
      <trkpt lat="43.44747" lon="6.60528">
        <ele>301.84134836495</ele>
        <time>2021-11-28T08:56:55Z</time>
      </trkpt>
      <trkpt lat="43.44748" lon="6.60528">
        <ele>301.84125113487</ele>
        <time>2021-11-28T08:56:57Z</time>
      </trkpt>
      <trkpt lat="43.44749" lon="6.60529">
        <ele>300.84125683457</ele>
        <time>2021-11-28T08:57:00Z</time>
      </trkpt>
      <trkpt lat="43.44749" lon="6.60529">
        <ele>300.84123604745</ele>
        <time>2021-11-28T08:57:06Z</time>
      </trkpt>
      <trkpt lat="43.44749" lon="6.60526">
        <ele>300.84114719927</ele>
        <time>2021-11-28T08:57:07Z</time>
      </trkpt>
      <trkpt lat="43.44749" lon="6.60526">
        <ele>299.84107846767</ele>
        <time>2021-11-28T08:57:09Z</time>
      </trkpt>
      <trkpt lat="43.44749" lon="6.60525">
        <ele>300.84105097502</ele>
        <time>2021-11-28T08:57:17Z</time>
      </trkpt>
      <trkpt lat="43.44749" lon="6.60524">
        <ele>300.8410050422</ele>
        <time>2021-11-28T08:57:20Z</time>
      </trkpt>
      <trkpt lat="43.44749" lon="6.60523">
        <ele>301.84098626673</ele>
        <time>2021-11-28T08:57:21Z</time>
      </trkpt>
      <trkpt lat="43.44749" lon="6.60522">
        <ele>301.84093027562</ele>
        <time>2021-11-28T08:57:22Z</time>
      </trkpt>
      <trkpt lat="43.44749" lon="6.6052">
        <ele>301.84088501334</ele>
        <time>2021-11-28T08:57:23Z</time>
      </trkpt>
      <trkpt lat="43.44749" lon="6.60519">
        <ele>301.8408588618</ele>
        <time>2021-11-28T08:57:24Z</time>
      </trkpt>
      <trkpt lat="43.44749" lon="6.60517">
        <ele>300.84081427008</ele>
        <time>2021-11-28T08:57:25Z</time>
      </trkpt>
      <trkpt lat="43.44749" lon="6.60516">
        <ele>301.84073145688</ele>
        <time>2021-11-28T08:57:26Z</time>
      </trkpt>
      <trkpt lat="43.44749" lon="6.60515">
        <ele>300.84066138417</ele>
        <time>2021-11-28T08:57:27Z</time>
      </trkpt>
      <trkpt lat="43.44749" lon="6.60514">
        <ele>300.84059399366</ele>
        <time>2021-11-28T08:57:29Z</time>
      </trkpt>
      <trkpt lat="43.44749" lon="6.60512">
        <ele>301.84055074304</ele>
        <time>2021-11-28T08:57:30Z</time>
      </trkpt>
      <trkpt lat="43.44749" lon="6.60512">
        <ele>301.84051553905</ele>
        <time>2021-11-28T08:57:31Z</time>
      </trkpt>
      <trkpt lat="43.4475" lon="6.60511">
        <ele>302.84046390653</ele>
        <time>2021-11-28T08:57:32Z</time>
      </trkpt>
      <trkpt lat="43.44751" lon="6.60509">
        <ele>301.8402691111</ele>
        <time>2021-11-28T08:57:34Z</time>
      </trkpt>
      <trkpt lat="43.44751" lon="6.60508">
        <ele>301.8402268663</ele>
        <time>2021-11-28T08:57:36Z</time>
      </trkpt>
      <trkpt lat="43.4475" lon="6.60508">
        <ele>301.84030330926</ele>
        <time>2021-11-28T08:57:38Z</time>
      </trkpt>
      <trkpt lat="43.4475" lon="6.60508">
        <ele>301.84030330926</ele>
        <time>2021-11-28T08:57:44Z</time>
      </trkpt>
      <trkpt lat="43.4475" lon="6.60506">
        <ele>302.84022284299</ele>
        <time>2021-11-28T08:57:45Z</time>
      </trkpt>
      <trkpt lat="43.44751" lon="6.60505">
        <ele>302.84014572948</ele>
        <time>2021-11-28T08:57:47Z</time>
      </trkpt>
      <trkpt lat="43.44751" lon="6.60506">
        <ele>301.8401960209</ele>
        <time>2021-11-28T08:58:02Z</time>
      </trkpt>
      <trkpt lat="43.4475" lon="6.60505">
        <ele>302.84019400924</ele>
        <time>2021-11-28T08:58:03Z</time>
      </trkpt>
      <trkpt lat="43.4475" lon="6.60504">
        <ele>302.8401272893</ele>
        <time>2021-11-28T08:58:05Z</time>
      </trkpt>
      <trkpt lat="43.44751" lon="6.60504">
        <ele>304.840052858</ele>
        <time>2021-11-28T08:58:29Z</time>
      </trkpt>
      <trkpt lat="43.44752" lon="6.60504">
        <ele>303.84001966566</ele>
        <time>2021-11-28T08:58:33Z</time>
      </trkpt>
      <trkpt lat="43.44752" lon="6.60503">
        <ele>303.83994791657</ele>
        <time>2021-11-28T08:58:34Z</time>
      </trkpt>
      <trkpt lat="43.44752" lon="6.60502">
        <ele>303.83988052607</ele>
        <time>2021-11-28T08:58:36Z</time>
      </trkpt>
      <trkpt lat="43.44753" lon="6.60503">
        <ele>302.83986409754</ele>
        <time>2021-11-28T08:58:58Z</time>
      </trkpt>
      <trkpt lat="43.44754" lon="6.60503">
        <ele>302.83982889354</ele>
        <time>2021-11-28T09:00:03Z</time>
      </trkpt>
      <trkpt lat="43.44753" lon="6.60504">
        <ele>301.8398687914</ele>
        <time>2021-11-28T09:00:51Z</time>
      </trkpt>
      <trkpt lat="43.44753" lon="6.60504">
        <ele>301.83990131319</ele>
        <time>2021-11-28T09:00:53Z</time>
      </trkpt>
      <trkpt lat="43.44753" lon="6.60505">
        <ele>301.83996233344</ele>
        <time>2021-11-28T09:00:55Z</time>
      </trkpt>
      <trkpt lat="43.44753" lon="6.60504">
        <ele>301.83993048221</ele>
        <time>2021-11-28T09:00:56Z</time>
      </trkpt>
      <trkpt lat="43.44752" lon="6.60504">
        <ele>300.83996300399</ele>
        <time>2021-11-28T09:01:48Z</time>
      </trkpt>
      <trkpt lat="43.44753" lon="6.60505">
        <ele>300.83991170675</ele>
        <time>2021-11-28T09:01:50Z</time>
      </trkpt>
      <trkpt lat="43.44753" lon="6.60503">
        <ele>300.83993081748</ele>
        <time>2021-11-28T09:01:51Z</time>
      </trkpt>
      <trkpt lat="43.44753" lon="6.60504">
        <ele>300.83988086134</ele>
        <time>2021-11-28T09:02:08Z</time>
      </trkpt>
      <trkpt lat="43.44752" lon="6.60505">
        <ele>301.8399938494</ele>
        <time>2021-11-28T09:02:10Z</time>
      </trkpt>
      <trkpt lat="43.44753" lon="6.60504">
        <ele>301.83990868926</ele>
        <time>2021-11-28T09:02:11Z</time>
      </trkpt>
      <trkpt lat="43.44753" lon="6.60505">
        <ele>300.83995663375</ele>
        <time>2021-11-28T09:02:22Z</time>
      </trkpt>
      <trkpt lat="43.44753" lon="6.60504">
        <ele>300.83995395154</ele>
        <time>2021-11-28T09:02:43Z</time>
      </trkpt>
      <trkpt lat="43.44753" lon="6.60504">
        <ele>299.83995495737</ele>
        <time>2021-11-28T09:03:03Z</time>
      </trkpt>
      <trkpt lat="43.44753" lon="6.60506">
        <ele>298.83997105062</ele>
        <time>2021-11-28T09:03:05Z</time>
      </trkpt>
      <trkpt lat="43.44753" lon="6.60504">
        <ele>299.83992444724</ele>
        <time>2021-11-28T09:03:06Z</time>
      </trkpt>
      <trkpt lat="43.44754" lon="6.60504">
        <ele>299.83984733373</ele>
        <time>2021-11-28T09:03:33Z</time>
      </trkpt>
      <trkpt lat="43.44754" lon="6.60502">
        <ele>300.8398168236</ele>
        <time>2021-11-28T09:04:23Z</time>
      </trkpt>
      <trkpt lat="43.44753" lon="6.60503">
        <ele>302.83986443281</ele>
        <time>2021-11-28T09:04:52Z</time>
      </trkpt>
      <trkpt lat="43.44753" lon="6.60503">
        <ele>302.8399194181</ele>
        <time>2021-11-28T09:05:46Z</time>
      </trkpt>
      <trkpt lat="43.44753" lon="6.60504">
        <ele>302.83990600705</ele>
        <time>2021-11-28T09:05:48Z</time>
      </trkpt>
      <trkpt lat="43.44753" lon="6.60504">
        <ele>302.83991070092</ele>
        <time>2021-11-28T09:06:31Z</time>
      </trkpt>
      <trkpt lat="43.44753" lon="6.60502">
        <ele>301.83985772729</ele>
        <time>2021-11-28T09:06:33Z</time>
      </trkpt>
      <trkpt lat="43.44752" lon="6.60503">
        <ele>300.83996266872</ele>
        <time>2021-11-28T09:06:35Z</time>
      </trkpt>
      <trkpt lat="43.44753" lon="6.60502">
        <ele>301.83983492851</ele>
        <time>2021-11-28T09:06:36Z</time>
      </trkpt>
      <trkpt lat="43.44753" lon="6.60502">
        <ele>300.8398238644</ele>
        <time>2021-11-28T09:08:17Z</time>
      </trkpt>
      <trkpt lat="43.44754" lon="6.60503">
        <ele>300.83980374783</ele>
        <time>2021-11-28T09:08:19Z</time>
      </trkpt>
      <trkpt lat="43.44753" lon="6.60501">
        <ele>300.83983861655</ele>
        <time>2021-11-28T09:08:20Z</time>
      </trkpt>
      <trkpt lat="43.44753" lon="6.60502">
        <ele>300.83985269815</ele>
        <time>2021-11-28T09:08:23Z</time>
      </trkpt>
      <trkpt lat="43.44752" lon="6.60503">
        <ele>301.83993986994</ele>
        <time>2021-11-28T09:08:25Z</time>
      </trkpt>
      <trkpt lat="43.44753" lon="6.60502">
        <ele>301.83985672146</ele>
        <time>2021-11-28T09:08:26Z</time>
      </trkpt>
      <trkpt lat="43.44753" lon="6.60501">
        <ele>301.83984096348</ele>
        <time>2021-11-28T09:08:41Z</time>
      </trkpt>
      <trkpt lat="43.44752" lon="6.60503">
        <ele>301.83998312056</ele>
        <time>2021-11-28T09:08:43Z</time>
      </trkpt>
      <trkpt lat="43.44752" lon="6.60502">
        <ele>301.83996266872</ele>
        <time>2021-11-28T09:09:13Z</time>
      </trkpt>
      <trkpt lat="43.44751" lon="6.60504">
        <ele>301.84005855769</ele>
        <time>2021-11-28T09:09:15Z</time>
      </trkpt>
      <trkpt lat="43.44752" lon="6.60502">
        <ele>301.83993752301</ele>
        <time>2021-11-28T09:09:16Z</time>
      </trkpt>
      <trkpt lat="43.44752" lon="6.60502">
        <ele>301.83993752301</ele>
        <time>2021-11-28T09:09:18Z</time>
      </trkpt>
      <trkpt lat="43.44751" lon="6.60504">
        <ele>301.84005453438</ele>
        <time>2021-11-28T09:09:20Z</time>
      </trkpt>
      <trkpt lat="43.44752" lon="6.60503">
        <ele>302.83992981166</ele>
        <time>2021-11-28T09:09:21Z</time>
      </trkpt>
      <trkpt lat="43.44752" lon="6.60503">
        <ele>301.83997172117</ele>
        <time>2021-11-28T09:09:36Z</time>
      </trkpt>
      <trkpt lat="43.44751" lon="6.60504">
        <ele>301.84005855769</ele>
        <time>2021-11-28T09:09:38Z</time>
      </trkpt>
      <trkpt lat="43.44751" lon="6.60504">
        <ele>302.84007934481</ele>
        <time>2021-11-28T09:09:48Z</time>
      </trkpt>
      <trkpt lat="43.4475" lon="6.60505">
        <ele>302.84016852826</ele>
        <time>2021-11-28T09:09:50Z</time>
      </trkpt>
      <trkpt lat="43.44751" lon="6.60503">
        <ele>302.84004984051</ele>
        <time>2021-11-28T09:09:51Z</time>
      </trkpt>
      <trkpt lat="43.44751" lon="6.60504">
        <ele>302.84005688131</ele>
        <time>2021-11-28T09:09:56Z</time>
      </trkpt>
      <trkpt lat="43.44751" lon="6.60505">
        <ele>302.84008403867</ele>
        <time>2021-11-28T09:10:06Z</time>
      </trkpt>
      <trkpt lat="43.44752" lon="6.60504">
        <ele>302.84002268314</ele>
        <time>2021-11-28T09:10:18Z</time>
      </trkpt>
      <trkpt lat="43.44752" lon="6.60505">
        <ele>302.84008068591</ele>
        <time>2021-11-28T09:10:20Z</time>
      </trkpt>
      <trkpt lat="43.44751" lon="6.60504">
        <ele>302.84004045278</ele>
        <time>2021-11-28T09:10:21Z</time>
      </trkpt>
      <trkpt lat="43.44751" lon="6.60505">
        <ele>303.84009443223</ele>
        <time>2021-11-28T09:10:28Z</time>
      </trkpt>
      <trkpt lat="43.44751" lon="6.60506">
        <ele>303.8401299715</ele>
        <time>2021-11-28T09:10:40Z</time>
      </trkpt>
      <trkpt lat="43.44752" lon="6.60504">
        <ele>303.84003207088</ele>
        <time>2021-11-28T09:10:41Z</time>
      </trkpt>
      <trkpt lat="43.44752" lon="6.60504">
        <ele>303.84003207088</ele>
        <time>2021-11-28T09:12:07Z</time>
      </trkpt>
      <trkpt lat="43.44753" lon="6.60505">
        <ele>303.83996669203</ele>
        <time>2021-11-28T09:12:09Z</time>
      </trkpt>
      <trkpt lat="43.44751" lon="6.60504">
        <ele>303.84004984051</ele>
        <time>2021-11-28T09:12:10Z</time>
      </trkpt>
      <trkpt lat="43.44752" lon="6.60504">
        <ele>304.84002167732</ele>
        <time>2021-11-28T09:12:23Z</time>
      </trkpt>
      <trkpt lat="43.44752" lon="6.60502">
        <ele>304.83986912668</ele>
        <time>2021-11-28T09:12:25Z</time>
      </trkpt>
      <trkpt lat="43.44752" lon="6.60502">
        <ele>304.83994221687</ele>
        <time>2021-11-28T09:12:27Z</time>
      </trkpt>
      <trkpt lat="43.44752" lon="6.60503">
        <ele>304.83994858712</ele>
        <time>2021-11-28T09:13:18Z</time>
      </trkpt>
      <trkpt lat="43.44752" lon="6.60503">
        <ele>304.83994691074</ele>
        <time>2021-11-28T09:13:28Z</time>
      </trkpt>
      <trkpt lat="43.44753" lon="6.60504">
        <ele>304.83990600705</ele>
        <time>2021-11-28T09:13:30Z</time>
      </trkpt>
      <trkpt lat="43.44753" lon="6.60503">
        <ele>304.83991807699</ele>
        <time>2021-11-28T09:13:31Z</time>
      </trkpt>
      <trkpt lat="43.44753" lon="6.60503">
        <ele>304.83986108005</ele>
        <time>2021-11-28T09:13:34Z</time>
      </trkpt>
      <trkpt lat="43.44752" lon="6.60503">
        <ele>304.8399432227</ele>
        <time>2021-11-28T09:13:35Z</time>
      </trkpt>
      <trkpt lat="43.44752" lon="6.60503">
        <ele>303.83992243558</ele>
        <time>2021-11-28T09:15:13Z</time>
      </trkpt>
      <trkpt lat="43.44752" lon="6.60503">
        <ele>304.8399586454</ele>
        <time>2021-11-28T09:15:43Z</time>
      </trkpt>
      <trkpt lat="43.44752" lon="6.60504">
        <ele>303.83996233344</ele>
        <time>2021-11-28T09:15:46Z</time>
      </trkpt>
      <trkpt lat="43.44752" lon="6.60503">
        <ele>303.83996602148</ele>
        <time>2021-11-28T09:16:08Z</time>
      </trkpt>
      <trkpt lat="43.44751" lon="6.60504">
        <ele>304.84003542364</ele>
        <time>2021-11-28T09:16:18Z</time>
      </trkpt>
      <trkpt lat="43.44752" lon="6.60505">
        <ele>302.84003039449</ele>
        <time>2021-11-28T09:16:44Z</time>
      </trkpt>
      <trkpt lat="43.44751" lon="6.60506">
        <ele>302.84012058377</ele>
        <time>2021-11-28T09:16:46Z</time>
      </trkpt>
      <trkpt lat="43.44752" lon="6.60504">
        <ele>303.84002134204</ele>
        <time>2021-11-28T09:16:47Z</time>
      </trkpt>
      <trkpt lat="43.44753" lon="6.60505">
        <ele>302.83998177946</ele>
        <time>2021-11-28T09:17:11Z</time>
      </trkpt>
      <trkpt lat="43.44751" lon="6.60505">
        <ele>302.84009275585</ele>
        <time>2021-11-28T09:17:12Z</time>
      </trkpt>
      <trkpt lat="43.44752" lon="6.60505">
        <ele>302.84003575891</ele>
        <time>2021-11-28T09:17:24Z</time>
      </trkpt>
      <trkpt lat="43.44752" lon="6.60504">
        <ele>302.83997809142</ele>
        <time>2021-11-28T09:17:26Z</time>
      </trkpt>
      <trkpt lat="43.44752" lon="6.60505">
        <ele>302.84005989879</ele>
        <time>2021-11-28T09:17:27Z</time>
      </trkpt>
      <trkpt lat="43.44751" lon="6.60505">
        <ele>303.84012594819</ele>
        <time>2021-11-28T09:18:06Z</time>
      </trkpt>
      <trkpt lat="43.44752" lon="6.60504">
        <ele>303.84003508836</ele>
        <time>2021-11-28T09:18:07Z</time>
      </trkpt>
      <trkpt lat="43.44752" lon="6.60504">
        <ele>303.84001933038</ele>
        <time>2021-11-28T09:19:21Z</time>
      </trkpt>
      <trkpt lat="43.44751" lon="6.60505">
        <ele>304.8401145488</ele>
        <time>2021-11-28T09:19:22Z</time>
      </trkpt>
      <trkpt lat="43.44751" lon="6.60505">
        <ele>304.84012795985</ele>
        <time>2021-11-28T09:19:58Z</time>
      </trkpt>
      <trkpt lat="43.44751" lon="6.60505">
        <ele>304.84008772671</ele>
        <time>2021-11-28T09:20:39Z</time>
      </trkpt>
      <trkpt lat="43.44751" lon="6.60505">
        <ele>305.84010381997</ele>
        <time>2021-11-28T09:20:47Z</time>
      </trkpt>
      <trkpt lat="43.44752" lon="6.60504">
        <ele>305.84001966566</ele>
        <time>2021-11-28T09:20:49Z</time>
      </trkpt>
      <trkpt lat="43.44752" lon="6.60505">
        <ele>305.84004212916</ele>
        <time>2021-11-28T09:21:32Z</time>
      </trkpt>
      <trkpt lat="43.44752" lon="6.60504">
        <ele>305.84004883468</ele>
        <time>2021-11-28T09:22:13Z</time>
      </trkpt>
      <trkpt lat="43.44751" lon="6.60505">
        <ele>305.84014070034</ele>
        <time>2021-11-28T09:22:15Z</time>
      </trkpt>
      <trkpt lat="43.44751" lon="6.60505">
        <ele>305.84013768286</ele>
        <time>2021-11-28T09:22:33Z</time>
      </trkpt>
      <trkpt lat="43.4475" lon="6.60504">
        <ele>307.84019065648</ele>
        <time>2021-11-28T09:22:35Z</time>
      </trkpt>
      <trkpt lat="43.4475" lon="6.60503">
        <ele>306.84013768286</ele>
        <time>2021-11-28T09:23:12Z</time>
      </trkpt>
      <trkpt lat="43.4475" lon="6.60504">
        <ele>305.84011052549</ele>
        <time>2021-11-28T09:23:14Z</time>
      </trkpt>
      <trkpt lat="43.44751" lon="6.60504">
        <ele>305.84007364511</ele>
        <time>2021-11-28T09:24:34Z</time>
      </trkpt>
      <trkpt lat="43.44752" lon="6.60504">
        <ele>304.84003810585</ele>
        <time>2021-11-28T09:24:37Z</time>
      </trkpt>
      <trkpt lat="43.44751" lon="6.60505">
        <ele>305.8401440531</ele>
        <time>2021-11-28T09:24:38Z</time>
      </trkpt>
      <trkpt lat="43.44751" lon="6.60506">
        <ele>303.84016316384</ele>
        <time>2021-11-28T09:25:39Z</time>
      </trkpt>
      <trkpt lat="43.44751" lon="6.60507">
        <ele>303.84023591876</ele>
        <time>2021-11-28T09:25:41Z</time>
      </trkpt>
      <trkpt lat="43.44751" lon="6.60506">
        <ele>304.84016416967</ele>
        <time>2021-11-28T09:25:42Z</time>
      </trkpt>
      <trkpt lat="43.44751" lon="6.60505">
        <ele>304.84014472365</ele>
        <time>2021-11-28T09:26:22Z</time>
      </trkpt>
      <trkpt lat="43.4475" lon="6.60504">
        <ele>305.84018562734</ele>
        <time>2021-11-28T09:26:24Z</time>
      </trkpt>
      <trkpt lat="43.4475" lon="6.60505">
        <ele>305.8402114436</ele>
        <time>2021-11-28T09:26:32Z</time>
      </trkpt>
      <trkpt lat="43.4475" lon="6.60505">
        <ele>304.84019736201</ele>
        <time>2021-11-28T09:26:36Z</time>
      </trkpt>
      <trkpt lat="43.44751" lon="6.60504">
        <ele>304.84006358683</ele>
        <time>2021-11-28T09:26:37Z</time>
      </trkpt>
      <trkpt lat="43.44752" lon="6.60503">
        <ele>304.83999820799</ele>
        <time>2021-11-28T09:26:40Z</time>
      </trkpt>
      <trkpt lat="43.44752" lon="6.60503">
        <ele>303.83995998651</ele>
        <time>2021-11-28T09:26:59Z</time>
      </trkpt>
      <trkpt lat="43.44751" lon="6.60503">
        <ele>304.84003810585</ele>
        <time>2021-11-28T09:27:01Z</time>
      </trkpt>
      <trkpt lat="43.44751" lon="6.60503">
        <ele>304.8400246948</ele>
        <time>2021-11-28T09:27:02Z</time>
      </trkpt>
      <trkpt lat="43.44753" lon="6.60503">
        <ele>304.83990164846</ele>
        <time>2021-11-28T09:27:03Z</time>
      </trkpt>
      <trkpt lat="43.44752" lon="6.60503">
        <ele>304.83994556963</ele>
        <time>2021-11-28T09:27:56Z</time>
      </trkpt>
      <trkpt lat="43.44752" lon="6.60504">
        <ele>304.84001664817</ele>
        <time>2021-11-28T09:28:27Z</time>
      </trkpt>
      <trkpt lat="43.44752" lon="6.60504">
        <ele>304.8400387764</ele>
        <time>2021-11-28T09:28:33Z</time>
      </trkpt>
      <trkpt lat="43.4475" lon="6.60504">
        <ele>304.84014572948</ele>
        <time>2021-11-28T09:28:35Z</time>
      </trkpt>
      <trkpt lat="43.44751" lon="6.60504">
        <ele>305.84011555463</ele>
        <time>2021-11-28T09:28:43Z</time>
      </trkpt>
      <trkpt lat="43.4475" lon="6.60505">
        <ele>306.84018227458</ele>
        <time>2021-11-28T09:28:57Z</time>
      </trkpt>
      <trkpt lat="43.44749" lon="6.60504">
        <ele>306.84022183716</ele>
        <time>2021-11-28T09:28:59Z</time>
      </trkpt>
      <trkpt lat="43.44749" lon="6.60504">
        <ele>306.84023156017</ele>
        <time>2021-11-28T09:29:00Z</time>
      </trkpt>
      <trkpt lat="43.4475" lon="6.60506">
        <ele>306.84022653103</ele>
        <time>2021-11-28T09:29:01Z</time>
      </trkpt>
      <trkpt lat="43.4475" lon="6.60506">
        <ele>306.84022653103</ele>
        <time>2021-11-28T09:29:04Z</time>
      </trkpt>
      <trkpt lat="43.4475" lon="6.60505">
        <ele>306.84022988379</ele>
        <time>2021-11-28T09:30:31Z</time>
      </trkpt>
      <trkpt lat="43.44749" lon="6.60505">
        <ele>306.84030465037</ele>
        <time>2021-11-28T09:30:32Z</time>
      </trkpt>
      <trkpt lat="43.44749" lon="6.60506">
        <ele>306.84031035006</ele>
        <time>2021-11-28T09:30:39Z</time>
      </trkpt>
      <trkpt lat="43.44748" lon="6.60506">
        <ele>306.84039215744</ele>
        <time>2021-11-28T09:30:41Z</time>
      </trkpt>
      <trkpt lat="43.44749" lon="6.60506">
        <ele>307.84035293013</ele>
        <time>2021-11-28T09:30:58Z</time>
      </trkpt>
      <trkpt lat="43.44749" lon="6.60506">
        <ele>307.84029593319</ele>
        <time>2021-11-28T09:31:12Z</time>
      </trkpt>
      <trkpt lat="43.4475" lon="6.60507">
        <ele>305.84030062705</ele>
        <time>2021-11-28T09:31:14Z</time>
      </trkpt>
      <trkpt lat="43.4475" lon="6.60507">
        <ele>305.84029258043</ele>
        <time>2021-11-28T09:31:42Z</time>
      </trkpt>
      <trkpt lat="43.44751" lon="6.60507">
        <ele>305.84022720158</ele>
        <time>2021-11-28T09:31:44Z</time>
      </trkpt>
      <trkpt lat="43.44751" lon="6.60507">
        <ele>305.84023424238</ele>
        <time>2021-11-28T09:31:57Z</time>
      </trkpt>
      <trkpt lat="43.4475" lon="6.60507">
        <ele>306.84027380496</ele>
        <time>2021-11-28T09:31:58Z</time>
      </trkpt>
      <trkpt lat="43.44751" lon="6.60506">
        <ele>305.8401946798</ele>
        <time>2021-11-28T09:32:00Z</time>
      </trkpt>
      <trkpt lat="43.44751" lon="6.60504">
        <ele>304.84003240615</ele>
        <time>2021-11-28T09:32:02Z</time>
      </trkpt>
      <trkpt lat="43.44751" lon="6.60504">
        <ele>303.84010549635</ele>
        <time>2021-11-28T09:32:04Z</time>
      </trkpt>
      <trkpt lat="43.4475" lon="6.60504">
        <ele>303.84014070034</ele>
        <time>2021-11-28T09:32:05Z</time>
      </trkpt>
      <trkpt lat="43.4475" lon="6.60505">
        <ele>303.84021915495</ele>
        <time>2021-11-28T09:32:18Z</time>
      </trkpt>
      <trkpt lat="43.44749" lon="6.60504">
        <ele>305.84025938809</ele>
        <time>2021-11-28T09:32:20Z</time>
      </trkpt>
      <trkpt lat="43.44749" lon="6.60503">
        <ele>305.8402396068</ele>
        <time>2021-11-28T09:32:27Z</time>
      </trkpt>
      <trkpt lat="43.44749" lon="6.60502">
        <ele>306.84020775557</ele>
        <time>2021-11-28T09:32:28Z</time>
      </trkpt>
      <trkpt lat="43.44748" lon="6.60501">
        <ele>306.84018260986</ele>
        <time>2021-11-28T09:32:33Z</time>
      </trkpt>
      <trkpt lat="43.44748" lon="6.60501">
        <ele>304.8401960209</ele>
        <time>2021-11-28T09:32:35Z</time>
      </trkpt>
      <trkpt lat="43.44748" lon="6.605">
        <ele>304.84014707059</ele>
        <time>2021-11-28T09:32:36Z</time>
      </trkpt>
      <trkpt lat="43.44749" lon="6.60499">
        <ele>304.84001463652</ele>
        <time>2021-11-28T09:32:37Z</time>
      </trkpt>
      <trkpt lat="43.44749" lon="6.60498">
        <ele>303.83995696902</ele>
        <time>2021-11-28T09:32:40Z</time>
      </trkpt>
      <trkpt lat="43.4475" lon="6.60497">
        <ele>303.83993048221</ele>
        <time>2021-11-28T09:32:42Z</time>
      </trkpt>
      <trkpt lat="43.4475" lon="6.60497">
        <ele>301.83985437453</ele>
        <time>2021-11-28T09:32:44Z</time>
      </trkpt>
      <trkpt lat="43.44751" lon="6.60496">
        <ele>300.83978966624</ele>
        <time>2021-11-28T09:32:46Z</time>
      </trkpt>
      <trkpt lat="43.44751" lon="6.60497">
        <ele>300.83977759629</ele>
        <time>2021-11-28T09:33:05Z</time>
      </trkpt>
      <trkpt lat="43.44751" lon="6.60498">
        <ele>297.8398322463</ele>
        <time>2021-11-28T09:33:09Z</time>
      </trkpt>
      <trkpt lat="43.44752" lon="6.60498">
        <ele>297.8397789374</ele>
        <time>2021-11-28T09:33:11Z</time>
      </trkpt>
      <trkpt lat="43.44751" lon="6.60497">
        <ele>296.83977390826</ele>
        <time>2021-11-28T09:33:17Z</time>
      </trkpt>
      <trkpt lat="43.44751" lon="6.60498">
        <ele>296.83982621133</ele>
        <time>2021-11-28T09:33:25Z</time>
      </trkpt>
      <trkpt lat="43.44751" lon="6.60498">
        <ele>296.83987415582</ele>
        <time>2021-11-28T09:33:38Z</time>
      </trkpt>
      <trkpt lat="43.44751" lon="6.60499">
        <ele>298.83992411196</ele>
        <time>2021-11-28T09:33:39Z</time>
      </trkpt>
      <trkpt lat="43.4475" lon="6.605">
        <ele>298.84001195431</ele>
        <time>2021-11-28T09:33:40Z</time>
      </trkpt>
      <trkpt lat="43.4475" lon="6.60501">
        <ele>299.84005654603</ele>
        <time>2021-11-28T09:33:52Z</time>
      </trkpt>
      <trkpt lat="43.44749" lon="6.605">
        <ele>299.84011153132</ele>
        <time>2021-11-28T09:34:00Z</time>
      </trkpt>
      <trkpt lat="43.44749" lon="6.60499">
        <ele>299.84000960737</ele>
        <time>2021-11-28T09:34:02Z</time>
      </trkpt>
      <trkpt lat="43.4475" lon="6.60499">
        <ele>299.83996937424</ele>
        <time>2021-11-28T09:34:04Z</time>
      </trkpt>
      <trkpt lat="43.4475" lon="6.60498">
        <ele>299.83987985551</ele>
        <time>2021-11-28T09:34:06Z</time>
      </trkpt>
      <trkpt lat="43.44751" lon="6.60497">
        <ele>298.83979838341</ele>
        <time>2021-11-28T09:34:18Z</time>
      </trkpt>
      <trkpt lat="43.44752" lon="6.60496">
        <ele>297.83971691132</ele>
        <time>2021-11-28T09:34:20Z</time>
      </trkpt>
      <trkpt lat="43.44751" lon="6.60496">
        <ele>298.8397859782</ele>
        <time>2021-11-28T09:34:21Z</time>
      </trkpt>
      <trkpt lat="43.4475" lon="6.60496">
        <ele>298.83981984109</ele>
        <time>2021-11-28T09:34:22Z</time>
      </trkpt>
      <trkpt lat="43.4475" lon="6.60497">
        <ele>298.83986376226</ele>
        <time>2021-11-28T09:34:25Z</time>
      </trkpt>
      <trkpt lat="43.4475" lon="6.60497">
        <ele>297.83989024907</ele>
        <time>2021-11-28T09:34:47Z</time>
      </trkpt>
      <trkpt lat="43.44749" lon="6.60497">
        <ele>297.83995093405</ele>
        <time>2021-11-28T09:34:48Z</time>
      </trkpt>
      <trkpt lat="43.44748" lon="6.60497">
        <ele>296.83998982608</ele>
        <time>2021-11-28T09:34:49Z</time>
      </trkpt>
      <trkpt lat="43.44748" lon="6.60496">
        <ele>297.83999451995</ele>
        <time>2021-11-28T09:34:53Z</time>
      </trkpt>
      <trkpt lat="43.44747" lon="6.60498">
        <ele>297.84013835341</ele>
        <time>2021-11-28T09:34:55Z</time>
      </trkpt>
      <trkpt lat="43.44748" lon="6.60497">
        <ele>298.84000491351</ele>
        <time>2021-11-28T09:34:57Z</time>
      </trkpt>
      <trkpt lat="43.44749" lon="6.60497">
        <ele>299.83993752301</ele>
        <time>2021-11-28T09:35:01Z</time>
      </trkpt>
      <trkpt lat="43.4475" lon="6.60497">
        <ele>298.83988790214</ele>
        <time>2021-11-28T09:35:02Z</time>
      </trkpt>
      <trkpt lat="43.4475" lon="6.60496">
        <ele>298.8398463279</ele>
        <time>2021-11-28T09:35:03Z</time>
      </trkpt>
      <trkpt lat="43.4475" lon="6.60496">
        <ele>297.8398449868</ele>
        <time>2021-11-28T09:35:09Z</time>
      </trkpt>
      <trkpt lat="43.44748" lon="6.60496">
        <ele>296.83997842669</ele>
        <time>2021-11-28T09:35:11Z</time>
      </trkpt>
      <trkpt lat="43.44748" lon="6.60496">
        <ele>296.83997842669</ele>
        <time>2021-11-28T09:35:14Z</time>
      </trkpt>
      <trkpt lat="43.44747" lon="6.60496">
        <ele>294.84011052549</ele>
        <time>2021-11-28T09:35:16Z</time>
      </trkpt>
      <trkpt lat="43.44747" lon="6.60497">
        <ele>295.84008035064</ele>
        <time>2021-11-28T09:35:24Z</time>
      </trkpt>
      <trkpt lat="43.44748" lon="6.60499">
        <ele>295.84012393653</ele>
        <time>2021-11-28T09:35:26Z</time>
      </trkpt>
      <trkpt lat="43.44747" lon="6.60499">
        <ele>296.84018629789</ele>
        <time>2021-11-28T09:35:27Z</time>
      </trkpt>
      <trkpt lat="43.44747" lon="6.60499">
        <ele>296.84017657489</ele>
        <time>2021-11-28T09:35:30Z</time>
      </trkpt>
      <trkpt lat="43.44749" lon="6.60498">
        <ele>296.8400401175</ele>
        <time>2021-11-28T09:35:32Z</time>
      </trkpt>
      <trkpt lat="43.44748" lon="6.60498">
        <ele>297.84011287242</ele>
        <time>2021-11-28T09:35:37Z</time>
      </trkpt>
      <trkpt lat="43.44749" lon="6.60499">
        <ele>297.84006459266</ele>
        <time>2021-11-28T09:35:41Z</time>
      </trkpt>
      <trkpt lat="43.44749" lon="6.60499">
        <ele>297.84002637118</ele>
        <time>2021-11-28T09:35:42Z</time>
      </trkpt>
      <trkpt lat="43.44749" lon="6.60499">
        <ele>298.83999217302</ele>
        <time>2021-11-28T09:35:53Z</time>
      </trkpt>
      <trkpt lat="43.44749" lon="6.60498">
        <ele>298.83998412639</ele>
        <time>2021-11-28T09:36:03Z</time>
      </trkpt>
      <trkpt lat="43.4475" lon="6.60497">
        <ele>297.83992243558</ele>
        <time>2021-11-28T09:36:04Z</time>
      </trkpt>
      <trkpt lat="43.44749" lon="6.60496">
        <ele>297.83989192545</ele>
        <time>2021-11-28T09:36:06Z</time>
      </trkpt>
      <trkpt lat="43.44749" lon="6.60496">
        <ele>297.83989192545</ele>
        <time>2021-11-28T09:36:07Z</time>
      </trkpt>
      <trkpt lat="43.44748" lon="6.60494">
        <ele>296.83994556963</ele>
        <time>2021-11-28T09:36:08Z</time>
      </trkpt>
      <trkpt lat="43.44748" lon="6.60493">
        <ele>296.83986409754</ele>
        <time>2021-11-28T09:36:10Z</time>
      </trkpt>
      <trkpt lat="43.44748" lon="6.60493">
        <ele>296.83984129876</ele>
        <time>2021-11-28T09:36:12Z</time>
      </trkpt>
      <trkpt lat="43.44748" lon="6.60492">
        <ele>296.83985806257</ele>
        <time>2021-11-28T09:36:13Z</time>
      </trkpt>
      <trkpt lat="43.44748" lon="6.60491">
        <ele>297.83980643004</ele>
        <time>2021-11-28T09:36:15Z</time>
      </trkpt>
      <trkpt lat="43.44748" lon="6.60491">
        <ele>297.83979938924</ele>
        <time>2021-11-28T09:36:26Z</time>
      </trkpt>
      <trkpt lat="43.44747" lon="6.60492">
        <ele>294.83993014693</ele>
        <time>2021-11-28T09:36:27Z</time>
      </trkpt>
      <trkpt lat="43.44747" lon="6.60492">
        <ele>294.83990265429</ele>
        <time>2021-11-28T09:36:39Z</time>
      </trkpt>
      <trkpt lat="43.44747" lon="6.60492">
        <ele>292.83991036564</ele>
        <time>2021-11-28T09:36:50Z</time>
      </trkpt>
      <trkpt lat="43.44745" lon="6.60492">
        <ele>293.84005118161</ele>
        <time>2021-11-28T09:36:52Z</time>
      </trkpt>
      <trkpt lat="43.44745" lon="6.60491">
        <ele>294.84005252272</ele>
        <time>2021-11-28T09:36:56Z</time>
      </trkpt>
      <trkpt lat="43.44745" lon="6.60491">
        <ele>295.83999083191</ele>
        <time>2021-11-28T09:36:57Z</time>
      </trkpt>
      <trkpt lat="43.44746" lon="6.6049">
        <ele>296.83991539478</ele>
        <time>2021-11-28T09:36:59Z</time>
      </trkpt>
      <trkpt lat="43.44746" lon="6.6049">
        <ele>296.83986979723</ele>
        <time>2021-11-28T09:37:03Z</time>
      </trkpt>
      <trkpt lat="43.44747" lon="6.60488">
        <ele>295.83973870426</ele>
        <time>2021-11-28T09:37:04Z</time>
      </trkpt>
      <trkpt lat="43.44746" lon="6.60487">
        <ele>295.83977558464</ele>
        <time>2021-11-28T09:37:06Z</time>
      </trkpt>
      <trkpt lat="43.44746" lon="6.60487">
        <ele>295.83980710059</ele>
        <time>2021-11-28T09:37:08Z</time>
      </trkpt>
      <trkpt lat="43.44745" lon="6.60485">
        <ele>295.83977625519</ele>
        <time>2021-11-28T09:37:10Z</time>
      </trkpt>
      <trkpt lat="43.44745" lon="6.60484">
        <ele>295.83974406868</ele>
        <time>2021-11-28T09:37:11Z</time>
      </trkpt>
      <trkpt lat="43.44745" lon="6.60484">
        <ele>295.8397802785</ele>
        <time>2021-11-28T09:37:15Z</time>
      </trkpt>
      <trkpt lat="43.44744" lon="6.60483">
        <ele>295.83975949138</ele>
        <time>2021-11-28T09:37:17Z</time>
      </trkpt>
      <trkpt lat="43.44744" lon="6.60482">
        <ele>295.83978329599</ele>
        <time>2021-11-28T09:37:18Z</time>
      </trkpt>
      <trkpt lat="43.44743" lon="6.60481">
        <ele>295.83977223188</ele>
        <time>2021-11-28T09:37:19Z</time>
      </trkpt>
      <trkpt lat="43.44743" lon="6.6048">
        <ele>295.8397718966</ele>
        <time>2021-11-28T09:37:20Z</time>
      </trkpt>
      <trkpt lat="43.44742" lon="6.60479">
        <ele>294.83978497237</ele>
        <time>2021-11-28T09:37:23Z</time>
      </trkpt>
      <trkpt lat="43.44742" lon="6.60479">
        <ele>294.83980173618</ele>
        <time>2021-11-28T09:37:24Z</time>
      </trkpt>
      <trkpt lat="43.44741" lon="6.60479">
        <ele>294.83984263986</ele>
        <time>2021-11-28T09:37:25Z</time>
      </trkpt>
      <trkpt lat="43.44741" lon="6.60478">
        <ele>294.83986141533</ele>
        <time>2021-11-28T09:37:27Z</time>
      </trkpt>
      <trkpt lat="43.44741" lon="6.60477">
        <ele>294.83981648833</ele>
        <time>2021-11-28T09:37:30Z</time>
      </trkpt>
      <trkpt lat="43.44741" lon="6.60476">
        <ele>293.83977994323</ele>
        <time>2021-11-28T09:37:35Z</time>
      </trkpt>
      <trkpt lat="43.4474" lon="6.60474">
        <ele>292.83978933096</ele>
        <time>2021-11-28T09:37:36Z</time>
      </trkpt>
      <trkpt lat="43.44739" lon="6.60473">
        <ele>292.83979167789</ele>
        <time>2021-11-28T09:37:37Z</time>
      </trkpt>
      <trkpt lat="43.44739" lon="6.60473">
        <ele>292.83982822299</ele>
        <time>2021-11-28T09:37:38Z</time>
      </trkpt>
      <trkpt lat="43.44738" lon="6.60473">
        <ele>291.83984364569</ele>
        <time>2021-11-28T09:37:39Z</time>
      </trkpt>
      <trkpt lat="43.44738" lon="6.6047">
        <ele>291.83975278586</ele>
        <time>2021-11-28T09:37:41Z</time>
      </trkpt>
      <trkpt lat="43.44737" lon="6.60469">
        <ele>293.83978128433</ele>
        <time>2021-11-28T09:37:52Z</time>
      </trkpt>
      <trkpt lat="43.44736" lon="6.60469">
        <ele>295.839837946</ele>
        <time>2021-11-28T09:37:53Z</time>
      </trkpt>
      <trkpt lat="43.44736" lon="6.60469">
        <ele>295.83988689631</ele>
        <time>2021-11-28T09:37:54Z</time>
      </trkpt>
      <trkpt lat="43.44735" lon="6.60468">
        <ele>295.83989494294</ele>
        <time>2021-11-28T09:37:55Z</time>
      </trkpt>
      <trkpt lat="43.44735" lon="6.60468">
        <ele>295.83992947638</ele>
        <time>2021-11-28T09:37:57Z</time>
      </trkpt>
      <trkpt lat="43.44735" lon="6.60467">
        <ele>294.83991304785</ele>
        <time>2021-11-28T09:37:58Z</time>
      </trkpt>
      <trkpt lat="43.44735" lon="6.60466">
        <ele>294.83988555521</ele>
        <time>2021-11-28T09:37:59Z</time>
      </trkpt>
      <trkpt lat="43.44735" lon="6.60466">
        <ele>295.83984532207</ele>
        <time>2021-11-28T09:38:08Z</time>
      </trkpt>
      <trkpt lat="43.44736" lon="6.60465">
        <ele>292.83977122605</ele>
        <time>2021-11-28T09:38:12Z</time>
      </trkpt>
      <trkpt lat="43.44736" lon="6.60465">
        <ele>292.839757815</ele>
        <time>2021-11-28T09:38:13Z</time>
      </trkpt>
      <trkpt lat="43.44736" lon="6.60464">
        <ele>292.83969813585</ele>
        <time>2021-11-28T09:38:14Z</time>
      </trkpt>
      <trkpt lat="43.44736" lon="6.60463">
        <ele>292.83961096406</ele>
        <time>2021-11-28T09:38:16Z</time>
      </trkpt>
      <trkpt lat="43.44736" lon="6.60463">
        <ele>292.83961096406</ele>
        <time>2021-11-28T09:38:18Z</time>
      </trkpt>
      <trkpt lat="43.44738" lon="6.60462">
        <ele>292.83946210146</ele>
        <time>2021-11-28T09:38:20Z</time>
      </trkpt>
      <trkpt lat="43.44737" lon="6.60461">
        <ele>292.83945807815</ele>
        <time>2021-11-28T09:38:22Z</time>
      </trkpt>
      <trkpt lat="43.44737" lon="6.6046">
        <ele>292.83943393826</ele>
        <time>2021-11-28T09:38:23Z</time>
      </trkpt>
      <trkpt lat="43.44737" lon="6.60459">
        <ele>294.83940074593</ele>
        <time>2021-11-28T09:38:26Z</time>
      </trkpt>
      <trkpt lat="43.44737" lon="6.60459">
        <ele>295.83944734931</ele>
        <time>2021-11-28T09:38:30Z</time>
      </trkpt>
      <trkpt lat="43.44736" lon="6.60458">
        <ele>294.83944030851</ele>
        <time>2021-11-28T09:38:32Z</time>
      </trkpt>
      <trkpt lat="43.44736" lon="6.60457">
        <ele>294.83945439011</ele>
        <time>2021-11-28T09:38:33Z</time>
      </trkpt>
      <trkpt lat="43.44736" lon="6.60457">
        <ele>294.83941348642</ele>
        <time>2021-11-28T09:38:34Z</time>
      </trkpt>
      <trkpt lat="43.44736" lon="6.60456">
        <ele>294.83937191218</ele>
        <time>2021-11-28T09:38:36Z</time>
      </trkpt>
      <trkpt lat="43.44735" lon="6.60455">
        <ele>294.83940208703</ele>
        <time>2021-11-28T09:38:37Z</time>
      </trkpt>
      <trkpt lat="43.44734" lon="6.60455">
        <ele>295.83944198489</ele>
        <time>2021-11-28T09:38:38Z</time>
      </trkpt>
      <trkpt lat="43.44734" lon="6.60453">
        <ele>293.83937224746</ele>
        <time>2021-11-28T09:38:40Z</time>
      </trkpt>
      <trkpt lat="43.44734" lon="6.60453">
        <ele>294.8393772766</ele>
        <time>2021-11-28T09:38:53Z</time>
      </trkpt>
      <trkpt lat="43.44733" lon="6.60453">
        <ele>293.83946210146</ele>
        <time>2021-11-28T09:38:55Z</time>
      </trkpt>
      <trkpt lat="43.44733" lon="6.60453">
        <ele>294.83946478367</ele>
        <time>2021-11-28T09:38:57Z</time>
      </trkpt>
      <trkpt lat="43.44733" lon="6.60453">
        <ele>295.83948925883</ele>
        <time>2021-11-28T09:38:59Z</time>
      </trkpt>
      <trkpt lat="43.44732" lon="6.60452">
        <ele>294.83951943368</ele>
        <time>2021-11-28T09:39:01Z</time>
      </trkpt>
      <trkpt lat="43.44731" lon="6.60451">
        <ele>294.83951809257</ele>
        <time>2021-11-28T09:39:02Z</time>
      </trkpt>
      <trkpt lat="43.44731" lon="6.6045">
        <ele>293.83953619748</ele>
        <time>2021-11-28T09:39:04Z</time>
      </trkpt>
      <trkpt lat="43.44731" lon="6.60449">
        <ele>292.8395247981</ele>
        <time>2021-11-28T09:39:05Z</time>
      </trkpt>
      <trkpt lat="43.4473" lon="6.60449">
        <ele>292.83952446282</ele>
        <time>2021-11-28T09:39:06Z</time>
      </trkpt>
      <trkpt lat="43.4473" lon="6.60448">
        <ele>292.83956905454</ele>
        <time>2021-11-28T09:39:07Z</time>
      </trkpt>
      <trkpt lat="43.44729" lon="6.60448">
        <ele>292.83955262601</ele>
        <time>2021-11-28T09:39:08Z</time>
      </trkpt>
      <trkpt lat="43.44729" lon="6.60447">
        <ele>292.83952043951</ele>
        <time>2021-11-28T09:39:09Z</time>
      </trkpt>
      <trkpt lat="43.44729" lon="6.60446">
        <ele>292.8395274803</ele>
        <time>2021-11-28T09:39:18Z</time>
      </trkpt>
      <trkpt lat="43.44729" lon="6.60446">
        <ele>291.83956905454</ele>
        <time>2021-11-28T09:39:28Z</time>
      </trkpt>
      <trkpt lat="43.44729" lon="6.60445">
        <ele>290.83950401098</ele>
        <time>2021-11-28T09:39:30Z</time>
      </trkpt>
      <trkpt lat="43.44728" lon="6.60444">
        <ele>291.83953284472</ele>
        <time>2021-11-28T09:39:34Z</time>
      </trkpt>
      <trkpt lat="43.44727" lon="6.60444">
        <ele>288.83959420025</ele>
        <time>2021-11-28T09:39:43Z</time>
      </trkpt>
      <trkpt lat="43.44727" lon="6.60444">
        <ele>288.83962839842</ele>
        <time>2021-11-28T09:39:44Z</time>
      </trkpt>
      <trkpt lat="43.44726" lon="6.60443">
        <ele>289.83967902511</ele>
        <time>2021-11-28T09:39:46Z</time>
      </trkpt>
      <trkpt lat="43.44725" lon="6.60442">
        <ele>289.83967466652</ele>
        <time>2021-11-28T09:39:47Z</time>
      </trkpt>
      <trkpt lat="43.44725" lon="6.60442">
        <ele>289.8396763429</ele>
        <time>2021-11-28T09:39:48Z</time>
      </trkpt>
      <trkpt lat="43.44725" lon="6.6044">
        <ele>289.83962973952</ele>
        <time>2021-11-28T09:39:50Z</time>
      </trkpt>
      <trkpt lat="43.44725" lon="6.6044">
        <ele>290.83957743645</ele>
        <time>2021-11-28T09:39:53Z</time>
      </trkpt>
      <trkpt lat="43.44726" lon="6.60439">
        <ele>288.83947517723</ele>
        <time>2021-11-28T09:39:55Z</time>
      </trkpt>
      <trkpt lat="43.44725" lon="6.60438">
        <ele>289.83948389441</ele>
        <time>2021-11-28T09:39:57Z</time>
      </trkpt>
      <trkpt lat="43.44725" lon="6.60437">
        <ele>289.83945640177</ele>
        <time>2021-11-28T09:39:58Z</time>
      </trkpt>
      <trkpt lat="43.44726" lon="6.60436">
        <ele>289.83933603764</ele>
        <time>2021-11-28T09:40:00Z</time>
      </trkpt>
      <trkpt lat="43.44727" lon="6.60436">
        <ele>289.83931189775</ele>
        <time>2021-11-28T09:40:04Z</time>
      </trkpt>
      <trkpt lat="43.44726" lon="6.60434">
        <ele>288.8393239677</ele>
        <time>2021-11-28T09:40:06Z</time>
      </trkpt>
      <trkpt lat="43.44725" lon="6.60435">
        <ele>287.83939471096</ele>
        <time>2021-11-28T09:40:07Z</time>
      </trkpt>
      <trkpt lat="43.44724" lon="6.60435">
        <ele>287.83943594992</ele>
        <time>2021-11-28T09:40:09Z</time>
      </trkpt>
      <trkpt lat="43.44724" lon="6.60435">
        <ele>286.83947685361</ele>
        <time>2021-11-28T09:40:10Z</time>
      </trkpt>
      <trkpt lat="43.44723" lon="6.60435">
        <ele>286.83955966681</ele>
        <time>2021-11-28T09:40:11Z</time>
      </trkpt>
      <trkpt lat="43.44722" lon="6.60435">
        <ele>285.83959755301</ele>
        <time>2021-11-28T09:40:12Z</time>
      </trkpt>
      <trkpt lat="43.44722" lon="6.60434">
        <ele>285.8396076113</ele>
        <time>2021-11-28T09:40:13Z</time>
      </trkpt>
      <trkpt lat="43.44721" lon="6.60433">
        <ele>285.83961666375</ele>
        <time>2021-11-28T09:40:14Z</time>
      </trkpt>
      <trkpt lat="43.44721" lon="6.60431">
        <ele>285.83956670761</ele>
        <time>2021-11-28T09:40:15Z</time>
      </trkpt>
      <trkpt lat="43.44721" lon="6.60429">
        <ele>285.83949194103</ele>
        <time>2021-11-28T09:40:16Z</time>
      </trkpt>
      <trkpt lat="43.44721" lon="6.60428">
        <ele>285.83943293244</ele>
        <time>2021-11-28T09:40:17Z</time>
      </trkpt>
      <trkpt lat="43.44722" lon="6.60428">
        <ele>285.83936587721</ele>
        <time>2021-11-28T09:40:18Z</time>
      </trkpt>
      <trkpt lat="43.44722" lon="6.60427">
        <ele>285.83934844285</ele>
        <time>2021-11-28T09:40:19Z</time>
      </trkpt>
      <trkpt lat="43.44722" lon="6.60426">
        <ele>284.83929278702</ele>
        <time>2021-11-28T09:40:20Z</time>
      </trkpt>
      <trkpt lat="43.44723" lon="6.60426">
        <ele>285.83918549865</ele>
        <time>2021-11-28T09:40:22Z</time>
      </trkpt>
      <trkpt lat="43.44723" lon="6.60426">
        <ele>285.839183487</ele>
        <time>2021-11-28T09:40:23Z</time>
      </trkpt>
      <trkpt lat="43.44724" lon="6.60427">
        <ele>284.83916504681</ele>
        <time>2021-11-28T09:40:25Z</time>
      </trkpt>
      <trkpt lat="43.44724" lon="6.60425">
        <ele>284.83907284588</ele>
        <time>2021-11-28T09:40:27Z</time>
      </trkpt>
      <trkpt lat="43.44725" lon="6.60425">
        <ele>285.83900210261</ele>
        <time>2021-11-28T09:40:34Z</time>
      </trkpt>
      <trkpt lat="43.44726" lon="6.60423">
        <ele>286.83882306516</ele>
        <time>2021-11-28T09:40:36Z</time>
      </trkpt>
      <trkpt lat="43.44726" lon="6.60423">
        <ele>286.83883144706</ele>
        <time>2021-11-28T09:40:39Z</time>
      </trkpt>
      <trkpt lat="43.44727" lon="6.60422">
        <ele>286.8387298584</ele>
        <time>2021-11-28T09:40:41Z</time>
      </trkpt>
      <trkpt lat="43.44727" lon="6.60421">
        <ele>286.8387228176</ele>
        <time>2021-11-28T09:40:45Z</time>
      </trkpt>
      <trkpt lat="43.44728" lon="6.60422">
        <ele>286.83864402771</ele>
        <time>2021-11-28T09:40:47Z</time>
      </trkpt>
      <trkpt lat="43.44728" lon="6.60422">
        <ele>287.83862189949</ele>
        <time>2021-11-28T09:40:49Z</time>
      </trkpt>
      <trkpt lat="43.44729" lon="6.60422">
        <ele>287.83854009211</ele>
        <time>2021-11-28T09:40:51Z</time>
      </trkpt>
      <trkpt lat="43.44729" lon="6.60422">
        <ele>287.83859809488</ele>
        <time>2021-11-28T09:40:53Z</time>
      </trkpt>
      <trkpt lat="43.44728" lon="6.60422">
        <ele>287.83863966912</ele>
        <time>2021-11-28T09:40:55Z</time>
      </trkpt>
      <trkpt lat="43.44727" lon="6.60421">
        <ele>287.83865710348</ele>
        <time>2021-11-28T09:40:57Z</time>
      </trkpt>
      <trkpt lat="43.44727" lon="6.60419">
        <ele>288.83857663721</ele>
        <time>2021-11-28T09:40:58Z</time>
      </trkpt>
      <trkpt lat="43.44727" lon="6.60417">
        <ele>289.83855517954</ele>
        <time>2021-11-28T09:40:59Z</time>
      </trkpt>
      <trkpt lat="43.44726" lon="6.60417">
        <ele>290.83855082095</ele>
        <time>2021-11-28T09:41:00Z</time>
      </trkpt>
      <trkpt lat="43.44727" lon="6.60415">
        <ele>290.83846733719</ele>
        <time>2021-11-28T09:41:02Z</time>
      </trkpt>
      <trkpt lat="43.44726" lon="6.60414">
        <ele>290.83847337216</ele>
        <time>2021-11-28T09:41:03Z</time>
      </trkpt>
      <trkpt lat="43.44726" lon="6.60414">
        <ele>291.83847974241</ele>
        <time>2021-11-28T09:41:04Z</time>
      </trkpt>
      <trkpt lat="43.44725" lon="6.60412">
        <ele>291.83845392615</ele>
        <time>2021-11-28T09:41:06Z</time>
      </trkpt>
      <trkpt lat="43.44726" lon="6.60411">
        <ele>292.8383955881</ele>
        <time>2021-11-28T09:41:13Z</time>
      </trkpt>
      <trkpt lat="43.44726" lon="6.6041">
        <ele>293.8383070752</ele>
        <time>2021-11-28T09:41:14Z</time>
      </trkpt>
      <trkpt lat="43.44726" lon="6.6041">
        <ele>293.83829634637</ele>
        <time>2021-11-28T09:41:16Z</time>
      </trkpt>
      <trkpt lat="43.44726" lon="6.60408">
        <ele>293.83827287704</ele>
        <time>2021-11-28T09:41:17Z</time>
      </trkpt>
      <trkpt lat="43.44726" lon="6.60408">
        <ele>292.83820850402</ele>
        <time>2021-11-28T09:41:19Z</time>
      </trkpt>
      <trkpt lat="43.44726" lon="6.60407">
        <ele>291.83816994727</ele>
        <time>2021-11-28T09:41:31Z</time>
      </trkpt>
      <trkpt lat="43.44726" lon="6.60407">
        <ele>290.8382172212</ele>
        <time>2021-11-28T09:41:33Z</time>
      </trkpt>
      <trkpt lat="43.44725" lon="6.60405">
        <ele>290.83818201721</ele>
        <time>2021-11-28T09:41:35Z</time>
      </trkpt>
      <trkpt lat="43.44726" lon="6.60403">
        <ele>289.83807037026</ele>
        <time>2021-11-28T09:41:37Z</time>
      </trkpt>
      <trkpt lat="43.44726" lon="6.60403">
        <ele>288.838054277</ele>
        <time>2021-11-28T09:41:39Z</time>
      </trkpt>
      <trkpt lat="43.44728" lon="6.60402">
        <ele>286.83785311133</ele>
        <time>2021-11-28T09:41:41Z</time>
      </trkpt>
      <trkpt lat="43.44728" lon="6.60401">
        <ele>286.83778739721</ele>
        <time>2021-11-28T09:41:42Z</time>
      </trkpt>
      <trkpt lat="43.44729" lon="6.60401">
        <ele>286.83772905916</ele>
        <time>2021-11-28T09:41:43Z</time>
      </trkpt>
      <trkpt lat="43.4473" lon="6.604">
        <ele>284.8376371935</ele>
        <time>2021-11-28T09:41:45Z</time>
      </trkpt>
      <trkpt lat="43.4473" lon="6.60399">
        <ele>284.83757617325</ele>
        <time>2021-11-28T09:41:47Z</time>
      </trkpt>
      <trkpt lat="43.4473" lon="6.60398">
        <ele>284.83750744164</ele>
        <time>2021-11-28T09:41:48Z</time>
      </trkpt>
      <trkpt lat="43.44731" lon="6.60399">
        <ele>284.83746352047</ele>
        <time>2021-11-28T09:41:57Z</time>
      </trkpt>
      <trkpt lat="43.44731" lon="6.60399">
        <ele>284.83747223765</ele>
        <time>2021-11-28T09:42:01Z</time>
      </trkpt>
      <trkpt lat="43.44732" lon="6.604">
        <ele>284.83745413274</ele>
        <time>2021-11-28T09:42:02Z</time>
      </trkpt>
      <trkpt lat="43.44732" lon="6.60401">
        <ele>284.83747559041</ele>
        <time>2021-11-28T09:42:03Z</time>
      </trkpt>
      <trkpt lat="43.44732" lon="6.60401">
        <ele>287.83747022599</ele>
        <time>2021-11-28T09:42:15Z</time>
      </trkpt>
      <trkpt lat="43.44733" lon="6.60401">
        <ele>287.83734751493</ele>
        <time>2021-11-28T09:42:17Z</time>
      </trkpt>
      <trkpt lat="43.44734" lon="6.604">
        <ele>287.83726168424</ele>
        <time>2021-11-28T09:42:19Z</time>
      </trkpt>
      <trkpt lat="43.44735" lon="6.60399">
        <ele>287.83716780692</ele>
        <time>2021-11-28T09:42:21Z</time>
      </trkpt>
      <trkpt lat="43.44736" lon="6.60399">
        <ele>287.83709404618</ele>
        <time>2021-11-28T09:42:24Z</time>
      </trkpt>
      <trkpt lat="43.44736" lon="6.60399">
        <ele>287.83703738451</ele>
        <time>2021-11-28T09:42:25Z</time>
      </trkpt>
      <trkpt lat="43.44738" lon="6.604">
        <ele>286.83699078113</ele>
        <time>2021-11-28T09:42:27Z</time>
      </trkpt>
      <trkpt lat="43.44738" lon="6.60399">
        <ele>287.83691702038</ele>
        <time>2021-11-28T09:42:28Z</time>
      </trkpt>
      <trkpt lat="43.44739" lon="6.60399">
        <ele>287.83687008172</ele>
        <time>2021-11-28T09:42:29Z</time>
      </trkpt>
      <trkpt lat="43.44739" lon="6.604">
        <ele>287.83682783693</ele>
        <time>2021-11-28T09:42:31Z</time>
      </trkpt>
      <trkpt lat="43.4474" lon="6.60399">
        <ele>287.83678223938</ele>
        <time>2021-11-28T09:42:33Z</time>
      </trkpt>
      <trkpt lat="43.4474" lon="6.604">
        <ele>287.83678324521</ele>
        <time>2021-11-28T09:42:39Z</time>
      </trkpt>
      <trkpt lat="43.44741" lon="6.604">
        <ele>287.83675441146</ele>
        <time>2021-11-28T09:42:40Z</time>
      </trkpt>
      <trkpt lat="43.44742" lon="6.60401">
        <ele>287.83670981973</ele>
        <time>2021-11-28T09:42:42Z</time>
      </trkpt>
      <trkpt lat="43.44742" lon="6.60401">
        <ele>288.83668668568</ele>
        <time>2021-11-28T09:42:45Z</time>
      </trkpt>
      <trkpt lat="43.44742" lon="6.60402">
        <ele>288.83675977588</ele>
        <time>2021-11-28T09:42:48Z</time>
      </trkpt>
      <trkpt lat="43.44741" lon="6.60402">
        <ele>288.83681274951</ele>
        <time>2021-11-28T09:42:49Z</time>
      </trkpt>
      <trkpt lat="43.4474" lon="6.60402">
        <ele>288.83684057742</ele>
        <time>2021-11-28T09:42:58Z</time>
      </trkpt>
      <trkpt lat="43.4474" lon="6.60401">
        <ele>288.83687242866</ele>
        <time>2021-11-28T09:43:14Z</time>
      </trkpt>
      <trkpt lat="43.44741" lon="6.60402">
        <ele>288.83681543171</ele>
        <time>2021-11-28T09:43:16Z</time>
      </trkpt>
      <trkpt lat="43.4474" lon="6.604">
        <ele>288.83683755994</ele>
        <time>2021-11-28T09:43:17Z</time>
      </trkpt>
      <trkpt lat="43.4474" lon="6.60401">
        <ele>289.83685097098</ele>
        <time>2021-11-28T09:43:23Z</time>
      </trkpt>
      <trkpt lat="43.44739" lon="6.60402">
        <ele>289.83694250137</ele>
        <time>2021-11-28T09:43:25Z</time>
      </trkpt>
      <trkpt lat="43.4474" lon="6.60403">
        <ele>289.83694417775</ele>
        <time>2021-11-28T09:43:41Z</time>
      </trkpt>
      <trkpt lat="43.44741" lon="6.60402">
        <ele>291.83682750165</ele>
        <time>2021-11-28T09:43:42Z</time>
      </trkpt>
      <trkpt lat="43.44741" lon="6.60402">
        <ele>292.8367664814</ele>
        <time>2021-11-28T09:43:45Z</time>
      </trkpt>
      <trkpt lat="43.44742" lon="6.60402">
        <ele>293.83672725409</ele>
        <time>2021-11-28T09:43:47Z</time>
      </trkpt>
      <trkpt lat="43.44743" lon="6.60402">
        <ele>293.83666422218</ele>
        <time>2021-11-28T09:43:48Z</time>
      </trkpt>
      <trkpt lat="43.44744" lon="6.60401">
        <ele>294.83656498045</ele>
        <time>2021-11-28T09:43:49Z</time>
      </trkpt>
      <trkpt lat="43.44743" lon="6.60401">
        <ele>295.83657101542</ele>
        <time>2021-11-28T09:43:50Z</time>
      </trkpt>
      <trkpt lat="43.44744" lon="6.60399">
        <ele>294.8364546746</ele>
        <time>2021-11-28T09:43:52Z</time>
      </trkpt>
      <trkpt lat="43.44745" lon="6.60399">
        <ele>294.83637253195</ele>
        <time>2021-11-28T09:43:54Z</time>
      </trkpt>
      <trkpt lat="43.44745" lon="6.60399">
        <ele>295.83639030159</ele>
        <time>2021-11-28T09:43:55Z</time>
      </trkpt>
      <trkpt lat="43.44746" lon="6.604">
        <ele>295.83633699268</ele>
        <time>2021-11-28T09:43:58Z</time>
      </trkpt>
      <trkpt lat="43.44746" lon="6.60402">
        <ele>293.83636247367</ele>
        <time>2021-11-28T09:44:00Z</time>
      </trkpt>
      <trkpt lat="43.44746" lon="6.60401">
        <ele>292.83639365435</ele>
        <time>2021-11-28T09:44:06Z</time>
      </trkpt>
      <trkpt lat="43.44745" lon="6.604">
        <ele>292.8364013657</ele>
        <time>2021-11-28T09:44:08Z</time>
      </trkpt>
      <trkpt lat="43.44745" lon="6.604">
        <ele>292.83634839207</ele>
        <time>2021-11-28T09:44:09Z</time>
      </trkpt>
      <trkpt lat="43.44746" lon="6.60398">
        <ele>291.83625518531</ele>
        <time>2021-11-28T09:44:11Z</time>
      </trkpt>
      <trkpt lat="43.44746" lon="6.60398">
        <ele>292.83621361107</ele>
        <time>2021-11-28T09:44:12Z</time>
      </trkpt>
      <trkpt lat="43.44747" lon="6.60397">
        <ele>293.83612509817</ele>
        <time>2021-11-28T09:44:13Z</time>
      </trkpt>
      <trkpt lat="43.44747" lon="6.60398">
        <ele>292.83612677455</ele>
        <time>2021-11-28T09:44:15Z</time>
      </trkpt>
      <trkpt lat="43.44749" lon="6.60397">
        <ele>292.8359645009</ele>
        <time>2021-11-28T09:44:17Z</time>
      </trkpt>
      <trkpt lat="43.4475" lon="6.60396">
        <ele>293.83585888892</ele>
        <time>2021-11-28T09:44:18Z</time>
      </trkpt>
      <trkpt lat="43.44751" lon="6.60396">
        <ele>293.83578646928</ele>
        <time>2021-11-28T09:44:19Z</time>
      </trkpt>
      <trkpt lat="43.44752" lon="6.60395">
        <ele>292.8356892392</ele>
        <time>2021-11-28T09:44:21Z</time>
      </trkpt>
      <trkpt lat="43.44752" lon="6.60395">
        <ele>294.83560977876</ele>
        <time>2021-11-28T09:44:23Z</time>
      </trkpt>
      <trkpt lat="43.44753" lon="6.60396">
        <ele>294.83563056588</ele>
        <time>2021-11-28T09:44:25Z</time>
      </trkpt>
      <trkpt lat="43.44753" lon="6.60397">
        <ele>293.83561648428</ele>
        <time>2021-11-28T09:44:27Z</time>
      </trkpt>
      <trkpt lat="43.44754" lon="6.60396">
        <ele>292.83548337966</ele>
        <time>2021-11-28T09:44:28Z</time>
      </trkpt>
      <trkpt lat="43.44755" lon="6.60396">
        <ele>293.83547533303</ele>
        <time>2021-11-28T09:44:33Z</time>
      </trkpt>
      <trkpt lat="43.44755" lon="6.60395">
        <ele>292.83539520204</ele>
        <time>2021-11-28T09:44:37Z</time>
      </trkpt>
      <trkpt lat="43.44756" lon="6.60396">
        <ele>293.8353593275</ele>
        <time>2021-11-28T09:44:43Z</time>
      </trkpt>
      <trkpt lat="43.44757" lon="6.60397">
        <ele>294.83529730141</ele>
        <time>2021-11-28T09:44:44Z</time>
      </trkpt>
      <trkpt lat="43.44758" lon="6.60397">
        <ele>294.83526075631</ele>
        <time>2021-11-28T09:44:46Z</time>
      </trkpt>
      <trkpt lat="43.44758" lon="6.60397">
        <ele>294.83524734527</ele>
        <time>2021-11-28T09:44:48Z</time>
      </trkpt>
      <trkpt lat="43.44759" lon="6.60398">
        <ele>294.83524533361</ele>
        <time>2021-11-28T09:44:50Z</time>
      </trkpt>
      <trkpt lat="43.44759" lon="6.60398">
        <ele>294.83519235998</ele>
        <time>2021-11-28T09:44:54Z</time>
      </trkpt>
      <trkpt lat="43.44759" lon="6.604">
        <ele>294.83524600416</ele>
        <time>2021-11-28T09:44:56Z</time>
      </trkpt>
      <trkpt lat="43.4476" lon="6.604">
        <ele>295.83523628116</ele>
        <time>2021-11-28T09:44:59Z</time>
      </trkpt>
      <trkpt lat="43.44759" lon="6.604">
        <ele>298.83529562503</ele>
        <time>2021-11-28T09:45:05Z</time>
      </trkpt>
      <trkpt lat="43.44759" lon="6.60402">
        <ele>299.83533786982</ele>
        <time>2021-11-28T09:45:07Z</time>
      </trkpt>
      <trkpt lat="43.44759" lon="6.60403">
        <ele>299.83536972106</ele>
        <time>2021-11-28T09:45:08Z</time>
      </trkpt>
      <trkpt lat="43.4476" lon="6.60404">
        <ele>300.83538011461</ele>
        <time>2021-11-28T09:45:09Z</time>
      </trkpt>
      <trkpt lat="43.44761" lon="6.60405">
        <ele>299.83532579988</ele>
        <time>2021-11-28T09:45:11Z</time>
      </trkpt>
      <trkpt lat="43.44762" lon="6.60405">
        <ele>299.83526477963</ele>
        <time>2021-11-28T09:45:12Z</time>
      </trkpt>
      <trkpt lat="43.44762" lon="6.60404">
        <ele>300.83520677686</ele>
        <time>2021-11-28T09:45:13Z</time>
      </trkpt>
      <trkpt lat="43.44762" lon="6.60405">
        <ele>300.83528858423</ele>
        <time>2021-11-28T09:45:15Z</time>
      </trkpt>
      <trkpt lat="43.44762" lon="6.60405">
        <ele>299.83522622287</ele>
        <time>2021-11-28T09:45:17Z</time>
      </trkpt>
      <trkpt lat="43.44763" lon="6.60406">
        <ele>299.83520811796</ele>
        <time>2021-11-28T09:45:18Z</time>
      </trkpt>
      <trkpt lat="43.44763" lon="6.60406">
        <ele>300.83520208299</ele>
        <time>2021-11-28T09:45:19Z</time>
      </trkpt>
      <trkpt lat="43.44764" lon="6.60406">
        <ele>300.83509010077</ele>
        <time>2021-11-28T09:45:21Z</time>
      </trkpt>
      <trkpt lat="43.44765" lon="6.60406">
        <ele>300.83506461978</ele>
        <time>2021-11-28T09:45:25Z</time>
      </trkpt>
      <trkpt lat="43.44765" lon="6.60405">
        <ele>301.83497040719</ele>
        <time>2021-11-28T09:45:27Z</time>
      </trkpt>
      <trkpt lat="43.44765" lon="6.60404">
        <ele>301.83495565504</ele>
        <time>2021-11-28T09:45:28Z</time>
      </trkpt>
      <trkpt lat="43.44765" lon="6.60403">
        <ele>301.83490972221</ele>
        <time>2021-11-28T09:45:29Z</time>
      </trkpt>
      <trkpt lat="43.44766" lon="6.604">
        <ele>304.83474342525</ele>
        <time>2021-11-28T09:45:31Z</time>
      </trkpt>
      <trkpt lat="43.44767" lon="6.604">
        <ele>305.83467335254</ele>
        <time>2021-11-28T09:45:35Z</time>
      </trkpt>
      <trkpt lat="43.44767" lon="6.60399">
        <ele>307.83461702615</ele>
        <time>2021-11-28T09:45:38Z</time>
      </trkpt>
      <trkpt lat="43.44767" lon="6.604">
        <ele>307.83460026234</ele>
        <time>2021-11-28T09:45:40Z</time>
      </trkpt>
      <trkpt lat="43.44768" lon="6.60402">
        <ele>307.83466195315</ele>
        <time>2021-11-28T09:45:42Z</time>
      </trkpt>
      <trkpt lat="43.44768" lon="6.60403">
        <ele>308.83469011635</ele>
        <time>2021-11-28T09:45:44Z</time>
      </trkpt>
      <trkpt lat="43.44768" lon="6.60404">
        <ele>307.83466664702</ele>
        <time>2021-11-28T09:45:46Z</time>
      </trkpt>
      <trkpt lat="43.44769" lon="6.60403">
        <ele>307.83461870253</ele>
        <time>2021-11-28T09:45:47Z</time>
      </trkpt>
      <trkpt lat="43.44769" lon="6.60404">
        <ele>308.83459322155</ele>
        <time>2021-11-28T09:45:48Z</time>
      </trkpt>
      <trkpt lat="43.4477" lon="6.60404">
        <ele>308.83455801755</ele>
        <time>2021-11-28T09:45:52Z</time>
      </trkpt>
      <trkpt lat="43.44771" lon="6.60406">
        <ele>307.83457411081</ele>
        <time>2021-11-28T09:45:53Z</time>
      </trkpt>
      <trkpt lat="43.44771" lon="6.60406">
        <ele>308.83453689516</ele>
        <time>2021-11-28T09:45:58Z</time>
      </trkpt>
      <trkpt lat="43.44772" lon="6.60407">
        <ele>309.83452717215</ele>
        <time>2021-11-28T09:45:59Z</time>
      </trkpt>
      <trkpt lat="43.44772" lon="6.60408">
        <ele>308.83453991264</ele>
        <time>2021-11-28T09:46:00Z</time>
      </trkpt>
      <trkpt lat="43.44773" lon="6.60408">
        <ele>308.83446346968</ele>
        <time>2021-11-28T09:46:02Z</time>
      </trkpt>
      <trkpt lat="43.44774" lon="6.60407">
        <ele>309.83437931538</ele>
        <time>2021-11-28T09:46:03Z</time>
      </trkpt>
      <trkpt lat="43.44774" lon="6.60406">
        <ele>310.83435115218</ele>
        <time>2021-11-28T09:46:05Z</time>
      </trkpt>
      <trkpt lat="43.44773" lon="6.60405">
        <ele>311.8343199715</ele>
        <time>2021-11-28T09:46:06Z</time>
      </trkpt>
      <trkpt lat="43.44774" lon="6.60402">
        <ele>312.83420731872</ele>
        <time>2021-11-28T09:46:07Z</time>
      </trkpt>
      <trkpt lat="43.44773" lon="6.60402">
        <ele>313.83420094848</ele>
        <time>2021-11-28T09:46:08Z</time>
      </trkpt>
      <trkpt lat="43.44773" lon="6.60401">
        <ele>313.83423581719</ele>
        <time>2021-11-28T09:46:10Z</time>
      </trkpt>
      <trkpt lat="43.44772" lon="6.60401">
        <ele>313.83426062763</ele>
        <time>2021-11-28T09:46:12Z</time>
      </trkpt>
      <trkpt lat="43.44772" lon="6.604">
        <ele>314.83425559849</ele>
        <time>2021-11-28T09:46:13Z</time>
      </trkpt>
      <trkpt lat="43.44771" lon="6.60399">
        <ele>315.83424721658</ele>
        <time>2021-11-28T09:46:14Z</time>
      </trkpt>
      <trkpt lat="43.44772" lon="6.60398">
        <ele>316.8341768086</ele>
        <time>2021-11-28T09:46:17Z</time>
      </trkpt>
      <trkpt lat="43.44772" lon="6.60397">
        <ele>317.83410640061</ele>
        <time>2021-11-28T09:46:18Z</time>
      </trkpt>
      <trkpt lat="43.44773" lon="6.60396">
        <ele>318.83400481194</ele>
        <time>2021-11-28T09:46:19Z</time>
      </trkpt>
      <trkpt lat="43.44775" lon="6.60396">
        <ele>318.8338509202</ele>
        <time>2021-11-28T09:46:21Z</time>
      </trkpt>
      <trkpt lat="43.44776" lon="6.60397">
        <ele>318.83382376283</ele>
        <time>2021-11-28T09:46:22Z</time>
      </trkpt>
      <trkpt lat="43.44776" lon="6.60398">
        <ele>319.83382208645</ele>
        <time>2021-11-28T09:46:23Z</time>
      </trkpt>
      <trkpt lat="43.44776" lon="6.60399">
        <ele>319.83389215916</ele>
        <time>2021-11-28T09:46:25Z</time>
      </trkpt>
      <trkpt lat="43.44776" lon="6.60401">
        <ele>319.83390322328</ele>
        <time>2021-11-28T09:46:27Z</time>
      </trkpt>
      <trkpt lat="43.44777" lon="6.60402">
        <ele>319.83388277143</ele>
        <time>2021-11-28T09:46:28Z</time>
      </trkpt>
      <trkpt lat="43.44778" lon="6.60403">
        <ele>319.83389651775</ele>
        <time>2021-11-28T09:46:29Z</time>
      </trkpt>
      <trkpt lat="43.44778" lon="6.60403">
        <ele>319.83387103677</ele>
        <time>2021-11-28T09:46:32Z</time>
      </trkpt>
      <trkpt lat="43.44779" lon="6.60404">
        <ele>320.83379627019</ele>
        <time>2021-11-28T09:46:33Z</time>
      </trkpt>
      <trkpt lat="43.4478" lon="6.60404">
        <ele>320.83380800486</ele>
        <time>2021-11-28T09:46:34Z</time>
      </trkpt>
      <trkpt lat="43.4478" lon="6.60406">
        <ele>319.8338368386</ele>
        <time>2021-11-28T09:46:37Z</time>
      </trkpt>
      <trkpt lat="43.4478" lon="6.60406">
        <ele>319.83387237787</ele>
        <time>2021-11-28T09:46:38Z</time>
      </trkpt>
      <trkpt lat="43.44779" lon="6.60409">
        <ele>318.83398771286</ele>
        <time>2021-11-28T09:46:40Z</time>
      </trkpt>
      <trkpt lat="43.44779" lon="6.60411">
        <ele>319.83409634233</ele>
        <time>2021-11-28T09:46:42Z</time>
      </trkpt>
      <trkpt lat="43.4478" lon="6.60412">
        <ele>319.8340658322</ele>
        <time>2021-11-28T09:46:43Z</time>
      </trkpt>
      <trkpt lat="43.4478" lon="6.60412">
        <ele>318.83404906839</ele>
        <time>2021-11-28T09:46:44Z</time>
      </trkpt>
      <trkpt lat="43.44781" lon="6.60412">
        <ele>318.83398167789</ele>
        <time>2021-11-28T09:46:52Z</time>
      </trkpt>
      <trkpt lat="43.44782" lon="6.60414">
        <ele>319.83396156132</ele>
        <time>2021-11-28T09:46:53Z</time>
      </trkpt>
      <trkpt lat="43.44783" lon="6.60414">
        <ele>319.83393038064</ele>
        <time>2021-11-28T09:46:54Z</time>
      </trkpt>
      <trkpt lat="43.44784" lon="6.60414">
        <ele>319.83386433125</ele>
        <time>2021-11-28T09:46:59Z</time>
      </trkpt>
      <trkpt lat="43.44784" lon="6.60415">
        <ele>318.83385393769</ele>
        <time>2021-11-28T09:47:03Z</time>
      </trkpt>
      <trkpt lat="43.44785" lon="6.60416">
        <ele>318.83381403983</ele>
        <time>2021-11-28T09:47:10Z</time>
      </trkpt>
      <trkpt lat="43.44785" lon="6.60416">
        <ele>318.83380632848</ele>
        <time>2021-11-28T09:47:13Z</time>
      </trkpt>
      <trkpt lat="43.44786" lon="6.60416">
        <ele>319.83372385055</ele>
        <time>2021-11-28T09:47:14Z</time>
      </trkpt>
      <trkpt lat="43.44787" lon="6.60416">
        <ele>319.83369099349</ele>
        <time>2021-11-28T09:47:15Z</time>
      </trkpt>
      <trkpt lat="43.44789" lon="6.60415">
        <ele>317.83349955082</ele>
        <time>2021-11-28T09:47:17Z</time>
      </trkpt>
      <trkpt lat="43.44789" lon="6.60415">
        <ele>318.8334871456</ele>
        <time>2021-11-28T09:47:20Z</time>
      </trkpt>
      <trkpt lat="43.44789" lon="6.60414">
        <ele>317.83343350142</ele>
        <time>2021-11-28T09:47:22Z</time>
      </trkpt>
      <trkpt lat="43.44789" lon="6.60414">
        <ele>317.83343350142</ele>
        <time>2021-11-28T09:47:24Z</time>
      </trkpt>
      <trkpt lat="43.44788" lon="6.60413">
        <ele>318.83347507566</ele>
        <time>2021-11-28T09:47:26Z</time>
      </trkpt>
      <trkpt lat="43.44788" lon="6.60412">
        <ele>320.83345395327</ele>
        <time>2021-11-28T09:47:27Z</time>
      </trkpt>
      <trkpt lat="43.44788" lon="6.60411">
        <ele>320.83337114006</ele>
        <time>2021-11-28T09:47:32Z</time>
      </trkpt>
      <trkpt lat="43.4479" lon="6.60411">
        <ele>321.83326452225</ele>
        <time>2021-11-28T09:47:33Z</time>
      </trkpt>
      <trkpt lat="43.4479" lon="6.60411">
        <ele>322.83322261274</ele>
        <time>2021-11-28T09:47:37Z</time>
      </trkpt>
      <trkpt lat="43.44791" lon="6.60411">
        <ele>323.83317466825</ele>
        <time>2021-11-28T09:47:38Z</time>
      </trkpt>
      <trkpt lat="43.44791" lon="6.60412">
        <ele>321.83316460997</ele>
        <time>2021-11-28T09:47:40Z</time>
      </trkpt>
      <trkpt lat="43.44791" lon="6.60412">
        <ele>320.83318070322</ele>
        <time>2021-11-28T09:47:44Z</time>
      </trkpt>
      <trkpt lat="43.4479" lon="6.60414">
        <ele>321.83336376399</ele>
        <time>2021-11-28T09:47:46Z</time>
      </trkpt>
      <trkpt lat="43.4479" lon="6.60414">
        <ele>321.83336946368</ele>
        <time>2021-11-28T09:47:47Z</time>
      </trkpt>
      <trkpt lat="43.44789" lon="6.60413">
        <ele>321.83335873485</ele>
        <time>2021-11-28T09:47:48Z</time>
      </trkpt>
      <trkpt lat="43.4479" lon="6.60412">
        <ele>321.83328229189</ele>
        <time>2021-11-28T09:47:50Z</time>
      </trkpt>
      <trkpt lat="43.4479" lon="6.60411">
        <ele>322.83320048451</ele>
        <time>2021-11-28T09:47:52Z</time>
      </trkpt>
      <trkpt lat="43.44791" lon="6.60409">
        <ele>322.83306402713</ele>
        <time>2021-11-28T09:47:53Z</time>
      </trkpt>
      <trkpt lat="43.44792" lon="6.60408">
        <ele>323.83297719061</ele>
        <time>2021-11-28T09:47:54Z</time>
      </trkpt>
      <trkpt lat="43.44793" lon="6.60408">
        <ele>323.83283302188</ele>
        <time>2021-11-28T09:47:56Z</time>
      </trkpt>
      <trkpt lat="43.44794" lon="6.60408">
        <ele>324.832773678</ele>
        <time>2021-11-28T09:47:58Z</time>
      </trkpt>
      <trkpt lat="43.44796" lon="6.60409">
        <ele>324.83270327002</ele>
        <time>2021-11-28T09:48:00Z</time>
      </trkpt>
      <trkpt lat="43.44796" lon="6.60409">
        <ele>325.83273109794</ele>
        <time>2021-11-28T09:48:04Z</time>
      </trkpt>
      <trkpt lat="43.44796" lon="6.60411">
        <ele>325.83277300745</ele>
        <time>2021-11-28T09:48:06Z</time>
      </trkpt>
      <trkpt lat="43.44796" lon="6.60412">
        <ele>325.83279547095</ele>
        <time>2021-11-28T09:48:08Z</time>
      </trkpt>
      <trkpt lat="43.44796" lon="6.60412">
        <ele>326.83277334273</ele>
        <time>2021-11-28T09:48:09Z</time>
      </trkpt>
      <trkpt lat="43.44797" lon="6.60412">
        <ele>326.83271165192</ele>
        <time>2021-11-28T09:48:10Z</time>
      </trkpt>
      <trkpt lat="43.44798" lon="6.60413">
        <ele>326.8326895237</ele>
        <time>2021-11-28T09:48:11Z</time>
      </trkpt>
      <trkpt lat="43.44798" lon="6.60412">
        <ele>326.83263554424</ele>
        <time>2021-11-28T09:48:12Z</time>
      </trkpt>
      <trkpt lat="43.44798" lon="6.60411">
        <ele>327.83258391172</ele>
        <time>2021-11-28T09:48:13Z</time>
      </trkpt>
      <trkpt lat="43.44799" lon="6.60411">
        <ele>326.83247125894</ele>
        <time>2021-11-28T09:48:15Z</time>
      </trkpt>
      <trkpt lat="43.448" lon="6.6041">
        <ele>326.83239850402</ele>
        <time>2021-11-28T09:48:19Z</time>
      </trkpt>
      <trkpt lat="43.448" lon="6.60412">
        <ele>326.83248802274</ele>
        <time>2021-11-28T09:48:21Z</time>
      </trkpt>
      <trkpt lat="43.44799" lon="6.60412">
        <ele>326.83253529668</ele>
        <time>2021-11-28T09:48:23Z</time>
      </trkpt>
      <trkpt lat="43.44799" lon="6.60412">
        <ele>326.83258290589</ele>
        <time>2021-11-28T09:48:25Z</time>
      </trkpt>
      <trkpt lat="43.448" lon="6.60413">
        <ele>326.8325406611</ele>
        <time>2021-11-28T09:48:27Z</time>
      </trkpt>
      <trkpt lat="43.448" lon="6.60413">
        <ele>327.83249338716</ele>
        <time>2021-11-28T09:48:28Z</time>
      </trkpt>
      <trkpt lat="43.44801" lon="6.60413">
        <ele>327.83242465556</ele>
        <time>2021-11-28T09:48:29Z</time>
      </trkpt>
      <trkpt lat="43.44802" lon="6.60411">
        <ele>327.83229557425</ele>
        <time>2021-11-28T09:48:31Z</time>
      </trkpt>
      <trkpt lat="43.44802" lon="6.6041">
        <ele>327.83223220706</ele>
        <time>2021-11-28T09:48:33Z</time>
      </trkpt>
      <trkpt lat="43.44803" lon="6.60412">
        <ele>327.83224394172</ele>
        <time>2021-11-28T09:48:35Z</time>
      </trkpt>
      <trkpt lat="43.44802" lon="6.60412">
        <ele>329.83229825646</ele>
        <time>2021-11-28T09:48:48Z</time>
      </trkpt>
      <trkpt lat="43.44803" lon="6.6041">
        <ele>330.8321923092</ele>
        <time>2021-11-28T09:48:49Z</time>
      </trkpt>
      <trkpt lat="43.44803" lon="6.60409">
        <ele>330.83212693036</ele>
        <time>2021-11-28T09:48:52Z</time>
      </trkpt>
      <trkpt lat="43.44803" lon="6.60409">
        <ele>331.83213967085</ele>
        <time>2021-11-28T09:48:53Z</time>
      </trkpt>
      <trkpt lat="43.44803" lon="6.60408">
        <ele>331.8320434466</ele>
        <time>2021-11-28T09:48:55Z</time>
      </trkpt>
      <trkpt lat="43.44804" lon="6.60408">
        <ele>331.83197873831</ele>
        <time>2021-11-28T09:48:56Z</time>
      </trkpt>
      <trkpt lat="43.44804" lon="6.60408">
        <ele>331.83197873831</ele>
        <time>2021-11-28T09:48:58Z</time>
      </trkpt>
      <trkpt lat="43.44806" lon="6.60409">
        <ele>332.83184060454</ele>
        <time>2021-11-28T09:49:00Z</time>
      </trkpt>
      <trkpt lat="43.44807" lon="6.60409">
        <ele>334.83178528398</ele>
        <time>2021-11-28T09:49:04Z</time>
      </trkpt>
      <trkpt lat="43.44808" lon="6.6041">
        <ele>334.83173700422</ele>
        <time>2021-11-28T09:49:06Z</time>
      </trkpt>
      <trkpt lat="43.44809" lon="6.6041">
        <ele>334.83172560483</ele>
        <time>2021-11-28T09:49:07Z</time>
      </trkpt>
      <trkpt lat="43.44809" lon="6.60411">
        <ele>334.83171923459</ele>
        <time>2021-11-28T09:49:08Z</time>
      </trkpt>
      <trkpt lat="43.4481" lon="6.60411">
        <ele>334.8316501677</ele>
        <time>2021-11-28T09:49:10Z</time>
      </trkpt>
      <trkpt lat="43.44811" lon="6.60411">
        <ele>335.83160959929</ele>
        <time>2021-11-28T09:49:12Z</time>
      </trkpt>
      <trkpt lat="43.44811" lon="6.60412">
        <ele>335.83159115911</ele>
        <time>2021-11-28T09:49:15Z</time>
      </trkpt>
      <trkpt lat="43.44811" lon="6.60413">
        <ele>335.83163742721</ele>
        <time>2021-11-28T09:49:16Z</time>
      </trkpt>
      <trkpt lat="43.44812" lon="6.60413">
        <ele>335.83156064898</ele>
        <time>2021-11-28T09:49:20Z</time>
      </trkpt>
      <trkpt lat="43.44812" lon="6.60413">
        <ele>335.83154388517</ele>
        <time>2021-11-28T09:49:21Z</time>
      </trkpt>
      <trkpt lat="43.44813" lon="6.60414">
        <ele>333.83152913302</ele>
        <time>2021-11-28T09:49:23Z</time>
      </trkpt>
      <trkpt lat="43.44814" lon="6.60415">
        <ele>333.83149359375</ele>
        <time>2021-11-28T09:49:26Z</time>
      </trkpt>
      <trkpt lat="43.44814" lon="6.60415">
        <ele>334.83148688823</ele>
        <time>2021-11-28T09:49:29Z</time>
      </trkpt>
      <trkpt lat="43.44813" lon="6.60416">
        <ele>334.83157674223</ele>
        <time>2021-11-28T09:49:31Z</time>
      </trkpt>
      <trkpt lat="43.44813" lon="6.60416">
        <ele>336.8316417858</ele>
        <time>2021-11-28T09:49:37Z</time>
      </trkpt>
      <trkpt lat="43.44813" lon="6.60414">
        <ele>337.83151069283</ele>
        <time>2021-11-28T09:49:38Z</time>
      </trkpt>
      <trkpt lat="43.44814" lon="6.60414">
        <ele>338.83147649467</ele>
        <time>2021-11-28T09:49:39Z</time>
      </trkpt>
      <trkpt lat="43.44813" lon="6.60416">
        <ele>339.83157305419</ele>
        <time>2021-11-28T09:49:41Z</time>
      </trkpt>
      <trkpt lat="43.44813" lon="6.60415">
        <ele>340.8315743953</ele>
        <time>2021-11-28T09:49:43Z</time>
      </trkpt>
      <trkpt lat="43.44811" lon="6.60416">
        <ele>341.83177254349</ele>
        <time>2021-11-28T09:49:45Z</time>
      </trkpt>
      <trkpt lat="43.4481" lon="6.60416">
        <ele>342.83180037141</ele>
        <time>2021-11-28T09:49:48Z</time>
      </trkpt>
      <trkpt lat="43.44811" lon="6.60415">
        <ele>343.83172493428</ele>
        <time>2021-11-28T09:49:49Z</time>
      </trkpt>
      <trkpt lat="43.4481" lon="6.60413">
        <ele>344.83170012385</ele>
        <time>2021-11-28T09:49:54Z</time>
      </trkpt>
      <trkpt lat="43.44811" lon="6.60414">
        <ele>345.83163642138</ele>
        <time>2021-11-28T09:49:56Z</time>
      </trkpt>
      <trkpt lat="43.44812" lon="6.60413">
        <ele>345.83158478886</ele>
        <time>2021-11-28T09:49:59Z</time>
      </trkpt>
      <trkpt lat="43.44812" lon="6.60414">
        <ele>346.8315757364</ele>
        <time>2021-11-28T09:50:10Z</time>
      </trkpt>
      <trkpt lat="43.44813" lon="6.60415">
        <ele>345.83154388517</ele>
        <time>2021-11-28T09:50:34Z</time>
      </trkpt>
      <trkpt lat="43.44814" lon="6.60417">
        <ele>343.83153986186</ele>
        <time>2021-11-28T09:50:36Z</time>
      </trkpt>
      <trkpt lat="43.44816" lon="6.60415">
        <ele>343.83134104311</ele>
        <time>2021-11-28T09:50:38Z</time>
      </trkpt>
      <trkpt lat="43.44817" lon="6.60414">
        <ele>342.83123040199</ele>
        <time>2021-11-28T09:50:40Z</time>
      </trkpt>
      <trkpt lat="43.44817" lon="6.60414">
        <ele>341.83120760322</ele>
        <time>2021-11-28T09:50:42Z</time>
      </trkpt>
      <trkpt lat="43.44816" lon="6.60414">
        <ele>341.83124515414</ele>
        <time>2021-11-28T09:50:43Z</time>
      </trkpt>
      <trkpt lat="43.44817" lon="6.60414">
        <ele>341.83119922131</ele>
        <time>2021-11-28T09:50:52Z</time>
      </trkpt>
      <trkpt lat="43.44817" lon="6.60412">
        <ele>342.83115429431</ele>
        <time>2021-11-28T09:50:53Z</time>
      </trkpt>
      <trkpt lat="43.44816" lon="6.60411">
        <ele>340.83114557713</ele>
        <time>2021-11-28T09:51:35Z</time>
      </trkpt>
      <trkpt lat="43.44816" lon="6.60413">
        <ele>342.83127901703</ele>
        <time>2021-11-28T09:51:37Z</time>
      </trkpt>
      <trkpt lat="43.44815" lon="6.60414">
        <ele>342.831365183</ele>
        <time>2021-11-28T09:51:38Z</time>
      </trkpt>
      <trkpt lat="43.44814" lon="6.60414">
        <ele>343.8314422965</ele>
        <time>2021-11-28T09:51:40Z</time>
      </trkpt>
      <trkpt lat="43.44814" lon="6.60415">
        <ele>343.83150767535</ele>
        <time>2021-11-28T09:51:43Z</time>
      </trkpt>
      <trkpt lat="43.44814" lon="6.60413">
        <ele>343.83135847747</ele>
        <time>2021-11-28T09:51:44Z</time>
      </trkpt>
      <trkpt lat="43.44815" lon="6.60413">
        <ele>343.8313215971</ele>
        <time>2021-11-28T09:51:57Z</time>
      </trkpt>
      <trkpt lat="43.44815" lon="6.60414">
        <ele>343.83135579526</ele>
        <time>2021-11-28T09:51:58Z</time>
      </trkpt>
      <trkpt lat="43.44815" lon="6.60415">
        <ele>343.8314184919</ele>
        <time>2021-11-28T09:52:01Z</time>
      </trkpt>
      <trkpt lat="43.44816" lon="6.60415">
        <ele>343.83132226765</ele>
        <time>2021-11-28T09:52:03Z</time>
      </trkpt>
      <trkpt lat="43.44816" lon="6.60415">
        <ele>344.83134339005</ele>
        <time>2021-11-28T09:52:05Z</time>
      </trkpt>
      <trkpt lat="43.44815" lon="6.60416">
        <ele>343.83141782135</ele>
        <time>2021-11-28T09:52:10Z</time>
      </trkpt>
      <trkpt lat="43.44815" lon="6.60417">
        <ele>342.83146509528</ele>
        <time>2021-11-28T09:52:31Z</time>
      </trkpt>
      <trkpt lat="43.44816" lon="6.60415">
        <ele>342.83132193238</ele>
        <time>2021-11-28T09:52:33Z</time>
      </trkpt>
      <trkpt lat="43.44816" lon="6.60416">
        <ele>341.83136987686</ele>
        <time>2021-11-28T09:52:34Z</time>
      </trkpt>
      <trkpt lat="43.44816" lon="6.60417">
        <ele>341.83139133453</ele>
        <time>2021-11-28T09:52:35Z</time>
      </trkpt>
      <trkpt lat="43.44817" lon="6.60416">
        <ele>341.83130416274</ele>
        <time>2021-11-28T09:52:37Z</time>
      </trkpt>
      <trkpt lat="43.44815" lon="6.60417">
        <ele>341.83144866675</ele>
        <time>2021-11-28T09:52:38Z</time>
      </trkpt>
      <trkpt lat="43.44815" lon="6.60416">
        <ele>343.83144263178</ele>
        <time>2021-11-28T09:52:45Z</time>
      </trkpt>
      <trkpt lat="43.44815" lon="6.60416">
        <ele>343.83146878332</ele>
        <time>2021-11-28T09:52:51Z</time>
      </trkpt>
      <trkpt lat="43.44814" lon="6.60416">
        <ele>343.83150566369</ele>
        <time>2021-11-28T09:52:55Z</time>
      </trkpt>
      <trkpt lat="43.44815" lon="6.60417">
        <ele>343.83149024099</ele>
        <time>2021-11-28T09:52:58Z</time>
      </trkpt>
      <trkpt lat="43.44815" lon="6.60417">
        <ele>343.83147213608</ele>
        <time>2021-11-28T09:53:01Z</time>
      </trkpt>
      <trkpt lat="43.44815" lon="6.60418">
        <ele>343.83151069283</ele>
        <time>2021-11-28T09:53:03Z</time>
      </trkpt>
      <trkpt lat="43.44816" lon="6.60418">
        <ele>342.83149124682</ele>
        <time>2021-11-28T09:53:11Z</time>
      </trkpt>
      <trkpt lat="43.44817" lon="6.60418">
        <ele>343.83136350662</ele>
        <time>2021-11-28T09:53:13Z</time>
      </trkpt>
      <trkpt lat="43.44817" lon="6.60418">
        <ele>343.83139401674</ele>
        <time>2021-11-28T09:53:14Z</time>
      </trkpt>
      <trkpt lat="43.44815" lon="6.60418">
        <ele>343.83152879775</ele>
        <time>2021-11-28T09:53:15Z</time>
      </trkpt>
      <trkpt lat="43.44815" lon="6.60417">
        <ele>343.83148889989</ele>
        <time>2021-11-28T09:53:56Z</time>
      </trkpt>
      <trkpt lat="43.44814" lon="6.60418">
        <ele>343.83158110082</ele>
        <time>2021-11-28T09:53:58Z</time>
      </trkpt>
      <trkpt lat="43.44814" lon="6.60417">
        <ele>343.83153114468</ele>
        <time>2021-11-28T09:55:21Z</time>
      </trkpt>
      <trkpt lat="43.44814" lon="6.60416">
        <ele>343.83155796677</ele>
        <time>2021-11-28T09:55:40Z</time>
      </trkpt>
      <trkpt lat="43.44814" lon="6.60415">
        <ele>342.83151941001</ele>
        <time>2021-11-28T09:56:06Z</time>
      </trkpt>
      <trkpt lat="43.44813" lon="6.60414">
        <ele>342.83150264621</ele>
        <time>2021-11-28T09:56:10Z</time>
      </trkpt>
      <trkpt lat="43.44814" lon="6.60414">
        <ele>342.83142653853</ele>
        <time>2021-11-28T09:56:12Z</time>
      </trkpt>
      <trkpt lat="43.44813" lon="6.60415">
        <ele>342.83155830204</ele>
        <time>2021-11-28T09:56:13Z</time>
      </trkpt>
      <trkpt lat="43.44813" lon="6.60415">
        <ele>341.83151706308</ele>
        <time>2021-11-28T09:56:16Z</time>
      </trkpt>
      <trkpt lat="43.44814" lon="6.60415">
        <ele>341.83149828762</ele>
        <time>2021-11-28T09:56:26Z</time>
      </trkpt>
      <trkpt lat="43.44815" lon="6.60414">
        <ele>341.83138496429</ele>
        <time>2021-11-28T09:56:28Z</time>
      </trkpt>
      <trkpt lat="43.44814" lon="6.60415">
        <ele>341.83149258792</ele>
        <time>2021-11-28T09:56:29Z</time>
      </trkpt>
      <trkpt lat="43.44814" lon="6.60415">
        <ele>342.83148420602</ele>
        <time>2021-11-28T09:56:34Z</time>
      </trkpt>
      <trkpt lat="43.44815" lon="6.60415">
        <ele>340.83141279221</ele>
        <time>2021-11-28T09:56:35Z</time>
      </trkpt>
      <trkpt lat="43.44815" lon="6.60416">
        <ele>340.83144665509</ele>
        <time>2021-11-28T09:56:55Z</time>
      </trkpt>
      <trkpt lat="43.44815" lon="6.60414">
        <ele>339.8313511014</ele>
        <time>2021-11-28T09:56:57Z</time>
      </trkpt>
      <trkpt lat="43.44815" lon="6.60414">
        <ele>340.83136417717</ele>
        <time>2021-11-28T09:57:05Z</time>
      </trkpt>
      <trkpt lat="43.44815" lon="6.60415">
        <ele>338.83140675724</ele>
        <time>2021-11-28T09:57:44Z</time>
      </trkpt>
      <trkpt lat="43.44815" lon="6.60415">
        <ele>338.83145671338</ele>
        <time>2021-11-28T09:57:46Z</time>
      </trkpt>
      <trkpt lat="43.44815" lon="6.60416">
        <ele>333.83147951216</ele>
        <time>2021-11-28T09:58:31Z</time>
      </trkpt>
      <trkpt lat="43.44815" lon="6.60416">
        <ele>334.83146777749</ele>
        <time>2021-11-28T09:59:29Z</time>
      </trkpt>
      <trkpt lat="43.44815" lon="6.60415">
        <ele>334.8313889876</ele>
        <time>2021-11-28T09:59:31Z</time>
      </trkpt>
      <trkpt lat="43.44816" lon="6.60415">
        <ele>335.83131556213</ele>
        <time>2021-11-28T09:59:37Z</time>
      </trkpt>
      <trkpt lat="43.44815" lon="6.60415">
        <ele>335.83142150939</ele>
        <time>2021-11-28T09:59:38Z</time>
      </trkpt>
      <trkpt lat="43.44816" lon="6.60415">
        <ele>335.83133970201</ele>
        <time>2021-11-28T09:59:51Z</time>
      </trkpt>
      <trkpt lat="43.44815" lon="6.60416">
        <ele>337.83139301091</ele>
        <time>2021-11-28T09:59:58Z</time>
      </trkpt>
      <trkpt lat="43.44816" lon="6.60416">
        <ele>340.83140407503</ele>
        <time>2021-11-28T10:00:01Z</time>
      </trkpt>
      <trkpt lat="43.44816" lon="6.60414">
        <ele>340.83128605783</ele>
        <time>2021-11-28T10:00:03Z</time>
      </trkpt>
      <trkpt lat="43.44816" lon="6.60413">
        <ele>340.8312612474</ele>
        <time>2021-11-28T10:00:05Z</time>
      </trkpt>
      <trkpt lat="43.44817" lon="6.60411">
        <ele>340.83110132068</ele>
        <time>2021-11-28T10:00:07Z</time>
      </trkpt>
      <trkpt lat="43.44817" lon="6.60411">
        <ele>341.83105639368</ele>
        <time>2021-11-28T10:00:09Z</time>
      </trkpt>
      <trkpt lat="43.44818" lon="6.6041">
        <ele>341.83100811392</ele>
        <time>2021-11-28T10:00:11Z</time>
      </trkpt>
      <trkpt lat="43.44817" lon="6.60412">
        <ele>342.83113350719</ele>
        <time>2021-11-28T10:00:13Z</time>
      </trkpt>
      <trkpt lat="43.44816" lon="6.60411">
        <ele>341.83113551885</ele>
        <time>2021-11-28T10:00:41Z</time>
      </trkpt>
      <trkpt lat="43.44816" lon="6.60411">
        <ele>341.83112948388</ele>
        <time>2021-11-28T10:00:51Z</time>
      </trkpt>
      <trkpt lat="43.44816" lon="6.6041">
        <ele>341.83110634983</ele>
        <time>2021-11-28T10:01:18Z</time>
      </trkpt>
      <trkpt lat="43.44815" lon="6.60411">
        <ele>342.83118480444</ele>
        <time>2021-11-28T10:02:18Z</time>
      </trkpt>
      <trkpt lat="43.44817" lon="6.60411">
        <ele>342.831105344</ele>
        <time>2021-11-28T10:02:19Z</time>
      </trkpt>
      <trkpt lat="43.44816" lon="6.60412">
        <ele>343.8311643526</ele>
        <time>2021-11-28T10:02:59Z</time>
      </trkpt>
      <trkpt lat="43.44817" lon="6.60411">
        <ele>343.83105270565</ele>
        <time>2021-11-28T10:03:01Z</time>
      </trkpt>
      <trkpt lat="43.44817" lon="6.60411">
        <ele>343.83105136454</ele>
        <time>2021-11-28T10:03:05Z</time>
      </trkpt>
      <trkpt lat="43.44818" lon="6.6041">
        <ele>344.83092932403</ele>
        <time>2021-11-28T10:03:07Z</time>
      </trkpt>
      <trkpt lat="43.44817" lon="6.60411">
        <ele>344.83106779307</ele>
        <time>2021-11-28T10:03:08Z</time>
      </trkpt>
      <trkpt lat="43.44817" lon="6.60412">
        <ele>344.83107483387</ele>
        <time>2021-11-28T10:03:31Z</time>
      </trkpt>
      <trkpt lat="43.44818" lon="6.6041">
        <ele>344.8309635222</ele>
        <time>2021-11-28T10:03:33Z</time>
      </trkpt>
      <trkpt lat="43.44817" lon="6.60412">
        <ele>345.83110065013</ele>
        <time>2021-11-28T10:03:34Z</time>
      </trkpt>
      <trkpt lat="43.44817" lon="6.60412">
        <ele>345.83110366762</ele>
        <time>2021-11-28T10:04:01Z</time>
      </trkpt>
      <trkpt lat="43.44816" lon="6.60412">
        <ele>344.83120257407</ele>
        <time>2021-11-28T10:04:03Z</time>
      </trkpt>
      <trkpt lat="43.44817" lon="6.60412">
        <ele>344.83108086884</ele>
        <time>2021-11-28T10:04:04Z</time>
      </trkpt>
      <trkpt lat="43.44817" lon="6.60412">
        <ele>344.83112143725</ele>
        <time>2021-11-28T10:10:58Z</time>
      </trkpt>
      <trkpt lat="43.44816" lon="6.60411">
        <ele>343.83113652468</ele>
        <time>2021-11-28T10:11:10Z</time>
      </trkpt>
      <trkpt lat="43.44816" lon="6.60411">
        <ele>343.83111607283</ele>
        <time>2021-11-28T10:11:12Z</time>
      </trkpt>
      <trkpt lat="43.44817" lon="6.6041">
        <ele>343.83103728294</ele>
        <time>2021-11-28T10:11:14Z</time>
      </trkpt>
      <trkpt lat="43.44816" lon="6.60411">
        <ele>343.83118078113</ele>
        <time>2021-11-28T10:11:15Z</time>
      </trkpt>
      <trkpt lat="43.44816" lon="6.6041">
        <ele>341.8311361894</ele>
        <time>2021-11-28T10:11:24Z</time>
      </trkpt>
      <trkpt lat="43.44816" lon="6.60412">
        <ele>342.8311432302</ele>
        <time>2021-11-28T10:11:25Z</time>
      </trkpt>
      <trkpt lat="43.44816" lon="6.60411">
        <ele>341.83119620383</ele>
        <time>2021-11-28T10:11:42Z</time>
      </trkpt>
      <trkpt lat="43.44816" lon="6.60411">
        <ele>342.83116234094</ele>
        <time>2021-11-28T10:11:44Z</time>
      </trkpt>
      <trkpt lat="43.44816" lon="6.60412">
        <ele>342.83122704923</ele>
        <time>2021-11-28T10:11:45Z</time>
      </trkpt>
      <trkpt lat="43.44816" lon="6.60412">
        <ele>342.83119318634</ele>
        <time>2021-11-28T10:11:52Z</time>
      </trkpt>
      <trkpt lat="43.44817" lon="6.6041">
        <ele>341.83108723909</ele>
        <time>2021-11-28T10:11:54Z</time>
      </trkpt>
      <trkpt lat="43.44817" lon="6.6041">
        <ele>342.83106812835</ele>
        <time>2021-11-28T10:11:56Z</time>
      </trkpt>
      <trkpt lat="43.44817" lon="6.60411">
        <ele>342.83109226823</ele>
        <time>2021-11-28T10:12:02Z</time>
      </trkpt>
      <trkpt lat="43.44816" lon="6.60411">
        <ele>343.83115194738</ele>
        <time>2021-11-28T10:12:14Z</time>
      </trkpt>
      <trkpt lat="43.44816" lon="6.60412">
        <ele>343.83123140782</ele>
        <time>2021-11-28T10:12:15Z</time>
      </trkpt>
      <trkpt lat="43.44816" lon="6.60412">
        <ele>343.83116837591</ele>
        <time>2021-11-28T10:12:18Z</time>
      </trkpt>
      <trkpt lat="43.44815" lon="6.60413">
        <ele>343.83130013943</ele>
        <time>2021-11-28T10:12:19Z</time>
      </trkpt>
      <trkpt lat="43.44815" lon="6.60414">
        <ele>343.8313356787</ele>
        <time>2021-11-28T10:12:32Z</time>
      </trkpt>
      <trkpt lat="43.44814" lon="6.60416">
        <ele>344.83151941001</ele>
        <time>2021-11-28T10:12:34Z</time>
      </trkpt>
      <trkpt lat="43.44814" lon="6.60415">
        <ele>343.8315140456</ele>
        <time>2021-11-28T10:12:46Z</time>
      </trkpt>
      <trkpt lat="43.44814" lon="6.60414">
        <ele>342.83147783577</ele>
        <time>2021-11-28T10:12:48Z</time>
      </trkpt>
      <trkpt lat="43.44813" lon="6.60416">
        <ele>343.83155763149</ele>
        <time>2021-11-28T10:12:49Z</time>
      </trkpt>
      <trkpt lat="43.44813" lon="6.60416">
        <ele>343.83155763149</ele>
        <time>2021-11-28T10:12:56Z</time>
      </trkpt>
      <trkpt lat="43.44815" lon="6.60414">
        <ele>342.83138529956</ele>
        <time>2021-11-28T10:12:58Z</time>
      </trkpt>
      <trkpt lat="43.44815" lon="6.60414">
        <ele>343.83138395846</ele>
        <time>2021-11-28T10:13:06Z</time>
      </trkpt>
      <trkpt lat="43.44815" lon="6.60413">
        <ele>342.83129745722</ele>
        <time>2021-11-28T10:13:08Z</time>
      </trkpt>
      <trkpt lat="43.44814" lon="6.60414">
        <ele>343.83141748607</ele>
        <time>2021-11-28T10:13:09Z</time>
      </trkpt>
      <trkpt lat="43.44814" lon="6.60414">
        <ele>343.83141547441</ele>
        <time>2021-11-28T10:13:12Z</time>
      </trkpt>
      <trkpt lat="43.44815" lon="6.60413">
        <ele>342.83132930845</ele>
        <time>2021-11-28T10:13:14Z</time>
      </trkpt>
      <trkpt lat="43.44814" lon="6.60414">
        <ele>343.8314479962</ele>
        <time>2021-11-28T10:13:15Z</time>
      </trkpt>
      <trkpt lat="43.44814" lon="6.60414">
        <ele>343.83144866675</ele>
        <time>2021-11-28T10:13:16Z</time>
      </trkpt>
      <trkpt lat="43.44814" lon="6.60413">
        <ele>342.83139804006</ele>
        <time>2021-11-28T10:13:18Z</time>
      </trkpt>
      <trkpt lat="43.44814" lon="6.60414">
        <ele>342.83145101368</ele>
        <time>2021-11-28T10:13:19Z</time>
      </trkpt>
      <trkpt lat="43.44814" lon="6.60413">
        <ele>342.83138798177</ele>
        <time>2021-11-28T10:13:22Z</time>
      </trkpt>
      <trkpt lat="43.44814" lon="6.60413">
        <ele>342.83139435202</ele>
        <time>2021-11-28T10:13:30Z</time>
      </trkpt>
      <trkpt lat="43.44816" lon="6.60411">
        <ele>341.83120425045</ele>
        <time>2021-11-28T10:13:32Z</time>
      </trkpt>
      <trkpt lat="43.44816" lon="6.60409">
        <ele>340.83104801178</ele>
        <time>2021-11-28T10:13:34Z</time>
      </trkpt>
      <trkpt lat="43.44816" lon="6.60408">
        <ele>339.8310168311</ele>
        <time>2021-11-28T10:13:38Z</time>
      </trkpt>
      <trkpt lat="43.44816" lon="6.60409">
        <ele>339.83106812835</ele>
        <time>2021-11-28T10:13:39Z</time>
      </trkpt>
      <trkpt lat="43.44816" lon="6.60409">
        <ele>339.83110601455</ele>
        <time>2021-11-28T10:13:54Z</time>
      </trkpt>
      <trkpt lat="43.44816" lon="6.6041">
        <ele>339.83110903203</ele>
        <time>2021-11-28T10:14:06Z</time>
      </trkpt>
      <trkpt lat="43.44816" lon="6.60409">
        <ele>339.83102990687</ele>
        <time>2021-11-28T10:14:08Z</time>
      </trkpt>
      <trkpt lat="43.44816" lon="6.6041">
        <ele>339.83115630597</ele>
        <time>2021-11-28T10:14:09Z</time>
      </trkpt>
      <trkpt lat="43.44816" lon="6.6041">
        <ele>339.83115462959</ele>
        <time>2021-11-28T10:14:10Z</time>
      </trkpt>
      <trkpt lat="43.44816" lon="6.60409">
        <ele>339.83107818663</ele>
        <time>2021-11-28T10:14:12Z</time>
      </trkpt>
      <trkpt lat="43.44816" lon="6.60409">
        <ele>339.83108589798</ele>
        <time>2021-11-28T10:14:16Z</time>
      </trkpt>
      <trkpt lat="43.44817" lon="6.60408">
        <ele>339.83098967373</ele>
        <time>2021-11-28T10:14:18Z</time>
      </trkpt>
      <trkpt lat="43.44817" lon="6.60407">
        <ele>340.83094407618</ele>
        <time>2021-11-28T10:14:32Z</time>
      </trkpt>
      <trkpt lat="43.44817" lon="6.60407">
        <ele>341.83089378476</ele>
        <time>2021-11-28T10:14:54Z</time>
      </trkpt>
      <trkpt lat="43.44817" lon="6.60408">
        <ele>341.8309564814</ele>
        <time>2021-11-28T10:14:55Z</time>
      </trkpt>
      <trkpt lat="43.44817" lon="6.60409">
        <ele>342.83099302649</ele>
        <time>2021-11-28T10:15:06Z</time>
      </trkpt>
      <trkpt lat="43.44817" lon="6.60408">
        <ele>341.83097257465</ele>
        <time>2021-11-28T10:15:08Z</time>
      </trkpt>
      <trkpt lat="43.44817" lon="6.60409">
        <ele>341.8309873268</ele>
        <time>2021-11-28T10:15:09Z</time>
      </trkpt>
      <trkpt lat="43.44817" lon="6.6041">
        <ele>341.83105505258</ele>
        <time>2021-11-28T10:15:14Z</time>
      </trkpt>
      <trkpt lat="43.44817" lon="6.60411">
        <ele>342.83104868233</ele>
        <time>2021-11-28T10:15:28Z</time>
      </trkpt>
      <trkpt lat="43.44817" lon="6.60412">
        <ele>343.8311123848</ele>
        <time>2021-11-28T10:15:32Z</time>
      </trkpt>
      <trkpt lat="43.44817" lon="6.60412">
        <ele>344.83116401732</ele>
        <time>2021-11-28T10:15:42Z</time>
      </trkpt>
      <trkpt lat="43.44816" lon="6.60413">
        <ele>344.83122637868</ele>
        <time>2021-11-28T10:15:56Z</time>
      </trkpt>
      <trkpt lat="43.44817" lon="6.60412">
        <ele>344.83111640811</ele>
        <time>2021-11-28T10:15:58Z</time>
      </trkpt>
      <trkpt lat="43.44816" lon="6.60413">
        <ele>344.83123040199</ele>
        <time>2021-11-28T10:15:59Z</time>
      </trkpt>
      <trkpt lat="43.44817" lon="6.60413">
        <ele>344.83119788021</ele>
        <time>2021-11-28T10:16:10Z</time>
      </trkpt>
      <trkpt lat="43.44817" lon="6.60412">
        <ele>343.83108120412</ele>
        <time>2021-11-28T10:16:12Z</time>
      </trkpt>
      <trkpt lat="43.44818" lon="6.60411">
        <ele>343.83102487773</ele>
        <time>2021-11-28T10:16:26Z</time>
      </trkpt>
      <trkpt lat="43.44818" lon="6.6041">
        <ele>343.83096922189</ele>
        <time>2021-11-28T10:16:28Z</time>
      </trkpt>
      <trkpt lat="43.44818" lon="6.60411">
        <ele>343.83102286607</ele>
        <time>2021-11-28T10:16:29Z</time>
      </trkpt>
      <trkpt lat="43.44817" lon="6.60411">
        <ele>343.83108187467</ele>
        <time>2021-11-28T10:16:42Z</time>
      </trkpt>
      <trkpt lat="43.44816" lon="6.60411">
        <ele>342.83114155382</ele>
        <time>2021-11-28T10:16:44Z</time>
      </trkpt>
      <trkpt lat="43.44816" lon="6.60412">
        <ele>341.8312176615</ele>
        <time>2021-11-28T10:17:00Z</time>
      </trkpt>
      <trkpt lat="43.44816" lon="6.60411">
        <ele>340.83115328848</ele>
        <time>2021-11-28T10:17:24Z</time>
      </trkpt>
      <trkpt lat="43.44815" lon="6.60412">
        <ele>341.83126594126</ele>
        <time>2021-11-28T10:17:25Z</time>
      </trkpt>
      <trkpt lat="43.44816" lon="6.60412">
        <ele>341.83122000843</ele>
        <time>2021-11-28T10:17:54Z</time>
      </trkpt>
      <trkpt lat="43.44816" lon="6.60412">
        <ele>341.83117642254</ele>
        <time>2021-11-28T10:18:02Z</time>
      </trkpt>
      <trkpt lat="43.44816" lon="6.60411">
        <ele>341.83115530014</ele>
        <time>2021-11-28T10:18:04Z</time>
      </trkpt>
      <trkpt lat="43.44817" lon="6.60412">
        <ele>341.831150271</ele>
        <time>2021-11-28T10:18:05Z</time>
      </trkpt>
      <trkpt lat="43.44816" lon="6.60412">
        <ele>341.8311656937</ele>
        <time>2021-11-28T10:18:16Z</time>
      </trkpt>
      <trkpt lat="43.44817" lon="6.60411">
        <ele>341.83111137897</ele>
        <time>2021-11-28T10:18:18Z</time>
      </trkpt>
      <trkpt lat="43.44817" lon="6.60412">
        <ele>341.83115664124</ele>
        <time>2021-11-28T10:18:19Z</time>
      </trkpt>
      <trkpt lat="43.44816" lon="6.60412">
        <ele>341.8311740756</ele>
        <time>2021-11-28T10:18:24Z</time>
      </trkpt>
      <trkpt lat="43.44817" lon="6.60412">
        <ele>341.83114691824</ele>
        <time>2021-11-28T10:18:25Z</time>
      </trkpt>
      <trkpt lat="43.44817" lon="6.60412">
        <ele>341.83113719523</ele>
        <time>2021-11-28T10:18:42Z</time>
      </trkpt>
      <trkpt lat="43.44816" lon="6.60412">
        <ele>341.83120123297</ele>
        <time>2021-11-28T10:19:01Z</time>
      </trkpt>
      <trkpt lat="43.44817" lon="6.60411">
        <ele>340.83110970259</ele>
        <time>2021-11-28T10:19:03Z</time>
      </trkpt>
      <trkpt lat="43.44816" lon="6.60413">
        <ele>340.83124414831</ele>
        <time>2021-11-28T10:19:04Z</time>
      </trkpt>
      <trkpt lat="43.44816" lon="6.60414">
        <ele>340.83125320077</ele>
        <time>2021-11-28T10:19:11Z</time>
      </trkpt>
      <trkpt lat="43.44815" lon="6.60414">
        <ele>339.83133869618</ele>
        <time>2021-11-28T10:19:13Z</time>
      </trkpt>
      <trkpt lat="43.44817" lon="6.60414">
        <ele>340.83120726794</ele>
        <time>2021-11-28T10:19:14Z</time>
      </trkpt>
      <trkpt lat="43.44816" lon="6.60413">
        <ele>340.83121363819</ele>
        <time>2021-11-28T10:19:17Z</time>
      </trkpt>
      <trkpt lat="43.44817" lon="6.60411">
        <ele>340.83110266179</ele>
        <time>2021-11-28T10:19:19Z</time>
      </trkpt>
      <trkpt lat="43.44816" lon="6.60413">
        <ele>340.83122839034</ele>
        <time>2021-11-28T10:19:20Z</time>
      </trkpt>
      <trkpt lat="43.44816" lon="6.60414">
        <ele>340.83127298206</ele>
        <time>2021-11-28T10:19:31Z</time>
      </trkpt>
      <trkpt lat="43.44816" lon="6.60413">
        <ele>340.83122839034</ele>
        <time>2021-11-28T10:19:37Z</time>
      </trkpt>
      <trkpt lat="43.44815" lon="6.60412">
        <ele>340.83124984801</ele>
        <time>2021-11-28T10:19:47Z</time>
      </trkpt>
      <trkpt lat="43.44815" lon="6.60411">
        <ele>340.83121665567</ele>
        <time>2021-11-28T10:19:49Z</time>
      </trkpt>
      <trkpt lat="43.44815" lon="6.60412">
        <ele>340.83126292378</ele>
        <time>2021-11-28T10:19:50Z</time>
      </trkpt>
      <trkpt lat="43.44815" lon="6.60412">
        <ele>340.83126158267</ele>
        <time>2021-11-28T10:19:57Z</time>
      </trkpt>
      <trkpt lat="43.44816" lon="6.60412">
        <ele>340.83118078113</ele>
        <time>2021-11-28T10:20:07Z</time>
      </trkpt>
      <trkpt lat="43.44817" lon="6.60409">
        <ele>341.83101314306</ele>
        <time>2021-11-28T10:20:09Z</time>
      </trkpt>
      <trkpt lat="43.44816" lon="6.60411">
        <ele>341.83114054799</ele>
        <time>2021-11-28T10:20:10Z</time>
      </trkpt>
      <trkpt lat="43.44815" lon="6.6041">
        <ele>340.8311811164</ele>
        <time>2021-11-28T10:20:26Z</time>
      </trkpt>
      <trkpt lat="43.44815" lon="6.6041">
        <ele>340.83123375475</ele>
        <time>2021-11-28T10:20:28Z</time>
      </trkpt>
      <trkpt lat="43.44816" lon="6.60411">
        <ele>340.83115764707</ele>
        <time>2021-11-28T10:20:29Z</time>
      </trkpt>
      <trkpt lat="43.44816" lon="6.6041">
        <ele>339.83113149554</ele>
        <time>2021-11-28T10:20:34Z</time>
      </trkpt>
      <trkpt lat="43.44816" lon="6.60411">
        <ele>340.83116669953</ele>
        <time>2021-11-28T10:20:35Z</time>
      </trkpt>
      <trkpt lat="43.44816" lon="6.60411">
        <ele>340.83116770536</ele>
        <time>2021-11-28T10:20:42Z</time>
      </trkpt>
      <trkpt lat="43.44817" lon="6.60411">
        <ele>338.83111540228</ele>
        <time>2021-11-28T10:20:46Z</time>
      </trkpt>
      <trkpt lat="43.44817" lon="6.60411">
        <ele>338.83105069399</ele>
        <time>2021-11-28T10:20:48Z</time>
      </trkpt>
      <trkpt lat="43.44818" lon="6.60412">
        <ele>338.83100442588</ele>
        <time>2021-11-28T10:20:49Z</time>
      </trkpt>
      <trkpt lat="43.44819" lon="6.60411">
        <ele>338.83094273508</ele>
        <time>2021-11-28T10:20:57Z</time>
      </trkpt>
      <trkpt lat="43.44819" lon="6.60411">
        <ele>338.83092630655</ele>
        <time>2021-11-28T10:21:46Z</time>
      </trkpt>
      <trkpt lat="43.44819" lon="6.6041">
        <ele>338.83093167096</ele>
        <time>2021-11-28T10:21:49Z</time>
      </trkpt>
      <trkpt lat="43.4482" lon="6.6041">
        <ele>338.83081868291</ele>
        <time>2021-11-28T10:21:50Z</time>
      </trkpt>
      <trkpt lat="43.4482" lon="6.60411">
        <ele>338.83083108813</ele>
        <time>2021-11-28T10:22:17Z</time>
      </trkpt>
      <trkpt lat="43.4482" lon="6.60412">
        <ele>338.83089579642</ele>
        <time>2021-11-28T10:22:19Z</time>
      </trkpt>
      <trkpt lat="43.44821" lon="6.60411">
        <ele>338.83077375591</ele>
        <time>2021-11-28T10:22:20Z</time>
      </trkpt>
      <trkpt lat="43.44821" lon="6.60411">
        <ele>338.83077375591</ele>
        <time>2021-11-28T10:22:35Z</time>
      </trkpt>
      <trkpt lat="43.4482" lon="6.60411">
        <ele>338.8308243826</ele>
        <time>2021-11-28T10:22:42Z</time>
      </trkpt>
      <trkpt lat="43.44819" lon="6.60411">
        <ele>339.83087869734</ele>
        <time>2021-11-28T10:23:03Z</time>
      </trkpt>
      <trkpt lat="43.44819" lon="6.6041">
        <ele>339.83091960102</ele>
        <time>2021-11-28T10:23:04Z</time>
      </trkpt>
      <trkpt lat="43.44818" lon="6.60411">
        <ele>339.83099537343</ele>
        <time>2021-11-28T10:23:22Z</time>
      </trkpt>
      <trkpt lat="43.44817" lon="6.6041">
        <ele>338.83106242865</ele>
        <time>2021-11-28T10:23:24Z</time>
      </trkpt>
      <trkpt lat="43.44817" lon="6.6041">
        <ele>338.83101984859</ele>
        <time>2021-11-28T10:23:32Z</time>
      </trkpt>
      <trkpt lat="43.44818" lon="6.60409">
        <ele>338.83096285164</ele>
        <time>2021-11-28T10:23:36Z</time>
      </trkpt>
      <trkpt lat="43.44817" lon="6.60409">
        <ele>338.83102890104</ele>
        <time>2021-11-28T10:23:39Z</time>
      </trkpt>
      <trkpt lat="43.44819" lon="6.6041">
        <ele>338.83089210838</ele>
        <time>2021-11-28T10:23:40Z</time>
      </trkpt>
      <trkpt lat="43.44819" lon="6.6041">
        <ele>338.83089210838</ele>
        <time>2021-11-28T10:23:42Z</time>
      </trkpt>
      <trkpt lat="43.44818" lon="6.6041">
        <ele>339.83099034429</ele>
        <time>2021-11-28T10:23:44Z</time>
      </trkpt>
      <trkpt lat="43.44819" lon="6.6041">
        <ele>339.8309045136</ele>
        <time>2021-11-28T10:23:45Z</time>
      </trkpt>
      <trkpt lat="43.44818" lon="6.6041">
        <ele>339.83095446974</ele>
        <time>2021-11-28T10:23:57Z</time>
      </trkpt>
      <trkpt lat="43.44817" lon="6.6041">
        <ele>341.83104935288</ele>
        <time>2021-11-28T10:23:59Z</time>
      </trkpt>
      <trkpt lat="43.44817" lon="6.6041">
        <ele>339.83100610226</ele>
        <time>2021-11-28T10:24:21Z</time>
      </trkpt>
      <trkpt lat="43.44818" lon="6.6041">
        <ele>338.83094441146</ele>
        <time>2021-11-28T10:24:47Z</time>
      </trkpt>
      <trkpt lat="43.44818" lon="6.60408">
        <ele>339.83089546114</ele>
        <time>2021-11-28T10:24:50Z</time>
      </trkpt>
      <trkpt lat="43.44817" lon="6.6041">
        <ele>340.83101984859</ele>
        <time>2021-11-28T10:24:52Z</time>
      </trkpt>
      <trkpt lat="43.44817" lon="6.60411">
        <ele>340.83105169982</ele>
        <time>2021-11-28T10:25:12Z</time>
      </trkpt>
      <trkpt lat="43.44818" lon="6.60411">
        <ele>338.83096519858</ele>
        <time>2021-11-28T10:25:14Z</time>
      </trkpt>
      <trkpt lat="43.44817" lon="6.60411">
        <ele>340.83106142282</ele>
        <time>2021-11-28T10:25:15Z</time>
      </trkpt>
      <trkpt lat="43.44818" lon="6.60412">
        <ele>340.83108925074</ele>
        <time>2021-11-28T10:25:54Z</time>
      </trkpt>
      <trkpt lat="43.44818" lon="6.60413">
        <ele>340.83105505258</ele>
        <time>2021-11-28T10:26:06Z</time>
      </trkpt>
      <trkpt lat="43.44817" lon="6.60412">
        <ele>340.831105344</ele>
        <time>2021-11-28T10:26:08Z</time>
      </trkpt>
      <trkpt lat="43.44818" lon="6.60413">
        <ele>340.83104868233</ele>
        <time>2021-11-28T10:26:09Z</time>
      </trkpt>
      <trkpt lat="43.44818" lon="6.60413">
        <ele>340.83104734123</ele>
        <time>2021-11-28T10:26:26Z</time>
      </trkpt>
      <trkpt lat="43.4482" lon="6.60413">
        <ele>340.83095011115</ele>
        <time>2021-11-28T10:26:28Z</time>
      </trkpt>
      <trkpt lat="43.44819" lon="6.60414">
        <ele>340.83103560656</ele>
        <time>2021-11-28T10:26:32Z</time>
      </trkpt>
      <trkpt lat="43.44819" lon="6.60412">
        <ele>340.83095145226</ele>
        <time>2021-11-28T10:26:34Z</time>
      </trkpt>
      <trkpt lat="43.44819" lon="6.60414">
        <ele>340.83105739951</ele>
        <time>2021-11-28T10:26:35Z</time>
      </trkpt>
      <trkpt lat="43.44819" lon="6.60414">
        <ele>340.83104801178</ele>
        <time>2021-11-28T10:26:40Z</time>
      </trkpt>
      <trkpt lat="43.44819" lon="6.60413">
        <ele>340.83096218109</ele>
        <time>2021-11-28T10:26:42Z</time>
      </trkpt>
      <trkpt lat="43.4482" lon="6.60412">
        <ele>340.83086461574</ele>
        <time>2021-11-28T10:26:44Z</time>
      </trkpt>
      <trkpt lat="43.4482" lon="6.60412">
        <ele>340.83085522801</ele>
        <time>2021-11-28T10:27:07Z</time>
      </trkpt>
      <trkpt lat="43.4482" lon="6.6041">
        <ele>341.83081667125</ele>
        <time>2021-11-28T10:27:09Z</time>
      </trkpt>
      <trkpt lat="43.44819" lon="6.60411">
        <ele>341.83089244366</ele>
        <time>2021-11-28T10:27:15Z</time>
      </trkpt>
      <trkpt lat="43.44818" lon="6.6041">
        <ele>342.83094407618</ele>
        <time>2021-11-28T10:27:17Z</time>
      </trkpt>
      <trkpt lat="43.44818" lon="6.6041">
        <ele>341.83092932403</ele>
        <time>2021-11-28T10:28:00Z</time>
      </trkpt>
      <trkpt lat="43.44818" lon="6.60409">
        <ele>340.83095614612</ele>
        <time>2021-11-28T10:28:27Z</time>
      </trkpt>
      <trkpt lat="43.44803" lon="6.60407">
        <ele>399.83199784905</ele>
        <time>2021-11-28T11:04:04Z</time>
      </trkpt>
      <trkpt lat="43.44804" lon="6.60404">
        <ele>396.83182484657</ele>
        <time>2021-11-28T11:04:05Z</time>
      </trkpt>
      <trkpt lat="43.44825" lon="6.60396">
        <ele>331.82981117815</ele>
        <time>2021-11-28T11:04:07Z</time>
      </trkpt>
      <trkpt lat="43.44826" lon="6.60397">
        <ele>328.82985208184</ele>
        <time>2021-11-28T11:04:08Z</time>
      </trkpt>
      <trkpt lat="43.44826" lon="6.60397">
        <ele>328.82985208184</ele>
        <time>2021-11-28T11:04:11Z</time>
      </trkpt>
      <trkpt lat="43.44824" lon="6.60399">
        <ele>328.83004251868</ele>
        <time>2021-11-28T11:04:12Z</time>
      </trkpt>
      <trkpt lat="43.44823" lon="6.604">
        <ele>331.83011728525</ele>
        <time>2021-11-28T11:04:15Z</time>
      </trkpt>
      <trkpt lat="43.44824" lon="6.60399">
        <ele>331.82999658585</ele>
        <time>2021-11-28T11:04:16Z</time>
      </trkpt>
      <trkpt lat="43.44824" lon="6.60398">
        <ele>332.83000932634</ele>
        <time>2021-11-28T11:04:25Z</time>
      </trkpt>
      <trkpt lat="43.44824" lon="6.60397">
        <ele>332.82996875793</ele>
        <time>2021-11-28T11:04:26Z</time>
      </trkpt>
      <trkpt lat="43.44824" lon="6.60396">
        <ele>333.82989063859</ele>
        <time>2021-11-28T11:04:27Z</time>
      </trkpt>
      <trkpt lat="43.44824" lon="6.60396">
        <ele>336.8299620524</ele>
        <time>2021-11-28T11:04:30Z</time>
      </trkpt>
      <trkpt lat="43.44823" lon="6.60396">
        <ele>338.83002843708</ele>
        <time>2021-11-28T11:04:48Z</time>
      </trkpt>
      <trkpt lat="43.44823" lon="6.60395">
        <ele>337.83001636714</ele>
        <time>2021-11-28T11:04:52Z</time>
      </trkpt>
      <trkpt lat="43.44823" lon="6.60395">
        <ele>338.82998015732</ele>
        <time>2021-11-28T11:04:53Z</time>
      </trkpt>
      <trkpt lat="43.44822" lon="6.60395">
        <ele>337.83001938462</ele>
        <time>2021-11-28T11:04:57Z</time>
      </trkpt>
      <trkpt lat="43.44823" lon="6.60393">
        <ele>337.82992550731</ele>
        <time>2021-11-28T11:04:59Z</time>
      </trkpt>
      <trkpt lat="43.44823" lon="6.60393">
        <ele>336.82989097387</ele>
        <time>2021-11-28T11:05:01Z</time>
      </trkpt>
      <trkpt lat="43.44823" lon="6.60392">
        <ele>337.82982425392</ele>
        <time>2021-11-28T11:05:02Z</time>
      </trkpt>
      <trkpt lat="43.44824" lon="6.60391">
        <ele>336.82977060974</ele>
        <time>2021-11-28T11:05:05Z</time>
      </trkpt>
      <trkpt lat="43.44824" lon="6.60389">
        <ele>336.82962107658</ele>
        <time>2021-11-28T11:05:07Z</time>
      </trkpt>
      <trkpt lat="43.44824" lon="6.6039">
        <ele>335.82969651371</ele>
        <time>2021-11-28T11:05:12Z</time>
      </trkpt>
      <trkpt lat="43.44824" lon="6.60391">
        <ele>334.82976558059</ele>
        <time>2021-11-28T11:05:14Z</time>
      </trkpt>
      <trkpt lat="43.44823" lon="6.60392">
        <ele>334.82980145514</ele>
        <time>2021-11-28T11:05:15Z</time>
      </trkpt>
      <trkpt lat="43.44823" lon="6.60393">
        <ele>334.82987018675</ele>
        <time>2021-11-28T11:05:16Z</time>
      </trkpt>
      <trkpt lat="43.44823" lon="6.60394">
        <ele>335.82991544902</ele>
        <time>2021-11-28T11:05:17Z</time>
      </trkpt>
      <trkpt lat="43.44823" lon="6.60396">
        <ele>337.83000161499</ele>
        <time>2021-11-28T11:05:19Z</time>
      </trkpt>
      <trkpt lat="43.44822" lon="6.60397">
        <ele>339.83013505489</ele>
        <time>2021-11-28T11:05:20Z</time>
      </trkpt>
      <trkpt lat="43.44821" lon="6.60397">
        <ele>340.83022222668</ele>
        <time>2021-11-28T11:05:21Z</time>
      </trkpt>
      <trkpt lat="43.4482" lon="6.60397">
        <ele>341.83026815951</ele>
        <time>2021-11-28T11:05:25Z</time>
      </trkpt>
      <trkpt lat="43.4482" lon="6.60396">
        <ele>345.83026279509</ele>
        <time>2021-11-28T11:05:31Z</time>
      </trkpt>
      <trkpt lat="43.44821" lon="6.60395">
        <ele>347.83014343679</ele>
        <time>2021-11-28T11:05:33Z</time>
      </trkpt>
      <trkpt lat="43.4482" lon="6.60395">
        <ele>347.83016690612</ele>
        <time>2021-11-28T11:05:35Z</time>
      </trkpt>
      <trkpt lat="43.4482" lon="6.60394">
        <ele>347.83016120642</ele>
        <time>2021-11-28T11:05:37Z</time>
      </trkpt>
      <trkpt lat="43.44819" lon="6.60393">
        <ele>350.83019305766</ele>
        <time>2021-11-28T11:05:39Z</time>
      </trkpt>
      <trkpt lat="43.44819" lon="6.60394">
        <ele>350.83024971932</ele>
        <time>2021-11-28T11:05:40Z</time>
      </trkpt>
      <trkpt lat="43.44819" lon="6.60393">
        <ele>351.83014880121</ele>
        <time>2021-11-28T11:05:42Z</time>
      </trkpt>
      <trkpt lat="43.4482" lon="6.6039">
        <ele>351.82998988032</ele>
        <time>2021-11-28T11:05:44Z</time>
      </trkpt>
      <trkpt lat="43.44821" lon="6.6039">
        <ele>353.82992818952</ele>
        <time>2021-11-28T11:05:49Z</time>
      </trkpt>
      <trkpt lat="43.44822" lon="6.6039">
        <ele>354.82987253368</ele>
        <time>2021-11-28T11:05:55Z</time>
      </trkpt>
      <trkpt lat="43.44823" lon="6.6039">
        <ele>354.82978033274</ele>
        <time>2021-11-28T11:05:57Z</time>
      </trkpt>
      <trkpt lat="43.44823" lon="6.60389">
        <ele>354.82970958948</ele>
        <time>2021-11-28T11:06:00Z</time>
      </trkpt>
      <trkpt lat="43.44823" lon="6.60388">
        <ele>352.8296867907</ele>
        <time>2021-11-28T11:06:07Z</time>
      </trkpt>
      <trkpt lat="43.44823" lon="6.60387">
        <ele>353.8296334818</ele>
        <time>2021-11-28T11:06:09Z</time>
      </trkpt>
      <trkpt lat="43.44823" lon="6.60387">
        <ele>352.82962241769</ele>
        <time>2021-11-28T11:06:14Z</time>
      </trkpt>
      <trkpt lat="43.44824" lon="6.60386">
        <ele>352.82955804467</ele>
        <time>2021-11-28T11:06:15Z</time>
      </trkpt>
      <trkpt lat="43.44824" lon="6.60387">
        <ele>353.82956475019</ele>
        <time>2021-11-28T11:06:33Z</time>
      </trkpt>
      <trkpt lat="43.44823" lon="6.60386">
        <ele>353.82960498333</ele>
        <time>2021-11-28T11:06:41Z</time>
      </trkpt>
      <trkpt lat="43.44823" lon="6.60385">
        <ele>354.82956441492</ele>
        <time>2021-11-28T11:06:46Z</time>
      </trkpt>
      <trkpt lat="43.44824" lon="6.60384">
        <ele>355.82948696613</ele>
        <time>2021-11-28T11:06:48Z</time>
      </trkpt>
      <trkpt lat="43.44823" lon="6.60383">
        <ele>355.82947288454</ele>
        <time>2021-11-28T11:06:51Z</time>
      </trkpt>
      <trkpt lat="43.44823" lon="6.60383">
        <ele>355.82944002748</ele>
        <time>2021-11-28T11:06:52Z</time>
      </trkpt>
      <trkpt lat="43.44824" lon="6.60382">
        <ele>356.82938403636</ele>
        <time>2021-11-28T11:06:53Z</time>
      </trkpt>
      <trkpt lat="43.44824" lon="6.60381">
        <ele>357.82932133973</ele>
        <time>2021-11-28T11:06:55Z</time>
      </trkpt>
      <trkpt lat="43.44825" lon="6.60381">
        <ele>357.8292529434</ele>
        <time>2021-11-28T11:06:57Z</time>
      </trkpt>
      <trkpt lat="43.44825" lon="6.6038">
        <ele>356.82918521762</ele>
        <time>2021-11-28T11:06:59Z</time>
      </trkpt>
      <trkpt lat="43.44825" lon="6.60379">
        <ele>357.82914565504</ele>
        <time>2021-11-28T11:07:01Z</time>
      </trkpt>
      <trkpt lat="43.44825" lon="6.60377">
        <ele>358.82906518877</ele>
        <time>2021-11-28T11:07:03Z</time>
      </trkpt>
      <trkpt lat="43.44825" lon="6.60377">
        <ele>359.82903870195</ele>
        <time>2021-11-28T11:07:05Z</time>
      </trkpt>
      <trkpt lat="43.44826" lon="6.60377">
        <ele>359.82897164673</ele>
        <time>2021-11-28T11:07:07Z</time>
      </trkpt>
      <trkpt lat="43.44827" lon="6.60376">
        <ele>360.82890526205</ele>
        <time>2021-11-28T11:07:10Z</time>
      </trkpt>
      <trkpt lat="43.44827" lon="6.60375">
        <ele>360.82887978107</ele>
        <time>2021-11-28T11:07:14Z</time>
      </trkpt>
      <trkpt lat="43.44826" lon="6.60375">
        <ele>361.82887139916</ele>
        <time>2021-11-28T11:07:24Z</time>
      </trkpt>
      <trkpt lat="43.44826" lon="6.60374">
        <ele>362.82889319211</ele>
        <time>2021-11-28T11:07:25Z</time>
      </trkpt>
      <trkpt lat="43.44826" lon="6.60373">
        <ele>364.82883049548</ele>
        <time>2021-11-28T11:07:28Z</time>
      </trkpt>
      <trkpt lat="43.44826" lon="6.60373">
        <ele>364.82883820683</ele>
        <time>2021-11-28T11:07:29Z</time>
      </trkpt>
      <trkpt lat="43.44826" lon="6.60372">
        <ele>365.82881909609</ele>
        <time>2021-11-28T11:07:34Z</time>
      </trkpt>
      <trkpt lat="43.44825" lon="6.60372">
        <ele>365.82886201143</ele>
        <time>2021-11-28T11:07:35Z</time>
      </trkpt>
      <trkpt lat="43.44824" lon="6.60371">
        <ele>365.82889587432</ele>
        <time>2021-11-28T11:07:36Z</time>
      </trkpt>
      <trkpt lat="43.44824" lon="6.6037">
        <ele>364.8288667053</ele>
        <time>2021-11-28T11:07:39Z</time>
      </trkpt>
      <trkpt lat="43.44825" lon="6.6037">
        <ele>364.82882043719</ele>
        <time>2021-11-28T11:07:40Z</time>
      </trkpt>
      <trkpt lat="43.44824" lon="6.60369">
        <ele>364.82882747799</ele>
        <time>2021-11-28T11:07:44Z</time>
      </trkpt>
      <trkpt lat="43.44824" lon="6.60369">
        <ele>363.82881775498</ele>
        <time>2021-11-28T11:07:49Z</time>
      </trkpt>
      <trkpt lat="43.44824" lon="6.60369">
        <ele>364.82888816297</ele>
        <time>2021-11-28T11:07:50Z</time>
      </trkpt>
      <trkpt lat="43.44823" lon="6.60368">
        <ele>364.82884826511</ele>
        <time>2021-11-28T11:07:51Z</time>
      </trkpt>
      <trkpt lat="43.44823" lon="6.60367">
        <ele>364.82881138474</ele>
        <time>2021-11-28T11:07:52Z</time>
      </trkpt>
      <trkpt lat="43.44823" lon="6.60366">
        <ele>364.82879529148</ele>
        <time>2021-11-28T11:07:53Z</time>
      </trkpt>
      <trkpt lat="43.44822" lon="6.60365">
        <ele>364.82879730314</ele>
        <time>2021-11-28T11:07:55Z</time>
      </trkpt>
      <trkpt lat="43.44822" lon="6.60364">
        <ele>363.82880702615</ele>
        <time>2021-11-28T11:07:56Z</time>
      </trkpt>
      <trkpt lat="43.44821" lon="6.60364">
        <ele>363.82885463536</ele>
        <time>2021-11-28T11:07:57Z</time>
      </trkpt>
      <trkpt lat="43.44821" lon="6.60363">
        <ele>363.82887240499</ele>
        <time>2021-11-28T11:07:58Z</time>
      </trkpt>
      <trkpt lat="43.4482" lon="6.60363">
        <ele>362.82891498506</ele>
        <time>2021-11-28T11:08:01Z</time>
      </trkpt>
      <trkpt lat="43.44819" lon="6.60362">
        <ele>361.82893711329</ele>
        <time>2021-11-28T11:08:04Z</time>
      </trkpt>
      <trkpt lat="43.44819" lon="6.60362">
        <ele>360.82896795869</ele>
        <time>2021-11-28T11:08:05Z</time>
      </trkpt>
      <trkpt lat="43.44819" lon="6.60361">
        <ele>359.82896762341</ele>
        <time>2021-11-28T11:08:07Z</time>
      </trkpt>
      <trkpt lat="43.44818" lon="6.6036">
        <ele>359.82894381881</ele>
        <time>2021-11-28T11:08:09Z</time>
      </trkpt>
      <trkpt lat="43.44818" lon="6.60359">
        <ele>360.82892370224</ele>
        <time>2021-11-28T11:08:12Z</time>
      </trkpt>
      <trkpt lat="43.44818" lon="6.60358">
        <ele>360.82888983935</ele>
        <time>2021-11-28T11:08:13Z</time>
      </trkpt>
      <trkpt lat="43.44818" lon="6.60358">
        <ele>360.82883418351</ele>
        <time>2021-11-28T11:08:15Z</time>
      </trkpt>
      <trkpt lat="43.44819" lon="6.60357">
        <ele>360.82878120989</ele>
        <time>2021-11-28T11:08:16Z</time>
      </trkpt>
      <trkpt lat="43.44819" lon="6.60356">
        <ele>361.8287037611</ele>
        <time>2021-11-28T11:08:17Z</time>
      </trkpt>
      <trkpt lat="43.4482" lon="6.60356">
        <ele>361.8286447525</ele>
        <time>2021-11-28T11:08:18Z</time>
      </trkpt>
      <trkpt lat="43.44821" lon="6.60356">
        <ele>362.8285535574</ele>
        <time>2021-11-28T11:08:19Z</time>
      </trkpt>
      <trkpt lat="43.44822" lon="6.60356">
        <ele>362.82848415524</ele>
        <time>2021-11-28T11:08:20Z</time>
      </trkpt>
      <trkpt lat="43.44823" lon="6.60357">
        <ele>363.82842414081</ele>
        <time>2021-11-28T11:08:22Z</time>
      </trkpt>
      <trkpt lat="43.44824" lon="6.60356">
        <ele>363.82838089019</ele>
        <time>2021-11-28T11:08:24Z</time>
      </trkpt>
      <trkpt lat="43.44823" lon="6.60358">
        <ele>360.82843386382</ele>
        <time>2021-11-28T11:08:30Z</time>
      </trkpt>
      <trkpt lat="43.44824" lon="6.60358">
        <ele>360.82842883468</ele>
        <time>2021-11-28T11:08:31Z</time>
      </trkpt>
      <trkpt lat="43.44824" lon="6.60359">
        <ele>359.82844492793</ele>
        <time>2021-11-28T11:08:33Z</time>
      </trkpt>
      <trkpt lat="43.44824" lon="6.6036">
        <ele>359.82843118161</ele>
        <time>2021-11-28T11:08:34Z</time>
      </trkpt>
      <trkpt lat="43.44824" lon="6.60361">
        <ele>361.82848918438</ele>
        <time>2021-11-28T11:08:35Z</time>
      </trkpt>
      <trkpt lat="43.44824" lon="6.60361">
        <ele>362.82850863039</ele>
        <time>2021-11-28T11:08:42Z</time>
      </trkpt>
      <trkpt lat="43.44823" lon="6.6036">
        <ele>363.82852572948</ele>
        <time>2021-11-28T11:08:44Z</time>
      </trkpt>
      <trkpt lat="43.44823" lon="6.6036">
        <ele>362.82859949023</ele>
        <time>2021-11-28T11:08:47Z</time>
      </trkpt>
      <trkpt lat="43.44822" lon="6.6036">
        <ele>363.8286377117</ele>
        <time>2021-11-28T11:08:50Z</time>
      </trkpt>
      <trkpt lat="43.44821" lon="6.6036">
        <ele>363.82868565619</ele>
        <time>2021-11-28T11:08:51Z</time>
      </trkpt>
      <trkpt lat="43.44821" lon="6.60358">
        <ele>362.82863301784</ele>
        <time>2021-11-28T11:08:54Z</time>
      </trkpt>
      <trkpt lat="43.44822" lon="6.60357">
        <ele>362.82851298898</ele>
        <time>2021-11-28T11:08:55Z</time>
      </trkpt>
      <trkpt lat="43.44822" lon="6.60357">
        <ele>361.82851768285</ele>
        <time>2021-11-28T11:08:58Z</time>
      </trkpt>
      <trkpt lat="43.44823" lon="6.60358">
        <ele>361.82847879082</ele>
        <time>2021-11-28T11:08:59Z</time>
      </trkpt>
      <trkpt lat="43.44823" lon="6.60358">
        <ele>362.82850829512</ele>
        <time>2021-11-28T11:09:00Z</time>
      </trkpt>
      <trkpt lat="43.44823" lon="6.60359">
        <ele>362.8285548985</ele>
        <time>2021-11-28T11:09:10Z</time>
      </trkpt>
      <trkpt lat="43.44824" lon="6.6036">
        <ele>362.8284818083</ele>
        <time>2021-11-28T11:09:12Z</time>
      </trkpt>
      <trkpt lat="43.44824" lon="6.6036">
        <ele>362.82849320769</ele>
        <time>2021-11-28T11:09:15Z</time>
      </trkpt>
      <trkpt lat="43.44825" lon="6.60361">
        <ele>362.82843386382</ele>
        <time>2021-11-28T11:09:16Z</time>
      </trkpt>
      <trkpt lat="43.44824" lon="6.60363">
        <ele>359.82862698287</ele>
        <time>2021-11-28T11:09:18Z</time>
      </trkpt>
      <trkpt lat="43.44824" lon="6.60364">
        <ele>359.82861860096</ele>
        <time>2021-11-28T11:09:21Z</time>
      </trkpt>
      <trkpt lat="43.44825" lon="6.60365">
        <ele>358.82858004421</ele>
        <time>2021-11-28T11:09:25Z</time>
      </trkpt>
      <trkpt lat="43.44826" lon="6.60366">
        <ele>358.82855556905</ele>
        <time>2021-11-28T11:09:26Z</time>
      </trkpt>
      <trkpt lat="43.44826" lon="6.60365">
        <ele>357.82855758071</ele>
        <time>2021-11-28T11:09:57Z</time>
      </trkpt>
      <trkpt lat="43.44825" lon="6.60365">
        <ele>357.82860016078</ele>
        <time>2021-11-28T11:09:59Z</time>
      </trkpt>
      <trkpt lat="43.44825" lon="6.60364">
        <ele>357.82858172059</ele>
        <time>2021-11-28T11:10:00Z</time>
      </trkpt>
      <trkpt lat="43.44824" lon="6.60363">
        <ele>357.82858406752</ele>
        <time>2021-11-28T11:10:01Z</time>
      </trkpt>
      <trkpt lat="43.44823" lon="6.60364">
        <ele>357.82870443165</ele>
        <time>2021-11-28T11:10:03Z</time>
      </trkpt>
      <trkpt lat="43.44823" lon="6.60364">
        <ele>357.8286953792</ele>
        <time>2021-11-28T11:10:04Z</time>
      </trkpt>
      <trkpt lat="43.44822" lon="6.60365">
        <ele>357.82884088904</ele>
        <time>2021-11-28T11:10:05Z</time>
      </trkpt>
      <trkpt lat="43.44822" lon="6.60365">
        <ele>356.82884357125</ele>
        <time>2021-11-28T11:10:11Z</time>
      </trkpt>
      <trkpt lat="43.44822" lon="6.60364">
        <ele>356.82878825068</ele>
        <time>2021-11-28T11:10:12Z</time>
      </trkpt>
      <trkpt lat="43.44822" lon="6.60364">
        <ele>356.82878087461</ele>
        <time>2021-11-28T11:10:19Z</time>
      </trkpt>
      <trkpt lat="43.44823" lon="6.60362">
        <ele>357.82859680802</ele>
        <time>2021-11-28T11:10:20Z</time>
      </trkpt>
      <trkpt lat="43.44824" lon="6.60361">
        <ele>357.82850762457</ele>
        <time>2021-11-28T11:10:22Z</time>
      </trkpt>
      <trkpt lat="43.44825" lon="6.60361">
        <ele>358.82840804756</ele>
        <time>2021-11-28T11:10:24Z</time>
      </trkpt>
      <trkpt lat="43.44825" lon="6.60361">
        <ele>360.82844224572</ele>
        <time>2021-11-28T11:10:25Z</time>
      </trkpt>
      <trkpt lat="43.44825" lon="6.60362">
        <ele>361.82846906781</ele>
        <time>2021-11-28T11:10:26Z</time>
      </trkpt>
      <trkpt lat="43.44827" lon="6.60362">
        <ele>360.82833328098</ele>
        <time>2021-11-28T11:10:28Z</time>
      </trkpt>
      <trkpt lat="43.44827" lon="6.60363">
        <ele>358.82837384939</ele>
        <time>2021-11-28T11:10:36Z</time>
      </trkpt>
      <trkpt lat="43.44826" lon="6.60364">
        <ele>357.82845565677</ele>
        <time>2021-11-28T11:10:38Z</time>
      </trkpt>
      <trkpt lat="43.44826" lon="6.60364">
        <ele>358.82844492793</ele>
        <time>2021-11-28T11:10:46Z</time>
      </trkpt>
      <trkpt lat="43.44826" lon="6.60365">
        <ele>358.82848851383</ele>
        <time>2021-11-28T11:10:48Z</time>
      </trkpt>
      <trkpt lat="43.44826" lon="6.60365">
        <ele>358.82848851383</ele>
        <time>2021-11-28T11:10:50Z</time>
      </trkpt>
      <trkpt lat="43.44826" lon="6.60368">
        <ele>357.82865950465</ele>
        <time>2021-11-28T11:10:52Z</time>
      </trkpt>
      <trkpt lat="43.44826" lon="6.60368">
        <ele>356.82866151631</ele>
        <time>2021-11-28T11:10:54Z</time>
      </trkpt>
      <trkpt lat="43.44827" lon="6.60368">
        <ele>356.82856562734</ele>
        <time>2021-11-28T11:10:55Z</time>
      </trkpt>
      <trkpt lat="43.44827" lon="6.60367">
        <ele>355.82850762457</ele>
        <time>2021-11-28T11:10:58Z</time>
      </trkpt>
      <trkpt lat="43.44829" lon="6.60365">
        <ele>355.82829774171</ele>
        <time>2021-11-28T11:10:59Z</time>
      </trkpt>
      <trkpt lat="43.4483" lon="6.60366">
        <ele>355.82825817913</ele>
        <time>2021-11-28T11:11:00Z</time>
      </trkpt>
      <trkpt lat="43.44831" lon="6.60368">
        <ele>355.82821459323</ele>
        <time>2021-11-28T11:11:02Z</time>
      </trkpt>
      <trkpt lat="43.44831" lon="6.60368">
        <ele>355.82821861655</ele>
        <time>2021-11-28T11:11:05Z</time>
      </trkpt>
      <trkpt lat="43.44833" lon="6.60367">
        <ele>355.82806975394</ele>
        <time>2021-11-28T11:11:06Z</time>
      </trkpt>
      <trkpt lat="43.44831" lon="6.60365">
        <ele>355.82809691131</ele>
        <time>2021-11-28T11:11:08Z</time>
      </trkpt>
      <trkpt lat="43.4483" lon="6.60364">
        <ele>354.82816430181</ele>
        <time>2021-11-28T11:11:09Z</time>
      </trkpt>
      <trkpt lat="43.44829" lon="6.60363">
        <ele>354.82818877697</ele>
        <time>2021-11-28T11:11:10Z</time>
      </trkpt>
      <trkpt lat="43.44829" lon="6.60364">
        <ele>354.82826857269</ele>
        <time>2021-11-28T11:11:11Z</time>
      </trkpt>
      <trkpt lat="43.44828" lon="6.60364">
        <ele>355.82834300399</ele>
        <time>2021-11-28T11:11:13Z</time>
      </trkpt>
      <trkpt lat="43.44828" lon="6.60365">
        <ele>355.82841106504</ele>
        <time>2021-11-28T11:11:33Z</time>
      </trkpt>
      <trkpt lat="43.44828" lon="6.60366">
        <ele>355.82842749357</ele>
        <time>2021-11-28T11:11:37Z</time>
      </trkpt>
      <trkpt lat="43.44828" lon="6.60367">
        <ele>355.82841777056</ele>
        <time>2021-11-28T11:11:39Z</time>
      </trkpt>
      <trkpt lat="43.44828" lon="6.60368">
        <ele>356.82849186659</ele>
        <time>2021-11-28T11:11:40Z</time>
      </trkpt>
      <trkpt lat="43.44828" lon="6.6037">
        <ele>356.82854618132</ele>
        <time>2021-11-28T11:11:41Z</time>
      </trkpt>
      <trkpt lat="43.44828" lon="6.60371">
        <ele>355.82861994207</ele>
        <time>2021-11-28T11:11:43Z</time>
      </trkpt>
      <trkpt lat="43.44828" lon="6.60371">
        <ele>355.82861960679</ele>
        <time>2021-11-28T11:11:45Z</time>
      </trkpt>
      <trkpt lat="43.44829" lon="6.60371">
        <ele>355.82856797427</ele>
        <time>2021-11-28T11:11:47Z</time>
      </trkpt>
      <trkpt lat="43.4483" lon="6.60372">
        <ele>355.82852170616</ele>
        <time>2021-11-28T11:11:49Z</time>
      </trkpt>
      <trkpt lat="43.4483" lon="6.60374">
        <ele>355.82851466537</ele>
        <time>2021-11-28T11:11:50Z</time>
      </trkpt>
      <trkpt lat="43.44832" lon="6.60375">
        <ele>355.82847577333</ele>
        <time>2021-11-28T11:11:51Z</time>
      </trkpt>
      <trkpt lat="43.44832" lon="6.60379">
        <ele>354.82858239114</ele>
        <time>2021-11-28T11:11:53Z</time>
      </trkpt>
      <trkpt lat="43.44832" lon="6.60381">
        <ele>354.82867358625</ele>
        <time>2021-11-28T11:11:54Z</time>
      </trkpt>
      <trkpt lat="43.44832" lon="6.60382">
        <ele>353.82872354239</ele>
        <time>2021-11-28T11:11:55Z</time>
      </trkpt>
      <trkpt lat="43.44833" lon="6.60384">
        <ele>353.82877517492</ele>
        <time>2021-11-28T11:11:57Z</time>
      </trkpt>
      <trkpt lat="43.44834" lon="6.60385">
        <ele>353.82872086018</ele>
        <time>2021-11-28T11:11:59Z</time>
      </trkpt>
      <trkpt lat="43.44834" lon="6.60386">
        <ele>354.82871817797</ele>
        <time>2021-11-28T11:12:00Z</time>
      </trkpt>
      <trkpt lat="43.44834" lon="6.60386">
        <ele>354.82870107889</ele>
        <time>2021-11-28T11:12:01Z</time>
      </trkpt>
      <trkpt lat="43.44834" lon="6.60387">
        <ele>354.82878188044</ele>
        <time>2021-11-28T11:12:03Z</time>
      </trkpt>
      <trkpt lat="43.44833" lon="6.60387">
        <ele>353.8288385421</ele>
        <time>2021-11-28T11:12:07Z</time>
      </trkpt>
      <trkpt lat="43.44832" lon="6.60386">
        <ele>352.82887743413</ele>
        <time>2021-11-28T11:12:09Z</time>
      </trkpt>
      <trkpt lat="43.44833" lon="6.60385">
        <ele>353.82880836725</ele>
        <time>2021-11-28T11:12:16Z</time>
      </trkpt>
      <trkpt lat="43.44833" lon="6.60385">
        <ele>352.82878825068</ele>
        <time>2021-11-28T11:12:18Z</time>
      </trkpt>
      <trkpt lat="43.44833" lon="6.60384">
        <ele>353.82870510221</ele>
        <time>2021-11-28T11:12:19Z</time>
      </trkpt>
      <trkpt lat="43.44834" lon="6.60383">
        <ele>353.82858473808</ele>
        <time>2021-11-28T11:12:20Z</time>
      </trkpt>
      <trkpt lat="43.44835" lon="6.60382">
        <ele>353.82847409695</ele>
        <time>2021-11-28T11:12:21Z</time>
      </trkpt>
      <trkpt lat="43.44837" lon="6.60382">
        <ele>353.82829841226</ele>
        <time>2021-11-28T11:12:22Z</time>
      </trkpt>
      <trkpt lat="43.44838" lon="6.60382">
        <ele>354.82823370397</ele>
        <time>2021-11-28T11:12:23Z</time>
      </trkpt>
      <trkpt lat="43.44839" lon="6.60382">
        <ele>354.82816296071</ele>
        <time>2021-11-28T11:12:24Z</time>
      </trkpt>
      <trkpt lat="43.4484" lon="6.60382">
        <ele>354.82810596377</ele>
        <time>2021-11-28T11:12:25Z</time>
      </trkpt>
      <trkpt lat="43.44841" lon="6.60382">
        <ele>354.82801644504</ele>
        <time>2021-11-28T11:12:26Z</time>
      </trkpt>
      <trkpt lat="43.44842" lon="6.60382">
        <ele>354.82792323828</ele>
        <time>2021-11-28T11:12:27Z</time>
      </trkpt>
      <trkpt lat="43.44844" lon="6.60382">
        <ele>355.82777940482</ele>
        <time>2021-11-28T11:12:29Z</time>
      </trkpt>
      <trkpt lat="43.44844" lon="6.60381">
        <ele>355.82770530879</ele>
        <time>2021-11-28T11:12:31Z</time>
      </trkpt>
      <trkpt lat="43.44845" lon="6.6038">
        <ele>355.82763490081</ele>
        <time>2021-11-28T11:12:32Z</time>
      </trkpt>
      <trkpt lat="43.44846" lon="6.60379">
        <ele>355.82750984281</ele>
        <time>2021-11-28T11:12:34Z</time>
      </trkpt>
      <trkpt lat="43.44846" lon="6.60378">
        <ele>355.82745787501</ele>
        <time>2021-11-28T11:12:35Z</time>
      </trkpt>
      <trkpt lat="43.44846" lon="6.60378">
        <ele>354.82741462439</ele>
        <time>2021-11-28T11:12:36Z</time>
      </trkpt>
      <trkpt lat="43.44848" lon="6.60379">
        <ele>354.8273428753</ele>
        <time>2021-11-28T11:12:38Z</time>
      </trkpt>
      <trkpt lat="43.44848" lon="6.60379">
        <ele>354.82729191333</ele>
        <time>2021-11-28T11:12:40Z</time>
      </trkpt>
      <trkpt lat="43.44849" lon="6.60379">
        <ele>355.82724732161</ele>
        <time>2021-11-28T11:12:41Z</time>
      </trkpt>
      <trkpt lat="43.44849" lon="6.60378">
        <ele>355.8271997124</ele>
        <time>2021-11-28T11:12:44Z</time>
      </trkpt>
      <trkpt lat="43.4485" lon="6.60378">
        <ele>355.82713634521</ele>
        <time>2021-11-28T11:12:46Z</time>
      </trkpt>
      <trkpt lat="43.44851" lon="6.60379">
        <ele>354.82709980011</ele>
        <time>2021-11-28T11:12:48Z</time>
      </trkpt>
      <trkpt lat="43.44851" lon="6.6038">
        <ele>355.82710315287</ele>
        <time>2021-11-28T11:12:59Z</time>
      </trkpt>
      <trkpt lat="43.44852" lon="6.6038">
        <ele>355.82705386728</ele>
        <time>2021-11-28T11:13:01Z</time>
      </trkpt>
      <trkpt lat="43.44853" lon="6.60381">
        <ele>355.82704213262</ele>
        <time>2021-11-28T11:13:03Z</time>
      </trkpt>
      <trkpt lat="43.44853" lon="6.60382">
        <ele>357.82701028138</ele>
        <time>2021-11-28T11:13:06Z</time>
      </trkpt>
      <trkpt lat="43.44854" lon="6.60381">
        <ele>357.82692243904</ele>
        <time>2021-11-28T11:13:08Z</time>
      </trkpt>
      <trkpt lat="43.44855" lon="6.60381">
        <ele>357.82685672492</ele>
        <time>2021-11-28T11:13:09Z</time>
      </trkpt>
      <trkpt lat="43.44856" lon="6.60381">
        <ele>357.82677726448</ele>
        <time>2021-11-28T11:13:10Z</time>
      </trkpt>
      <trkpt lat="43.44856" lon="6.6038">
        <ele>358.82671624422</ele>
        <time>2021-11-28T11:13:12Z</time>
      </trkpt>
      <trkpt lat="43.44856" lon="6.60379">
        <ele>359.82663946599</ele>
        <time>2021-11-28T11:13:14Z</time>
      </trkpt>
      <trkpt lat="43.44857" lon="6.60379">
        <ele>359.82660727948</ele>
        <time>2021-11-28T11:13:16Z</time>
      </trkpt>
      <trkpt lat="43.44858" lon="6.60381">
        <ele>359.82658213377</ele>
        <time>2021-11-28T11:13:18Z</time>
      </trkpt>
      <trkpt lat="43.44859" lon="6.6038">
        <ele>359.82651407272</ele>
        <time>2021-11-28T11:13:19Z</time>
      </trkpt>
      <trkpt lat="43.44859" lon="6.6038">
        <ele>359.82646311074</ele>
        <time>2021-11-28T11:13:22Z</time>
      </trkpt>
      <trkpt lat="43.4486" lon="6.60383">
        <ele>359.82652815431</ele>
        <time>2021-11-28T11:13:24Z</time>
      </trkpt>
      <trkpt lat="43.4486" lon="6.60384">
        <ele>359.82650535554</ele>
        <time>2021-11-28T11:13:26Z</time>
      </trkpt>
      <trkpt lat="43.44861" lon="6.60383">
        <ele>360.826434277</ele>
        <time>2021-11-28T11:13:28Z</time>
      </trkpt>
      <trkpt lat="43.44862" lon="6.60383">
        <ele>360.82636621594</ele>
        <time>2021-11-28T11:13:29Z</time>
      </trkpt>
      <trkpt lat="43.44861" lon="6.60384">
        <ele>360.82644668221</ele>
        <time>2021-11-28T11:13:41Z</time>
      </trkpt>
      <trkpt lat="43.44861" lon="6.60384">
        <ele>360.82646445185</ele>
        <time>2021-11-28T11:13:43Z</time>
      </trkpt>
      <trkpt lat="43.44861" lon="6.60385">
        <ele>360.82654827088</ele>
        <time>2021-11-28T11:13:44Z</time>
      </trkpt>
      <trkpt lat="43.44861" lon="6.60385">
        <ele>360.82656570524</ele>
        <time>2021-11-28T11:13:50Z</time>
      </trkpt>
      <trkpt lat="43.44861" lon="6.60386">
        <ele>360.82655564696</ele>
        <time>2021-11-28T11:13:51Z</time>
      </trkpt>
      <trkpt lat="43.44862" lon="6.60386">
        <ele>359.82646244019</ele>
        <time>2021-11-28T11:13:53Z</time>
      </trkpt>
      <trkpt lat="43.44863" lon="6.60386">
        <ele>359.82638968527</ele>
        <time>2021-11-28T11:13:56Z</time>
      </trkpt>
      <trkpt lat="43.44863" lon="6.60386">
        <ele>359.82640510798</ele>
        <time>2021-11-28T11:13:59Z</time>
      </trkpt>
      <trkpt lat="43.44862" lon="6.60386">
        <ele>359.82647886872</ele>
        <time>2021-11-28T11:14:00Z</time>
      </trkpt>
      <trkpt lat="43.44862" lon="6.60386">
        <ele>358.82648188621</ele>
        <time>2021-11-28T11:14:04Z</time>
      </trkpt>
      <trkpt lat="43.44863" lon="6.60387">
        <ele>358.82645640522</ele>
        <time>2021-11-28T11:14:05Z</time>
      </trkpt>
      <trkpt lat="43.44863" lon="6.60387">
        <ele>359.82643830031</ele>
        <time>2021-11-28T11:14:07Z</time>
      </trkpt>
      <trkpt lat="43.44864" lon="6.60388">
        <ele>360.82643628865</ele>
        <time>2021-11-28T11:14:10Z</time>
      </trkpt>
      <trkpt lat="43.44864" lon="6.60389">
        <ele>359.82649362087</ele>
        <time>2021-11-28T11:14:12Z</time>
      </trkpt>
      <trkpt lat="43.44862" lon="6.60388">
        <ele>359.82654055953</ele>
        <time>2021-11-28T11:14:14Z</time>
      </trkpt>
      <trkpt lat="43.44861" lon="6.60388">
        <ele>359.82661465555</ele>
        <time>2021-11-28T11:14:16Z</time>
      </trkpt>
      <trkpt lat="43.44861" lon="6.60389">
        <ele>359.82665153593</ele>
        <time>2021-11-28T11:14:18Z</time>
      </trkpt>
      <trkpt lat="43.44862" lon="6.60389">
        <ele>359.82660057396</ele>
        <time>2021-11-28T11:14:19Z</time>
      </trkpt>
      <trkpt lat="43.44863" lon="6.60389">
        <ele>360.82656268775</ele>
        <time>2021-11-28T11:14:20Z</time>
      </trkpt>
      <trkpt lat="43.44863" lon="6.60391">
        <ele>359.82658615708</ele>
        <time>2021-11-28T11:14:22Z</time>
      </trkpt>
      <trkpt lat="43.44864" lon="6.6039">
        <ele>361.82649596781</ele>
        <time>2021-11-28T11:14:24Z</time>
      </trkpt>
      <trkpt lat="43.44865" lon="6.6039">
        <ele>361.82640141994</ele>
        <time>2021-11-28T11:14:25Z</time>
      </trkpt>
      <trkpt lat="43.44865" lon="6.6039">
        <ele>362.82640041411</ele>
        <time>2021-11-28T11:14:26Z</time>
      </trkpt>
      <trkpt lat="43.44867" lon="6.60391">
        <ele>360.82630854845</ele>
        <time>2021-11-28T11:14:28Z</time>
      </trkpt>
      <trkpt lat="43.44868" lon="6.60391">
        <ele>359.82622338831</ele>
        <time>2021-11-28T11:14:29Z</time>
      </trkpt>
      <trkpt lat="43.44868" lon="6.60391">
        <ele>359.82621500641</ele>
        <time>2021-11-28T11:14:30Z</time>
      </trkpt>
      <trkpt lat="43.44869" lon="6.60392">
        <ele>359.82616337389</ele>
        <time>2021-11-28T11:14:32Z</time>
      </trkpt>
      <trkpt lat="43.44868" lon="6.60393">
        <ele>360.82627502084</ele>
        <time>2021-11-28T11:14:33Z</time>
      </trkpt>
      <trkpt lat="43.44868" lon="6.60394">
        <ele>361.8263373822</ele>
        <time>2021-11-28T11:14:34Z</time>
      </trkpt>
      <trkpt lat="43.44867" lon="6.60394">
        <ele>361.82638968527</ele>
        <time>2021-11-28T11:14:35Z</time>
      </trkpt>
      <trkpt lat="43.44867" lon="6.60395">
        <ele>363.8264118135</ele>
        <time>2021-11-28T11:14:42Z</time>
      </trkpt>
      <trkpt lat="43.44867" lon="6.60396">
        <ele>364.82645707577</ele>
        <time>2021-11-28T11:14:44Z</time>
      </trkpt>
      <trkpt lat="43.44867" lon="6.60396">
        <ele>363.82649026811</ele>
        <time>2021-11-28T11:14:45Z</time>
      </trkpt>
      <trkpt lat="43.44867" lon="6.60398">
        <ele>364.82655430585</ele>
        <time>2021-11-28T11:14:47Z</time>
      </trkpt>
      <trkpt lat="43.44866" lon="6.60398">
        <ele>364.82662303746</ele>
        <time>2021-11-28T11:14:56Z</time>
      </trkpt>
      <trkpt lat="43.44866" lon="6.60399">
        <ele>364.82663242519</ele>
        <time>2021-11-28T11:15:12Z</time>
      </trkpt>
      <trkpt lat="43.44866" lon="6.604">
        <ele>364.8267249614</ele>
        <time>2021-11-28T11:15:14Z</time>
      </trkpt>
      <trkpt lat="43.44866" lon="6.604">
        <ele>364.82670853287</ele>
        <time>2021-11-28T11:15:26Z</time>
      </trkpt>
      <trkpt lat="43.44867" lon="6.60398">
        <ele>363.82654860616</ele>
        <time>2021-11-28T11:15:27Z</time>
      </trkpt>
      <trkpt lat="43.44868" lon="6.60398">
        <ele>364.82646109909</ele>
        <time>2021-11-28T11:15:29Z</time>
      </trkpt>
      <trkpt lat="43.44869" lon="6.60399">
        <ele>362.82644802332</ele>
        <time>2021-11-28T11:15:55Z</time>
      </trkpt>
      <trkpt lat="43.44869" lon="6.60398">
        <ele>362.82636286318</ele>
        <time>2021-11-28T11:15:59Z</time>
      </trkpt>
      <trkpt lat="43.4487" lon="6.60398">
        <ele>362.82636085153</ele>
        <time>2021-11-28T11:16:03Z</time>
      </trkpt>
      <trkpt lat="43.44871" lon="6.60399">
        <ele>361.8262797147</ele>
        <time>2021-11-28T11:16:05Z</time>
      </trkpt>
      <trkpt lat="43.44871" lon="6.60398">
        <ele>360.82622104138</ele>
        <time>2021-11-28T11:16:09Z</time>
      </trkpt>
      <trkpt lat="43.44872" lon="6.60397">
        <ele>361.82616672665</ele>
        <time>2021-11-28T11:16:10Z</time>
      </trkpt>
      <trkpt lat="43.44872" lon="6.60398">
        <ele>361.82612146437</ele>
        <time>2021-11-28T11:16:11Z</time>
      </trkpt>
      <trkpt lat="43.44873" lon="6.60397">
        <ele>363.82607787848</ele>
        <time>2021-11-28T11:16:13Z</time>
      </trkpt>
      <trkpt lat="43.44873" lon="6.60397">
        <ele>364.82601786405</ele>
        <time>2021-11-28T11:16:14Z</time>
      </trkpt>
      <trkpt lat="43.44874" lon="6.60397">
        <ele>364.82597092539</ele>
        <time>2021-11-28T11:16:15Z</time>
      </trkpt>
      <trkpt lat="43.44874" lon="6.60398">
        <ele>364.82597997785</ele>
        <time>2021-11-28T11:16:16Z</time>
      </trkpt>
      <trkpt lat="43.44874" lon="6.604">
        <ele>365.82606480271</ele>
        <time>2021-11-28T11:16:18Z</time>
      </trkpt>
      <trkpt lat="43.44874" lon="6.60402">
        <ele>365.82614325732</ele>
        <time>2021-11-28T11:16:20Z</time>
      </trkpt>
      <trkpt lat="43.44874" lon="6.60403">
        <ele>365.82622841746</ele>
        <time>2021-11-28T11:16:21Z</time>
      </trkpt>
      <trkpt lat="43.44874" lon="6.60404">
        <ele>365.82622338831</ele>
        <time>2021-11-28T11:16:22Z</time>
      </trkpt>
      <trkpt lat="43.44873" lon="6.60404">
        <ele>364.82632564753</ele>
        <time>2021-11-28T11:16:24Z</time>
      </trkpt>
      <trkpt lat="43.44873" lon="6.60404">
        <ele>364.82630284876</ele>
        <time>2021-11-28T11:16:27Z</time>
      </trkpt>
      <trkpt lat="43.44874" lon="6.60405">
        <ele>364.82628608495</ele>
        <time>2021-11-28T11:16:29Z</time>
      </trkpt>
      <trkpt lat="43.44874" lon="6.60406">
        <ele>363.8263457641</ele>
        <time>2021-11-28T11:16:30Z</time>
      </trkpt>
      <trkpt lat="43.44873" lon="6.60406">
        <ele>363.82645338774</ele>
        <time>2021-11-28T11:16:31Z</time>
      </trkpt>
      <trkpt lat="43.44872" lon="6.60406">
        <ele>364.82648523897</ele>
        <time>2021-11-28T11:16:33Z</time>
      </trkpt>
      <trkpt lat="43.44871" lon="6.60406">
        <ele>363.82655765861</ele>
        <time>2021-11-28T11:16:35Z</time>
      </trkpt>
      <trkpt lat="43.44871" lon="6.60406">
        <ele>363.82658414543</ele>
        <time>2021-11-28T11:16:50Z</time>
      </trkpt>
      <trkpt lat="43.4487" lon="6.60405">
        <ele>363.82660057396</ele>
        <time>2021-11-28T11:16:51Z</time>
      </trkpt>
      <trkpt lat="43.4487" lon="6.60404">
        <ele>363.82655732334</ele>
        <time>2021-11-28T11:16:53Z</time>
      </trkpt>
      <trkpt lat="43.44869" lon="6.60403">
        <ele>363.82656872272</ele>
        <time>2021-11-28T11:16:54Z</time>
      </trkpt>
      <trkpt lat="43.4487" lon="6.60402">
        <ele>364.82649932057</ele>
        <time>2021-11-28T11:16:56Z</time>
      </trkpt>
      <trkpt lat="43.4487" lon="6.60401">
        <ele>364.82647451013</ele>
        <time>2021-11-28T11:17:02Z</time>
      </trkpt>
      <trkpt lat="43.4487" lon="6.60401">
        <ele>362.82646076381</ele>
        <time>2021-11-28T11:17:09Z</time>
      </trkpt>
      <trkpt lat="43.4487" lon="6.60401">
        <ele>363.82647015154</ele>
        <time>2021-11-28T11:17:17Z</time>
      </trkpt>
      <trkpt lat="43.44872" lon="6.60401">
        <ele>362.82629279047</ele>
        <time>2021-11-28T11:17:19Z</time>
      </trkpt>
      <trkpt lat="43.44872" lon="6.604">
        <ele>362.82623612881</ele>
        <time>2021-11-28T11:17:25Z</time>
      </trkpt>
      <trkpt lat="43.44873" lon="6.604">
        <ele>362.82620964199</ele>
        <time>2021-11-28T11:17:31Z</time>
      </trkpt>
      <trkpt lat="43.44872" lon="6.60401">
        <ele>362.82626194507</ele>
        <time>2021-11-28T11:17:34Z</time>
      </trkpt>
      <trkpt lat="43.44872" lon="6.604">
        <ele>361.82626965642</ele>
        <time>2021-11-28T11:17:36Z</time>
      </trkpt>
      <trkpt lat="43.44873" lon="6.60401">
        <ele>361.82623612881</ele>
        <time>2021-11-28T11:17:38Z</time>
      </trkpt>
      <trkpt lat="43.44874" lon="6.60401">
        <ele>361.82613688707</ele>
        <time>2021-11-28T11:17:39Z</time>
      </trkpt>
      <trkpt lat="43.44874" lon="6.604">
        <ele>361.826084584</ele>
        <time>2021-11-28T11:17:40Z</time>
      </trkpt>
      <trkpt lat="43.44874" lon="6.60399">
        <ele>361.82603194565</ele>
        <time>2021-11-28T11:17:43Z</time>
      </trkpt>
      <trkpt lat="43.44874" lon="6.60399">
        <ele>360.82599975914</ele>
        <time>2021-11-28T11:17:46Z</time>
      </trkpt>
      <trkpt lat="43.44875" lon="6.60398">
        <ele>361.82591627538</ele>
        <time>2021-11-28T11:17:47Z</time>
      </trkpt>
      <trkpt lat="43.44876" lon="6.60399">
        <ele>360.82593203336</ele>
        <time>2021-11-28T11:17:49Z</time>
      </trkpt>
      <trkpt lat="43.44876" lon="6.60399">
        <ele>361.82590286434</ele>
        <time>2021-11-28T11:17:52Z</time>
      </trkpt>
      <trkpt lat="43.44876" lon="6.60397">
        <ele>360.82581871003</ele>
        <time>2021-11-28T11:17:54Z</time>
      </trkpt>
      <trkpt lat="43.44876" lon="6.60396">
        <ele>361.82577612996</ele>
        <time>2021-11-28T11:17:58Z</time>
      </trkpt>
      <trkpt lat="43.44877" lon="6.60396">
        <ele>361.82569365203</ele>
        <time>2021-11-28T11:17:59Z</time>
      </trkpt>
      <trkpt lat="43.44877" lon="6.60397">
        <ele>361.82566649467</ele>
        <time>2021-11-28T11:18:05Z</time>
      </trkpt>
      <trkpt lat="43.44878" lon="6.60396">
        <ele>361.82560648024</ele>
        <time>2021-11-28T11:18:06Z</time>
      </trkpt>
      <trkpt lat="43.44878" lon="6.60395">
        <ele>361.82554713637</ele>
        <time>2021-11-28T11:18:09Z</time>
      </trkpt>
      <trkpt lat="43.44878" lon="6.60393">
        <ele>361.82545560598</ele>
        <time>2021-11-28T11:18:10Z</time>
      </trkpt>
      <trkpt lat="43.44879" lon="6.60393">
        <ele>361.82539425045</ele>
        <time>2021-11-28T11:18:11Z</time>
      </trkpt>
      <trkpt lat="43.44881" lon="6.60394">
        <ele>361.82524136454</ele>
        <time>2021-11-28T11:18:13Z</time>
      </trkpt>
      <trkpt lat="43.44884" lon="6.60393">
        <ele>361.82502075285</ele>
        <time>2021-11-28T11:18:15Z</time>
      </trkpt>
      <trkpt lat="43.44883" lon="6.60393">
        <ele>361.82505729795</ele>
        <time>2021-11-28T11:18:17Z</time>
      </trkpt>
      <trkpt lat="43.44885" lon="6.60394">
        <ele>361.8249848783</ele>
        <time>2021-11-28T11:18:19Z</time>
      </trkpt>
      <trkpt lat="43.44885" lon="6.60394">
        <ele>361.82494933903</ele>
        <time>2021-11-28T11:18:20Z</time>
      </trkpt>
      <trkpt lat="43.44885" lon="6.60395">
        <ele>361.82501907647</ele>
        <time>2021-11-28T11:18:21Z</time>
      </trkpt>
      <trkpt lat="43.44885" lon="6.60396">
        <ele>361.82500834763</ele>
        <time>2021-11-28T11:18:23Z</time>
      </trkpt>
      <trkpt lat="43.44886" lon="6.60396">
        <ele>361.82501069456</ele>
        <time>2021-11-28T11:18:24Z</time>
      </trkpt>
      <trkpt lat="43.44886" lon="6.60397">
        <ele>361.82500700653</ele>
        <time>2021-11-28T11:18:25Z</time>
      </trkpt>
      <trkpt lat="43.44886" lon="6.60397">
        <ele>361.82499460131</ele>
        <time>2021-11-28T11:18:28Z</time>
      </trkpt>
      <trkpt lat="43.44887" lon="6.60397">
        <ele>361.82491011173</ele>
        <time>2021-11-28T11:18:30Z</time>
      </trkpt>
      <trkpt lat="43.44888" lon="6.60397">
        <ele>361.82484640926</ele>
        <time>2021-11-28T11:18:31Z</time>
      </trkpt>
      <trkpt lat="43.44889" lon="6.60397">
        <ele>361.82478371263</ele>
        <time>2021-11-28T11:18:32Z</time>
      </trkpt>
      <trkpt lat="43.4489" lon="6.60397">
        <ele>361.82468849421</ele>
        <time>2021-11-28T11:18:34Z</time>
      </trkpt>
      <trkpt lat="43.4489" lon="6.60396">
        <ele>361.82466100156</ele>
        <time>2021-11-28T11:18:35Z</time>
      </trkpt>
      <trkpt lat="43.4489" lon="6.60396">
        <ele>361.82460299879</ele>
        <time>2021-11-28T11:18:36Z</time>
      </trkpt>
      <trkpt lat="43.44891" lon="6.60396">
        <ele>360.82458254695</ele>
        <time>2021-11-28T11:18:49Z</time>
      </trkpt>
      <trkpt lat="43.44891" lon="6.60395">
        <ele>360.82450509816</ele>
        <time>2021-11-28T11:18:50Z</time>
      </trkpt>
      <trkpt lat="43.44892" lon="6.60394">
        <ele>361.82444541901</ele>
        <time>2021-11-28T11:18:51Z</time>
      </trkpt>
      <trkpt lat="43.44893" lon="6.60393">
        <ele>360.82429555058</ele>
        <time>2021-11-28T11:18:53Z</time>
      </trkpt>
      <trkpt lat="43.44893" lon="6.60393">
        <ele>362.82425498217</ele>
        <time>2021-11-28T11:18:58Z</time>
      </trkpt>
      <trkpt lat="43.44893" lon="6.60392">
        <ele>362.82419798523</ele>
        <time>2021-11-28T11:19:00Z</time>
      </trkpt>
      <trkpt lat="43.44894" lon="6.60392">
        <ele>362.82416244596</ele>
        <time>2021-11-28T11:19:09Z</time>
      </trkpt>
      <trkpt lat="43.44895" lon="6.60393">
        <ele>362.82412053645</ele>
        <time>2021-11-28T11:19:10Z</time>
      </trkpt>
      <trkpt lat="43.44896" lon="6.60393">
        <ele>363.8240846619</ele>
        <time>2021-11-28T11:19:11Z</time>
      </trkpt>
      <trkpt lat="43.44896" lon="6.60394">
        <ele>363.824041076</ele>
        <time>2021-11-28T11:19:12Z</time>
      </trkpt>
      <trkpt lat="43.44897" lon="6.60394">
        <ele>363.8240018487</ele>
        <time>2021-11-28T11:19:13Z</time>
      </trkpt>
      <trkpt lat="43.44898" lon="6.60394">
        <ele>363.82392439991</ele>
        <time>2021-11-28T11:19:14Z</time>
      </trkpt>
      <trkpt lat="43.44899" lon="6.60394">
        <ele>363.8238529861</ele>
        <time>2021-11-28T11:19:15Z</time>
      </trkpt>
      <trkpt lat="43.449" lon="6.60394">
        <ele>363.82379464805</ele>
        <time>2021-11-28T11:19:16Z</time>
      </trkpt>
      <trkpt lat="43.44901" lon="6.60394">
        <ele>363.82366590202</ele>
        <time>2021-11-28T11:19:18Z</time>
      </trkpt>
      <trkpt lat="43.44902" lon="6.60394">
        <ele>364.82359515876</ele>
        <time>2021-11-28T11:19:19Z</time>
      </trkpt>
      <trkpt lat="43.44903" lon="6.60393">
        <ele>364.82352910936</ele>
        <time>2021-11-28T11:19:20Z</time>
      </trkpt>
      <trkpt lat="43.44903" lon="6.60393">
        <ele>364.82346440107</ele>
        <time>2021-11-28T11:19:21Z</time>
      </trkpt>
      <trkpt lat="43.44903" lon="6.60395">
        <ele>362.8235257566</ele>
        <time>2021-11-28T11:19:23Z</time>
      </trkpt>
      <trkpt lat="43.44904" lon="6.60395">
        <ele>362.82346406579</ele>
        <time>2021-11-28T11:19:25Z</time>
      </trkpt>
      <trkpt lat="43.44905" lon="6.60394">
        <ele>362.82333766669</ele>
        <time>2021-11-28T11:19:26Z</time>
      </trkpt>
      <trkpt lat="43.44907" lon="6.60393">
        <ele>362.82316298783</ele>
        <time>2021-11-28T11:19:27Z</time>
      </trkpt>
      <trkpt lat="43.44908" lon="6.60393">
        <ele>362.82307749242</ele>
        <time>2021-11-28T11:19:29Z</time>
      </trkpt>
      <trkpt lat="43.44909" lon="6.60394">
        <ele>362.82304731756</ele>
        <time>2021-11-28T11:19:30Z</time>
      </trkpt>
      <trkpt lat="43.44909" lon="6.60394">
        <ele>362.82300004363</ele>
        <time>2021-11-28T11:19:31Z</time>
      </trkpt>
      <trkpt lat="43.4491" lon="6.60394">
        <ele>361.82294774055</ele>
        <time>2021-11-28T11:19:32Z</time>
      </trkpt>
      <trkpt lat="43.44911" lon="6.60393">
        <ele>361.82282268256</ele>
        <time>2021-11-28T11:19:34Z</time>
      </trkpt>
      <trkpt lat="43.44912" lon="6.60392">
        <ele>361.82271237671</ele>
        <time>2021-11-28T11:19:35Z</time>
      </trkpt>
      <trkpt lat="43.44914" lon="6.60392">
        <ele>361.82258027792</ele>
        <time>2021-11-28T11:19:36Z</time>
      </trkpt>
      <trkpt lat="43.44914" lon="6.60392">
        <ele>362.82253803313</ele>
        <time>2021-11-28T11:19:37Z</time>
      </trkpt>
      <trkpt lat="43.44915" lon="6.60392">
        <ele>362.82249813527</ele>
        <time>2021-11-28T11:19:38Z</time>
      </trkpt>
      <trkpt lat="43.44916" lon="6.60392">
        <ele>363.82242437452</ele>
        <time>2021-11-28T11:19:40Z</time>
      </trkpt>
      <trkpt lat="43.44916" lon="6.60393">
        <ele>363.82240895182</ele>
        <time>2021-11-28T11:19:41Z</time>
      </trkpt>
      <trkpt lat="43.44917" lon="6.60394">
        <ele>363.82235933095</ele>
        <time>2021-11-28T11:19:43Z</time>
      </trkpt>
      <trkpt lat="43.44918" lon="6.60394">
        <ele>363.82233485579</ele>
        <time>2021-11-28T11:19:46Z</time>
      </trkpt>
      <trkpt lat="43.44919" lon="6.60394">
        <ele>363.82227517664</ele>
        <time>2021-11-28T11:19:47Z</time>
      </trkpt>
      <trkpt lat="43.4492" lon="6.60395">
        <ele>363.82219336927</ele>
        <time>2021-11-28T11:19:48Z</time>
      </trkpt>
      <trkpt lat="43.4492" lon="6.60394">
        <ele>363.82212899625</ele>
        <time>2021-11-28T11:19:49Z</time>
      </trkpt>
      <trkpt lat="43.44921" lon="6.60393">
        <ele>362.82204484195</ele>
        <time>2021-11-28T11:19:50Z</time>
      </trkpt>
      <trkpt lat="43.44921" lon="6.60393">
        <ele>363.82200259715</ele>
        <time>2021-11-28T11:19:52Z</time>
      </trkpt>
      <trkpt lat="43.44921" lon="6.60392">
        <ele>363.82196504623</ele>
        <time>2021-11-28T11:19:53Z</time>
      </trkpt>
      <trkpt lat="43.44922" lon="6.60391">
        <ele>364.82188793272</ele>
        <time>2021-11-28T11:19:56Z</time>
      </trkpt>
      <trkpt lat="43.44923" lon="6.60389">
        <ele>363.82169917226</ele>
        <time>2021-11-28T11:19:58Z</time>
      </trkpt>
      <trkpt lat="43.44924" lon="6.60387">
        <ele>363.82157512009</ele>
        <time>2021-11-28T11:20:00Z</time>
      </trkpt>
      <trkpt lat="43.44925" lon="6.60387">
        <ele>363.82150705904</ele>
        <time>2021-11-28T11:20:02Z</time>
      </trkpt>
      <trkpt lat="43.44926" lon="6.60386">
        <ele>362.82137328386</ele>
        <time>2021-11-28T11:20:04Z</time>
      </trkpt>
      <trkpt lat="43.44927" lon="6.60387">
        <ele>362.82134981453</ele>
        <time>2021-11-28T11:20:05Z</time>
      </trkpt>
      <trkpt lat="43.44927" lon="6.60387">
        <ele>366.82130689919</ele>
        <time>2021-11-28T11:20:12Z</time>
      </trkpt>
      <trkpt lat="43.44928" lon="6.60388">
        <ele>366.82123079151</ele>
        <time>2021-11-28T11:20:14Z</time>
      </trkpt>
      <trkpt lat="43.44929" lon="6.60389">
        <ele>367.82126264274</ele>
        <time>2021-11-28T11:20:16Z</time>
      </trkpt>
      <trkpt lat="43.44929" lon="6.60389">
        <ele>368.82120765746</ele>
        <time>2021-11-28T11:20:26Z</time>
      </trkpt>
      <trkpt lat="43.44929" lon="6.6039">
        <ele>368.82125392556</ele>
        <time>2021-11-28T11:20:31Z</time>
      </trkpt>
      <trkpt lat="43.4493" lon="6.60391">
        <ele>368.82126163691</ele>
        <time>2021-11-28T11:20:34Z</time>
      </trkpt>
      <trkpt lat="43.4493" lon="6.60391">
        <ele>369.82123950869</ele>
        <time>2021-11-28T11:20:56Z</time>
      </trkpt>
      <trkpt lat="43.44931" lon="6.60391">
        <ele>369.82116742432</ele>
        <time>2021-11-28T11:20:58Z</time>
      </trkpt>
      <trkpt lat="43.44931" lon="6.60391">
        <ele>369.82116239518</ele>
        <time>2021-11-28T11:21:14Z</time>
      </trkpt>
      <trkpt lat="43.4493" lon="6.60392">
        <ele>369.82127203047</ele>
        <time>2021-11-28T11:21:15Z</time>
      </trkpt>
      <trkpt lat="43.4493" lon="6.60392">
        <ele>369.82125660777</ele>
        <time>2021-11-28T11:21:41Z</time>
      </trkpt>
      <trkpt lat="43.44929" lon="6.60392">
        <ele>367.8213531673</ele>
        <time>2021-11-28T11:21:43Z</time>
      </trkpt>
      <trkpt lat="43.4493" lon="6.60392">
        <ele>368.82130321115</ele>
        <time>2021-11-28T11:26:23Z</time>
      </trkpt>
      <trkpt lat="43.4493" lon="6.60391">
        <ele>368.82123850286</ele>
        <time>2021-11-28T11:26:24Z</time>
      </trkpt>
      <trkpt lat="43.4493" lon="6.60392">
        <ele>369.82133070379</ele>
        <time>2021-11-28T11:26:25Z</time>
      </trkpt>
      <trkpt lat="43.4493" lon="6.60391">
        <ele>370.82129516453</ele>
        <time>2021-11-28T11:26:39Z</time>
      </trkpt>
      <trkpt lat="43.4493" lon="6.60391">
        <ele>370.82121536881</ele>
        <time>2021-11-28T11:26:42Z</time>
      </trkpt>
      <trkpt lat="43.4493" lon="6.60391">
        <ele>371.82119625807</ele>
        <time>2021-11-28T11:26:44Z</time>
      </trkpt>
      <trkpt lat="43.44931" lon="6.6039">
        <ele>371.82112551481</ele>
        <time>2021-11-28T11:26:48Z</time>
      </trkpt>
      <trkpt lat="43.44932" lon="6.60389">
        <ele>371.82098570466</ele>
        <time>2021-11-28T11:26:50Z</time>
      </trkpt>
      <trkpt lat="43.44932" lon="6.60388">
        <ele>373.82094781846</ele>
        <time>2021-11-28T11:26:53Z</time>
      </trkpt>
      <trkpt lat="43.44933" lon="6.60388">
        <ele>372.82085327059</ele>
        <time>2021-11-28T11:26:55Z</time>
      </trkpt>
      <trkpt lat="43.44934" lon="6.60389">
        <ele>371.82081672549</ele>
        <time>2021-11-28T11:26:56Z</time>
      </trkpt>
      <trkpt lat="43.44934" lon="6.60389">
        <ele>370.8208180666</ele>
        <time>2021-11-28T11:26:57Z</time>
      </trkpt>
      <trkpt lat="43.44935" lon="6.60391">
        <ele>369.82081303746</ele>
        <time>2021-11-28T11:26:59Z</time>
      </trkpt>
      <trkpt lat="43.44935" lon="6.60391">
        <ele>368.82087606937</ele>
        <time>2021-11-28T11:27:05Z</time>
      </trkpt>
      <trkpt lat="43.44935" lon="6.60392">
        <ele>366.82089585066</ele>
        <time>2021-11-28T11:27:09Z</time>
      </trkpt>
      <trkpt lat="43.44934" lon="6.60393">
        <ele>367.82096491754</ele>
        <time>2021-11-28T11:27:11Z</time>
      </trkpt>
      <trkpt lat="43.44934" lon="6.60393">
        <ele>366.82103230804</ele>
        <time>2021-11-28T11:27:14Z</time>
      </trkpt>
      <trkpt lat="43.44934" lon="6.60394">
        <ele>366.82106315345</ele>
        <time>2021-11-28T11:27:15Z</time>
      </trkpt>
      <trkpt lat="43.44933" lon="6.60393">
        <ele>367.82111310959</ele>
        <time>2021-11-28T11:27:20Z</time>
      </trkpt>
      <trkpt lat="43.44934" lon="6.60396">
        <ele>366.82114227861</ele>
        <time>2021-11-28T11:27:21Z</time>
      </trkpt>
      <trkpt lat="43.44934" lon="6.60395">
        <ele>366.82109131664</ele>
        <time>2021-11-28T11:28:04Z</time>
      </trkpt>
      <trkpt lat="43.44935" lon="6.60395">
        <ele>366.82103901356</ele>
        <time>2021-11-28T11:28:06Z</time>
      </trkpt>
      <trkpt lat="43.44935" lon="6.60395">
        <ele>366.82101286203</ele>
        <time>2021-11-28T11:28:07Z</time>
      </trkpt>
      <trkpt lat="43.44936" lon="6.60395">
        <ele>366.82096089423</ele>
        <time>2021-11-28T11:28:08Z</time>
      </trkpt>
      <trkpt lat="43.44936" lon="6.60394">
        <ele>366.82089886814</ele>
        <time>2021-11-28T11:28:10Z</time>
      </trkpt>
      <trkpt lat="43.44935" lon="6.60394">
        <ele>364.82091529667</ele>
        <time>2021-11-28T11:28:30Z</time>
      </trkpt>
      <trkpt lat="43.44935" lon="6.60393">
        <ele>364.82089752704</ele>
        <time>2021-11-28T11:29:23Z</time>
      </trkpt>
      <trkpt lat="43.44935" lon="6.60392">
        <ele>364.82086366415</ele>
        <time>2021-11-28T11:29:26Z</time>
      </trkpt>
      <trkpt lat="43.44935" lon="6.60394">
        <ele>364.82095552981</ele>
        <time>2021-11-28T11:29:27Z</time>
      </trkpt>
      <trkpt lat="43.44935" lon="6.60394">
        <ele>365.82098402828</ele>
        <time>2021-11-28T11:29:43Z</time>
      </trkpt>
      <trkpt lat="43.44935" lon="6.60393">
        <ele>365.82091563195</ele>
        <time>2021-11-28T11:29:45Z</time>
      </trkpt>
      <trkpt lat="43.44935" lon="6.60395">
        <ele>365.82101085037</ele>
        <time>2021-11-28T11:29:46Z</time>
      </trkpt>
      <trkpt lat="43.44935" lon="6.60395">
        <ele>365.82101252675</ele>
        <time>2021-11-28T11:30:02Z</time>
      </trkpt>
      <trkpt lat="43.44935" lon="6.60393">
        <ele>365.82097061723</ele>
        <time>2021-11-28T11:30:04Z</time>
      </trkpt>
      <trkpt lat="43.44935" lon="6.60393">
        <ele>365.82094882429</ele>
        <time>2021-11-28T11:30:05Z</time>
      </trkpt>
      <trkpt lat="43.44935" lon="6.60394">
        <ele>365.82100414485</ele>
        <time>2021-11-28T11:30:06Z</time>
      </trkpt>
      <trkpt lat="43.44935" lon="6.60394">
        <ele>365.82100414485</ele>
        <time>2021-11-28T11:30:22Z</time>
      </trkpt>
      <trkpt lat="43.44935" lon="6.60393">
        <ele>365.82091697305</ele>
        <time>2021-11-28T11:30:24Z</time>
      </trkpt>
      <trkpt lat="43.44935" lon="6.60394">
        <ele>366.82095754147</ele>
        <time>2021-11-28T11:30:25Z</time>
      </trkpt>
      <trkpt lat="43.44935" lon="6.60394">
        <ele>366.82095787674</ele>
        <time>2021-11-28T11:30:38Z</time>
      </trkpt>
      <trkpt lat="43.44936" lon="6.60393">
        <ele>365.8208180666</ele>
        <time>2021-11-28T11:30:40Z</time>
      </trkpt>
      <trkpt lat="43.44936" lon="6.60394">
        <ele>366.82084824145</ele>
        <time>2021-11-28T11:31:20Z</time>
      </trkpt>
      <trkpt lat="43.44936" lon="6.60394">
        <ele>366.82089987397</ele>
        <time>2021-11-28T11:31:22Z</time>
      </trkpt>
      <trkpt lat="43.44935" lon="6.60393">
        <ele>365.82087539881</ele>
        <time>2021-11-28T11:31:26Z</time>
      </trkpt>
      <trkpt lat="43.44935" lon="6.60392">
        <ele>364.82085528225</ele>
        <time>2021-11-28T11:31:28Z</time>
      </trkpt>
      <trkpt lat="43.44937" lon="6.60393">
        <ele>365.82077414542</ele>
        <time>2021-11-28T11:31:30Z</time>
      </trkpt>
      <trkpt lat="43.44937" lon="6.60393">
        <ele>366.8207211718</ele>
        <time>2021-11-28T11:31:33Z</time>
      </trkpt>
      <trkpt lat="43.44938" lon="6.60391">
        <ele>365.82060684264</ele>
        <time>2021-11-28T11:31:35Z</time>
      </trkpt>
      <trkpt lat="43.44937" lon="6.60393">
        <ele>365.82075704634</ele>
        <time>2021-11-28T11:31:36Z</time>
      </trkpt>
      <trkpt lat="43.44937" lon="6.60392">
        <ele>364.82070943713</ele>
        <time>2021-11-28T11:31:48Z</time>
      </trkpt>
      <trkpt lat="43.44937" lon="6.60393">
        <ele>365.82076241076</ele>
        <time>2021-11-28T11:32:00Z</time>
      </trkpt>
      <trkpt lat="43.44937" lon="6.60394">
        <ele>364.82079727948</ele>
        <time>2021-11-28T11:32:05Z</time>
      </trkpt>
      <trkpt lat="43.44937" lon="6.60395">
        <ele>365.82086601108</ele>
        <time>2021-11-28T11:32:22Z</time>
      </trkpt>
      <trkpt lat="43.44936" lon="6.60394">
        <ele>364.82086634636</ele>
        <time>2021-11-28T11:32:33Z</time>
      </trkpt>
      <trkpt lat="43.44936" lon="6.60394">
        <ele>364.82092669606</ele>
        <time>2021-11-28T11:34:57Z</time>
      </trkpt>
      <trkpt lat="43.44935" lon="6.60395">
        <ele>365.82097162306</ele>
        <time>2021-11-28T11:35:07Z</time>
      </trkpt>
      <trkpt lat="43.44935" lon="6.60394">
        <ele>364.82095385343</ele>
        <time>2021-11-28T11:35:44Z</time>
      </trkpt>
      <trkpt lat="43.44935" lon="6.60395">
        <ele>365.82100414485</ele>
        <time>2021-11-28T11:38:54Z</time>
      </trkpt>
      <trkpt lat="43.44934" lon="6.60396">
        <ele>366.82106482983</ele>
        <time>2021-11-28T11:40:12Z</time>
      </trkpt>
      <trkpt lat="43.44934" lon="6.60396">
        <ele>365.82111512125</ele>
        <time>2021-11-28T11:40:14Z</time>
      </trkpt>
      <trkpt lat="43.44934" lon="6.60396">
        <ele>365.82114730775</ele>
        <time>2021-11-28T11:41:37Z</time>
      </trkpt>
      <trkpt lat="43.44934" lon="6.60395">
        <ele>365.82107254118</ele>
        <time>2021-11-28T11:42:29Z</time>
      </trkpt>
      <trkpt lat="43.44934" lon="6.60395">
        <ele>365.8210581243</ele>
        <time>2021-11-28T11:43:47Z</time>
      </trkpt>
      <trkpt lat="43.44934" lon="6.60394">
        <ele>365.82102929056</ele>
        <time>2021-11-28T11:43:49Z</time>
      </trkpt>
      <trkpt lat="43.44934" lon="6.60394">
        <ele>365.82103197277</ele>
        <time>2021-11-28T11:44:49Z</time>
      </trkpt>
      <trkpt lat="43.44933" lon="6.60393">
        <ele>365.82110942155</ele>
        <time>2021-11-28T11:44:51Z</time>
      </trkpt>
      <trkpt lat="43.44934" lon="6.60394">
        <ele>365.82102694362</ele>
        <time>2021-11-28T11:44:52Z</time>
      </trkpt>
      <trkpt lat="43.44935" lon="6.60393">
        <ele>365.82095083594</ele>
        <time>2021-11-28T11:45:37Z</time>
      </trkpt>
      <trkpt lat="43.44934" lon="6.60394">
        <ele>365.82102426142</ele>
        <time>2021-11-28T11:47:03Z</time>
      </trkpt>
      <trkpt lat="43.44934" lon="6.60394">
        <ele>364.82104873657</ele>
        <time>2021-11-28T11:47:47Z</time>
      </trkpt>
      <trkpt lat="43.44934" lon="6.60393">
        <ele>364.82098771632</ele>
        <time>2021-11-28T11:47:49Z</time>
      </trkpt>
      <trkpt lat="43.44935" lon="6.60393">
        <ele>364.82090155035</ele>
        <time>2021-11-28T11:47:51Z</time>
      </trkpt>
      <trkpt lat="43.44934" lon="6.60393">
        <ele>365.82100917399</ele>
        <time>2021-11-28T11:47:52Z</time>
      </trkpt>
      <trkpt lat="43.44934" lon="6.60394">
        <ele>366.82101353258</ele>
        <time>2021-11-28T11:49:12Z</time>
      </trkpt>
      <trkpt lat="43.44935" lon="6.60395">
        <ele>365.82099006325</ele>
        <time>2021-11-28T11:49:14Z</time>
      </trkpt>
      <trkpt lat="43.44935" lon="6.60395">
        <ele>365.82102828473</ele>
        <time>2021-11-28T11:49:18Z</time>
      </trkpt>
      <trkpt lat="43.44935" lon="6.60394">
        <ele>365.8209753111</ele>
        <time>2021-11-28T11:49:20Z</time>
      </trkpt>
      <trkpt lat="43.44934" lon="6.60394">
        <ele>364.82103197277</ele>
        <time>2021-11-28T11:49:50Z</time>
      </trkpt>
      <trkpt lat="43.44936" lon="6.60394">
        <ele>364.82093776017</ele>
        <time>2021-11-28T11:49:51Z</time>
      </trkpt>
      <trkpt lat="43.44935" lon="6.60395">
        <ele>363.82100045681</ele>
        <time>2021-11-28T11:51:20Z</time>
      </trkpt>
      <trkpt lat="43.44935" lon="6.60394">
        <ele>362.82094714791</ele>
        <time>2021-11-28T11:51:54Z</time>
      </trkpt>
      <trkpt lat="43.44936" lon="6.60393">
        <ele>362.82087875158</ele>
        <time>2021-11-28T11:51:57Z</time>
      </trkpt>
      <trkpt lat="43.44936" lon="6.60393">
        <ele>362.8208334893</ele>
        <time>2021-11-28T11:52:39Z</time>
      </trkpt>
      <trkpt lat="43.44936" lon="6.60393">
        <ele>362.82086366415</ele>
        <time>2021-11-28T11:52:46Z</time>
      </trkpt>
      <trkpt lat="43.44936" lon="6.60394">
        <ele>364.8209233433</ele>
        <time>2021-11-28T11:53:06Z</time>
      </trkpt>
      <trkpt lat="43.44935" lon="6.60395">
        <ele>363.82099743932</ele>
        <time>2021-11-28T11:53:34Z</time>
      </trkpt>
      <trkpt lat="43.44934" lon="6.60394">
        <ele>364.82100883871</ele>
        <time>2021-11-28T11:53:36Z</time>
      </trkpt>
      <trkpt lat="43.44935" lon="6.60394">
        <ele>364.82095083594</ele>
        <time>2021-11-28T11:54:02Z</time>
      </trkpt>
      <trkpt lat="43.44936" lon="6.60393">
        <ele>363.82088311017</ele>
        <time>2021-11-28T11:54:16Z</time>
      </trkpt>
      <trkpt lat="43.44936" lon="6.60392">
        <ele>365.82083114237</ele>
        <time>2021-11-28T11:54:17Z</time>
      </trkpt>
      <trkpt lat="43.44935" lon="6.60392">
        <ele>366.82084287703</ele>
        <time>2021-11-28T11:54:27Z</time>
      </trkpt>
      <trkpt lat="43.44935" lon="6.6039">
        <ele>367.82086165249</ele>
        <time>2021-11-28T11:54:28Z</time>
      </trkpt>
      <trkpt lat="43.44934" lon="6.6039">
        <ele>367.8209022209</ele>
        <time>2021-11-28T11:54:34Z</time>
      </trkpt>
      <trkpt lat="43.44933" lon="6.6039">
        <ele>367.82095351815</ele>
        <time>2021-11-28T11:54:35Z</time>
      </trkpt>
      <trkpt lat="43.44933" lon="6.60389">
        <ele>367.82090020925</ele>
        <time>2021-11-28T11:54:37Z</time>
      </trkpt>
      <trkpt lat="43.44933" lon="6.60388">
        <ele>367.82092233747</ele>
        <time>2021-11-28T11:54:39Z</time>
      </trkpt>
      <trkpt lat="43.44932" lon="6.60388">
        <ele>367.82097397</ele>
        <time>2021-11-28T11:54:45Z</time>
      </trkpt>
      <trkpt lat="43.44931" lon="6.60388">
        <ele>367.82104303688</ele>
        <time>2021-11-28T11:54:47Z</time>
      </trkpt>
      <trkpt lat="43.4493" lon="6.60388">
        <ele>367.82106348872</ele>
        <time>2021-11-28T11:54:49Z</time>
      </trkpt>
      <trkpt lat="43.4493" lon="6.60386">
        <ele>368.82103800774</ele>
        <time>2021-11-28T11:54:51Z</time>
      </trkpt>
      <trkpt lat="43.4493" lon="6.60386">
        <ele>368.82099911571</ele>
        <time>2021-11-28T11:54:52Z</time>
      </trkpt>
      <trkpt lat="43.4493" lon="6.60385">
        <ele>368.82097095251</ele>
        <time>2021-11-28T11:54:53Z</time>
      </trkpt>
      <trkpt lat="43.4493" lon="6.60385">
        <ele>368.82094781846</ele>
        <time>2021-11-28T11:54:55Z</time>
      </trkpt>
      <trkpt lat="43.4493" lon="6.60383">
        <ele>367.82090020925</ele>
        <time>2021-11-28T11:54:56Z</time>
      </trkpt>
      <trkpt lat="43.44931" lon="6.60382">
        <ele>367.82081873715</ele>
        <time>2021-11-28T11:54:57Z</time>
      </trkpt>
      <trkpt lat="43.44932" lon="6.60382">
        <ele>367.82075469941</ele>
        <time>2021-11-28T11:54:58Z</time>
      </trkpt>
      <trkpt lat="43.44932" lon="6.60382">
        <ele>367.82070641965</ele>
        <time>2021-11-28T11:55:00Z</time>
      </trkpt>
      <trkpt lat="43.44934" lon="6.60384">
        <ele>368.82063668221</ele>
        <time>2021-11-28T11:55:02Z</time>
      </trkpt>
      <trkpt lat="43.44934" lon="6.60385">
        <ele>367.82064640522</ele>
        <time>2021-11-28T11:55:03Z</time>
      </trkpt>
      <trkpt lat="43.44935" lon="6.60386">
        <ele>367.82060918957</ele>
        <time>2021-11-28T11:55:04Z</time>
      </trkpt>
      <trkpt lat="43.44935" lon="6.60386">
        <ele>365.82062830031</ele>
        <time>2021-11-28T11:55:16Z</time>
      </trkpt>
      <trkpt lat="43.44936" lon="6.60387">
        <ele>365.82063031197</ele>
        <time>2021-11-28T11:55:19Z</time>
      </trkpt>
      <trkpt lat="43.44935" lon="6.60388">
        <ele>365.82072553039</ele>
        <time>2021-11-28T11:55:21Z</time>
      </trkpt>
      <trkpt lat="43.44935" lon="6.60389">
        <ele>366.82071446627</ele>
        <time>2021-11-28T11:55:33Z</time>
      </trkpt>
      <trkpt lat="43.44936" lon="6.60388">
        <ele>366.82062729448</ele>
        <time>2021-11-28T11:55:34Z</time>
      </trkpt>
      <trkpt lat="43.44937" lon="6.60388">
        <ele>366.82055554539</ele>
        <time>2021-11-28T11:55:35Z</time>
      </trkpt>
      <trkpt lat="43.44938" lon="6.60388">
        <ele>367.8204908371</ele>
        <time>2021-11-28T11:55:40Z</time>
      </trkpt>
      <trkpt lat="43.44939" lon="6.60389">
        <ele>366.82041573524</ele>
        <time>2021-11-28T11:55:41Z</time>
      </trkpt>
      <trkpt lat="43.4494" lon="6.60388">
        <ele>364.82034096867</ele>
        <time>2021-11-28T11:55:53Z</time>
      </trkpt>
      <trkpt lat="43.44939" lon="6.6039">
        <ele>363.82044356316</ele>
        <time>2021-11-28T11:55:55Z</time>
      </trkpt>
      <trkpt lat="43.44939" lon="6.60389">
        <ele>363.82041908801</ele>
        <time>2021-11-28T11:55:57Z</time>
      </trkpt>
      <trkpt lat="43.44939" lon="6.60388">
        <ele>363.82040400058</ele>
        <time>2021-11-28T11:55:58Z</time>
      </trkpt>
      <trkpt lat="43.4494" lon="6.60387">
        <ele>363.8203208521</ele>
        <time>2021-11-28T11:55:59Z</time>
      </trkpt>
      <trkpt lat="43.44941" lon="6.60388">
        <ele>362.82023535669</ele>
        <time>2021-11-28T11:56:01Z</time>
      </trkpt>
      <trkpt lat="43.44941" lon="6.60387">
        <ele>363.82019747049</ele>
        <time>2021-11-28T11:56:02Z</time>
      </trkpt>
      <trkpt lat="43.44941" lon="6.60386">
        <ele>362.82018540055</ele>
        <time>2021-11-28T11:56:03Z</time>
      </trkpt>
      <trkpt lat="43.44941" lon="6.60385">
        <ele>364.82012035698</ele>
        <time>2021-11-28T11:56:08Z</time>
      </trkpt>
      <trkpt lat="43.44942" lon="6.60385">
        <ele>364.82004056126</ele>
        <time>2021-11-28T11:56:09Z</time>
      </trkpt>
      <trkpt lat="43.44942" lon="6.60384">
        <ele>364.81997752935</ele>
        <time>2021-11-28T11:56:15Z</time>
      </trkpt>
      <trkpt lat="43.44943" lon="6.60383">
        <ele>364.81989303976</ele>
        <time>2021-11-28T11:56:16Z</time>
      </trkpt>
      <trkpt lat="43.44944" lon="6.60383">
        <ele>364.81983101368</ele>
        <time>2021-11-28T11:56:17Z</time>
      </trkpt>
      <trkpt lat="43.44944" lon="6.60383">
        <ele>363.81979748607</ele>
        <time>2021-11-28T11:56:21Z</time>
      </trkpt>
      <trkpt lat="43.44944" lon="6.60383">
        <ele>364.81983201951</ele>
        <time>2021-11-28T11:56:27Z</time>
      </trkpt>
      <trkpt lat="43.44943" lon="6.60384">
        <ele>363.81989471614</ele>
        <time>2021-11-28T11:56:50Z</time>
      </trkpt>
      <trkpt lat="43.44942" lon="6.60381">
        <ele>361.81987057626</ele>
        <time>2021-11-28T11:56:51Z</time>
      </trkpt>
      <trkpt lat="43.44941" lon="6.6038">
        <ele>360.81989404559</ele>
        <time>2021-11-28T11:56:52Z</time>
      </trkpt>
      <trkpt lat="43.44941" lon="6.60379">
        <ele>359.81987258792</ele>
        <time>2021-11-28T11:56:57Z</time>
      </trkpt>
      <trkpt lat="43.44941" lon="6.60378">
        <ele>360.81984073669</ele>
        <time>2021-11-28T11:56:58Z</time>
      </trkpt>
      <trkpt lat="43.44941" lon="6.60378">
        <ele>360.81985548884</ele>
        <time>2021-11-28T11:57:00Z</time>
      </trkpt>
      <trkpt lat="43.44941" lon="6.60377">
        <ele>360.81981961429</ele>
        <time>2021-11-28T11:57:10Z</time>
      </trkpt>
      <trkpt lat="43.44941" lon="6.60375">
        <ele>361.81971232593</ele>
        <time>2021-11-28T11:57:11Z</time>
      </trkpt>
      <trkpt lat="43.44941" lon="6.60376">
        <ele>360.81972875446</ele>
        <time>2021-11-28T11:57:18Z</time>
      </trkpt>
      <trkpt lat="43.44941" lon="6.60376">
        <ele>358.81979010999</ele>
        <time>2021-11-28T11:57:22Z</time>
      </trkpt>
      <trkpt lat="43.4494" lon="6.60375">
        <ele>357.81981156766</ele>
        <time>2021-11-28T11:57:24Z</time>
      </trkpt>
      <trkpt lat="43.4494" lon="6.60375">
        <ele>358.81978340447</ele>
        <time>2021-11-28T11:57:28Z</time>
      </trkpt>
      <trkpt lat="43.44941" lon="6.60374">
        <ele>357.8197042793</ele>
        <time>2021-11-28T11:57:30Z</time>
      </trkpt>
      <trkpt lat="43.4494" lon="6.60374">
        <ele>357.81979815662</ele>
        <time>2021-11-28T11:57:32Z</time>
      </trkpt>
      <trkpt lat="43.44939" lon="6.60373">
        <ele>357.81984308362</ele>
        <time>2021-11-28T11:57:33Z</time>
      </trkpt>
      <trkpt lat="43.44939" lon="6.60373">
        <ele>357.81985280663</ele>
        <time>2021-11-28T11:57:39Z</time>
      </trkpt>
      <trkpt lat="43.44938" lon="6.60374">
        <ele>357.81992690265</ele>
        <time>2021-11-28T11:57:45Z</time>
      </trkpt>
      <trkpt lat="43.44938" lon="6.60375">
        <ele>357.8199936226</ele>
        <time>2021-11-28T11:57:47Z</time>
      </trkpt>
      <trkpt lat="43.44938" lon="6.60375">
        <ele>355.81995204836</ele>
        <time>2021-11-28T11:57:55Z</time>
      </trkpt>
      <trkpt lat="43.44938" lon="6.60375">
        <ele>355.82000938058</ele>
        <time>2021-11-28T11:58:01Z</time>
      </trkpt>
      <trkpt lat="43.44937" lon="6.60376">
        <ele>355.82010191679</ele>
        <time>2021-11-28T11:58:02Z</time>
      </trkpt>
      <trkpt lat="43.44936" lon="6.60375">
        <ele>352.8201270625</ele>
        <time>2021-11-28T11:58:05Z</time>
      </trkpt>
      <trkpt lat="43.44935" lon="6.60375">
        <ele>352.82020618767</ele>
        <time>2021-11-28T11:58:06Z</time>
      </trkpt>
      <trkpt lat="43.44935" lon="6.60375">
        <ele>353.82025580853</ele>
        <time>2021-11-28T11:58:08Z</time>
      </trkpt>
      <trkpt lat="43.44934" lon="6.60374">
        <ele>351.82024273276</ele>
        <time>2021-11-28T11:58:10Z</time>
      </trkpt>
      <trkpt lat="43.44934" lon="6.60373">
        <ele>351.8202001527</ele>
        <time>2021-11-28T11:58:11Z</time>
      </trkpt>
      <trkpt lat="43.44934" lon="6.60372">
        <ele>352.82019244134</ele>
        <time>2021-11-28T11:58:13Z</time>
      </trkpt>
      <trkpt lat="43.44933" lon="6.60372">
        <ele>352.82021993399</ele>
        <time>2021-11-28T11:58:14Z</time>
      </trkpt>
      <trkpt lat="43.44933" lon="6.60372">
        <ele>352.82025413215</ele>
        <time>2021-11-28T11:58:18Z</time>
      </trkpt>
      <trkpt lat="43.44931" lon="6.60373">
        <ele>352.82039159536</ele>
        <time>2021-11-28T11:58:20Z</time>
      </trkpt>
      <trkpt lat="43.44931" lon="6.60372">
        <ele>352.82035370916</ele>
        <time>2021-11-28T11:58:22Z</time>
      </trkpt>
      <trkpt lat="43.44933" lon="6.6037">
        <ele>351.82018841803</ele>
        <time>2021-11-28T11:58:23Z</time>
      </trkpt>
      <trkpt lat="43.44933" lon="6.60369">
        <ele>350.82011968642</ele>
        <time>2021-11-28T11:58:28Z</time>
      </trkpt>
      <trkpt lat="43.44933" lon="6.60368">
        <ele>349.82009118795</ele>
        <time>2021-11-28T11:58:30Z</time>
      </trkpt>
      <trkpt lat="43.44933" lon="6.60367">
        <ele>349.82002346218</ele>
        <time>2021-11-28T11:58:31Z</time>
      </trkpt>
      <trkpt lat="43.44934" lon="6.60367">
        <ele>349.81993629038</ele>
        <time>2021-11-28T11:58:32Z</time>
      </trkpt>
      <trkpt lat="43.44934" lon="6.60367">
        <ele>349.81993629038</ele>
        <time>2021-11-28T11:58:33Z</time>
      </trkpt>
      <trkpt lat="43.44936" lon="6.60367">
        <ele>348.81980888546</ele>
        <time>2021-11-28T11:58:35Z</time>
      </trkpt>
      <trkpt lat="43.44936" lon="6.60367">
        <ele>348.81976798177</ele>
        <time>2021-11-28T11:58:38Z</time>
      </trkpt>
      <trkpt lat="43.44936" lon="6.60366">
        <ele>348.8197170198</ele>
        <time>2021-11-28T11:58:39Z</time>
      </trkpt>
      <trkpt lat="43.44937" lon="6.60365">
        <ele>348.81965398788</ele>
        <time>2021-11-28T11:58:40Z</time>
      </trkpt>
      <trkpt lat="43.44939" lon="6.60365">
        <ele>348.81948299706</ele>
        <time>2021-11-28T11:58:42Z</time>
      </trkpt>
      <trkpt lat="43.4494" lon="6.60365">
        <ele>349.81940320134</ele>
        <time>2021-11-28T11:58:43Z</time>
      </trkpt>
      <trkpt lat="43.44941" lon="6.60365">
        <ele>348.81931468844</ele>
        <time>2021-11-28T11:58:44Z</time>
      </trkpt>
      <trkpt lat="43.44942" lon="6.60364">
        <ele>349.81918594241</ele>
        <time>2021-11-28T11:58:46Z</time>
      </trkpt>
      <trkpt lat="43.44943" lon="6.60364">
        <ele>348.81915174425</ele>
        <time>2021-11-28T11:58:48Z</time>
      </trkpt>
      <trkpt lat="43.44943" lon="6.60365">
        <ele>348.81914570928</ele>
        <time>2021-11-28T11:58:50Z</time>
      </trkpt>
      <trkpt lat="43.44944" lon="6.60366">
        <ele>348.81911050528</ele>
        <time>2021-11-28T11:58:52Z</time>
      </trkpt>
      <trkpt lat="43.44945" lon="6.60365">
        <ele>349.81903003901</ele>
        <time>2021-11-28T11:58:53Z</time>
      </trkpt>
      <trkpt lat="43.44945" lon="6.60366">
        <ele>349.81905484945</ele>
        <time>2021-11-28T11:58:56Z</time>
      </trkpt>
      <trkpt lat="43.44945" lon="6.60366">
        <ele>349.81901260465</ele>
        <time>2021-11-28T11:58:57Z</time>
      </trkpt>
      <trkpt lat="43.44946" lon="6.60365">
        <ele>349.81894353777</ele>
        <time>2021-11-28T11:59:04Z</time>
      </trkpt>
      <trkpt lat="43.44946" lon="6.60364">
        <ele>349.81888955832</ele>
        <time>2021-11-28T11:59:06Z</time>
      </trkpt>
      <trkpt lat="43.44946" lon="6.60364">
        <ele>349.81889425218</ele>
        <time>2021-11-28T11:59:11Z</time>
      </trkpt>
      <trkpt lat="43.44946" lon="6.60363">
        <ele>349.81882820278</ele>
        <time>2021-11-28T11:59:12Z</time>
      </trkpt>
      <trkpt lat="43.44946" lon="6.60363">
        <ele>348.8188714534</ele>
        <time>2021-11-28T11:59:23Z</time>
      </trkpt>
      <trkpt lat="43.44947" lon="6.60361">
        <ele>347.81873600185</ele>
        <time>2021-11-28T11:59:25Z</time>
      </trkpt>
      <trkpt lat="43.44947" lon="6.60362">
        <ele>347.81873901933</ele>
        <time>2021-11-28T11:59:28Z</time>
      </trkpt>
      <trkpt lat="43.44947" lon="6.60363">
        <ele>347.8187802583</ele>
        <time>2021-11-28T11:59:30Z</time>
      </trkpt>
      <trkpt lat="43.44947" lon="6.60364">
        <ele>346.81878830492</ele>
        <time>2021-11-28T11:59:32Z</time>
      </trkpt>
      <trkpt lat="43.44947" lon="6.60365">
        <ele>345.81885502487</ele>
        <time>2021-11-28T11:59:35Z</time>
      </trkpt>
      <trkpt lat="43.44947" lon="6.60366">
        <ele>343.8188925758</ele>
        <time>2021-11-28T11:59:38Z</time>
      </trkpt>
      <trkpt lat="43.44946" lon="6.60365">
        <ele>343.81894387305</ele>
        <time>2021-11-28T11:59:39Z</time>
      </trkpt>
      <trkpt lat="43.44946" lon="6.60366">
        <ele>342.81899114698</ele>
        <time>2021-11-28T11:59:40Z</time>
      </trkpt>
      <trkpt lat="43.44945" lon="6.60367">
        <ele>341.8191088289</ele>
        <time>2021-11-28T11:59:42Z</time>
      </trkpt>
      <trkpt lat="43.44945" lon="6.60367">
        <ele>341.81908267736</ele>
        <time>2021-11-28T11:59:43Z</time>
      </trkpt>
      <trkpt lat="43.44946" lon="6.60365">
        <ele>342.81897203624</ele>
        <time>2021-11-28T11:59:44Z</time>
      </trkpt>
      <trkpt lat="43.44946" lon="6.60366">
        <ele>342.81896901876</ele>
        <time>2021-11-28T11:59:45Z</time>
      </trkpt>
      <trkpt lat="43.44945" lon="6.60365">
        <ele>342.81898846477</ele>
        <time>2021-11-28T11:59:48Z</time>
      </trkpt>
      <trkpt lat="43.44944" lon="6.60364">
        <ele>341.81899885833</ele>
        <time>2021-11-28T11:59:51Z</time>
      </trkpt>
      <trkpt lat="43.44944" lon="6.60364">
        <ele>341.81902500987</ele>
        <time>2021-11-28T11:59:54Z</time>
      </trkpt>
      <trkpt lat="43.44944" lon="6.60362">
        <ele>341.81896801293</ele>
        <time>2021-11-28T11:59:56Z</time>
      </trkpt>
      <trkpt lat="43.44944" lon="6.60361">
        <ele>341.81894890219</ele>
        <time>2021-11-28T11:59:57Z</time>
      </trkpt>
      <trkpt lat="43.44943" lon="6.6036">
        <ele>341.81894420832</ele>
        <time>2021-11-28T11:59:58Z</time>
      </trkpt>
      <trkpt lat="43.44943" lon="6.60359">
        <ele>339.81891738623</ele>
        <time>2021-11-28T12:00:02Z</time>
      </trkpt>
      <trkpt lat="43.44943" lon="6.60359">
        <ele>338.8189291209</ele>
        <time>2021-11-28T12:00:03Z</time>
      </trkpt>
      <trkpt lat="43.44943" lon="6.60358">
        <ele>337.81890296936</ele>
        <time>2021-11-28T12:00:13Z</time>
      </trkpt>
      <trkpt lat="43.44942" lon="6.60359">
        <ele>335.81899584085</ele>
        <time>2021-11-28T12:00:14Z</time>
      </trkpt>
      <trkpt lat="43.44941" lon="6.60359">
        <ele>335.81904646754</ele>
        <time>2021-11-28T12:00:20Z</time>
      </trkpt>
      <trkpt lat="43.4494" lon="6.60358">
        <ele>335.81907697767</ele>
        <time>2021-11-28T12:00:22Z</time>
      </trkpt>
      <trkpt lat="43.4494" lon="6.60356">
        <ele>335.81903171539</ele>
        <time>2021-11-28T12:00:23Z</time>
      </trkpt>
      <trkpt lat="43.44941" lon="6.60355">
        <ele>334.81896767765</ele>
        <time>2021-11-28T12:00:26Z</time>
      </trkpt>
      <trkpt lat="43.44941" lon="6.60355">
        <ele>334.81893649697</ele>
        <time>2021-11-28T12:00:27Z</time>
      </trkpt>
      <trkpt lat="43.44941" lon="6.60354">
        <ele>334.81889827549</ele>
        <time>2021-11-28T12:00:28Z</time>
      </trkpt>
      <trkpt lat="43.4494" lon="6.60352">
        <ele>333.81886105984</ele>
        <time>2021-11-28T12:00:30Z</time>
      </trkpt>
      <trkpt lat="43.4494" lon="6.60351">
        <ele>332.81887480617</ele>
        <time>2021-11-28T12:00:32Z</time>
      </trkpt>
      <trkpt lat="43.4494" lon="6.6035">
        <ele>332.81883256137</ele>
        <time>2021-11-28T12:00:34Z</time>
      </trkpt>
      <trkpt lat="43.44939" lon="6.6035">
        <ele>332.81885066628</ele>
        <time>2021-11-28T12:00:35Z</time>
      </trkpt>
      <trkpt lat="43.44938" lon="6.60351">
        <ele>330.81897304207</ele>
        <time>2021-11-28T12:00:37Z</time>
      </trkpt>
      <trkpt lat="43.44938" lon="6.6035">
        <ele>331.81896264851</ele>
        <time>2021-11-28T12:00:40Z</time>
      </trkpt>
      <trkpt lat="43.44938" lon="6.60349">
        <ele>330.81892979145</ele>
        <time>2021-11-28T12:00:43Z</time>
      </trkpt>
      <trkpt lat="43.44937" lon="6.60349">
        <ele>329.81897773594</ele>
        <time>2021-11-28T12:00:45Z</time>
      </trkpt>
      <trkpt lat="43.44937" lon="6.60348">
        <ele>329.81899483502</ele>
        <time>2021-11-28T12:00:47Z</time>
      </trkpt>
      <trkpt lat="43.44936" lon="6.60347">
        <ele>329.81901595742</ele>
        <time>2021-11-28T12:00:48Z</time>
      </trkpt>
      <trkpt lat="43.44935" lon="6.60346">
        <ele>329.81902400404</ele>
        <time>2021-11-28T12:00:50Z</time>
      </trkpt>
      <trkpt lat="43.44936" lon="6.60345">
        <ele>329.8188996166</ele>
        <time>2021-11-28T12:00:52Z</time>
      </trkpt>
      <trkpt lat="43.44937" lon="6.60344">
        <ele>329.81880540401</ele>
        <time>2021-11-28T12:00:53Z</time>
      </trkpt>
      <trkpt lat="43.44937" lon="6.60343">
        <ele>329.81877925247</ele>
        <time>2021-11-28T12:00:56Z</time>
      </trkpt>
      <trkpt lat="43.44937" lon="6.60343">
        <ele>329.81876885891</ele>
        <time>2021-11-28T12:00:57Z</time>
      </trkpt>
      <trkpt lat="43.44937" lon="6.60342">
        <ele>329.81874036044</ele>
        <time>2021-11-28T12:00:58Z</time>
      </trkpt>
      <trkpt lat="43.44938" lon="6.60341">
        <ele>328.81860055029</ele>
        <time>2021-11-28T12:01:00Z</time>
      </trkpt>
      <trkpt lat="43.44939" lon="6.60338">
        <ele>328.81842050701</ele>
        <time>2021-11-28T12:01:02Z</time>
      </trkpt>
      <trkpt lat="43.44939" lon="6.60337">
        <ele>328.81835713983</ele>
        <time>2021-11-28T12:01:03Z</time>
      </trkpt>
      <trkpt lat="43.4494" lon="6.60336">
        <ele>328.81827130914</ele>
        <time>2021-11-28T12:01:04Z</time>
      </trkpt>
      <trkpt lat="43.44942" lon="6.60336">
        <ele>329.81811071187</ele>
        <time>2021-11-28T12:01:06Z</time>
      </trkpt>
      <trkpt lat="43.44943" lon="6.60336">
        <ele>329.8180148229</ele>
        <time>2021-11-28T12:01:07Z</time>
      </trkpt>
      <trkpt lat="43.44943" lon="6.60335">
        <ele>329.81797056645</ele>
        <time>2021-11-28T12:01:08Z</time>
      </trkpt>
      <trkpt lat="43.44944" lon="6.60334">
        <ele>330.81788440049</ele>
        <time>2021-11-28T12:01:13Z</time>
      </trkpt>
      <trkpt lat="43.44944" lon="6.60333">
        <ele>331.81778616458</ele>
        <time>2021-11-28T12:01:14Z</time>
      </trkpt>
      <trkpt lat="43.44945" lon="6.60333">
        <ele>330.81772883236</ele>
        <time>2021-11-28T12:01:15Z</time>
      </trkpt>
      <trkpt lat="43.44945" lon="6.60332">
        <ele>331.81768491119</ele>
        <time>2021-11-28T12:01:16Z</time>
      </trkpt>
      <trkpt lat="43.44945" lon="6.60331">
        <ele>331.81761115044</ele>
        <time>2021-11-28T12:01:17Z</time>
      </trkpt>
      <trkpt lat="43.44946" lon="6.6033">
        <ele>331.81752431393</ele>
        <time>2021-11-28T12:01:18Z</time>
      </trkpt>
      <trkpt lat="43.44946" lon="6.60328">
        <ele>331.81743915379</ele>
        <time>2021-11-28T12:01:19Z</time>
      </trkpt>
      <trkpt lat="43.44947" lon="6.60328">
        <ele>329.81739355624</ele>
        <time>2021-11-28T12:01:21Z</time>
      </trkpt>
      <trkpt lat="43.44947" lon="6.60328">
        <ele>329.81732717156</ele>
        <time>2021-11-28T12:01:22Z</time>
      </trkpt>
      <trkpt lat="43.44948" lon="6.60327">
        <ele>329.81724838167</ele>
        <time>2021-11-28T12:01:23Z</time>
      </trkpt>
      <trkpt lat="43.44949" lon="6.60327">
        <ele>328.81714679301</ele>
        <time>2021-11-28T12:01:25Z</time>
      </trkpt>
      <trkpt lat="43.44951" lon="6.60328">
        <ele>327.81705928594</ele>
        <time>2021-11-28T12:01:27Z</time>
      </trkpt>
      <trkpt lat="43.44951" lon="6.60328">
        <ele>329.81701670587</ele>
        <time>2021-11-28T12:01:29Z</time>
      </trkpt>
      <trkpt lat="43.44953" lon="6.60329">
        <ele>327.81694093347</ele>
        <time>2021-11-28T12:01:31Z</time>
      </trkpt>
      <trkpt lat="43.44953" lon="6.60328">
        <ele>328.81686381996</ele>
        <time>2021-11-28T12:01:32Z</time>
      </trkpt>
      <trkpt lat="43.44954" lon="6.60328">
        <ele>328.81681352854</ele>
        <time>2021-11-28T12:01:33Z</time>
      </trkpt>
      <trkpt lat="43.44955" lon="6.60328">
        <ele>326.81674211472</ele>
        <time>2021-11-28T12:01:37Z</time>
      </trkpt>
      <trkpt lat="43.44955" lon="6.60329">
        <ele>326.8167354092</ele>
        <time>2021-11-28T12:01:38Z</time>
      </trkpt>
      <trkpt lat="43.44956" lon="6.6033">
        <ele>326.81674446166</ele>
        <time>2021-11-28T12:01:39Z</time>
      </trkpt>
      <trkpt lat="43.44956" lon="6.6033">
        <ele>326.81675183773</ele>
        <time>2021-11-28T12:01:42Z</time>
      </trkpt>
      <trkpt lat="43.44957" lon="6.60331">
        <ele>326.81668947637</ele>
        <time>2021-11-28T12:01:45Z</time>
      </trkpt>
      <trkpt lat="43.44958" lon="6.60329">
        <ele>326.81654933095</ele>
        <time>2021-11-28T12:01:47Z</time>
      </trkpt>
      <trkpt lat="43.44958" lon="6.60328">
        <ele>327.81647959352</ele>
        <time>2021-11-28T12:01:48Z</time>
      </trkpt>
      <trkpt lat="43.44958" lon="6.60327">
        <ele>327.81644908339</ele>
        <time>2021-11-28T12:01:49Z</time>
      </trkpt>
      <trkpt lat="43.44959" lon="6.60326">
        <ele>328.81635453552</ele>
        <time>2021-11-28T12:01:51Z</time>
      </trkpt>
      <trkpt lat="43.44959" lon="6.60325">
        <ele>327.81632771343</ele>
        <time>2021-11-28T12:01:56Z</time>
      </trkpt>
      <trkpt lat="43.44959" lon="6.60324">
        <ele>326.81624691188</ele>
        <time>2021-11-28T12:01:57Z</time>
      </trkpt>
      <trkpt lat="43.44959" lon="6.60323">
        <ele>325.81619829684</ele>
        <time>2021-11-28T12:01:58Z</time>
      </trkpt>
      <trkpt lat="43.44959" lon="6.60322">
        <ele>325.81613895297</ele>
        <time>2021-11-28T12:01:59Z</time>
      </trkpt>
      <trkpt lat="43.4496" lon="6.60321">
        <ele>325.81605211645</ele>
        <time>2021-11-28T12:02:01Z</time>
      </trkpt>
      <trkpt lat="43.4496" lon="6.6032">
        <ele>326.81598841399</ele>
        <time>2021-11-28T12:02:03Z</time>
      </trkpt>
      <trkpt lat="43.44961" lon="6.60319">
        <ele>325.81593611091</ele>
        <time>2021-11-28T12:02:04Z</time>
      </trkpt>
      <trkpt lat="43.44963" lon="6.60318">
        <ele>324.81573628634</ele>
        <time>2021-11-28T12:02:06Z</time>
      </trkpt>
      <trkpt lat="43.44962" lon="6.60317">
        <ele>323.81571315229</ele>
        <time>2021-11-28T12:02:08Z</time>
      </trkpt>
      <trkpt lat="43.44963" lon="6.60317">
        <ele>324.81564911455</ele>
        <time>2021-11-28T12:02:09Z</time>
      </trkpt>
      <trkpt lat="43.44965" lon="6.60318">
        <ele>323.81555490196</ele>
        <time>2021-11-28T12:02:11Z</time>
      </trkpt>
      <trkpt lat="43.44965" lon="6.60317">
        <ele>324.81544291973</ele>
        <time>2021-11-28T12:02:12Z</time>
      </trkpt>
      <trkpt lat="43.44966" lon="6.60317">
        <ele>325.8154264912</ele>
        <time>2021-11-28T12:02:14Z</time>
      </trkpt>
      <trkpt lat="43.44967" lon="6.60318">
        <ele>324.81531484425</ele>
        <time>2021-11-28T12:02:16Z</time>
      </trkpt>
      <trkpt lat="43.44969" lon="6.60318">
        <ele>324.81524175406</ele>
        <time>2021-11-28T12:02:17Z</time>
      </trkpt>
      <trkpt lat="43.44969" lon="6.60318">
        <ele>324.81517503411</ele>
        <time>2021-11-28T12:02:18Z</time>
      </trkpt>
      <trkpt lat="43.44971" lon="6.60319">
        <ele>324.81508618593</ele>
        <time>2021-11-28T12:02:20Z</time>
      </trkpt>
      <trkpt lat="43.44972" lon="6.60319">
        <ele>324.81495945156</ele>
        <time>2021-11-28T12:02:22Z</time>
      </trkpt>
      <trkpt lat="43.44973" lon="6.60319">
        <ele>325.81491418928</ele>
        <time>2021-11-28T12:02:23Z</time>
      </trkpt>
      <trkpt lat="43.44974" lon="6.60319">
        <ele>325.81484612823</ele>
        <time>2021-11-28T12:02:24Z</time>
      </trkpt>
      <trkpt lat="43.44974" lon="6.60319">
        <ele>325.81479684263</ele>
        <time>2021-11-28T12:02:25Z</time>
      </trkpt>
      <trkpt lat="43.44975" lon="6.60318">
        <ele>325.81474420428</ele>
        <time>2021-11-28T12:02:26Z</time>
      </trkpt>
      <trkpt lat="43.44975" lon="6.60317">
        <ele>326.81471201777</ele>
        <time>2021-11-28T12:02:27Z</time>
      </trkpt>
      <trkpt lat="43.44976" lon="6.60317">
        <ele>325.81462719291</ele>
        <time>2021-11-28T12:02:29Z</time>
      </trkpt>
      <trkpt lat="43.44975" lon="6.60316">
        <ele>325.81459634751</ele>
        <time>2021-11-28T12:02:30Z</time>
      </trkpt>
      <trkpt lat="43.44976" lon="6.60315">
        <ele>325.81451152265</ele>
        <time>2021-11-28T12:02:31Z</time>
      </trkpt>
      <trkpt lat="43.44976" lon="6.60314">
        <ele>325.81445251405</ele>
        <time>2021-11-28T12:02:32Z</time>
      </trkpt>
      <trkpt lat="43.44976" lon="6.60313">
        <ele>325.81441898644</ele>
        <time>2021-11-28T12:02:33Z</time>
      </trkpt>
      <trkpt lat="43.44977" lon="6.60312">
        <ele>325.81435930729</ele>
        <time>2021-11-28T12:02:34Z</time>
      </trkpt>
      <trkpt lat="43.44977" lon="6.60312">
        <ele>326.8143562898</ele>
        <time>2021-11-28T12:02:37Z</time>
      </trkpt>
      <trkpt lat="43.44976" lon="6.60311">
        <ele>326.81432041526</ele>
        <time>2021-11-28T12:02:38Z</time>
      </trkpt>
      <trkpt lat="43.44977" lon="6.6031">
        <ele>326.81425872445</ele>
        <time>2021-11-28T12:02:39Z</time>
      </trkpt>
      <trkpt lat="43.44977" lon="6.6031">
        <ele>327.81419938058</ele>
        <time>2021-11-28T12:02:42Z</time>
      </trkpt>
      <trkpt lat="43.44978" lon="6.60309">
        <ele>327.81413701922</ele>
        <time>2021-11-28T12:02:43Z</time>
      </trkpt>
      <trkpt lat="43.44978" lon="6.60308">
        <ele>328.81404414773</ele>
        <time>2021-11-28T12:02:45Z</time>
      </trkpt>
      <trkpt lat="43.4498" lon="6.60308">
        <ele>328.81391406059</ele>
        <time>2021-11-28T12:02:47Z</time>
      </trkpt>
      <trkpt lat="43.4498" lon="6.60307">
        <ele>329.81387483329</ele>
        <time>2021-11-28T12:02:48Z</time>
      </trkpt>
      <trkpt lat="43.44981" lon="6.60307">
        <ele>330.81381582469</ele>
        <time>2021-11-28T12:02:49Z</time>
      </trkpt>
      <trkpt lat="43.44981" lon="6.60306">
        <ele>330.81377827376</ele>
        <time>2021-11-28T12:02:50Z</time>
      </trkpt>
      <trkpt lat="43.44981" lon="6.60306">
        <ele>331.81373669952</ele>
        <time>2021-11-28T12:02:51Z</time>
      </trkpt>
      <trkpt lat="43.44982" lon="6.60305">
        <ele>331.81367366761</ele>
        <time>2021-11-28T12:02:52Z</time>
      </trkpt>
      <trkpt lat="43.44982" lon="6.60305">
        <ele>331.81363879889</ele>
        <time>2021-11-28T12:02:53Z</time>
      </trkpt>
      <trkpt lat="43.44983" lon="6.60305">
        <ele>331.81360393018</ele>
        <time>2021-11-28T12:02:54Z</time>
      </trkpt>
      <trkpt lat="43.44984" lon="6.60306">
        <ele>330.81354123354</ele>
        <time>2021-11-28T12:02:56Z</time>
      </trkpt>
      <trkpt lat="43.44985" lon="6.60306">
        <ele>330.81346780807</ele>
        <time>2021-11-28T12:02:57Z</time>
      </trkpt>
      <trkpt lat="43.44985" lon="6.60306">
        <ele>330.81346009672</ele>
        <time>2021-11-28T12:02:59Z</time>
      </trkpt>
      <trkpt lat="43.44985" lon="6.60306">
        <ele>330.81342690438</ele>
        <time>2021-11-28T12:03:03Z</time>
      </trkpt>
      <trkpt lat="43.44985" lon="6.60307">
        <ele>329.81351239979</ele>
        <time>2021-11-28T12:03:05Z</time>
      </trkpt>
      <trkpt lat="43.44984" lon="6.60308">
        <ele>329.81358515471</ele>
        <time>2021-11-28T12:03:09Z</time>
      </trkpt>
      <trkpt lat="43.44984" lon="6.60308">
        <ele>329.81359253079</ele>
        <time>2021-11-28T12:03:12Z</time>
      </trkpt>
      <trkpt lat="43.44985" lon="6.6031">
        <ele>330.81357777864</ele>
        <time>2021-11-28T12:03:13Z</time>
      </trkpt>
      <trkpt lat="43.44986" lon="6.6031">
        <ele>329.81353184581</ele>
        <time>2021-11-28T12:03:16Z</time>
      </trkpt>
      <trkpt lat="43.44986" lon="6.6031">
        <ele>331.81352480501</ele>
        <time>2021-11-28T12:03:45Z</time>
      </trkpt>
      <trkpt lat="43.44986" lon="6.60309">
        <ele>330.81344802678</ele>
        <time>2021-11-28T12:03:47Z</time>
      </trkpt>
      <trkpt lat="43.44985" lon="6.60308">
        <ele>331.81350938231</ele>
        <time>2021-11-28T12:03:48Z</time>
      </trkpt>
      <trkpt lat="43.44985" lon="6.60307">
        <ele>332.8134983182</ele>
        <time>2021-11-28T12:03:51Z</time>
      </trkpt>
      <trkpt lat="43.44984" lon="6.60307">
        <ele>332.81357006729</ele>
        <time>2021-11-28T12:03:53Z</time>
      </trkpt>
      <trkpt lat="43.44983" lon="6.60309">
        <ele>332.81370116025</ele>
        <time>2021-11-28T12:03:55Z</time>
      </trkpt>
      <trkpt lat="43.44984" lon="6.6031">
        <ele>332.81372965872</ele>
        <time>2021-11-28T12:03:56Z</time>
      </trkpt>
      <trkpt lat="43.44983" lon="6.6031">
        <ele>331.81375413388</ele>
        <time>2021-11-28T12:04:00Z</time>
      </trkpt>
      <trkpt lat="43.44983" lon="6.60308">
        <ele>331.8136934489</ele>
        <time>2021-11-28T12:04:01Z</time>
      </trkpt>
      <trkpt lat="43.44983" lon="6.60305">
        <ele>332.81355732679</ele>
        <time>2021-11-28T12:04:02Z</time>
      </trkpt>
      <trkpt lat="43.44984" lon="6.60304">
        <ele>332.8134322688</ele>
        <time>2021-11-28T12:04:03Z</time>
      </trkpt>
      <trkpt lat="43.44984" lon="6.60302">
        <ele>332.81334844977</ele>
        <time>2021-11-28T12:04:04Z</time>
      </trkpt>
      <trkpt lat="43.44985" lon="6.60301">
        <ele>332.81326060742</ele>
        <time>2021-11-28T12:04:05Z</time>
      </trkpt>
      <trkpt lat="43.44986" lon="6.603">
        <ele>331.81314124912</ele>
        <time>2021-11-28T12:04:06Z</time>
      </trkpt>
      <trkpt lat="43.44987" lon="6.603">
        <ele>330.81302457303</ele>
        <time>2021-11-28T12:04:07Z</time>
      </trkpt>
      <trkpt lat="43.44988" lon="6.60299">
        <ele>330.81294947118</ele>
        <time>2021-11-28T12:04:08Z</time>
      </trkpt>
      <trkpt lat="43.44988" lon="6.60299">
        <ele>329.81291661412</ele>
        <time>2021-11-28T12:04:09Z</time>
      </trkpt>
      <trkpt lat="43.44989" lon="6.60298">
        <ele>328.81282608956</ele>
        <time>2021-11-28T12:04:10Z</time>
      </trkpt>
      <trkpt lat="43.4499" lon="6.60297">
        <ele>327.81270941347</ele>
        <time>2021-11-28T12:04:11Z</time>
      </trkpt>
      <trkpt lat="43.44991" lon="6.60296">
        <ele>327.81261117756</ele>
        <time>2021-11-28T12:04:12Z</time>
      </trkpt>
      <trkpt lat="43.44991" lon="6.60295">
        <ele>328.81255082786</ele>
        <time>2021-11-28T12:04:13Z</time>
      </trkpt>
      <trkpt lat="43.44991" lon="6.60294">
        <ele>328.81249383092</ele>
        <time>2021-11-28T12:04:14Z</time>
      </trkpt>
      <trkpt lat="43.4499" lon="6.60293">
        <ele>328.8124871254</ele>
        <time>2021-11-28T12:04:15Z</time>
      </trkpt>
      <trkpt lat="43.44991" lon="6.60291">
        <ele>327.81232317537</ele>
        <time>2021-11-28T12:04:17Z</time>
      </trkpt>
      <trkpt lat="43.44992" lon="6.6029">
        <ele>327.81225712597</ele>
        <time>2021-11-28T12:04:18Z</time>
      </trkpt>
      <trkpt lat="43.44992" lon="6.60289">
        <ele>328.81217096001</ele>
        <time>2021-11-28T12:04:19Z</time>
      </trkpt>
      <trkpt lat="43.44993" lon="6.60287">
        <ele>328.81208345294</ele>
        <time>2021-11-28T12:04:20Z</time>
      </trkpt>
      <trkpt lat="43.44994" lon="6.60285">
        <ele>328.81192184985</ele>
        <time>2021-11-28T12:04:22Z</time>
      </trkpt>
      <trkpt lat="43.44994" lon="6.60285">
        <ele>328.81185781211</ele>
        <time>2021-11-28T12:04:23Z</time>
      </trkpt>
      <trkpt lat="43.44994" lon="6.60284">
        <ele>328.81183903664</ele>
        <time>2021-11-28T12:04:24Z</time>
      </trkpt>
      <trkpt lat="43.44996" lon="6.60284">
        <ele>329.81170593202</ele>
        <time>2021-11-28T12:04:26Z</time>
      </trkpt>
      <trkpt lat="43.44996" lon="6.60283">
        <ele>329.8116190955</ele>
        <time>2021-11-28T12:04:27Z</time>
      </trkpt>
      <trkpt lat="43.44997" lon="6.60283">
        <ele>330.81156042218</ele>
        <time>2021-11-28T12:04:28Z</time>
      </trkpt>
      <trkpt lat="43.44998" lon="6.60284">
        <ele>330.81152488291</ele>
        <time>2021-11-28T12:04:29Z</time>
      </trkpt>
      <trkpt lat="43.44999" lon="6.60284">
        <ele>330.81149034947</ele>
        <time>2021-11-28T12:04:30Z</time>
      </trkpt>
      <trkpt lat="43.44999" lon="6.60286">
        <ele>330.81148900837</ele>
        <time>2021-11-28T12:04:32Z</time>
      </trkpt>
      <trkpt lat="43.45" lon="6.60287">
        <ele>330.81146822125</ele>
        <time>2021-11-28T12:04:33Z</time>
      </trkpt>
      <trkpt lat="43.45001" lon="6.60287">
        <ele>330.81144978106</ele>
        <time>2021-11-28T12:04:34Z</time>
      </trkpt>
      <trkpt lat="43.45001" lon="6.60288">
        <ele>331.81142999977</ele>
        <time>2021-11-28T12:04:35Z</time>
      </trkpt>
      <trkpt lat="43.45002" lon="6.60289">
        <ele>331.81143637002</ele>
        <time>2021-11-28T12:04:36Z</time>
      </trkpt>
      <trkpt lat="43.45002" lon="6.6029">
        <ele>331.81145045161</ele>
        <time>2021-11-28T12:04:37Z</time>
      </trkpt>
      <trkpt lat="43.45002" lon="6.6029">
        <ele>331.81145045161</ele>
        <time>2021-11-28T12:04:39Z</time>
      </trkpt>
      <trkpt lat="43.45003" lon="6.60292">
        <ele>332.81143067032</ele>
        <time>2021-11-28T12:04:40Z</time>
      </trkpt>
      <trkpt lat="43.45003" lon="6.60293">
        <ele>332.81145548075</ele>
        <time>2021-11-28T12:04:42Z</time>
      </trkpt>
      <trkpt lat="43.45004" lon="6.60293">
        <ele>332.81143670529</ele>
        <time>2021-11-28T12:04:45Z</time>
      </trkpt>
      <trkpt lat="43.45004" lon="6.60295">
        <ele>332.81145313382</ele>
        <time>2021-11-28T12:04:46Z</time>
      </trkpt>
      <trkpt lat="43.45005" lon="6.60295">
        <ele>333.81143670529</ele>
        <time>2021-11-28T12:04:47Z</time>
      </trkpt>
      <trkpt lat="43.45005" lon="6.60296">
        <ele>333.81139378995</ele>
        <time>2021-11-28T12:04:48Z</time>
      </trkpt>
      <trkpt lat="43.45006" lon="6.60296">
        <ele>333.8113495335</ele>
        <time>2021-11-28T12:04:49Z</time>
      </trkpt>
      <trkpt lat="43.45007" lon="6.60297">
        <ele>333.81130628288</ele>
        <time>2021-11-28T12:04:51Z</time>
      </trkpt>
      <trkpt lat="43.45007" lon="6.60296">
        <ele>333.81127074361</ele>
        <time>2021-11-28T12:04:52Z</time>
      </trkpt>
      <trkpt lat="43.45008" lon="6.60296">
        <ele>333.81121307611</ele>
        <time>2021-11-28T12:04:53Z</time>
      </trkpt>
      <trkpt lat="43.45008" lon="6.60295">
        <ele>333.81113428622</ele>
        <time>2021-11-28T12:04:54Z</time>
      </trkpt>
      <trkpt lat="43.45009" lon="6.60295">
        <ele>334.81108634174</ele>
        <time>2021-11-28T12:04:57Z</time>
      </trkpt>
      <trkpt lat="43.45011" lon="6.60296">
        <ele>334.81101258099</ele>
        <time>2021-11-28T12:04:58Z</time>
      </trkpt>
      <trkpt lat="43.45011" lon="6.60296">
        <ele>335.81098240614</ele>
        <time>2021-11-28T12:05:06Z</time>
      </trkpt>
      <trkpt lat="43.45012" lon="6.60299">
        <ele>335.81095323712</ele>
        <time>2021-11-28T12:05:08Z</time>
      </trkpt>
      <trkpt lat="43.45013" lon="6.603">
        <ele>336.81095726043</ele>
        <time>2021-11-28T12:05:10Z</time>
      </trkpt>
      <trkpt lat="43.45014" lon="6.60302">
        <ele>336.81092172116</ele>
        <time>2021-11-28T12:05:12Z</time>
      </trkpt>
      <trkpt lat="43.45016" lon="6.60303">
        <ele>336.81084997207</ele>
        <time>2021-11-28T12:05:13Z</time>
      </trkpt>
      <trkpt lat="43.45017" lon="6.60303">
        <ele>337.81078425795</ele>
        <time>2021-11-28T12:05:16Z</time>
      </trkpt>
      <trkpt lat="43.45017" lon="6.60302">
        <ele>337.81072156131</ele>
        <time>2021-11-28T12:05:18Z</time>
      </trkpt>
      <trkpt lat="43.45018" lon="6.60303">
        <ele>337.81066791713</ele>
        <time>2021-11-28T12:05:20Z</time>
      </trkpt>
      <trkpt lat="43.45018" lon="6.60305">
        <ele>337.81070714444</ele>
        <time>2021-11-28T12:05:22Z</time>
      </trkpt>
      <trkpt lat="43.45019" lon="6.60306">
        <ele>338.81071552634</ele>
        <time>2021-11-28T12:05:23Z</time>
      </trkpt>
      <trkpt lat="43.4502" lon="6.60306">
        <ele>338.81067562848</ele>
        <time>2021-11-28T12:05:24Z</time>
      </trkpt>
      <trkpt lat="43.45021" lon="6.60307">
        <ele>338.81060287356</ele>
        <time>2021-11-28T12:05:25Z</time>
      </trkpt>
      <trkpt lat="43.45021" lon="6.60307">
        <ele>338.81062701344</ele>
        <time>2021-11-28T12:05:35Z</time>
      </trkpt>
      <trkpt lat="43.45021" lon="6.60306">
        <ele>338.81053447723</ele>
        <time>2021-11-28T12:05:37Z</time>
      </trkpt>
      <trkpt lat="43.45022" lon="6.60305">
        <ele>340.81047680974</ele>
        <time>2021-11-28T12:05:39Z</time>
      </trkpt>
      <trkpt lat="43.45023" lon="6.60305">
        <ele>340.81037287414</ele>
        <time>2021-11-28T12:05:40Z</time>
      </trkpt>
      <trkpt lat="43.45023" lon="6.60305">
        <ele>340.81035476923</ele>
        <time>2021-11-28T12:05:42Z</time>
      </trkpt>
      <trkpt lat="43.45024" lon="6.60305">
        <ele>340.81028972566</ele>
        <time>2021-11-28T12:05:43Z</time>
      </trkpt>
      <trkpt lat="43.45024" lon="6.60306">
        <ele>340.81026592106</ele>
        <time>2021-11-28T12:05:48Z</time>
      </trkpt>
      <trkpt lat="43.45026" lon="6.60305">
        <ele>341.81015595049</ele>
        <time>2021-11-28T12:05:49Z</time>
      </trkpt>
      <trkpt lat="43.45026" lon="6.60305">
        <ele>342.81017506123</ele>
        <time>2021-11-28T12:05:59Z</time>
      </trkpt>
      <trkpt lat="43.45027" lon="6.60306">
        <ele>343.81006777287</ele>
        <time>2021-11-28T12:06:01Z</time>
      </trkpt>
      <trkpt lat="43.45027" lon="6.60307">
        <ele>344.81009995937</ele>
        <time>2021-11-28T12:06:03Z</time>
      </trkpt>
      <trkpt lat="43.45028" lon="6.60308">
        <ele>345.81008822471</ele>
        <time>2021-11-28T12:06:06Z</time>
      </trkpt>
      <trkpt lat="43.45028" lon="6.60309">
        <ele>344.81011571735</ele>
        <time>2021-11-28T12:06:08Z</time>
      </trkpt>
      <trkpt lat="43.45029" lon="6.60309">
        <ele>344.8100842014</ele>
        <time>2021-11-28T12:06:12Z</time>
      </trkpt>
      <trkpt lat="43.45028" lon="6.6031">
        <ele>345.8101291284</ele>
        <time>2021-11-28T12:06:13Z</time>
      </trkpt>
      <trkpt lat="43.45028" lon="6.60311">
        <ele>346.81016802043</ele>
        <time>2021-11-28T12:06:14Z</time>
      </trkpt>
      <trkpt lat="43.45028" lon="6.60311">
        <ele>346.81019182503</ele>
        <time>2021-11-28T12:06:15Z</time>
      </trkpt>
      <trkpt lat="43.45028" lon="6.60313">
        <ele>348.81028100848</ele>
        <time>2021-11-28T12:06:17Z</time>
      </trkpt>
      <trkpt lat="43.45028" lon="6.60314">
        <ele>347.81029978395</ele>
        <time>2021-11-28T12:06:18Z</time>
      </trkpt>
      <trkpt lat="43.45029" lon="6.60314">
        <ele>347.81025418639</ele>
        <time>2021-11-28T12:06:19Z</time>
      </trkpt>
      <trkpt lat="43.4503" lon="6.60315">
        <ele>346.81022166461</ele>
        <time>2021-11-28T12:06:24Z</time>
      </trkpt>
      <trkpt lat="43.4503" lon="6.60315">
        <ele>346.81023809314</ele>
        <time>2021-11-28T12:06:25Z</time>
      </trkpt>
      <trkpt lat="43.4503" lon="6.60316">
        <ele>346.81020791829</ele>
        <time>2021-11-28T12:06:30Z</time>
      </trkpt>
      <trkpt lat="43.4503" lon="6.60315">
        <ele>345.81020288914</ele>
        <time>2021-11-28T12:06:38Z</time>
      </trkpt>
      <trkpt lat="43.45029" lon="6.60315">
        <ele>345.81024178118</ele>
        <time>2021-11-28T12:06:40Z</time>
      </trkpt>
      <trkpt lat="43.4503" lon="6.60314">
        <ele>343.81021663547</ele>
        <time>2021-11-28T12:06:44Z</time>
      </trkpt>
      <trkpt lat="43.4503" lon="6.60315">
        <ele>343.81019048393</ele>
        <time>2021-11-28T12:06:46Z</time>
      </trkpt>
      <trkpt lat="43.45029" lon="6.60315">
        <ele>342.81026625633</ele>
        <time>2021-11-28T12:06:47Z</time>
      </trkpt>
      <trkpt lat="43.45029" lon="6.60315">
        <ele>343.8103172183</ele>
        <time>2021-11-28T12:06:48Z</time>
      </trkpt>
      <trkpt lat="43.45028" lon="6.60315">
        <ele>344.81035745144</ele>
        <time>2021-11-28T12:07:03Z</time>
      </trkpt>
      <trkpt lat="43.4503" lon="6.60316">
        <ele>344.81029173732</ele>
        <time>2021-11-28T12:07:05Z</time>
      </trkpt>
      <trkpt lat="43.4503" lon="6.60317">
        <ele>344.81025653332</ele>
        <time>2021-11-28T12:07:07Z</time>
      </trkpt>
      <trkpt lat="43.45031" lon="6.60317">
        <ele>344.81019584835</ele>
        <time>2021-11-28T12:07:08Z</time>
      </trkpt>
      <trkpt lat="43.45031" lon="6.60318">
        <ele>346.81023876369</ele>
        <time>2021-11-28T12:07:31Z</time>
      </trkpt>
      <trkpt lat="43.45032" lon="6.60316">
        <ele>346.81011001766</ele>
        <time>2021-11-28T12:07:32Z</time>
      </trkpt>
      <trkpt lat="43.45032" lon="6.60317">
        <ele>344.81011806428</ele>
        <time>2021-11-28T12:07:48Z</time>
      </trkpt>
      <trkpt lat="43.45032" lon="6.60318">
        <ele>345.81011772901</ele>
        <time>2021-11-28T12:07:53Z</time>
      </trkpt>
      <trkpt lat="43.45033" lon="6.60317">
        <ele>344.8100714609</ele>
        <time>2021-11-28T12:07:54Z</time>
      </trkpt>
      <trkpt lat="43.45034" lon="6.60317">
        <ele>344.80998898298</ele>
        <time>2021-11-28T12:07:55Z</time>
      </trkpt>
      <trkpt lat="43.45034" lon="6.60316">
        <ele>344.80990449339</ele>
        <time>2021-11-28T12:07:56Z</time>
      </trkpt>
      <trkpt lat="43.45035" lon="6.60317">
        <ele>344.80991589278</ele>
        <time>2021-11-28T12:08:17Z</time>
      </trkpt>
      <trkpt lat="43.45033" lon="6.60317">
        <ele>344.8100322336</ele>
        <time>2021-11-28T12:08:18Z</time>
      </trkpt>
      <trkpt lat="43.45034" lon="6.60317">
        <ele>344.8099802658</ele>
        <time>2021-11-28T12:08:29Z</time>
      </trkpt>
      <trkpt lat="43.45036" lon="6.60313">
        <ele>343.80966778845</ele>
        <time>2021-11-28T12:08:31Z</time>
      </trkpt>
      <trkpt lat="43.45037" lon="6.60311">
        <ele>344.80952026695</ele>
        <time>2021-11-28T12:08:32Z</time>
      </trkpt>
      <trkpt lat="43.45036" lon="6.60312">
        <ele>343.80957424641</ele>
        <time>2021-11-28T12:08:36Z</time>
      </trkpt>
      <trkpt lat="43.45036" lon="6.60312">
        <ele>343.80964063108</ele>
        <time>2021-11-28T12:08:37Z</time>
      </trkpt>
      <trkpt lat="43.45035" lon="6.60314">
        <ele>344.8097428903</ele>
        <time>2021-11-28T12:08:38Z</time>
      </trkpt>
      <trkpt lat="43.45036" lon="6.60314">
        <ele>345.80972243845</ele>
        <time>2021-11-28T12:08:44Z</time>
      </trkpt>
      <trkpt lat="43.45036" lon="6.60315">
        <ele>345.80970131606</ele>
        <time>2021-11-28T12:08:45Z</time>
      </trkpt>
      <trkpt lat="43.45036" lon="6.60315">
        <ele>345.80970768631</ele>
        <time>2021-11-28T12:08:46Z</time>
      </trkpt>
      <trkpt lat="43.45037" lon="6.60316">
        <ele>344.80968421698</ele>
        <time>2021-11-28T12:08:48Z</time>
      </trkpt>
      <trkpt lat="43.45036" lon="6.60316">
        <ele>344.8097569719</ele>
        <time>2021-11-28T12:08:55Z</time>
      </trkpt>
      <trkpt lat="43.45036" lon="6.60318">
        <ele>345.80984481424</ele>
        <time>2021-11-28T12:08:56Z</time>
      </trkpt>
      <trkpt lat="43.45035" lon="6.60317">
        <ele>346.80990818143</ele>
        <time>2021-11-28T12:08:57Z</time>
      </trkpt>
      <trkpt lat="43.45034" lon="6.60316">
        <ele>347.80991220474</ele>
        <time>2021-11-28T12:08:58Z</time>
      </trkpt>
      <trkpt lat="43.45033" lon="6.60317">
        <ele>349.80999032408</ele>
        <time>2021-11-28T12:08:59Z</time>
      </trkpt>
      <trkpt lat="43.45033" lon="6.60318">
        <ele>350.81003726274</ele>
        <time>2021-11-28T12:09:01Z</time>
      </trkpt>
      <trkpt lat="43.45034" lon="6.60318">
        <ele>350.8100251928</ele>
        <time>2021-11-28T12:09:02Z</time>
      </trkpt>
      <trkpt lat="43.45034" lon="6.60318">
        <ele>350.80996216089</ele>
        <time>2021-11-28T12:09:03Z</time>
      </trkpt>
      <trkpt lat="43.45034" lon="6.60317">
        <ele>350.80993500352</ele>
        <time>2021-11-28T12:09:04Z</time>
      </trkpt>
      <trkpt lat="43.45035" lon="6.60316">
        <ele>352.80985755473</ele>
        <time>2021-11-28T12:09:06Z</time>
      </trkpt>
      <trkpt lat="43.45036" lon="6.60317">
        <ele>352.80980961025</ele>
        <time>2021-11-28T12:09:07Z</time>
      </trkpt>
      <trkpt lat="43.45036" lon="6.60318">
        <ele>353.80980826914</ele>
        <time>2021-11-28T12:09:08Z</time>
      </trkpt>
      <trkpt lat="43.45037" lon="6.60319">
        <ele>353.80981665105</ele>
        <time>2021-11-28T12:09:09Z</time>
      </trkpt>
      <trkpt lat="43.45038" lon="6.60321">
        <ele>353.80980223417</ele>
        <time>2021-11-28T12:09:10Z</time>
      </trkpt>
      <trkpt lat="43.45039" lon="6.60322">
        <ele>352.80979150534</ele>
        <time>2021-11-28T12:09:11Z</time>
      </trkpt>
      <trkpt lat="43.45039" lon="6.60322">
        <ele>352.80976501852</ele>
        <time>2021-11-28T12:09:12Z</time>
      </trkpt>
      <trkpt lat="43.4504" lon="6.60322">
        <ele>353.80969025195</ele>
        <time>2021-11-28T12:09:25Z</time>
      </trkpt>
      <trkpt lat="43.4504" lon="6.60322">
        <ele>353.80963962525</ele>
        <time>2021-11-28T12:09:28Z</time>
      </trkpt>
      <trkpt lat="43.45041" lon="6.60321">
        <ele>353.80957257003</ele>
        <time>2021-11-28T12:09:29Z</time>
      </trkpt>
      <trkpt lat="43.45042" lon="6.60322">
        <ele>353.80950082093</ele>
        <time>2021-11-28T12:09:30Z</time>
      </trkpt>
      <trkpt lat="43.45043" lon="6.60321">
        <ele>353.80942169577</ele>
        <time>2021-11-28T12:09:31Z</time>
      </trkpt>
      <trkpt lat="43.45044" lon="6.60321">
        <ele>353.80933452398</ele>
        <time>2021-11-28T12:09:32Z</time>
      </trkpt>
      <trkpt lat="43.45045" lon="6.60321">
        <ele>353.80924802274</ele>
        <time>2021-11-28T12:09:33Z</time>
      </trkpt>
      <trkpt lat="43.45046" lon="6.60322">
        <ele>353.80918264389</ele>
        <time>2021-11-28T12:09:34Z</time>
      </trkpt>
      <trkpt lat="43.45047" lon="6.60323">
        <ele>354.80919739604</ele>
        <time>2021-11-28T12:09:35Z</time>
      </trkpt>
      <trkpt lat="43.45047" lon="6.60324">
        <ele>354.80921650678</ele>
        <time>2021-11-28T12:09:36Z</time>
      </trkpt>
      <trkpt lat="43.45047" lon="6.60324">
        <ele>354.80916789174</ele>
        <time>2021-11-28T12:09:37Z</time>
      </trkpt>
      <trkpt lat="43.45048" lon="6.60324">
        <ele>355.80910921842</ele>
        <time>2021-11-28T12:09:38Z</time>
      </trkpt>
      <trkpt lat="43.45049" lon="6.60323">
        <ele>355.80902606994</ele>
        <time>2021-11-28T12:09:39Z</time>
      </trkpt>
      <trkpt lat="43.4505" lon="6.60323">
        <ele>355.80894392729</ele>
        <time>2021-11-28T12:09:40Z</time>
      </trkpt>
      <trkpt lat="43.45051" lon="6.60324">
        <ele>355.80884937942</ele>
        <time>2021-11-28T12:09:41Z</time>
      </trkpt>
      <trkpt lat="43.45053" lon="6.60324">
        <ele>355.80875315517</ele>
        <time>2021-11-28T12:09:42Z</time>
      </trkpt>
      <trkpt lat="43.45054" lon="6.60325">
        <ele>355.80871459842</ele>
        <time>2021-11-28T12:09:43Z</time>
      </trkpt>
      <trkpt lat="43.45054" lon="6.60326">
        <ele>355.80868207663</ele>
        <time>2021-11-28T12:09:44Z</time>
      </trkpt>
      <trkpt lat="43.45056" lon="6.60325">
        <ele>355.80853522569</ele>
        <time>2021-11-28T12:09:46Z</time>
      </trkpt>
      <trkpt lat="43.45057" lon="6.60325">
        <ele>355.80843430758</ele>
        <time>2021-11-28T12:09:47Z</time>
      </trkpt>
      <trkpt lat="43.45059" lon="6.60326">
        <ele>355.80834445357</ele>
        <time>2021-11-28T12:09:48Z</time>
      </trkpt>
      <trkpt lat="43.45059" lon="6.60326">
        <ele>355.80830153823</ele>
        <time>2021-11-28T12:09:49Z</time>
      </trkpt>
      <trkpt lat="43.45061" lon="6.60325">
        <ele>355.80813926458</ele>
        <time>2021-11-28T12:09:51Z</time>
      </trkpt>
      <trkpt lat="43.45061" lon="6.60325">
        <ele>355.80807522684</ele>
        <time>2021-11-28T12:09:52Z</time>
      </trkpt>
      <trkpt lat="43.45062" lon="6.60324">
        <ele>355.80800481886</ele>
        <time>2021-11-28T12:09:53Z</time>
      </trkpt>
      <trkpt lat="43.45062" lon="6.60323">
        <ele>356.80794748664</ele>
        <time>2021-11-28T12:09:54Z</time>
      </trkpt>
      <trkpt lat="43.45063" lon="6.60324">
        <ele>356.80790188909</ele>
        <time>2021-11-28T12:09:55Z</time>
      </trkpt>
      <trkpt lat="43.45064" lon="6.60324">
        <ele>357.80787707865</ele>
        <time>2021-11-28T12:09:56Z</time>
      </trkpt>
      <trkpt lat="43.45064" lon="6.60323">
        <ele>357.80782477558</ele>
        <time>2021-11-28T12:09:57Z</time>
      </trkpt>
      <trkpt lat="43.45064" lon="6.60323">
        <ele>357.80777616054</ele>
        <time>2021-11-28T12:09:58Z</time>
      </trkpt>
      <trkpt lat="43.45065" lon="6.60322">
        <ele>357.80769401789</ele>
        <time>2021-11-28T12:09:59Z</time>
      </trkpt>
      <trkpt lat="43.45066" lon="6.60323">
        <ele>356.80761321634</ele>
        <time>2021-11-28T12:10:01Z</time>
      </trkpt>
      <trkpt lat="43.45067" lon="6.60323">
        <ele>357.80754951388</ele>
        <time>2021-11-28T12:10:02Z</time>
      </trkpt>
      <trkpt lat="43.45067" lon="6.60322">
        <ele>357.80748279393</ele>
        <time>2021-11-28T12:10:03Z</time>
      </trkpt>
      <trkpt lat="43.45068" lon="6.60321">
        <ele>357.80741506815</ele>
        <time>2021-11-28T12:10:05Z</time>
      </trkpt>
      <trkpt lat="43.45067" lon="6.6032">
        <ele>356.80743719637</ele>
        <time>2021-11-28T12:10:06Z</time>
      </trkpt>
      <trkpt lat="43.45067" lon="6.6032">
        <ele>356.8074368611</ele>
        <time>2021-11-28T12:10:07Z</time>
      </trkpt>
      <trkpt lat="43.45067" lon="6.60318">
        <ele>356.80732957274</ele>
        <time>2021-11-28T12:10:08Z</time>
      </trkpt>
      <trkpt lat="43.45068" lon="6.60317">
        <ele>357.80724743009</ele>
        <time>2021-11-28T12:10:09Z</time>
      </trkpt>
      <trkpt lat="43.45069" lon="6.60317">
        <ele>357.80715791136</ele>
        <time>2021-11-28T12:10:10Z</time>
      </trkpt>
      <trkpt lat="43.45072" lon="6.60318">
        <ele>357.80695942789</ele>
        <time>2021-11-28T12:10:12Z</time>
      </trkpt>
      <trkpt lat="43.45073" lon="6.60318">
        <ele>357.80690779537</ele>
        <time>2021-11-28T12:10:13Z</time>
      </trkpt>
      <trkpt lat="43.45073" lon="6.60318">
        <ele>357.80684643984</ele>
        <time>2021-11-28T12:10:14Z</time>
      </trkpt>
      <trkpt lat="43.45075" lon="6.60316">
        <ele>357.80667645484</ele>
        <time>2021-11-28T12:10:16Z</time>
      </trkpt>
      <trkpt lat="43.45076" lon="6.60315">
        <ele>357.80653463304</ele>
        <time>2021-11-28T12:10:17Z</time>
      </trkpt>
      <trkpt lat="43.45077" lon="6.60315">
        <ele>357.80642063916</ele>
        <time>2021-11-28T12:10:18Z</time>
      </trkpt>
      <trkpt lat="43.45078" lon="6.60314">
        <ele>357.80634520203</ele>
        <time>2021-11-28T12:10:20Z</time>
      </trkpt>
      <trkpt lat="43.45078" lon="6.60313">
        <ele>357.80627445877</ele>
        <time>2021-11-28T12:10:22Z</time>
      </trkpt>
      <trkpt lat="43.45079" lon="6.60313">
        <ele>358.80617488176</ele>
        <time>2021-11-28T12:10:23Z</time>
      </trkpt>
      <trkpt lat="43.45078" lon="6.60312">
        <ele>358.80621377379</ele>
        <time>2021-11-28T12:10:25Z</time>
      </trkpt>
      <trkpt lat="43.45078" lon="6.60312">
        <ele>358.80626305938</ele>
        <time>2021-11-28T12:10:26Z</time>
      </trkpt>
      <trkpt lat="43.45078" lon="6.60311">
        <ele>358.80624361336</ele>
        <time>2021-11-28T12:10:27Z</time>
      </trkpt>
      <trkpt lat="43.45078" lon="6.6031">
        <ele>357.80616918206</ele>
        <time>2021-11-28T12:10:28Z</time>
      </trkpt>
      <trkpt lat="43.45078" lon="6.6031">
        <ele>356.8061447069</ele>
        <time>2021-11-28T12:10:29Z</time>
      </trkpt>
      <trkpt lat="43.45078" lon="6.60309">
        <ele>356.80609877408</ele>
        <time>2021-11-28T12:10:31Z</time>
      </trkpt>
      <trkpt lat="43.45078" lon="6.60308">
        <ele>355.80605049431</ele>
        <time>2021-11-28T12:10:34Z</time>
      </trkpt>
      <trkpt lat="43.45079" lon="6.60307">
        <ele>355.8060085848</ele>
        <time>2021-11-28T12:10:35Z</time>
      </trkpt>
      <trkpt lat="43.45078" lon="6.60307">
        <ele>356.8060028851</ele>
        <time>2021-11-28T12:10:36Z</time>
      </trkpt>
      <trkpt lat="43.45078" lon="6.60307">
        <ele>355.80606960505</ele>
        <time>2021-11-28T12:10:40Z</time>
      </trkpt>
      <trkpt lat="43.45078" lon="6.60308">
        <ele>355.80602836609</ele>
        <time>2021-11-28T12:10:41Z</time>
      </trkpt>
      <trkpt lat="43.45079" lon="6.60307">
        <ele>356.80595695227</ele>
        <time>2021-11-28T12:10:45Z</time>
      </trkpt>
      <trkpt lat="43.45079" lon="6.60306">
        <ele>356.80594823509</ele>
        <time>2021-11-28T12:10:49Z</time>
      </trkpt>
      <trkpt lat="43.4508" lon="6.60306">
        <ele>355.80582887679</ele>
        <time>2021-11-28T12:10:51Z</time>
      </trkpt>
      <trkpt lat="43.4508" lon="6.60305">
        <ele>355.80579903722</ele>
        <time>2021-11-28T12:10:54Z</time>
      </trkpt>
      <trkpt lat="43.4508" lon="6.60304">
        <ele>353.80576517433</ele>
        <time>2021-11-28T12:10:59Z</time>
      </trkpt>
      <trkpt lat="43.4508" lon="6.60303">
        <ele>353.80572527647</ele>
        <time>2021-11-28T12:11:00Z</time>
      </trkpt>
      <trkpt lat="43.4508" lon="6.60303">
        <ele>353.80571588874</ele>
        <time>2021-11-28T12:11:01Z</time>
      </trkpt>
      <trkpt lat="43.4508" lon="6.60302">
        <ele>354.80563877523</ele>
        <time>2021-11-28T12:11:02Z</time>
      </trkpt>
      <trkpt lat="43.45081" lon="6.603">
        <ele>354.80552276969</ele>
        <time>2021-11-28T12:11:03Z</time>
      </trkpt>
      <trkpt lat="43.45081" lon="6.60298">
        <ele>354.80543425679</ele>
        <time>2021-11-28T12:11:04Z</time>
      </trkpt>
      <trkpt lat="43.45083" lon="6.60299">
        <ele>353.80532026291</ele>
        <time>2021-11-28T12:11:06Z</time>
      </trkpt>
      <trkpt lat="43.45084" lon="6.603">
        <ele>353.80526527762</ele>
        <time>2021-11-28T12:11:07Z</time>
      </trkpt>
      <trkpt lat="43.45085" lon="6.603">
        <ele>353.80523443222</ele>
        <time>2021-11-28T12:11:08Z</time>
      </trkpt>
      <trkpt lat="43.45085" lon="6.60301">
        <ele>353.80521599203</ele>
        <time>2021-11-28T12:11:10Z</time>
      </trkpt>
      <trkpt lat="43.45087" lon="6.60303">
        <ele>352.80519755185</ele>
        <time>2021-11-28T12:11:11Z</time>
      </trkpt>
      <trkpt lat="43.45087" lon="6.60303">
        <ele>352.80513720214</ele>
        <time>2021-11-28T12:11:12Z</time>
      </trkpt>
      <trkpt lat="43.45088" lon="6.60303">
        <ele>353.8050634414</ele>
        <time>2021-11-28T12:11:14Z</time>
      </trkpt>
      <trkpt lat="43.45088" lon="6.60302">
        <ele>353.80506277084</ele>
        <time>2021-11-28T12:11:15Z</time>
      </trkpt>
      <trkpt lat="43.45087" lon="6.60302">
        <ele>352.80509864539</ele>
        <time>2021-11-28T12:11:16Z</time>
      </trkpt>
      <trkpt lat="43.45087" lon="6.60301">
        <ele>351.80510602146</ele>
        <time>2021-11-28T12:11:17Z</time>
      </trkpt>
      <trkpt lat="43.45086" lon="6.603">
        <ele>351.8051237911</ele>
        <time>2021-11-28T12:11:18Z</time>
      </trkpt>
      <trkpt lat="43.45086" lon="6.603">
        <ele>350.80514290184</ele>
        <time>2021-11-28T12:11:20Z</time>
      </trkpt>
      <trkpt lat="43.45086" lon="6.60299">
        <ele>350.80509965122</ele>
        <time>2021-11-28T12:11:24Z</time>
      </trkpt>
      <trkpt lat="43.45086" lon="6.60298">
        <ele>349.80502153188</ele>
        <time>2021-11-28T12:11:26Z</time>
      </trkpt>
      <trkpt lat="43.45086" lon="6.60297">
        <ele>349.80499504507</ele>
        <time>2021-11-28T12:11:27Z</time>
      </trkpt>
      <trkpt lat="43.45086" lon="6.60297">
        <ele>349.80494978279</ele>
        <time>2021-11-28T12:11:28Z</time>
      </trkpt>
      <trkpt lat="43.45087" lon="6.60296">
        <ele>349.80490787327</ele>
        <time>2021-11-28T12:11:29Z</time>
      </trkpt>
      <trkpt lat="43.45087" lon="6.60296">
        <ele>348.80486059934</ele>
        <time>2021-11-28T12:11:30Z</time>
      </trkpt>
      <trkpt lat="43.45088" lon="6.60295">
        <ele>348.80477979779</ele>
        <time>2021-11-28T12:11:33Z</time>
      </trkpt>
      <trkpt lat="43.45088" lon="6.60295">
        <ele>348.80474492908</ele>
        <time>2021-11-28T12:11:34Z</time>
      </trkpt>
      <trkpt lat="43.45088" lon="6.60294">
        <ele>348.80475331098</ele>
        <time>2021-11-28T12:11:35Z</time>
      </trkpt>
      <trkpt lat="43.45087" lon="6.60293">
        <ele>348.80477510393</ele>
        <time>2021-11-28T12:11:36Z</time>
      </trkpt>
      <trkpt lat="43.45087" lon="6.60293">
        <ele>348.80476638675</ele>
        <time>2021-11-28T12:11:37Z</time>
      </trkpt>
      <trkpt lat="43.45086" lon="6.60292">
        <ele>348.8047908619</ele>
        <time>2021-11-28T12:11:38Z</time>
      </trkpt>
      <trkpt lat="43.45086" lon="6.60292">
        <ele>347.80482170731</ele>
        <time>2021-11-28T12:11:39Z</time>
      </trkpt>
      <trkpt lat="43.45085" lon="6.60292">
        <ele>347.80487535149</ele>
        <time>2021-11-28T12:11:40Z</time>
      </trkpt>
      <trkpt lat="43.45085" lon="6.60292">
        <ele>347.80489680916</ele>
        <time>2021-11-28T12:11:41Z</time>
      </trkpt>
      <trkpt lat="43.45084" lon="6.60291">
        <ele>347.80490552634</ele>
        <time>2021-11-28T12:11:42Z</time>
      </trkpt>
      <trkpt lat="43.45084" lon="6.6029">
        <ele>346.8048793748</ele>
        <time>2021-11-28T12:11:43Z</time>
      </trkpt>
      <trkpt lat="43.45084" lon="6.6029">
        <ele>346.80484584719</ele>
        <time>2021-11-28T12:11:46Z</time>
      </trkpt>
      <trkpt lat="43.45084" lon="6.60289">
        <ele>346.80486629903</ele>
        <time>2021-11-28T12:11:48Z</time>
      </trkpt>
      <trkpt lat="43.45084" lon="6.60288">
        <ele>346.80484584719</ele>
        <time>2021-11-28T12:11:50Z</time>
      </trkpt>
      <trkpt lat="43.45084" lon="6.60287">
        <ele>345.80473151803</ele>
        <time>2021-11-28T12:11:51Z</time>
      </trkpt>
      <trkpt lat="43.45084" lon="6.60287">
        <ele>345.80473151803</ele>
        <time>2021-11-28T12:11:53Z</time>
      </trkpt>
      <trkpt lat="43.45083" lon="6.60285">
        <ele>345.80471911281</ele>
        <time>2021-11-28T12:11:54Z</time>
      </trkpt>
      <trkpt lat="43.45083" lon="6.60283">
        <ele>344.80473118275</ele>
        <time>2021-11-28T12:11:56Z</time>
      </trkpt>
      <trkpt lat="43.45081" lon="6.60283">
        <ele>343.8047965616</ele>
        <time>2021-11-28T12:11:57Z</time>
      </trkpt>
      <trkpt lat="43.4508" lon="6.60282">
        <ele>343.80484886467</ele>
        <time>2021-11-28T12:11:58Z</time>
      </trkpt>
      <trkpt lat="43.4508" lon="6.60281">
        <ele>343.80485255271</ele>
        <time>2021-11-28T12:11:59Z</time>
      </trkpt>
      <trkpt lat="43.4508" lon="6.6028">
        <ele>343.80482371897</ele>
        <time>2021-11-28T12:12:02Z</time>
      </trkpt>
      <trkpt lat="43.4508" lon="6.6028">
        <ele>343.80477745086</ele>
        <time>2021-11-28T12:12:03Z</time>
      </trkpt>
      <trkpt lat="43.4508" lon="6.60279">
        <ele>343.80476906896</ele>
        <time>2021-11-28T12:12:04Z</time>
      </trkpt>
      <trkpt lat="43.45079" lon="6.60278">
        <ele>343.80478583276</ele>
        <time>2021-11-28T12:12:07Z</time>
      </trkpt>
      <trkpt lat="43.45079" lon="6.60277">
        <ele>343.80475129932</ele>
        <time>2021-11-28T12:12:08Z</time>
      </trkpt>
      <trkpt lat="43.45079" lon="6.60276">
        <ele>342.80472816527</ele>
        <time>2021-11-28T12:12:10Z</time>
      </trkpt>
      <trkpt lat="43.45078" lon="6.60276">
        <ele>341.80482371897</ele>
        <time>2021-11-28T12:12:12Z</time>
      </trkpt>
      <trkpt lat="43.45077" lon="6.60275">
        <ele>342.80484953523</ele>
        <time>2021-11-28T12:12:13Z</time>
      </trkpt>
      <trkpt lat="43.45076" lon="6.60274">
        <ele>342.80487535149</ele>
        <time>2021-11-28T12:12:14Z</time>
      </trkpt>
      <trkpt lat="43.45076" lon="6.60274">
        <ele>342.80492094904</ele>
        <time>2021-11-28T12:12:15Z</time>
      </trkpt>
      <trkpt lat="43.45076" lon="6.60276">
        <ele>342.80495615304</ele>
        <time>2021-11-28T12:12:16Z</time>
      </trkpt>
      <trkpt lat="43.45075" lon="6.60275">
        <ele>342.8049749285</ele>
        <time>2021-11-28T12:12:18Z</time>
      </trkpt>
      <trkpt lat="43.45075" lon="6.60274">
        <ele>341.80495313555</ele>
        <time>2021-11-28T12:12:20Z</time>
      </trkpt>
      <trkpt lat="43.45075" lon="6.60274">
        <ele>340.80497895181</ele>
        <time>2021-11-28T12:12:21Z</time>
      </trkpt>
      <trkpt lat="43.45074" lon="6.60273">
        <ele>341.80500040948</ele>
        <time>2021-11-28T12:12:22Z</time>
      </trkpt>
      <trkpt lat="43.45073" lon="6.60273">
        <ele>341.80506042391</ele>
        <time>2021-11-28T12:12:23Z</time>
      </trkpt>
      <trkpt lat="43.45072" lon="6.60272">
        <ele>341.80513183773</ele>
        <time>2021-11-28T12:12:24Z</time>
      </trkpt>
      <trkpt lat="43.45071" lon="6.60271">
        <ele>341.80517844111</ele>
        <time>2021-11-28T12:12:25Z</time>
      </trkpt>
      <trkpt lat="43.4507" lon="6.6027">
        <ele>342.80520191044</ele>
        <time>2021-11-28T12:12:26Z</time>
      </trkpt>
      <trkpt lat="43.4507" lon="6.60269">
        <ele>342.80519386381</ele>
        <time>2021-11-28T12:12:27Z</time>
      </trkpt>
      <trkpt lat="43.4507" lon="6.60268">
        <ele>341.80515765399</ele>
        <time>2021-11-28T12:12:30Z</time>
      </trkpt>
      <trkpt lat="43.45069" lon="6.60267">
        <ele>341.80518816411</ele>
        <time>2021-11-28T12:12:31Z</time>
      </trkpt>
      <trkpt lat="43.45068" lon="6.60267">
        <ele>340.80520358682</ele>
        <time>2021-11-28T12:12:32Z</time>
      </trkpt>
      <trkpt lat="43.45068" lon="6.60266">
        <ele>340.80518749356</ele>
        <time>2021-11-28T12:12:33Z</time>
      </trkpt>
      <trkpt lat="43.45068" lon="6.60265">
        <ele>340.80518313497</ele>
        <time>2021-11-28T12:12:34Z</time>
      </trkpt>
      <trkpt lat="43.45067" lon="6.60264">
        <ele>340.80518011749</ele>
        <time>2021-11-28T12:12:35Z</time>
      </trkpt>
      <trkpt lat="43.45066" lon="6.60263">
        <ele>340.80522135645</ele>
        <time>2021-11-28T12:12:36Z</time>
      </trkpt>
      <trkpt lat="43.45066" lon="6.60262">
        <ele>340.8052136451</ele>
        <time>2021-11-28T12:12:37Z</time>
      </trkpt>
      <trkpt lat="43.45065" lon="6.60261">
        <ele>339.80523812026</ele>
        <time>2021-11-28T12:12:38Z</time>
      </trkpt>
      <trkpt lat="43.45065" lon="6.60261">
        <ele>339.80525354296</ele>
        <time>2021-11-28T12:12:39Z</time>
      </trkpt>
      <trkpt lat="43.45064" lon="6.6026">
        <ele>340.8052951172</ele>
        <time>2021-11-28T12:12:40Z</time>
      </trkpt>
      <trkpt lat="43.45063" lon="6.6026">
        <ele>339.80532998592</ele>
        <time>2021-11-28T12:12:41Z</time>
      </trkpt>
      <trkpt lat="43.45063" lon="6.60259">
        <ele>339.80532126874</ele>
        <time>2021-11-28T12:12:42Z</time>
      </trkpt>
      <trkpt lat="43.45063" lon="6.60258">
        <ele>339.80525186658</ele>
        <time>2021-11-28T12:12:43Z</time>
      </trkpt>
      <trkpt lat="43.45063" lon="6.60258">
        <ele>339.80522973835</ele>
        <time>2021-11-28T12:12:45Z</time>
      </trkpt>
      <trkpt lat="43.45063" lon="6.60256">
        <ele>338.80524817854</ele>
        <time>2021-11-28T12:12:46Z</time>
      </trkpt>
      <trkpt lat="43.45063" lon="6.60256">
        <ele>337.80519889295</ele>
        <time>2021-11-28T12:12:47Z</time>
      </trkpt>
      <trkpt lat="43.45063" lon="6.60255">
        <ele>336.80516435951</ele>
        <time>2021-11-28T12:12:48Z</time>
      </trkpt>
      <trkpt lat="43.45063" lon="6.60254">
        <ele>336.8051013276</ele>
        <time>2021-11-28T12:12:49Z</time>
      </trkpt>
      <trkpt lat="43.45064" lon="6.60253">
        <ele>335.80502186716</ele>
        <time>2021-11-28T12:12:50Z</time>
      </trkpt>
      <trkpt lat="43.45064" lon="6.60253">
        <ele>334.80498163402</ele>
        <time>2021-11-28T12:12:51Z</time>
      </trkpt>
      <trkpt lat="43.45064" lon="6.60252">
        <ele>334.80495078862</ele>
        <time>2021-11-28T12:12:53Z</time>
      </trkpt>
      <trkpt lat="43.45064" lon="6.6025">
        <ele>334.80493100733</ele>
        <time>2021-11-28T12:12:54Z</time>
      </trkpt>
      <trkpt lat="43.45063" lon="6.60249">
        <ele>334.80492832512</ele>
        <time>2021-11-28T12:12:55Z</time>
      </trkpt>
      <trkpt lat="43.45063" lon="6.60249">
        <ele>334.80493503064</ele>
        <time>2021-11-28T12:12:56Z</time>
      </trkpt>
      <trkpt lat="43.45062" lon="6.60248">
        <ele>334.8049665466</ele>
        <time>2021-11-28T12:12:57Z</time>
      </trkpt>
      <trkpt lat="43.45061" lon="6.60247">
        <ele>334.80501817912</ele>
        <time>2021-11-28T12:12:58Z</time>
      </trkpt>
      <trkpt lat="43.4506" lon="6.60247">
        <ele>333.8050731644</ele>
        <time>2021-11-28T12:13:01Z</time>
      </trkpt>
      <trkpt lat="43.45059" lon="6.60247">
        <ele>332.80511004478</ele>
        <time>2021-11-28T12:13:03Z</time>
      </trkpt>
      <trkpt lat="43.45059" lon="6.60245">
        <ele>333.80507282913</ele>
        <time>2021-11-28T12:13:04Z</time>
      </trkpt>
      <trkpt lat="43.45059" lon="6.60245">
        <ele>332.80504734814</ele>
        <time>2021-11-28T12:13:05Z</time>
      </trkpt>
      <trkpt lat="43.45059" lon="6.60243">
        <ele>332.80498699844</ele>
        <time>2021-11-28T12:13:07Z</time>
      </trkpt>
      <trkpt lat="43.45059" lon="6.60242">
        <ele>332.80492631346</ele>
        <time>2021-11-28T12:13:08Z</time>
      </trkpt>
      <trkpt lat="43.4506" lon="6.60241">
        <ele>332.80483277142</ele>
        <time>2021-11-28T12:13:09Z</time>
      </trkpt>
      <trkpt lat="43.45059" lon="6.60239">
        <ele>332.80480159074</ele>
        <time>2021-11-28T12:13:11Z</time>
      </trkpt>
      <trkpt lat="43.4506" lon="6.60237">
        <ele>330.80468055606</ele>
        <time>2021-11-28T12:13:13Z</time>
      </trkpt>
      <trkpt lat="43.4506" lon="6.60235">
        <ele>331.80457997322</ele>
        <time>2021-11-28T12:13:14Z</time>
      </trkpt>
      <trkpt lat="43.45061" lon="6.60234">
        <ele>331.80449045449</ele>
        <time>2021-11-28T12:13:15Z</time>
      </trkpt>
      <trkpt lat="43.4506" lon="6.60233">
        <ele>330.80455616862</ele>
        <time>2021-11-28T12:13:17Z</time>
      </trkpt>
      <trkpt lat="43.45059" lon="6.60233">
        <ele>330.8046098128</ele>
        <time>2021-11-28T12:13:18Z</time>
      </trkpt>
      <trkpt lat="43.45058" lon="6.60232">
        <ele>330.80465272814</ele>
        <time>2021-11-28T12:13:19Z</time>
      </trkpt>
      <trkpt lat="43.45057" lon="6.60232">
        <ele>330.80470905453</ele>
        <time>2021-11-28T12:13:20Z</time>
      </trkpt>
      <trkpt lat="43.45058" lon="6.6023">
        <ele>329.80459170789</ele>
        <time>2021-11-28T12:13:22Z</time>
      </trkpt>
      <trkpt lat="43.45058" lon="6.60229">
        <ele>329.80455181003</ele>
        <time>2021-11-28T12:13:23Z</time>
      </trkpt>
      <trkpt lat="43.45058" lon="6.60228">
        <ele>329.80448240787</ele>
        <time>2021-11-28T12:13:24Z</time>
      </trkpt>
      <trkpt lat="43.45058" lon="6.60227">
        <ele>328.80447268486</ele>
        <time>2021-11-28T12:13:25Z</time>
      </trkpt>
      <trkpt lat="43.45056" lon="6.60226">
        <ele>327.80455147475</ele>
        <time>2021-11-28T12:13:26Z</time>
      </trkpt>
      <trkpt lat="43.45055" lon="6.60226">
        <ele>328.80461383611</ele>
        <time>2021-11-28T12:13:27Z</time>
      </trkpt>
      <trkpt lat="43.45055" lon="6.60225">
        <ele>328.80461785942</ele>
        <time>2021-11-28T12:13:28Z</time>
      </trkpt>
      <trkpt lat="43.45056" lon="6.60224">
        <ele>328.80450755358</ele>
        <time>2021-11-28T12:13:29Z</time>
      </trkpt>
      <trkpt lat="43.45056" lon="6.60223">
        <ele>328.8043865189</ele>
        <time>2021-11-28T12:13:30Z</time>
      </trkpt>
      <trkpt lat="43.45057" lon="6.60223">
        <ele>327.80438752472</ele>
        <time>2021-11-28T12:13:33Z</time>
      </trkpt>
      <trkpt lat="43.45058" lon="6.60224">
        <ele>327.80435500294</ele>
        <time>2021-11-28T12:13:34Z</time>
      </trkpt>
      <trkpt lat="43.45059" lon="6.60224">
        <ele>326.80428593606</ele>
        <time>2021-11-28T12:13:35Z</time>
      </trkpt>
      <trkpt lat="43.45059" lon="6.60224">
        <ele>325.80422893912</ele>
        <time>2021-11-28T12:13:37Z</time>
      </trkpt>
      <trkpt lat="43.45059" lon="6.60223">
        <ele>325.80417831242</ele>
        <time>2021-11-28T12:13:38Z</time>
      </trkpt>
      <trkpt lat="43.45059" lon="6.60222">
        <ele>325.8041504845</ele>
        <time>2021-11-28T12:13:39Z</time>
      </trkpt>
      <trkpt lat="43.45059" lon="6.60221">
        <ele>325.80410790443</ele>
        <time>2021-11-28T12:13:40Z</time>
      </trkpt>
      <trkpt lat="43.45059" lon="6.6022">
        <ele>324.8040901348</ele>
        <time>2021-11-28T12:13:41Z</time>
      </trkpt>
      <trkpt lat="43.45059" lon="6.60219">
        <ele>325.80402173847</ele>
        <time>2021-11-28T12:13:42Z</time>
      </trkpt>
      <trkpt lat="43.45059" lon="6.60218">
        <ele>324.80398720503</ele>
        <time>2021-11-28T12:13:45Z</time>
      </trkpt>
      <trkpt lat="43.45059" lon="6.60217">
        <ele>325.80397245288</ele>
        <time>2021-11-28T12:13:48Z</time>
      </trkpt>
      <trkpt lat="43.45059" lon="6.60216">
        <ele>325.80395602435</ele>
        <time>2021-11-28T12:13:49Z</time>
      </trkpt>
      <trkpt lat="43.45058" lon="6.60215">
        <ele>325.80396038294</ele>
        <time>2021-11-28T12:13:50Z</time>
      </trkpt>
      <trkpt lat="43.45059" lon="6.60214">
        <ele>323.80386214703</ele>
        <time>2021-11-28T12:13:52Z</time>
      </trkpt>
      <trkpt lat="43.45059" lon="6.60212">
        <ele>323.8037853688</ele>
        <time>2021-11-28T12:13:53Z</time>
      </trkpt>
      <trkpt lat="43.45059" lon="6.6021">
        <ele>323.80370154977</ele>
        <time>2021-11-28T12:13:54Z</time>
      </trkpt>
      <trkpt lat="43.45058" lon="6.60208">
        <ele>323.8036660105</ele>
        <time>2021-11-28T12:13:55Z</time>
      </trkpt>
      <trkpt lat="43.45057" lon="6.60206">
        <ele>322.80367707461</ele>
        <time>2021-11-28T12:13:57Z</time>
      </trkpt>
      <trkpt lat="43.45056" lon="6.60205">
        <ele>323.80367942154</ele>
        <time>2021-11-28T12:13:58Z</time>
      </trkpt>
      <trkpt lat="43.45056" lon="6.60203">
        <ele>323.80367271602</ele>
        <time>2021-11-28T12:13:59Z</time>
      </trkpt>
      <trkpt lat="43.45055" lon="6.60202">
        <ele>323.80367673934</ele>
        <time>2021-11-28T12:14:00Z</time>
      </trkpt>
      <trkpt lat="43.45055" lon="6.602">
        <ele>322.8036378473</ele>
        <time>2021-11-28T12:14:02Z</time>
      </trkpt>
      <trkpt lat="43.45054" lon="6.60199">
        <ele>322.8036210835</ele>
        <time>2021-11-28T12:14:03Z</time>
      </trkpt>
      <trkpt lat="43.45054" lon="6.60198">
        <ele>323.80357079208</ele>
        <time>2021-11-28T12:14:04Z</time>
      </trkpt>
      <trkpt lat="43.45055" lon="6.60196">
        <ele>322.80340650678</ele>
        <time>2021-11-28T12:14:06Z</time>
      </trkpt>
      <trkpt lat="43.45054" lon="6.60195">
        <ele>322.80343098193</ele>
        <time>2021-11-28T12:14:08Z</time>
      </trkpt>
      <trkpt lat="43.45054" lon="6.60193">
        <ele>321.80344137549</ele>
        <time>2021-11-28T12:14:09Z</time>
      </trkpt>
      <trkpt lat="43.45054" lon="6.60192">
        <ele>321.80340449512</ele>
        <time>2021-11-28T12:14:10Z</time>
      </trkpt>
      <trkpt lat="43.45055" lon="6.60188">
        <ele>321.80316779017</ele>
        <time>2021-11-28T12:14:12Z</time>
      </trkpt>
      <trkpt lat="43.45055" lon="6.60186">
        <ele>322.80305279046</ele>
        <time>2021-11-28T12:14:13Z</time>
      </trkpt>
      <trkpt lat="43.45055" lon="6.60184">
        <ele>321.80294449627</ele>
        <time>2021-11-28T12:14:14Z</time>
      </trkpt>
      <trkpt lat="43.45056" lon="6.60181">
        <ele>320.80277082324</ele>
        <time>2021-11-28T12:14:16Z</time>
      </trkpt>
      <trkpt lat="43.45055" lon="6.60179">
        <ele>320.80278490484</ele>
        <time>2021-11-28T12:14:18Z</time>
      </trkpt>
      <trkpt lat="43.45053" lon="6.6018">
        <ele>319.80293142051</ele>
        <time>2021-11-28T12:14:19Z</time>
      </trkpt>
      <trkpt lat="43.45052" lon="6.6018">
        <ele>319.80301456898</ele>
        <time>2021-11-28T12:14:20Z</time>
      </trkpt>
      <trkpt lat="43.45051" lon="6.60179">
        <ele>319.80305916071</ele>
        <time>2021-11-28T12:14:21Z</time>
      </trkpt>
      <trkpt lat="43.45051" lon="6.60177">
        <ele>319.80305010825</ele>
        <time>2021-11-28T12:14:22Z</time>
      </trkpt>
      <trkpt lat="43.4505" lon="6.60176">
        <ele>319.80302093923</ele>
        <time>2021-11-28T12:14:23Z</time>
      </trkpt>
      <trkpt lat="43.4505" lon="6.60174">
        <ele>319.80298171192</ele>
        <time>2021-11-28T12:14:24Z</time>
      </trkpt>
      <trkpt lat="43.45051" lon="6.60172">
        <ele>318.80281809717</ele>
        <time>2021-11-28T12:14:26Z</time>
      </trkpt>
      <trkpt lat="43.45051" lon="6.6017">
        <ele>318.80273293704</ele>
        <time>2021-11-28T12:14:27Z</time>
      </trkpt>
      <trkpt lat="43.45051" lon="6.60168">
        <ele>318.80264576524</ele>
        <time>2021-11-28T12:14:28Z</time>
      </trkpt>
      <trkpt lat="43.45052" lon="6.60167">
        <ele>319.80253646523</ele>
        <time>2021-11-28T12:14:29Z</time>
      </trkpt>
      <trkpt lat="43.45053" lon="6.60166">
        <ele>319.80241308361</ele>
        <time>2021-11-28T12:14:30Z</time>
      </trkpt>
      <trkpt lat="43.45053" lon="6.60164">
        <ele>318.8023192063</ele>
        <time>2021-11-28T12:14:32Z</time>
      </trkpt>
      <trkpt lat="43.45052" lon="6.60162">
        <ele>318.80231786519</ele>
        <time>2021-11-28T12:14:33Z</time>
      </trkpt>
      <trkpt lat="43.45052" lon="6.6016">
        <ele>318.8022672385</ele>
        <time>2021-11-28T12:14:34Z</time>
      </trkpt>
      <trkpt lat="43.45051" lon="6.60158">
        <ele>318.80222532898</ele>
        <time>2021-11-28T12:14:35Z</time>
      </trkpt>
      <trkpt lat="43.45051" lon="6.60158">
        <ele>318.80220454186</ele>
        <time>2021-11-28T12:14:36Z</time>
      </trkpt>
      <trkpt lat="43.4505" lon="6.60157">
        <ele>318.80227461457</ele>
        <time>2021-11-28T12:14:37Z</time>
      </trkpt>
      <trkpt lat="43.45049" lon="6.60157">
        <ele>318.8023275882</ele>
        <time>2021-11-28T12:14:38Z</time>
      </trkpt>
      <trkpt lat="43.45048" lon="6.60155">
        <ele>318.80233831704</ele>
        <time>2021-11-28T12:14:39Z</time>
      </trkpt>
      <trkpt lat="43.45048" lon="6.60153">
        <ele>317.80232289433</ele>
        <time>2021-11-28T12:14:41Z</time>
      </trkpt>
      <trkpt lat="43.45047" lon="6.60152">
        <ele>318.80231719464</ele>
        <time>2021-11-28T12:14:42Z</time>
      </trkpt>
      <trkpt lat="43.45046" lon="6.60151">
        <ele>317.80235072225</ele>
        <time>2021-11-28T12:14:43Z</time>
      </trkpt>
      <trkpt lat="43.45046" lon="6.60151">
        <ele>317.80234334618</ele>
        <time>2021-11-28T12:14:48Z</time>
      </trkpt>
      <trkpt lat="43.45046" lon="6.60149">
        <ele>317.80228199065</ele>
        <time>2021-11-28T12:14:50Z</time>
      </trkpt>
      <trkpt lat="43.45046" lon="6.60149">
        <ele>317.80230177194</ele>
        <time>2021-11-28T12:15:00Z</time>
      </trkpt>
      <trkpt lat="43.45046" lon="6.60151">
        <ele>315.80238693208</ele>
        <time>2021-11-28T12:15:01Z</time>
      </trkpt>
      <trkpt lat="43.45046" lon="6.60151">
        <ele>316.80240134895</ele>
        <time>2021-11-28T12:15:06Z</time>
      </trkpt>
      <trkpt lat="43.45044" lon="6.6015">
        <ele>316.80246941</ele>
        <time>2021-11-28T12:15:08Z</time>
      </trkpt>
      <trkpt lat="43.45045" lon="6.60149">
        <ele>316.80238492042</ele>
        <time>2021-11-28T12:15:16Z</time>
      </trkpt>
      <trkpt lat="43.45045" lon="6.6015">
        <ele>316.80237989128</ele>
        <time>2021-11-28T12:15:17Z</time>
      </trkpt>
      <trkpt lat="43.45046" lon="6.60151">
        <ele>316.80236882716</ele>
        <time>2021-11-28T12:15:18Z</time>
      </trkpt>
      <trkpt lat="43.45046" lon="6.60151">
        <ele>316.80236513913</ele>
        <time>2021-11-28T12:15:19Z</time>
      </trkpt>
      <trkpt lat="43.45047" lon="6.60152">
        <ele>317.80231652409</ele>
        <time>2021-11-28T12:15:20Z</time>
      </trkpt>
      <trkpt lat="43.45048" lon="6.60154">
        <ele>316.80231618881</ele>
        <time>2021-11-28T12:15:22Z</time>
      </trkpt>
      <trkpt lat="43.45049" lon="6.60154">
        <ele>316.80226992071</ele>
        <time>2021-11-28T12:15:23Z</time>
      </trkpt>
      <trkpt lat="43.4505" lon="6.60156">
        <ele>316.80226187408</ele>
        <time>2021-11-28T12:15:24Z</time>
      </trkpt>
      <trkpt lat="43.45051" lon="6.60157">
        <ele>315.80221560597</ele>
        <time>2021-11-28T12:15:26Z</time>
      </trkpt>
      <trkpt lat="43.45051" lon="6.60157">
        <ele>315.80219146609</ele>
        <time>2021-11-28T12:15:29Z</time>
      </trkpt>
      <trkpt lat="43.45052" lon="6.60158">
        <ele>314.8021716848</ele>
        <time>2021-11-28T12:15:33Z</time>
      </trkpt>
      <trkpt lat="43.45053" lon="6.60158">
        <ele>315.80210932344</ele>
        <time>2021-11-28T12:15:34Z</time>
      </trkpt>
      <trkpt lat="43.45054" lon="6.60157">
        <ele>315.80200337619</ele>
        <time>2021-11-28T12:15:36Z</time>
      </trkpt>
      <trkpt lat="43.45054" lon="6.60157">
        <ele>314.80192995071</ele>
        <time>2021-11-28T12:15:37Z</time>
      </trkpt>
      <trkpt lat="43.45055" lon="6.60156">
        <ele>314.80183372647</ele>
        <time>2021-11-28T12:15:38Z</time>
      </trkpt>
      <trkpt lat="43.45056" lon="6.60154">
        <ele>314.80170665681</ele>
        <time>2021-11-28T12:15:40Z</time>
      </trkpt>
      <trkpt lat="43.45056" lon="6.60154">
        <ele>314.80170665681</ele>
        <time>2021-11-28T12:15:42Z</time>
      </trkpt>
      <trkpt lat="43.45056" lon="6.60153">
        <ele>314.80158595741</ele>
        <time>2021-11-28T12:15:43Z</time>
      </trkpt>
      <trkpt lat="43.45057" lon="6.60152">
        <ele>315.80152460188</ele>
        <time>2021-11-28T12:15:44Z</time>
      </trkpt>
      <trkpt lat="43.45058" lon="6.6015">
        <ele>315.80133952945</ele>
        <time>2021-11-28T12:15:46Z</time>
      </trkpt>
      <trkpt lat="43.45058" lon="6.60149">
        <ele>315.80129057914</ele>
        <time>2021-11-28T12:15:48Z</time>
      </trkpt>
      <trkpt lat="43.45058" lon="6.60148">
        <ele>315.80126174539</ele>
        <time>2021-11-28T12:15:50Z</time>
      </trkpt>
      <trkpt lat="43.45058" lon="6.60147">
        <ele>315.80124565214</ele>
        <time>2021-11-28T12:15:51Z</time>
      </trkpt>
      <trkpt lat="43.45058" lon="6.60147">
        <ele>314.80126241595</ele>
        <time>2021-11-28T12:15:52Z</time>
      </trkpt>
      <trkpt lat="43.45057" lon="6.60146">
        <ele>313.80125638098</ele>
        <time>2021-11-28T12:15:53Z</time>
      </trkpt>
      <trkpt lat="43.45057" lon="6.60146">
        <ele>314.80127549171</ele>
        <time>2021-11-28T12:15:54Z</time>
      </trkpt>
      <trkpt lat="43.45057" lon="6.60145">
        <ele>314.80124632269</ele>
        <time>2021-11-28T12:15:55Z</time>
      </trkpt>
      <trkpt lat="43.45057" lon="6.60144">
        <ele>313.80118664354</ele>
        <time>2021-11-28T12:15:56Z</time>
      </trkpt>
      <trkpt lat="43.45058" lon="6.60143">
        <ele>313.80110282451</ele>
        <time>2021-11-28T12:16:00Z</time>
      </trkpt>
      <trkpt lat="43.45058" lon="6.60142">
        <ele>313.80103342235</ele>
        <time>2021-11-28T12:16:01Z</time>
      </trkpt>
      <trkpt lat="43.45058" lon="6.60141">
        <ele>313.80102638155</ele>
        <time>2021-11-28T12:16:02Z</time>
      </trkpt>
      <trkpt lat="43.45057" lon="6.6014">
        <ele>313.80102671683</ele>
        <time>2021-11-28T12:16:03Z</time>
      </trkpt>
      <trkpt lat="43.45057" lon="6.60139">
        <ele>313.80101095885</ele>
        <time>2021-11-28T12:16:04Z</time>
      </trkpt>
      <trkpt lat="43.45058" lon="6.60137">
        <ele>313.80087148398</ele>
        <time>2021-11-28T12:16:06Z</time>
      </trkpt>
      <trkpt lat="43.45058" lon="6.60136">
        <ele>313.80079369992</ele>
        <time>2021-11-28T12:16:11Z</time>
      </trkpt>
      <trkpt lat="43.45058" lon="6.60134">
        <ele>313.80074642599</ele>
        <time>2021-11-28T12:16:13Z</time>
      </trkpt>
      <trkpt lat="43.45057" lon="6.60134">
        <ele>313.80076151341</ele>
        <time>2021-11-28T12:16:14Z</time>
      </trkpt>
      <trkpt lat="43.45057" lon="6.60132">
        <ele>313.80072697997</ele>
        <time>2021-11-28T12:16:15Z</time>
      </trkpt>
      <trkpt lat="43.45059" lon="6.6013">
        <ele>312.8005284965</ele>
        <time>2021-11-28T12:16:17Z</time>
      </trkpt>
      <trkpt lat="43.45059" lon="6.60129">
        <ele>311.80043797195</ele>
        <time>2021-11-28T12:16:18Z</time>
      </trkpt>
      <trkpt lat="43.4506" lon="6.60129">
        <ele>310.80037862808</ele>
        <time>2021-11-28T12:16:19Z</time>
      </trkpt>
      <trkpt lat="43.4506" lon="6.60129">
        <ele>310.80035683513</ele>
        <time>2021-11-28T12:16:22Z</time>
      </trkpt>
      <trkpt lat="43.4506" lon="6.60128">
        <ele>310.80035851151</ele>
        <time>2021-11-28T12:16:23Z</time>
      </trkpt>
      <trkpt lat="43.45059" lon="6.60127">
        <ele>310.80033604801</ele>
        <time>2021-11-28T12:16:25Z</time>
      </trkpt>
      <trkpt lat="43.45059" lon="6.60126">
        <ele>309.80030553788</ele>
        <time>2021-11-28T12:16:27Z</time>
      </trkpt>
      <trkpt lat="43.45059" lon="6.60126">
        <ele>309.80036186427</ele>
        <time>2021-11-28T12:16:34Z</time>
      </trkpt>
      <trkpt lat="43.45059" lon="6.60124">
        <ele>310.8002223894</ele>
        <time>2021-11-28T12:16:36Z</time>
      </trkpt>
      <trkpt lat="43.4506" lon="6.60122">
        <ele>310.80008559674</ele>
        <time>2021-11-28T12:16:38Z</time>
      </trkpt>
      <trkpt lat="43.45061" lon="6.60121">
        <ele>310.79998099059</ele>
        <time>2021-11-28T12:16:39Z</time>
      </trkpt>
      <trkpt lat="43.45062" lon="6.60122">
        <ele>310.79987906665</ele>
        <time>2021-11-28T12:16:40Z</time>
      </trkpt>
      <trkpt lat="43.45064" lon="6.60122">
        <ele>309.79973690957</ele>
        <time>2021-11-28T12:16:42Z</time>
      </trkpt>
      <trkpt lat="43.45064" lon="6.60121">
        <ele>309.79967655987</ele>
        <time>2021-11-28T12:16:43Z</time>
      </trkpt>
      <trkpt lat="43.45064" lon="6.6012">
        <ele>309.79963632673</ele>
        <time>2021-11-28T12:16:44Z</time>
      </trkpt>
      <trkpt lat="43.45065" lon="6.60118">
        <ele>308.79954949021</ele>
        <time>2021-11-28T12:16:46Z</time>
      </trkpt>
      <trkpt lat="43.45066" lon="6.60117">
        <ele>306.79940766841</ele>
        <time>2021-11-28T12:16:48Z</time>
      </trkpt>
      <trkpt lat="43.45066" lon="6.60117">
        <ele>307.79941035062</ele>
        <time>2021-11-28T12:16:50Z</time>
      </trkpt>
      <trkpt lat="43.45066" lon="6.60114">
        <ele>306.79930876195</ele>
        <time>2021-11-28T12:16:52Z</time>
      </trkpt>
      <trkpt lat="43.45066" lon="6.60111">
        <ele>306.79917062819</ele>
        <time>2021-11-28T12:16:53Z</time>
      </trkpt>
      <trkpt lat="43.45067" lon="6.6011">
        <ele>306.79906333983</ele>
        <time>2021-11-28T12:16:54Z</time>
      </trkpt>
      <trkpt lat="43.45067" lon="6.60108">
        <ele>306.79897985607</ele>
        <time>2021-11-28T12:16:55Z</time>
      </trkpt>
      <trkpt lat="43.45066" lon="6.60105">
        <ele>305.79889067262</ele>
        <time>2021-11-28T12:16:57Z</time>
      </trkpt>
      <trkpt lat="43.45066" lon="6.60103">
        <ele>306.798837699</ele>
        <time>2021-11-28T12:16:58Z</time>
      </trkpt>
      <trkpt lat="43.45066" lon="6.60101">
        <ele>305.7987786904</ele>
        <time>2021-11-28T12:16:59Z</time>
      </trkpt>
      <trkpt lat="43.45066" lon="6.60099">
        <ele>305.7987280637</ele>
        <time>2021-11-28T12:17:00Z</time>
      </trkpt>
      <trkpt lat="43.45065" lon="6.60098">
        <ele>305.79872336984</ele>
        <time>2021-11-28T12:17:01Z</time>
      </trkpt>
      <trkpt lat="43.45065" lon="6.60097">
        <ele>305.7987042591</ele>
        <time>2021-11-28T12:17:02Z</time>
      </trkpt>
      <trkpt lat="43.45065" lon="6.60096">
        <ele>304.79866335541</ele>
        <time>2021-11-28T12:17:03Z</time>
      </trkpt>
      <trkpt lat="43.45065" lon="6.60095">
        <ele>304.79859663546</ele>
        <time>2021-11-28T12:17:04Z</time>
      </trkpt>
      <trkpt lat="43.45065" lon="6.60094">
        <ele>303.79854198545</ele>
        <time>2021-11-28T12:17:06Z</time>
      </trkpt>
      <trkpt lat="43.45065" lon="6.60093">
        <ele>303.79853863269</ele>
        <time>2021-11-28T12:17:07Z</time>
      </trkpt>
      <trkpt lat="43.45065" lon="6.60093">
        <ele>303.79855137318</ele>
        <time>2021-11-28T12:17:08Z</time>
      </trkpt>
      <trkpt lat="43.45064" lon="6.60092">
        <ele>303.79853460938</ele>
        <time>2021-11-28T12:17:10Z</time>
      </trkpt>
      <trkpt lat="43.45064" lon="6.60091">
        <ele>302.79849538207</ele>
        <time>2021-11-28T12:17:11Z</time>
      </trkpt>
      <trkpt lat="43.45064" lon="6.60089">
        <ele>301.79843905568</ele>
        <time>2021-11-28T12:17:13Z</time>
      </trkpt>
      <trkpt lat="43.45064" lon="6.60089">
        <ele>301.79845883697</ele>
        <time>2021-11-28T12:17:14Z</time>
      </trkpt>
      <trkpt lat="43.45064" lon="6.60088">
        <ele>301.79843704402</ele>
        <time>2021-11-28T12:17:15Z</time>
      </trkpt>
      <trkpt lat="43.45063" lon="6.60087">
        <ele>301.79842765629</ele>
        <time>2021-11-28T12:17:17Z</time>
      </trkpt>
      <trkpt lat="43.45063" lon="6.60087">
        <ele>300.79846319556</ele>
        <time>2021-11-28T12:17:18Z</time>
      </trkpt>
      <trkpt lat="43.45063" lon="6.60086">
        <ele>300.79843536764</ele>
        <time>2021-11-28T12:17:19Z</time>
      </trkpt>
      <trkpt lat="43.45064" lon="6.60082">
        <ele>300.79819530994</ele>
        <time>2021-11-28T12:17:21Z</time>
      </trkpt>
      <trkpt lat="43.45065" lon="6.60079">
        <ele>299.79793949425</ele>
        <time>2021-11-28T12:17:23Z</time>
      </trkpt>
      <trkpt lat="43.45068" lon="6.60078">
        <ele>300.79768166691</ele>
        <time>2021-11-28T12:17:25Z</time>
      </trkpt>
      <trkpt lat="43.45068" lon="6.60077">
        <ele>300.79761058837</ele>
        <time>2021-11-28T12:17:27Z</time>
      </trkpt>
      <trkpt lat="43.45068" lon="6.60076">
        <ele>301.79762668163</ele>
        <time>2021-11-28T12:17:29Z</time>
      </trkpt>
      <trkpt lat="43.45068" lon="6.60073">
        <ele>301.79748184234</ele>
        <time>2021-11-28T12:17:31Z</time>
      </trkpt>
      <trkpt lat="43.45068" lon="6.60071">
        <ele>301.79739835858</ele>
        <time>2021-11-28T12:17:33Z</time>
      </trkpt>
      <trkpt lat="43.45068" lon="6.60071">
        <ele>301.79744060338</ele>
        <time>2021-11-28T12:17:36Z</time>
      </trkpt>
      <trkpt lat="43.45068" lon="6.60067">
        <ele>300.79723675549</ele>
        <time>2021-11-28T12:17:38Z</time>
      </trkpt>
      <trkpt lat="43.45068" lon="6.60066">
        <ele>300.79716567695</ele>
        <time>2021-11-28T12:17:39Z</time>
      </trkpt>
      <trkpt lat="43.45069" lon="6.60065">
        <ele>300.79707917571</ele>
        <time>2021-11-28T12:17:40Z</time>
      </trkpt>
      <trkpt lat="43.4507" lon="6.60063">
        <ele>300.79690114409</ele>
        <time>2021-11-28T12:17:42Z</time>
      </trkpt>
      <trkpt lat="43.45071" lon="6.60063">
        <ele>300.7968602404</ele>
        <time>2021-11-28T12:17:43Z</time>
      </trkpt>
      <trkpt lat="43.45072" lon="6.60064">
        <ele>300.79682604223</ele>
        <time>2021-11-28T12:17:44Z</time>
      </trkpt>
      <trkpt lat="43.45072" lon="6.60065">
        <ele>300.79684213549</ele>
        <time>2021-11-28T12:17:49Z</time>
      </trkpt>
      <trkpt lat="43.45069" lon="6.60065">
        <ele>300.7970624119</ele>
        <time>2021-11-28T12:17:51Z</time>
      </trkpt>
      <trkpt lat="43.45069" lon="6.60067">
        <ele>300.7971046567</ele>
        <time>2021-11-28T12:17:53Z</time>
      </trkpt>
      <trkpt lat="43.4507" lon="6.60068">
        <ele>300.79714153707</ele>
        <time>2021-11-28T12:17:54Z</time>
      </trkpt>
      <trkpt lat="43.4507" lon="6.60069">
        <ele>300.7971650064</ele>
        <time>2021-11-28T12:17:55Z</time>
      </trkpt>
      <trkpt lat="43.45071" lon="6.60072">
        <ele>300.79721160978</ele>
        <time>2021-11-28T12:17:57Z</time>
      </trkpt>
      <trkpt lat="43.45071" lon="6.60073">
        <ele>300.79723072052</ele>
        <time>2021-11-28T12:17:58Z</time>
      </trkpt>
      <trkpt lat="43.45071" lon="6.60074">
        <ele>301.7972535193</ele>
        <time>2021-11-28T12:18:00Z</time>
      </trkpt>
      <trkpt lat="43.45073" lon="6.60075">
        <ele>299.79716768861</ele>
        <time>2021-11-28T12:18:02Z</time>
      </trkpt>
      <trkpt lat="43.45073" lon="6.60075">
        <ele>300.79718713462</ele>
        <time>2021-11-28T12:18:06Z</time>
      </trkpt>
      <trkpt lat="43.45072" lon="6.60075">
        <ele>300.79726424813</ele>
        <time>2021-11-28T12:18:08Z</time>
      </trkpt>
      <trkpt lat="43.45072" lon="6.60075">
        <ele>301.7972028926</ele>
        <time>2021-11-28T12:18:13Z</time>
      </trkpt>
      <trkpt lat="43.45073" lon="6.60075">
        <ele>301.79713583738</ele>
        <time>2021-11-28T12:18:14Z</time>
      </trkpt>
      <trkpt lat="43.45074" lon="6.60076">
        <ele>301.79711337388</ele>
        <time>2021-11-28T12:18:15Z</time>
      </trkpt>
      <trkpt lat="43.45075" lon="6.60076">
        <ele>301.79707682878</ele>
        <time>2021-11-28T12:18:16Z</time>
      </trkpt>
      <trkpt lat="43.45076" lon="6.60076">
        <ele>301.79697222263</ele>
        <time>2021-11-28T12:18:18Z</time>
      </trkpt>
      <trkpt lat="43.45076" lon="6.60075">
        <ele>302.79693567753</ele>
        <time>2021-11-28T12:18:19Z</time>
      </trkpt>
      <trkpt lat="43.45076" lon="6.60074">
        <ele>302.79689309746</ele>
        <time>2021-11-28T12:18:20Z</time>
      </trkpt>
      <trkpt lat="43.45076" lon="6.60073">
        <ele>301.79683744162</ele>
        <time>2021-11-28T12:18:21Z</time>
      </trkpt>
      <trkpt lat="43.45077" lon="6.60072">
        <ele>302.79673417658</ele>
        <time>2021-11-28T12:18:22Z</time>
      </trkpt>
      <trkpt lat="43.45077" lon="6.60071">
        <ele>302.79665169865</ele>
        <time>2021-11-28T12:18:23Z</time>
      </trkpt>
      <trkpt lat="43.45078" lon="6.6007">
        <ele>302.79655312747</ele>
        <time>2021-11-28T12:18:24Z</time>
      </trkpt>
      <trkpt lat="43.45079" lon="6.60069">
        <ele>303.79645891488</ele>
        <time>2021-11-28T12:18:25Z</time>
      </trkpt>
      <trkpt lat="43.4508" lon="6.60068">
        <ele>302.7963180989</ele>
        <time>2021-11-28T12:18:27Z</time>
      </trkpt>
      <trkpt lat="43.4508" lon="6.60066">
        <ele>303.79623696208</ele>
        <time>2021-11-28T12:18:28Z</time>
      </trkpt>
      <trkpt lat="43.45081" lon="6.60066">
        <ele>303.79615515471</ele>
        <time>2021-11-28T12:18:29Z</time>
      </trkpt>
      <trkpt lat="43.45081" lon="6.60065">
        <ele>303.79611894488</ele>
        <time>2021-11-28T12:18:30Z</time>
      </trkpt>
      <trkpt lat="43.45082" lon="6.60064">
        <ele>302.79595331848</ele>
        <time>2021-11-28T12:18:32Z</time>
      </trkpt>
      <trkpt lat="43.45082" lon="6.60064">
        <ele>302.79599455744</ele>
        <time>2021-11-28T12:18:33Z</time>
      </trkpt>
      <trkpt lat="43.45081" lon="6.60063">
        <ele>302.79602439702</ele>
        <time>2021-11-28T12:18:34Z</time>
      </trkpt>
      <trkpt lat="43.45082" lon="6.60062">
        <ele>300.79593521357</ele>
        <time>2021-11-28T12:18:36Z</time>
      </trkpt>
      <trkpt lat="43.45082" lon="6.60058">
        <ele>299.795790039</ele>
        <time>2021-11-28T12:18:38Z</time>
      </trkpt>
      <trkpt lat="43.45082" lon="6.60057">
        <ele>299.79570420831</ele>
        <time>2021-11-28T12:18:39Z</time>
      </trkpt>
      <trkpt lat="43.45083" lon="6.60057">
        <ele>299.79566498101</ele>
        <time>2021-11-28T12:18:40Z</time>
      </trkpt>
      <trkpt lat="43.45085" lon="6.60055">
        <ele>298.79542224109</ele>
        <time>2021-11-28T12:18:42Z</time>
      </trkpt>
      <trkpt lat="43.45085" lon="6.60054">
        <ele>299.79535652697</ele>
        <time>2021-11-28T12:18:43Z</time>
      </trkpt>
      <trkpt lat="43.45085" lon="6.60052">
        <ele>298.79528913647</ele>
        <time>2021-11-28T12:18:44Z</time>
      </trkpt>
      <trkpt lat="43.45086" lon="6.6005">
        <ele>299.79514463246</ele>
        <time>2021-11-28T12:18:46Z</time>
      </trkpt>
      <trkpt lat="43.45086" lon="6.60047">
        <ele>299.79500415176</ele>
        <time>2021-11-28T12:18:48Z</time>
      </trkpt>
      <trkpt lat="43.45086" lon="6.60046">
        <ele>298.79497632384</ele>
        <time>2021-11-28T12:18:49Z</time>
      </trkpt>
      <trkpt lat="43.45085" lon="6.60045">
        <ele>298.79498638213</ele>
        <time>2021-11-28T12:18:50Z</time>
      </trkpt>
      <trkpt lat="43.45085" lon="6.60045">
        <ele>297.79500146955</ele>
        <time>2021-11-28T12:18:52Z</time>
      </trkpt>
      <trkpt lat="43.45084" lon="6.60043">
        <ele>298.79499610513</ele>
        <time>2021-11-28T12:18:53Z</time>
      </trkpt>
      <trkpt lat="43.45084" lon="6.60043">
        <ele>298.79498068243</ele>
        <time>2021-11-28T12:18:54Z</time>
      </trkpt>
      <trkpt lat="43.45084" lon="6.60041">
        <ele>298.79492670298</ele>
        <time>2021-11-28T12:18:56Z</time>
      </trkpt>
      <trkpt lat="43.45084" lon="6.60041">
        <ele>298.79492670298</ele>
        <time>2021-11-28T12:18:58Z</time>
      </trkpt>
      <trkpt lat="43.45084" lon="6.60039">
        <ele>298.79486098886</ele>
        <time>2021-11-28T12:18:59Z</time>
      </trkpt>
      <trkpt lat="43.45084" lon="6.60038">
        <ele>297.7948153913</ele>
        <time>2021-11-28T12:19:01Z</time>
      </trkpt>
      <trkpt lat="43.45083" lon="6.60037">
        <ele>298.79481740296</ele>
        <time>2021-11-28T12:19:03Z</time>
      </trkpt>
      <trkpt lat="43.45083" lon="6.60036">
        <ele>298.79482645541</ele>
        <time>2021-11-28T12:19:04Z</time>
      </trkpt>
      <trkpt lat="43.45082" lon="6.60035">
        <ele>298.7948224321</ele>
        <time>2021-11-28T12:19:05Z</time>
      </trkpt>
      <trkpt lat="43.45083" lon="6.60034">
        <ele>298.79474196583</ele>
        <time>2021-11-28T12:19:07Z</time>
      </trkpt>
      <trkpt lat="43.45083" lon="6.60032">
        <ele>297.79467424005</ele>
        <time>2021-11-28T12:19:08Z</time>
      </trkpt>
      <trkpt lat="43.45083" lon="6.60031">
        <ele>297.79462227225</ele>
        <time>2021-11-28T12:19:09Z</time>
      </trkpt>
      <trkpt lat="43.45082" lon="6.60028">
        <ele>298.79451297224</ele>
        <time>2021-11-28T12:19:11Z</time>
      </trkpt>
      <trkpt lat="43.45083" lon="6.60026">
        <ele>298.79443854094</ele>
        <time>2021-11-28T12:19:13Z</time>
      </trkpt>
      <trkpt lat="43.45083" lon="6.60026">
        <ele>298.79439864308</ele>
        <time>2021-11-28T12:19:14Z</time>
      </trkpt>
      <trkpt lat="43.45084" lon="6.60024">
        <ele>298.79425682127</ele>
        <time>2021-11-28T12:19:16Z</time>
      </trkpt>
      <trkpt lat="43.45085" lon="6.60023">
        <ele>299.79415187985</ele>
        <time>2021-11-28T12:19:18Z</time>
      </trkpt>
      <trkpt lat="43.45085" lon="6.60023">
        <ele>301.79408080131</ele>
        <time>2021-11-28T12:19:22Z</time>
      </trkpt>
      <trkpt lat="43.45086" lon="6.60022">
        <ele>302.79402413964</ele>
        <time>2021-11-28T12:19:25Z</time>
      </trkpt>
      <trkpt lat="43.45086" lon="6.60021">
        <ele>303.7939728424</ele>
        <time>2021-11-28T12:19:32Z</time>
      </trkpt>
      <trkpt lat="43.45086" lon="6.6002">
        <ele>303.79392120987</ele>
        <time>2021-11-28T12:19:33Z</time>
      </trkpt>
      <trkpt lat="43.45087" lon="6.60019">
        <ele>302.79384107888</ele>
        <time>2021-11-28T12:19:35Z</time>
      </trkpt>
      <trkpt lat="43.45088" lon="6.60019">
        <ele>302.79369355738</ele>
        <time>2021-11-28T12:19:37Z</time>
      </trkpt>
      <trkpt lat="43.45088" lon="6.60018">
        <ele>303.79370965064</ele>
        <time>2021-11-28T12:19:43Z</time>
      </trkpt>
      <trkpt lat="43.45087" lon="6.60017">
        <ele>304.79370830953</ele>
        <time>2021-11-28T12:19:52Z</time>
      </trkpt>
      <trkpt lat="43.45088" lon="6.60015">
        <ele>305.79358995706</ele>
        <time>2021-11-28T12:19:53Z</time>
      </trkpt>
      <trkpt lat="43.45088" lon="6.60014">
        <ele>305.7935359776</ele>
        <time>2021-11-28T12:19:54Z</time>
      </trkpt>
      <trkpt lat="43.45088" lon="6.60013">
        <ele>305.79351586103</ele>
        <time>2021-11-28T12:19:58Z</time>
      </trkpt>
      <trkpt lat="43.45087" lon="6.60011">
        <ele>305.79347663373</ele>
        <time>2021-11-28T12:19:59Z</time>
      </trkpt>
      <trkpt lat="43.45088" lon="6.60011">
        <ele>305.7934447825</ele>
        <time>2021-11-28T12:20:00Z</time>
      </trkpt>
      <trkpt lat="43.45087" lon="6.6001">
        <ele>305.79345785826</ele>
        <time>2021-11-28T12:20:02Z</time>
      </trkpt>
      <trkpt lat="43.45086" lon="6.60009">
        <ele>305.79347261041</ele>
        <time>2021-11-28T12:20:09Z</time>
      </trkpt>
      <trkpt lat="43.45086" lon="6.60008">
        <ele>305.79344880581</ele>
        <time>2021-11-28T12:20:11Z</time>
      </trkpt>
      <trkpt lat="43.45086" lon="6.60008">
        <ele>306.79345919937</ele>
        <time>2021-11-28T12:20:15Z</time>
      </trkpt>
      <trkpt lat="43.45085" lon="6.60008">
        <ele>304.79349440336</ele>
        <time>2021-11-28T12:20:18Z</time>
      </trkpt>
      <trkpt lat="43.45084" lon="6.60008">
        <ele>303.79355978221</ele>
        <time>2021-11-28T12:20:19Z</time>
      </trkpt>
      <trkpt lat="43.45084" lon="6.60008">
        <ele>305.79358693957</ele>
        <time>2021-11-28T12:20:21Z</time>
      </trkpt>
      <trkpt lat="43.45084" lon="6.60007">
        <ele>304.7935584411</ele>
        <time>2021-11-28T12:20:22Z</time>
      </trkpt>
      <trkpt lat="43.45084" lon="6.60006">
        <ele>304.79352323711</ele>
        <time>2021-11-28T12:20:23Z</time>
      </trkpt>
      <trkpt lat="43.45083" lon="6.60004">
        <ele>304.79353195429</ele>
        <time>2021-11-28T12:20:24Z</time>
      </trkpt>
      <trkpt lat="43.45082" lon="6.60003">
        <ele>305.79356078804</ele>
        <time>2021-11-28T12:20:25Z</time>
      </trkpt>
      <trkpt lat="43.45082" lon="6.60002">
        <ele>305.79354469478</ele>
        <time>2021-11-28T12:20:26Z</time>
      </trkpt>
      <trkpt lat="43.45082" lon="6.6">
        <ele>305.7934615463</ele>
        <time>2021-11-28T12:20:27Z</time>
      </trkpt>
      <trkpt lat="43.45082" lon="6.59999">
        <ele>305.79340454936</ele>
        <time>2021-11-28T12:20:28Z</time>
      </trkpt>
      <trkpt lat="43.45082" lon="6.59999">
        <ele>305.79336431623</ele>
        <time>2021-11-28T12:20:29Z</time>
      </trkpt>
      <trkpt lat="43.45083" lon="6.59998">
        <ele>305.79331167787</ele>
        <time>2021-11-28T12:20:30Z</time>
      </trkpt>
      <trkpt lat="43.45083" lon="6.59998">
        <ele>306.7932831794</ele>
        <time>2021-11-28T12:20:36Z</time>
      </trkpt>
      <trkpt lat="43.45082" lon="6.59996">
        <ele>306.793252334</ele>
        <time>2021-11-28T12:20:37Z</time>
      </trkpt>
      <trkpt lat="43.45083" lon="6.59996">
        <ele>306.7931695208</ele>
        <time>2021-11-28T12:20:43Z</time>
      </trkpt>
      <trkpt lat="43.45084" lon="6.59995">
        <ele>308.79309710115</ele>
        <time>2021-11-28T12:20:45Z</time>
      </trkpt>
      <trkpt lat="43.45084" lon="6.59994">
        <ele>309.79303976893</ele>
        <time>2021-11-28T12:22:18Z</time>
      </trkpt>
      <trkpt lat="43.45085" lon="6.59993">
        <ele>310.79297740757</ele>
        <time>2021-11-28T12:22:21Z</time>
      </trkpt>
      <trkpt lat="43.45085" lon="6.59993">
        <ele>311.79295025021</ele>
        <time>2021-11-28T12:22:24Z</time>
      </trkpt>
      <trkpt lat="43.45084" lon="6.59992">
        <ele>311.79294153303</ele>
        <time>2021-11-28T12:22:25Z</time>
      </trkpt>
      <trkpt lat="43.45084" lon="6.59991">
        <ele>312.79290331155</ele>
        <time>2021-11-28T12:22:26Z</time>
      </trkpt>
      <trkpt lat="43.45085" lon="6.5999">
        <ele>312.79283893853</ele>
        <time>2021-11-28T12:22:27Z</time>
      </trkpt>
      <trkpt lat="43.45085" lon="6.5999">
        <ele>312.79280440509</ele>
        <time>2021-11-28T12:22:32Z</time>
      </trkpt>
      <trkpt lat="43.45084" lon="6.59989">
        <ele>312.79279233515</ele>
        <time>2021-11-28T12:22:34Z</time>
      </trkpt>
      <trkpt lat="43.45084" lon="6.59989">
        <ele>314.79284698516</ele>
        <time>2021-11-28T12:22:53Z</time>
      </trkpt>
      <trkpt lat="43.45084" lon="6.59989">
        <ele>315.79284564406</ele>
        <time>2021-11-28T12:23:19Z</time>
      </trkpt>
      <trkpt lat="43.45087" lon="6.59988">
        <ele>316.79257842898</ele>
        <time>2021-11-28T12:23:20Z</time>
      </trkpt>
      <trkpt lat="43.45087" lon="6.59989">
        <ele>318.79257105291</ele>
        <time>2021-11-28T12:23:21Z</time>
      </trkpt>
      <trkpt lat="43.45088" lon="6.5999">
        <ele>318.79252746701</ele>
        <time>2021-11-28T12:23:23Z</time>
      </trkpt>
      <trkpt lat="43.45089" lon="6.59989">
        <ele>318.79244733602</ele>
        <time>2021-11-28T12:23:32Z</time>
      </trkpt>
      <trkpt lat="43.4509" lon="6.59989">
        <ele>319.7923604995</ele>
        <time>2021-11-28T12:23:33Z</time>
      </trkpt>
      <trkpt lat="43.45091" lon="6.59988">
        <ele>318.79226461053</ele>
        <time>2021-11-28T12:23:34Z</time>
      </trkpt>
      <trkpt lat="43.45091" lon="6.59987">
        <ele>318.79217911512</ele>
        <time>2021-11-28T12:23:35Z</time>
      </trkpt>
      <trkpt lat="43.45092" lon="6.59988">
        <ele>319.79215631634</ele>
        <time>2021-11-28T12:23:36Z</time>
      </trkpt>
      <trkpt lat="43.45092" lon="6.59987">
        <ele>321.7921455875</ele>
        <time>2021-11-28T12:23:40Z</time>
      </trkpt>
      <trkpt lat="43.45091" lon="6.59987">
        <ele>321.79220426083</ele>
        <time>2021-11-28T12:23:41Z</time>
      </trkpt>
      <trkpt lat="43.4509" lon="6.59987">
        <ele>320.79226461053</ele>
        <time>2021-11-28T12:23:42Z</time>
      </trkpt>
      <trkpt lat="43.4509" lon="6.59987">
        <ele>320.79229813814</ele>
        <time>2021-11-28T12:23:43Z</time>
      </trkpt>
      <trkpt lat="43.45089" lon="6.59987">
        <ele>321.79236117005</ele>
        <time>2021-11-28T12:23:44Z</time>
      </trkpt>
      <trkpt lat="43.45089" lon="6.59987">
        <ele>321.792382963</ele>
        <time>2021-11-28T12:23:47Z</time>
      </trkpt>
      <trkpt lat="43.45088" lon="6.59986">
        <ele>323.79245202988</ele>
        <time>2021-11-28T12:23:48Z</time>
      </trkpt>
      <trkpt lat="43.45087" lon="6.59987">
        <ele>323.79253517836</ele>
        <time>2021-11-28T12:23:50Z</time>
      </trkpt>
      <trkpt lat="43.45087" lon="6.59987">
        <ele>323.79257105291</ele>
        <time>2021-11-28T12:23:53Z</time>
      </trkpt>
      <trkpt lat="43.45085" lon="6.59988">
        <ele>324.79270348698</ele>
        <time>2021-11-28T12:23:54Z</time>
      </trkpt>
      <trkpt lat="43.45084" lon="6.59988">
        <ele>325.79278395325</ele>
        <time>2021-11-28T12:23:56Z</time>
      </trkpt>
      <trkpt lat="43.45084" lon="6.59989">
        <ele>325.79284162074</ele>
        <time>2021-11-28T12:23:57Z</time>
      </trkpt>
      <trkpt lat="43.45083" lon="6.59988">
        <ele>325.79290867597</ele>
        <time>2021-11-28T12:23:58Z</time>
      </trkpt>
      <trkpt lat="43.45083" lon="6.59989">
        <ele>324.79296131432</ele>
        <time>2021-11-28T12:23:59Z</time>
      </trkpt>
      <trkpt lat="43.45082" lon="6.5999">
        <ele>324.79300925881</ele>
        <time>2021-11-28T12:24:00Z</time>
      </trkpt>
      <trkpt lat="43.45082" lon="6.5999">
        <ele>324.7930753082</ele>
        <time>2021-11-28T12:24:03Z</time>
      </trkpt>
      <trkpt lat="43.45083" lon="6.59989">
        <ele>323.79291538149</ele>
        <time>2021-11-28T12:24:04Z</time>
      </trkpt>
      <trkpt lat="43.45083" lon="6.59988">
        <ele>323.79287414253</ele>
        <time>2021-11-28T12:24:05Z</time>
      </trkpt>
      <trkpt lat="43.45083" lon="6.59987">
        <ele>323.79280842841</ele>
        <time>2021-11-28T12:24:07Z</time>
      </trkpt>
      <trkpt lat="43.45083" lon="6.59986">
        <ele>324.79280172288</ele>
        <time>2021-11-28T12:24:08Z</time>
      </trkpt>
      <trkpt lat="43.45084" lon="6.59985">
        <ele>324.79271924496</ele>
        <time>2021-11-28T12:24:14Z</time>
      </trkpt>
      <trkpt lat="43.45084" lon="6.59984">
        <ele>324.79261765629</ele>
        <time>2021-11-28T12:24:15Z</time>
      </trkpt>
      <trkpt lat="43.45085" lon="6.59984">
        <ele>323.79256032407</ele>
        <time>2021-11-28T12:24:16Z</time>
      </trkpt>
      <trkpt lat="43.45085" lon="6.59984">
        <ele>322.79252109677</ele>
        <time>2021-11-28T12:24:19Z</time>
      </trkpt>
      <trkpt lat="43.45085" lon="6.59985">
        <ele>323.79263140261</ele>
        <time>2021-11-28T12:24:20Z</time>
      </trkpt>
      <trkpt lat="43.45084" lon="6.59985">
        <ele>323.79268169403</ele>
        <time>2021-11-28T12:24:21Z</time>
      </trkpt>
      <trkpt lat="43.45084" lon="6.59984">
        <ele>324.79267297685</ele>
        <time>2021-11-28T12:24:22Z</time>
      </trkpt>
      <trkpt lat="43.45083" lon="6.59983">
        <ele>324.79266861826</ele>
        <time>2021-11-28T12:24:23Z</time>
      </trkpt>
      <trkpt lat="43.45082" lon="6.59982">
        <ele>325.79269510508</ele>
        <time>2021-11-28T12:24:25Z</time>
      </trkpt>
      <trkpt lat="43.45082" lon="6.59982">
        <ele>325.79272930324</ele>
        <time>2021-11-28T12:24:31Z</time>
      </trkpt>
      <trkpt lat="43.45081" lon="6.5998">
        <ele>325.79271823913</ele>
        <time>2021-11-28T12:24:32Z</time>
      </trkpt>
      <trkpt lat="43.45081" lon="6.59981">
        <ele>325.79275981337</ele>
        <time>2021-11-28T12:24:33Z</time>
      </trkpt>
      <trkpt lat="43.4508" lon="6.59982">
        <ele>325.79283558577</ele>
        <time>2021-11-28T12:24:34Z</time>
      </trkpt>
      <trkpt lat="43.4508" lon="6.59982">
        <ele>325.79286240786</ele>
        <time>2021-11-28T12:24:35Z</time>
      </trkpt>
      <trkpt lat="43.45079" lon="6.59981">
        <ele>325.79288487136</ele>
        <time>2021-11-28T12:24:36Z</time>
      </trkpt>
      <trkpt lat="43.45079" lon="6.59981">
        <ele>325.79291236401</ele>
        <time>2021-11-28T12:24:53Z</time>
      </trkpt>
      <trkpt lat="43.45078" lon="6.59979">
        <ele>326.79291437566</ele>
        <time>2021-11-28T12:24:54Z</time>
      </trkpt>
      <trkpt lat="43.45078" lon="6.59978">
        <ele>325.79292108119</ele>
        <time>2021-11-28T12:24:55Z</time>
      </trkpt>
      <trkpt lat="43.45077" lon="6.59979">
        <ele>323.79298344254</ele>
        <time>2021-11-28T12:24:59Z</time>
      </trkpt>
      <trkpt lat="43.45077" lon="6.59979">
        <ele>324.79303205758</ele>
        <time>2021-11-28T12:25:08Z</time>
      </trkpt>
      <trkpt lat="43.45077" lon="6.59978">
        <ele>325.7929251045</ele>
        <time>2021-11-28T12:25:09Z</time>
      </trkpt>
      <trkpt lat="43.45078" lon="6.59977">
        <ele>325.7928872183</ele>
        <time>2021-11-28T12:25:10Z</time>
      </trkpt>
      <trkpt lat="43.45077" lon="6.59977">
        <ele>325.7928942591</ele>
        <time>2021-11-28T12:25:11Z</time>
      </trkpt>
      <trkpt lat="43.45077" lon="6.59975">
        <ele>325.79285100847</ele>
        <time>2021-11-28T12:25:13Z</time>
      </trkpt>
      <trkpt lat="43.45077" lon="6.59974">
        <ele>325.79279803485</ele>
        <time>2021-11-28T12:25:18Z</time>
      </trkpt>
      <trkpt lat="43.45078" lon="6.59975">
        <ele>324.79273030907</ele>
        <time>2021-11-28T12:25:19Z</time>
      </trkpt>
      <trkpt lat="43.45078" lon="6.59976">
        <ele>324.7927903235</ele>
        <time>2021-11-28T12:25:26Z</time>
      </trkpt>
      <trkpt lat="43.45077" lon="6.59973">
        <ele>325.79280440509</ele>
        <time>2021-11-28T12:25:27Z</time>
      </trkpt>
      <trkpt lat="43.45076" lon="6.59973">
        <ele>326.792857714</ele>
        <time>2021-11-28T12:25:28Z</time>
      </trkpt>
      <trkpt lat="43.45075" lon="6.59974">
        <ele>324.79293650389</ele>
        <time>2021-11-28T12:25:30Z</time>
      </trkpt>
      <trkpt lat="43.45075" lon="6.59973">
        <ele>324.79296835512</ele>
        <time>2021-11-28T12:25:32Z</time>
      </trkpt>
      <trkpt lat="43.45074" lon="6.59974">
        <ele>325.79303909838</ele>
        <time>2021-11-28T12:25:34Z</time>
      </trkpt>
      <trkpt lat="43.45073" lon="6.59973">
        <ele>327.79305653274</ele>
        <time>2021-11-28T12:25:36Z</time>
      </trkpt>
      <trkpt lat="43.45073" lon="6.59973">
        <ele>327.79306826741</ele>
        <time>2021-11-28T12:25:37Z</time>
      </trkpt>
      <trkpt lat="43.45072" lon="6.59972">
        <ele>328.7931202352</ele>
        <time>2021-11-28T12:25:40Z</time>
      </trkpt>
      <trkpt lat="43.45073" lon="6.59973">
        <ele>330.79306793213</ele>
        <time>2021-11-28T12:25:53Z</time>
      </trkpt>
      <trkpt lat="43.45074" lon="6.59973">
        <ele>330.79303675145</ele>
        <time>2021-11-28T12:25:54Z</time>
      </trkpt>
      <trkpt lat="43.45074" lon="6.59974">
        <ele>331.79299852997</ele>
        <time>2021-11-28T12:25:56Z</time>
      </trkpt>
      <trkpt lat="43.45074" lon="6.59973">
        <ele>333.79298042506</ele>
        <time>2021-11-28T12:26:04Z</time>
      </trkpt>
      <trkpt lat="43.45075" lon="6.59972">
        <ele>333.79293113947</ele>
        <time>2021-11-28T12:26:07Z</time>
      </trkpt>
      <trkpt lat="43.45075" lon="6.59973">
        <ele>333.79290834069</ele>
        <time>2021-11-28T12:26:08Z</time>
      </trkpt>
      <trkpt lat="43.45075" lon="6.59974">
        <ele>333.79295092076</ele>
        <time>2021-11-28T12:26:09Z</time>
      </trkpt>
      <trkpt lat="43.45075" lon="6.59975">
        <ele>334.79300691187</ele>
        <time>2021-11-28T12:26:10Z</time>
      </trkpt>
      <trkpt lat="43.45076" lon="6.59974">
        <ele>334.79292275757</ele>
        <time>2021-11-28T12:26:22Z</time>
      </trkpt>
      <trkpt lat="43.45076" lon="6.59974">
        <ele>334.79286173731</ele>
        <time>2021-11-28T12:26:24Z</time>
      </trkpt>
      <trkpt lat="43.45077" lon="6.59973">
        <ele>334.79279937595</ele>
        <time>2021-11-28T12:26:27Z</time>
      </trkpt>
      <trkpt lat="43.45077" lon="6.59973">
        <ele>333.79275411367</ele>
        <time>2021-11-28T12:26:29Z</time>
      </trkpt>
      <trkpt lat="43.45076" lon="6.59972">
        <ele>332.79279837012</ele>
        <time>2021-11-28T12:26:39Z</time>
      </trkpt>
      <trkpt lat="43.45077" lon="6.59971">
        <ele>333.79267297685</ele>
        <time>2021-11-28T12:26:41Z</time>
      </trkpt>
      <trkpt lat="43.45077" lon="6.59972">
        <ele>332.79270918667</ele>
        <time>2021-11-28T12:26:45Z</time>
      </trkpt>
      <trkpt lat="43.45077" lon="6.59973">
        <ele>336.79279267043</ele>
        <time>2021-11-28T12:26:54Z</time>
      </trkpt>
      <trkpt lat="43.45076" lon="6.59973">
        <ele>335.7928506732</ele>
        <time>2021-11-28T12:26:57Z</time>
      </trkpt>
      <trkpt lat="43.45076" lon="6.59973">
        <ele>335.79280876368</ele>
        <time>2021-11-28T12:27:00Z</time>
      </trkpt>
      <trkpt lat="43.45078" lon="6.59971">
        <ele>334.79263073206</ele>
        <time>2021-11-28T12:27:02Z</time>
      </trkpt>
      <trkpt lat="43.45078" lon="6.59971">
        <ele>334.79259318113</ele>
        <time>2021-11-28T12:27:03Z</time>
      </trkpt>
      <trkpt lat="43.45078" lon="6.5997">
        <ele>335.79256635904</ele>
        <time>2021-11-28T12:27:05Z</time>
      </trkpt>
      <trkpt lat="43.45077" lon="6.5997">
        <ele>335.79261229187</ele>
        <time>2021-11-28T12:27:07Z</time>
      </trkpt>
      <trkpt lat="43.45077" lon="6.5997">
        <ele>335.79261229187</ele>
        <time>2021-11-28T12:27:12Z</time>
      </trkpt>
      <trkpt lat="43.45077" lon="6.59968">
        <ele>334.79257775843</ele>
        <time>2021-11-28T12:27:13Z</time>
      </trkpt>
      <trkpt lat="43.45075" lon="6.59967">
        <ele>333.79265051335</ele>
        <time>2021-11-28T12:27:14Z</time>
      </trkpt>
      <trkpt lat="43.45075" lon="6.59967">
        <ele>334.7927101925</ele>
        <time>2021-11-28T12:27:15Z</time>
      </trkpt>
      <trkpt lat="43.45074" lon="6.59966">
        <ele>338.79273064435</ele>
        <time>2021-11-28T12:27:23Z</time>
      </trkpt>
      <trkpt lat="43.45074" lon="6.59966">
        <ele>338.79269745201</ele>
        <time>2021-11-28T12:27:24Z</time>
      </trkpt>
      <trkpt lat="43.45074" lon="6.59965">
        <ele>339.79265151918</ele>
        <time>2021-11-28T12:27:32Z</time>
      </trkpt>
      <trkpt lat="43.45075" lon="6.59965">
        <ele>340.79263978451</ele>
        <time>2021-11-28T12:27:43Z</time>
      </trkpt>
      <trkpt lat="43.45076" lon="6.59964">
        <ele>341.79250332713</ele>
        <time>2021-11-28T12:27:44Z</time>
      </trkpt>
      <trkpt lat="43.45077" lon="6.59965">
        <ele>343.79246979952</ele>
        <time>2021-11-28T12:27:53Z</time>
      </trkpt>
      <trkpt lat="43.45077" lon="6.59964">
        <ele>345.79238899797</ele>
        <time>2021-11-28T12:27:54Z</time>
      </trkpt>
      <trkpt lat="43.45078" lon="6.59965">
        <ele>345.79237893969</ele>
        <time>2021-11-28T12:27:55Z</time>
      </trkpt>
      <trkpt lat="43.45078" lon="6.59965">
        <ele>345.79236821085</ele>
        <time>2021-11-28T12:27:56Z</time>
      </trkpt>
      <trkpt lat="43.45079" lon="6.59966">
        <ele>345.79234675318</ele>
        <time>2021-11-28T12:27:57Z</time>
      </trkpt>
      <trkpt lat="43.45079" lon="6.59967">
        <ele>345.79234340042</ele>
        <time>2021-11-28T12:27:58Z</time>
      </trkpt>
      <trkpt lat="43.45079" lon="6.59967">
        <ele>345.79231054336</ele>
        <time>2021-11-28T12:28:01Z</time>
      </trkpt>
      <trkpt lat="43.4508" lon="6.59966">
        <ele>346.79219554365</ele>
        <time>2021-11-28T12:28:02Z</time>
      </trkpt>
      <trkpt lat="43.4508" lon="6.59965">
        <ele>347.79218146205</ele>
        <time>2021-11-28T12:28:05Z</time>
      </trkpt>
      <trkpt lat="43.4508" lon="6.59964">
        <ele>347.7921372056</ele>
        <time>2021-11-28T12:28:06Z</time>
      </trkpt>
      <trkpt lat="43.4508" lon="6.59963">
        <ele>348.79211373627</ele>
        <time>2021-11-28T12:28:10Z</time>
      </trkpt>
      <trkpt lat="43.4508" lon="6.59961">
        <ele>348.79201449454</ele>
        <time>2021-11-28T12:28:11Z</time>
      </trkpt>
      <trkpt lat="43.4508" lon="6.5996">
        <ele>349.7920473516</ele>
        <time>2021-11-28T12:28:12Z</time>
      </trkpt>
      <trkpt lat="43.45079" lon="6.5996">
        <ele>349.79207015038</ele>
        <time>2021-11-28T12:28:13Z</time>
      </trkpt>
      <trkpt lat="43.45079" lon="6.59959">
        <ele>349.79206679761</ele>
        <time>2021-11-28T12:28:14Z</time>
      </trkpt>
      <trkpt lat="43.45079" lon="6.59958">
        <ele>349.79203025252</ele>
        <time>2021-11-28T12:28:15Z</time>
      </trkpt>
      <trkpt lat="43.45079" lon="6.59957">
        <ele>350.79198163748</ele>
        <time>2021-11-28T12:28:16Z</time>
      </trkpt>
      <trkpt lat="43.45079" lon="6.59956">
        <ele>349.79193067551</ele>
        <time>2021-11-28T12:28:17Z</time>
      </trkpt>
      <trkpt lat="43.45079" lon="6.59955">
        <ele>349.79185892642</ele>
        <time>2021-11-28T12:28:18Z</time>
      </trkpt>
      <trkpt lat="43.45079" lon="6.59954">
        <ele>349.79182372242</ele>
        <time>2021-11-28T12:28:19Z</time>
      </trkpt>
      <trkpt lat="43.45079" lon="6.59953">
        <ele>350.79179187119</ele>
        <time>2021-11-28T12:28:20Z</time>
      </trkpt>
      <trkpt lat="43.45079" lon="6.59952">
        <ele>350.79174426198</ele>
        <time>2021-11-28T12:28:22Z</time>
      </trkpt>
      <trkpt lat="43.45079" lon="6.59951">
        <ele>351.79172313958</ele>
        <time>2021-11-28T12:28:25Z</time>
      </trkpt>
      <trkpt lat="43.4508" lon="6.59951">
        <ele>352.79161886871</ele>
        <time>2021-11-28T12:28:26Z</time>
      </trkpt>
      <trkpt lat="43.4508" lon="6.5995">
        <ele>352.79158098251</ele>
        <time>2021-11-28T12:28:27Z</time>
      </trkpt>
      <trkpt lat="43.4508" lon="6.59949">
        <ele>352.79152297974</ele>
        <time>2021-11-28T12:28:28Z</time>
      </trkpt>
      <trkpt lat="43.45081" lon="6.59948">
        <ele>352.79145994782</ele>
        <time>2021-11-28T12:28:30Z</time>
      </trkpt>
      <trkpt lat="43.45081" lon="6.59947">
        <ele>352.79142574966</ele>
        <time>2021-11-28T12:28:31Z</time>
      </trkpt>
      <trkpt lat="43.45081" lon="6.59946">
        <ele>352.79136942327</ele>
        <time>2021-11-28T12:28:32Z</time>
      </trkpt>
      <trkpt lat="43.45082" lon="6.59946">
        <ele>352.7912973389</ele>
        <time>2021-11-28T12:28:33Z</time>
      </trkpt>
      <trkpt lat="43.45083" lon="6.59946">
        <ele>353.79122357816</ele>
        <time>2021-11-28T12:28:34Z</time>
      </trkpt>
      <trkpt lat="43.45083" lon="6.59945">
        <ele>353.79115987569</ele>
        <time>2021-11-28T12:28:35Z</time>
      </trkpt>
      <trkpt lat="43.45084" lon="6.59945">
        <ele>353.791109249</ele>
        <time>2021-11-28T12:28:36Z</time>
      </trkpt>
      <trkpt lat="43.45084" lon="6.59944">
        <ele>353.79103682935</ele>
        <time>2021-11-28T12:28:37Z</time>
      </trkpt>
      <trkpt lat="43.45085" lon="6.59944">
        <ele>353.79097212106</ele>
        <time>2021-11-28T12:28:38Z</time>
      </trkpt>
      <trkpt lat="43.45085" lon="6.59943">
        <ele>353.79095200449</ele>
        <time>2021-11-28T12:28:47Z</time>
      </trkpt>
      <trkpt lat="43.45085" lon="6.59941">
        <ele>353.79084605724</ele>
        <time>2021-11-28T12:28:48Z</time>
      </trkpt>
      <trkpt lat="43.45085" lon="6.59942">
        <ele>353.7908577919</ele>
        <time>2021-11-28T12:29:11Z</time>
      </trkpt>
      <trkpt lat="43.45086" lon="6.59939">
        <ele>352.79068579525</ele>
        <time>2021-11-28T12:29:12Z</time>
      </trkpt>
      <trkpt lat="43.45086" lon="6.59938">
        <ele>352.79066936672</ele>
        <time>2021-11-28T12:29:13Z</time>
      </trkpt>
      <trkpt lat="43.45086" lon="6.59937">
        <ele>352.79063818604</ele>
        <time>2021-11-28T12:29:17Z</time>
      </trkpt>
      <trkpt lat="43.45086" lon="6.59936">
        <ele>351.7905741483</ele>
        <time>2021-11-28T12:29:18Z</time>
      </trkpt>
      <trkpt lat="43.45086" lon="6.59936">
        <ele>351.79051245749</ele>
        <time>2021-11-28T12:29:19Z</time>
      </trkpt>
      <trkpt lat="43.45087" lon="6.59936">
        <ele>351.79048060626</ele>
        <time>2021-11-28T12:29:24Z</time>
      </trkpt>
      <trkpt lat="43.45088" lon="6.59937">
        <ele>350.79045948386</ele>
        <time>2021-11-28T12:29:25Z</time>
      </trkpt>
      <trkpt lat="43.45088" lon="6.59936">
        <ele>350.79041321576</ele>
        <time>2021-11-28T12:29:34Z</time>
      </trkpt>
      <trkpt lat="43.45088" lon="6.59935">
        <ele>350.79040583968</ele>
        <time>2021-11-28T12:29:35Z</time>
      </trkpt>
      <trkpt lat="43.45087" lon="6.59935">
        <ele>350.79044339061</ele>
        <time>2021-11-28T12:29:36Z</time>
      </trkpt>
      <trkpt lat="43.45086" lon="6.59935">
        <ele>349.79050742835</ele>
        <time>2021-11-28T12:29:38Z</time>
      </trkpt>
      <trkpt lat="43.45085" lon="6.59934">
        <ele>347.79052788019</ele>
        <time>2021-11-28T12:29:43Z</time>
      </trkpt>
      <trkpt lat="43.45085" lon="6.59934">
        <ele>346.79055604339</ele>
        <time>2021-11-28T12:29:44Z</time>
      </trkpt>
      <trkpt lat="43.45084" lon="6.59932">
        <ele>346.79057347775</ele>
        <time>2021-11-28T12:29:45Z</time>
      </trkpt>
      <trkpt lat="43.45084" lon="6.59932">
        <ele>346.7905151397</ele>
        <time>2021-11-28T12:29:46Z</time>
      </trkpt>
      <trkpt lat="43.45085" lon="6.59931">
        <ele>346.79046585411</ele>
        <time>2021-11-28T12:29:47Z</time>
      </trkpt>
      <trkpt lat="43.45085" lon="6.59931">
        <ele>346.79042763263</ele>
        <time>2021-11-28T12:29:48Z</time>
      </trkpt>
      <trkpt lat="43.45086" lon="6.5993">
        <ele>345.7903508544</ele>
        <time>2021-11-28T12:29:49Z</time>
      </trkpt>
      <trkpt lat="43.45087" lon="6.59929">
        <ele>345.79025194794</ele>
        <time>2021-11-28T12:29:50Z</time>
      </trkpt>
      <trkpt lat="43.45087" lon="6.59929">
        <ele>345.79017584026</ele>
        <time>2021-11-28T12:29:52Z</time>
      </trkpt>
      <trkpt lat="43.45088" lon="6.59929">
        <ele>344.79011951387</ele>
        <time>2021-11-28T12:29:55Z</time>
      </trkpt>
      <trkpt lat="43.45088" lon="6.59928">
        <ele>343.79006084055</ele>
        <time>2021-11-28T12:29:56Z</time>
      </trkpt>
      <trkpt lat="43.45089" lon="6.59928">
        <ele>342.78996562213</ele>
        <time>2021-11-28T12:29:57Z</time>
      </trkpt>
      <trkpt lat="43.4509" lon="6.59926">
        <ele>342.78987040371</ele>
        <time>2021-11-28T12:29:58Z</time>
      </trkpt>
      <trkpt lat="43.4509" lon="6.59925">
        <ele>342.78978926688</ele>
        <time>2021-11-28T12:29:59Z</time>
      </trkpt>
      <trkpt lat="43.45091" lon="6.59924">
        <ele>342.78966152668</ele>
        <time>2021-11-28T12:30:00Z</time>
      </trkpt>
      <trkpt lat="43.45092" lon="6.59923">
        <ele>341.78956228495</ele>
        <time>2021-11-28T12:30:01Z</time>
      </trkpt>
      <trkpt lat="43.45093" lon="6.59921">
        <ele>341.78943320364</ele>
        <time>2021-11-28T12:30:02Z</time>
      </trkpt>
      <trkpt lat="43.45093" lon="6.59919">
        <ele>341.7893114984</ele>
        <time>2021-11-28T12:30:03Z</time>
      </trkpt>
      <trkpt lat="43.45093" lon="6.59919">
        <ele>341.78926992416</ele>
        <time>2021-11-28T12:30:04Z</time>
      </trkpt>
      <trkpt lat="43.45094" lon="6.59918">
        <ele>340.78923203796</ele>
        <time>2021-11-28T12:30:05Z</time>
      </trkpt>
      <trkpt lat="43.45094" lon="6.59917">
        <ele>340.78913950175</ele>
        <time>2021-11-28T12:30:06Z</time>
      </trkpt>
      <trkpt lat="43.45094" lon="6.59916">
        <ele>339.78915023059</ele>
        <time>2021-11-28T12:30:09Z</time>
      </trkpt>
      <trkpt lat="43.45094" lon="6.59916">
        <ele>339.78907646984</ele>
        <time>2021-11-28T12:30:10Z</time>
      </trkpt>
      <trkpt lat="43.45094" lon="6.59915">
        <ele>339.78903388977</ele>
        <time>2021-11-28T12:30:12Z</time>
      </trkpt>
      <trkpt lat="43.45094" lon="6.59914">
        <ele>339.78900505602</ele>
        <time>2021-11-28T12:30:13Z</time>
      </trkpt>
      <trkpt lat="43.45095" lon="6.59912">
        <ele>339.78891654313</ele>
        <time>2021-11-28T12:30:14Z</time>
      </trkpt>
      <trkpt lat="43.45095" lon="6.5991">
        <ele>339.78875527531</ele>
        <time>2021-11-28T12:30:16Z</time>
      </trkpt>
      <trkpt lat="43.45095" lon="6.59907">
        <ele>339.78867413849</ele>
        <time>2021-11-28T12:30:18Z</time>
      </trkpt>
      <trkpt lat="43.45095" lon="6.59906">
        <ele>338.78860574216</ele>
        <time>2021-11-28T12:30:19Z</time>
      </trkpt>
      <trkpt lat="43.45096" lon="6.59904">
        <ele>338.78850348294</ele>
        <time>2021-11-28T12:30:20Z</time>
      </trkpt>
      <trkpt lat="43.45095" lon="6.59902">
        <ele>338.78846291453</ele>
        <time>2021-11-28T12:30:22Z</time>
      </trkpt>
      <trkpt lat="43.45095" lon="6.599">
        <ele>338.78843206912</ele>
        <time>2021-11-28T12:30:23Z</time>
      </trkpt>
      <trkpt lat="43.45095" lon="6.59899">
        <ele>338.78836434335</ele>
        <time>2021-11-28T12:30:24Z</time>
      </trkpt>
      <trkpt lat="43.45096" lon="6.59897">
        <ele>337.78821212798</ele>
        <time>2021-11-28T12:30:26Z</time>
      </trkpt>
      <trkpt lat="43.45094" lon="6.59895">
        <ele>338.78830198199</ele>
        <time>2021-11-28T12:30:28Z</time>
      </trkpt>
      <trkpt lat="43.45093" lon="6.59896">
        <ele>338.78838714212</ele>
        <time>2021-11-28T12:30:29Z</time>
      </trkpt>
      <trkpt lat="43.45092" lon="6.59895">
        <ele>338.78842301667</ele>
        <time>2021-11-28T12:30:30Z</time>
      </trkpt>
      <trkpt lat="43.45092" lon="6.59894">
        <ele>338.78840390593</ele>
        <time>2021-11-28T12:30:31Z</time>
      </trkpt>
      <trkpt lat="43.45092" lon="6.59893">
        <ele>338.78833048046</ele>
        <time>2021-11-28T12:30:32Z</time>
      </trkpt>
      <trkpt lat="43.45093" lon="6.59891">
        <ele>337.78823392093</ele>
        <time>2021-11-28T12:30:33Z</time>
      </trkpt>
      <trkpt lat="43.45093" lon="6.5989">
        <ele>337.78818027675</ele>
        <time>2021-11-28T12:30:34Z</time>
      </trkpt>
      <trkpt lat="43.45093" lon="6.59889">
        <ele>337.78817055374</ele>
        <time>2021-11-28T12:30:35Z</time>
      </trkpt>
      <trkpt lat="43.45092" lon="6.59888">
        <ele>336.78819335252</ele>
        <time>2021-11-28T12:30:36Z</time>
      </trkpt>
      <trkpt lat="43.45091" lon="6.59888">
        <ele>336.78825906664</ele>
        <time>2021-11-28T12:30:38Z</time>
      </trkpt>
      <trkpt lat="43.4509" lon="6.59889">
        <ele>336.78833148628</ele>
        <time>2021-11-28T12:30:40Z</time>
      </trkpt>
      <trkpt lat="43.45089" lon="6.59888">
        <ele>335.78841094673</ele>
        <time>2021-11-28T12:30:42Z</time>
      </trkpt>
      <trkpt lat="43.45088" lon="6.59887">
        <ele>335.78843978047</ele>
        <time>2021-11-28T12:30:43Z</time>
      </trkpt>
      <trkpt lat="43.45087" lon="6.59886">
        <ele>335.78847196698</ele>
        <time>2021-11-28T12:30:44Z</time>
      </trkpt>
      <trkpt lat="43.45087" lon="6.59886">
        <ele>335.78851186484</ele>
        <time>2021-11-28T12:30:45Z</time>
      </trkpt>
      <trkpt lat="43.45086" lon="6.59886">
        <ele>335.78857590258</ele>
        <time>2021-11-28T12:30:46Z</time>
      </trkpt>
      <trkpt lat="43.45084" lon="6.59885">
        <ele>334.78866106272</ele>
        <time>2021-11-28T12:30:47Z</time>
      </trkpt>
      <trkpt lat="43.45083" lon="6.59886">
        <ele>332.78883507103</ele>
        <time>2021-11-28T12:30:49Z</time>
      </trkpt>
      <trkpt lat="43.45082" lon="6.59885">
        <ele>332.7888873741</ele>
        <time>2021-11-28T12:30:50Z</time>
      </trkpt>
      <trkpt lat="43.45081" lon="6.59885">
        <ele>331.78890749067</ele>
        <time>2021-11-28T12:30:51Z</time>
      </trkpt>
      <trkpt lat="43.4508" lon="6.59883">
        <ele>332.78892291337</ele>
        <time>2021-11-28T12:30:52Z</time>
      </trkpt>
      <trkpt lat="43.4508" lon="6.59882">
        <ele>332.78889240324</ele>
        <time>2021-11-28T12:30:53Z</time>
      </trkpt>
      <trkpt lat="43.4508" lon="6.59881">
        <ele>332.78884211183</ele>
        <time>2021-11-28T12:30:54Z</time>
      </trkpt>
      <trkpt lat="43.4508" lon="6.5988">
        <ele>332.78880254924</ele>
        <time>2021-11-28T12:30:55Z</time>
      </trkpt>
      <trkpt lat="43.4508" lon="6.59879">
        <ele>332.78878444433</ele>
        <time>2021-11-28T12:30:56Z</time>
      </trkpt>
      <trkpt lat="43.4508" lon="6.59878">
        <ele>333.78874722868</ele>
        <time>2021-11-28T12:30:57Z</time>
      </trkpt>
      <trkpt lat="43.4508" lon="6.59877">
        <ele>333.7886992842</ele>
        <time>2021-11-28T12:30:58Z</time>
      </trkpt>
      <trkpt lat="43.4508" lon="6.59876">
        <ele>333.78864061087</ele>
        <time>2021-11-28T12:30:59Z</time>
      </trkpt>
      <trkpt lat="43.4508" lon="6.59874">
        <ele>333.78858428448</ele>
        <time>2021-11-28T12:31:01Z</time>
      </trkpt>
      <trkpt lat="43.45079" lon="6.59872">
        <ele>334.78852661699</ele>
        <time>2021-11-28T12:31:02Z</time>
      </trkpt>
      <trkpt lat="43.4508" lon="6.59871">
        <ele>334.78847565502</ele>
        <time>2021-11-28T12:31:03Z</time>
      </trkpt>
      <trkpt lat="43.4508" lon="6.5987">
        <ele>334.78843307495</ele>
        <time>2021-11-28T12:31:04Z</time>
      </trkpt>
      <trkpt lat="43.45079" lon="6.59869">
        <ele>334.78842938691</ele>
        <time>2021-11-28T12:31:06Z</time>
      </trkpt>
      <trkpt lat="43.45078" lon="6.59868">
        <ele>334.7884632498</ele>
        <time>2021-11-28T12:31:07Z</time>
      </trkpt>
      <trkpt lat="43.45079" lon="6.59867">
        <ele>335.78839652985</ele>
        <time>2021-11-28T12:31:08Z</time>
      </trkpt>
      <trkpt lat="43.45079" lon="6.59866">
        <ele>335.7883200869</ele>
        <time>2021-11-28T12:31:09Z</time>
      </trkpt>
      <trkpt lat="43.45081" lon="6.59865">
        <ele>334.78809880465</ele>
        <time>2021-11-28T12:31:11Z</time>
      </trkpt>
      <trkpt lat="43.45083" lon="6.59865">
        <ele>334.78800727427</ele>
        <time>2021-11-28T12:31:13Z</time>
      </trkpt>
      <trkpt lat="43.45083" lon="6.59866">
        <ele>336.7879801169</ele>
        <time>2021-11-28T12:31:15Z</time>
      </trkpt>
      <trkpt lat="43.45084" lon="6.59867">
        <ele>336.78795899451</ele>
        <time>2021-11-28T12:31:19Z</time>
      </trkpt>
      <trkpt lat="43.45085" lon="6.59867">
        <ele>336.78789227456</ele>
        <time>2021-11-28T12:31:22Z</time>
      </trkpt>
      <trkpt lat="43.45085" lon="6.59866">
        <ele>336.78782555461</ele>
        <time>2021-11-28T12:31:23Z</time>
      </trkpt>
      <trkpt lat="43.45085" lon="6.59865">
        <ele>335.78779068589</ele>
        <time>2021-11-28T12:31:25Z</time>
      </trkpt>
      <trkpt lat="43.45086" lon="6.59864">
        <ele>336.78768172115</ele>
        <time>2021-11-28T12:31:27Z</time>
      </trkpt>
      <trkpt lat="43.45086" lon="6.59863">
        <ele>336.78767132759</ele>
        <time>2021-11-28T12:31:28Z</time>
      </trkpt>
      <trkpt lat="43.45085" lon="6.59862">
        <ele>336.78766428679</ele>
        <time>2021-11-28T12:31:29Z</time>
      </trkpt>
      <trkpt lat="43.45086" lon="6.59862">
        <ele>336.78762640059</ele>
        <time>2021-11-28T12:31:30Z</time>
      </trkpt>
      <trkpt lat="43.45087" lon="6.59861">
        <ele>336.78750301898</ele>
        <time>2021-11-28T12:31:32Z</time>
      </trkpt>
      <trkpt lat="43.45087" lon="6.5986">
        <ele>337.78745172173</ele>
        <time>2021-11-28T12:31:39Z</time>
      </trkpt>
      <trkpt lat="43.45087" lon="6.5986">
        <ele>338.78742456436</ele>
        <time>2021-11-28T12:31:50Z</time>
      </trkpt>
      <trkpt lat="43.45087" lon="6.59859">
        <ele>338.78738936037</ele>
        <time>2021-11-28T12:31:51Z</time>
      </trkpt>
      <trkpt lat="43.45087" lon="6.59857">
        <ele>338.78731660545</ele>
        <time>2021-11-28T12:31:53Z</time>
      </trkpt>
      <trkpt lat="43.45087" lon="6.59856">
        <ele>338.78727000207</ele>
        <time>2021-11-28T12:31:54Z</time>
      </trkpt>
      <trkpt lat="43.45088" lon="6.59856">
        <ele>338.78722440451</ele>
        <time>2021-11-28T12:31:55Z</time>
      </trkpt>
      <trkpt lat="43.45087" lon="6.59855">
        <ele>338.78719758242</ele>
        <time>2021-11-28T12:31:59Z</time>
      </trkpt>
      <trkpt lat="43.45087" lon="6.59854">
        <ele>337.78720831126</ele>
        <time>2021-11-28T12:32:00Z</time>
      </trkpt>
      <trkpt lat="43.45087" lon="6.59853">
        <ele>337.78717310727</ele>
        <time>2021-11-28T12:32:01Z</time>
      </trkpt>
      <trkpt lat="43.45087" lon="6.59852">
        <ele>337.78710001707</ele>
        <time>2021-11-28T12:32:02Z</time>
      </trkpt>
      <trkpt lat="43.45088" lon="6.5985">
        <ele>338.78700312227</ele>
        <time>2021-11-28T12:32:03Z</time>
      </trkpt>
      <trkpt lat="43.45088" lon="6.59849">
        <ele>337.78692835569</ele>
        <time>2021-11-28T12:32:04Z</time>
      </trkpt>
      <trkpt lat="43.45088" lon="6.59849">
        <ele>337.78691058606</ele>
        <time>2021-11-28T12:32:05Z</time>
      </trkpt>
      <trkpt lat="43.45088" lon="6.59848">
        <ele>337.78686632961</ele>
        <time>2021-11-28T12:32:11Z</time>
      </trkpt>
      <trkpt lat="43.4509" lon="6.59846">
        <ele>337.78666684031</ele>
        <time>2021-11-28T12:32:12Z</time>
      </trkpt>
      <trkpt lat="43.4509" lon="6.59846">
        <ele>337.78658905625</ele>
        <time>2021-11-28T12:32:13Z</time>
      </trkpt>
      <trkpt lat="43.45091" lon="6.59846">
        <ele>337.78653675318</ele>
        <time>2021-11-28T12:32:14Z</time>
      </trkpt>
      <trkpt lat="43.45092" lon="6.59846">
        <ele>337.7864985317</ele>
        <time>2021-11-28T12:32:15Z</time>
      </trkpt>
      <trkpt lat="43.45092" lon="6.59846">
        <ele>337.78646567464</ele>
        <time>2021-11-28T12:32:16Z</time>
      </trkpt>
      <trkpt lat="43.45093" lon="6.59845">
        <ele>337.78637649119</ele>
        <time>2021-11-28T12:32:17Z</time>
      </trkpt>
      <trkpt lat="43.45094" lon="6.59845">
        <ele>337.78631781787</ele>
        <time>2021-11-28T12:32:18Z</time>
      </trkpt>
      <trkpt lat="43.45094" lon="6.59845">
        <ele>337.78625545651</ele>
        <time>2021-11-28T12:32:19Z</time>
      </trkpt>
      <trkpt lat="43.45095" lon="6.59845">
        <ele>337.78624808043</ele>
        <time>2021-11-28T12:32:20Z</time>
      </trkpt>
      <trkpt lat="43.45095" lon="6.59846">
        <ele>336.78623668104</ele>
        <time>2021-11-28T12:32:21Z</time>
      </trkpt>
      <trkpt lat="43.45096" lon="6.59847">
        <ele>336.78620516509</ele>
        <time>2021-11-28T12:32:22Z</time>
      </trkpt>
      <trkpt lat="43.45097" lon="6.59847">
        <ele>336.78615286201</ele>
        <time>2021-11-28T12:32:23Z</time>
      </trkpt>
      <trkpt lat="43.45097" lon="6.59847">
        <ele>336.78610357642</ele>
        <time>2021-11-28T12:32:24Z</time>
      </trkpt>
      <trkpt lat="43.45098" lon="6.59848">
        <ele>336.78608413041</ele>
        <time>2021-11-28T12:32:54Z</time>
      </trkpt>
      <trkpt lat="43.45096" lon="6.59847">
        <ele>335.78620415926</ele>
        <time>2021-11-28T12:32:55Z</time>
      </trkpt>
      <trkpt lat="43.45095" lon="6.59847">
        <ele>335.78624338657</ele>
        <time>2021-11-28T12:32:57Z</time>
      </trkpt>
      <trkpt lat="43.45095" lon="6.59846">
        <ele>335.7862611562</ele>
        <time>2021-11-28T12:33:00Z</time>
      </trkpt>
      <trkpt lat="43.45094" lon="6.59847">
        <ele>334.7863791734</ele>
        <time>2021-11-28T12:33:02Z</time>
      </trkpt>
      <trkpt lat="43.45093" lon="6.59846">
        <ele>334.78637883812</ele>
        <time>2021-11-28T12:33:04Z</time>
      </trkpt>
      <trkpt lat="43.45093" lon="6.59846">
        <ele>334.78638923168</ele>
        <time>2021-11-28T12:33:13Z</time>
      </trkpt>
      <trkpt lat="43.45094" lon="6.59845">
        <ele>335.78628864884</ele>
        <time>2021-11-28T12:33:14Z</time>
      </trkpt>
      <trkpt lat="43.45093" lon="6.59844">
        <ele>337.78627356142</ele>
        <time>2021-11-28T12:33:57Z</time>
      </trkpt>
      <trkpt lat="43.45093" lon="6.59843">
        <ele>337.78626283258</ele>
        <time>2021-11-28T12:33:59Z</time>
      </trkpt>
      <trkpt lat="43.45093" lon="6.59842">
        <ele>338.78624338657</ele>
        <time>2021-11-28T12:34:10Z</time>
      </trkpt>
      <trkpt lat="43.45092" lon="6.59844">
        <ele>338.78634933382</ele>
        <time>2021-11-28T12:34:11Z</time>
      </trkpt>
      <trkpt lat="43.45093" lon="6.59843">
        <ele>337.78630843014</ele>
        <time>2021-11-28T12:34:25Z</time>
      </trkpt>
      <trkpt lat="43.45093" lon="6.59842">
        <ele>337.78622695804</ele>
        <time>2021-11-28T12:34:26Z</time>
      </trkpt>
      <trkpt lat="43.45094" lon="6.59841">
        <ele>337.78613609821</ele>
        <time>2021-11-28T12:34:27Z</time>
      </trkpt>
      <trkpt lat="43.45094" lon="6.5984">
        <ele>337.78605294973</ele>
        <time>2021-11-28T12:34:28Z</time>
      </trkpt>
      <trkpt lat="43.45094" lon="6.59839">
        <ele>337.78598958254</ele>
        <time>2021-11-28T12:34:29Z</time>
      </trkpt>
      <trkpt lat="43.45095" lon="6.59838">
        <ele>337.7859409675</ele>
        <time>2021-11-28T12:34:30Z</time>
      </trkpt>
      <trkpt lat="43.45095" lon="6.59837">
        <ele>337.78590643406</ele>
        <time>2021-11-28T12:34:31Z</time>
      </trkpt>
      <trkpt lat="43.45095" lon="6.59837">
        <ele>337.78587123007</ele>
        <time>2021-11-28T12:34:32Z</time>
      </trkpt>
      <trkpt lat="43.45095" lon="6.59835">
        <ele>337.78579746932</ele>
        <time>2021-11-28T12:34:33Z</time>
      </trkpt>
      <trkpt lat="43.45096" lon="6.59834">
        <ele>336.78571096808</ele>
        <time>2021-11-28T12:34:34Z</time>
      </trkpt>
      <trkpt lat="43.45097" lon="6.59835">
        <ele>336.78563452512</ele>
        <time>2021-11-28T12:34:35Z</time>
      </trkpt>
      <trkpt lat="43.45099" lon="6.59834">
        <ele>336.78544140607</ele>
        <time>2021-11-28T12:34:37Z</time>
      </trkpt>
      <trkpt lat="43.451" lon="6.59833">
        <ele>336.78533344716</ele>
        <time>2021-11-28T12:34:38Z</time>
      </trkpt>
      <trkpt lat="43.45101" lon="6.59833">
        <ele>336.7852781266</ele>
        <time>2021-11-28T12:34:39Z</time>
      </trkpt>
      <trkpt lat="43.45101" lon="6.59834">
        <ele>336.78525231034</ele>
        <time>2021-11-28T12:34:40Z</time>
      </trkpt>
      <trkpt lat="43.45103" lon="6.59834">
        <ele>336.78513664007</ele>
        <time>2021-11-28T12:34:42Z</time>
      </trkpt>
      <trkpt lat="43.45103" lon="6.59834">
        <ele>335.78507930785</ele>
        <time>2021-11-28T12:34:43Z</time>
      </trkpt>
      <trkpt lat="43.45104" lon="6.59834">
        <ele>335.78505013883</ele>
        <time>2021-11-28T12:34:44Z</time>
      </trkpt>
      <trkpt lat="43.45104" lon="6.59834">
        <ele>335.78501225263</ele>
        <time>2021-11-28T12:34:45Z</time>
      </trkpt>
      <trkpt lat="43.45106" lon="6.59836">
        <ele>334.78498107195</ele>
        <time>2021-11-28T12:34:46Z</time>
      </trkpt>
      <trkpt lat="43.45107" lon="6.59837">
        <ele>334.78491669893</ele>
        <time>2021-11-28T12:34:48Z</time>
      </trkpt>
      <trkpt lat="43.45108" lon="6.59836">
        <ele>333.78484092653</ele>
        <time>2021-11-28T12:34:50Z</time>
      </trkpt>
      <trkpt lat="43.4511" lon="6.59836">
        <ele>333.78466591239</ele>
        <time>2021-11-28T12:34:52Z</time>
      </trkpt>
      <trkpt lat="43.45111" lon="6.59835">
        <ele>333.78455124795</ele>
        <time>2021-11-28T12:34:54Z</time>
      </trkpt>
      <trkpt lat="43.45112" lon="6.59833">
        <ele>332.78437556326</ele>
        <time>2021-11-28T12:34:56Z</time>
      </trkpt>
      <trkpt lat="43.45113" lon="6.5983">
        <ele>332.78418579698</ele>
        <time>2021-11-28T12:34:58Z</time>
      </trkpt>
      <trkpt lat="43.45113" lon="6.59828">
        <ele>332.78409963101</ele>
        <time>2021-11-28T12:34:59Z</time>
      </trkpt>
      <trkpt lat="43.45113" lon="6.59827">
        <ele>332.78402385861</ele>
        <time>2021-11-28T12:35:00Z</time>
      </trkpt>
      <trkpt lat="43.45114" lon="6.59825">
        <ele>331.78387197852</ele>
        <time>2021-11-28T12:35:02Z</time>
      </trkpt>
      <trkpt lat="43.45114" lon="6.59822">
        <ele>331.78374122083</ele>
        <time>2021-11-28T12:35:04Z</time>
      </trkpt>
      <trkpt lat="43.45115" lon="6.59822">
        <ele>330.78365371376</ele>
        <time>2021-11-28T12:35:05Z</time>
      </trkpt>
      <trkpt lat="43.45115" lon="6.59821">
        <ele>330.78361716866</ele>
        <time>2021-11-28T12:35:06Z</time>
      </trkpt>
      <trkpt lat="43.45116" lon="6.5982">
        <ele>329.78355011344</ele>
        <time>2021-11-28T12:35:08Z</time>
      </trkpt>
      <trkpt lat="43.45116" lon="6.59818">
        <ele>329.78348439932</ele>
        <time>2021-11-28T12:35:09Z</time>
      </trkpt>
      <trkpt lat="43.45116" lon="6.59817">
        <ele>329.78343980759</ele>
        <time>2021-11-28T12:35:10Z</time>
      </trkpt>
      <trkpt lat="43.45115" lon="6.59816">
        <ele>329.78342036158</ele>
        <time>2021-11-28T12:35:11Z</time>
      </trkpt>
      <trkpt lat="43.45115" lon="6.59816">
        <ele>329.78344081342</ele>
        <time>2021-11-28T12:35:13Z</time>
      </trkpt>
      <trkpt lat="43.45114" lon="6.59815">
        <ele>329.78349177539</ele>
        <time>2021-11-28T12:35:16Z</time>
      </trkpt>
      <trkpt lat="43.45114" lon="6.59814">
        <ele>329.78347367048</ele>
        <time>2021-11-28T12:35:17Z</time>
      </trkpt>
      <trkpt lat="43.45114" lon="6.59814">
        <ele>329.78343980759</ele>
        <time>2021-11-28T12:35:18Z</time>
      </trkpt>
      <trkpt lat="43.45114" lon="6.59813">
        <ele>329.78337644041</ele>
        <time>2021-11-28T12:35:19Z</time>
      </trkpt>
      <trkpt lat="43.45115" lon="6.59812">
        <ele>329.78331709653</ele>
        <time>2021-11-28T12:35:20Z</time>
      </trkpt>
      <trkpt lat="43.45114" lon="6.59811">
        <ele>328.78328893334</ele>
        <time>2021-11-28T12:35:21Z</time>
      </trkpt>
      <trkpt lat="43.45115" lon="6.5981">
        <ele>328.78323126584</ele>
        <time>2021-11-28T12:35:25Z</time>
      </trkpt>
      <trkpt lat="43.45114" lon="6.5981">
        <ele>328.78324903548</ele>
        <time>2021-11-28T12:35:29Z</time>
      </trkpt>
      <trkpt lat="43.45114" lon="6.59807">
        <ele>327.78319069743</ele>
        <time>2021-11-28T12:35:30Z</time>
      </trkpt>
      <trkpt lat="43.45114" lon="6.59807">
        <ele>327.78315851092</ele>
        <time>2021-11-28T12:35:31Z</time>
      </trkpt>
      <trkpt lat="43.45114" lon="6.59806">
        <ele>327.78310855478</ele>
        <time>2021-11-28T12:35:32Z</time>
      </trkpt>
      <trkpt lat="43.45113" lon="6.59804">
        <ele>328.78309950233</ele>
        <time>2021-11-28T12:35:34Z</time>
      </trkpt>
      <trkpt lat="43.45113" lon="6.59803">
        <ele>328.78308307379</ele>
        <time>2021-11-28T12:35:35Z</time>
      </trkpt>
      <trkpt lat="43.45112" lon="6.59802">
        <ele>328.7830844149</ele>
        <time>2021-11-28T12:35:36Z</time>
      </trkpt>
      <trkpt lat="43.45112" lon="6.59801">
        <ele>328.78309547901</ele>
        <time>2021-11-28T12:35:37Z</time>
      </trkpt>
      <trkpt lat="43.45111" lon="6.598">
        <ele>328.78309547901</ele>
        <time>2021-11-28T12:35:38Z</time>
      </trkpt>
      <trkpt lat="43.45111" lon="6.59799">
        <ele>328.78311358392</ele>
        <time>2021-11-28T12:35:39Z</time>
      </trkpt>
      <trkpt lat="43.4511" lon="6.59799">
        <ele>328.78316253424</ele>
        <time>2021-11-28T12:35:40Z</time>
      </trkpt>
      <trkpt lat="43.4511" lon="6.59799">
        <ele>328.78318499774</ele>
        <time>2021-11-28T12:35:41Z</time>
      </trkpt>
      <trkpt lat="43.45109" lon="6.59798">
        <ele>328.78317795694</ele>
        <time>2021-11-28T12:35:42Z</time>
      </trkpt>
      <trkpt lat="43.45109" lon="6.59797">
        <ele>328.78317527473</ele>
        <time>2021-11-28T12:35:43Z</time>
      </trkpt>
      <trkpt lat="43.45108" lon="6.59796">
        <ele>328.78317762166</ele>
        <time>2021-11-28T12:35:44Z</time>
      </trkpt>
      <trkpt lat="43.45108" lon="6.59795">
        <ele>328.7832024321</ele>
        <time>2021-11-28T12:35:45Z</time>
      </trkpt>
      <trkpt lat="43.45107" lon="6.59794">
        <ele>328.7831826508</ele>
        <time>2021-11-28T12:35:46Z</time>
      </trkpt>
      <trkpt lat="43.45106" lon="6.59792">
        <ele>328.78319170326</ele>
        <time>2021-11-28T12:35:48Z</time>
      </trkpt>
      <trkpt lat="43.45106" lon="6.59792">
        <ele>328.7832319364</ele>
        <time>2021-11-28T12:35:49Z</time>
      </trkpt>
      <trkpt lat="43.45105" lon="6.59791">
        <ele>328.78321349621</ele>
        <time>2021-11-28T12:35:50Z</time>
      </trkpt>
      <trkpt lat="43.45104" lon="6.59791">
        <ele>329.78327921033</ele>
        <time>2021-11-28T12:35:52Z</time>
      </trkpt>
      <trkpt lat="43.45103" lon="6.59789">
        <ele>329.78329563886</ele>
        <time>2021-11-28T12:35:54Z</time>
      </trkpt>
      <trkpt lat="43.45103" lon="6.59788">
        <ele>329.78331877291</ele>
        <time>2021-11-28T12:35:55Z</time>
      </trkpt>
      <trkpt lat="43.45102" lon="6.59787">
        <ele>329.78333754838</ele>
        <time>2021-11-28T12:35:56Z</time>
      </trkpt>
      <trkpt lat="43.45101" lon="6.59785">
        <ele>329.78334492445</ele>
        <time>2021-11-28T12:35:58Z</time>
      </trkpt>
      <trkpt lat="43.451" lon="6.59784">
        <ele>329.78334492445</ele>
        <time>2021-11-28T12:35:59Z</time>
      </trkpt>
      <trkpt lat="43.451" lon="6.59783">
        <ele>329.78333251923</ele>
        <time>2021-11-28T12:36:00Z</time>
      </trkpt>
      <trkpt lat="43.45098" lon="6.59781">
        <ele>328.78339387476</ele>
        <time>2021-11-28T12:36:02Z</time>
      </trkpt>
      <trkpt lat="43.45096" lon="6.5978">
        <ele>328.78349043429</ele>
        <time>2021-11-28T12:36:04Z</time>
      </trkpt>
      <trkpt lat="43.45096" lon="6.59779">
        <ele>328.78352060914</ele>
        <time>2021-11-28T12:36:05Z</time>
      </trkpt>
      <trkpt lat="43.45095" lon="6.5978">
        <ele>328.78355413675</ele>
        <time>2021-11-28T12:36:06Z</time>
      </trkpt>
      <trkpt lat="43.45094" lon="6.59779">
        <ele>328.7836335972</ele>
        <time>2021-11-28T12:36:08Z</time>
      </trkpt>
      <trkpt lat="43.45093" lon="6.59779">
        <ele>328.7836882472</ele>
        <time>2021-11-28T12:36:09Z</time>
      </trkpt>
      <trkpt lat="43.45093" lon="6.59779">
        <ele>328.78373686224</ele>
        <time>2021-11-28T12:36:10Z</time>
      </trkpt>
      <trkpt lat="43.45091" lon="6.59778">
        <ele>327.78381934017</ele>
        <time>2021-11-28T12:36:12Z</time>
      </trkpt>
      <trkpt lat="43.45091" lon="6.59777">
        <ele>327.78378983587</ele>
        <time>2021-11-28T12:36:13Z</time>
      </trkpt>
      <trkpt lat="43.45091" lon="6.59775">
        <ele>327.78372881562</ele>
        <time>2021-11-28T12:36:14Z</time>
      </trkpt>
      <trkpt lat="43.45091" lon="6.59774">
        <ele>328.78367584199</ele>
        <time>2021-11-28T12:36:15Z</time>
      </trkpt>
      <trkpt lat="43.45091" lon="6.59773">
        <ele>327.78366108984</ele>
        <time>2021-11-28T12:36:16Z</time>
      </trkpt>
      <trkpt lat="43.4509" lon="6.59771">
        <ele>327.78365572542</ele>
        <time>2021-11-28T12:36:18Z</time>
      </trkpt>
      <trkpt lat="43.4509" lon="6.5977">
        <ele>327.7836433202</ele>
        <time>2021-11-28T12:36:19Z</time>
      </trkpt>
      <trkpt lat="43.45089" lon="6.5977">
        <ele>327.78363996744</ele>
        <time>2021-11-28T12:36:20Z</time>
      </trkpt>
      <trkpt lat="43.45088" lon="6.59767">
        <ele>327.78363125026</ele>
        <time>2021-11-28T12:36:22Z</time>
      </trkpt>
      <trkpt lat="43.45087" lon="6.59764">
        <ele>327.78359738737</ele>
        <time>2021-11-28T12:36:24Z</time>
      </trkpt>
      <trkpt lat="43.45087" lon="6.59763">
        <ele>327.78359302878</ele>
        <time>2021-11-28T12:36:25Z</time>
      </trkpt>
      <trkpt lat="43.45086" lon="6.59762">
        <ele>327.78361348063</ele>
        <time>2021-11-28T12:36:26Z</time>
      </trkpt>
      <trkpt lat="43.45086" lon="6.5976">
        <ele>326.78351524472</ele>
        <time>2021-11-28T12:36:28Z</time>
      </trkpt>
      <trkpt lat="43.45086" lon="6.59759">
        <ele>326.78344450146</ele>
        <time>2021-11-28T12:36:29Z</time>
      </trkpt>
      <trkpt lat="43.45087" lon="6.59757">
        <ele>326.78331508487</ele>
        <time>2021-11-28T12:36:30Z</time>
      </trkpt>
      <trkpt lat="43.45089" lon="6.59756">
        <ele>326.7831588462</ele>
        <time>2021-11-28T12:36:32Z</time>
      </trkpt>
      <trkpt lat="43.45088" lon="6.59755">
        <ele>326.78315448761</ele>
        <time>2021-11-28T12:36:37Z</time>
      </trkpt>
      <trkpt lat="43.45088" lon="6.59755">
        <ele>326.78313504159</ele>
        <time>2021-11-28T12:36:43Z</time>
      </trkpt>
      <trkpt lat="43.45089" lon="6.59753">
        <ele>325.78302808851</ele>
        <time>2021-11-28T12:36:44Z</time>
      </trkpt>
      <trkpt lat="43.4509" lon="6.59752">
        <ele>325.7828835845</ele>
        <time>2021-11-28T12:36:45Z</time>
      </trkpt>
      <trkpt lat="43.45091" lon="6.59751">
        <ele>325.7827796489</ele>
        <time>2021-11-28T12:36:46Z</time>
      </trkpt>
      <trkpt lat="43.45092" lon="6.5975">
        <ele>325.78265224397</ele>
        <time>2021-11-28T12:36:47Z</time>
      </trkpt>
      <trkpt lat="43.45092" lon="6.59749">
        <ele>325.78257345408</ele>
        <time>2021-11-28T12:36:48Z</time>
      </trkpt>
      <trkpt lat="43.45092" lon="6.59748">
        <ele>325.78253187984</ele>
        <time>2021-11-28T12:36:49Z</time>
      </trkpt>
      <trkpt lat="43.45092" lon="6.59747">
        <ele>323.78254864365</ele>
        <time>2021-11-28T12:36:52Z</time>
      </trkpt>
      <trkpt lat="43.45091" lon="6.59746">
        <ele>322.7825550139</ele>
        <time>2021-11-28T12:36:54Z</time>
      </trkpt>
      <trkpt lat="43.45091" lon="6.59746">
        <ele>322.78255434334</ele>
        <time>2021-11-28T12:36:55Z</time>
      </trkpt>
      <trkpt lat="43.45092" lon="6.59744">
        <ele>321.78241084516</ele>
        <time>2021-11-28T12:36:57Z</time>
      </trkpt>
      <trkpt lat="43.45091" lon="6.59743">
        <ele>321.78245912492</ele>
        <time>2021-11-28T12:36:59Z</time>
      </trkpt>
      <trkpt lat="43.4509" lon="6.59741">
        <ele>321.78243766725</ele>
        <time>2021-11-28T12:37:00Z</time>
      </trkpt>
      <trkpt lat="43.4509" lon="6.5974">
        <ele>321.78238838166</ele>
        <time>2021-11-28T12:37:01Z</time>
      </trkpt>
      <trkpt lat="43.4509" lon="6.59737">
        <ele>320.78226969391</ele>
        <time>2021-11-28T12:37:03Z</time>
      </trkpt>
      <trkpt lat="43.4509" lon="6.59736">
        <ele>320.78225594759</ele>
        <time>2021-11-28T12:37:04Z</time>
      </trkpt>
      <trkpt lat="43.4509" lon="6.59735">
        <ele>320.78219593316</ele>
        <time>2021-11-28T12:37:05Z</time>
      </trkpt>
      <trkpt lat="43.4509" lon="6.59734">
        <ele>319.78218118101</ele>
        <time>2021-11-28T12:37:07Z</time>
      </trkpt>
      <trkpt lat="43.4509" lon="6.59733">
        <ele>319.78215000033</ele>
        <time>2021-11-28T12:37:08Z</time>
      </trkpt>
      <trkpt lat="43.45089" lon="6.59732">
        <ele>320.7821701169</ele>
        <time>2021-11-28T12:37:09Z</time>
      </trkpt>
      <trkpt lat="43.45089" lon="6.59732">
        <ele>319.78218587488</ele>
        <time>2021-11-28T12:37:10Z</time>
      </trkpt>
      <trkpt lat="43.45089" lon="6.59731">
        <ele>319.78210641444</ele>
        <time>2021-11-28T12:37:11Z</time>
      </trkpt>
      <trkpt lat="43.4509" lon="6.5973">
        <ele>319.78202192485</ele>
        <time>2021-11-28T12:37:12Z</time>
      </trkpt>
      <trkpt lat="43.4509" lon="6.59729">
        <ele>319.7819173187</ele>
        <time>2021-11-28T12:37:13Z</time>
      </trkpt>
      <trkpt lat="43.45091" lon="6.59727">
        <ele>319.78182277083</ele>
        <time>2021-11-28T12:37:14Z</time>
      </trkpt>
      <trkpt lat="43.45091" lon="6.59727">
        <ele>319.78175873309</ele>
        <time>2021-11-28T12:37:15Z</time>
      </trkpt>
      <trkpt lat="43.45092" lon="6.59725">
        <ele>319.78166083246</ele>
        <time>2021-11-28T12:37:17Z</time>
      </trkpt>
      <trkpt lat="43.45092" lon="6.59724">
        <ele>319.78158405423</ele>
        <time>2021-11-28T12:37:19Z</time>
      </trkpt>
      <trkpt lat="43.45092" lon="6.59723">
        <ele>319.78155723214</ele>
        <time>2021-11-28T12:37:20Z</time>
      </trkpt>
      <trkpt lat="43.45092" lon="6.59722">
        <ele>319.7815240398</ele>
        <time>2021-11-28T12:37:21Z</time>
      </trkpt>
      <trkpt lat="43.45092" lon="6.59721">
        <ele>319.78148179501</ele>
        <time>2021-11-28T12:37:23Z</time>
      </trkpt>
      <trkpt lat="43.45091" lon="6.5972">
        <ele>319.78147978336</ele>
        <time>2021-11-28T12:37:24Z</time>
      </trkpt>
      <trkpt lat="43.45091" lon="6.59719">
        <ele>319.78146033734</ele>
        <time>2021-11-28T12:37:25Z</time>
      </trkpt>
      <trkpt lat="43.45091" lon="6.59718">
        <ele>319.78141541034</ele>
        <time>2021-11-28T12:37:27Z</time>
      </trkpt>
      <trkpt lat="43.45091" lon="6.59717">
        <ele>318.78136377782</ele>
        <time>2021-11-28T12:37:28Z</time>
      </trkpt>
      <trkpt lat="43.45091" lon="6.59715">
        <ele>317.78132086247</ele>
        <time>2021-11-28T12:37:29Z</time>
      </trkpt>
      <trkpt lat="43.45091" lon="6.59715">
        <ele>317.78129538149</ele>
        <time>2021-11-28T12:37:31Z</time>
      </trkpt>
      <trkpt lat="43.45092" lon="6.59714">
        <ele>317.78121994436</ele>
        <time>2021-11-28T12:37:33Z</time>
      </trkpt>
      <trkpt lat="43.45092" lon="6.59714">
        <ele>317.78121357411</ele>
        <time>2021-11-28T12:37:34Z</time>
      </trkpt>
      <trkpt lat="43.45091" lon="6.59713">
        <ele>318.78124676645</ele>
        <time>2021-11-28T12:37:35Z</time>
      </trkpt>
      <trkpt lat="43.45091" lon="6.59713">
        <ele>317.78123771399</ele>
        <time>2021-11-28T12:37:37Z</time>
      </trkpt>
      <trkpt lat="43.45091" lon="6.59712">
        <ele>317.78123972565</ele>
        <time>2021-11-28T12:37:38Z</time>
      </trkpt>
      <trkpt lat="43.45091" lon="6.59711">
        <ele>318.78117870539</ele>
        <time>2021-11-28T12:37:39Z</time>
      </trkpt>
      <trkpt lat="43.45091" lon="6.5971">
        <ele>317.78110863268</ele>
        <time>2021-11-28T12:37:40Z</time>
      </trkpt>
      <trkpt lat="43.45092" lon="6.59707">
        <ele>317.78091551363</ele>
        <time>2021-11-28T12:37:42Z</time>
      </trkpt>
      <trkpt lat="43.45092" lon="6.59705">
        <ele>317.78084376454</ele>
        <time>2021-11-28T12:37:43Z</time>
      </trkpt>
      <trkpt lat="43.45092" lon="6.59703">
        <ele>318.78078743815</ele>
        <time>2021-11-28T12:37:44Z</time>
      </trkpt>
      <trkpt lat="43.45092" lon="6.59702">
        <ele>317.78069356084</ele>
        <time>2021-11-28T12:37:45Z</time>
      </trkpt>
      <trkpt lat="43.45093" lon="6.597">
        <ele>318.78058962524</ele>
        <time>2021-11-28T12:37:46Z</time>
      </trkpt>
      <trkpt lat="43.45093" lon="6.59699">
        <ele>317.78052961081</ele>
        <time>2021-11-28T12:37:47Z</time>
      </trkpt>
      <trkpt lat="43.45093" lon="6.59698">
        <ele>317.78051083535</ele>
        <time>2021-11-28T12:37:48Z</time>
      </trkpt>
      <trkpt lat="43.45092" lon="6.59697">
        <ele>317.78054905683</ele>
        <time>2021-11-28T12:37:49Z</time>
      </trkpt>
      <trkpt lat="43.45091" lon="6.59696">
        <ele>317.78059934825</ele>
        <time>2021-11-28T12:37:50Z</time>
      </trkpt>
      <trkpt lat="43.4509" lon="6.59696">
        <ele>317.78067143261</ele>
        <time>2021-11-28T12:37:51Z</time>
      </trkpt>
      <trkpt lat="43.45089" lon="6.59694">
        <ele>315.78064695746</ele>
        <time>2021-11-28T12:37:53Z</time>
      </trkpt>
      <trkpt lat="43.45089" lon="6.59693">
        <ele>316.78064125776</ele>
        <time>2021-11-28T12:37:55Z</time>
      </trkpt>
      <trkpt lat="43.45088" lon="6.59693">
        <ele>316.78064226359</ele>
        <time>2021-11-28T12:37:56Z</time>
      </trkpt>
      <trkpt lat="43.45088" lon="6.59692">
        <ele>315.78064528108</ele>
        <time>2021-11-28T12:37:58Z</time>
      </trkpt>
      <trkpt lat="43.45088" lon="6.59691">
        <ele>314.7806436047</ele>
        <time>2021-11-28T12:37:59Z</time>
      </trkpt>
      <trkpt lat="43.45087" lon="6.5969">
        <ele>315.78061141819</ele>
        <time>2021-11-28T12:38:00Z</time>
      </trkpt>
      <trkpt lat="43.45087" lon="6.59687">
        <ele>314.78047194332</ele>
        <time>2021-11-28T12:38:02Z</time>
      </trkpt>
      <trkpt lat="43.45088" lon="6.59683">
        <ele>313.78025904298</ele>
        <time>2021-11-28T12:38:04Z</time>
      </trkpt>
      <trkpt lat="43.45088" lon="6.59681">
        <ele>312.78023691475</ele>
        <time>2021-11-28T12:38:06Z</time>
      </trkpt>
      <trkpt lat="43.45087" lon="6.59679">
        <ele>313.78020405769</ele>
        <time>2021-11-28T12:38:08Z</time>
      </trkpt>
      <trkpt lat="43.45087" lon="6.59679">
        <ele>313.78018762916</ele>
        <time>2021-11-28T12:38:09Z</time>
      </trkpt>
      <trkpt lat="43.45087" lon="6.59678">
        <ele>313.78013700247</ele>
        <time>2021-11-28T12:38:10Z</time>
      </trkpt>
      <trkpt lat="43.45089" lon="6.59676">
        <ele>313.77995729446</ele>
        <time>2021-11-28T12:38:12Z</time>
      </trkpt>
      <trkpt lat="43.4509" lon="6.59675">
        <ele>313.77981580794</ele>
        <time>2021-11-28T12:38:14Z</time>
      </trkpt>
      <trkpt lat="43.4509" lon="6.59674">
        <ele>314.7798050791</ele>
        <time>2021-11-28T12:38:15Z</time>
      </trkpt>
      <trkpt lat="43.45091" lon="6.59675">
        <ele>312.77973467112</ele>
        <time>2021-11-28T12:38:17Z</time>
      </trkpt>
      <trkpt lat="43.45093" lon="6.59676">
        <ele>312.77961933613</ele>
        <time>2021-11-28T12:38:19Z</time>
      </trkpt>
      <trkpt lat="43.45094" lon="6.59675">
        <ele>312.77952478826</ele>
        <time>2021-11-28T12:38:20Z</time>
      </trkpt>
      <trkpt lat="43.45094" lon="6.59674">
        <ele>312.77942185849</ele>
        <time>2021-11-28T12:38:21Z</time>
      </trkpt>
      <trkpt lat="43.45096" lon="6.59674">
        <ele>312.77929478884</ele>
        <time>2021-11-28T12:38:23Z</time>
      </trkpt>
      <trkpt lat="43.45097" lon="6.59674">
        <ele>312.77923678607</ele>
        <time>2021-11-28T12:38:24Z</time>
      </trkpt>
      <trkpt lat="43.45097" lon="6.59674">
        <ele>312.77919051796</ele>
        <time>2021-11-28T12:38:25Z</time>
      </trkpt>
      <trkpt lat="43.45099" lon="6.59675">
        <ele>311.77910401672</ele>
        <time>2021-11-28T12:38:27Z</time>
      </trkpt>
      <trkpt lat="43.451" lon="6.59675">
        <ele>310.77897694707</ele>
        <time>2021-11-28T12:38:29Z</time>
      </trkpt>
      <trkpt lat="43.45101" lon="6.59674">
        <ele>310.77886496484</ele>
        <time>2021-11-28T12:38:30Z</time>
      </trkpt>
      <trkpt lat="43.45103" lon="6.59674">
        <ele>310.77877410501</ele>
        <time>2021-11-28T12:38:31Z</time>
      </trkpt>
      <trkpt lat="43.45103" lon="6.59674">
        <ele>309.77870738506</ele>
        <time>2021-11-28T12:38:33Z</time>
      </trkpt>
      <trkpt lat="43.45104" lon="6.59673">
        <ele>310.77858635038</ele>
        <time>2021-11-28T12:38:34Z</time>
      </trkpt>
      <trkpt lat="43.45105" lon="6.59673">
        <ele>311.77852935344</ele>
        <time>2021-11-28T12:38:41Z</time>
      </trkpt>
      <trkpt lat="43.45107" lon="6.5967">
        <ele>311.7782504037</ele>
        <time>2021-11-28T12:38:43Z</time>
      </trkpt>
      <trkpt lat="43.45108" lon="6.5967">
        <ele>311.77819105983</ele>
        <time>2021-11-28T12:38:44Z</time>
      </trkpt>
      <trkpt lat="43.45108" lon="6.5967">
        <ele>311.77814579755</ele>
        <time>2021-11-28T12:38:45Z</time>
      </trkpt>
      <trkpt lat="43.45109" lon="6.5967">
        <ele>310.778055273</ele>
        <time>2021-11-28T12:38:47Z</time>
      </trkpt>
      <trkpt lat="43.4511" lon="6.5967">
        <ele>309.77797178924</ele>
        <time>2021-11-28T12:38:49Z</time>
      </trkpt>
      <trkpt lat="43.45111" lon="6.59671">
        <ele>309.77796608955</ele>
        <time>2021-11-28T12:38:52Z</time>
      </trkpt>
      <trkpt lat="43.45111" lon="6.59672">
        <ele>310.77795569599</ele>
        <time>2021-11-28T12:38:53Z</time>
      </trkpt>
      <trkpt lat="43.45112" lon="6.59672">
        <ele>310.77788461745</ele>
        <time>2021-11-28T12:38:54Z</time>
      </trkpt>
      <trkpt lat="43.45113" lon="6.59672">
        <ele>310.77783399075</ele>
        <time>2021-11-28T12:38:55Z</time>
      </trkpt>
      <trkpt lat="43.45114" lon="6.59672">
        <ele>310.77777632326</ele>
        <time>2021-11-28T12:38:58Z</time>
      </trkpt>
      <trkpt lat="43.45116" lon="6.59671">
        <ele>311.77760700881</ele>
        <time>2021-11-28T12:38:59Z</time>
      </trkpt>
      <trkpt lat="43.45116" lon="6.59671">
        <ele>311.77752084285</ele>
        <time>2021-11-28T12:39:00Z</time>
      </trkpt>
      <trkpt lat="43.45117" lon="6.5967">
        <ele>310.77741489559</ele>
        <time>2021-11-28T12:39:01Z</time>
      </trkpt>
      <trkpt lat="43.45119" lon="6.5967">
        <ele>310.77730961889</ele>
        <time>2021-11-28T12:39:03Z</time>
      </trkpt>
      <trkpt lat="43.45119" lon="6.59669">
        <ele>310.77720568329</ele>
        <time>2021-11-28T12:39:04Z</time>
      </trkpt>
      <trkpt lat="43.4512" lon="6.59668">
        <ele>311.77713929862</ele>
        <time>2021-11-28T12:39:05Z</time>
      </trkpt>
      <trkpt lat="43.45121" lon="6.59668">
        <ele>311.77703402191</ele>
        <time>2021-11-28T12:39:07Z</time>
      </trkpt>
      <trkpt lat="43.45123" lon="6.59668">
        <ele>311.77690762281</ele>
        <time>2021-11-28T12:39:09Z</time>
      </trkpt>
      <trkpt lat="43.45124" lon="6.59669">
        <ele>311.77685531974</ele>
        <time>2021-11-28T12:39:10Z</time>
      </trkpt>
      <trkpt lat="43.45124" lon="6.59669">
        <ele>311.77681273967</ele>
        <time>2021-11-28T12:39:11Z</time>
      </trkpt>
      <trkpt lat="43.45126" lon="6.59669">
        <ele>311.77670746297</ele>
        <time>2021-11-28T12:39:13Z</time>
      </trkpt>
      <trkpt lat="43.45127" lon="6.5967">
        <ele>311.77664476633</ele>
        <time>2021-11-28T12:39:14Z</time>
      </trkpt>
      <trkpt lat="43.45127" lon="6.5967">
        <ele>311.77664476633</ele>
        <time>2021-11-28T12:39:15Z</time>
      </trkpt>
      <trkpt lat="43.45129" lon="6.59669">
        <ele>310.77648115158</ele>
        <time>2021-11-28T12:39:17Z</time>
      </trkpt>
      <trkpt lat="43.45131" lon="6.5967">
        <ele>310.77632088959</ele>
        <time>2021-11-28T12:39:19Z</time>
      </trkpt>
      <trkpt lat="43.45132" lon="6.5967">
        <ele>310.77621930093</ele>
        <time>2021-11-28T12:39:20Z</time>
      </trkpt>
      <trkpt lat="43.45133" lon="6.5967">
        <ele>310.77614419907</ele>
        <time>2021-11-28T12:39:21Z</time>
      </trkpt>
      <trkpt lat="43.45135" lon="6.59671">
        <ele>310.77601210028</ele>
        <time>2021-11-28T12:39:23Z</time>
      </trkpt>
      <trkpt lat="43.45136" lon="6.5967">
        <ele>310.77592425793</ele>
        <time>2021-11-28T12:39:24Z</time>
      </trkpt>
      <trkpt lat="43.45137" lon="6.5967">
        <ele>310.77584178001</ele>
        <time>2021-11-28T12:39:25Z</time>
      </trkpt>
      <trkpt lat="43.45139" lon="6.59667">
        <ele>310.7756158039</ele>
        <time>2021-11-28T12:39:27Z</time>
      </trkpt>
      <trkpt lat="43.45139" lon="6.59668">
        <ele>310.7755581364</ele>
        <time>2021-11-28T12:39:29Z</time>
      </trkpt>
      <trkpt lat="43.4514" lon="6.59667">
        <ele>310.77548035234</ele>
        <time>2021-11-28T12:39:31Z</time>
      </trkpt>
      <trkpt lat="43.45141" lon="6.59667">
        <ele>310.775437437</ele>
        <time>2021-11-28T12:39:39Z</time>
      </trkpt>
      <trkpt lat="43.45142" lon="6.59666">
        <ele>309.77531908453</ele>
        <time>2021-11-28T12:39:40Z</time>
      </trkpt>
      <trkpt lat="43.45142" lon="6.59665">
        <ele>309.77528488636</ele>
        <time>2021-11-28T12:39:47Z</time>
      </trkpt>
      <trkpt lat="43.45141" lon="6.59664">
        <ele>309.77527214587</ele>
        <time>2021-11-28T12:39:49Z</time>
      </trkpt>
      <trkpt lat="43.45141" lon="6.59663">
        <ele>309.77521045506</ele>
        <time>2021-11-28T12:39:50Z</time>
      </trkpt>
      <trkpt lat="43.45141" lon="6.59662">
        <ele>310.77519570291</ele>
        <time>2021-11-28T12:39:51Z</time>
      </trkpt>
      <trkpt lat="43.45142" lon="6.59662">
        <ele>309.77512462437</ele>
        <time>2021-11-28T12:39:53Z</time>
      </trkpt>
      <trkpt lat="43.45142" lon="6.5966">
        <ele>309.77501700073</ele>
        <time>2021-11-28T12:39:54Z</time>
      </trkpt>
      <trkpt lat="43.45143" lon="6.59659">
        <ele>308.77492982894</ele>
        <time>2021-11-28T12:39:55Z</time>
      </trkpt>
      <trkpt lat="43.45144" lon="6.59658">
        <ele>308.77483226359</ele>
        <time>2021-11-28T12:39:56Z</time>
      </trkpt>
      <trkpt lat="43.45144" lon="6.59656">
        <ele>308.77472463995</ele>
        <time>2021-11-28T12:39:57Z</time>
      </trkpt>
      <trkpt lat="43.45145" lon="6.59656">
        <ele>308.77463780344</ele>
        <time>2021-11-28T12:39:58Z</time>
      </trkpt>
      <trkpt lat="43.45145" lon="6.59656">
        <ele>308.77459086478</ele>
        <time>2021-11-28T12:39:59Z</time>
      </trkpt>
      <trkpt lat="43.45146" lon="6.59656">
        <ele>308.7745610252</ele>
        <time>2021-11-28T12:40:00Z</time>
      </trkpt>
      <trkpt lat="43.45147" lon="6.59656">
        <ele>308.77451710403</ele>
        <time>2021-11-28T12:40:01Z</time>
      </trkpt>
      <trkpt lat="43.45147" lon="6.59656">
        <ele>308.7744500488</ele>
        <time>2021-11-28T12:40:02Z</time>
      </trkpt>
      <trkpt lat="43.45148" lon="6.59656">
        <ele>307.77436991781</ele>
        <time>2021-11-28T12:40:03Z</time>
      </trkpt>
      <trkpt lat="43.45149" lon="6.59655">
        <ele>307.77427905798</ele>
        <time>2021-11-28T12:40:04Z</time>
      </trkpt>
      <trkpt lat="43.4515" lon="6.59655">
        <ele>307.7742029503</ele>
        <time>2021-11-28T12:40:05Z</time>
      </trkpt>
      <trkpt lat="43.4515" lon="6.59654">
        <ele>306.7741426006</ele>
        <time>2021-11-28T12:40:06Z</time>
      </trkpt>
      <trkpt lat="43.45152" lon="6.59654">
        <ele>305.7739964202</ele>
        <time>2021-11-28T12:40:08Z</time>
      </trkpt>
      <trkpt lat="43.45153" lon="6.59654">
        <ele>306.77392567694</ele>
        <time>2021-11-28T12:40:09Z</time>
      </trkpt>
      <trkpt lat="43.45153" lon="6.59653">
        <ele>306.77386901528</ele>
        <time>2021-11-28T12:40:10Z</time>
      </trkpt>
      <trkpt lat="43.45154" lon="6.59654">
        <ele>305.7738167122</ele>
        <time>2021-11-28T12:40:12Z</time>
      </trkpt>
      <trkpt lat="43.45155" lon="6.59654">
        <ele>303.77376139164</ele>
        <time>2021-11-28T12:40:14Z</time>
      </trkpt>
      <trkpt lat="43.45155" lon="6.59653">
        <ele>303.77371679991</ele>
        <time>2021-11-28T12:40:15Z</time>
      </trkpt>
      <trkpt lat="43.45156" lon="6.59652">
        <ele>303.77362895757</ele>
        <time>2021-11-28T12:40:16Z</time>
      </trkpt>
      <trkpt lat="43.45158" lon="6.59651">
        <ele>303.77342142165</ele>
        <time>2021-11-28T12:40:18Z</time>
      </trkpt>
      <trkpt lat="43.45159" lon="6.5965">
        <ele>303.77333994955</ele>
        <time>2021-11-28T12:40:19Z</time>
      </trkpt>
      <trkpt lat="43.45159" lon="6.5965">
        <ele>303.77329032868</ele>
        <time>2021-11-28T12:40:20Z</time>
      </trkpt>
      <trkpt lat="43.45159" lon="6.59649">
        <ele>302.77322293818</ele>
        <time>2021-11-28T12:40:21Z</time>
      </trkpt>
      <trkpt lat="43.45161" lon="6.59647">
        <ele>302.77303250134</ele>
        <time>2021-11-28T12:40:23Z</time>
      </trkpt>
      <trkpt lat="43.45162" lon="6.59647">
        <ele>302.77293527126</ele>
        <time>2021-11-28T12:40:24Z</time>
      </trkpt>
      <trkpt lat="43.45163" lon="6.59647">
        <ele>303.77285916358</ele>
        <time>2021-11-28T12:40:25Z</time>
      </trkpt>
      <trkpt lat="43.45164" lon="6.59647">
        <ele>302.77277500927</ele>
        <time>2021-11-28T12:40:27Z</time>
      </trkpt>
      <trkpt lat="43.45166" lon="6.59648">
        <ele>302.77264894545</ele>
        <time>2021-11-28T12:40:29Z</time>
      </trkpt>
      <trkpt lat="43.45167" lon="6.59648">
        <ele>302.77256210893</ele>
        <time>2021-11-28T12:40:30Z</time>
      </trkpt>
      <trkpt lat="43.45167" lon="6.59648">
        <ele>302.77252455801</ele>
        <time>2021-11-28T12:40:31Z</time>
      </trkpt>
      <trkpt lat="43.45168" lon="6.59647">
        <ele>302.77244912088</ele>
        <time>2021-11-28T12:40:32Z</time>
      </trkpt>
      <trkpt lat="43.45169" lon="6.59644">
        <ele>301.77225298434</ele>
        <time>2021-11-28T12:40:34Z</time>
      </trkpt>
      <trkpt lat="43.45169" lon="6.59643">
        <ele>300.77218827605</ele>
        <time>2021-11-28T12:40:35Z</time>
      </trkpt>
      <trkpt lat="43.4517" lon="6.59642">
        <ele>300.77212557942</ele>
        <time>2021-11-28T12:40:36Z</time>
      </trkpt>
      <trkpt lat="43.45171" lon="6.59642">
        <ele>299.77201460302</ele>
        <time>2021-11-28T12:40:38Z</time>
      </trkpt>
      <trkpt lat="43.45171" lon="6.59641">
        <ele>298.77198442817</ele>
        <time>2021-11-28T12:40:39Z</time>
      </trkpt>
      <trkpt lat="43.45171" lon="6.59641">
        <ele>298.77192441374</ele>
        <time>2021-11-28T12:40:40Z</time>
      </trkpt>
      <trkpt lat="43.45172" lon="6.5964">
        <ele>297.77180639654</ele>
        <time>2021-11-28T12:40:42Z</time>
      </trkpt>
      <trkpt lat="43.45173" lon="6.59639">
        <ele>297.77172257751</ele>
        <time>2021-11-28T12:40:46Z</time>
      </trkpt>
      <trkpt lat="43.45173" lon="6.59639">
        <ele>296.77171922475</ele>
        <time>2021-11-28T12:40:52Z</time>
      </trkpt>
      <trkpt lat="43.45174" lon="6.59637">
        <ele>296.77155728638</ele>
        <time>2021-11-28T12:40:54Z</time>
      </trkpt>
      <trkpt lat="43.45175" lon="6.59637">
        <ele>296.77147682011</ele>
        <time>2021-11-28T12:40:55Z</time>
      </trkpt>
      <trkpt lat="43.45175" lon="6.59636">
        <ele>296.77140104771</ele>
        <time>2021-11-28T12:40:56Z</time>
      </trkpt>
      <trkpt lat="43.45176" lon="6.59635">
        <ele>295.77131085843</ele>
        <time>2021-11-28T12:40:58Z</time>
      </trkpt>
      <trkpt lat="43.45176" lon="6.59634">
        <ele>295.77127297223</ele>
        <time>2021-11-28T12:40:59Z</time>
      </trkpt>
      <trkpt lat="43.45176" lon="6.59632">
        <ele>295.77123273909</ele>
        <time>2021-11-28T12:41:00Z</time>
      </trkpt>
      <trkpt lat="43.45176" lon="6.59631">
        <ele>295.77117909491</ele>
        <time>2021-11-28T12:41:01Z</time>
      </trkpt>
      <trkpt lat="43.45177" lon="6.59629">
        <ele>295.77105940133</ele>
        <time>2021-11-28T12:41:02Z</time>
      </trkpt>
      <trkpt lat="43.45177" lon="6.59628">
        <ele>295.77093836665</ele>
        <time>2021-11-28T12:41:03Z</time>
      </trkpt>
      <trkpt lat="43.45178" lon="6.59627">
        <ele>295.77085354179</ele>
        <time>2021-11-28T12:41:04Z</time>
      </trkpt>
      <trkpt lat="43.45178" lon="6.59626">
        <ele>293.77081800252</ele>
        <time>2021-11-28T12:41:09Z</time>
      </trkpt>
      <trkpt lat="43.45178" lon="6.59625">
        <ele>293.77078749239</ele>
        <time>2021-11-28T12:41:10Z</time>
      </trkpt>
      <trkpt lat="43.45178" lon="6.59624">
        <ele>292.7707593292</ele>
        <time>2021-11-28T12:41:12Z</time>
      </trkpt>
      <trkpt lat="43.45177" lon="6.59624">
        <ele>292.77077709883</ele>
        <time>2021-11-28T12:41:15Z</time>
      </trkpt>
      <trkpt lat="43.45177" lon="6.59623">
        <ele>291.77075999975</ele>
        <time>2021-11-28T12:41:16Z</time>
      </trkpt>
      <trkpt lat="43.45176" lon="6.59621">
        <ele>291.77077206969</ele>
        <time>2021-11-28T12:41:18Z</time>
      </trkpt>
      <trkpt lat="43.45176" lon="6.59621">
        <ele>291.77073284239</ele>
        <time>2021-11-28T12:41:19Z</time>
      </trkpt>
      <trkpt lat="43.45176" lon="6.5962">
        <ele>291.7706919387</ele>
        <time>2021-11-28T12:41:20Z</time>
      </trkpt>
      <trkpt lat="43.45176" lon="6.59619">
        <ele>291.77065572888</ele>
        <time>2021-11-28T12:41:21Z</time>
      </trkpt>
      <trkpt lat="43.45177" lon="6.59619">
        <ele>291.77060677856</ele>
        <time>2021-11-28T12:41:23Z</time>
      </trkpt>
      <trkpt lat="43.45177" lon="6.59617">
        <ele>290.77051055431</ele>
        <time>2021-11-28T12:41:24Z</time>
      </trkpt>
      <trkpt lat="43.45177" lon="6.59617">
        <ele>290.77046562731</ele>
        <time>2021-11-28T12:41:25Z</time>
      </trkpt>
      <trkpt lat="43.45177" lon="6.59617">
        <ele>289.77053570002</ele>
        <time>2021-11-28T12:41:37Z</time>
      </trkpt>
      <trkpt lat="43.45177" lon="6.59617">
        <ele>289.77054978162</ele>
        <time>2021-11-28T12:41:40Z</time>
      </trkpt>
      <trkpt lat="43.45176" lon="6.59615">
        <ele>288.77052128315</ele>
        <time>2021-11-28T12:41:41Z</time>
      </trkpt>
      <trkpt lat="43.45176" lon="6.59614">
        <ele>288.77046629786</ele>
        <time>2021-11-28T12:41:43Z</time>
      </trkpt>
      <trkpt lat="43.45176" lon="6.59613">
        <ele>287.77041365951</ele>
        <time>2021-11-28T12:41:45Z</time>
      </trkpt>
      <trkpt lat="43.45176" lon="6.59612">
        <ele>287.77036269754</ele>
        <time>2021-11-28T12:41:47Z</time>
      </trkpt>
      <trkpt lat="43.45177" lon="6.5961">
        <ele>287.77025675029</ele>
        <time>2021-11-28T12:41:49Z</time>
      </trkpt>
      <trkpt lat="43.45177" lon="6.59609">
        <ele>287.77018332481</ele>
        <time>2021-11-28T12:41:50Z</time>
      </trkpt>
      <trkpt lat="43.45178" lon="6.59608">
        <ele>287.77008676529</ele>
        <time>2021-11-28T12:41:51Z</time>
      </trkpt>
      <trkpt lat="43.45179" lon="6.59608">
        <ele>286.77002440393</ele>
        <time>2021-11-28T12:41:53Z</time>
      </trkpt>
      <trkpt lat="43.45179" lon="6.59607">
        <ele>286.76992616802</ele>
        <time>2021-11-28T12:41:54Z</time>
      </trkpt>
      <trkpt lat="43.4518" lon="6.59607">
        <ele>286.76986011863</ele>
        <time>2021-11-28T12:41:55Z</time>
      </trkpt>
      <trkpt lat="43.45181" lon="6.59607">
        <ele>285.76980412751</ele>
        <time>2021-11-28T12:41:57Z</time>
      </trkpt>
      <trkpt lat="43.45182" lon="6.59609">
        <ele>285.76980949193</ele>
        <time>2021-11-28T12:41:59Z</time>
      </trkpt>
      <trkpt lat="43.45182" lon="6.59607">
        <ele>285.76974176615</ele>
        <time>2021-11-28T12:42:00Z</time>
      </trkpt>
      <trkpt lat="43.45182" lon="6.59606">
        <ele>285.76965794712</ele>
        <time>2021-11-28T12:42:01Z</time>
      </trkpt>
      <trkpt lat="43.45183" lon="6.59605">
        <ele>284.76961067319</ele>
        <time>2021-11-28T12:42:02Z</time>
      </trkpt>
      <trkpt lat="43.45183" lon="6.59604">
        <ele>284.76952014863</ele>
        <time>2021-11-28T12:42:04Z</time>
      </trkpt>
      <trkpt lat="43.45183" lon="6.59603">
        <ele>284.76947421581</ele>
        <time>2021-11-28T12:42:06Z</time>
      </trkpt>
      <trkpt lat="43.45183" lon="6.59602">
        <ele>284.7694138661</ele>
        <time>2021-11-28T12:42:16Z</time>
      </trkpt>
      <trkpt lat="43.45184" lon="6.59601">
        <ele>283.76930255443</ele>
        <time>2021-11-28T12:42:17Z</time>
      </trkpt>
      <trkpt lat="43.45184" lon="6.59601">
        <ele>282.76928076148</ele>
        <time>2021-11-28T12:42:18Z</time>
      </trkpt>
      <trkpt lat="43.45185" lon="6.596">
        <ele>282.76921437681</ele>
        <time>2021-11-28T12:42:19Z</time>
      </trkpt>
      <trkpt lat="43.45186" lon="6.59599">
        <ele>281.76912552863</ele>
        <time>2021-11-28T12:42:20Z</time>
      </trkpt>
      <trkpt lat="43.45186" lon="6.59599">
        <ele>281.76906618476</ele>
        <time>2021-11-28T12:42:21Z</time>
      </trkpt>
      <trkpt lat="43.45186" lon="6.59598">
        <ele>281.76900449395</ele>
        <time>2021-11-28T12:42:24Z</time>
      </trkpt>
      <trkpt lat="43.45187" lon="6.59596">
        <ele>281.76888144761</ele>
        <time>2021-11-28T12:42:25Z</time>
      </trkpt>
      <trkpt lat="43.45187" lon="6.59595">
        <ele>281.76883786172</ele>
        <time>2021-11-28T12:42:27Z</time>
      </trkpt>
      <trkpt lat="43.45187" lon="6.59595">
        <ele>280.76880366355</ele>
        <time>2021-11-28T12:42:28Z</time>
      </trkpt>
      <trkpt lat="43.45188" lon="6.59594">
        <ele>280.76875270158</ele>
        <time>2021-11-28T12:42:29Z</time>
      </trkpt>
      <trkpt lat="43.45188" lon="6.59594">
        <ele>279.76867458224</ele>
        <time>2021-11-28T12:42:30Z</time>
      </trkpt>
      <trkpt lat="43.45189" lon="6.59593">
        <ele>279.76859243959</ele>
        <time>2021-11-28T12:42:31Z</time>
      </trkpt>
      <trkpt lat="43.4519" lon="6.59592">
        <ele>279.76846604049</ele>
        <time>2021-11-28T12:42:33Z</time>
      </trkpt>
      <trkpt lat="43.4519" lon="6.59592">
        <ele>279.76846604049</ele>
        <time>2021-11-28T12:42:34Z</time>
      </trkpt>
      <trkpt lat="43.45191" lon="6.59591">
        <ele>278.76836948097</ele>
        <time>2021-11-28T12:42:35Z</time>
      </trkpt>
      <trkpt lat="43.45192" lon="6.59589">
        <ele>278.76822665334</ele>
        <time>2021-11-28T12:42:37Z</time>
      </trkpt>
      <trkpt lat="43.45192" lon="6.59589">
        <ele>277.76816563308</ele>
        <time>2021-11-28T12:42:40Z</time>
      </trkpt>
      <trkpt lat="43.45194" lon="6.59587">
        <ele>277.76795206219</ele>
        <time>2021-11-28T12:42:41Z</time>
      </trkpt>
      <trkpt lat="43.45195" lon="6.59585">
        <ele>277.76781258732</ele>
        <time>2021-11-28T12:42:43Z</time>
      </trkpt>
      <trkpt lat="43.45195" lon="6.59585">
        <ele>277.7677622959</ele>
        <time>2021-11-28T12:42:49Z</time>
      </trkpt>
      <trkpt lat="43.45197" lon="6.59582">
        <ele>276.76752424985</ele>
        <time>2021-11-28T12:42:50Z</time>
      </trkpt>
      <trkpt lat="43.45198" lon="6.59583">
        <ele>275.76746691763</ele>
        <time>2021-11-28T12:42:52Z</time>
      </trkpt>
      <trkpt lat="43.45199" lon="6.59582">
        <ele>275.76736298203</ele>
        <time>2021-11-28T12:42:53Z</time>
      </trkpt>
      <trkpt lat="43.45199" lon="6.59581">
        <ele>275.76729693264</ele>
        <time>2021-11-28T12:42:54Z</time>
      </trkpt>
      <trkpt lat="43.452" lon="6.5958">
        <ele>275.76722618937</ele>
        <time>2021-11-28T12:42:55Z</time>
      </trkpt>
      <trkpt lat="43.452" lon="6.5958">
        <ele>276.76718696207</ele>
        <time>2021-11-28T12:43:00Z</time>
      </trkpt>
      <trkpt lat="43.45202" lon="6.59579">
        <ele>276.7669955194</ele>
        <time>2021-11-28T12:43:01Z</time>
      </trkpt>
      <trkpt lat="43.45203" lon="6.59578">
        <ele>276.76689560711</ele>
        <time>2021-11-28T12:43:02Z</time>
      </trkpt>
      <trkpt lat="43.45203" lon="6.59577">
        <ele>276.76682385802</ele>
        <time>2021-11-28T12:43:03Z</time>
      </trkpt>
      <trkpt lat="43.45204" lon="6.59577">
        <ele>276.76675546169</ele>
        <time>2021-11-28T12:43:11Z</time>
      </trkpt>
      <trkpt lat="43.45205" lon="6.59574">
        <ele>275.76655630767</ele>
        <time>2021-11-28T12:43:12Z</time>
      </trkpt>
      <trkpt lat="43.45206" lon="6.59574">
        <ele>274.7665110454</ele>
        <time>2021-11-28T12:43:14Z</time>
      </trkpt>
      <trkpt lat="43.45206" lon="6.59573">
        <ele>274.76644432545</ele>
        <time>2021-11-28T12:43:15Z</time>
      </trkpt>
      <trkpt lat="43.45207" lon="6.59573">
        <ele>274.76638263464</ele>
        <time>2021-11-28T12:43:16Z</time>
      </trkpt>
      <trkpt lat="43.45207" lon="6.59573">
        <ele>275.7663340196</ele>
        <time>2021-11-28T12:43:21Z</time>
      </trkpt>
      <trkpt lat="43.45208" lon="6.59571">
        <ele>274.76622237265</ele>
        <time>2021-11-28T12:43:22Z</time>
      </trkpt>
      <trkpt lat="43.45208" lon="6.59571">
        <ele>273.76616403461</ele>
        <time>2021-11-28T12:43:23Z</time>
      </trkpt>
      <trkpt lat="43.45209" lon="6.5957">
        <ele>273.76611173153</ele>
        <time>2021-11-28T12:43:24Z</time>
      </trkpt>
      <trkpt lat="43.45209" lon="6.5957">
        <ele>273.76603528857</ele>
        <time>2021-11-28T12:43:26Z</time>
      </trkpt>
      <trkpt lat="43.4521" lon="6.5957">
        <ele>273.76600209624</ele>
        <time>2021-11-28T12:43:27Z</time>
      </trkpt>
      <trkpt lat="43.4521" lon="6.59569">
        <ele>273.76594912261</ele>
        <time>2021-11-28T12:43:30Z</time>
      </trkpt>
      <trkpt lat="43.45211" lon="6.5957">
        <ele>272.76592732966</ele>
        <time>2021-11-28T12:43:32Z</time>
      </trkpt>
      <trkpt lat="43.45212" lon="6.5957">
        <ele>272.76584082842</ele>
        <time>2021-11-28T12:43:34Z</time>
      </trkpt>
      <trkpt lat="43.45213" lon="6.5957">
        <ele>272.76579523087</ele>
        <time>2021-11-28T12:43:35Z</time>
      </trkpt>
      <trkpt lat="43.45213" lon="6.5957">
        <ele>272.76572147012</ele>
        <time>2021-11-28T12:43:39Z</time>
      </trkpt>
      <trkpt lat="43.45214" lon="6.5957">
        <ele>271.76565340906</ele>
        <time>2021-11-28T12:43:40Z</time>
      </trkpt>
      <trkpt lat="43.45215" lon="6.59569">
        <ele>271.76553606242</ele>
        <time>2021-11-28T12:43:42Z</time>
      </trkpt>
      <trkpt lat="43.45216" lon="6.59569">
        <ele>271.76545660198</ele>
        <time>2021-11-28T12:43:44Z</time>
      </trkpt>
      <trkpt lat="43.45218" lon="6.5957">
        <ele>271.76539994031</ele>
        <time>2021-11-28T12:43:45Z</time>
      </trkpt>
      <trkpt lat="43.45218" lon="6.5957">
        <ele>270.76535065472</ele>
        <time>2021-11-28T12:43:48Z</time>
      </trkpt>
      <trkpt lat="43.45219" lon="6.59569">
        <ele>270.76525845379</ele>
        <time>2021-11-28T12:43:49Z</time>
      </trkpt>
      <trkpt lat="43.4522" lon="6.59569">
        <ele>269.76517027617</ele>
        <time>2021-11-28T12:43:50Z</time>
      </trkpt>
      <trkpt lat="43.45221" lon="6.5957">
        <ele>269.7651431188</ele>
        <time>2021-11-28T12:43:52Z</time>
      </trkpt>
      <trkpt lat="43.45221" lon="6.59571">
        <ele>267.76515083015</ele>
        <time>2021-11-28T12:43:54Z</time>
      </trkpt>
      <trkpt lat="43.45222" lon="6.59572">
        <ele>267.76507405192</ele>
        <time>2021-11-28T12:43:55Z</time>
      </trkpt>
      <trkpt lat="43.45223" lon="6.59571">
        <ele>266.76500632614</ele>
        <time>2021-11-28T12:43:59Z</time>
      </trkpt>
      <trkpt lat="43.45224" lon="6.59571">
        <ele>264.76492049545</ele>
        <time>2021-11-28T12:44:04Z</time>
      </trkpt>
      <trkpt lat="43.45224" lon="6.5957">
        <ele>264.764876239</ele>
        <time>2021-11-28T12:44:05Z</time>
      </trkpt>
      <trkpt lat="43.45225" lon="6.5957">
        <ele>264.76480817795</ele>
        <time>2021-11-28T12:44:06Z</time>
      </trkpt>
      <trkpt lat="43.45226" lon="6.59569">
        <ele>262.76468278468</ele>
        <time>2021-11-28T12:44:08Z</time>
      </trkpt>
      <trkpt lat="43.45225" lon="6.59569">
        <ele>261.7647344172</ele>
        <time>2021-11-28T12:44:10Z</time>
      </trkpt>
      <trkpt lat="43.45225" lon="6.59568">
        <ele>259.76477029175</ele>
        <time>2021-11-28T12:44:12Z</time>
      </trkpt>
      <trkpt lat="43.45225" lon="6.59567">
        <ele>260.76466736197</ele>
        <time>2021-11-28T12:44:14Z</time>
      </trkpt>
      <trkpt lat="43.45225" lon="6.59566">
        <ele>260.764606677</ele>
        <time>2021-11-28T12:44:19Z</time>
      </trkpt>
      <trkpt lat="43.45227" lon="6.59565">
        <ele>260.76446854323</ele>
        <time>2021-11-28T12:44:20Z</time>
      </trkpt>
      <trkpt lat="43.45227" lon="6.59564">
        <ele>258.76442059875</ele>
        <time>2021-11-28T12:44:23Z</time>
      </trkpt>
      <trkpt lat="43.45227" lon="6.59563">
        <ele>258.76438841224</ele>
        <time>2021-11-28T12:44:24Z</time>
      </trkpt>
      <trkpt lat="43.45227" lon="6.59562">
        <ele>257.76433812082</ele>
        <time>2021-11-28T12:44:25Z</time>
      </trkpt>
      <trkpt lat="43.45228" lon="6.59562">
        <ele>257.76428280026</ele>
        <time>2021-11-28T12:44:27Z</time>
      </trkpt>
      <trkpt lat="43.45228" lon="6.59561">
        <ele>257.76421909779</ele>
        <time>2021-11-28T12:44:28Z</time>
      </trkpt>
      <trkpt lat="43.45228" lon="6.5956">
        <ele>256.76413930207</ele>
        <time>2021-11-28T12:44:29Z</time>
      </trkpt>
      <trkpt lat="43.45229" lon="6.5956">
        <ele>256.76407727599</ele>
        <time>2021-11-28T12:44:30Z</time>
      </trkpt>
      <trkpt lat="43.4523" lon="6.59559">
        <ele>256.76400217414</ele>
        <time>2021-11-28T12:44:36Z</time>
      </trkpt>
      <trkpt lat="43.45229" lon="6.59557">
        <ele>254.76395087689</ele>
        <time>2021-11-28T12:44:37Z</time>
      </trkpt>
      <trkpt lat="43.45229" lon="6.59557">
        <ele>253.76391969621</ele>
        <time>2021-11-28T12:44:39Z</time>
      </trkpt>
      <trkpt lat="43.4523" lon="6.59555">
        <ele>253.76384895295</ele>
        <time>2021-11-28T12:44:40Z</time>
      </trkpt>
      <trkpt lat="43.4523" lon="6.59555">
        <ele>253.76384895295</ele>
        <time>2021-11-28T12:44:41Z</time>
      </trkpt>
      <trkpt lat="43.45231" lon="6.59554">
        <ele>252.763692379</ele>
        <time>2021-11-28T12:44:43Z</time>
      </trkpt>
      <trkpt lat="43.45231" lon="6.59552">
        <ele>252.76355290413</ele>
        <time>2021-11-28T12:44:44Z</time>
      </trkpt>
      <trkpt lat="43.45232" lon="6.59551">
        <ele>252.76344293356</ele>
        <time>2021-11-28T12:44:45Z</time>
      </trkpt>
      <trkpt lat="43.45232" lon="6.59549">
        <ele>252.76344259828</ele>
        <time>2021-11-28T12:44:47Z</time>
      </trkpt>
      <trkpt lat="43.45231" lon="6.59549">
        <ele>252.76343756914</ele>
        <time>2021-11-28T12:44:51Z</time>
      </trkpt>
      <trkpt lat="43.45232" lon="6.59548">
        <ele>249.76337856054</ele>
        <time>2021-11-28T12:44:54Z</time>
      </trkpt>
      <trkpt lat="43.45232" lon="6.59548">
        <ele>249.76331988722</ele>
        <time>2021-11-28T12:44:55Z</time>
      </trkpt>
      <trkpt lat="43.45233" lon="6.59547">
        <ele>249.76324042678</ele>
        <time>2021-11-28T12:44:57Z</time>
      </trkpt>
      <trkpt lat="43.45234" lon="6.59547">
        <ele>249.76316532493</ele>
        <time>2021-11-28T12:44:58Z</time>
      </trkpt>
      <trkpt lat="43.45235" lon="6.59547">
        <ele>250.76309860498</ele>
        <time>2021-11-28T12:44:59Z</time>
      </trkpt>
      <trkpt lat="43.45235" lon="6.59546">
        <ele>250.76303255558</ele>
        <time>2021-11-28T12:45:00Z</time>
      </trkpt>
      <trkpt lat="43.45236" lon="6.59546">
        <ele>250.7629789114</ele>
        <time>2021-11-28T12:45:02Z</time>
      </trkpt>
      <trkpt lat="43.45237" lon="6.59545">
        <ele>250.76286491752</ele>
        <time>2021-11-28T12:45:04Z</time>
      </trkpt>
      <trkpt lat="43.45237" lon="6.59545">
        <ele>249.76284580678</ele>
        <time>2021-11-28T12:45:06Z</time>
      </trkpt>
      <trkpt lat="43.45239" lon="6.59545">
        <ele>249.76271605492</ele>
        <time>2021-11-28T12:45:08Z</time>
      </trkpt>
      <trkpt lat="43.45238" lon="6.59545">
        <ele>246.76275058836</ele>
        <time>2021-11-28T12:45:14Z</time>
      </trkpt>
      <trkpt lat="43.45238" lon="6.59544">
        <ele>246.76270264387</ele>
        <time>2021-11-28T12:45:15Z</time>
      </trkpt>
      <trkpt lat="43.45239" lon="6.59543">
        <ele>246.76263994724</ele>
        <time>2021-11-28T12:45:17Z</time>
      </trkpt>
      <trkpt lat="43.45239" lon="6.59542">
        <ele>247.76254975796</ele>
        <time>2021-11-28T12:45:19Z</time>
      </trkpt>
      <trkpt lat="43.45239" lon="6.59542">
        <ele>247.76254975796</ele>
        <time>2021-11-28T12:45:20Z</time>
      </trkpt>
      <trkpt lat="43.4524" lon="6.59541">
        <ele>246.76241866499</ele>
        <time>2021-11-28T12:45:21Z</time>
      </trkpt>
      <trkpt lat="43.45242" lon="6.5954">
        <ele>247.76225974411</ele>
        <time>2021-11-28T12:45:23Z</time>
      </trkpt>
      <trkpt lat="43.45242" lon="6.59539">
        <ele>247.76216989011</ele>
        <time>2021-11-28T12:45:24Z</time>
      </trkpt>
      <trkpt lat="43.45243" lon="6.59538">
        <ele>248.76211557537</ele>
        <time>2021-11-28T12:45:25Z</time>
      </trkpt>
      <trkpt lat="43.45243" lon="6.59537">
        <ele>248.76206796616</ele>
        <time>2021-11-28T12:45:26Z</time>
      </trkpt>
      <trkpt lat="43.45243" lon="6.59537">
        <ele>247.76206059009</ele>
        <time>2021-11-28T12:45:30Z</time>
      </trkpt>
      <trkpt lat="43.45242" lon="6.59534">
        <ele>246.76201700419</ele>
        <time>2021-11-28T12:45:32Z</time>
      </trkpt>
      <trkpt lat="43.45241" lon="6.59533">
        <ele>246.76203879714</ele>
        <time>2021-11-28T12:45:33Z</time>
      </trkpt>
      <trkpt lat="43.45241" lon="6.59532">
        <ele>245.76203443855</ele>
        <time>2021-11-28T12:45:34Z</time>
      </trkpt>
      <trkpt lat="43.4524" lon="6.59532">
        <ele>245.7620646134</ele>
        <time>2021-11-28T12:45:35Z</time>
      </trkpt>
      <trkpt lat="43.4524" lon="6.59531">
        <ele>244.76206662506</ele>
        <time>2021-11-28T12:45:36Z</time>
      </trkpt>
      <trkpt lat="43.4524" lon="6.5953">
        <ele>244.76202438027</ele>
        <time>2021-11-28T12:45:37Z</time>
      </trkpt>
      <trkpt lat="43.45241" lon="6.59528">
        <ele>244.76186009496</ele>
        <time>2021-11-28T12:45:39Z</time>
      </trkpt>
      <trkpt lat="43.45241" lon="6.59527">
        <ele>243.76183830202</ele>
        <time>2021-11-28T12:45:40Z</time>
      </trkpt>
      <trkpt lat="43.45241" lon="6.59526">
        <ele>244.76180779189</ele>
        <time>2021-11-28T12:45:43Z</time>
      </trkpt>
      <trkpt lat="43.45241" lon="6.59525">
        <ele>244.7616994977</ele>
        <time>2021-11-28T12:45:44Z</time>
      </trkpt>
      <trkpt lat="43.45242" lon="6.59525">
        <ele>243.76164484769</ele>
        <time>2021-11-28T12:45:45Z</time>
      </trkpt>
      <trkpt lat="43.45242" lon="6.59524">
        <ele>243.76156874001</ele>
        <time>2021-11-28T12:45:46Z</time>
      </trkpt>
      <trkpt lat="43.45243" lon="6.59524">
        <ele>243.76152347773</ele>
        <time>2021-11-28T12:45:47Z</time>
      </trkpt>
      <trkpt lat="43.45244" lon="6.59523">
        <ele>242.76140478998</ele>
        <time>2021-11-28T12:45:49Z</time>
      </trkpt>
      <trkpt lat="43.45243" lon="6.59522">
        <ele>243.7614255771</ele>
        <time>2021-11-28T12:45:51Z</time>
      </trkpt>
      <trkpt lat="43.45243" lon="6.59521">
        <ele>242.76137159765</ele>
        <time>2021-11-28T12:45:53Z</time>
      </trkpt>
      <trkpt lat="43.45243" lon="6.5952">
        <ele>241.76135986298</ele>
        <time>2021-11-28T12:45:55Z</time>
      </trkpt>
      <trkpt lat="43.45243" lon="6.59519">
        <ele>241.76127604395</ele>
        <time>2021-11-28T12:45:57Z</time>
      </trkpt>
      <trkpt lat="43.45244" lon="6.59516">
        <ele>239.7611573562</ele>
        <time>2021-11-28T12:45:59Z</time>
      </trkpt>
      <trkpt lat="43.45244" lon="6.59514">
        <ele>240.76107756048</ele>
        <time>2021-11-28T12:46:00Z</time>
      </trkpt>
      <trkpt lat="43.45244" lon="6.59513">
        <ele>240.76102894545</ele>
        <time>2021-11-28T12:46:01Z</time>
      </trkpt>
      <trkpt lat="43.45243" lon="6.59511">
        <ele>239.76105140895</ele>
        <time>2021-11-28T12:46:03Z</time>
      </trkpt>
      <trkpt lat="43.45243" lon="6.5951">
        <ele>238.76100078225</ele>
        <time>2021-11-28T12:46:06Z</time>
      </trkpt>
      <trkpt lat="43.45243" lon="6.59508">
        <ele>237.76087907702</ele>
        <time>2021-11-28T12:46:07Z</time>
      </trkpt>
      <trkpt lat="43.45243" lon="6.59507">
        <ele>237.76082945615</ele>
        <time>2021-11-28T12:46:08Z</time>
      </trkpt>
      <trkpt lat="43.45244" lon="6.59506">
        <ele>237.76071009785</ele>
        <time>2021-11-28T12:46:09Z</time>
      </trkpt>
      <trkpt lat="43.45245" lon="6.59504">
        <ele>236.76054346561</ele>
        <time>2021-11-28T12:46:10Z</time>
      </trkpt>
      <trkpt lat="43.45247" lon="6.59503">
        <ele>236.76035772264</ele>
        <time>2021-11-28T12:46:12Z</time>
      </trkpt>
      <trkpt lat="43.45248" lon="6.59502">
        <ele>236.76022730023</ele>
        <time>2021-11-28T12:46:14Z</time>
      </trkpt>
      <trkpt lat="43.45248" lon="6.59501">
        <ele>236.76016225666</ele>
        <time>2021-11-28T12:46:15Z</time>
      </trkpt>
      <trkpt lat="43.45249" lon="6.59501">
        <ele>235.76013208181</ele>
        <time>2021-11-28T12:46:17Z</time>
      </trkpt>
      <trkpt lat="43.4525" lon="6.59499">
        <ele>234.75999629498</ele>
        <time>2021-11-28T12:46:19Z</time>
      </trkpt>
      <trkpt lat="43.4525" lon="6.59498">
        <ele>234.75991683453</ele>
        <time>2021-11-28T12:46:20Z</time>
      </trkpt>
      <trkpt lat="43.45251" lon="6.59497">
        <ele>234.75986050814</ele>
        <time>2021-11-28T12:46:21Z</time>
      </trkpt>
      <trkpt lat="43.45251" lon="6.59497">
        <ele>235.75976394862</ele>
        <time>2021-11-28T12:46:22Z</time>
      </trkpt>
      <trkpt lat="43.45253" lon="6.59495">
        <ele>236.75958088785</ele>
        <time>2021-11-28T12:46:24Z</time>
      </trkpt>
      <trkpt lat="43.45253" lon="6.59495">
        <ele>236.75952288508</ele>
        <time>2021-11-28T12:46:25Z</time>
      </trkpt>
      <trkpt lat="43.45254" lon="6.59496">
        <ele>236.75950779766</ele>
        <time>2021-11-28T12:46:26Z</time>
      </trkpt>
      <trkpt lat="43.45255" lon="6.59497">
        <ele>236.75946320593</ele>
        <time>2021-11-28T12:46:27Z</time>
      </trkpt>
      <trkpt lat="43.45256" lon="6.59498">
        <ele>237.75940218568</ele>
        <time>2021-11-28T12:46:28Z</time>
      </trkpt>
      <trkpt lat="43.45257" lon="6.59498">
        <ele>237.75937569886</ele>
        <time>2021-11-28T12:46:29Z</time>
      </trkpt>
      <trkpt lat="43.45257" lon="6.59497">
        <ele>237.7592965737</ele>
        <time>2021-11-28T12:46:30Z</time>
      </trkpt>
      <trkpt lat="43.45258" lon="6.59498">
        <ele>237.759236224</ele>
        <time>2021-11-28T12:46:32Z</time>
      </trkpt>
      <trkpt lat="43.45259" lon="6.59498">
        <ele>235.75918626785</ele>
        <time>2021-11-28T12:46:36Z</time>
      </trkpt>
      <trkpt lat="43.4526" lon="6.59498">
        <ele>233.75915307552</ele>
        <time>2021-11-28T12:46:38Z</time>
      </trkpt>
      <trkpt lat="43.45259" lon="6.59496">
        <ele>234.75912994146</ele>
        <time>2021-11-28T12:46:39Z</time>
      </trkpt>
      <trkpt lat="43.45258" lon="6.59496">
        <ele>233.75915106386</ele>
        <time>2021-11-28T12:46:40Z</time>
      </trkpt>
      <trkpt lat="43.45258" lon="6.59496">
        <ele>232.75924192369</ele>
        <time>2021-11-28T12:46:41Z</time>
      </trkpt>
      <trkpt lat="43.45258" lon="6.59496">
        <ele>232.75924192369</ele>
        <time>2021-11-28T12:46:46Z</time>
      </trkpt>
      <trkpt lat="43.45258" lon="6.59494">
        <ele>231.75909406692</ele>
        <time>2021-11-28T12:46:47Z</time>
      </trkpt>
      <trkpt lat="43.45258" lon="6.59495">
        <ele>233.75916112214</ele>
        <time>2021-11-28T12:46:52Z</time>
      </trkpt>
      <trkpt lat="43.45259" lon="6.59496">
        <ele>232.75913731754</ele>
        <time>2021-11-28T12:46:56Z</time>
      </trkpt>
      <trkpt lat="43.45259" lon="6.59496">
        <ele>232.75910546631</ele>
        <time>2021-11-28T12:46:57Z</time>
      </trkpt>
      <trkpt lat="43.45259" lon="6.59495">
        <ele>232.75904846936</ele>
        <time>2021-11-28T12:47:04Z</time>
      </trkpt>
      <trkpt lat="43.45259" lon="6.59493">
        <ele>231.75897973776</ele>
        <time>2021-11-28T12:47:05Z</time>
      </trkpt>
      <trkpt lat="43.45259" lon="6.59492">
        <ele>231.75899147242</ele>
        <time>2021-11-28T12:47:06Z</time>
      </trkpt>
      <trkpt lat="43.45259" lon="6.59491">
        <ele>231.75895693898</ele>
        <time>2021-11-28T12:47:07Z</time>
      </trkpt>
      <trkpt lat="43.45258" lon="6.59491">
        <ele>231.75898778439</ele>
        <time>2021-11-28T12:47:08Z</time>
      </trkpt>
      <trkpt lat="43.45258" lon="6.5949">
        <ele>231.75899750739</ele>
        <time>2021-11-28T12:47:11Z</time>
      </trkpt>
      <trkpt lat="43.45258" lon="6.59489">
        <ele>231.7589468807</ele>
        <time>2021-11-28T12:47:12Z</time>
      </trkpt>
      <trkpt lat="43.45258" lon="6.59489">
        <ele>232.7589116767</ele>
        <time>2021-11-28T12:47:13Z</time>
      </trkpt>
      <trkpt lat="43.45259" lon="6.59489">
        <ele>232.75884663314</ele>
        <time>2021-11-28T12:47:14Z</time>
      </trkpt>
      <trkpt lat="43.45259" lon="6.59488">
        <ele>231.75878058374</ele>
        <time>2021-11-28T12:47:15Z</time>
      </trkpt>
      <trkpt lat="43.4526" lon="6.59487">
        <ele>231.75871554017</ele>
        <time>2021-11-28T12:47:16Z</time>
      </trkpt>
      <trkpt lat="43.4526" lon="6.59487">
        <ele>231.75865217298</ele>
        <time>2021-11-28T12:47:19Z</time>
      </trkpt>
      <trkpt lat="43.45261" lon="6.59484">
        <ele>230.75846575946</ele>
        <time>2021-11-28T12:47:20Z</time>
      </trkpt>
      <trkpt lat="43.45262" lon="6.59483">
        <ele>229.75839903951</ele>
        <time>2021-11-28T12:47:21Z</time>
      </trkpt>
      <trkpt lat="43.45262" lon="6.59482">
        <ele>230.75836215913</ele>
        <time>2021-11-28T12:47:22Z</time>
      </trkpt>
      <trkpt lat="43.45262" lon="6.59481">
        <ele>230.75832796097</ele>
        <time>2021-11-28T12:47:25Z</time>
      </trkpt>
      <trkpt lat="43.45262" lon="6.59478">
        <ele>229.75811941922</ele>
        <time>2021-11-28T12:47:26Z</time>
      </trkpt>
      <trkpt lat="43.45263" lon="6.59477">
        <ele>229.75806543976</ele>
        <time>2021-11-28T12:47:27Z</time>
      </trkpt>
      <trkpt lat="43.45263" lon="6.59476">
        <ele>228.75802185386</ele>
        <time>2021-11-28T12:47:28Z</time>
      </trkpt>
      <trkpt lat="43.45264" lon="6.59476">
        <ele>228.75793669373</ele>
        <time>2021-11-28T12:47:29Z</time>
      </trkpt>
      <trkpt lat="43.45265" lon="6.59475">
        <ele>227.75783275813</ele>
        <time>2021-11-28T12:47:30Z</time>
      </trkpt>
      <trkpt lat="43.45265" lon="6.59475">
        <ele>227.75777240843</ele>
        <time>2021-11-28T12:47:31Z</time>
      </trkpt>
      <trkpt lat="43.45265" lon="6.59474">
        <ele>227.75771071762</ele>
        <time>2021-11-28T12:47:32Z</time>
      </trkpt>
      <trkpt lat="43.45266" lon="6.5947">
        <ele>228.75750385225</ele>
        <time>2021-11-28T12:47:34Z</time>
      </trkpt>
      <trkpt lat="43.45266" lon="6.59469">
        <ele>228.75748306513</ele>
        <time>2021-11-28T12:47:35Z</time>
      </trkpt>
      <trkpt lat="43.45266" lon="6.59467">
        <ele>228.75741668046</ele>
        <time>2021-11-28T12:47:36Z</time>
      </trkpt>
      <trkpt lat="43.45265" lon="6.59467">
        <ele>228.75744987279</ele>
        <time>2021-11-28T12:47:40Z</time>
      </trkpt>
      <trkpt lat="43.45265" lon="6.59465">
        <ele>229.75738985837</ele>
        <time>2021-11-28T12:47:42Z</time>
      </trkpt>
      <trkpt lat="43.45264" lon="6.59463">
        <ele>229.75739555806</ele>
        <time>2021-11-28T12:47:44Z</time>
      </trkpt>
      <trkpt lat="43.45264" lon="6.59461">
        <ele>229.7573345378</ele>
        <time>2021-11-28T12:47:45Z</time>
      </trkpt>
      <trkpt lat="43.45264" lon="6.5946">
        <ele>229.75726211816</ele>
        <time>2021-11-28T12:47:46Z</time>
      </trkpt>
      <trkpt lat="43.45265" lon="6.59458">
        <ele>229.75716354698</ele>
        <time>2021-11-28T12:47:48Z</time>
      </trkpt>
      <trkpt lat="43.45265" lon="6.59458">
        <ele>229.75716354698</ele>
        <time>2021-11-28T12:47:49Z</time>
      </trkpt>
      <trkpt lat="43.45266" lon="6.59455">
        <ele>229.75693354756</ele>
        <time>2021-11-28T12:47:50Z</time>
      </trkpt>
      <trkpt lat="43.45266" lon="6.59454">
        <ele>229.75684503466</ele>
        <time>2021-11-28T12:47:51Z</time>
      </trkpt>
      <trkpt lat="43.45266" lon="6.59455">
        <ele>228.75688962638</ele>
        <time>2021-11-28T12:47:59Z</time>
      </trkpt>
      <trkpt lat="43.45266" lon="6.59456">
        <ele>227.75690873712</ele>
        <time>2021-11-28T12:48:00Z</time>
      </trkpt>
      <trkpt lat="43.45267" lon="6.59456">
        <ele>227.75691376626</ele>
        <time>2021-11-28T12:48:04Z</time>
      </trkpt>
      <trkpt lat="43.45268" lon="6.59458">
        <ele>226.75687755644</ele>
        <time>2021-11-28T12:48:05Z</time>
      </trkpt>
      <trkpt lat="43.45268" lon="6.59458">
        <ele>225.7568500638</ele>
        <time>2021-11-28T12:48:10Z</time>
      </trkpt>
      <trkpt lat="43.45269" lon="6.59458">
        <ele>224.75679206103</ele>
        <time>2021-11-28T12:48:14Z</time>
      </trkpt>
      <trkpt lat="43.4527" lon="6.59456">
        <ele>224.75667102635</ele>
        <time>2021-11-28T12:48:15Z</time>
      </trkpt>
      <trkpt lat="43.45269" lon="6.59453">
        <ele>224.75661637634</ele>
        <time>2021-11-28T12:48:17Z</time>
      </trkpt>
      <trkpt lat="43.45271" lon="6.5945">
        <ele>224.75636089593</ele>
        <time>2021-11-28T12:48:19Z</time>
      </trkpt>
      <trkpt lat="43.45271" lon="6.59448">
        <ele>224.75623784959</ele>
        <time>2021-11-28T12:48:20Z</time>
      </trkpt>
      <trkpt lat="43.45271" lon="6.59446">
        <ele>224.75615134835</ele>
        <time>2021-11-28T12:48:21Z</time>
      </trkpt>
      <trkpt lat="43.45273" lon="6.59444">
        <ele>224.75591766089</ele>
        <time>2021-11-28T12:48:23Z</time>
      </trkpt>
      <trkpt lat="43.45274" lon="6.59442">
        <ele>224.75577718019</ele>
        <time>2021-11-28T12:48:24Z</time>
      </trkpt>
      <trkpt lat="43.45274" lon="6.5944">
        <ele>225.75568933785</ele>
        <time>2021-11-28T12:48:25Z</time>
      </trkpt>
      <trkpt lat="43.45274" lon="6.59437">
        <ele>224.7555398047</ele>
        <time>2021-11-28T12:48:27Z</time>
      </trkpt>
      <trkpt lat="43.45274" lon="6.59435">
        <ele>224.75543955714</ele>
        <time>2021-11-28T12:48:28Z</time>
      </trkpt>
      <trkpt lat="43.45274" lon="6.59434">
        <ele>224.75545699149</ele>
        <time>2021-11-28T12:48:29Z</time>
      </trkpt>
      <trkpt lat="43.45273" lon="6.59433">
        <ele>223.75551298261</ele>
        <time>2021-11-28T12:48:30Z</time>
      </trkpt>
      <trkpt lat="43.45272" lon="6.59432">
        <ele>223.75550862402</ele>
        <time>2021-11-28T12:48:31Z</time>
      </trkpt>
      <trkpt lat="43.45272" lon="6.59432">
        <ele>222.75552907586</ele>
        <time>2021-11-28T12:48:33Z</time>
      </trkpt>
      <trkpt lat="43.45271" lon="6.59431">
        <ele>222.75554349273</ele>
        <time>2021-11-28T12:48:34Z</time>
      </trkpt>
      <trkpt lat="43.45271" lon="6.59431">
        <ele>222.75560250133</ele>
        <time>2021-11-28T12:48:35Z</time>
      </trkpt>
      <trkpt lat="43.45269" lon="6.5943">
        <ele>222.75570476055</ele>
        <time>2021-11-28T12:48:37Z</time>
      </trkpt>
      <trkpt lat="43.45266" lon="6.59429">
        <ele>221.75591296703</ele>
        <time>2021-11-28T12:48:39Z</time>
      </trkpt>
      <trkpt lat="43.45264" lon="6.59429">
        <ele>220.75605210662</ele>
        <time>2021-11-28T12:48:40Z</time>
      </trkpt>
      <trkpt lat="43.45263" lon="6.59429">
        <ele>220.75612217933</ele>
        <time>2021-11-28T12:48:41Z</time>
      </trkpt>
      <trkpt lat="43.45262" lon="6.59428">
        <ele>219.75617012382</ele>
        <time>2021-11-28T12:48:43Z</time>
      </trkpt>
      <trkpt lat="43.45261" lon="6.59427">
        <ele>219.75617112964</ele>
        <time>2021-11-28T12:48:44Z</time>
      </trkpt>
      <trkpt lat="43.45261" lon="6.59425">
        <ele>218.75613491982</ele>
        <time>2021-11-28T12:48:45Z</time>
      </trkpt>
      <trkpt lat="43.45261" lon="6.59423">
        <ele>218.75604070723</ele>
        <time>2021-11-28T12:48:46Z</time>
      </trkpt>
      <trkpt lat="43.45261" lon="6.5942">
        <ele>217.75593543053</ele>
        <time>2021-11-28T12:48:48Z</time>
      </trkpt>
      <trkpt lat="43.4526" lon="6.59419">
        <ele>217.75595655292</ele>
        <time>2021-11-28T12:48:49Z</time>
      </trkpt>
      <trkpt lat="43.45259" lon="6.59418">
        <ele>217.75601287931</ele>
        <time>2021-11-28T12:48:50Z</time>
      </trkpt>
      <trkpt lat="43.45256" lon="6.59417">
        <ele>217.75616375357</ele>
        <time>2021-11-28T12:48:52Z</time>
      </trkpt>
      <trkpt lat="43.45255" lon="6.59414">
        <ele>218.75616945326</ele>
        <time>2021-11-28T12:48:54Z</time>
      </trkpt>
      <trkpt lat="43.45254" lon="6.59412">
        <ele>219.7561647594</ele>
        <time>2021-11-28T12:48:55Z</time>
      </trkpt>
      <trkpt lat="43.45254" lon="6.59411">
        <ele>219.75613827258</ele>
        <time>2021-11-28T12:48:56Z</time>
      </trkpt>
      <trkpt lat="43.45254" lon="6.59411">
        <ele>219.75612553209</ele>
        <time>2021-11-28T12:48:57Z</time>
      </trkpt>
      <trkpt lat="43.45254" lon="6.59409">
        <ele>218.75604607165</ele>
        <time>2021-11-28T12:48:58Z</time>
      </trkpt>
      <trkpt lat="43.45254" lon="6.59408">
        <ele>218.7560158968</ele>
        <time>2021-11-28T12:48:59Z</time>
      </trkpt>
      <trkpt lat="43.45253" lon="6.59406">
        <ele>217.7559947744</ele>
        <time>2021-11-28T12:49:00Z</time>
      </trkpt>
      <trkpt lat="43.45253" lon="6.59405">
        <ele>217.75599846244</ele>
        <time>2021-11-28T12:49:01Z</time>
      </trkpt>
      <trkpt lat="43.45252" lon="6.59404">
        <ele>217.75599879771</ele>
        <time>2021-11-28T12:49:02Z</time>
      </trkpt>
      <trkpt lat="43.45251" lon="6.59402">
        <ele>218.75598739833</ele>
        <time>2021-11-28T12:49:03Z</time>
      </trkpt>
      <trkpt lat="43.45251" lon="6.594">
        <ele>217.75590961426</ele>
        <time>2021-11-28T12:49:04Z</time>
      </trkpt>
      <trkpt lat="43.45251" lon="6.59398">
        <ele>217.75580903143</ele>
        <time>2021-11-28T12:49:05Z</time>
      </trkpt>
      <trkpt lat="43.45252" lon="6.59396">
        <ele>217.75565581024</ele>
        <time>2021-11-28T12:49:06Z</time>
      </trkpt>
      <trkpt lat="43.45253" lon="6.59395">
        <ele>217.75553578138</ele>
        <time>2021-11-28T12:49:07Z</time>
      </trkpt>
      <trkpt lat="43.45255" lon="6.59395">
        <ele>217.75541877002</ele>
        <time>2021-11-28T12:49:08Z</time>
      </trkpt>
      <trkpt lat="43.45256" lon="6.59395">
        <ele>217.75533394516</ele>
        <time>2021-11-28T12:49:09Z</time>
      </trkpt>
      <trkpt lat="43.45257" lon="6.59395">
        <ele>217.75526253134</ele>
        <time>2021-11-28T12:49:10Z</time>
      </trkpt>
      <trkpt lat="43.45259" lon="6.59397">
        <ele>217.75519648194</ele>
        <time>2021-11-28T12:49:12Z</time>
      </trkpt>
      <trkpt lat="43.45259" lon="6.59397">
        <ele>218.75513579696</ele>
        <time>2021-11-28T12:49:13Z</time>
      </trkpt>
      <trkpt lat="43.4526" lon="6.59397">
        <ele>218.75508181751</ele>
        <time>2021-11-28T12:49:14Z</time>
      </trkpt>
      <trkpt lat="43.45261" lon="6.59397">
        <ele>217.75500872731</ele>
        <time>2021-11-28T12:49:15Z</time>
      </trkpt>
      <trkpt lat="43.45263" lon="6.59398">
        <ele>217.75483170152</ele>
        <time>2021-11-28T12:49:17Z</time>
      </trkpt>
      <trkpt lat="43.45266" lon="6.59397">
        <ele>218.75464025885</ele>
        <time>2021-11-28T12:49:19Z</time>
      </trkpt>
      <trkpt lat="43.45267" lon="6.59397">
        <ele>219.75448569655</ele>
        <time>2021-11-28T12:49:20Z</time>
      </trkpt>
      <trkpt lat="43.45268" lon="6.59397">
        <ele>219.75441227108</ele>
        <time>2021-11-28T12:49:21Z</time>
      </trkpt>
      <trkpt lat="43.4527" lon="6.59396">
        <ele>219.75419132411</ele>
        <time>2021-11-28T12:49:23Z</time>
      </trkpt>
      <trkpt lat="43.45272" lon="6.59395">
        <ele>219.75403743237</ele>
        <time>2021-11-28T12:49:24Z</time>
      </trkpt>
      <trkpt lat="43.45273" lon="6.59395">
        <ele>219.75393383205</ele>
        <time>2021-11-28T12:49:25Z</time>
      </trkpt>
      <trkpt lat="43.45274" lon="6.59394">
        <ele>219.75385504216</ele>
        <time>2021-11-28T12:49:26Z</time>
      </trkpt>
      <trkpt lat="43.45275" lon="6.59395">
        <ele>219.75376351178</ele>
        <time>2021-11-28T12:49:27Z</time>
      </trkpt>
      <trkpt lat="43.45278" lon="6.59396">
        <ele>218.75354658812</ele>
        <time>2021-11-28T12:49:29Z</time>
      </trkpt>
      <trkpt lat="43.4528" lon="6.59397">
        <ele>218.75345371664</ele>
        <time>2021-11-28T12:49:30Z</time>
      </trkpt>
      <trkpt lat="43.45282" lon="6.59398">
        <ele>219.75337123871</ele>
        <time>2021-11-28T12:49:31Z</time>
      </trkpt>
      <trkpt lat="43.45283" lon="6.59399">
        <ele>219.75331155956</ele>
        <time>2021-11-28T12:49:32Z</time>
      </trkpt>
      <trkpt lat="43.45287" lon="6.59401">
        <ele>218.75309262425</ele>
        <time>2021-11-28T12:49:34Z</time>
      </trkpt>
      <trkpt lat="43.45289" lon="6.59401">
        <ele>218.75297427177</ele>
        <time>2021-11-28T12:49:35Z</time>
      </trkpt>
      <trkpt lat="43.4529" lon="6.59402">
        <ele>219.75289916992</ele>
        <time>2021-11-28T12:49:36Z</time>
      </trkpt>
      <trkpt lat="43.45292" lon="6.59406">
        <ele>219.75288911164</ele>
        <time>2021-11-28T12:49:38Z</time>
      </trkpt>
      <trkpt lat="43.45293" lon="6.59408">
        <ele>219.75288810581</ele>
        <time>2021-11-28T12:49:39Z</time>
      </trkpt>
      <trkpt lat="43.45293" lon="6.59408">
        <ele>219.75285625458</ele>
        <time>2021-11-28T12:49:40Z</time>
      </trkpt>
      <trkpt lat="43.45294" lon="6.59408">
        <ele>220.75280529261</ele>
        <time>2021-11-28T12:49:41Z</time>
      </trkpt>
      <trkpt lat="43.45295" lon="6.59409">
        <ele>220.75276505947</ele>
        <time>2021-11-28T12:49:42Z</time>
      </trkpt>
      <trkpt lat="43.45298" lon="6.59411">
        <ele>219.75262290239</ele>
        <time>2021-11-28T12:49:44Z</time>
      </trkpt>
      <trkpt lat="43.45299" lon="6.59412">
        <ele>220.75256992877</ele>
        <time>2021-11-28T12:49:45Z</time>
      </trkpt>
      <trkpt lat="43.453" lon="6.59413">
        <ele>219.75253874809</ele>
        <time>2021-11-28T12:49:46Z</time>
      </trkpt>
      <trkpt lat="43.45301" lon="6.59413">
        <ele>217.75247638673</ele>
        <time>2021-11-28T12:49:48Z</time>
      </trkpt>
      <trkpt lat="43.45301" lon="6.59413">
        <ele>218.75243782997</ele>
        <time>2021-11-28T12:49:49Z</time>
      </trkpt>
      <trkpt lat="43.45302" lon="6.59414">
        <ele>218.75240296125</ele>
        <time>2021-11-28T12:49:50Z</time>
      </trkpt>
      <trkpt lat="43.45303" lon="6.59413">
        <ele>216.75229366124</ele>
        <time>2021-11-28T12:49:52Z</time>
      </trkpt>
      <trkpt lat="43.45304" lon="6.59415">
        <ele>217.75226516277</ele>
        <time>2021-11-28T12:49:54Z</time>
      </trkpt>
      <trkpt lat="43.45305" lon="6.59415">
        <ele>217.75218302011</ele>
        <time>2021-11-28T12:49:55Z</time>
      </trkpt>
      <trkpt lat="43.45306" lon="6.59416">
        <ele>217.75212099403</ele>
        <time>2021-11-28T12:49:56Z</time>
      </trkpt>
      <trkpt lat="43.45308" lon="6.59417">
        <ele>216.75207170844</ele>
        <time>2021-11-28T12:49:58Z</time>
      </trkpt>
      <trkpt lat="43.45308" lon="6.59417">
        <ele>216.75207170844</ele>
        <time>2021-11-28T12:50:00Z</time>
      </trkpt>
      <trkpt lat="43.45311" lon="6.59419">
        <ele>216.75185612589</ele>
        <time>2021-11-28T12:50:02Z</time>
      </trkpt>
      <trkpt lat="43.45312" lon="6.59418">
        <ele>216.75174012035</ele>
        <time>2021-11-28T12:50:03Z</time>
      </trkpt>
      <trkpt lat="43.45313" lon="6.59418">
        <ele>216.75168211758</ele>
        <time>2021-11-28T12:50:06Z</time>
      </trkpt>
      <trkpt lat="43.45315" lon="6.59419">
        <ele>214.75156745315</ele>
        <time>2021-11-28T12:50:07Z</time>
      </trkpt>
      <trkpt lat="43.45316" lon="6.59419">
        <ele>215.75146184117</ele>
        <time>2021-11-28T12:50:08Z</time>
      </trkpt>
      <trkpt lat="43.45318" lon="6.59419">
        <ele>215.75135153532</ele>
        <time>2021-11-28T12:50:09Z</time>
      </trkpt>
      <trkpt lat="43.45319" lon="6.59419">
        <ele>216.75125128776</ele>
        <time>2021-11-28T12:50:10Z</time>
      </trkpt>
      <trkpt lat="43.4532" lon="6.59419">
        <ele>216.75117249787</ele>
        <time>2021-11-28T12:50:11Z</time>
      </trkpt>
      <trkpt lat="43.45321" lon="6.59418">
        <ele>217.75109035522</ele>
        <time>2021-11-28T12:50:14Z</time>
      </trkpt>
      <trkpt lat="43.45322" lon="6.59417">
        <ele>217.75093009323</ele>
        <time>2021-11-28T12:50:15Z</time>
      </trkpt>
      <trkpt lat="43.45322" lon="6.59416">
        <ele>218.7508687377</ele>
        <time>2021-11-28T12:50:16Z</time>
      </trkpt>
      <trkpt lat="43.45322" lon="6.59415">
        <ele>218.75082246959</ele>
        <time>2021-11-28T12:50:17Z</time>
      </trkpt>
      <trkpt lat="43.45323" lon="6.59414">
        <ele>217.75075239688</ele>
        <time>2021-11-28T12:50:20Z</time>
      </trkpt>
      <trkpt lat="43.45323" lon="6.59412">
        <ele>217.7506397441</ele>
        <time>2021-11-28T12:50:21Z</time>
      </trkpt>
      <trkpt lat="43.45324" lon="6.59413">
        <ele>216.75057134777</ele>
        <time>2021-11-28T12:50:23Z</time>
      </trkpt>
      <trkpt lat="43.45325" lon="6.59412">
        <ele>216.75048652291</ele>
        <time>2021-11-28T12:50:27Z</time>
      </trkpt>
      <trkpt lat="43.45325" lon="6.59411">
        <ele>216.75043254346</ele>
        <time>2021-11-28T12:50:28Z</time>
      </trkpt>
      <trkpt lat="43.45326" lon="6.5941">
        <ele>216.75036649406</ele>
        <time>2021-11-28T12:50:29Z</time>
      </trkpt>
      <trkpt lat="43.45326" lon="6.5941">
        <ele>216.75029139221</ele>
        <time>2021-11-28T12:50:32Z</time>
      </trkpt>
      <trkpt lat="43.45329" lon="6.59408">
        <ele>216.74999769032</ele>
        <time>2021-11-28T12:50:34Z</time>
      </trkpt>
      <trkpt lat="43.4533" lon="6.59407">
        <ele>216.74988906085</ele>
        <time>2021-11-28T12:50:35Z</time>
      </trkpt>
      <trkpt lat="43.45331" lon="6.59407">
        <ele>215.74978009611</ele>
        <time>2021-11-28T12:50:36Z</time>
      </trkpt>
      <trkpt lat="43.45333" lon="6.59407">
        <ele>215.74961413443</ele>
        <time>2021-11-28T12:50:38Z</time>
      </trkpt>
      <trkpt lat="43.45334" lon="6.59406">
        <ele>216.7495457381</ele>
        <time>2021-11-28T12:50:39Z</time>
      </trkpt>
      <trkpt lat="43.45335" lon="6.59405">
        <ele>216.74944448471</ele>
        <time>2021-11-28T12:50:40Z</time>
      </trkpt>
      <trkpt lat="43.45335" lon="6.59404">
        <ele>217.74939285219</ele>
        <time>2021-11-28T12:50:41Z</time>
      </trkpt>
      <trkpt lat="43.45336" lon="6.59402">
        <ele>217.74924767762</ele>
        <time>2021-11-28T12:50:43Z</time>
      </trkpt>
      <trkpt lat="43.45337" lon="6.59402">
        <ele>218.74913938344</ele>
        <time>2021-11-28T12:50:44Z</time>
      </trkpt>
      <trkpt lat="43.45337" lon="6.59402">
        <ele>217.74907635152</ele>
        <time>2021-11-28T12:50:46Z</time>
      </trkpt>
      <trkpt lat="43.45338" lon="6.59402">
        <ele>217.74903947115</ele>
        <time>2021-11-28T12:50:47Z</time>
      </trkpt>
      <trkpt lat="43.45338" lon="6.59402">
        <ele>216.7490388006</ele>
        <time>2021-11-28T12:50:49Z</time>
      </trkpt>
      <trkpt lat="43.45339" lon="6.59403">
        <ele>216.74899152666</ele>
        <time>2021-11-28T12:50:50Z</time>
      </trkpt>
      <trkpt lat="43.4534" lon="6.59402">
        <ele>216.74891877174</ele>
        <time>2021-11-28T12:50:51Z</time>
      </trkpt>
      <trkpt lat="43.4534" lon="6.59402">
        <ele>217.74887216836</ele>
        <time>2021-11-28T12:50:54Z</time>
      </trkpt>
      <trkpt lat="43.45341" lon="6.59401">
        <ele>216.74873168766</ele>
        <time>2021-11-28T12:50:55Z</time>
      </trkpt>
      <trkpt lat="43.45342" lon="6.59401">
        <ele>217.74868541956</ele>
        <time>2021-11-28T12:51:11Z</time>
      </trkpt>
      <trkpt lat="43.45343" lon="6.59402">
        <ele>217.748585172</ele>
        <time>2021-11-28T12:51:12Z</time>
      </trkpt>
      <trkpt lat="43.45343" lon="6.59402">
        <ele>217.74862741679</ele>
        <time>2021-11-28T12:51:13Z</time>
      </trkpt>
      <trkpt lat="43.45342" lon="6.59402">
        <ele>218.74869816005</ele>
        <time>2021-11-28T12:51:14Z</time>
      </trkpt>
      <trkpt lat="43.45342" lon="6.59402">
        <ele>217.74873772264</ele>
        <time>2021-11-28T12:51:15Z</time>
      </trkpt>
      <trkpt lat="43.45341" lon="6.59402">
        <ele>217.74876823276</ele>
        <time>2021-11-28T12:51:16Z</time>
      </trkpt>
      <trkpt lat="43.45341" lon="6.59401">
        <ele>218.74876219779</ele>
        <time>2021-11-28T12:51:17Z</time>
      </trkpt>
      <trkpt lat="43.45341" lon="6.59401">
        <ele>216.74870721251</ele>
        <time>2021-11-28T12:51:19Z</time>
      </trkpt>
      <trkpt lat="43.45342" lon="6.59401">
        <ele>216.74864652753</ele>
        <time>2021-11-28T12:51:20Z</time>
      </trkpt>
      <trkpt lat="43.45342" lon="6.59401">
        <ele>216.74866463244</ele>
        <time>2021-11-28T12:51:21Z</time>
      </trkpt>
      <trkpt lat="43.45343" lon="6.59402">
        <ele>215.74869246036</ele>
        <time>2021-11-28T12:51:26Z</time>
      </trkpt>
      <trkpt lat="43.45345" lon="6.59401">
        <ele>215.74846078455</ele>
        <time>2021-11-28T12:51:28Z</time>
      </trkpt>
      <trkpt lat="43.45345" lon="6.594">
        <ele>215.74837696552</ele>
        <time>2021-11-28T12:51:29Z</time>
      </trkpt>
      <trkpt lat="43.45346" lon="6.59399">
        <ele>215.74830722809</ele>
        <time>2021-11-28T12:51:30Z</time>
      </trkpt>
      <trkpt lat="43.45347" lon="6.59397">
        <ele>216.74811980873</ele>
        <time>2021-11-28T12:51:32Z</time>
      </trkpt>
      <trkpt lat="43.45348" lon="6.59397">
        <ele>216.74805174768</ele>
        <time>2021-11-28T12:51:33Z</time>
      </trkpt>
      <trkpt lat="43.45349" lon="6.59398">
        <ele>216.74802324921</ele>
        <time>2021-11-28T12:51:34Z</time>
      </trkpt>
      <trkpt lat="43.4535" lon="6.59398">
        <ele>217.74792065471</ele>
        <time>2021-11-28T12:51:35Z</time>
      </trkpt>
      <trkpt lat="43.45351" lon="6.59398">
        <ele>216.74782778323</ele>
        <time>2021-11-28T12:51:36Z</time>
      </trkpt>
      <trkpt lat="43.45353" lon="6.59399">
        <ele>217.74774932861</ele>
        <time>2021-11-28T12:51:38Z</time>
      </trkpt>
      <trkpt lat="43.45353" lon="6.594">
        <ele>217.74774798751</ele>
        <time>2021-11-28T12:51:39Z</time>
      </trkpt>
      <trkpt lat="43.45354" lon="6.594">
        <ele>216.74766651541</ele>
        <time>2021-11-28T12:51:41Z</time>
      </trkpt>
      <trkpt lat="43.45354" lon="6.59399">
        <ele>216.74761722982</ele>
        <time>2021-11-28T12:51:42Z</time>
      </trkpt>
      <trkpt lat="43.45356" lon="6.594">
        <ele>216.74751530588</ele>
        <time>2021-11-28T12:51:44Z</time>
      </trkpt>
      <trkpt lat="43.45356" lon="6.594">
        <ele>216.74751530588</ele>
        <time>2021-11-28T12:51:46Z</time>
      </trkpt>
      <trkpt lat="43.45358" lon="6.594">
        <ele>215.74737851322</ele>
        <time>2021-11-28T12:51:48Z</time>
      </trkpt>
      <trkpt lat="43.45358" lon="6.594">
        <ele>216.7473295629</ele>
        <time>2021-11-28T12:51:49Z</time>
      </trkpt>
      <trkpt lat="43.45359" lon="6.594">
        <ele>217.7472692132</ele>
        <time>2021-11-28T12:51:52Z</time>
      </trkpt>
      <trkpt lat="43.4536" lon="6.59403">
        <ele>216.7472903356</ele>
        <time>2021-11-28T12:51:54Z</time>
      </trkpt>
      <trkpt lat="43.45361" lon="6.59403">
        <ele>217.74727088958</ele>
        <time>2021-11-28T12:51:55Z</time>
      </trkpt>
      <trkpt lat="43.45362" lon="6.59404">
        <ele>217.74722361565</ele>
        <time>2021-11-28T12:51:56Z</time>
      </trkpt>
      <trkpt lat="43.45362" lon="6.59404">
        <ele>217.74717734754</ele>
        <time>2021-11-28T12:51:57Z</time>
      </trkpt>
      <trkpt lat="43.45364" lon="6.59403">
        <ele>218.74703083187</ele>
        <time>2021-11-28T12:51:59Z</time>
      </trkpt>
      <trkpt lat="43.45364" lon="6.59403">
        <ele>218.74702077359</ele>
        <time>2021-11-28T12:52:00Z</time>
      </trkpt>
      <trkpt lat="43.45365" lon="6.59403">
        <ele>217.74694298953</ele>
        <time>2021-11-28T12:52:01Z</time>
      </trkpt>
      <trkpt lat="43.45367" lon="6.59404">
        <ele>217.74682899565</ele>
        <time>2021-11-28T12:52:03Z</time>
      </trkpt>
      <trkpt lat="43.45368" lon="6.59406">
        <ele>218.74679043889</ele>
        <time>2021-11-28T12:52:04Z</time>
      </trkpt>
      <trkpt lat="43.45369" lon="6.59406">
        <ele>218.74672438949</ele>
        <time>2021-11-28T12:52:05Z</time>
      </trkpt>
      <trkpt lat="43.4537" lon="6.59407">
        <ele>218.74668817967</ele>
        <time>2021-11-28T12:52:07Z</time>
      </trkpt>
      <trkpt lat="43.4537" lon="6.59407">
        <ele>218.74668817967</ele>
        <time>2021-11-28T12:52:09Z</time>
      </trkpt>
      <trkpt lat="43.45372" lon="6.59407">
        <ele>219.74651215971</ele>
        <time>2021-11-28T12:52:10Z</time>
      </trkpt>
      <trkpt lat="43.45372" lon="6.59407">
        <ele>220.74650042504</ele>
        <time>2021-11-28T12:52:11Z</time>
      </trkpt>
      <trkpt lat="43.45373" lon="6.59409">
        <ele>220.74655541033</ele>
        <time>2021-11-28T12:52:13Z</time>
      </trkpt>
      <trkpt lat="43.45373" lon="6.59409">
        <ele>221.74648164958</ele>
        <time>2021-11-28T12:52:14Z</time>
      </trkpt>
      <trkpt lat="43.45374" lon="6.59408">
        <ele>221.74640788883</ele>
        <time>2021-11-28T12:52:15Z</time>
      </trkpt>
      <trkpt lat="43.45375" lon="6.59407">
        <ele>220.74629557133</ele>
        <time>2021-11-28T12:52:17Z</time>
      </trkpt>
      <trkpt lat="43.45375" lon="6.59406">
        <ele>221.7462566793</ele>
        <time>2021-11-28T12:52:18Z</time>
      </trkpt>
      <trkpt lat="43.45375" lon="6.59406">
        <ele>221.74620571733</ele>
        <time>2021-11-28T12:52:19Z</time>
      </trkpt>
      <trkpt lat="43.45376" lon="6.59406">
        <ele>221.74617956579</ele>
        <time>2021-11-28T12:52:20Z</time>
      </trkpt>
      <trkpt lat="43.45377" lon="6.59407">
        <ele>221.74615106732</ele>
        <time>2021-11-28T12:52:21Z</time>
      </trkpt>
      <trkpt lat="43.45377" lon="6.59408">
        <ele>221.7461175397</ele>
        <time>2021-11-28T12:52:22Z</time>
      </trkpt>
      <trkpt lat="43.45378" lon="6.59409">
        <ele>221.74610044062</ele>
        <time>2021-11-28T12:52:23Z</time>
      </trkpt>
      <trkpt lat="43.45379" lon="6.5941">
        <ele>221.74609407037</ele>
        <time>2021-11-28T12:52:24Z</time>
      </trkpt>
      <trkpt lat="43.45379" lon="6.59411">
        <ele>221.74607060105</ele>
        <time>2021-11-28T12:52:25Z</time>
      </trkpt>
      <trkpt lat="43.4538" lon="6.59411">
        <ele>221.74607730657</ele>
        <time>2021-11-28T12:52:26Z</time>
      </trkpt>
      <trkpt lat="43.4538" lon="6.59412">
        <ele>221.74607160687</ele>
        <time>2021-11-28T12:52:36Z</time>
      </trkpt>
      <trkpt lat="43.4538" lon="6.59413">
        <ele>221.7461091578</ele>
        <time>2021-11-28T12:52:42Z</time>
      </trkpt>
      <trkpt lat="43.4538" lon="6.59414">
        <ele>220.7461624667</ele>
        <time>2021-11-28T12:52:45Z</time>
      </trkpt>
      <trkpt lat="43.45381" lon="6.59415">
        <ele>220.74613430351</ele>
        <time>2021-11-28T12:52:51Z</time>
      </trkpt>
      <trkpt lat="43.45381" lon="6.59415">
        <ele>220.74609205872</ele>
        <time>2021-11-28T12:52:52Z</time>
      </trkpt>
      <trkpt lat="43.45382" lon="6.59414">
        <ele>219.74603439122</ele>
        <time>2021-11-28T12:52:53Z</time>
      </trkpt>
      <trkpt lat="43.45382" lon="6.59414">
        <ele>219.74598577619</ele>
        <time>2021-11-28T12:52:54Z</time>
      </trkpt>
      <trkpt lat="43.45383" lon="6.59415">
        <ele>220.7459462136</ele>
        <time>2021-11-28T12:53:00Z</time>
      </trkpt>
      <trkpt lat="43.45385" lon="6.59415">
        <ele>219.74580975622</ele>
        <time>2021-11-28T12:53:02Z</time>
      </trkpt>
      <trkpt lat="43.45386" lon="6.59416">
        <ele>219.74579299241</ele>
        <time>2021-11-28T12:53:04Z</time>
      </trkpt>
      <trkpt lat="43.45386" lon="6.59416">
        <ele>220.74573767185</ele>
        <time>2021-11-28T12:53:05Z</time>
      </trkpt>
      <trkpt lat="43.45387" lon="6.59416">
        <ele>220.74569743872</ele>
        <time>2021-11-28T12:53:06Z</time>
      </trkpt>
      <trkpt lat="43.45387" lon="6.59415">
        <ele>221.74563105404</ele>
        <time>2021-11-28T12:53:10Z</time>
      </trkpt>
      <trkpt lat="43.45388" lon="6.59416">
        <ele>221.7456246838</ele>
        <time>2021-11-28T12:53:18Z</time>
      </trkpt>
      <trkpt lat="43.45388" lon="6.59417">
        <ele>222.74564379454</ele>
        <time>2021-11-28T12:53:19Z</time>
      </trkpt>
      <trkpt lat="43.45388" lon="6.59417">
        <ele>222.74565619975</ele>
        <time>2021-11-28T12:53:22Z</time>
      </trkpt>
      <trkpt lat="43.45388" lon="6.59415">
        <ele>223.74553449452</ele>
        <time>2021-11-28T12:53:24Z</time>
      </trkpt>
      <trkpt lat="43.45389" lon="6.59414">
        <ele>223.74544363469</ele>
        <time>2021-11-28T12:53:25Z</time>
      </trkpt>
      <trkpt lat="43.4539" lon="6.59414">
        <ele>223.74536048621</ele>
        <time>2021-11-28T12:53:26Z</time>
      </trkpt>
      <trkpt lat="43.4539" lon="6.59414">
        <ele>224.74535042793</ele>
        <time>2021-11-28T12:53:34Z</time>
      </trkpt>
      <trkpt lat="43.45391" lon="6.59415">
        <ele>224.74528270215</ele>
        <time>2021-11-28T12:53:35Z</time>
      </trkpt>
      <trkpt lat="43.45392" lon="6.59416">
        <ele>224.74527834356</ele>
        <time>2021-11-28T12:53:36Z</time>
      </trkpt>
      <trkpt lat="43.45392" lon="6.59416">
        <ele>223.74527532607</ele>
        <time>2021-11-28T12:53:37Z</time>
      </trkpt>
      <trkpt lat="43.45392" lon="6.59417">
        <ele>224.74531723559</ele>
        <time>2021-11-28T12:53:40Z</time>
      </trkpt>
      <trkpt lat="43.45391" lon="6.59419">
        <ele>223.74546777457</ele>
        <time>2021-11-28T12:53:41Z</time>
      </trkpt>
      <trkpt lat="43.45391" lon="6.59419">
        <ele>223.7454771623</ele>
        <time>2021-11-28T12:54:02Z</time>
      </trkpt>
      <trkpt lat="43.45391" lon="6.5942">
        <ele>223.74556098133</ele>
        <time>2021-11-28T12:54:04Z</time>
      </trkpt>
      <trkpt lat="43.4539" lon="6.5942">
        <ele>224.74559551477</ele>
        <time>2021-11-28T12:54:07Z</time>
      </trkpt>
      <trkpt lat="43.45389" lon="6.59419">
        <ele>224.74563843012</ele>
        <time>2021-11-28T12:54:08Z</time>
      </trkpt>
      <trkpt lat="43.45389" lon="6.59419">
        <ele>224.74567195773</ele>
        <time>2021-11-28T12:54:09Z</time>
      </trkpt>
      <trkpt lat="43.45388" lon="6.59419">
        <ele>224.74572727829</ele>
        <time>2021-11-28T12:54:11Z</time>
      </trkpt>
      <trkpt lat="43.45387" lon="6.59416">
        <ele>225.74567195773</ele>
        <time>2021-11-28T12:54:13Z</time>
      </trkpt>
      <trkpt lat="43.45388" lon="6.59416">
        <ele>226.74559786171</ele>
        <time>2021-11-28T12:54:40Z</time>
      </trkpt>
      <trkpt lat="43.4539" lon="6.59418">
        <ele>226.74554958194</ele>
        <time>2021-11-28T12:54:41Z</time>
      </trkpt>
      <trkpt lat="43.4539" lon="6.59418">
        <ele>226.74552242458</ele>
        <time>2021-11-28T12:54:42Z</time>
      </trkpt>
      <trkpt lat="43.45391" lon="6.59419">
        <ele>226.74550733715</ele>
        <time>2021-11-28T12:54:43Z</time>
      </trkpt>
      <trkpt lat="43.45391" lon="6.5942">
        <ele>226.74549191445</ele>
        <time>2021-11-28T12:54:44Z</time>
      </trkpt>
      <trkpt lat="43.45392" lon="6.5942">
        <ele>225.74545302242</ele>
        <time>2021-11-28T12:54:45Z</time>
      </trkpt>
      <trkpt lat="43.45392" lon="6.59421">
        <ele>225.74544095248</ele>
        <time>2021-11-28T12:54:46Z</time>
      </trkpt>
      <trkpt lat="43.45393" lon="6.59422">
        <ele>224.74542117119</ele>
        <time>2021-11-28T12:54:47Z</time>
      </trkpt>
      <trkpt lat="43.45394" lon="6.59422">
        <ele>224.74540809542</ele>
        <time>2021-11-28T12:54:48Z</time>
      </trkpt>
      <trkpt lat="43.45394" lon="6.59422">
        <ele>223.74534774572</ele>
        <time>2021-11-28T12:54:50Z</time>
      </trkpt>
      <trkpt lat="43.45395" lon="6.59423">
        <ele>223.74532662332</ele>
        <time>2021-11-28T12:54:52Z</time>
      </trkpt>
      <trkpt lat="43.45396" lon="6.59424">
        <ele>222.7452917546</ele>
        <time>2021-11-28T12:54:54Z</time>
      </trkpt>
      <trkpt lat="43.45396" lon="6.59424">
        <ele>223.74523274601</ele>
        <time>2021-11-28T12:54:55Z</time>
      </trkpt>
      <trkpt lat="43.45397" lon="6.59424">
        <ele>223.74522838742</ele>
        <time>2021-11-28T12:55:00Z</time>
      </trkpt>
      <trkpt lat="43.45399" lon="6.59426">
        <ele>222.74515764415</ele>
        <time>2021-11-28T12:55:02Z</time>
      </trkpt>
      <trkpt lat="43.45399" lon="6.59427">
        <ele>222.74518547207</ele>
        <time>2021-11-28T12:55:03Z</time>
      </trkpt>
      <trkpt lat="43.45399" lon="6.59428">
        <ele>221.74521195889</ele>
        <time>2021-11-28T12:55:04Z</time>
      </trkpt>
      <trkpt lat="43.45399" lon="6.59429">
        <ele>221.74524280429</ele>
        <time>2021-11-28T12:55:05Z</time>
      </trkpt>
      <trkpt lat="43.45399" lon="6.5943">
        <ele>220.74528102577</ele>
        <time>2021-11-28T12:55:07Z</time>
      </trkpt>
      <trkpt lat="43.45399" lon="6.5943">
        <ele>220.74525018036</ele>
        <time>2021-11-28T12:55:09Z</time>
      </trkpt>
      <trkpt lat="43.454" lon="6.5943">
        <ele>220.74518580735</ele>
        <time>2021-11-28T12:55:10Z</time>
      </trkpt>
      <trkpt lat="43.45401" lon="6.59429">
        <ele>220.74507751316</ele>
        <time>2021-11-28T12:55:11Z</time>
      </trkpt>
      <trkpt lat="43.45401" lon="6.5943">
        <ele>220.74507784843</ele>
        <time>2021-11-28T12:55:12Z</time>
      </trkpt>
      <trkpt lat="43.45403" lon="6.59431">
        <ele>219.74504297972</ele>
        <time>2021-11-28T12:55:14Z</time>
      </trkpt>
      <trkpt lat="43.45403" lon="6.59432">
        <ele>220.74502420425</ele>
        <time>2021-11-28T12:55:15Z</time>
      </trkpt>
      <trkpt lat="43.45404" lon="6.59433">
        <ele>218.74496888369</ele>
        <time>2021-11-28T12:55:20Z</time>
      </trkpt>
      <trkpt lat="43.45405" lon="6.59434">
        <ele>217.74493770301</ele>
        <time>2021-11-28T12:55:22Z</time>
      </trkpt>
      <trkpt lat="43.45406" lon="6.59434">
        <ele>217.74488405883</ele>
        <time>2021-11-28T12:55:24Z</time>
      </trkpt>
      <trkpt lat="43.45407" lon="6.59434">
        <ele>217.7448522076</ele>
        <time>2021-11-28T12:55:26Z</time>
      </trkpt>
      <trkpt lat="43.45408" lon="6.59435">
        <ele>216.74477911741</ele>
        <time>2021-11-28T12:55:28Z</time>
      </trkpt>
      <trkpt lat="43.45409" lon="6.59436">
        <ele>217.74473653734</ele>
        <time>2021-11-28T12:55:29Z</time>
      </trkpt>
      <trkpt lat="43.45409" lon="6.59436">
        <ele>216.74473854899</ele>
        <time>2021-11-28T12:55:30Z</time>
      </trkpt>
      <trkpt lat="43.45409" lon="6.59438">
        <ele>216.7448002398</ele>
        <time>2021-11-28T12:55:32Z</time>
      </trkpt>
      <trkpt lat="43.45409" lon="6.59439">
        <ele>215.74483041465</ele>
        <time>2021-11-28T12:55:34Z</time>
      </trkpt>
      <trkpt lat="43.4541" lon="6.5944">
        <ele>216.74481163919</ele>
        <time>2021-11-28T12:55:35Z</time>
      </trkpt>
      <trkpt lat="43.4541" lon="6.5944">
        <ele>216.74477844685</ele>
        <time>2021-11-28T12:55:36Z</time>
      </trkpt>
      <trkpt lat="43.45412" lon="6.59441">
        <ele>215.74471843243</ele>
        <time>2021-11-28T12:55:38Z</time>
      </trkpt>
      <trkpt lat="43.45412" lon="6.59442">
        <ele>214.744748272</ele>
        <time>2021-11-28T12:55:39Z</time>
      </trkpt>
      <trkpt lat="43.45412" lon="6.59443">
        <ele>213.74471608549</ele>
        <time>2021-11-28T12:55:42Z</time>
      </trkpt>
      <trkpt lat="43.45413" lon="6.59444">
        <ele>214.74474223703</ele>
        <time>2021-11-28T12:55:43Z</time>
      </trkpt>
      <trkpt lat="43.45413" lon="6.59444">
        <ele>214.74470636249</ele>
        <time>2021-11-28T12:55:44Z</time>
      </trkpt>
      <trkpt lat="43.45414" lon="6.59445">
        <ele>214.74471239746</ele>
        <time>2021-11-28T12:55:45Z</time>
      </trkpt>
      <trkpt lat="43.45414" lon="6.59445">
        <ele>214.74470099807</ele>
        <time>2021-11-28T12:55:46Z</time>
      </trkpt>
      <trkpt lat="43.45415" lon="6.59447">
        <ele>213.74470166862</ele>
        <time>2021-11-28T12:55:48Z</time>
      </trkpt>
      <trkpt lat="43.45415" lon="6.59448">
        <ele>213.74467685819</ele>
        <time>2021-11-28T12:55:52Z</time>
      </trkpt>
      <trkpt lat="43.45417" lon="6.59448">
        <ele>213.74461550266</ele>
        <time>2021-11-28T12:55:53Z</time>
      </trkpt>
      <trkpt lat="43.45417" lon="6.59449">
        <ele>210.74462991953</ele>
        <time>2021-11-28T12:56:07Z</time>
      </trkpt>
      <trkpt lat="43.45417" lon="6.59448">
        <ele>210.7445910275</ele>
        <time>2021-11-28T12:56:16Z</time>
      </trkpt>
      <trkpt lat="43.45417" lon="6.59447">
        <ele>210.74455012381</ele>
        <time>2021-11-28T12:56:17Z</time>
      </trkpt>
      <trkpt lat="43.45417" lon="6.59447">
        <ele>211.74451424927</ele>
        <time>2021-11-28T12:56:18Z</time>
      </trkpt>
      <trkpt lat="43.45418" lon="6.59447">
        <ele>211.74447803944</ele>
        <time>2021-11-28T12:56:20Z</time>
      </trkpt>
      <trkpt lat="43.45418" lon="6.59448">
        <ele>211.74445389956</ele>
        <time>2021-11-28T12:56:29Z</time>
      </trkpt>
      <trkpt lat="43.45419" lon="6.59447">
        <ele>211.7443915382</ele>
        <time>2021-11-28T12:56:30Z</time>
      </trkpt>
      <trkpt lat="43.45419" lon="6.59447">
        <ele>212.74432314187</ele>
        <time>2021-11-28T12:56:31Z</time>
      </trkpt>
      <trkpt lat="43.45419" lon="6.59447">
        <ele>213.74434225261</ele>
        <time>2021-11-28T12:56:38Z</time>
      </trkpt>
      <trkpt lat="43.4542" lon="6.59448">
        <ele>213.74433722347</ele>
        <time>2021-11-28T12:56:40Z</time>
      </trkpt>
      <trkpt lat="43.4542" lon="6.59449">
        <ele>214.74433487654</ele>
        <time>2021-11-28T12:56:41Z</time>
      </trkpt>
      <trkpt lat="43.45421" lon="6.59451">
        <ele>214.74434560537</ele>
        <time>2021-11-28T12:56:43Z</time>
      </trkpt>
      <trkpt lat="43.45422" lon="6.59451">
        <ele>215.74428357929</ele>
        <time>2021-11-28T12:56:45Z</time>
      </trkpt>
      <trkpt lat="43.45423" lon="6.59453">
        <ele>216.74429967254</ele>
        <time>2021-11-28T12:56:46Z</time>
      </trkpt>
      <trkpt lat="43.45423" lon="6.59453">
        <ele>216.74429866672</ele>
        <time>2021-11-28T12:56:53Z</time>
      </trkpt>
      <trkpt lat="43.45422" lon="6.59454">
        <ele>216.74438483268</ele>
        <time>2021-11-28T12:56:54Z</time>
      </trkpt>
      <trkpt lat="43.45423" lon="6.59455">
        <ele>216.74438147992</ele>
        <time>2021-11-28T12:57:11Z</time>
      </trkpt>
      <trkpt lat="43.45423" lon="6.59455">
        <ele>216.74440729618</ele>
        <time>2021-11-28T12:57:27Z</time>
      </trkpt>
      <trkpt lat="43.45422" lon="6.59456">
        <ele>217.74448072165</ele>
        <time>2021-11-28T12:57:32Z</time>
      </trkpt>
      <trkpt lat="43.45422" lon="6.59456">
        <ele>219.74451961368</ele>
        <time>2021-11-28T12:57:50Z</time>
      </trkpt>
      <trkpt lat="43.45423" lon="6.59458">
        <ele>218.74450385571</ele>
        <time>2021-11-28T12:57:51Z</time>
      </trkpt>
      <trkpt lat="43.45423" lon="6.59458">
        <ele>218.74447736889</ele>
        <time>2021-11-28T12:57:52Z</time>
      </trkpt>
      <trkpt lat="43.45424" lon="6.59458">
        <ele>218.74442037195</ele>
        <time>2021-11-28T12:57:53Z</time>
      </trkpt>
      <trkpt lat="43.45424" lon="6.59458">
        <ele>218.74437343329</ele>
        <time>2021-11-28T12:57:56Z</time>
      </trkpt>
      <trkpt lat="43.45425" lon="6.5946">
        <ele>218.74436471611</ele>
        <time>2021-11-28T12:57:57Z</time>
      </trkpt>
      <trkpt lat="43.45426" lon="6.5946">
        <ele>218.74434594065</ele>
        <time>2021-11-28T12:57:58Z</time>
      </trkpt>
      <trkpt lat="43.45426" lon="6.59461">
        <ele>218.74435096979</ele>
        <time>2021-11-28T12:57:59Z</time>
      </trkpt>
      <trkpt lat="43.45427" lon="6.59462">
        <ele>217.74434795231</ele>
        <time>2021-11-28T12:58:00Z</time>
      </trkpt>
      <trkpt lat="43.45427" lon="6.59463">
        <ele>217.74431911856</ele>
        <time>2021-11-28T12:58:01Z</time>
      </trkpt>
      <trkpt lat="43.45428" lon="6.59463">
        <ele>217.74429430813</ele>
        <time>2021-11-28T12:58:03Z</time>
      </trkpt>
      <trkpt lat="43.45428" lon="6.59464">
        <ele>217.74429497868</ele>
        <time>2021-11-28T12:58:04Z</time>
      </trkpt>
      <trkpt lat="43.45429" lon="6.59464">
        <ele>217.7442862615</ele>
        <time>2021-11-28T12:58:08Z</time>
      </trkpt>
      <trkpt lat="43.4543" lon="6.59466">
        <ele>216.74428693205</ele>
        <time>2021-11-28T12:58:09Z</time>
      </trkpt>
      <trkpt lat="43.4543" lon="6.59467">
        <ele>216.74430805445</ele>
        <time>2021-11-28T12:58:10Z</time>
      </trkpt>
      <trkpt lat="43.4543" lon="6.59468">
        <ele>216.74434694648</ele>
        <time>2021-11-28T12:58:14Z</time>
      </trkpt>
      <trkpt lat="43.4543" lon="6.59471">
        <ele>215.74441064894</ele>
        <time>2021-11-28T12:58:15Z</time>
      </trkpt>
      <trkpt lat="43.4543" lon="6.59471">
        <ele>215.74446295202</ele>
        <time>2021-11-28T12:58:16Z</time>
      </trkpt>
      <trkpt lat="43.45429" lon="6.59472">
        <ele>214.74453738332</ele>
        <time>2021-11-28T12:58:17Z</time>
      </trkpt>
      <trkpt lat="43.45429" lon="6.59472">
        <ele>214.74460209161</ele>
        <time>2021-11-28T12:58:19Z</time>
      </trkpt>
      <trkpt lat="43.45428" lon="6.59473">
        <ele>214.74468859285</ele>
        <time>2021-11-28T12:58:20Z</time>
      </trkpt>
      <trkpt lat="43.45427" lon="6.59473">
        <ele>214.74477576464</ele>
        <time>2021-11-28T12:58:21Z</time>
      </trkpt>
      <trkpt lat="43.45425" lon="6.59475">
        <ele>213.74496016651</ele>
        <time>2021-11-28T12:58:23Z</time>
      </trkpt>
      <trkpt lat="43.45424" lon="6.59476">
        <ele>212.74512646347</ele>
        <time>2021-11-28T12:58:25Z</time>
      </trkpt>
      <trkpt lat="43.45422" lon="6.59475">
        <ele>213.7452019006</ele>
        <time>2021-11-28T12:58:26Z</time>
      </trkpt>
      <trkpt lat="43.45422" lon="6.59474">
        <ele>213.74521665275</ele>
        <time>2021-11-28T12:58:27Z</time>
      </trkpt>
      <trkpt lat="43.45421" lon="6.59474">
        <ele>213.74526727945</ele>
        <time>2021-11-28T12:58:28Z</time>
      </trkpt>
      <trkpt lat="43.4542" lon="6.59474">
        <ele>212.74533902854</ele>
        <time>2021-11-28T12:58:31Z</time>
      </trkpt>
      <trkpt lat="43.4542" lon="6.59474">
        <ele>212.74538328499</ele>
        <time>2021-11-28T12:58:32Z</time>
      </trkpt>
      <trkpt lat="43.45419" lon="6.59474">
        <ele>211.74544464052</ele>
        <time>2021-11-28T12:58:33Z</time>
      </trkpt>
      <trkpt lat="43.45419" lon="6.59474">
        <ele>211.74544464052</ele>
        <time>2021-11-28T12:58:34Z</time>
      </trkpt>
      <trkpt lat="43.45417" lon="6.59475">
        <ele>211.74560993165</ele>
        <time>2021-11-28T12:58:35Z</time>
      </trkpt>
      <trkpt lat="43.45417" lon="6.59477">
        <ele>210.74571923167</ele>
        <time>2021-11-28T12:58:37Z</time>
      </trkpt>
      <trkpt lat="43.45417" lon="6.59477">
        <ele>211.74569877982</ele>
        <time>2021-11-28T12:58:38Z</time>
      </trkpt>
      <trkpt lat="43.45418" lon="6.59477">
        <ele>211.74562636018</ele>
        <time>2021-11-28T12:58:39Z</time>
      </trkpt>
      <trkpt lat="43.4542" lon="6.59478">
        <ele>210.74556366354</ele>
        <time>2021-11-28T12:58:40Z</time>
      </trkpt>
      <trkpt lat="43.4542" lon="6.59479">
        <ele>209.74551739544</ele>
        <time>2021-11-28T12:58:41Z</time>
      </trkpt>
      <trkpt lat="43.45421" lon="6.59481">
        <ele>208.74553684145</ele>
        <time>2021-11-28T12:58:43Z</time>
      </trkpt>
      <trkpt lat="43.45422" lon="6.59483">
        <ele>209.74552711844</ele>
        <time>2021-11-28T12:58:45Z</time>
      </trkpt>
      <trkpt lat="43.45423" lon="6.59483">
        <ele>209.74548185617</ele>
        <time>2021-11-28T12:58:46Z</time>
      </trkpt>
      <trkpt lat="43.45423" lon="6.59484">
        <ele>209.74555829912</ele>
        <time>2021-11-28T12:58:49Z</time>
      </trkpt>
      <trkpt lat="43.45422" lon="6.59485">
        <ele>209.74559786171</ele>
        <time>2021-11-28T12:58:50Z</time>
      </trkpt>
      <trkpt lat="43.45422" lon="6.59486">
        <ele>209.74567363411</ele>
        <time>2021-11-28T12:58:51Z</time>
      </trkpt>
      <trkpt lat="43.45421" lon="6.59488">
        <ele>209.74581109732</ele>
        <time>2021-11-28T12:58:53Z</time>
      </trkpt>
      <trkpt lat="43.45421" lon="6.59489">
        <ele>207.74585468322</ele>
        <time>2021-11-28T12:58:55Z</time>
      </trkpt>
      <trkpt lat="43.45421" lon="6.5949">
        <ele>206.74589122832</ele>
        <time>2021-11-28T12:58:56Z</time>
      </trkpt>
      <trkpt lat="43.45421" lon="6.59491">
        <ele>206.7459814176</ele>
        <time>2021-11-28T12:58:57Z</time>
      </trkpt>
      <trkpt lat="43.45421" lon="6.59492">
        <ele>204.74603539705</ele>
        <time>2021-11-28T12:59:01Z</time>
      </trkpt>
      <trkpt lat="43.4542" lon="6.59494">
        <ele>204.7461175397</ele>
        <time>2021-11-28T12:59:02Z</time>
      </trkpt>
      <trkpt lat="43.4542" lon="6.59495">
        <ele>204.74618794769</ele>
        <time>2021-11-28T12:59:03Z</time>
      </trkpt>
      <trkpt lat="43.45419" lon="6.59495">
        <ele>203.74629624188</ele>
        <time>2021-11-28T12:59:05Z</time>
      </trkpt>
      <trkpt lat="43.45418" lon="6.59496">
        <ele>203.74637201428</ele>
        <time>2021-11-28T12:59:06Z</time>
      </trkpt>
      <trkpt lat="43.45418" lon="6.59497">
        <ele>203.74643102288</ele>
        <time>2021-11-28T12:59:07Z</time>
      </trkpt>
      <trkpt lat="43.45417" lon="6.59498">
        <ele>203.74651752412</ele>
        <time>2021-11-28T12:59:08Z</time>
      </trkpt>
      <trkpt lat="43.45416" lon="6.59498">
        <ele>203.74661978334</ele>
        <time>2021-11-28T12:59:09Z</time>
      </trkpt>
      <trkpt lat="43.45415" lon="6.595">
        <ele>204.74680921435</ele>
        <time>2021-11-28T12:59:11Z</time>
      </trkpt>
      <trkpt lat="43.45414" lon="6.59501">
        <ele>204.74686989933</ele>
        <time>2021-11-28T12:59:12Z</time>
      </trkpt>
      <trkpt lat="43.45415" lon="6.59501">
        <ele>203.74682698399</ele>
        <time>2021-11-28T12:59:15Z</time>
      </trkpt>
      <trkpt lat="43.45416" lon="6.59501">
        <ele>203.74676126987</ele>
        <time>2021-11-28T12:59:17Z</time>
      </trkpt>
      <trkpt lat="43.45416" lon="6.595">
        <ele>203.74671801925</ele>
        <time>2021-11-28T12:59:18Z</time>
      </trkpt>
      <trkpt lat="43.45416" lon="6.595">
        <ele>202.74666772783</ele>
        <time>2021-11-28T12:59:21Z</time>
      </trkpt>
      <trkpt lat="43.45417" lon="6.59502">
        <ele>201.74676328152</ele>
        <time>2021-11-28T12:59:23Z</time>
      </trkpt>
      <trkpt lat="43.45417" lon="6.59504">
        <ele>200.74679177999</ele>
        <time>2021-11-28T12:59:25Z</time>
      </trkpt>
      <trkpt lat="43.45417" lon="6.59506">
        <ele>199.74685313553</ele>
        <time>2021-11-28T12:59:27Z</time>
      </trkpt>
      <trkpt lat="43.45417" lon="6.59506">
        <ele>198.74688062817</ele>
        <time>2021-11-28T12:59:32Z</time>
      </trkpt>
      <trkpt lat="43.45418" lon="6.59506">
        <ele>197.74679546803</ele>
        <time>2021-11-28T12:59:33Z</time>
      </trkpt>
      <trkpt lat="43.45419" lon="6.59509">
        <ele>197.74685849994</ele>
        <time>2021-11-28T12:59:35Z</time>
      </trkpt>
      <trkpt lat="43.45418" lon="6.59509">
        <ele>198.74691851437</ele>
        <time>2021-11-28T12:59:36Z</time>
      </trkpt>
      <trkpt lat="43.45418" lon="6.5951">
        <ele>197.74695874751</ele>
        <time>2021-11-28T12:59:37Z</time>
      </trkpt>
      <trkpt lat="43.45418" lon="6.59511">
        <ele>196.747016415</ele>
        <time>2021-11-28T12:59:38Z</time>
      </trkpt>
      <trkpt lat="43.45418" lon="6.59511">
        <ele>195.74704893678</ele>
        <time>2021-11-28T12:59:39Z</time>
      </trkpt>
      <trkpt lat="43.45418" lon="6.59514">
        <ele>195.74711096287</ele>
        <time>2021-11-28T12:59:41Z</time>
      </trkpt>
      <trkpt lat="43.45418" lon="6.59514">
        <ele>195.74709051102</ele>
        <time>2021-11-28T12:59:47Z</time>
      </trkpt>
      <trkpt lat="43.45418" lon="6.59515">
        <ele>194.74711766839</ele>
        <time>2021-11-28T12:59:55Z</time>
      </trkpt>
      <trkpt lat="43.45418" lon="6.59516">
        <ele>194.74716125429</ele>
        <time>2021-11-28T12:59:56Z</time>
      </trkpt>
      <trkpt lat="43.45418" lon="6.59517">
        <ele>194.74718941748</ele>
        <time>2021-11-28T12:59:58Z</time>
      </trkpt>
      <trkpt lat="43.45418" lon="6.59517">
        <ele>194.74724742025</ele>
        <time>2021-11-28T12:59:59Z</time>
      </trkpt>
      <trkpt lat="43.45417" lon="6.59517">
        <ele>194.74730408192</ele>
        <time>2021-11-28T13:00:00Z</time>
      </trkpt>
      <trkpt lat="43.45416" lon="6.59518">
        <ele>194.74739125371</ele>
        <time>2021-11-28T13:00:01Z</time>
      </trkpt>
      <trkpt lat="43.45416" lon="6.59519">
        <ele>194.74745864421</ele>
        <time>2021-11-28T13:00:02Z</time>
      </trkpt>
      <trkpt lat="43.45416" lon="6.5952">
        <ele>193.74747104943</ele>
        <time>2021-11-28T13:00:03Z</time>
      </trkpt>
      <trkpt lat="43.45417" lon="6.5952">
        <ele>192.74746266752</ele>
        <time>2021-11-28T13:00:20Z</time>
      </trkpt>
      <trkpt lat="43.45417" lon="6.59521">
        <ele>193.74747876078</ele>
        <time>2021-11-28T13:00:21Z</time>
      </trkpt>
      <trkpt lat="43.45418" lon="6.59522">
        <ele>193.74747339636</ele>
        <time>2021-11-28T13:00:22Z</time>
      </trkpt>
      <trkpt lat="43.45418" lon="6.59522">
        <ele>193.74747071415</ele>
        <time>2021-11-28T13:00:23Z</time>
      </trkpt>
      <trkpt lat="43.45418" lon="6.59523">
        <ele>193.74745059758</ele>
        <time>2021-11-28T13:00:32Z</time>
      </trkpt>
      <trkpt lat="43.45419" lon="6.59524">
        <ele>193.74745395035</ele>
        <time>2021-11-28T13:00:33Z</time>
      </trkpt>
      <trkpt lat="43.45419" lon="6.59524">
        <ele>193.74744959176</ele>
        <time>2021-11-28T13:00:34Z</time>
      </trkpt>
      <trkpt lat="43.45419" lon="6.59525">
        <ele>192.74745361507</ele>
        <time>2021-11-28T13:00:35Z</time>
      </trkpt>
      <trkpt lat="43.4542" lon="6.59526">
        <ele>192.74746233225</ele>
        <time>2021-11-28T13:00:36Z</time>
      </trkpt>
      <trkpt lat="43.4542" lon="6.59527">
        <ele>192.74749619514</ele>
        <time>2021-11-28T13:00:38Z</time>
      </trkpt>
      <trkpt lat="43.4542" lon="6.59527">
        <ele>192.74746903777</ele>
        <time>2021-11-28T13:00:39Z</time>
      </trkpt>
      <trkpt lat="43.45421" lon="6.59526">
        <ele>191.747411035</ele>
        <time>2021-11-28T13:01:00Z</time>
      </trkpt>
      <trkpt lat="43.45422" lon="6.59528">
        <ele>189.74735303223</ele>
        <time>2021-11-28T13:01:01Z</time>
      </trkpt>
      <trkpt lat="43.45422" lon="6.59529">
        <ele>189.74735571444</ele>
        <time>2021-11-28T13:01:02Z</time>
      </trkpt>
      <trkpt lat="43.45422" lon="6.59529">
        <ele>190.74738488346</ele>
        <time>2021-11-28T13:01:03Z</time>
      </trkpt>
      <trkpt lat="43.45422" lon="6.5953">
        <ele>190.74743718654</ele>
        <time>2021-11-28T13:01:04Z</time>
      </trkpt>
      <trkpt lat="43.45422" lon="6.5953">
        <ele>190.74747809023</ele>
        <time>2021-11-28T13:01:05Z</time>
      </trkpt>
      <trkpt lat="43.45421" lon="6.59532">
        <ele>190.74757096171</ele>
        <time>2021-11-28T13:01:06Z</time>
      </trkpt>
      <trkpt lat="43.4542" lon="6.59533">
        <ele>190.74769400805</ele>
        <time>2021-11-28T13:01:07Z</time>
      </trkpt>
      <trkpt lat="43.4542" lon="6.59534">
        <ele>190.74775838107</ele>
        <time>2021-11-28T13:01:08Z</time>
      </trkpt>
      <trkpt lat="43.4542" lon="6.59535">
        <ele>189.74782208353</ele>
        <time>2021-11-28T13:01:09Z</time>
      </trkpt>
      <trkpt lat="43.4542" lon="6.59537">
        <ele>189.74789249152</ele>
        <time>2021-11-28T13:01:10Z</time>
      </trkpt>
      <trkpt lat="43.4542" lon="6.59538">
        <ele>189.74794881791</ele>
        <time>2021-11-28T13:01:11Z</time>
      </trkpt>
      <trkpt lat="43.45419" lon="6.59539">
        <ele>189.7480051443</ele>
        <time>2021-11-28T13:01:12Z</time>
      </trkpt>
      <trkpt lat="43.45419" lon="6.5954">
        <ele>189.74809030443</ele>
        <time>2021-11-28T13:01:13Z</time>
      </trkpt>
      <trkpt lat="43.45419" lon="6.59541">
        <ele>189.74814763665</ele>
        <time>2021-11-28T13:01:14Z</time>
      </trkpt>
      <trkpt lat="43.45419" lon="6.59543">
        <ele>188.74821100384</ele>
        <time>2021-11-28T13:01:15Z</time>
      </trkpt>
      <trkpt lat="43.45419" lon="6.59544">
        <ele>188.7482720241</ele>
        <time>2021-11-28T13:01:16Z</time>
      </trkpt>
      <trkpt lat="43.45419" lon="6.59544">
        <ele>187.74825023115</ele>
        <time>2021-11-28T13:01:54Z</time>
      </trkpt>
      <trkpt lat="43.45419" lon="6.59546">
        <ele>188.7483323738</ele>
        <time>2021-11-28T13:01:55Z</time>
      </trkpt>
      <trkpt lat="43.45418" lon="6.59547">
        <ele>188.74841317534</ele>
        <time>2021-11-28T13:01:56Z</time>
      </trkpt>
      <trkpt lat="43.45417" lon="6.59547">
        <ele>188.74848190695</ele>
        <time>2021-11-28T13:01:57Z</time>
      </trkpt>
      <trkpt lat="43.45417" lon="6.59548">
        <ele>188.74856136739</ele>
        <time>2021-11-28T13:01:58Z</time>
      </trkpt>
      <trkpt lat="43.45417" lon="6.59549">
        <ele>188.7486160174</ele>
        <time>2021-11-28T13:01:59Z</time>
      </trkpt>
      <trkpt lat="43.45416" lon="6.59549">
        <ele>188.74869078398</ele>
        <time>2021-11-28T13:02:12Z</time>
      </trkpt>
      <trkpt lat="43.45417" lon="6.59551">
        <ele>187.74869681895</ele>
        <time>2021-11-28T13:02:13Z</time>
      </trkpt>
      <trkpt lat="43.45417" lon="6.59552">
        <ele>188.748719953</ele>
        <time>2021-11-28T13:02:14Z</time>
      </trkpt>
      <trkpt lat="43.45417" lon="6.59553">
        <ele>188.74875884503</ele>
        <time>2021-11-28T13:02:16Z</time>
      </trkpt>
      <trkpt lat="43.45417" lon="6.59553">
        <ele>188.74879773706</ele>
        <time>2021-11-28T13:02:22Z</time>
      </trkpt>
      <trkpt lat="43.45416" lon="6.59554">
        <ele>187.74886780977</ele>
        <time>2021-11-28T13:02:23Z</time>
      </trkpt>
      <trkpt lat="43.45415" lon="6.59554">
        <ele>187.74894827604</ele>
        <time>2021-11-28T13:02:24Z</time>
      </trkpt>
      <trkpt lat="43.45415" lon="6.59555">
        <ele>187.74899789691</ele>
        <time>2021-11-28T13:02:25Z</time>
      </trkpt>
      <trkpt lat="43.45415" lon="6.59556">
        <ele>187.74902773649</ele>
        <time>2021-11-28T13:02:26Z</time>
      </trkpt>
      <trkpt lat="43.45415" lon="6.59557">
        <ele>187.74907400459</ele>
        <time>2021-11-28T13:02:33Z</time>
      </trkpt>
      <trkpt lat="43.45415" lon="6.59559">
        <ele>186.74916017056</ele>
        <time>2021-11-28T13:02:34Z</time>
      </trkpt>
      <trkpt lat="43.45415" lon="6.59559">
        <ele>187.74917861074</ele>
        <time>2021-11-28T13:02:36Z</time>
      </trkpt>
      <trkpt lat="43.45415" lon="6.5956">
        <ele>186.7492185086</ele>
        <time>2021-11-28T13:02:37Z</time>
      </trkpt>
      <trkpt lat="43.45415" lon="6.59561">
        <ele>185.74926175922</ele>
        <time>2021-11-28T13:02:38Z</time>
      </trkpt>
      <trkpt lat="43.45415" lon="6.59562">
        <ele>185.74925371259</ele>
        <time>2021-11-28T13:02:39Z</time>
      </trkpt>
      <trkpt lat="43.45416" lon="6.59562">
        <ele>185.74922152609</ele>
        <time>2021-11-28T13:02:42Z</time>
      </trkpt>
      <trkpt lat="43.45417" lon="6.59563">
        <ele>185.74918162823</ele>
        <time>2021-11-28T13:02:43Z</time>
      </trkpt>
      <trkpt lat="43.45417" lon="6.59564">
        <ele>185.74916821718</ele>
        <time>2021-11-28T13:02:45Z</time>
      </trkpt>
      <trkpt lat="43.45418" lon="6.59564">
        <ele>185.74913804233</ele>
        <time>2021-11-28T13:02:57Z</time>
      </trkpt>
      <trkpt lat="43.45419" lon="6.59567">
        <ele>183.74917525798</ele>
        <time>2021-11-28T13:02:58Z</time>
      </trkpt>
      <trkpt lat="43.45419" lon="6.59567">
        <ele>183.7491511181</ele>
        <time>2021-11-28T13:02:59Z</time>
      </trkpt>
      <trkpt lat="43.4542" lon="6.59569">
        <ele>182.74914072454</ele>
        <time>2021-11-28T13:03:00Z</time>
      </trkpt>
      <trkpt lat="43.45421" lon="6.5957">
        <ele>183.7491440773</ele>
        <time>2021-11-28T13:03:01Z</time>
      </trkpt>
      <trkpt lat="43.45421" lon="6.5957">
        <ele>183.74915044755</ele>
        <time>2021-11-28T13:03:03Z</time>
      </trkpt>
      <trkpt lat="43.45422" lon="6.59571">
        <ele>183.74911021441</ele>
        <time>2021-11-28T13:03:04Z</time>
      </trkpt>
      <trkpt lat="43.45422" lon="6.59572">
        <ele>182.74908138067</ele>
        <time>2021-11-28T13:03:05Z</time>
      </trkpt>
      <trkpt lat="43.45423" lon="6.59572">
        <ele>182.74908171594</ele>
        <time>2021-11-28T13:03:06Z</time>
      </trkpt>
      <trkpt lat="43.45423" lon="6.59573">
        <ele>182.7490260601</ele>
        <time>2021-11-28T13:03:07Z</time>
      </trkpt>
      <trkpt lat="43.45424" lon="6.59573">
        <ele>182.7489714101</ele>
        <time>2021-11-28T13:03:08Z</time>
      </trkpt>
      <trkpt lat="43.45425" lon="6.59573">
        <ele>182.74891642481</ele>
        <time>2021-11-28T13:03:12Z</time>
      </trkpt>
      <trkpt lat="43.45426" lon="6.59574">
        <ele>183.74883361161</ele>
        <time>2021-11-28T13:03:13Z</time>
      </trkpt>
      <trkpt lat="43.45427" lon="6.59574">
        <ele>183.74875884503</ele>
        <time>2021-11-28T13:03:14Z</time>
      </trkpt>
      <trkpt lat="43.45428" lon="6.59573">
        <ele>183.74868776649</ele>
        <time>2021-11-28T13:03:15Z</time>
      </trkpt>
      <trkpt lat="43.45429" lon="6.59573">
        <ele>182.74863211066</ele>
        <time>2021-11-28T13:03:16Z</time>
      </trkpt>
      <trkpt lat="43.45429" lon="6.59573">
        <ele>182.74858148396</ele>
        <time>2021-11-28T13:03:17Z</time>
      </trkpt>
      <trkpt lat="43.45431" lon="6.59574">
        <ele>183.74852180481</ele>
        <time>2021-11-28T13:03:18Z</time>
      </trkpt>
      <trkpt lat="43.45432" lon="6.59575">
        <ele>183.74847587198</ele>
        <time>2021-11-28T13:03:19Z</time>
      </trkpt>
      <trkpt lat="43.45433" lon="6.59576">
        <ele>182.74843161553</ele>
        <time>2021-11-28T13:03:20Z</time>
      </trkpt>
      <trkpt lat="43.45433" lon="6.59576">
        <ele>182.74839674681</ele>
        <time>2021-11-28T13:03:21Z</time>
      </trkpt>
      <trkpt lat="43.45434" lon="6.59576">
        <ele>183.74836992472</ele>
        <time>2021-11-28T13:03:22Z</time>
      </trkpt>
      <trkpt lat="43.45434" lon="6.59577">
        <ele>181.74834746122</ele>
        <time>2021-11-28T13:03:23Z</time>
      </trkpt>
      <trkpt lat="43.45435" lon="6.59577">
        <ele>181.74831929803</ele>
        <time>2021-11-28T13:03:24Z</time>
      </trkpt>
      <trkpt lat="43.45436" lon="6.59578">
        <ele>180.74824117869</ele>
        <time>2021-11-28T13:03:25Z</time>
      </trkpt>
      <trkpt lat="43.45437" lon="6.59579">
        <ele>180.74822676182</ele>
        <time>2021-11-28T13:03:26Z</time>
      </trkpt>
      <trkpt lat="43.45437" lon="6.5958">
        <ele>179.74825827777</ele>
        <time>2021-11-28T13:03:27Z</time>
      </trkpt>
      <trkpt lat="43.45437" lon="6.59581">
        <ele>179.74827872962</ele>
        <time>2021-11-28T13:03:28Z</time>
      </trkpt>
      <trkpt lat="43.45438" lon="6.59582">
        <ele>179.74828308821</ele>
        <time>2021-11-28T13:03:29Z</time>
      </trkpt>
      <trkpt lat="43.45438" lon="6.59582">
        <ele>178.74825257808</ele>
        <time>2021-11-28T13:03:32Z</time>
      </trkpt>
      <trkpt lat="43.45439" lon="6.59585">
        <ele>178.7482284382</ele>
        <time>2021-11-28T13:03:33Z</time>
      </trkpt>
      <trkpt lat="43.4544" lon="6.59585">
        <ele>178.74821133912</ele>
        <time>2021-11-28T13:03:34Z</time>
      </trkpt>
      <trkpt lat="43.4544" lon="6.59586">
        <ele>178.74823011458</ele>
        <time>2021-11-28T13:03:35Z</time>
      </trkpt>
      <trkpt lat="43.45441" lon="6.59588">
        <ele>178.74824654311</ele>
        <time>2021-11-28T13:03:36Z</time>
      </trkpt>
      <trkpt lat="43.45441" lon="6.59588">
        <ele>178.74824654311</ele>
        <time>2021-11-28T13:03:38Z</time>
      </trkpt>
      <trkpt lat="43.45442" lon="6.59589">
        <ele>177.7482425198</ele>
        <time>2021-11-28T13:03:39Z</time>
      </trkpt>
      <trkpt lat="43.45442" lon="6.59591">
        <ele>177.74828007072</ele>
        <time>2021-11-28T13:03:40Z</time>
      </trkpt>
      <trkpt lat="43.45442" lon="6.59592">
        <ele>177.7483266741</ele>
        <time>2021-11-28T13:03:42Z</time>
      </trkpt>
      <trkpt lat="43.45442" lon="6.59592">
        <ele>176.74835014343</ele>
        <time>2021-11-28T13:03:43Z</time>
      </trkpt>
      <trkpt lat="43.45442" lon="6.59594">
        <ele>176.74839875847</ele>
        <time>2021-11-28T13:03:44Z</time>
      </trkpt>
      <trkpt lat="43.45442" lon="6.59595">
        <ele>176.74844536185</ele>
        <time>2021-11-28T13:03:45Z</time>
      </trkpt>
      <trkpt lat="43.45442" lon="6.59596">
        <ele>175.74848324805</ele>
        <time>2021-11-28T13:03:46Z</time>
      </trkpt>
      <trkpt lat="43.45442" lon="6.59597">
        <ele>175.74851007015</ele>
        <time>2021-11-28T13:03:47Z</time>
      </trkpt>
      <trkpt lat="43.45443" lon="6.59598">
        <ele>175.74849699438</ele>
        <time>2021-11-28T13:03:48Z</time>
      </trkpt>
      <trkpt lat="43.45443" lon="6.59599">
        <ele>175.74852314591</ele>
        <time>2021-11-28T13:03:51Z</time>
      </trkpt>
      <trkpt lat="43.45443" lon="6.596">
        <ele>174.74856539071</ele>
        <time>2021-11-28T13:03:52Z</time>
      </trkpt>
      <trkpt lat="43.45443" lon="6.59601">
        <ele>173.74859489501</ele>
        <time>2021-11-28T13:03:54Z</time>
      </trkpt>
      <trkpt lat="43.45443" lon="6.59602">
        <ele>173.74861065298</ele>
        <time>2021-11-28T13:03:55Z</time>
      </trkpt>
      <trkpt lat="43.45443" lon="6.59602">
        <ele>173.74864820391</ele>
        <time>2021-11-28T13:03:56Z</time>
      </trkpt>
      <trkpt lat="43.45443" lon="6.59603">
        <ele>173.74870721251</ele>
        <time>2021-11-28T13:03:57Z</time>
      </trkpt>
      <trkpt lat="43.45443" lon="6.59604">
        <ele>172.74874744564</ele>
        <time>2021-11-28T13:03:58Z</time>
      </trkpt>
      <trkpt lat="43.45443" lon="6.59605">
        <ele>172.74878231436</ele>
        <time>2021-11-28T13:03:59Z</time>
      </trkpt>
      <trkpt lat="43.45443" lon="6.59606">
        <ele>172.74882120639</ele>
        <time>2021-11-28T13:04:00Z</time>
      </trkpt>
      <trkpt lat="43.45443" lon="6.59607">
        <ele>171.74883025885</ele>
        <time>2021-11-28T13:04:02Z</time>
      </trkpt>
      <trkpt lat="43.45443" lon="6.59608">
        <ele>171.74886814505</ele>
        <time>2021-11-28T13:04:03Z</time>
      </trkpt>
      <trkpt lat="43.45443" lon="6.59609">
        <ele>171.7489278242</ele>
        <time>2021-11-28T13:04:04Z</time>
      </trkpt>
      <trkpt lat="43.45443" lon="6.5961">
        <ele>171.74893318862</ele>
        <time>2021-11-28T13:04:05Z</time>
      </trkpt>
      <trkpt lat="43.45443" lon="6.59611">
        <ele>171.74897677451</ele>
        <time>2021-11-28T13:04:06Z</time>
      </trkpt>
      <trkpt lat="43.45443" lon="6.59612">
        <ele>171.74902572483</ele>
        <time>2021-11-28T13:04:07Z</time>
      </trkpt>
      <trkpt lat="43.45443" lon="6.59613">
        <ele>171.74907601625</ele>
        <time>2021-11-28T13:04:08Z</time>
      </trkpt>
      <trkpt lat="43.45443" lon="6.59614">
        <ele>170.74913770705</ele>
        <time>2021-11-28T13:04:12Z</time>
      </trkpt>
      <trkpt lat="43.45443" lon="6.59616">
        <ele>170.74917559326</ele>
        <time>2021-11-28T13:04:13Z</time>
      </trkpt>
      <trkpt lat="43.45443" lon="6.59616">
        <ele>170.74919168651</ele>
        <time>2021-11-28T13:04:15Z</time>
      </trkpt>
      <trkpt lat="43.45444" lon="6.59617">
        <ele>170.74919436872</ele>
        <time>2021-11-28T13:04:16Z</time>
      </trkpt>
      <trkpt lat="43.45444" lon="6.59618">
        <ele>170.74920409173</ele>
        <time>2021-11-28T13:04:17Z</time>
      </trkpt>
      <trkpt lat="43.45444" lon="6.59618">
        <ele>170.74919705093</ele>
        <time>2021-11-28T13:04:19Z</time>
      </trkpt>
      <trkpt lat="43.45445" lon="6.5962">
        <ele>170.74924030155</ele>
        <time>2021-11-28T13:04:20Z</time>
      </trkpt>
      <trkpt lat="43.45444" lon="6.59621">
        <ele>169.74931138009</ele>
        <time>2021-11-28T13:04:25Z</time>
      </trkpt>
      <trkpt lat="43.45445" lon="6.59622">
        <ele>169.74929260463</ele>
        <time>2021-11-28T13:04:26Z</time>
      </trkpt>
      <trkpt lat="43.45445" lon="6.59623">
        <ele>168.7492986396</ele>
        <time>2021-11-28T13:04:27Z</time>
      </trkpt>
      <trkpt lat="43.45445" lon="6.59624">
        <ele>168.74936334789</ele>
        <time>2021-11-28T13:04:28Z</time>
      </trkpt>
      <trkpt lat="43.45445" lon="6.59625">
        <ele>167.74940492213</ele>
        <time>2021-11-28T13:04:29Z</time>
      </trkpt>
      <trkpt lat="43.45445" lon="6.59627">
        <ele>167.74945420772</ele>
        <time>2021-11-28T13:04:30Z</time>
      </trkpt>
      <trkpt lat="43.45445" lon="6.59628">
        <ele>167.74949947</ele>
        <time>2021-11-28T13:04:31Z</time>
      </trkpt>
      <trkpt lat="43.45445" lon="6.59629">
        <ele>167.74954305589</ele>
        <time>2021-11-28T13:04:32Z</time>
      </trkpt>
      <trkpt lat="43.45445" lon="6.59631">
        <ele>167.74966274947</ele>
        <time>2021-11-28T13:04:34Z</time>
      </trkpt>
      <trkpt lat="43.45445" lon="6.59632">
        <ele>167.74967582524</ele>
        <time>2021-11-28T13:04:35Z</time>
      </trkpt>
      <trkpt lat="43.45445" lon="6.59633">
        <ele>167.74968957156</ele>
        <time>2021-11-28T13:04:36Z</time>
      </trkpt>
      <trkpt lat="43.45446" lon="6.59633">
        <ele>167.74968118966</ele>
        <time>2021-11-28T13:04:37Z</time>
      </trkpt>
      <trkpt lat="43.45446" lon="6.59635">
        <ele>166.74976031482</ele>
        <time>2021-11-28T13:04:39Z</time>
      </trkpt>
      <trkpt lat="43.45446" lon="6.59636">
        <ele>166.74975427985</ele>
        <time>2021-11-28T13:04:40Z</time>
      </trkpt>
      <trkpt lat="43.45446" lon="6.59637">
        <ele>166.74978411943</ele>
        <time>2021-11-28T13:04:41Z</time>
      </trkpt>
      <trkpt lat="43.45447" lon="6.59638">
        <ele>166.7497760728</ele>
        <time>2021-11-28T13:04:43Z</time>
      </trkpt>
      <trkpt lat="43.45447" lon="6.59639">
        <ele>165.74976836145</ele>
        <time>2021-11-28T13:04:51Z</time>
      </trkpt>
      <trkpt lat="43.45449" lon="6.59638">
        <ele>164.74962788075</ele>
        <time>2021-11-28T13:04:52Z</time>
      </trkpt>
      <trkpt lat="43.4545" lon="6.5964">
        <ele>164.74965034425</ele>
        <time>2021-11-28T13:04:54Z</time>
      </trkpt>
      <trkpt lat="43.4545" lon="6.59641">
        <ele>164.74967951328</ele>
        <time>2021-11-28T13:04:55Z</time>
      </trkpt>
      <trkpt lat="43.4545" lon="6.59642">
        <ele>165.74964397401</ele>
        <time>2021-11-28T13:04:57Z</time>
      </trkpt>
      <trkpt lat="43.4545" lon="6.59643">
        <ele>164.7496862188</ele>
        <time>2021-11-28T13:04:59Z</time>
      </trkpt>
      <trkpt lat="43.45451" lon="6.59643">
        <ele>164.74962922186</ele>
        <time>2021-11-28T13:05:00Z</time>
      </trkpt>
      <trkpt lat="43.45451" lon="6.59643">
        <ele>163.74958731234</ele>
        <time>2021-11-28T13:05:01Z</time>
      </trkpt>
      <trkpt lat="43.45452" lon="6.59643">
        <ele>163.74955009669</ele>
        <time>2021-11-28T13:05:02Z</time>
      </trkpt>
      <trkpt lat="43.45452" lon="6.59644">
        <ele>163.74959737062</ele>
        <time>2021-11-28T13:05:03Z</time>
      </trkpt>
      <trkpt lat="43.45452" lon="6.59645">
        <ele>163.74963626266</ele>
        <time>2021-11-28T13:05:04Z</time>
      </trkpt>
      <trkpt lat="43.45453" lon="6.59646">
        <ele>164.7496285513</ele>
        <time>2021-11-28T13:05:05Z</time>
      </trkpt>
      <trkpt lat="43.45453" lon="6.59647">
        <ele>163.74961245805</ele>
        <time>2021-11-28T13:05:06Z</time>
      </trkpt>
      <trkpt lat="43.45454" lon="6.59647">
        <ele>164.7495527789</ele>
        <time>2021-11-28T13:05:07Z</time>
      </trkpt>
      <trkpt lat="43.45454" lon="6.59647">
        <ele>163.74950751662</ele>
        <time>2021-11-28T13:05:08Z</time>
      </trkpt>
      <trkpt lat="43.45455" lon="6.59646">
        <ele>164.74945286661</ele>
        <time>2021-11-28T13:05:09Z</time>
      </trkpt>
      <trkpt lat="43.45455" lon="6.59645">
        <ele>163.74939888716</ele>
        <time>2021-11-28T13:05:10Z</time>
      </trkpt>
      <trkpt lat="43.45455" lon="6.59645">
        <ele>162.74940894544</ele>
        <time>2021-11-28T13:05:14Z</time>
      </trkpt>
      <trkpt lat="43.45456" lon="6.59645">
        <ele>162.74927952886</ele>
        <time>2021-11-28T13:05:15Z</time>
      </trkpt>
      <trkpt lat="43.45457" lon="6.59645">
        <ele>163.74925136566</ele>
        <time>2021-11-28T13:05:16Z</time>
      </trkpt>
      <trkpt lat="43.45457" lon="6.59647">
        <ele>162.74929327518</ele>
        <time>2021-11-28T13:05:18Z</time>
      </trkpt>
      <trkpt lat="43.45459" lon="6.59647">
        <ele>161.74917257577</ele>
        <time>2021-11-28T13:05:20Z</time>
      </trkpt>
      <trkpt lat="43.45459" lon="6.59647">
        <ele>161.74914038926</ele>
        <time>2021-11-28T13:05:21Z</time>
      </trkpt>
      <trkpt lat="43.4546" lon="6.59648">
        <ele>162.74913334846</ele>
        <time>2021-11-28T13:05:22Z</time>
      </trkpt>
      <trkpt lat="43.45461" lon="6.5965">
        <ele>161.74912764877</ele>
        <time>2021-11-28T13:05:24Z</time>
      </trkpt>
      <trkpt lat="43.45461" lon="6.59651">
        <ele>161.74918933958</ele>
        <time>2021-11-28T13:05:25Z</time>
      </trkpt>
      <trkpt lat="43.45461" lon="6.59652">
        <ele>161.74920509756</ele>
        <time>2021-11-28T13:05:26Z</time>
      </trkpt>
      <trkpt lat="43.45462" lon="6.59652">
        <ele>160.74912563711</ele>
        <time>2021-11-28T13:05:28Z</time>
      </trkpt>
      <trkpt lat="43.45465" lon="6.59652">
        <ele>160.74888591468</ele>
        <time>2021-11-28T13:05:30Z</time>
      </trkpt>
      <trkpt lat="43.45466" lon="6.59651">
        <ele>160.74879203737</ele>
        <time>2021-11-28T13:05:31Z</time>
      </trkpt>
      <trkpt lat="43.45466" lon="6.59652">
        <ele>160.7488014251</ele>
        <time>2021-11-28T13:05:32Z</time>
      </trkpt>
      <trkpt lat="43.45466" lon="6.59653">
        <ele>161.74883595854</ele>
        <time>2021-11-28T13:05:33Z</time>
      </trkpt>
      <trkpt lat="43.45467" lon="6.59654">
        <ele>160.74883193523</ele>
        <time>2021-11-28T13:05:35Z</time>
      </trkpt>
      <trkpt lat="43.45467" lon="6.59654">
        <ele>160.74878969043</ele>
        <time>2021-11-28T13:05:36Z</time>
      </trkpt>
      <trkpt lat="43.45468" lon="6.59654">
        <ele>160.7487186119</ele>
        <time>2021-11-28T13:05:37Z</time>
      </trkpt>
      <trkpt lat="43.45468" lon="6.59655">
        <ele>158.74875281006</ele>
        <time>2021-11-28T13:05:39Z</time>
      </trkpt>
      <trkpt lat="43.45469" lon="6.59656">
        <ele>158.74874677509</ele>
        <time>2021-11-28T13:05:40Z</time>
      </trkpt>
      <trkpt lat="43.45469" lon="6.59656">
        <ele>158.74875381589</ele>
        <time>2021-11-28T13:05:41Z</time>
      </trkpt>
      <trkpt lat="43.45469" lon="6.59657">
        <ele>158.74874141067</ele>
        <time>2021-11-28T13:05:43Z</time>
      </trkpt>
      <trkpt lat="43.4547" lon="6.59659">
        <ele>158.74871894717</ele>
        <time>2021-11-28T13:05:45Z</time>
      </trkpt>
      <trkpt lat="43.45471" lon="6.59659">
        <ele>158.74872330576</ele>
        <time>2021-11-28T13:05:46Z</time>
      </trkpt>
      <trkpt lat="43.45471" lon="6.59661">
        <ele>158.74878399074</ele>
        <time>2021-11-28T13:05:47Z</time>
      </trkpt>
      <trkpt lat="43.45471" lon="6.59664">
        <ele>158.74891541898</ele>
        <time>2021-11-28T13:05:49Z</time>
      </trkpt>
      <trkpt lat="43.4547" lon="6.59666">
        <ele>158.74901130795</ele>
        <time>2021-11-28T13:05:50Z</time>
      </trkpt>
      <trkpt lat="43.4547" lon="6.59667">
        <ele>158.74907769263</ele>
        <time>2021-11-28T13:05:51Z</time>
      </trkpt>
      <trkpt lat="43.45471" lon="6.59668">
        <ele>158.74906059355</ele>
        <time>2021-11-28T13:05:54Z</time>
      </trkpt>
      <trkpt lat="43.45471" lon="6.59668">
        <ele>157.74903678894</ele>
        <time>2021-11-28T13:05:55Z</time>
      </trkpt>
      <trkpt lat="43.45472" lon="6.59668">
        <ele>157.74900594354</ele>
        <time>2021-11-28T13:05:56Z</time>
      </trkpt>
      <trkpt lat="43.45472" lon="6.5967">
        <ele>156.74904315919</ele>
        <time>2021-11-28T13:05:58Z</time>
      </trkpt>
      <trkpt lat="43.45472" lon="6.59672">
        <ele>154.74910987914</ele>
        <time>2021-11-28T13:06:00Z</time>
      </trkpt>
      <trkpt lat="43.45473" lon="6.59673">
        <ele>154.74912060797</ele>
        <time>2021-11-28T13:06:01Z</time>
      </trkpt>
      <trkpt lat="43.45473" lon="6.59674">
        <ele>154.7491356954</ele>
        <time>2021-11-28T13:06:02Z</time>
      </trkpt>
      <trkpt lat="43.45473" lon="6.59675">
        <ele>153.74916452914</ele>
        <time>2021-11-28T13:06:05Z</time>
      </trkpt>
      <trkpt lat="43.45474" lon="6.59676">
        <ele>152.74916419387</ele>
        <time>2021-11-28T13:06:08Z</time>
      </trkpt>
      <trkpt lat="43.45475" lon="6.59677">
        <ele>151.74910552055</ele>
        <time>2021-11-28T13:06:09Z</time>
      </trkpt>
      <trkpt lat="43.45475" lon="6.59678">
        <ele>151.74912932515</ele>
        <time>2021-11-28T13:06:10Z</time>
      </trkpt>
      <trkpt lat="43.45475" lon="6.59679">
        <ele>151.74917056412</ele>
        <time>2021-11-28T13:06:11Z</time>
      </trkpt>
      <trkpt lat="43.45476" lon="6.5968">
        <ele>150.74915882945</ele>
        <time>2021-11-28T13:06:12Z</time>
      </trkpt>
      <trkpt lat="43.45477" lon="6.59681">
        <ele>149.74907501042</ele>
        <time>2021-11-28T13:06:14Z</time>
      </trkpt>
      <trkpt lat="43.45478" lon="6.59683">
        <ele>149.74904952943</ele>
        <time>2021-11-28T13:06:15Z</time>
      </trkpt>
      <trkpt lat="43.45479" lon="6.59683">
        <ele>150.74897811562</ele>
        <time>2021-11-28T13:06:16Z</time>
      </trkpt>
      <trkpt lat="43.4548" lon="6.59683">
        <ele>150.74893452972</ele>
        <time>2021-11-28T13:06:17Z</time>
      </trkpt>
      <trkpt lat="43.45481" lon="6.59684">
        <ele>149.7489067018</ele>
        <time>2021-11-28T13:06:19Z</time>
      </trkpt>
      <trkpt lat="43.45481" lon="6.59683">
        <ele>150.74885205179</ele>
        <time>2021-11-28T13:06:20Z</time>
      </trkpt>
      <trkpt lat="43.45482" lon="6.59684">
        <ele>150.74882288277</ele>
        <time>2021-11-28T13:06:21Z</time>
      </trkpt>
      <trkpt lat="43.45482" lon="6.59685">
        <ele>150.74884132296</ele>
        <time>2021-11-28T13:06:22Z</time>
      </trkpt>
      <trkpt lat="43.45482" lon="6.59687">
        <ele>149.74887216836</ele>
        <time>2021-11-28T13:06:24Z</time>
      </trkpt>
      <trkpt lat="43.45483" lon="6.59688">
        <ele>149.74886814505</ele>
        <time>2021-11-28T13:06:25Z</time>
      </trkpt>
      <trkpt lat="43.45484" lon="6.59689">
        <ele>148.74888926744</ele>
        <time>2021-11-28T13:06:26Z</time>
      </trkpt>
      <trkpt lat="43.45484" lon="6.59692">
        <ele>148.74898348004</ele>
        <time>2021-11-28T13:06:28Z</time>
      </trkpt>
      <trkpt lat="43.45485" lon="6.59694">
        <ele>148.74898381531</ele>
        <time>2021-11-28T13:06:30Z</time>
      </trkpt>
      <trkpt lat="43.45486" lon="6.59694">
        <ele>148.74891910702</ele>
        <time>2021-11-28T13:06:31Z</time>
      </trkpt>
      <trkpt lat="43.45486" lon="6.59694">
        <ele>148.74889798462</ele>
        <time>2021-11-28T13:06:32Z</time>
      </trkpt>
      <trkpt lat="43.45486" lon="6.59696">
        <ele>148.74895364046</ele>
        <time>2021-11-28T13:06:34Z</time>
      </trkpt>
      <trkpt lat="43.45486" lon="6.59697">
        <ele>148.74897543341</ele>
        <time>2021-11-28T13:06:35Z</time>
      </trkpt>
      <trkpt lat="43.45487" lon="6.59698">
        <ele>148.74898716807</ele>
        <time>2021-11-28T13:06:36Z</time>
      </trkpt>
      <trkpt lat="43.45487" lon="6.59699">
        <ele>147.74903142452</ele>
        <time>2021-11-28T13:06:37Z</time>
      </trkpt>
      <trkpt lat="43.45487" lon="6.597">
        <ele>147.74899085611</ele>
        <time>2021-11-28T13:06:40Z</time>
      </trkpt>
      <trkpt lat="43.45488" lon="6.59701">
        <ele>147.74898716807</ele>
        <time>2021-11-28T13:06:41Z</time>
      </trkpt>
      <trkpt lat="43.45488" lon="6.59702">
        <ele>146.74900124967</ele>
        <time>2021-11-28T13:06:42Z</time>
      </trkpt>
      <trkpt lat="43.4549" lon="6.59702">
        <ele>146.7489207834</ele>
        <time>2021-11-28T13:06:44Z</time>
      </trkpt>
      <trkpt lat="43.4549" lon="6.59703">
        <ele>146.74889194965</ele>
        <time>2021-11-28T13:06:45Z</time>
      </trkpt>
      <trkpt lat="43.45491" lon="6.59703">
        <ele>146.74884869903</ele>
        <time>2021-11-28T13:06:46Z</time>
      </trkpt>
      <trkpt lat="43.45493" lon="6.59705">
        <ele>145.74877627939</ele>
        <time>2021-11-28T13:06:48Z</time>
      </trkpt>
      <trkpt lat="43.45494" lon="6.59708">
        <ele>144.7487635389</ele>
        <time>2021-11-28T13:06:50Z</time>
      </trkpt>
      <trkpt lat="43.45495" lon="6.59707">
        <ele>143.74866697937</ele>
        <time>2021-11-28T13:06:51Z</time>
      </trkpt>
      <trkpt lat="43.45496" lon="6.59706">
        <ele>143.74859556556</ele>
        <time>2021-11-28T13:06:52Z</time>
      </trkpt>
      <trkpt lat="43.45497" lon="6.59706">
        <ele>143.74851610512</ele>
        <time>2021-11-28T13:06:54Z</time>
      </trkpt>
      <trkpt lat="43.45497" lon="6.59706">
        <ele>142.74844100326</ele>
        <time>2021-11-28T13:06:58Z</time>
      </trkpt>
      <trkpt lat="43.45498" lon="6.59706">
        <ele>141.74840311706</ele>
        <time>2021-11-28T13:07:00Z</time>
      </trkpt>
      <trkpt lat="43.45499" lon="6.59706">
        <ele>142.74834209681</ele>
        <time>2021-11-28T13:07:01Z</time>
      </trkpt>
      <trkpt lat="43.45499" lon="6.59706">
        <ele>142.74829616398</ele>
        <time>2021-11-28T13:07:02Z</time>
      </trkpt>
      <trkpt lat="43.455" lon="6.59706">
        <ele>142.7482579425</ele>
        <time>2021-11-28T13:07:06Z</time>
      </trkpt>
      <trkpt lat="43.455" lon="6.59707">
        <ele>141.74830387533</ele>
        <time>2021-11-28T13:07:08Z</time>
      </trkpt>
      <trkpt lat="43.45499" lon="6.59706">
        <ele>140.74831426889</ele>
        <time>2021-11-28T13:07:10Z</time>
      </trkpt>
      <trkpt lat="43.45499" lon="6.59705">
        <ele>140.74826900661</ele>
        <time>2021-11-28T13:07:11Z</time>
      </trkpt>
      <trkpt lat="43.45499" lon="6.59704">
        <ele>140.74823514372</ele>
        <time>2021-11-28T13:07:12Z</time>
      </trkpt>
      <trkpt lat="43.455" lon="6.59706">
        <ele>140.74823782593</ele>
        <time>2021-11-28T13:07:14Z</time>
      </trkpt>
      <trkpt lat="43.455" lon="6.59707">
        <ele>140.74824821949</ele>
        <time>2021-11-28T13:07:15Z</time>
      </trkpt>
      <trkpt lat="43.45501" lon="6.59708">
        <ele>140.74822475016</ele>
        <time>2021-11-28T13:07:16Z</time>
      </trkpt>
      <trkpt lat="43.45502" lon="6.5971">
        <ele>139.74821402133</ele>
        <time>2021-11-28T13:07:17Z</time>
      </trkpt>
      <trkpt lat="43.45503" lon="6.59711">
        <ele>139.74818284065</ele>
        <time>2021-11-28T13:07:18Z</time>
      </trkpt>
      <trkpt lat="43.45504" lon="6.59712">
        <ele>139.74816138297</ele>
        <time>2021-11-28T13:07:19Z</time>
      </trkpt>
      <trkpt lat="43.45505" lon="6.59713">
        <ele>139.74816138297</ele>
        <time>2021-11-28T13:07:20Z</time>
      </trkpt>
      <trkpt lat="43.45505" lon="6.59715">
        <ele>139.74819591641</ele>
        <time>2021-11-28T13:07:21Z</time>
      </trkpt>
      <trkpt lat="43.45505" lon="6.59716">
        <ele>139.74821703881</ele>
        <time>2021-11-28T13:07:22Z</time>
      </trkpt>
      <trkpt lat="43.45506" lon="6.59718">
        <ele>138.74823849648</ele>
        <time>2021-11-28T13:07:23Z</time>
      </trkpt>
      <trkpt lat="43.45506" lon="6.59719">
        <ele>137.74833136797</ele>
        <time>2021-11-28T13:07:24Z</time>
      </trkpt>
      <trkpt lat="43.45505" lon="6.5972">
        <ele>137.74839004129</ele>
        <time>2021-11-28T13:07:25Z</time>
      </trkpt>
      <trkpt lat="43.45505" lon="6.5972">
        <ele>137.74845005572</ele>
        <time>2021-11-28T13:07:26Z</time>
      </trkpt>
      <trkpt lat="43.45504" lon="6.59721">
        <ele>137.74848391861</ele>
        <time>2021-11-28T13:07:27Z</time>
      </trkpt>
      <trkpt lat="43.45504" lon="6.59722">
        <ele>137.74855030328</ele>
        <time>2021-11-28T13:07:28Z</time>
      </trkpt>
      <trkpt lat="43.45504" lon="6.59723">
        <ele>136.74861970544</ele>
        <time>2021-11-28T13:07:30Z</time>
      </trkpt>
      <trkpt lat="43.45504" lon="6.59724">
        <ele>136.74859757721</ele>
        <time>2021-11-28T13:07:31Z</time>
      </trkpt>
      <trkpt lat="43.45505" lon="6.59724">
        <ele>136.74859489501</ele>
        <time>2021-11-28T13:07:32Z</time>
      </trkpt>
      <trkpt lat="43.45505" lon="6.59726">
        <ele>135.74864585698</ele>
        <time>2021-11-28T13:07:33Z</time>
      </trkpt>
      <trkpt lat="43.45505" lon="6.59727">
        <ele>135.7486763671</ele>
        <time>2021-11-28T13:07:34Z</time>
      </trkpt>
      <trkpt lat="43.45505" lon="6.59728">
        <ele>134.74871090055</ele>
        <time>2021-11-28T13:07:35Z</time>
      </trkpt>
      <trkpt lat="43.45505" lon="6.59729">
        <ele>134.74874744564</ele>
        <time>2021-11-28T13:07:39Z</time>
      </trkpt>
      <trkpt lat="43.45506" lon="6.59731">
        <ele>134.74879505485</ele>
        <time>2021-11-28T13:07:40Z</time>
      </trkpt>
      <trkpt lat="43.45506" lon="6.59732">
        <ele>134.74881651253</ele>
        <time>2021-11-28T13:07:41Z</time>
      </trkpt>
      <trkpt lat="43.45507" lon="6.59734">
        <ele>133.74883461744</ele>
        <time>2021-11-28T13:07:42Z</time>
      </trkpt>
      <trkpt lat="43.45507" lon="6.59735">
        <ele>134.74882087111</ele>
        <time>2021-11-28T13:07:43Z</time>
      </trkpt>
      <trkpt lat="43.45508" lon="6.59736">
        <ele>134.74882288277</ele>
        <time>2021-11-28T13:07:44Z</time>
      </trkpt>
      <trkpt lat="43.45508" lon="6.59737">
        <ele>131.74884601682</ele>
        <time>2021-11-28T13:07:50Z</time>
      </trkpt>
      <trkpt lat="43.45508" lon="6.59737">
        <ele>131.74884869903</ele>
        <time>2021-11-28T13:07:54Z</time>
      </trkpt>
      <trkpt lat="43.45509" lon="6.59739">
        <ele>131.74883260578</ele>
        <time>2021-11-28T13:07:55Z</time>
      </trkpt>
      <trkpt lat="43.4551" lon="6.59739">
        <ele>131.74879069626</ele>
        <time>2021-11-28T13:07:56Z</time>
      </trkpt>
      <trkpt lat="43.4551" lon="6.59738">
        <ele>130.7486988306</ele>
        <time>2021-11-28T13:07:58Z</time>
      </trkpt>
      <trkpt lat="43.45511" lon="6.5974">
        <ele>130.74869681895</ele>
        <time>2021-11-28T13:08:00Z</time>
      </trkpt>
      <trkpt lat="43.45512" lon="6.5974">
        <ele>129.74864485115</ele>
        <time>2021-11-28T13:08:01Z</time>
      </trkpt>
      <trkpt lat="43.45513" lon="6.59741">
        <ele>129.74858383089</ele>
        <time>2021-11-28T13:08:02Z</time>
      </trkpt>
      <trkpt lat="43.45514" lon="6.59741">
        <ele>129.74854192138</ele>
        <time>2021-11-28T13:08:06Z</time>
      </trkpt>
      <trkpt lat="43.45515" lon="6.59743">
        <ele>129.74852348119</ele>
        <time>2021-11-28T13:08:07Z</time>
      </trkpt>
      <trkpt lat="43.45515" lon="6.59742">
        <ele>129.74846547842</ele>
        <time>2021-11-28T13:08:08Z</time>
      </trkpt>
      <trkpt lat="43.45516" lon="6.59742">
        <ele>129.74839171767</ele>
        <time>2021-11-28T13:08:10Z</time>
      </trkpt>
      <trkpt lat="43.45516" lon="6.59741">
        <ele>129.74835316092</ele>
        <time>2021-11-28T13:08:11Z</time>
      </trkpt>
      <trkpt lat="43.45518" lon="6.59742">
        <ele>128.74825358391</ele>
        <time>2021-11-28T13:08:13Z</time>
      </trkpt>
      <trkpt lat="43.45519" lon="6.59743">
        <ele>128.748200275</ele>
        <time>2021-11-28T13:08:15Z</time>
      </trkpt>
      <trkpt lat="43.45519" lon="6.59744">
        <ele>128.74821234494</ele>
        <time>2021-11-28T13:08:16Z</time>
      </trkpt>
      <trkpt lat="43.4552" lon="6.59745">
        <ele>128.74819356948</ele>
        <time>2021-11-28T13:08:17Z</time>
      </trkpt>
      <trkpt lat="43.45521" lon="6.59746">
        <ele>127.74817144126</ele>
        <time>2021-11-28T13:08:19Z</time>
      </trkpt>
      <trkpt lat="43.45522" lon="6.59748">
        <ele>127.74819591641</ele>
        <time>2021-11-28T13:08:20Z</time>
      </trkpt>
      <trkpt lat="43.45522" lon="6.59749">
        <ele>127.74819491059</ele>
        <time>2021-11-28T13:08:21Z</time>
      </trkpt>
      <trkpt lat="43.45521" lon="6.59749">
        <ele>126.74829784036</ele>
        <time>2021-11-28T13:08:23Z</time>
      </trkpt>
      <trkpt lat="43.45522" lon="6.59752">
        <ele>126.74832198024</ele>
        <time>2021-11-28T13:08:25Z</time>
      </trkpt>
      <trkpt lat="43.45522" lon="6.59754">
        <ele>126.74841619283</ele>
        <time>2021-11-28T13:08:26Z</time>
      </trkpt>
      <trkpt lat="43.45522" lon="6.59756">
        <ele>126.7484292686</ele>
        <time>2021-11-28T13:08:28Z</time>
      </trkpt>
      <trkpt lat="43.45522" lon="6.59757">
        <ele>126.74850939959</ele>
        <time>2021-11-28T13:08:30Z</time>
      </trkpt>
      <trkpt lat="43.45523" lon="6.59758">
        <ele>126.7484728545</ele>
        <time>2021-11-28T13:08:35Z</time>
      </trkpt>
      <trkpt lat="43.45523" lon="6.59757">
        <ele>125.74841585755</ele>
        <time>2021-11-28T13:08:36Z</time>
      </trkpt>
      <trkpt lat="43.45524" lon="6.59757">
        <ele>125.74836657196</ele>
        <time>2021-11-28T13:08:40Z</time>
      </trkpt>
      <trkpt lat="43.45525" lon="6.59757">
        <ele>124.74831091613</ele>
        <time>2021-11-28T13:08:41Z</time>
      </trkpt>
      <trkpt lat="43.45525" lon="6.59758">
        <ele>124.74829817563</ele>
        <time>2021-11-28T13:08:42Z</time>
      </trkpt>
      <trkpt lat="43.45527" lon="6.59759">
        <ele>123.7482425198</ele>
        <time>2021-11-28T13:08:44Z</time>
      </trkpt>
      <trkpt lat="43.45527" lon="6.59761">
        <ele>122.74823648483</ele>
        <time>2021-11-28T13:08:45Z</time>
      </trkpt>
      <trkpt lat="43.45528" lon="6.59762">
        <ele>122.74825626612</ele>
        <time>2021-11-28T13:08:46Z</time>
      </trkpt>
      <trkpt lat="43.45528" lon="6.59762">
        <ele>122.74823514372</ele>
        <time>2021-11-28T13:08:47Z</time>
      </trkpt>
      <trkpt lat="43.45529" lon="6.59763">
        <ele>121.74821167439</ele>
        <time>2021-11-28T13:08:49Z</time>
      </trkpt>
      <trkpt lat="43.45529" lon="6.59763">
        <ele>120.74817278236</ele>
        <time>2021-11-28T13:08:52Z</time>
      </trkpt>
      <trkpt lat="43.4553" lon="6.59763">
        <ele>119.74810539186</ele>
        <time>2021-11-28T13:08:53Z</time>
      </trkpt>
      <trkpt lat="43.45531" lon="6.59763">
        <ele>119.74804403633</ele>
        <time>2021-11-28T13:08:54Z</time>
      </trkpt>
      <trkpt lat="43.45532" lon="6.59764">
        <ele>119.74802492559</ele>
        <time>2021-11-28T13:08:56Z</time>
      </trkpt>
      <trkpt lat="43.45532" lon="6.59764">
        <ele>119.74800983816</ele>
        <time>2021-11-28T13:08:57Z</time>
      </trkpt>
      <trkpt lat="43.45533" lon="6.59765">
        <ele>118.74797597528</ele>
        <time>2021-11-28T13:08:58Z</time>
      </trkpt>
      <trkpt lat="43.45534" lon="6.59766">
        <ele>118.74792467803</ele>
        <time>2021-11-28T13:08:59Z</time>
      </trkpt>
      <trkpt lat="43.45534" lon="6.59766">
        <ele>118.74788243324</ele>
        <time>2021-11-28T13:09:00Z</time>
      </trkpt>
      <trkpt lat="43.45535" lon="6.59766">
        <ele>118.74780699611</ele>
        <time>2021-11-28T13:09:01Z</time>
      </trkpt>
      <trkpt lat="43.45537" lon="6.59765">
        <ele>118.74763667583</ele>
        <time>2021-11-28T13:09:03Z</time>
      </trkpt>
      <trkpt lat="43.45539" lon="6.59765">
        <ele>117.74745227396</ele>
        <time>2021-11-28T13:09:05Z</time>
      </trkpt>
      <trkpt lat="43.4554" lon="6.59764">
        <ele>117.74737884849</ele>
        <time>2021-11-28T13:09:06Z</time>
      </trkpt>
      <trkpt lat="43.45541" lon="6.59764">
        <ele>116.74729201198</ele>
        <time>2021-11-28T13:09:07Z</time>
      </trkpt>
      <trkpt lat="43.45543" lon="6.59765">
        <ele>115.74717198312</ele>
        <time>2021-11-28T13:09:09Z</time>
      </trkpt>
      <trkpt lat="43.45544" lon="6.59764">
        <ele>115.74705798924</ele>
        <time>2021-11-28T13:09:10Z</time>
      </trkpt>
      <trkpt lat="43.45545" lon="6.59764">
        <ele>116.74698054045</ele>
        <time>2021-11-28T13:09:11Z</time>
      </trkpt>
      <trkpt lat="43.45547" lon="6.59764">
        <ele>115.74683737755</ele>
        <time>2021-11-28T13:09:13Z</time>
      </trkpt>
      <trkpt lat="43.45548" lon="6.59764">
        <ele>115.74675288796</ele>
        <time>2021-11-28T13:09:15Z</time>
      </trkpt>
      <trkpt lat="43.45549" lon="6.59764">
        <ele>115.74668013304</ele>
        <time>2021-11-28T13:09:16Z</time>
      </trkpt>
      <trkpt lat="43.4555" lon="6.59765">
        <ele>115.74662581831</ele>
        <time>2021-11-28T13:09:17Z</time>
      </trkpt>
      <trkpt lat="43.45551" lon="6.59766">
        <ele>115.74655943364</ele>
        <time>2021-11-28T13:09:19Z</time>
      </trkpt>
      <trkpt lat="43.45552" lon="6.59766">
        <ele>115.74652724713</ele>
        <time>2021-11-28T13:09:20Z</time>
      </trkpt>
      <trkpt lat="43.45552" lon="6.59767">
        <ele>114.74649606645</ele>
        <time>2021-11-28T13:09:21Z</time>
      </trkpt>
      <trkpt lat="43.45554" lon="6.59767">
        <ele>114.74641660601</ele>
        <time>2021-11-28T13:09:23Z</time>
      </trkpt>
      <trkpt lat="43.45554" lon="6.59769">
        <ele>113.74642431736</ele>
        <time>2021-11-28T13:09:25Z</time>
      </trkpt>
      <trkpt lat="43.45555" lon="6.5977">
        <ele>113.74639950693</ele>
        <time>2021-11-28T13:09:26Z</time>
      </trkpt>
      <trkpt lat="43.45555" lon="6.59771">
        <ele>112.74640788883</ele>
        <time>2021-11-28T13:09:27Z</time>
      </trkpt>
      <trkpt lat="43.45556" lon="6.59772">
        <ele>112.7464223057</ele>
        <time>2021-11-28T13:09:29Z</time>
      </trkpt>
      <trkpt lat="43.45556" lon="6.59773">
        <ele>112.74639179558</ele>
        <time>2021-11-28T13:09:30Z</time>
      </trkpt>
      <trkpt lat="43.45557" lon="6.59774">
        <ele>111.74644041061</ele>
        <time>2021-11-28T13:09:31Z</time>
      </trkpt>
      <trkpt lat="43.45558" lon="6.59777">
        <ele>111.74648667872</ele>
        <time>2021-11-28T13:09:33Z</time>
      </trkpt>
      <trkpt lat="43.45558" lon="6.59779">
        <ele>111.74653797597</ele>
        <time>2021-11-28T13:09:34Z</time>
      </trkpt>
      <trkpt lat="43.45558" lon="6.5978">
        <ele>111.74658860266</ele>
        <time>2021-11-28T13:09:35Z</time>
      </trkpt>
      <trkpt lat="43.45558" lon="6.59781">
        <ele>111.74662816525</ele>
        <time>2021-11-28T13:09:36Z</time>
      </trkpt>
      <trkpt lat="43.45558" lon="6.59781">
        <ele>110.74662213027</ele>
        <time>2021-11-28T13:09:37Z</time>
      </trkpt>
      <trkpt lat="43.45559" lon="6.59782">
        <ele>111.74658759683</ele>
        <time>2021-11-28T13:09:38Z</time>
      </trkpt>
      <trkpt lat="43.45559" lon="6.59783">
        <ele>110.74658927321</ele>
        <time>2021-11-28T13:09:40Z</time>
      </trkpt>
      <trkpt lat="43.45559" lon="6.59783">
        <ele>110.74657955021</ele>
        <time>2021-11-28T13:09:41Z</time>
      </trkpt>
      <trkpt lat="43.4556" lon="6.59784">
        <ele>110.74657921493</ele>
        <time>2021-11-28T13:09:42Z</time>
      </trkpt>
      <trkpt lat="43.45561" lon="6.59785">
        <ele>109.74654769897</ele>
        <time>2021-11-28T13:09:46Z</time>
      </trkpt>
      <trkpt lat="43.45562" lon="6.59786">
        <ele>108.74646857381</ele>
        <time>2021-11-28T13:09:48Z</time>
      </trkpt>
      <trkpt lat="43.45564" lon="6.59785">
        <ele>107.74629355967</ele>
        <time>2021-11-28T13:09:50Z</time>
      </trkpt>
      <trkpt lat="43.45565" lon="6.59784">
        <ele>107.74618425965</ele>
        <time>2021-11-28T13:09:51Z</time>
      </trkpt>
      <trkpt lat="43.45566" lon="6.59785">
        <ele>107.74608702958</ele>
        <time>2021-11-28T13:09:52Z</time>
      </trkpt>
      <trkpt lat="43.45568" lon="6.59785">
        <ele>107.74596666545</ele>
        <time>2021-11-28T13:09:54Z</time>
      </trkpt>
      <trkpt lat="43.45569" lon="6.59785">
        <ele>107.74588217586</ele>
        <time>2021-11-28T13:09:55Z</time>
      </trkpt>
      <trkpt lat="43.4557" lon="6.59786">
        <ele>106.74582283199</ele>
        <time>2021-11-28T13:09:56Z</time>
      </trkpt>
      <trkpt lat="43.45571" lon="6.59787">
        <ele>106.745787628</ele>
        <time>2021-11-28T13:09:57Z</time>
      </trkpt>
      <trkpt lat="43.45572" lon="6.59788">
        <ele>105.74576583505</ele>
        <time>2021-11-28T13:09:58Z</time>
      </trkpt>
      <trkpt lat="43.45572" lon="6.59789">
        <ele>105.74574605376</ele>
        <time>2021-11-28T13:09:59Z</time>
      </trkpt>
      <trkpt lat="43.45573" lon="6.59789">
        <ele>104.74570548534</ele>
        <time>2021-11-28T13:10:00Z</time>
      </trkpt>
      <trkpt lat="43.45574" lon="6.59789">
        <ele>104.74565921724</ele>
        <time>2021-11-28T13:10:01Z</time>
      </trkpt>
      <trkpt lat="43.45574" lon="6.59789">
        <ele>104.74562870711</ele>
        <time>2021-11-28T13:10:02Z</time>
      </trkpt>
      <trkpt lat="43.45575" lon="6.59789">
        <ele>104.74560054392</ele>
        <time>2021-11-28T13:10:03Z</time>
      </trkpt>
      <trkpt lat="43.45575" lon="6.59789">
        <ele>104.74557439238</ele>
        <time>2021-11-28T13:10:06Z</time>
      </trkpt>
      <trkpt lat="43.45576" lon="6.5979">
        <ele>104.74548017979</ele>
        <time>2021-11-28T13:10:07Z</time>
      </trkpt>
      <trkpt lat="43.45577" lon="6.5979">
        <ele>104.74546106905</ele>
        <time>2021-11-28T13:10:08Z</time>
      </trkpt>
      <trkpt lat="43.45578" lon="6.5979">
        <ele>103.74535478652</ele>
        <time>2021-11-28T13:10:10Z</time>
      </trkpt>
      <trkpt lat="43.45579" lon="6.59791">
        <ele>103.74532360584</ele>
        <time>2021-11-28T13:10:11Z</time>
      </trkpt>
      <trkpt lat="43.4558" lon="6.59791">
        <ele>103.74528504908</ele>
        <time>2021-11-28T13:10:12Z</time>
      </trkpt>
      <trkpt lat="43.4558" lon="6.59791">
        <ele>102.74522235245</ele>
        <time>2021-11-28T13:10:19Z</time>
      </trkpt>
      <trkpt lat="43.45581" lon="6.59793">
        <ele>101.7451851368</ele>
        <time>2021-11-28T13:10:20Z</time>
      </trkpt>
      <trkpt lat="43.45582" lon="6.59792">
        <ele>101.74518044293</ele>
        <time>2021-11-28T13:10:21Z</time>
      </trkpt>
      <trkpt lat="43.45582" lon="6.59793">
        <ele>100.74510835856</ele>
        <time>2021-11-28T13:10:23Z</time>
      </trkpt>
      <trkpt lat="43.45583" lon="6.59792">
        <ele>100.74504700303</ele>
        <time>2021-11-28T13:10:24Z</time>
      </trkpt>
      <trkpt lat="43.45583" lon="6.59793">
        <ele>100.74503962696</ele>
        <time>2021-11-28T13:10:25Z</time>
      </trkpt>
      <trkpt lat="43.45584" lon="6.59794">
        <ele>100.74505002052</ele>
        <time>2021-11-28T13:10:26Z</time>
      </trkpt>
      <trkpt lat="43.45584" lon="6.59795">
        <ele>99.745053708553</ele>
        <time>2021-11-28T13:10:28Z</time>
      </trkpt>
      <trkpt lat="43.45585" lon="6.59795">
        <ele>99.744980953634</ele>
        <time>2021-11-28T13:10:30Z</time>
      </trkpt>
      <trkpt lat="43.45586" lon="6.59796">
        <ele>98.744986653328</ele>
        <time>2021-11-28T13:10:31Z</time>
      </trkpt>
      <trkpt lat="43.45586" lon="6.59797">
        <ele>98.74502286315</ele>
        <time>2021-11-28T13:10:32Z</time>
      </trkpt>
      <trkpt lat="43.45587" lon="6.59798">
        <ele>98.744996376336</ele>
        <time>2021-11-28T13:10:34Z</time>
      </trkpt>
      <trkpt lat="43.45587" lon="6.59797">
        <ele>98.74490853399</ele>
        <time>2021-11-28T13:10:35Z</time>
      </trkpt>
      <trkpt lat="43.45588" lon="6.59797">
        <ele>98.744823038578</ele>
        <time>2021-11-28T13:10:36Z</time>
      </trkpt>
      <trkpt lat="43.45589" lon="6.59796">
        <ele>98.744715750217</ele>
        <time>2021-11-28T13:10:37Z</time>
      </trkpt>
      <trkpt lat="43.45591" lon="6.59797">
        <ele>98.744577281177</ele>
        <time>2021-11-28T13:10:39Z</time>
      </trkpt>
      <trkpt lat="43.45592" lon="6.59797">
        <ele>98.744513578713</ele>
        <time>2021-11-28T13:10:40Z</time>
      </trkpt>
      <trkpt lat="43.45593" lon="6.59796">
        <ele>98.744410313666</ele>
        <time>2021-11-28T13:10:41Z</time>
      </trkpt>
      <trkpt lat="43.45594" lon="6.59795">
        <ele>97.744236305356</ele>
        <time>2021-11-28T13:10:43Z</time>
      </trkpt>
      <trkpt lat="43.45596" lon="6.59795">
        <ele>98.744110576808</ele>
        <time>2021-11-28T13:10:45Z</time>
      </trkpt>
      <trkpt lat="43.45597" lon="6.59794">
        <ele>98.744031451643</ele>
        <time>2021-11-28T13:10:46Z</time>
      </trkpt>
      <trkpt lat="43.45598" lon="6.59795">
        <ele>98.744007982314</ele>
        <time>2021-11-28T13:10:47Z</time>
      </trkpt>
      <trkpt lat="43.45599" lon="6.59793">
        <ele>98.743837662041</ele>
        <time>2021-11-28T13:10:49Z</time>
      </trkpt>
      <trkpt lat="43.45599" lon="6.59792">
        <ele>98.743738420308</ele>
        <time>2021-11-28T13:10:50Z</time>
      </trkpt>
      <trkpt lat="43.456" lon="6.59791">
        <ele>98.743658289313</ele>
        <time>2021-11-28T13:10:51Z</time>
      </trkpt>
      <trkpt lat="43.45602" lon="6.59792">
        <ele>98.743567764759</ele>
        <time>2021-11-28T13:10:53Z</time>
      </trkpt>
      <trkpt lat="43.45603" lon="6.59794">
        <ele>98.743481934071</ele>
        <time>2021-11-28T13:10:55Z</time>
      </trkpt>
      <trkpt lat="43.45604" lon="6.59794">
        <ele>98.743444383144</ele>
        <time>2021-11-28T13:10:56Z</time>
      </trkpt>
      <trkpt lat="43.45605" lon="6.59794">
        <ele>98.743367269635</ele>
        <time>2021-11-28T13:10:58Z</time>
      </trkpt>
      <trkpt lat="43.45607" lon="6.59794">
        <ele>98.743216395378</ele>
        <time>2021-11-28T13:11:00Z</time>
      </trkpt>
      <trkpt lat="43.45607" lon="6.59794">
        <ele>98.743194267154</ele>
        <time>2021-11-28T13:11:01Z</time>
      </trkpt>
      <trkpt lat="43.45608" lon="6.59795">
        <ele>98.743172474205</ele>
        <time>2021-11-28T13:11:02Z</time>
      </trkpt>
      <trkpt lat="43.45608" lon="6.59795">
        <ele>98.743156380951</ele>
        <time>2021-11-28T13:11:05Z</time>
      </trkpt>
      <trkpt lat="43.4561" lon="6.59796">
        <ele>97.743049427867</ele>
        <time>2021-11-28T13:11:06Z</time>
      </trkpt>
      <trkpt lat="43.45611" lon="6.59795">
        <ele>96.74297298491</ele>
        <time>2021-11-28T13:11:08Z</time>
      </trkpt>
      <trkpt lat="43.45611" lon="6.59796">
        <ele>95.74292101711</ele>
        <time>2021-11-28T13:11:09Z</time>
      </trkpt>
      <trkpt lat="43.45612" lon="6.59796">
        <ele>94.742866031826</ele>
        <time>2021-11-28T13:11:13Z</time>
      </trkpt>
      <trkpt lat="43.45613" lon="6.59796">
        <ele>94.742827139795</ele>
        <time>2021-11-28T13:11:14Z</time>
      </trkpt>
      <trkpt lat="43.45613" lon="6.59795">
        <ele>94.742777518928</ele>
        <time>2021-11-28T13:11:15Z</time>
      </trkpt>
      <trkpt lat="43.45613" lon="6.59793">
        <ele>94.742679283023</ele>
        <time>2021-11-28T13:11:16Z</time>
      </trkpt>
      <trkpt lat="43.45614" lon="6.59792">
        <ele>94.742583729327</ele>
        <time>2021-11-28T13:11:17Z</time>
      </trkpt>
      <trkpt lat="43.45616" lon="6.59792">
        <ele>93.742441572249</ele>
        <time>2021-11-28T13:11:19Z</time>
      </trkpt>
      <trkpt lat="43.45616" lon="6.59792">
        <ele>93.742360770702</ele>
        <time>2021-11-28T13:11:20Z</time>
      </trkpt>
      <trkpt lat="43.45617" lon="6.59792">
        <ele>93.74230209738</ele>
        <time>2021-11-28T13:11:21Z</time>
      </trkpt>
      <trkpt lat="43.45618" lon="6.5979">
        <ele>92.742133118212</ele>
        <time>2021-11-28T13:11:23Z</time>
      </trkpt>
      <trkpt lat="43.4562" lon="6.59789">
        <ele>92.74195843935</ele>
        <time>2021-11-28T13:11:25Z</time>
      </trkpt>
      <trkpt lat="43.45621" lon="6.59789">
        <ele>91.741859532893</ele>
        <time>2021-11-28T13:11:26Z</time>
      </trkpt>
      <trkpt lat="43.45622" lon="6.59788">
        <ele>91.741758279502</ele>
        <time>2021-11-28T13:11:27Z</time>
      </trkpt>
      <trkpt lat="43.45624" lon="6.59788">
        <ele>91.741585612297</ele>
        <time>2021-11-28T13:11:29Z</time>
      </trkpt>
      <trkpt lat="43.45625" lon="6.59787">
        <ele>91.741471283138</ele>
        <time>2021-11-28T13:11:30Z</time>
      </trkpt>
      <trkpt lat="43.45626" lon="6.59787">
        <ele>92.741408251226</ele>
        <time>2021-11-28T13:11:31Z</time>
      </trkpt>
      <trkpt lat="43.45628" lon="6.59787">
        <ele>91.741228207946</ele>
        <time>2021-11-28T13:11:33Z</time>
      </trkpt>
      <trkpt lat="43.45629" lon="6.59788">
        <ele>91.741174563766</ele>
        <time>2021-11-28T13:11:35Z</time>
      </trkpt>
      <trkpt lat="43.4563" lon="6.59787">
        <ele>91.741104826331</ele>
        <time>2021-11-28T13:11:36Z</time>
      </trkpt>
      <trkpt lat="43.4563" lon="6.59786">
        <ele>91.741045817733</ele>
        <time>2021-11-28T13:11:37Z</time>
      </trkpt>
      <trkpt lat="43.45631" lon="6.59785">
        <ele>91.740878850222</ele>
        <time>2021-11-28T13:11:39Z</time>
      </trkpt>
      <trkpt lat="43.45632" lon="6.59784">
        <ele>91.740793019533</ele>
        <time>2021-11-28T13:11:40Z</time>
      </trkpt>
      <trkpt lat="43.45633" lon="6.59783">
        <ele>91.740665949881</ele>
        <time>2021-11-28T13:11:41Z</time>
      </trkpt>
      <trkpt lat="43.45634" lon="6.59782">
        <ele>91.740570060909</ele>
        <time>2021-11-28T13:11:42Z</time>
      </trkpt>
      <trkpt lat="43.45635" lon="6.59781">
        <ele>91.740393035114</ele>
        <time>2021-11-28T13:11:44Z</time>
      </trkpt>
      <trkpt lat="43.45636" lon="6.5978">
        <ele>91.740348108113</ele>
        <time>2021-11-28T13:11:45Z</time>
      </trkpt>
      <trkpt lat="43.45636" lon="6.5978">
        <ele>90.74027736485</ele>
        <time>2021-11-28T13:11:46Z</time>
      </trkpt>
      <trkpt lat="43.45638" lon="6.59781">
        <ele>90.740217015147</ele>
        <time>2021-11-28T13:11:48Z</time>
      </trkpt>
      <trkpt lat="43.45639" lon="6.59782">
        <ele>90.740130849183</ele>
        <time>2021-11-28T13:11:50Z</time>
      </trkpt>
      <trkpt lat="43.45641" lon="6.59782">
        <ele>90.740036301315</ele>
        <time>2021-11-28T13:11:51Z</time>
      </trkpt>
      <trkpt lat="43.45642" lon="6.59783">
        <ele>90.739947453141</ele>
        <time>2021-11-28T13:11:52Z</time>
      </trkpt>
      <trkpt lat="43.45644" lon="6.59785">
        <ele>90.739861622453</ele>
        <time>2021-11-28T13:11:54Z</time>
      </trkpt>
      <trkpt lat="43.45645" lon="6.59784">
        <ele>90.739757016301</ele>
        <time>2021-11-28T13:11:55Z</time>
      </trkpt>
      <trkpt lat="43.45646" lon="6.59784">
        <ele>91.739673867822</ele>
        <time>2021-11-28T13:11:56Z</time>
      </trkpt>
      <trkpt lat="43.45648" lon="6.59784">
        <ele>90.73949483037</ele>
        <time>2021-11-28T13:11:58Z</time>
      </trkpt>
      <trkpt lat="43.45649" lon="6.59784">
        <ele>90.73941000551</ele>
        <time>2021-11-28T13:11:59Z</time>
      </trkpt>
      <trkpt lat="43.4565" lon="6.59784">
        <ele>90.739335238934</ele>
        <time>2021-11-28T13:12:00Z</time>
      </trkpt>
      <trkpt lat="43.45651" lon="6.59784">
        <ele>90.739276900887</ele>
        <time>2021-11-28T13:12:01Z</time>
      </trkpt>
      <trkpt lat="43.45652" lon="6.59784">
        <ele>90.739212863147</ele>
        <time>2021-11-28T13:12:02Z</time>
      </trkpt>
      <trkpt lat="43.45653" lon="6.59784">
        <ele>90.739145807922</ele>
        <time>2021-11-28T13:12:03Z</time>
      </trkpt>
      <trkpt lat="43.45654" lon="6.59784">
        <ele>90.739089816809</ele>
        <time>2021-11-28T13:12:04Z</time>
      </trkpt>
      <trkpt lat="43.45654" lon="6.59785">
        <ele>90.739045895636</ele>
        <time>2021-11-28T13:12:05Z</time>
      </trkpt>
      <trkpt lat="43.45655" lon="6.59785">
        <ele>90.738974146545</ele>
        <time>2021-11-28T13:12:06Z</time>
      </trkpt>
      <trkpt lat="43.45656" lon="6.59785">
        <ele>90.738906420767</ele>
        <time>2021-11-28T13:12:07Z</time>
      </trkpt>
      <trkpt lat="43.45658" lon="6.59787">
        <ele>90.73889233917</ele>
        <time>2021-11-28T13:12:09Z</time>
      </trkpt>
      <trkpt lat="43.45658" lon="6.59788">
        <ele>90.738864175975</ele>
        <time>2021-11-28T13:12:10Z</time>
      </trkpt>
      <trkpt lat="43.45659" lon="6.59788">
        <ele>90.738822266459</ele>
        <time>2021-11-28T13:12:11Z</time>
      </trkpt>
      <trkpt lat="43.4566" lon="6.5979">
        <ele>90.738798126578</ele>
        <time>2021-11-28T13:12:12Z</time>
      </trkpt>
      <trkpt lat="43.4566" lon="6.5979">
        <ele>90.738784380257</ele>
        <time>2021-11-28T13:12:13Z</time>
      </trkpt>
      <trkpt lat="43.45662" lon="6.5979">
        <ele>89.738623782992</ele>
        <time>2021-11-28T13:12:15Z</time>
      </trkpt>
      <trkpt lat="43.45663" lon="6.5979">
        <ele>89.738545663655</ele>
        <time>2021-11-28T13:12:16Z</time>
      </trkpt>
      <trkpt lat="43.45664" lon="6.5979">
        <ele>89.738522529602</ele>
        <time>2021-11-28T13:12:17Z</time>
      </trkpt>
      <trkpt lat="43.45664" lon="6.5979">
        <ele>88.73849671334</ele>
        <time>2021-11-28T13:12:18Z</time>
      </trkpt>
      <trkpt lat="43.45665" lon="6.59791">
        <ele>88.738427646458</ele>
        <time>2021-11-28T13:12:19Z</time>
      </trkpt>
      <trkpt lat="43.45666" lon="6.59791">
        <ele>88.738327734172</ele>
        <time>2021-11-28T13:12:20Z</time>
      </trkpt>
      <trkpt lat="43.45667" lon="6.59791">
        <ele>89.738254979253</ele>
        <time>2021-11-28T13:12:21Z</time>
      </trkpt>
      <trkpt lat="43.45668" lon="6.59791">
        <ele>88.738217428327</ele>
        <time>2021-11-28T13:12:22Z</time>
      </trkpt>
      <trkpt lat="43.4567" lon="6.59792">
        <ele>88.738084994256</ele>
        <time>2021-11-28T13:12:24Z</time>
      </trkpt>
      <trkpt lat="43.45671" lon="6.59793">
        <ele>88.738032020628</ele>
        <time>2021-11-28T13:12:25Z</time>
      </trkpt>
      <trkpt lat="43.45672" lon="6.59794">
        <ele>87.737987093627</ele>
        <time>2021-11-28T13:12:26Z</time>
      </trkpt>
      <trkpt lat="43.45674" lon="6.59794">
        <ele>87.737874776125</ele>
        <time>2021-11-28T13:12:28Z</time>
      </trkpt>
      <trkpt lat="43.45676" lon="6.59794">
        <ele>86.737701773643</ele>
        <time>2021-11-28T13:12:30Z</time>
      </trkpt>
      <trkpt lat="43.45677" lon="6.59794">
        <ele>86.737592473626</ele>
        <time>2021-11-28T13:12:31Z</time>
      </trkpt>
      <trkpt lat="43.45678" lon="6.59794">
        <ele>86.737525418401</ele>
        <time>2021-11-28T13:12:32Z</time>
      </trkpt>
      <trkpt lat="43.4568" lon="6.59795">
        <ele>86.737402372062</ele>
        <time>2021-11-28T13:12:34Z</time>
      </trkpt>
      <trkpt lat="43.45681" lon="6.59796">
        <ele>85.737349398434</ele>
        <time>2021-11-28T13:12:35Z</time>
      </trkpt>
      <trkpt lat="43.45682" lon="6.59796">
        <ele>85.737296424806</ele>
        <time>2021-11-28T13:12:36Z</time>
      </trkpt>
      <trkpt lat="43.45683" lon="6.59796">
        <ele>84.737165331841</ele>
        <time>2021-11-28T13:12:38Z</time>
      </trkpt>
      <trkpt lat="43.45685" lon="6.59796">
        <ele>84.737036250532</ele>
        <time>2021-11-28T13:12:40Z</time>
      </trkpt>
      <trkpt lat="43.45686" lon="6.59795">
        <ele>85.73691521585</ele>
        <time>2021-11-28T13:12:41Z</time>
      </trkpt>
      <trkpt lat="43.45687" lon="6.59794">
        <ele>85.736775740981</ele>
        <time>2021-11-28T13:12:42Z</time>
      </trkpt>
      <trkpt lat="43.45689" lon="6.59794">
        <ele>84.736636266112</ele>
        <time>2021-11-28T13:12:44Z</time>
      </trkpt>
      <trkpt lat="43.4569" lon="6.59794">
        <ele>83.736564181745</ele>
        <time>2021-11-28T13:12:45Z</time>
      </trkpt>
      <trkpt lat="43.45691" lon="6.59794">
        <ele>83.736516572535</ele>
        <time>2021-11-28T13:12:46Z</time>
      </trkpt>
      <trkpt lat="43.45692" lon="6.59796">
        <ele>83.736466616392</ele>
        <time>2021-11-28T13:12:48Z</time>
      </trkpt>
      <trkpt lat="43.45694" lon="6.59796">
        <ele>82.736342228949</ele>
        <time>2021-11-28T13:12:50Z</time>
      </trkpt>
      <trkpt lat="43.45695" lon="6.59795">
        <ele>83.736243657768</ele>
        <time>2021-11-28T13:12:51Z</time>
      </trkpt>
      <trkpt lat="43.45696" lon="6.59795">
        <ele>82.736142739654</ele>
        <time>2021-11-28T13:12:52Z</time>
      </trkpt>
      <trkpt lat="43.45698" lon="6.59793">
        <ele>82.735899329185</ele>
        <time>2021-11-28T13:12:54Z</time>
      </trkpt>
      <trkpt lat="43.45698" lon="6.59792">
        <ele>82.735799752176</ele>
        <time>2021-11-28T13:12:55Z</time>
      </trkpt>
      <trkpt lat="43.45699" lon="6.59791">
        <ele>82.735701516271</ele>
        <time>2021-11-28T13:12:56Z</time>
      </trkpt>
      <trkpt lat="43.457" lon="6.5979">
        <ele>82.735615350306</ele>
        <time>2021-11-28T13:12:57Z</time>
      </trkpt>
      <trkpt lat="43.457" lon="6.5979">
        <ele>82.73557947576</ele>
        <time>2021-11-28T13:12:58Z</time>
      </trkpt>
      <trkpt lat="43.45701" lon="6.5979">
        <ele>82.735502026975</ele>
        <time>2021-11-28T13:12:59Z</time>
      </trkpt>
      <trkpt lat="43.45702" lon="6.59789">
        <ele>81.735437318683</ele>
        <time>2021-11-28T13:13:00Z</time>
      </trkpt>
      <trkpt lat="43.45703" lon="6.59789">
        <ele>81.735357858241</ele>
        <time>2021-11-28T13:13:01Z</time>
      </trkpt>
      <trkpt lat="43.45704" lon="6.5979">
        <ele>81.735300526023</ele>
        <time>2021-11-28T13:13:02Z</time>
      </trkpt>
      <trkpt lat="43.45705" lon="6.59792">
        <ele>79.73526096344</ele>
        <time>2021-11-28T13:13:04Z</time>
      </trkpt>
      <trkpt lat="43.45706" lon="6.59792">
        <ele>79.73522542417</ele>
        <time>2021-11-28T13:13:06Z</time>
      </trkpt>
      <trkpt lat="43.45707" lon="6.59792">
        <ele>79.735119812191</ele>
        <time>2021-11-28T13:13:08Z</time>
      </trkpt>
      <trkpt lat="43.45708" lon="6.59791">
        <ele>78.734967596829</ele>
        <time>2021-11-28T13:13:10Z</time>
      </trkpt>
      <trkpt lat="43.45709" lon="6.59791">
        <ele>78.7348921597</ele>
        <time>2021-11-28T13:13:11Z</time>
      </trkpt>
      <trkpt lat="43.4571" lon="6.5979">
        <ele>78.734808340669</ele>
        <time>2021-11-28T13:13:12Z</time>
      </trkpt>
      <trkpt lat="43.45712" lon="6.5979">
        <ele>77.734665177763</ele>
        <time>2021-11-28T13:13:14Z</time>
      </trkpt>
      <trkpt lat="43.45712" lon="6.5979">
        <ele>77.734626956284</ele>
        <time>2021-11-28T13:13:15Z</time>
      </trkpt>
      <trkpt lat="43.45713" lon="6.5979">
        <ele>77.734578341246</ele>
        <time>2021-11-28T13:13:16Z</time>
      </trkpt>
      <trkpt lat="43.45713" lon="6.5979">
        <ele>78.734540119767</ele>
        <time>2021-11-28T13:13:17Z</time>
      </trkpt>
      <trkpt lat="43.45714" lon="6.59789">
        <ele>78.73445764184</ele>
        <time>2021-11-28T13:13:18Z</time>
      </trkpt>
      <trkpt lat="43.45715" lon="6.59788">
        <ele>77.734367787838</ele>
        <time>2021-11-28T13:13:19Z</time>
      </trkpt>
      <trkpt lat="43.45715" lon="6.59788">
        <ele>77.73428799212</ele>
        <time>2021-11-28T13:13:21Z</time>
      </trkpt>
      <trkpt lat="43.45716" lon="6.59788">
        <ele>76.734260164201</ele>
        <time>2021-11-28T13:13:22Z</time>
      </trkpt>
      <trkpt lat="43.45717" lon="6.59788">
        <ele>76.734159246087</ele>
        <time>2021-11-28T13:13:23Z</time>
      </trkpt>
      <trkpt lat="43.45718" lon="6.59788">
        <ele>76.734059669077</ele>
        <time>2021-11-28T13:13:24Z</time>
      </trkpt>
      <trkpt lat="43.45719" lon="6.59789">
        <ele>76.733999989927</ele>
        <time>2021-11-28T13:13:25Z</time>
      </trkpt>
      <trkpt lat="43.45721" lon="6.59789">
        <ele>76.733884990215</ele>
        <time>2021-11-28T13:13:26Z</time>
      </trkpt>
      <trkpt lat="43.45722" lon="6.59788">
        <ele>75.733743838966</ele>
        <time>2021-11-28T13:13:27Z</time>
      </trkpt>
      <trkpt lat="43.45723" lon="6.59787">
        <ele>75.733604699373</ele>
        <time>2021-11-28T13:13:28Z</time>
      </trkpt>
      <trkpt lat="43.45724" lon="6.59786">
        <ele>75.733472935855</ele>
        <time>2021-11-28T13:13:29Z</time>
      </trkpt>
      <trkpt lat="43.45725" lon="6.59785">
        <ele>75.733357936144</ele>
        <time>2021-11-28T13:13:30Z</time>
      </trkpt>
      <trkpt lat="43.45726" lon="6.59784">
        <ele>75.73325265944</ele>
        <time>2021-11-28T13:13:31Z</time>
      </trkpt>
      <trkpt lat="43.45728" lon="6.59782">
        <ele>75.733027018607</ele>
        <time>2021-11-28T13:13:33Z</time>
      </trkpt>
      <trkpt lat="43.4573" lon="6.59781">
        <ele>75.732820488513</ele>
        <time>2021-11-28T13:13:35Z</time>
      </trkpt>
      <trkpt lat="43.45731" lon="6.5978">
        <ele>75.73270817101</ele>
        <time>2021-11-28T13:13:36Z</time>
      </trkpt>
      <trkpt lat="43.45732" lon="6.5978">
        <ele>75.732640445232</ele>
        <time>2021-11-28T13:13:37Z</time>
      </trkpt>
      <trkpt lat="43.45734" lon="6.59779">
        <ele>73.732483200729</ele>
        <time>2021-11-28T13:13:39Z</time>
      </trkpt>
      <trkpt lat="43.45735" lon="6.59779">
        <ele>74.73240608722</ele>
        <time>2021-11-28T13:13:40Z</time>
      </trkpt>
      <trkpt lat="43.45735" lon="6.5978">
        <ele>74.732380606234</ele>
        <time>2021-11-28T13:13:41Z</time>
      </trkpt>
      <trkpt lat="43.45736" lon="6.5978">
        <ele>73.732335008681</ele>
        <time>2021-11-28T13:13:43Z</time>
      </trkpt>
      <trkpt lat="43.45737" lon="6.59783">
        <ele>72.73236451298</ele>
        <time>2021-11-28T13:13:45Z</time>
      </trkpt>
      <trkpt lat="43.45736" lon="6.59784">
        <ele>72.732450008392</ele>
        <time>2021-11-28T13:13:46Z</time>
      </trkpt>
      <trkpt lat="43.45736" lon="6.59785">
        <ele>72.732503987849</ele>
        <time>2021-11-28T13:13:47Z</time>
      </trkpt>
      <trkpt lat="43.45736" lon="6.59786">
        <ele>72.732526451349</ele>
        <time>2021-11-28T13:13:50Z</time>
      </trkpt>
      <trkpt lat="43.45737" lon="6.59787">
        <ele>72.732550926507</ele>
        <time>2021-11-28T13:13:51Z</time>
      </trkpt>
      <trkpt lat="43.45737" lon="6.59788">
        <ele>72.732578083873</ele>
        <time>2021-11-28T13:13:52Z</time>
      </trkpt>
      <trkpt lat="43.45738" lon="6.59791">
        <ele>71.732604235411</ele>
        <time>2021-11-28T13:13:54Z</time>
      </trkpt>
      <trkpt lat="43.45739" lon="6.59792">
        <ele>71.732605911791</ele>
        <time>2021-11-28T13:13:55Z</time>
      </trkpt>
      <trkpt lat="43.45739" lon="6.59793">
        <ele>70.732567690313</ele>
        <time>2021-11-28T13:13:56Z</time>
      </trkpt>
      <trkpt lat="43.45741" lon="6.59793">
        <ele>69.732418492436</ele>
        <time>2021-11-28T13:13:58Z</time>
      </trkpt>
      <trkpt lat="43.45742" lon="6.59793">
        <ele>68.732327967882</ele>
        <time>2021-11-28T13:14:00Z</time>
      </trkpt>
      <trkpt lat="43.45743" lon="6.59793">
        <ele>68.732242137194</ele>
        <time>2021-11-28T13:14:01Z</time>
      </trkpt>
      <trkpt lat="43.45745" lon="6.59793">
        <ele>67.73209528625</ele>
        <time>2021-11-28T13:14:03Z</time>
      </trkpt>
      <trkpt lat="43.45747" lon="6.59792">
        <ele>67.731906525791</ele>
        <time>2021-11-28T13:14:05Z</time>
      </trkpt>
      <trkpt lat="43.45748" lon="6.59791">
        <ele>67.731787502766</ele>
        <time>2021-11-28T13:14:06Z</time>
      </trkpt>
      <trkpt lat="43.4575" lon="6.5979">
        <ele>67.731642663479</ele>
        <time>2021-11-28T13:14:07Z</time>
      </trkpt>
      <trkpt lat="43.45752" lon="6.59789">
        <ele>66.731434457004</ele>
        <time>2021-11-28T13:14:09Z</time>
      </trkpt>
      <trkpt lat="43.45752" lon="6.59789">
        <ele>66.731357008219</ele>
        <time>2021-11-28T13:14:10Z</time>
      </trkpt>
      <trkpt lat="43.45753" lon="6.59789">
        <ele>66.731268160045</ele>
        <time>2021-11-28T13:14:11Z</time>
      </trkpt>
      <trkpt lat="43.45754" lon="6.59789">
        <ele>66.731220550835</ele>
        <time>2021-11-28T13:14:12Z</time>
      </trkpt>
      <trkpt lat="43.45757" lon="6.59789">
        <ele>66.731046542525</ele>
        <time>2021-11-28T13:14:14Z</time>
      </trkpt>
      <trkpt lat="43.45758" lon="6.59789">
        <ele>66.730943612754</ele>
        <time>2021-11-28T13:14:15Z</time>
      </trkpt>
      <trkpt lat="43.45759" lon="6.59788">
        <ele>66.730848394334</ele>
        <time>2021-11-28T13:14:16Z</time>
      </trkpt>
      <trkpt lat="43.45761" lon="6.59787">
        <ele>65.730599284172</ele>
        <time>2021-11-28T13:14:18Z</time>
      </trkpt>
      <trkpt lat="43.45763" lon="6.59787">
        <ele>65.730417899787</ele>
        <time>2021-11-28T13:14:20Z</time>
      </trkpt>
      <trkpt lat="43.45764" lon="6.59786">
        <ele>65.730338104069</ele>
        <time>2021-11-28T13:14:21Z</time>
      </trkpt>
      <trkpt lat="43.45765" lon="6.59785">
        <ele>65.730227127671</ele>
        <time>2021-11-28T13:14:22Z</time>
      </trkpt>
      <trkpt lat="43.45766" lon="6.59784">
        <ele>65.730103075504</ele>
        <time>2021-11-28T13:14:23Z</time>
      </trkpt>
      <trkpt lat="43.45767" lon="6.59784">
        <ele>64.73000215739</ele>
        <time>2021-11-28T13:14:24Z</time>
      </trkpt>
      <trkpt lat="43.45768" lon="6.59783">
        <ele>64.729889169335</ele>
        <time>2021-11-28T13:14:25Z</time>
      </trkpt>
      <trkpt lat="43.45769" lon="6.59782">
        <ele>64.729773499072</ele>
        <time>2021-11-28T13:14:26Z</time>
      </trkpt>
      <trkpt lat="43.4577" lon="6.59782">
        <ele>64.729690015316</ele>
        <time>2021-11-28T13:14:27Z</time>
      </trkpt>
      <trkpt lat="43.4577" lon="6.59781">
        <ele>63.729616254568</ele>
        <time>2021-11-28T13:14:28Z</time>
      </trkpt>
      <trkpt lat="43.45771" lon="6.5978">
        <ele>63.729537799954</ele>
        <time>2021-11-28T13:14:29Z</time>
      </trkpt>
      <trkpt lat="43.45771" lon="6.59779">
        <ele>63.729446940124</ele>
        <time>2021-11-28T13:14:30Z</time>
      </trkpt>
      <trkpt lat="43.45772" lon="6.59778">
        <ele>63.729357086122</ele>
        <time>2021-11-28T13:14:31Z</time>
      </trkpt>
      <trkpt lat="43.45773" lon="6.59777">
        <ele>63.729268573225</ele>
        <time>2021-11-28T13:14:32Z</time>
      </trkpt>
      <trkpt lat="43.45774" lon="6.59776">
        <ele>63.729161955416</ele>
        <time>2021-11-28T13:14:33Z</time>
      </trkpt>
      <trkpt lat="43.45775" lon="6.59775">
        <ele>62.729046620429</ele>
        <time>2021-11-28T13:14:34Z</time>
      </trkpt>
      <trkpt lat="43.45776" lon="6.59775">
        <ele>62.728927597404</ele>
        <time>2021-11-28T13:14:35Z</time>
      </trkpt>
      <trkpt lat="43.45777" lon="6.59774">
        <ele>62.728819638491</ele>
        <time>2021-11-28T13:14:36Z</time>
      </trkpt>
      <trkpt lat="43.45778" lon="6.59774">
        <ele>62.728710338473</ele>
        <time>2021-11-28T13:14:37Z</time>
      </trkpt>
      <trkpt lat="43.45779" lon="6.59774">
        <ele>62.728620819747</ele>
        <time>2021-11-28T13:14:38Z</time>
      </trkpt>
      <trkpt lat="43.4578" lon="6.59773">
        <ele>62.728535659611</ele>
        <time>2021-11-28T13:14:39Z</time>
      </trkpt>
      <trkpt lat="43.45781" lon="6.59773">
        <ele>61.728454858065</ele>
        <time>2021-11-28T13:14:40Z</time>
      </trkpt>
      <trkpt lat="43.45781" lon="6.59772">
        <ele>61.728369362652</ele>
        <time>2021-11-28T13:14:41Z</time>
      </trkpt>
      <trkpt lat="43.45782" lon="6.59771">
        <ele>61.728285878897</ele>
        <time>2021-11-28T13:14:42Z</time>
      </trkpt>
      <trkpt lat="43.45783" lon="6.59771">
        <ele>61.728190660477</ele>
        <time>2021-11-28T13:14:43Z</time>
      </trkpt>
      <trkpt lat="43.45784" lon="6.59771">
        <ele>61.728099800646</ele>
        <time>2021-11-28T13:14:44Z</time>
      </trkpt>
      <trkpt lat="43.45785" lon="6.59771">
        <ele>61.728027716279</ele>
        <time>2021-11-28T13:14:45Z</time>
      </trkpt>
      <trkpt lat="43.45786" lon="6.59771">
        <ele>61.727966360748</ele>
        <time>2021-11-28T13:14:46Z</time>
      </trkpt>
      <trkpt lat="43.45787" lon="6.5977">
        <ele>61.727851696312</ele>
        <time>2021-11-28T13:14:47Z</time>
      </trkpt>
      <trkpt lat="43.45788" lon="6.59769">
        <ele>61.727731332183</ele>
        <time>2021-11-28T13:14:48Z</time>
      </trkpt>
      <trkpt lat="43.45789" lon="6.59769">
        <ele>61.727641142905</ele>
        <time>2021-11-28T13:14:49Z</time>
      </trkpt>
      <trkpt lat="43.4579" lon="6.59769">
        <ele>61.727561347187</ele>
        <time>2021-11-28T13:14:50Z</time>
      </trkpt>
      <trkpt lat="43.45791" lon="6.59769">
        <ele>61.72748658061</ele>
        <time>2021-11-28T13:14:51Z</time>
      </trkpt>
      <trkpt lat="43.45792" lon="6.59768">
        <ele>61.727399744093</ele>
        <time>2021-11-28T13:14:52Z</time>
      </trkpt>
      <trkpt lat="43.45792" lon="6.59768">
        <ele>61.727347105742</ele>
        <time>2021-11-28T13:14:53Z</time>
      </trkpt>
      <trkpt lat="43.45793" lon="6.59767">
        <ele>61.727288097143</ele>
        <time>2021-11-28T13:14:54Z</time>
      </trkpt>
      <trkpt lat="43.45793" lon="6.59767">
        <ele>61.727209977806</ele>
        <time>2021-11-28T13:14:55Z</time>
      </trkpt>
      <trkpt lat="43.45794" lon="6.59767">
        <ele>61.727124147117</ele>
        <time>2021-11-28T13:14:56Z</time>
      </trkpt>
      <trkpt lat="43.45795" lon="6.59767">
        <ele>61.727062121034</ele>
        <time>2021-11-28T13:14:57Z</time>
      </trkpt>
      <trkpt lat="43.45796" lon="6.59768">
        <ele>61.727017194033</ele>
        <time>2021-11-28T13:14:58Z</time>
      </trkpt>
      <trkpt lat="43.45797" lon="6.59768">
        <ele>61.726941421628</ele>
        <time>2021-11-28T13:14:59Z</time>
      </trkpt>
      <trkpt lat="43.45798" lon="6.59767">
        <ele>60.726827427745</ele>
        <time>2021-11-28T13:15:00Z</time>
      </trkpt>
      <trkpt lat="43.45799" lon="6.59767">
        <ele>60.726717121899</ele>
        <time>2021-11-28T13:15:01Z</time>
      </trkpt>
      <trkpt lat="43.458" lon="6.59766">
        <ele>60.726657107472</ele>
        <time>2021-11-28T13:15:02Z</time>
      </trkpt>
      <trkpt lat="43.45801" lon="6.59766">
        <ele>60.726579993963</ele>
        <time>2021-11-28T13:15:03Z</time>
      </trkpt>
      <trkpt lat="43.45802" lon="6.59767">
        <ele>60.726518973708</ele>
        <time>2021-11-28T13:15:04Z</time>
      </trkpt>
      <trkpt lat="43.45803" lon="6.59768">
        <ele>60.726461306214</ele>
        <time>2021-11-28T13:15:05Z</time>
      </trkpt>
      <trkpt lat="43.45804" lon="6.59768">
        <ele>59.726402632892</ele>
        <time>2021-11-28T13:15:06Z</time>
      </trkpt>
      <trkpt lat="43.45806" lon="6.5977">
        <ele>59.726342283189</ele>
        <time>2021-11-28T13:15:07Z</time>
      </trkpt>
      <trkpt lat="43.45807" lon="6.5977">
        <ele>59.726270198822</ele>
        <time>2021-11-28T13:15:08Z</time>
      </trkpt>
      <trkpt lat="43.45808" lon="6.59771">
        <ele>59.726204484701</ele>
        <time>2021-11-28T13:15:09Z</time>
      </trkpt>
      <trkpt lat="43.45808" lon="6.59771">
        <ele>59.726142458618</ele>
        <time>2021-11-28T13:15:10Z</time>
      </trkpt>
      <trkpt lat="43.45809" lon="6.5977">
        <ele>59.726066015661</ele>
        <time>2021-11-28T13:15:11Z</time>
      </trkpt>
      <trkpt lat="43.4581" lon="6.59769">
        <ele>58.725976161659</ele>
        <time>2021-11-28T13:15:12Z</time>
      </trkpt>
      <trkpt lat="43.45811" lon="6.59769">
        <ele>59.725889325142</ele>
        <time>2021-11-28T13:15:13Z</time>
      </trkpt>
      <trkpt lat="43.45812" lon="6.59769">
        <ele>58.725825957954</ele>
        <time>2021-11-28T13:15:14Z</time>
      </trkpt>
      <trkpt lat="43.45812" lon="6.59768">
        <ele>58.725752197206</ele>
        <time>2021-11-28T13:15:15Z</time>
      </trkpt>
      <trkpt lat="43.45813" lon="6.59767">
        <ele>58.725650273263</ele>
        <time>2021-11-28T13:15:16Z</time>
      </trkpt>
      <trkpt lat="43.45814" lon="6.59766">
        <ele>58.725534267724</ele>
        <time>2021-11-28T13:15:17Z</time>
      </trkpt>
      <trkpt lat="43.45815" lon="6.59766">
        <ele>58.725422956049</ele>
        <time>2021-11-28T13:15:18Z</time>
      </trkpt>
      <trkpt lat="43.45816" lon="6.59766">
        <ele>58.725338801742</ele>
        <time>2021-11-28T13:15:19Z</time>
      </trkpt>
      <trkpt lat="43.45817" lon="6.59766">
        <ele>58.725256994367</ele>
        <time>2021-11-28T13:15:20Z</time>
      </trkpt>
      <trkpt lat="43.45818" lon="6.59766">
        <ele>57.725197315216</ele>
        <time>2021-11-28T13:15:21Z</time>
      </trkpt>
      <trkpt lat="43.45819" lon="6.59767">
        <ele>57.725129589438</ele>
        <time>2021-11-28T13:15:22Z</time>
      </trkpt>
      <trkpt lat="43.4582" lon="6.59766">
        <ele>57.725027665496</ele>
        <time>2021-11-28T13:15:23Z</time>
      </trkpt>
      <trkpt lat="43.45821" lon="6.59765">
        <ele>57.724908977747</ele>
        <time>2021-11-28T13:15:24Z</time>
      </trkpt>
      <trkpt lat="43.45822" lon="6.59764">
        <ele>57.724800683558</ele>
        <time>2021-11-28T13:15:25Z</time>
      </trkpt>
      <trkpt lat="43.45823" lon="6.59764">
        <ele>57.724733963609</ele>
        <time>2021-11-28T13:15:26Z</time>
      </trkpt>
      <trkpt lat="43.45823" lon="6.59764">
        <ele>56.724674619734</ele>
        <time>2021-11-28T13:15:27Z</time>
      </trkpt>
      <trkpt lat="43.45824" lon="6.59763">
        <ele>56.724607899785</ele>
        <time>2021-11-28T13:15:28Z</time>
      </trkpt>
      <trkpt lat="43.45824" lon="6.59761">
        <ele>56.724535144866</ele>
        <time>2021-11-28T13:15:29Z</time>
      </trkpt>
      <trkpt lat="43.45824" lon="6.59759">
        <ele>56.724434226751</ele>
        <time>2021-11-28T13:15:30Z</time>
      </trkpt>
      <trkpt lat="43.45825" lon="6.59758">
        <ele>56.724370524287</ele>
        <time>2021-11-28T13:15:31Z</time>
      </trkpt>
      <trkpt lat="43.45825" lon="6.59757">
        <ele>56.724286705256</ele>
        <time>2021-11-28T13:15:32Z</time>
      </trkpt>
      <trkpt lat="43.45826" lon="6.59756">
        <ele>56.724183440208</ele>
        <time>2021-11-28T13:15:33Z</time>
      </trkpt>
      <trkpt lat="43.45827" lon="6.59756">
        <ele>56.724106326699</ele>
        <time>2021-11-28T13:15:34Z</time>
      </trkpt>
      <trkpt lat="43.45827" lon="6.59755">
        <ele>56.724033907056</ele>
        <time>2021-11-28T13:15:35Z</time>
      </trkpt>
      <trkpt lat="43.45827" lon="6.59753">
        <ele>56.723931312561</ele>
        <time>2021-11-28T13:15:36Z</time>
      </trkpt>
      <trkpt lat="43.45828" lon="6.59752">
        <ele>55.723854534328</ele>
        <time>2021-11-28T13:15:37Z</time>
      </trkpt>
      <trkpt lat="43.45828" lon="6.59751">
        <ele>55.723781779408</ele>
        <time>2021-11-28T13:15:38Z</time>
      </trkpt>
      <trkpt lat="43.45829" lon="6.59749">
        <ele>55.723667450249</ele>
        <time>2021-11-28T13:15:39Z</time>
      </trkpt>
      <trkpt lat="43.45829" lon="6.59748">
        <ele>56.723581954837</ele>
        <time>2021-11-28T13:15:40Z</time>
      </trkpt>
      <trkpt lat="43.4583" lon="6.59747">
        <ele>56.723489418626</ele>
        <time>2021-11-28T13:15:41Z</time>
      </trkpt>
      <trkpt lat="43.4583" lon="6.59746">
        <ele>56.723418340087</ele>
        <time>2021-11-28T13:15:42Z</time>
      </trkpt>
      <trkpt lat="43.4583" lon="6.59744">
        <ele>55.723360002041</ele>
        <time>2021-11-28T13:15:43Z</time>
      </trkpt>
      <trkpt lat="43.4583" lon="6.59744">
        <ele>56.723307363689</ele>
        <time>2021-11-28T13:15:44Z</time>
      </trkpt>
      <trkpt lat="43.45831" lon="6.59742">
        <ele>55.723214156926</ele>
        <time>2021-11-28T13:15:45Z</time>
      </trkpt>
      <trkpt lat="43.45831" lon="6.59741">
        <ele>55.723138719797</ele>
        <time>2021-11-28T13:15:46Z</time>
      </trkpt>
      <trkpt lat="43.45832" lon="6.5974">
        <ele>55.723057582974</ele>
        <time>2021-11-28T13:15:47Z</time>
      </trkpt>
      <trkpt lat="43.45833" lon="6.59738">
        <ele>54.722866810858</ele>
        <time>2021-11-28T13:15:49Z</time>
      </trkpt>
      <trkpt lat="43.45833" lon="6.59736">
        <ele>54.722789697349</ele>
        <time>2021-11-28T13:15:50Z</time>
      </trkpt>
      <trkpt lat="43.45834" lon="6.59735">
        <ele>53.722677715123</ele>
        <time>2021-11-28T13:15:51Z</time>
      </trkpt>
      <trkpt lat="43.45835" lon="6.59732">
        <ele>53.722507730126</ele>
        <time>2021-11-28T13:15:53Z</time>
      </trkpt>
      <trkpt lat="43.45835" lon="6.5973">
        <ele>52.722389042377</ele>
        <time>2021-11-28T13:15:55Z</time>
      </trkpt>
      <trkpt lat="43.45835" lon="6.59728">
        <ele>53.722328357399</ele>
        <time>2021-11-28T13:15:56Z</time>
      </trkpt>
      <trkpt lat="43.45835" lon="6.59727">
        <ele>53.722249232233</ele>
        <time>2021-11-28T13:15:57Z</time>
      </trkpt>
      <trkpt lat="43.45835" lon="6.59726">
        <ele>52.722213357687</ele>
        <time>2021-11-28T13:15:58Z</time>
      </trkpt>
      <trkpt lat="43.45835" lon="6.59724">
        <ele>52.722197599709</ele>
        <time>2021-11-28T13:15:59Z</time>
      </trkpt>
      <trkpt lat="43.45835" lon="6.59723">
        <ele>51.722136579454</ele>
        <time>2021-11-28T13:16:00Z</time>
      </trkpt>
      <trkpt lat="43.45835" lon="6.59722">
        <ele>51.722082264721</ele>
        <time>2021-11-28T13:16:01Z</time>
      </trkpt>
      <trkpt lat="43.45835" lon="6.59721">
        <ele>51.722044043243</ele>
        <time>2021-11-28T13:16:02Z</time>
      </trkpt>
      <trkpt lat="43.45835" lon="6.5972">
        <ele>51.721954859793</ele>
        <time>2021-11-28T13:16:03Z</time>
      </trkpt>
      <trkpt lat="43.45836" lon="6.59716">
        <ele>51.721794597805</ele>
        <time>2021-11-28T13:16:05Z</time>
      </trkpt>
      <trkpt lat="43.45836" lon="6.59715">
        <ele>51.72175168246</ele>
        <time>2021-11-28T13:16:06Z</time>
      </trkpt>
      <trkpt lat="43.45836" lon="6.59715">
        <ele>51.721725195646</ele>
        <time>2021-11-28T13:16:07Z</time>
      </trkpt>
      <trkpt lat="43.45837" lon="6.59712">
        <ele>50.721545487642</ele>
        <time>2021-11-28T13:16:09Z</time>
      </trkpt>
      <trkpt lat="43.45837" lon="6.5971">
        <ele>49.721440210938</ele>
        <time>2021-11-28T13:16:11Z</time>
      </trkpt>
      <trkpt lat="43.45837" lon="6.59708">
        <ele>49.721333928406</ele>
        <time>2021-11-28T13:16:12Z</time>
      </trkpt>
      <trkpt lat="43.45838" lon="6.59707">
        <ele>50.721250779927</ele>
        <time>2021-11-28T13:16:13Z</time>
      </trkpt>
      <trkpt lat="43.45839" lon="6.59704">
        <ele>50.721089847386</ele>
        <time>2021-11-28T13:16:15Z</time>
      </trkpt>
      <trkpt lat="43.45839" lon="6.59702">
        <ele>50.720940984786</ele>
        <time>2021-11-28T13:16:16Z</time>
      </trkpt>
      <trkpt lat="43.45839" lon="6.59701">
        <ele>50.720880635083</ele>
        <time>2021-11-28T13:16:17Z</time>
      </trkpt>
      <trkpt lat="43.4584" lon="6.59697">
        <ele>49.720698915422</ele>
        <time>2021-11-28T13:16:19Z</time>
      </trkpt>
      <trkpt lat="43.45841" lon="6.59695">
        <ele>50.720546364784</ele>
        <time>2021-11-28T13:16:21Z</time>
      </trkpt>
      <trkpt lat="43.45841" lon="6.59694">
        <ele>50.720452152193</ele>
        <time>2021-11-28T13:16:22Z</time>
      </trkpt>
      <trkpt lat="43.45842" lon="6.59693">
        <ele>49.720366321504</ele>
        <time>2021-11-28T13:16:23Z</time>
      </trkpt>
      <trkpt lat="43.45843" lon="6.59693">
        <ele>49.720260374248</ele>
        <time>2021-11-28T13:16:25Z</time>
      </trkpt>
      <trkpt lat="43.45844" lon="6.59692">
        <ele>50.72017454356</ele>
        <time>2021-11-28T13:16:26Z</time>
      </trkpt>
      <trkpt lat="43.45844" lon="6.59691">
        <ele>49.720093742013</ele>
        <time>2021-11-28T13:16:27Z</time>
      </trkpt>
      <trkpt lat="43.45846" lon="6.59687">
        <ele>48.719818480313</ele>
        <time>2021-11-28T13:16:29Z</time>
      </trkpt>
      <trkpt lat="43.45847" lon="6.59686">
        <ele>48.719720579684</ele>
        <time>2021-11-28T13:16:30Z</time>
      </trkpt>
      <trkpt lat="43.45847" lon="6.59685">
        <ele>48.719640113413</ele>
        <time>2021-11-28T13:16:31Z</time>
      </trkpt>
      <trkpt lat="43.45847" lon="6.59684">
        <ele>48.719572722912</ele>
        <time>2021-11-28T13:16:32Z</time>
      </trkpt>
      <trkpt lat="43.45849" lon="6.59682">
        <ele>48.719359822571</ele>
        <time>2021-11-28T13:16:34Z</time>
      </trkpt>
      <trkpt lat="43.4585" lon="6.5968">
        <ele>48.719188161194</ele>
        <time>2021-11-28T13:16:36Z</time>
      </trkpt>
      <trkpt lat="43.45851" lon="6.59678">
        <ele>48.719029575586</ele>
        <time>2021-11-28T13:16:37Z</time>
      </trkpt>
      <trkpt lat="43.45852" lon="6.59677">
        <ele>48.718891106546</ele>
        <time>2021-11-28T13:16:38Z</time>
      </trkpt>
      <trkpt lat="43.45854" lon="6.59674">
        <ele>47.718663789332</ele>
        <time>2021-11-28T13:16:40Z</time>
      </trkpt>
      <trkpt lat="43.45855" lon="6.59673">
        <ele>47.718540072441</ele>
        <time>2021-11-28T13:16:41Z</time>
      </trkpt>
      <trkpt lat="43.45856" lon="6.59673">
        <ele>47.718438148499</ele>
        <time>2021-11-28T13:16:42Z</time>
      </trkpt>
      <trkpt lat="43.45857" lon="6.59671">
        <ele>48.71831074357</ele>
        <time>2021-11-28T13:16:43Z</time>
      </trkpt>
      <trkpt lat="43.45858" lon="6.5967">
        <ele>48.71814545244</ele>
        <time>2021-11-28T13:16:44Z</time>
      </trkpt>
      <trkpt lat="43.45859" lon="6.59668">
        <ele>47.718034476042</ele>
        <time>2021-11-28T13:16:45Z</time>
      </trkpt>
      <trkpt lat="43.45859" lon="6.59667">
        <ele>47.717941269279</ele>
        <time>2021-11-28T13:16:46Z</time>
      </trkpt>
      <trkpt lat="43.4586" lon="6.59667">
        <ele>47.717870861292</ele>
        <time>2021-11-28T13:16:47Z</time>
      </trkpt>
      <trkpt lat="43.45861" lon="6.59666">
        <ele>47.717775642872</ele>
        <time>2021-11-28T13:16:48Z</time>
      </trkpt>
      <trkpt lat="43.45861" lon="6.59665">
        <ele>47.717697188258</ele>
        <time>2021-11-28T13:16:49Z</time>
      </trkpt>
      <trkpt lat="43.45862" lon="6.59664">
        <ele>46.717606328428</ele>
        <time>2021-11-28T13:16:50Z</time>
      </trkpt>
      <trkpt lat="43.45863" lon="6.59663">
        <ele>46.717491999269</ele>
        <time>2021-11-28T13:16:51Z</time>
      </trkpt>
      <trkpt lat="43.45864" lon="6.59662">
        <ele>46.717385046184</ele>
        <time>2021-11-28T13:16:52Z</time>
      </trkpt>
      <trkpt lat="43.45864" lon="6.5966">
        <ele>46.717264682055</ele>
        <time>2021-11-28T13:16:53Z</time>
      </trkpt>
      <trkpt lat="43.45865" lon="6.59659">
        <ele>45.717150688171</ele>
        <time>2021-11-28T13:16:54Z</time>
      </trkpt>
      <trkpt lat="43.45867" lon="6.59657">
        <ele>46.716969639063</ele>
        <time>2021-11-28T13:16:56Z</time>
      </trkpt>
      <trkpt lat="43.45867" lon="6.59656">
        <ele>45.716889172792</ele>
        <time>2021-11-28T13:16:57Z</time>
      </trkpt>
      <trkpt lat="43.45867" lon="6.59656">
        <ele>46.716843239963</ele>
        <time>2021-11-28T13:16:58Z</time>
      </trkpt>
      <trkpt lat="43.45868" lon="6.59654">
        <ele>45.716716170311</ele>
        <time>2021-11-28T13:17:00Z</time>
      </trkpt>
      <trkpt lat="43.45869" lon="6.59653">
        <ele>46.716643080115</ele>
        <time>2021-11-28T13:17:01Z</time>
      </trkpt>
      <trkpt lat="43.45869" lon="6.59652">
        <ele>46.716579377651</ele>
        <time>2021-11-28T13:17:02Z</time>
      </trkpt>
      <trkpt lat="43.45869" lon="6.59651">
        <ele>46.716526068747</ele>
        <time>2021-11-28T13:17:03Z</time>
      </trkpt>
      <trkpt lat="43.4587" lon="6.5965">
        <ele>45.716370500624</ele>
        <time>2021-11-28T13:17:05Z</time>
      </trkpt>
      <trkpt lat="43.45871" lon="6.59648">
        <ele>45.716276623309</ele>
        <time>2021-11-28T13:17:06Z</time>
      </trkpt>
      <trkpt lat="43.45871" lon="6.59646">
        <ele>45.716175034642</ele>
        <time>2021-11-28T13:17:07Z</time>
      </trkpt>
      <trkpt lat="43.45872" lon="6.59644">
        <ele>45.71602550149</ele>
        <time>2021-11-28T13:17:09Z</time>
      </trkpt>
      <trkpt lat="43.45871" lon="6.59642">
        <ele>45.715983591974</ele>
        <time>2021-11-28T13:17:10Z</time>
      </trkpt>
      <trkpt lat="43.45872" lon="6.59641">
        <ele>45.715906478465</ele>
        <time>2021-11-28T13:17:11Z</time>
      </trkpt>
      <trkpt lat="43.45873" lon="6.59638">
        <ele>45.715672120452</ele>
        <time>2021-11-28T13:17:13Z</time>
      </trkpt>
      <trkpt lat="43.45875" lon="6.59636">
        <ele>45.715469613671</ele>
        <time>2021-11-28T13:17:15Z</time>
      </trkpt>
      <trkpt lat="43.45875" lon="6.59635">
        <ele>45.715420998633</ele>
        <time>2021-11-28T13:17:16Z</time>
      </trkpt>
      <trkpt lat="43.45875" lon="6.59634">
        <ele>45.715331144631</ele>
        <time>2021-11-28T13:17:17Z</time>
      </trkpt>
      <trkpt lat="43.45876" lon="6.59633">
        <ele>45.71523424983</ele>
        <time>2021-11-28T13:17:18Z</time>
      </trkpt>
      <trkpt lat="43.45877" lon="6.59632">
        <ele>44.715126290917</ele>
        <time>2021-11-28T13:17:19Z</time>
      </trkpt>
      <trkpt lat="43.45878" lon="6.59631">
        <ele>44.714998550713</ele>
        <time>2021-11-28T13:17:20Z</time>
      </trkpt>
      <trkpt lat="43.45879" lon="6.59629">
        <ele>44.714828230441</ele>
        <time>2021-11-28T13:17:21Z</time>
      </trkpt>
      <trkpt lat="43.4588" lon="6.59627">
        <ele>43.714660927653</ele>
        <time>2021-11-28T13:17:23Z</time>
      </trkpt>
      <trkpt lat="43.45881" lon="6.59625">
        <ele>44.714537210763</ele>
        <time>2021-11-28T13:17:25Z</time>
      </trkpt>
      <trkpt lat="43.45881" lon="6.59623">
        <ele>43.714432604611</ele>
        <time>2021-11-28T13:17:26Z</time>
      </trkpt>
      <trkpt lat="43.45882" lon="6.59621">
        <ele>43.714315593243</ele>
        <time>2021-11-28T13:17:27Z</time>
      </trkpt>
      <trkpt lat="43.45883" lon="6.59618">
        <ele>42.71407687664</ele>
        <time>2021-11-28T13:17:29Z</time>
      </trkpt>
      <trkpt lat="43.45884" lon="6.59617">
        <ele>43.71400244534</ele>
        <time>2021-11-28T13:17:30Z</time>
      </trkpt>
      <trkpt lat="43.45884" lon="6.59616">
        <ele>42.713943101466</ele>
        <time>2021-11-28T13:17:31Z</time>
      </trkpt>
      <trkpt lat="43.45884" lon="6.59616">
        <ele>42.713869340718</ele>
        <time>2021-11-28T13:17:32Z</time>
      </trkpt>
      <trkpt lat="43.45884" lon="6.59615">
        <ele>41.71385358274</ele>
        <time>2021-11-28T13:17:33Z</time>
      </trkpt>
      <trkpt lat="43.45884" lon="6.59614">
        <ele>41.713879399002</ele>
        <time>2021-11-28T13:17:34Z</time>
      </trkpt>
      <trkpt lat="43.45883" lon="6.59613">
        <ele>40.713891804218</ele>
        <time>2021-11-28T13:17:35Z</time>
      </trkpt>
      <trkpt lat="43.45883" lon="6.59613">
        <ele>40.713879063725</ele>
        <time>2021-11-28T13:17:37Z</time>
      </trkpt>
      <trkpt lat="43.45883" lon="6.59611">
        <ele>41.713825084269</ele>
        <time>2021-11-28T13:17:38Z</time>
      </trkpt>
      <trkpt lat="43.45884" lon="6.59609">
        <ele>41.713668175042</ele>
        <time>2021-11-28T13:17:40Z</time>
      </trkpt>
      <trkpt lat="43.45885" lon="6.59609">
        <ele>41.713577315211</ele>
        <time>2021-11-28T13:17:41Z</time>
      </trkpt>
      <trkpt lat="43.45885" lon="6.59609">
        <ele>41.713533058763</ele>
        <time>2021-11-28T13:17:42Z</time>
      </trkpt>
      <trkpt lat="43.45886" lon="6.59609">
        <ele>41.713457286358</ele>
        <time>2021-11-28T13:17:44Z</time>
      </trkpt>
      <trkpt lat="43.45887" lon="6.59608">
        <ele>41.713377825916</ele>
        <time>2021-11-28T13:17:48Z</time>
      </trkpt>
      <trkpt lat="43.45888" lon="6.59608">
        <ele>42.713304400444</ele>
        <time>2021-11-28T13:17:49Z</time>
      </trkpt>
      <trkpt lat="43.45888" lon="6.59607">
        <ele>41.713262155652</ele>
        <time>2021-11-28T13:17:52Z</time>
      </trkpt>
      <trkpt lat="43.45888" lon="6.59606">
        <ele>40.713214546442</ele>
        <time>2021-11-28T13:17:53Z</time>
      </trkpt>
      <trkpt lat="43.45888" lon="6.59604">
        <ele>40.713110275567</ele>
        <time>2021-11-28T13:17:54Z</time>
      </trkpt>
      <trkpt lat="43.45889" lon="6.59604">
        <ele>40.71302947402</ele>
        <time>2021-11-28T13:17:55Z</time>
      </trkpt>
      <trkpt lat="43.4589" lon="6.59603">
        <ele>40.712924197316</ele>
        <time>2021-11-28T13:17:56Z</time>
      </trkpt>
      <trkpt lat="43.45891" lon="6.59603">
        <ele>40.712838031352</ele>
        <time>2021-11-28T13:17:57Z</time>
      </trkpt>
      <trkpt lat="43.45892" lon="6.59602">
        <ele>39.712725378573</ele>
        <time>2021-11-28T13:17:58Z</time>
      </trkpt>
      <trkpt lat="43.45892" lon="6.596">
        <ele>39.712645918131</ele>
        <time>2021-11-28T13:17:59Z</time>
      </trkpt>
      <trkpt lat="43.45893" lon="6.596">
        <ele>39.712570145726</ele>
        <time>2021-11-28T13:18:00Z</time>
      </trkpt>
      <trkpt lat="43.45893" lon="6.59599">
        <ele>39.712489679456</ele>
        <time>2021-11-28T13:18:01Z</time>
      </trkpt>
      <trkpt lat="43.45894" lon="6.59599">
        <ele>39.712438046932</ele>
        <time>2021-11-28T13:18:02Z</time>
      </trkpt>
      <trkpt lat="43.45894" lon="6.59598">
        <ele>39.712385073304</ele>
        <time>2021-11-28T13:18:03Z</time>
      </trkpt>
      <trkpt lat="43.45894" lon="6.59595">
        <ele>39.712253645062</ele>
        <time>2021-11-28T13:18:05Z</time>
      </trkpt>
      <trkpt lat="43.45895" lon="6.59594">
        <ele>38.712175525725</ele>
        <time>2021-11-28T13:18:06Z</time>
      </trkpt>
      <trkpt lat="43.45895" lon="6.59592">
        <ele>37.712087012827</ele>
        <time>2021-11-28T13:18:07Z</time>
      </trkpt>
      <trkpt lat="43.45895" lon="6.59591">
        <ele>37.712033368647</ele>
        <time>2021-11-28T13:18:08Z</time>
      </trkpt>
      <trkpt lat="43.45895" lon="6.59589">
        <ele>36.711967989802</ele>
        <time>2021-11-28T13:18:10Z</time>
      </trkpt>
      <trkpt lat="43.45895" lon="6.59588">
        <ele>36.711906969547</ele>
        <time>2021-11-28T13:18:11Z</time>
      </trkpt>
      <trkpt lat="43.45895" lon="6.59586">
        <ele>35.71184092015</ele>
        <time>2021-11-28T13:18:12Z</time>
      </trkpt>
      <trkpt lat="43.45895" lon="6.59583">
        <ele>35.711764812469</ele>
        <time>2021-11-28T13:18:14Z</time>
      </trkpt>
      <trkpt lat="43.45894" lon="6.59582">
        <ele>35.711759112775</ele>
        <time>2021-11-28T13:18:15Z</time>
      </trkpt>
      <trkpt lat="43.45894" lon="6.59581">
        <ele>35.711743690073</ele>
        <time>2021-11-28T13:18:16Z</time>
      </trkpt>
      <trkpt lat="43.45893" lon="6.59579">
        <ele>35.711728267372</ele>
        <time>2021-11-28T13:18:17Z</time>
      </trkpt>
      <trkpt lat="43.45893" lon="6.59578">
        <ele>36.711678311229</ele>
        <time>2021-11-28T13:18:18Z</time>
      </trkpt>
      <trkpt lat="43.45893" lon="6.59575">
        <ele>35.711609244347</ele>
        <time>2021-11-28T13:18:20Z</time>
      </trkpt>
      <trkpt lat="43.45893" lon="6.59574">
        <ele>35.711557947099</ele>
        <time>2021-11-28T13:18:21Z</time>
      </trkpt>
      <trkpt lat="43.45893" lon="6.59573">
        <ele>35.711508661509</ele>
        <time>2021-11-28T13:18:22Z</time>
      </trkpt>
      <trkpt lat="43.45893" lon="6.59571">
        <ele>36.711447641253</ele>
        <time>2021-11-28T13:18:23Z</time>
      </trkpt>
      <trkpt lat="43.45893" lon="6.59568">
        <ele>35.711299113929</ele>
        <time>2021-11-28T13:18:25Z</time>
      </trkpt>
      <trkpt lat="43.45893" lon="6.59567">
        <ele>36.711262568831</ele>
        <time>2021-11-28T13:18:26Z</time>
      </trkpt>
      <trkpt lat="43.45893" lon="6.59566">
        <ele>36.711207918823</ele>
        <time>2021-11-28T13:18:27Z</time>
      </trkpt>
      <trkpt lat="43.45892" lon="6.59564">
        <ele>35.711182102561</ele>
        <time>2021-11-28T13:18:28Z</time>
      </trkpt>
      <trkpt lat="43.45891" lon="6.59561">
        <ele>35.711166344583</ele>
        <time>2021-11-28T13:18:30Z</time>
      </trkpt>
      <trkpt lat="43.45891" lon="6.59559">
        <ele>35.711139187217</ele>
        <time>2021-11-28T13:18:31Z</time>
      </trkpt>
      <trkpt lat="43.4589" lon="6.59558">
        <ele>35.711128458381</ele>
        <time>2021-11-28T13:18:32Z</time>
      </trkpt>
      <trkpt lat="43.4589" lon="6.59557">
        <ele>35.711107671261</ele>
        <time>2021-11-28T13:18:33Z</time>
      </trkpt>
      <trkpt lat="43.45889" lon="6.59556">
        <ele>34.711082860827</ele>
        <time>2021-11-28T13:18:34Z</time>
      </trkpt>
      <trkpt lat="43.45889" lon="6.59553">
        <ele>33.710977248847</ele>
        <time>2021-11-28T13:18:36Z</time>
      </trkpt>
      <trkpt lat="43.45888" lon="6.59551">
        <ele>33.710982613266</ele>
        <time>2021-11-28T13:18:38Z</time>
      </trkpt>
      <trkpt lat="43.45888" lon="6.5955">
        <ele>34.710976243019</ele>
        <time>2021-11-28T13:18:40Z</time>
      </trkpt>
      <trkpt lat="43.45887" lon="6.59549">
        <ele>34.71100474149</ele>
        <time>2021-11-28T13:18:41Z</time>
      </trkpt>
      <trkpt lat="43.45886" lon="6.59548">
        <ele>34.711015805602</ele>
        <time>2021-11-28T13:18:42Z</time>
      </trkpt>
      <trkpt lat="43.45886" lon="6.59546">
        <ele>34.710980936885</ele>
        <time>2021-11-28T13:18:44Z</time>
      </trkpt>
      <trkpt lat="43.45884" lon="6.59544">
        <ele>34.711063750088</ele>
        <time>2021-11-28T13:18:46Z</time>
      </trkpt>
      <trkpt lat="43.45882" lon="6.59544">
        <ele>33.711157292128</ele>
        <time>2021-11-28T13:18:47Z</time>
      </trkpt>
      <trkpt lat="43.45882" lon="6.59543">
        <ele>33.711200207472</ele>
        <time>2021-11-28T13:18:48Z</time>
      </trkpt>
      <trkpt lat="43.45881" lon="6.59542">
        <ele>33.711205236614</ele>
        <time>2021-11-28T13:18:49Z</time>
      </trkpt>
      <trkpt lat="43.4588" lon="6.59542">
        <ele>32.7112531811</ele>
        <time>2021-11-28T13:18:50Z</time>
      </trkpt>
      <trkpt lat="43.4588" lon="6.59542">
        <ele>33.711309842765</ele>
        <time>2021-11-28T13:18:51Z</time>
      </trkpt>
      <trkpt lat="43.45879" lon="6.59541">
        <ele>33.71136482805</ele>
        <time>2021-11-28T13:18:52Z</time>
      </trkpt>
      <trkpt lat="43.45878" lon="6.5954">
        <ele>33.711393661797</ele>
        <time>2021-11-28T13:18:53Z</time>
      </trkpt>
      <trkpt lat="43.45877" lon="6.5954">
        <ele>33.711450994015</ele>
        <time>2021-11-28T13:18:54Z</time>
      </trkpt>
      <trkpt lat="43.45876" lon="6.5954">
        <ele>34.711499609053</ele>
        <time>2021-11-28T13:18:55Z</time>
      </trkpt>
      <trkpt lat="43.45876" lon="6.59539">
        <ele>34.711514025927</ele>
        <time>2021-11-28T13:18:56Z</time>
      </trkpt>
      <trkpt lat="43.45875" lon="6.59539">
        <ele>34.711573034525</ele>
        <time>2021-11-28T13:18:57Z</time>
      </trkpt>
      <trkpt lat="43.45874" lon="6.59538">
        <ele>34.711645789444</ele>
        <time>2021-11-28T13:18:58Z</time>
      </trkpt>
      <trkpt lat="43.45873" lon="6.59539">
        <ele>35.711727596819</ele>
        <time>2021-11-28T13:19:00Z</time>
      </trkpt>
      <trkpt lat="43.45872" lon="6.59538">
        <ele>35.711775876582</ele>
        <time>2021-11-28T13:19:01Z</time>
      </trkpt>
      <trkpt lat="43.45871" lon="6.59538">
        <ele>36.711825162172</ele>
        <time>2021-11-28T13:19:02Z</time>
      </trkpt>
      <trkpt lat="43.45871" lon="6.59538">
        <ele>35.711840249598</ele>
        <time>2021-11-28T13:19:03Z</time>
      </trkpt>
      <trkpt lat="43.4587" lon="6.59537">
        <ele>35.711862042546</ele>
        <time>2021-11-28T13:19:04Z</time>
      </trkpt>
      <trkpt lat="43.4587" lon="6.59536">
        <ele>35.71186774224</ele>
        <time>2021-11-28T13:19:05Z</time>
      </trkpt>
      <trkpt lat="43.4587" lon="6.59534">
        <ele>35.711815103889</ele>
        <time>2021-11-28T13:19:06Z</time>
      </trkpt>
      <trkpt lat="43.4587" lon="6.59533">
        <ele>35.711728602648</ele>
        <time>2021-11-28T13:19:07Z</time>
      </trkpt>
      <trkpt lat="43.45869" lon="6.59531">
        <ele>35.711685687304</ele>
        <time>2021-11-28T13:19:08Z</time>
      </trkpt>
      <trkpt lat="43.45868" lon="6.59528">
        <ele>35.71168166399</ele>
        <time>2021-11-28T13:19:10Z</time>
      </trkpt>
      <trkpt lat="43.45868" lon="6.59528">
        <ele>35.711707480252</ele>
        <time>2021-11-28T13:19:11Z</time>
      </trkpt>
      <trkpt lat="43.45867" lon="6.59527">
        <ele>36.711683340371</ele>
        <time>2021-11-28T13:19:12Z</time>
      </trkpt>
      <trkpt lat="43.45866" lon="6.59525">
        <ele>36.711710497737</ele>
        <time>2021-11-28T13:19:14Z</time>
      </trkpt>
      <trkpt lat="43.45864" lon="6.59523">
        <ele>37.711782246828</ele>
        <time>2021-11-28T13:19:16Z</time>
      </trkpt>
      <trkpt lat="43.45864" lon="6.59523">
        <ele>37.711800351739</ele>
        <time>2021-11-28T13:19:17Z</time>
      </trkpt>
      <trkpt lat="43.45863" lon="6.59522">
        <ele>38.711837567389</ele>
        <time>2021-11-28T13:19:18Z</time>
      </trkpt>
      <trkpt lat="43.45862" lon="6.59521">
        <ele>38.711862042546</ele>
        <time>2021-11-28T13:19:19Z</time>
      </trkpt>
      <trkpt lat="43.45862" lon="6.5952">
        <ele>37.711863383651</ele>
        <time>2021-11-28T13:19:20Z</time>
      </trkpt>
      <trkpt lat="43.45861" lon="6.59519">
        <ele>37.711866401136</ele>
        <time>2021-11-28T13:19:21Z</time>
      </trkpt>
      <trkpt lat="43.4586" lon="6.59518">
        <ele>37.711879812181</ele>
        <time>2021-11-28T13:19:22Z</time>
      </trkpt>
      <trkpt lat="43.45859" lon="6.59516">
        <ele>36.711902275681</ele>
        <time>2021-11-28T13:19:24Z</time>
      </trkpt>
      <trkpt lat="43.45858" lon="6.59514">
        <ele>36.711918368936</ele>
        <time>2021-11-28T13:19:26Z</time>
      </trkpt>
      <trkpt lat="43.45857" lon="6.59512">
        <ele>36.711931444705</ele>
        <time>2021-11-28T13:19:27Z</time>
      </trkpt>
      <trkpt lat="43.45855" lon="6.59509">
        <ele>36.711954914033</ele>
        <time>2021-11-28T13:19:29Z</time>
      </trkpt>
      <trkpt lat="43.45855" lon="6.59506">
        <ele>35.711848296225</ele>
        <time>2021-11-28T13:19:31Z</time>
      </trkpt>
      <trkpt lat="43.45855" lon="6.59505">
        <ele>35.711813762784</ele>
        <time>2021-11-28T13:19:32Z</time>
      </trkpt>
      <trkpt lat="43.45855" lon="6.59504">
        <ele>36.711748048663</ele>
        <time>2021-11-28T13:19:33Z</time>
      </trkpt>
      <trkpt lat="43.45854" lon="6.595">
        <ele>36.7116548419</ele>
        <time>2021-11-28T13:19:35Z</time>
      </trkpt>
      <trkpt lat="43.45853" lon="6.59499">
        <ele>37.711720220745</ele>
        <time>2021-11-28T13:19:36Z</time>
      </trkpt>
      <trkpt lat="43.45852" lon="6.59499">
        <ele>37.711783923209</ele>
        <time>2021-11-28T13:19:37Z</time>
      </trkpt>
      <trkpt lat="43.4585" lon="6.59497">
        <ele>36.711875788867</ele>
        <time>2021-11-28T13:19:39Z</time>
      </trkpt>
      <trkpt lat="43.45849" lon="6.59496">
        <ele>36.711941502988</ele>
        <time>2021-11-28T13:19:41Z</time>
      </trkpt>
      <trkpt lat="43.45848" lon="6.59496">
        <ele>36.711984753609</ele>
        <time>2021-11-28T13:19:42Z</time>
      </trkpt>
      <trkpt lat="43.45848" lon="6.59495">
        <ele>37.711997494102</ele>
        <time>2021-11-28T13:19:43Z</time>
      </trkpt>
      <trkpt lat="43.45847" lon="6.59494">
        <ele>37.712017610669</ele>
        <time>2021-11-28T13:19:45Z</time>
      </trkpt>
      <trkpt lat="43.45847" lon="6.59493">
        <ele>37.711992129683</ele>
        <time>2021-11-28T13:19:46Z</time>
      </trkpt>
      <trkpt lat="43.45846" lon="6.59492">
        <ele>38.711981065571</ele>
        <time>2021-11-28T13:19:47Z</time>
      </trkpt>
      <trkpt lat="43.45845" lon="6.59489">
        <ele>37.711975701153</ele>
        <time>2021-11-28T13:19:49Z</time>
      </trkpt>
      <trkpt lat="43.45844" lon="6.59488">
        <ele>38.711963295937</ele>
        <time>2021-11-28T13:19:50Z</time>
      </trkpt>
      <trkpt lat="43.45844" lon="6.59486">
        <ele>38.711928427219</ele>
        <time>2021-11-28T13:19:51Z</time>
      </trkpt>
      <trkpt lat="43.45843" lon="6.59484">
        <ele>38.711896575987</ele>
        <time>2021-11-28T13:19:53Z</time>
      </trkpt>
      <trkpt lat="43.45842" lon="6.59482">
        <ele>38.711904957891</ele>
        <time>2021-11-28T13:19:55Z</time>
      </trkpt>
      <trkpt lat="43.45841" lon="6.5948">
        <ele>38.711890541017</ele>
        <time>2021-11-28T13:19:56Z</time>
      </trkpt>
      <trkpt lat="43.45841" lon="6.59478">
        <ele>38.711848296225</ele>
        <time>2021-11-28T13:19:57Z</time>
      </trkpt>
      <trkpt lat="43.45841" lon="6.59476">
        <ele>38.711798340082</ele>
        <time>2021-11-28T13:19:58Z</time>
      </trkpt>
      <trkpt lat="43.4584" lon="6.59473">
        <ele>38.711743690073</ele>
        <time>2021-11-28T13:20:00Z</time>
      </trkpt>
      <trkpt lat="43.45839" lon="6.59472">
        <ele>38.711750395596</ele>
        <time>2021-11-28T13:20:01Z</time>
      </trkpt>
      <trkpt lat="43.45839" lon="6.59471">
        <ele>38.711730279028</ele>
        <time>2021-11-28T13:20:02Z</time>
      </trkpt>
      <trkpt lat="43.45838" lon="6.59469">
        <ele>38.71176045388</ele>
        <time>2021-11-28T13:20:03Z</time>
      </trkpt>
      <trkpt lat="43.45837" lon="6.59469">
        <ele>38.711790293455</ele>
        <time>2021-11-28T13:20:04Z</time>
      </trkpt>
      <trkpt lat="43.45836" lon="6.59468">
        <ele>38.711836561561</ele>
        <time>2021-11-28T13:20:05Z</time>
      </trkpt>
      <trkpt lat="43.45836" lon="6.59467">
        <ele>38.711800351739</ele>
        <time>2021-11-28T13:20:06Z</time>
      </trkpt>
      <trkpt lat="43.45835" lon="6.59466">
        <ele>38.711822479963</ele>
        <time>2021-11-28T13:20:07Z</time>
      </trkpt>
      <trkpt lat="43.45835" lon="6.59466">
        <ele>38.711840584874</ele>
        <time>2021-11-28T13:20:08Z</time>
      </trkpt>
      <trkpt lat="43.45835" lon="6.59465">
        <ele>38.711835220456</ele>
        <time>2021-11-28T13:20:09Z</time>
      </trkpt>
      <trkpt lat="43.45834" lon="6.59464">
        <ele>38.711816780269</ele>
        <time>2021-11-28T13:20:10Z</time>
      </trkpt>
      <trkpt lat="43.45834" lon="6.59463">
        <ele>39.711780905724</ele>
        <time>2021-11-28T13:20:11Z</time>
      </trkpt>
      <trkpt lat="43.45834" lon="6.59462">
        <ele>39.711762465537</ele>
        <time>2021-11-28T13:20:12Z</time>
      </trkpt>
      <trkpt lat="43.45834" lon="6.59461">
        <ele>39.711734637618</ele>
        <time>2021-11-28T13:20:13Z</time>
      </trkpt>
      <trkpt lat="43.45834" lon="6.59461">
        <ele>39.711734637618</ele>
        <time>2021-11-28T13:20:15Z</time>
      </trkpt>
      <trkpt lat="43.45833" lon="6.59457">
        <ele>39.711657859385</ele>
        <time>2021-11-28T13:20:16Z</time>
      </trkpt>
      <trkpt lat="43.45833" lon="6.59456">
        <ele>39.711546882987</ele>
        <time>2021-11-28T13:20:17Z</time>
      </trkpt>
      <trkpt lat="43.45835" lon="6.59453">
        <ele>39.711367510259</ele>
        <time>2021-11-28T13:20:19Z</time>
      </trkpt>
      <trkpt lat="43.45835" lon="6.59451">
        <ele>39.711252175272</ele>
        <time>2021-11-28T13:20:21Z</time>
      </trkpt>
      <trkpt lat="43.45834" lon="6.59449">
        <ele>39.711249157786</ele>
        <time>2021-11-28T13:20:22Z</time>
      </trkpt>
      <trkpt lat="43.45834" lon="6.59449">
        <ele>39.711230047047</ele>
        <time>2021-11-28T13:20:23Z</time>
      </trkpt>
      <trkpt lat="43.45835" lon="6.59445">
        <ele>38.711033575237</ele>
        <time>2021-11-28T13:20:25Z</time>
      </trkpt>
      <trkpt lat="43.45835" lon="6.59444">
        <ele>39.710968531668</ele>
        <time>2021-11-28T13:20:26Z</time>
      </trkpt>
      <trkpt lat="43.45836" lon="6.59443">
        <ele>38.710859566927</ele>
        <time>2021-11-28T13:20:27Z</time>
      </trkpt>
      <trkpt lat="43.45837" lon="6.5944">
        <ele>38.710607104003</ele>
        <time>2021-11-28T13:20:29Z</time>
      </trkpt>
      <trkpt lat="43.45837" lon="6.59437">
        <ele>37.710495457053</ele>
        <time>2021-11-28T13:20:31Z</time>
      </trkpt>
      <trkpt lat="43.45837" lon="6.59436">
        <ele>38.710490763187</ele>
        <time>2021-11-28T13:20:32Z</time>
      </trkpt>
      <trkpt lat="43.45837" lon="6.59435">
        <ele>37.710452206433</ele>
        <time>2021-11-28T13:20:33Z</time>
      </trkpt>
      <trkpt lat="43.45838" lon="6.59433">
        <ele>38.710292950273</ele>
        <time>2021-11-28T13:20:35Z</time>
      </trkpt>
      <trkpt lat="43.45838" lon="6.59432">
        <ele>38.710246682167</ele>
        <time>2021-11-28T13:20:36Z</time>
      </trkpt>
      <trkpt lat="43.45838" lon="6.59431">
        <ele>38.710219860077</ele>
        <time>2021-11-28T13:20:37Z</time>
      </trkpt>
      <trkpt lat="43.45838" lon="6.59428">
        <ele>37.710114248097</ele>
        <time>2021-11-28T13:20:39Z</time>
      </trkpt>
      <trkpt lat="43.45838" lon="6.59426">
        <ele>37.710025064647</ele>
        <time>2021-11-28T13:20:41Z</time>
      </trkpt>
      <trkpt lat="43.45838" lon="6.59426">
        <ele>37.710025064647</ele>
        <time>2021-11-28T13:20:43Z</time>
      </trkpt>
      <trkpt lat="43.45837" lon="6.59421">
        <ele>39.709862455726</ele>
        <time>2021-11-28T13:20:45Z</time>
      </trkpt>
      <trkpt lat="43.45837" lon="6.5942">
        <ele>39.709815852344</ele>
        <time>2021-11-28T13:20:47Z</time>
      </trkpt>
      <trkpt lat="43.45839" lon="6.5942">
        <ele>39.709680400789</ele>
        <time>2021-11-28T13:20:49Z</time>
      </trkpt>
      <trkpt lat="43.4584" lon="6.59419">
        <ele>39.709549978375</ele>
        <time>2021-11-28T13:20:51Z</time>
      </trkpt>
      <trkpt lat="43.4584" lon="6.59418">
        <ele>40.709551654756</ele>
        <time>2021-11-28T13:20:52Z</time>
      </trkpt>
      <trkpt lat="43.45839" lon="6.59417">
        <ele>40.709560707211</ele>
        <time>2021-11-28T13:20:53Z</time>
      </trkpt>
      <trkpt lat="43.45839" lon="6.59418">
        <ele>40.70959892869</ele>
        <time>2021-11-28T13:20:57Z</time>
      </trkpt>
      <trkpt lat="43.4584" lon="6.59418">
        <ele>41.709512092173</ele>
        <time>2021-11-28T13:20:58Z</time>
      </trkpt>
      <trkpt lat="43.4584" lon="6.59417">
        <ele>42.709482252598</ele>
        <time>2021-11-28T13:21:41Z</time>
      </trkpt>
      <trkpt lat="43.45839" lon="6.59417">
        <ele>42.709526844323</ele>
        <time>2021-11-28T13:21:42Z</time>
      </trkpt>
      <trkpt lat="43.45839" lon="6.59418">
        <ele>42.709577471018</ele>
        <time>2021-11-28T13:21:48Z</time>
      </trkpt>
      <trkpt lat="43.45838" lon="6.5942">
        <ele>43.709740079939</ele>
        <time>2021-11-28T13:21:50Z</time>
      </trkpt>
      <trkpt lat="43.45838" lon="6.59421">
        <ele>43.709818869829</ele>
        <time>2021-11-28T13:21:52Z</time>
      </trkpt>
      <trkpt lat="43.45837" lon="6.59422">
        <ele>43.709908053279</ele>
        <time>2021-11-28T13:21:53Z</time>
      </trkpt>
      <trkpt lat="43.45837" lon="6.59422">
        <ele>43.709968402982</ele>
        <time>2021-11-28T13:21:56Z</time>
      </trkpt>
      <trkpt lat="43.45835" lon="6.59423">
        <ele>44.710117265582</ele>
        <time>2021-11-28T13:21:57Z</time>
      </trkpt>
      <trkpt lat="43.45835" lon="6.59425">
        <ele>44.710158839822</ele>
        <time>2021-11-28T13:22:01Z</time>
      </trkpt>
      <trkpt lat="43.45835" lon="6.59425">
        <ele>44.710232935846</ele>
        <time>2021-11-28T13:22:02Z</time>
      </trkpt>
      <trkpt lat="43.45833" lon="6.59426">
        <ele>43.710382468998</ele>
        <time>2021-11-28T13:22:04Z</time>
      </trkpt>
      <trkpt lat="43.45832" lon="6.59428">
        <ele>44.710569553077</ele>
        <time>2021-11-28T13:22:06Z</time>
      </trkpt>
      <trkpt lat="43.45831" lon="6.59429">
        <ele>44.710638619959</ele>
        <time>2021-11-28T13:22:07Z</time>
      </trkpt>
      <trkpt lat="43.45831" lon="6.59429">
        <ele>43.710697293282</ele>
        <time>2021-11-28T13:22:08Z</time>
      </trkpt>
      <trkpt lat="43.4583" lon="6.59429">
        <ele>43.710791841149</ele>
        <time>2021-11-28T13:22:10Z</time>
      </trkpt>
      <trkpt lat="43.45828" lon="6.59429">
        <ele>43.710951432586</ele>
        <time>2021-11-28T13:22:11Z</time>
      </trkpt>
      <trkpt lat="43.45827" lon="6.59429">
        <ele>43.711004070938</ele>
        <time>2021-11-28T13:22:12Z</time>
      </trkpt>
      <trkpt lat="43.45826" lon="6.5943">
        <ele>44.711121752858</ele>
        <time>2021-11-28T13:22:14Z</time>
      </trkpt>
      <trkpt lat="43.45826" lon="6.5943">
        <ele>44.711121752858</ele>
        <time>2021-11-28T13:22:16Z</time>
      </trkpt>
      <trkpt lat="43.45824" lon="6.5943">
        <ele>44.71126960963</ele>
        <time>2021-11-28T13:22:17Z</time>
      </trkpt>
      <trkpt lat="43.45823" lon="6.5943">
        <ele>44.711339011788</ele>
        <time>2021-11-28T13:22:20Z</time>
      </trkpt>
      <trkpt lat="43.45824" lon="6.59432">
        <ele>43.711404390633</ele>
        <time>2021-11-28T13:22:21Z</time>
      </trkpt>
      <trkpt lat="43.45823" lon="6.59433">
        <ele>44.711473457515</ele>
        <time>2021-11-28T13:22:25Z</time>
      </trkpt>
      <trkpt lat="43.45822" lon="6.59433">
        <ele>43.711566329002</ele>
        <time>2021-11-28T13:22:26Z</time>
      </trkpt>
      <trkpt lat="43.45822" lon="6.59433">
        <ele>43.711566329002</ele>
        <time>2021-11-28T13:22:28Z</time>
      </trkpt>
      <trkpt lat="43.45821" lon="6.59434">
        <ele>44.711682334542</ele>
        <time>2021-11-28T13:22:29Z</time>
      </trkpt>
      <trkpt lat="43.4582" lon="6.59434">
        <ele>44.711725920439</ele>
        <time>2021-11-28T13:22:30Z</time>
      </trkpt>
      <trkpt lat="43.4582" lon="6.59434">
        <ele>44.711789622903</ele>
        <time>2021-11-28T13:22:31Z</time>
      </trkpt>
      <trkpt lat="43.45819" lon="6.59434">
        <ele>44.711864054203</ele>
        <time>2021-11-28T13:22:32Z</time>
      </trkpt>
      <trkpt lat="43.45818" lon="6.59434">
        <ele>44.711908645928</ele>
        <time>2021-11-28T13:22:33Z</time>
      </trkpt>
      <trkpt lat="43.45817" lon="6.59434">
        <ele>44.71196731925</ele>
        <time>2021-11-28T13:22:34Z</time>
      </trkpt>
      <trkpt lat="43.45817" lon="6.59434">
        <ele>46.712005876005</ele>
        <time>2021-11-28T13:22:37Z</time>
      </trkpt>
      <trkpt lat="43.45816" lon="6.59434">
        <ele>46.712040744722</ele>
        <time>2021-11-28T13:22:38Z</time>
      </trkpt>
      <trkpt lat="43.45815" lon="6.59435">
        <ele>46.712212741375</ele>
        <time>2021-11-28T13:22:40Z</time>
      </trkpt>
      <trkpt lat="43.45813" lon="6.59436">
        <ele>47.7123837322</ele>
        <time>2021-11-28T13:22:41Z</time>
      </trkpt>
      <trkpt lat="43.45812" lon="6.59436">
        <ele>47.712490350008</ele>
        <time>2021-11-28T13:22:42Z</time>
      </trkpt>
      <trkpt lat="43.4581" lon="6.59436">
        <ele>47.712596967816</ele>
        <time>2021-11-28T13:22:44Z</time>
      </trkpt>
      <trkpt lat="43.45809" lon="6.59436">
        <ele>48.71271263808</ele>
        <time>2021-11-28T13:22:46Z</time>
      </trkpt>
      <trkpt lat="43.45808" lon="6.59436">
        <ele>48.71276460588</ele>
        <time>2021-11-28T13:22:47Z</time>
      </trkpt>
      <trkpt lat="43.45808" lon="6.59435">
        <ele>48.712786734104</ele>
        <time>2021-11-28T13:22:48Z</time>
      </trkpt>
      <trkpt lat="43.45809" lon="6.59433">
        <ele>48.712603002787</ele>
        <time>2021-11-28T13:22:50Z</time>
      </trkpt>
      <trkpt lat="43.45809" lon="6.59433">
        <ele>49.71258623898</ele>
        <time>2021-11-28T13:22:54Z</time>
      </trkpt>
      <trkpt lat="43.4581" lon="6.5943">
        <ele>50.712456822395</ele>
        <time>2021-11-28T13:22:56Z</time>
      </trkpt>
      <trkpt lat="43.45809" lon="6.59429">
        <ele>51.712438717484</ele>
        <time>2021-11-28T13:22:57Z</time>
      </trkpt>
      <trkpt lat="43.45809" lon="6.59429">
        <ele>51.712461516261</ele>
        <time>2021-11-28T13:22:58Z</time>
      </trkpt>
      <trkpt lat="43.45808" lon="6.59428">
        <ele>51.712497726083</ele>
        <time>2021-11-28T13:23:00Z</time>
      </trkpt>
      <trkpt lat="43.45807" lon="6.59428">
        <ele>51.712593615055</ele>
        <time>2021-11-28T13:23:01Z</time>
      </trkpt>
      <trkpt lat="43.45806" lon="6.59429">
        <ele>50.712722025812</ele>
        <time>2021-11-28T13:23:02Z</time>
      </trkpt>
      <trkpt lat="43.45805" lon="6.5943">
        <ele>51.712811209261</ele>
        <time>2021-11-28T13:23:03Z</time>
      </trkpt>
      <trkpt lat="43.45804" lon="6.5943">
        <ele>51.712858818471</ele>
        <time>2021-11-28T13:23:04Z</time>
      </trkpt>
      <trkpt lat="43.45803" lon="6.5943">
        <ele>52.712952360511</ele>
        <time>2021-11-28T13:23:05Z</time>
      </trkpt>
      <trkpt lat="43.45803" lon="6.5943">
        <ele>52.712989576161</ele>
        <time>2021-11-28T13:23:06Z</time>
      </trkpt>
      <trkpt lat="43.45802" lon="6.59429">
        <ele>52.712984547019</ele>
        <time>2021-11-28T13:23:07Z</time>
      </trkpt>
      <trkpt lat="43.45803" lon="6.59428">
        <ele>52.712898716331</ele>
        <time>2021-11-28T13:23:08Z</time>
      </trkpt>
      <trkpt lat="43.45804" lon="6.59426">
        <ele>52.712724708021</ele>
        <time>2021-11-28T13:23:10Z</time>
      </trkpt>
      <trkpt lat="43.45805" lon="6.59424">
        <ele>52.712585568428</ele>
        <time>2021-11-28T13:23:11Z</time>
      </trkpt>
      <trkpt lat="43.45806" lon="6.59423">
        <ele>52.712458498776</ele>
        <time>2021-11-28T13:23:12Z</time>
      </trkpt>
      <trkpt lat="43.45807" lon="6.59421">
        <ele>52.71229019016</ele>
        <time>2021-11-28T13:23:14Z</time>
      </trkpt>
      <trkpt lat="43.45807" lon="6.5942">
        <ele>52.712196648121</ele>
        <time>2021-11-28T13:23:16Z</time>
      </trkpt>
      <trkpt lat="43.45808" lon="6.59418">
        <ele>52.712096735835</ele>
        <time>2021-11-28T13:23:17Z</time>
      </trkpt>
      <trkpt lat="43.45808" lon="6.59417">
        <ele>53.712029010057</ele>
        <time>2021-11-28T13:23:18Z</time>
      </trkpt>
      <trkpt lat="43.45808" lon="6.59414">
        <ele>53.711885176599</ele>
        <time>2021-11-28T13:23:20Z</time>
      </trkpt>
      <trkpt lat="43.45808" lon="6.59412">
        <ele>52.711842261255</ele>
        <time>2021-11-28T13:23:21Z</time>
      </trkpt>
      <trkpt lat="43.45808" lon="6.5941">
        <ele>53.711793646216</ele>
        <time>2021-11-28T13:23:22Z</time>
      </trkpt>
      <trkpt lat="43.45808" lon="6.59409">
        <ele>53.711757771671</ele>
        <time>2021-11-28T13:23:24Z</time>
      </trkpt>
      <trkpt lat="43.45808" lon="6.59407">
        <ele>53.711654171348</ele>
        <time>2021-11-28T13:23:26Z</time>
      </trkpt>
      <trkpt lat="43.45808" lon="6.59406">
        <ele>54.711623996496</ele>
        <time>2021-11-28T13:23:27Z</time>
      </trkpt>
      <trkpt lat="43.45807" lon="6.59405">
        <ele>54.711604885757</ele>
        <time>2021-11-28T13:23:28Z</time>
      </trkpt>
      <trkpt lat="43.45808" lon="6.59404">
        <ele>54.711554594338</ele>
        <time>2021-11-28T13:23:29Z</time>
      </trkpt>
      <trkpt lat="43.45808" lon="6.59403">
        <ele>55.711472116411</ele>
        <time>2021-11-28T13:23:32Z</time>
      </trkpt>
      <trkpt lat="43.45809" lon="6.59403">
        <ele>55.711423836648</ele>
        <time>2021-11-28T13:23:33Z</time>
      </trkpt>
      <trkpt lat="43.4581" lon="6.59403">
        <ele>53.711341358721</ele>
        <time>2021-11-28T13:23:35Z</time>
      </trkpt>
      <trkpt lat="43.4581" lon="6.59402">
        <ele>53.711271621287</ele>
        <time>2021-11-28T13:23:38Z</time>
      </trkpt>
      <trkpt lat="43.45811" lon="6.59402">
        <ele>53.711211271584</ele>
        <time>2021-11-28T13:23:39Z</time>
      </trkpt>
      <trkpt lat="43.45811" lon="6.59401">
        <ele>53.711175732315</ele>
        <time>2021-11-28T13:23:40Z</time>
      </trkpt>
      <trkpt lat="43.45811" lon="6.594">
        <ele>52.711147233844</ele>
        <time>2021-11-28T13:23:41Z</time>
      </trkpt>
      <trkpt lat="43.4581" lon="6.594">
        <ele>52.711210601032</ele>
        <time>2021-11-28T13:23:42Z</time>
      </trkpt>
      <trkpt lat="43.45809" lon="6.59399">
        <ele>52.711227364838</ele>
        <time>2021-11-28T13:23:43Z</time>
      </trkpt>
      <trkpt lat="43.45809" lon="6.59399">
        <ele>52.711288720369</ele>
        <time>2021-11-28T13:23:46Z</time>
      </trkpt>
      <trkpt lat="43.45809" lon="6.59398">
        <ele>52.711222670972</ele>
        <time>2021-11-28T13:23:47Z</time>
      </trkpt>
      <trkpt lat="43.45807" lon="6.59396">
        <ele>52.711274638772</ele>
        <time>2021-11-28T13:23:49Z</time>
      </trkpt>
      <trkpt lat="43.45803" lon="6.59394">
        <ele>53.711533807218</ele>
        <time>2021-11-28T13:23:51Z</time>
      </trkpt>
      <trkpt lat="43.45801" lon="6.59394">
        <ele>54.711653836071</ele>
        <time>2021-11-28T13:23:52Z</time>
      </trkpt>
      <trkpt lat="43.45801" lon="6.59394">
        <ele>54.711721897125</ele>
        <time>2021-11-28T13:23:53Z</time>
      </trkpt>
      <trkpt lat="43.45799" lon="6.59393">
        <ele>54.711853325367</ele>
        <time>2021-11-28T13:23:55Z</time>
      </trkpt>
      <trkpt lat="43.458" lon="6.59392">
        <ele>54.711717203259</ele>
        <time>2021-11-28T13:23:56Z</time>
      </trkpt>
      <trkpt lat="43.458" lon="6.59391">
        <ele>54.711627013981</ele>
        <time>2021-11-28T13:23:57Z</time>
      </trkpt>
      <trkpt lat="43.45801" lon="6.59389">
        <ele>54.711500950158</ele>
        <time>2021-11-28T13:23:59Z</time>
      </trkpt>
      <trkpt lat="43.45801" lon="6.59389">
        <ele>54.711500950158</ele>
        <time>2021-11-28T13:24:01Z</time>
      </trkpt>
      <trkpt lat="43.45802" lon="6.59388">
        <ele>54.711351081729</ele>
        <time>2021-11-28T13:24:02Z</time>
      </trkpt>
      <trkpt lat="43.45801" lon="6.59386">
        <ele>54.711355440319</ele>
        <time>2021-11-28T13:24:04Z</time>
      </trkpt>
      <trkpt lat="43.45801" lon="6.59384">
        <ele>53.711230717599</ele>
        <time>2021-11-28T13:24:06Z</time>
      </trkpt>
      <trkpt lat="43.45802" lon="6.59381">
        <ele>52.711065091193</ele>
        <time>2021-11-28T13:24:07Z</time>
      </trkpt>
      <trkpt lat="43.45803" lon="6.5938">
        <ele>52.710987977684</ele>
        <time>2021-11-28T13:24:08Z</time>
      </trkpt>
      <trkpt lat="43.45803" lon="6.59378">
        <ele>52.710916228592</ele>
        <time>2021-11-28T13:24:10Z</time>
      </trkpt>
      <trkpt lat="43.45803" lon="6.59377">
        <ele>53.710856549442</ele>
        <time>2021-11-28T13:24:11Z</time>
      </trkpt>
      <trkpt lat="43.45803" lon="6.59376">
        <ele>52.710819333792</ele>
        <time>2021-11-28T13:24:12Z</time>
      </trkpt>
      <trkpt lat="43.45803" lon="6.59374">
        <ele>52.710747919977</ele>
        <time>2021-11-28T13:24:13Z</time>
      </trkpt>
      <trkpt lat="43.45803" lon="6.59372">
        <ele>52.710638284683</ele>
        <time>2021-11-28T13:24:15Z</time>
      </trkpt>
      <trkpt lat="43.45803" lon="6.59372">
        <ele>52.710660412908</ele>
        <time>2021-11-28T13:24:17Z</time>
      </trkpt>
      <trkpt lat="43.45802" lon="6.59371">
        <ele>52.710684217513</ele>
        <time>2021-11-28T13:24:18Z</time>
      </trkpt>
      <trkpt lat="43.45803" lon="6.5937">
        <ele>51.710606433451</ele>
        <time>2021-11-28T13:24:20Z</time>
      </trkpt>
      <trkpt lat="43.45804" lon="6.5937">
        <ele>51.710501156747</ele>
        <time>2021-11-28T13:24:21Z</time>
      </trkpt>
      <trkpt lat="43.45804" lon="6.5937">
        <ele>51.71049143374</ele>
        <time>2021-11-28T13:24:22Z</time>
      </trkpt>
      <trkpt lat="43.45805" lon="6.59369">
        <ele>50.710374087095</ele>
        <time>2021-11-28T13:24:24Z</time>
      </trkpt>
      <trkpt lat="43.45805" lon="6.59368">
        <ele>52.710302002728</ele>
        <time>2021-11-28T13:24:26Z</time>
      </trkpt>
      <trkpt lat="43.45805" lon="6.59367">
        <ele>52.710288591683</ele>
        <time>2021-11-28T13:24:27Z</time>
      </trkpt>
      <trkpt lat="43.45803" lon="6.59366">
        <ele>53.710380792618</ele>
        <time>2021-11-28T13:24:29Z</time>
      </trkpt>
      <trkpt lat="43.45804" lon="6.59365">
        <ele>53.710322454572</ele>
        <time>2021-11-28T13:24:30Z</time>
      </trkpt>
      <trkpt lat="43.45804" lon="6.59365">
        <ele>53.710263445973</ele>
        <time>2021-11-28T13:24:31Z</time>
      </trkpt>
      <trkpt lat="43.45806" lon="6.59364">
        <ele>54.710093125701</ele>
        <time>2021-11-28T13:24:32Z</time>
      </trkpt>
      <trkpt lat="43.45808" lon="6.59362">
        <ele>55.709816858172</ele>
        <time>2021-11-28T13:24:34Z</time>
      </trkpt>
      <trkpt lat="43.45809" lon="6.59362">
        <ele>55.709744773805</ele>
        <time>2021-11-28T13:24:35Z</time>
      </trkpt>
      <trkpt lat="43.45809" lon="6.59361">
        <ele>55.709699176252</ele>
        <time>2021-11-28T13:24:36Z</time>
      </trkpt>
      <trkpt lat="43.45809" lon="6.5936">
        <ele>56.709667660296</ele>
        <time>2021-11-28T13:24:37Z</time>
      </trkpt>
      <trkpt lat="43.45809" lon="6.59359">
        <ele>56.709612339735</ele>
        <time>2021-11-28T13:24:38Z</time>
      </trkpt>
      <trkpt lat="43.45809" lon="6.59358">
        <ele>57.709606304765</ele>
        <time>2021-11-28T13:24:39Z</time>
      </trkpt>
      <trkpt lat="43.45809" lon="6.59356">
        <ele>58.709577806294</ele>
        <time>2021-11-28T13:24:41Z</time>
      </trkpt>
      <trkpt lat="43.45809" lon="6.59356">
        <ele>58.709527179599</ele>
        <time>2021-11-28T13:24:42Z</time>
      </trkpt>
      <trkpt lat="43.45809" lon="6.59355">
        <ele>59.709458783269</ele>
        <time>2021-11-28T13:24:45Z</time>
      </trkpt>
      <trkpt lat="43.45809" lon="6.59352">
        <ele>59.709373958409</ele>
        <time>2021-11-28T13:24:46Z</time>
      </trkpt>
      <trkpt lat="43.45808" lon="6.59352">
        <ele>59.709423914552</ele>
        <time>2021-11-28T13:24:48Z</time>
      </trkpt>
      <trkpt lat="43.45807" lon="6.59352">
        <ele>60.709551654756</ele>
        <time>2021-11-28T13:24:50Z</time>
      </trkpt>
      <trkpt lat="43.45807" lon="6.59352">
        <ele>61.709519468248</ele>
        <time>2021-11-28T13:24:52Z</time>
      </trkpt>
      <trkpt lat="43.45808" lon="6.59351">
        <ele>62.709415197372</ele>
        <time>2021-11-28T13:24:53Z</time>
      </trkpt>
      <trkpt lat="43.45808" lon="6.59349">
        <ele>61.709321320057</ele>
        <time>2021-11-28T13:24:55Z</time>
      </trkpt>
      <trkpt lat="43.45808" lon="6.59348">
        <ele>61.709272034466</ele>
        <time>2021-11-28T13:24:56Z</time>
      </trkpt>
      <trkpt lat="43.45808" lon="6.59347">
        <ele>61.709260635078</ele>
        <time>2021-11-28T13:24:57Z</time>
      </trkpt>
      <trkpt lat="43.45808" lon="6.59344">
        <ele>62.709090314806</ele>
        <time>2021-11-28T13:24:59Z</time>
      </trkpt>
      <trkpt lat="43.45809" lon="6.59341">
        <ele>62.708945810795</ele>
        <time>2021-11-28T13:25:01Z</time>
      </trkpt>
      <trkpt lat="43.45809" lon="6.59341">
        <ele>62.708915300667</ele>
        <time>2021-11-28T13:25:02Z</time>
      </trkpt>
      <trkpt lat="43.4581" lon="6.59342">
        <ele>62.708878420293</ele>
        <time>2021-11-28T13:25:04Z</time>
      </trkpt>
      <trkpt lat="43.45811" lon="6.59341">
        <ele>62.708748668432</ele>
        <time>2021-11-28T13:25:06Z</time>
      </trkpt>
      <trkpt lat="43.45812" lon="6.59341">
        <ele>62.708713799715</ele>
        <time>2021-11-28T13:25:07Z</time>
      </trkpt>
      <trkpt lat="43.45812" lon="6.5934">
        <ele>62.708629645407</ele>
        <time>2021-11-28T13:25:08Z</time>
      </trkpt>
      <trkpt lat="43.45813" lon="6.5934">
        <ele>62.708593100309</ele>
        <time>2021-11-28T13:25:09Z</time>
      </trkpt>
      <trkpt lat="43.45812" lon="6.59339">
        <ele>62.708597794175</ele>
        <time>2021-11-28T13:25:10Z</time>
      </trkpt>
      <trkpt lat="43.45811" lon="6.59338">
        <ele>62.708679936826</ele>
        <time>2021-11-28T13:25:11Z</time>
      </trkpt>
      <trkpt lat="43.45811" lon="6.59337">
        <ele>63.708613216877</ele>
        <time>2021-11-28T13:25:14Z</time>
      </trkpt>
      <trkpt lat="43.45812" lon="6.59336">
        <ele>63.70853677392</ele>
        <time>2021-11-28T13:25:15Z</time>
      </trkpt>
      <trkpt lat="43.45811" lon="6.59336">
        <ele>62.708571977913</ele>
        <time>2021-11-28T13:25:18Z</time>
      </trkpt>
      <trkpt lat="43.45812" lon="6.59337">
        <ele>62.708539120853</ele>
        <time>2021-11-28T13:25:19Z</time>
      </trkpt>
      <trkpt lat="43.45811" lon="6.59338">
        <ele>62.708650767803</ele>
        <time>2021-11-28T13:25:20Z</time>
      </trkpt>
      <trkpt lat="43.4581" lon="6.59338">
        <ele>61.708767779171</ele>
        <time>2021-11-28T13:25:21Z</time>
      </trkpt>
      <trkpt lat="43.4581" lon="6.59338">
        <ele>61.708764091134</ele>
        <time>2021-11-28T13:25:22Z</time>
      </trkpt>
      <trkpt lat="43.45808" lon="6.59339">
        <ele>61.708900548518</ele>
        <time>2021-11-28T13:25:23Z</time>
      </trkpt>
      <trkpt lat="43.45808" lon="6.59339">
        <ele>60.708960562944</ele>
        <time>2021-11-28T13:25:24Z</time>
      </trkpt>
      <trkpt lat="43.45806" lon="6.59339">
        <ele>61.709059469402</ele>
        <time>2021-11-28T13:25:26Z</time>
      </trkpt>
      <trkpt lat="43.45806" lon="6.59339">
        <ele>60.709112107754</ele>
        <time>2021-11-28T13:25:28Z</time>
      </trkpt>
      <trkpt lat="43.45806" lon="6.5934">
        <ele>60.70915401727</ele>
        <time>2021-11-28T13:25:30Z</time>
      </trkpt>
      <trkpt lat="43.45806" lon="6.5934">
        <ele>60.709174469113</ele>
        <time>2021-11-28T13:25:31Z</time>
      </trkpt>
      <trkpt lat="43.45806" lon="6.59342">
        <ele>60.709167428315</ele>
        <time>2021-11-28T13:25:32Z</time>
      </trkpt>
      <trkpt lat="43.45807" lon="6.59341">
        <ele>59.709090650082</ele>
        <time>2021-11-28T13:25:33Z</time>
      </trkpt>
      <trkpt lat="43.45809" lon="6.5934">
        <ele>59.708936423063</ele>
        <time>2021-11-28T13:25:35Z</time>
      </trkpt>
      <trkpt lat="43.4581" lon="6.59342">
        <ele>59.708852939308</ele>
        <time>2021-11-28T13:25:36Z</time>
      </trkpt>
      <trkpt lat="43.45813" lon="6.59342">
        <ele>59.708654791117</ele>
        <time>2021-11-28T13:25:37Z</time>
      </trkpt>
      <trkpt lat="43.45815" lon="6.59339">
        <ele>59.70832554996</ele>
        <time>2021-11-28T13:25:39Z</time>
      </trkpt>
      <trkpt lat="43.45818" lon="6.59335">
        <ele>58.707962445915</ele>
        <time>2021-11-28T13:25:41Z</time>
      </trkpt>
      <trkpt lat="43.45819" lon="6.59334">
        <ele>58.707831688225</ele>
        <time>2021-11-28T13:25:42Z</time>
      </trkpt>
      <trkpt lat="43.4582" lon="6.59333">
        <ele>58.707697913051</ele>
        <time>2021-11-28T13:25:43Z</time>
      </trkpt>
      <trkpt lat="43.45822" lon="6.59335">
        <ele>60.70765466243</ele>
        <time>2021-11-28T13:25:44Z</time>
      </trkpt>
      <trkpt lat="43.45822" lon="6.59335">
        <ele>59.70766505599</ele>
        <time>2021-11-28T13:25:45Z</time>
      </trkpt>
      <trkpt lat="43.45822" lon="6.59333">
        <ele>60.707611076534</ele>
        <time>2021-11-28T13:25:46Z</time>
      </trkpt>
      <trkpt lat="43.45822" lon="6.59333">
        <ele>60.707522563636</ele>
        <time>2021-11-28T13:25:47Z</time>
      </trkpt>
      <trkpt lat="43.45823" lon="6.59333">
        <ele>60.707439079881</ele>
        <time>2021-11-28T13:25:48Z</time>
      </trkpt>
      <trkpt lat="43.45824" lon="6.59332">
        <ele>60.707341849804</ele>
        <time>2021-11-28T13:25:49Z</time>
      </trkpt>
      <trkpt lat="43.45825" lon="6.59331">
        <ele>61.707263730466</ele>
        <time>2021-11-28T13:25:50Z</time>
      </trkpt>
      <trkpt lat="43.45826" lon="6.59331">
        <ele>63.707206398249</ele>
        <time>2021-11-28T13:25:51Z</time>
      </trkpt>
      <trkpt lat="43.45826" lon="6.5933">
        <ele>65.707134313881</ele>
        <time>2021-11-28T13:25:53Z</time>
      </trkpt>
      <trkpt lat="43.45827" lon="6.5933">
        <ele>65.707082681358</ele>
        <time>2021-11-28T13:25:57Z</time>
      </trkpt>
      <trkpt lat="43.45828" lon="6.59329">
        <ele>62.706935830414</ele>
        <time>2021-11-28T13:25:59Z</time>
      </trkpt>
      <trkpt lat="43.45828" lon="6.59329">
        <ele>61.706949576735</ele>
        <time>2021-11-28T13:26:04Z</time>
      </trkpt>
      <trkpt lat="43.45827" lon="6.59329">
        <ele>60.706966005266</ele>
        <time>2021-11-28T13:26:07Z</time>
      </trkpt>
      <trkpt lat="43.45828" lon="6.59328">
        <ele>60.70687212795</ele>
        <time>2021-11-28T13:26:08Z</time>
      </trkpt>
      <trkpt lat="43.45828" lon="6.59327">
        <ele>58.706848323345</ele>
        <time>2021-11-28T13:26:12Z</time>
      </trkpt>
      <trkpt lat="43.45827" lon="6.59327">
        <ele>58.706891238689</ele>
        <time>2021-11-28T13:26:13Z</time>
      </trkpt>
      <trkpt lat="43.45827" lon="6.59326">
        <ele>57.70690330863</ele>
        <time>2021-11-28T13:26:15Z</time>
      </trkpt>
      <trkpt lat="43.45826" lon="6.59325">
        <ele>57.706926777959</ele>
        <time>2021-11-28T13:26:16Z</time>
      </trkpt>
      <trkpt lat="43.45826" lon="6.59326">
        <ele>56.7069613114</ele>
        <time>2021-11-28T13:26:19Z</time>
      </trkpt>
      <trkpt lat="43.45826" lon="6.59327">
        <ele>56.706981763244</ele>
        <time>2021-11-28T13:26:23Z</time>
      </trkpt>
      <trkpt lat="43.45825" lon="6.59327">
        <ele>56.707063570619</ele>
        <time>2021-11-28T13:26:25Z</time>
      </trkpt>
      <trkpt lat="43.45825" lon="6.59326">
        <ele>57.707032725215</ele>
        <time>2021-11-28T13:26:27Z</time>
      </trkpt>
      <trkpt lat="43.45823" lon="6.59326">
        <ele>57.707169853151</ele>
        <time>2021-11-28T13:26:29Z</time>
      </trkpt>
      <trkpt lat="43.45824" lon="6.59325">
        <ele>59.707113862038</ele>
        <time>2021-11-28T13:26:37Z</time>
      </trkpt>
      <trkpt lat="43.45824" lon="6.59325">
        <ele>59.707092069089</ele>
        <time>2021-11-28T13:26:38Z</time>
      </trkpt>
      <trkpt lat="43.45823" lon="6.59324">
        <ele>58.70713699609</ele>
        <time>2021-11-28T13:26:40Z</time>
      </trkpt>
      <trkpt lat="43.45823" lon="6.59323">
        <ele>58.707084693015</ele>
        <time>2021-11-28T13:26:41Z</time>
      </trkpt>
      <trkpt lat="43.45824" lon="6.59324">
        <ele>58.707021996379</ele>
        <time>2021-11-28T13:26:42Z</time>
      </trkpt>
      <trkpt lat="43.45824" lon="6.59324">
        <ele>58.707079663873</ele>
        <time>2021-11-28T13:26:46Z</time>
      </trkpt>
      <trkpt lat="43.45823" lon="6.59323">
        <ele>59.707058876753</ele>
        <time>2021-11-28T13:26:47Z</time>
      </trkpt>
      <trkpt lat="43.45824" lon="6.59325">
        <ele>58.707056865096</ele>
        <time>2021-11-28T13:26:49Z</time>
      </trkpt>
      <trkpt lat="43.45825" lon="6.59326">
        <ele>59.707027025521</ele>
        <time>2021-11-28T13:26:50Z</time>
      </trkpt>
      <trkpt lat="43.45825" lon="6.59326">
        <ele>60.707027360797</ele>
        <time>2021-11-28T13:26:57Z</time>
      </trkpt>
      <trkpt lat="43.45827" lon="6.59327">
        <ele>62.706933148205</ele>
        <time>2021-11-28T13:26:59Z</time>
      </trkpt>
      <trkpt lat="43.45827" lon="6.59327">
        <ele>63.706879168749</ele>
        <time>2021-11-28T13:27:00Z</time>
      </trkpt>
      <trkpt lat="43.45828" lon="6.59326">
        <ele>63.706821501255</ele>
        <time>2021-11-28T13:27:06Z</time>
      </trkpt>
      <trkpt lat="43.45828" lon="6.59326">
        <ele>63.706759139895</ele>
        <time>2021-11-28T13:27:09Z</time>
      </trkpt>
      <trkpt lat="43.45829" lon="6.59326">
        <ele>63.706758134067</ele>
        <time>2021-11-28T13:27:22Z</time>
      </trkpt>
      <trkpt lat="43.45828" lon="6.59326">
        <ele>63.706800378859</ele>
        <time>2021-11-28T13:27:26Z</time>
      </trkpt>
      <trkpt lat="43.45829" lon="6.59326">
        <ele>63.706701472402</ele>
        <time>2021-11-28T13:27:27Z</time>
      </trkpt>
      <trkpt lat="43.4583" lon="6.59325">
        <ele>63.706628717482</ele>
        <time>2021-11-28T13:27:28Z</time>
      </trkpt>
      <trkpt lat="43.45831" lon="6.59325">
        <ele>63.706522770226</ele>
        <time>2021-11-28T13:27:30Z</time>
      </trkpt>
      <trkpt lat="43.45832" lon="6.59326">
        <ele>63.706510029733</ele>
        <time>2021-11-28T13:27:32Z</time>
      </trkpt>
      <trkpt lat="43.45832" lon="6.59327">
        <ele>63.70647046715</ele>
        <time>2021-11-28T13:27:35Z</time>
      </trkpt>
      <trkpt lat="43.45833" lon="6.59327">
        <ele>64.706415146589</ele>
        <time>2021-11-28T13:27:36Z</time>
      </trkpt>
      <trkpt lat="43.45834" lon="6.59328">
        <ele>64.706414811313</ele>
        <time>2021-11-28T13:27:37Z</time>
      </trkpt>
      <trkpt lat="43.45831" lon="6.59328">
        <ele>64.706625364721</ele>
        <time>2021-11-28T13:27:39Z</time>
      </trkpt>
      <trkpt lat="43.45831" lon="6.59327">
        <ele>65.706599213183</ele>
        <time>2021-11-28T13:27:43Z</time>
      </trkpt>
      <trkpt lat="43.4583" lon="6.59326">
        <ele>65.706651180983</ele>
        <time>2021-11-28T13:27:45Z</time>
      </trkpt>
      <trkpt lat="43.4583" lon="6.59326">
        <ele>65.706665597856</ele>
        <time>2021-11-28T13:27:47Z</time>
      </trkpt>
      <trkpt lat="43.4583" lon="6.59326">
        <ele>66.706645481288</ele>
        <time>2021-11-28T13:27:52Z</time>
      </trkpt>
      <trkpt lat="43.45831" lon="6.59327">
        <ele>66.706595525146</ele>
        <time>2021-11-28T13:27:53Z</time>
      </trkpt>
      <trkpt lat="43.45832" lon="6.59328">
        <ele>66.706572391093</ele>
        <time>2021-11-28T13:27:55Z</time>
      </trkpt>
      <trkpt lat="43.45831" lon="6.59328">
        <ele>67.706661239266</ele>
        <time>2021-11-28T13:27:56Z</time>
      </trkpt>
      <trkpt lat="43.45831" lon="6.59328">
        <ele>67.706650845706</ele>
        <time>2021-11-28T13:28:01Z</time>
      </trkpt>
      <trkpt lat="43.4583" lon="6.59329">
        <ele>67.706799373031</ele>
        <time>2021-11-28T13:28:02Z</time>
      </trkpt>
      <trkpt lat="43.4583" lon="6.59329">
        <ele>67.70675444603</ele>
        <time>2021-11-28T13:28:04Z</time>
      </trkpt>
      <trkpt lat="43.45829" lon="6.5933">
        <ele>66.706838600338</ele>
        <time>2021-11-28T13:28:06Z</time>
      </trkpt>
      <trkpt lat="43.4583" lon="6.5933">
        <ele>67.706805743277</ele>
        <time>2021-11-28T13:28:08Z</time>
      </trkpt>
      <trkpt lat="43.4583" lon="6.5933">
        <ele>66.706773892045</ele>
        <time>2021-11-28T13:28:09Z</time>
      </trkpt>
      <trkpt lat="43.45831" lon="6.59329">
        <ele>66.706693761051</ele>
        <time>2021-11-28T13:28:11Z</time>
      </trkpt>
      <trkpt lat="43.45831" lon="6.59328">
        <ele>65.706668280065</ele>
        <time>2021-11-28T13:28:12Z</time>
      </trkpt>
      <trkpt lat="43.45831" lon="6.59327">
        <ele>63.706581443548</ele>
        <time>2021-11-28T13:28:13Z</time>
      </trkpt>
      <trkpt lat="43.45832" lon="6.59327">
        <ele>62.706558644772</ele>
        <time>2021-11-28T13:28:17Z</time>
      </trkpt>
      <trkpt lat="43.45833" lon="6.59326">
        <ele>61.706428557634</ele>
        <time>2021-11-28T13:28:19Z</time>
      </trkpt>
      <trkpt lat="43.45835" lon="6.59328">
        <ele>60.706368543208</ele>
        <time>2021-11-28T13:28:21Z</time>
      </trkpt>
      <trkpt lat="43.45835" lon="6.59329">
        <ele>60.706354796886</ele>
        <time>2021-11-28T13:28:22Z</time>
      </trkpt>
      <trkpt lat="43.45836" lon="6.59329">
        <ele>59.706304505467</ele>
        <time>2021-11-28T13:28:25Z</time>
      </trkpt>
      <trkpt lat="43.45838" lon="6.59329">
        <ele>57.706161007285</ele>
        <time>2021-11-28T13:28:26Z</time>
      </trkpt>
      <trkpt lat="43.45838" lon="6.5933">
        <ele>57.70614323765</ele>
        <time>2021-11-28T13:28:27Z</time>
      </trkpt>
      <trkpt lat="43.45839" lon="6.5933">
        <ele>57.706078529358</ele>
        <time>2021-11-28T13:28:32Z</time>
      </trkpt>
      <trkpt lat="43.4584" lon="6.5933">
        <ele>58.70596755296</ele>
        <time>2021-11-28T13:28:34Z</time>
      </trkpt>
      <trkpt lat="43.45841" lon="6.59331">
        <ele>57.705956488848</ele>
        <time>2021-11-28T13:28:36Z</time>
      </trkpt>
      <trkpt lat="43.45842" lon="6.59329">
        <ele>56.705797232687</ele>
        <time>2021-11-28T13:28:37Z</time>
      </trkpt>
      <trkpt lat="43.45842" lon="6.59329">
        <ele>56.705797232687</ele>
        <time>2021-11-28T13:28:38Z</time>
      </trkpt>
      <trkpt lat="43.45842" lon="6.59329">
        <ele>54.705810643733</ele>
        <time>2021-11-28T13:28:42Z</time>
      </trkpt>
      <trkpt lat="43.45844" lon="6.59329">
        <ele>53.705650046468</ele>
        <time>2021-11-28T13:28:44Z</time>
      </trkpt>
      <trkpt lat="43.45843" lon="6.59328">
        <ele>53.705681227148</ele>
        <time>2021-11-28T13:28:46Z</time>
      </trkpt>
      <trkpt lat="43.45844" lon="6.59327">
        <ele>53.705569915473</ele>
        <time>2021-11-28T13:28:47Z</time>
      </trkpt>
      <trkpt lat="43.45844" lon="6.59326">
        <ele>53.705526664853</ele>
        <time>2021-11-28T13:28:48Z</time>
      </trkpt>
      <trkpt lat="43.45843" lon="6.59325">
        <ele>54.705527335405</ele>
        <time>2021-11-28T13:28:50Z</time>
      </trkpt>
      <trkpt lat="43.45843" lon="6.59324">
        <ele>54.705493472517</ele>
        <time>2021-11-28T13:28:53Z</time>
      </trkpt>
      <trkpt lat="43.45846" lon="6.59322">
        <ele>54.705239333212</ele>
        <time>2021-11-28T13:28:55Z</time>
      </trkpt>
      <trkpt lat="43.45846" lon="6.59322">
        <ele>54.705180324614</ele>
        <time>2021-11-28T13:28:56Z</time>
      </trkpt>
      <trkpt lat="43.45847" lon="6.5932">
        <ele>55.705048561096</ele>
        <time>2021-11-28T13:28:57Z</time>
      </trkpt>
      <trkpt lat="43.45848" lon="6.59319">
        <ele>54.704889304936</ele>
        <time>2021-11-28T13:28:59Z</time>
      </trkpt>
      <trkpt lat="43.45851" lon="6.59316">
        <ele>54.704541288316</ele>
        <time>2021-11-28T13:29:01Z</time>
      </trkpt>
      <trkpt lat="43.45853" lon="6.59315">
        <ele>54.704369962215</ele>
        <time>2021-11-28T13:29:02Z</time>
      </trkpt>
      <trkpt lat="43.45855" lon="6.59314">
        <ele>55.704191595316</ele>
        <time>2021-11-28T13:29:03Z</time>
      </trkpt>
      <trkpt lat="43.45856" lon="6.59314">
        <ele>54.704085312784</ele>
        <time>2021-11-28T13:29:04Z</time>
      </trkpt>
      <trkpt lat="43.45857" lon="6.59314">
        <ele>53.703967630863</ele>
        <time>2021-11-28T13:29:05Z</time>
      </trkpt>
      <trkpt lat="43.45858" lon="6.59314">
        <ele>52.703943490982</ele>
        <time>2021-11-28T13:29:08Z</time>
      </trkpt>
      <trkpt lat="43.45859" lon="6.59316">
        <ele>52.70393846184</ele>
        <time>2021-11-28T13:29:09Z</time>
      </trkpt>
      <trkpt lat="43.45859" lon="6.59316">
        <ele>52.703906275332</ele>
        <time>2021-11-28T13:29:12Z</time>
      </trkpt>
      <trkpt lat="43.4586" lon="6.59313">
        <ele>51.703686669469</ele>
        <time>2021-11-28T13:29:13Z</time>
      </trkpt>
      <trkpt lat="43.45861" lon="6.59311">
        <ele>51.703597821295</ele>
        <time>2021-11-28T13:29:14Z</time>
      </trkpt>
      <trkpt lat="43.4586" lon="6.59309">
        <ele>50.703544177115</ele>
        <time>2021-11-28T13:29:15Z</time>
      </trkpt>
      <trkpt lat="43.4586" lon="6.59308">
        <ele>50.703507632017</ele>
        <time>2021-11-28T13:29:16Z</time>
      </trkpt>
      <trkpt lat="43.4586" lon="6.59306">
        <ele>50.703435212374</ele>
        <time>2021-11-28T13:29:17Z</time>
      </trkpt>
      <trkpt lat="43.4586" lon="6.59305">
        <ele>50.703373856843</ele>
        <time>2021-11-28T13:29:18Z</time>
      </trkpt>
      <trkpt lat="43.45859" lon="6.59305">
        <ele>50.703508302569</ele>
        <time>2021-11-28T13:29:20Z</time>
      </trkpt>
      <trkpt lat="43.45859" lon="6.59305">
        <ele>50.703492544591</ele>
        <time>2021-11-28T13:29:22Z</time>
      </trkpt>
      <trkpt lat="43.4586" lon="6.59304">
        <ele>50.703351728618</ele>
        <time>2021-11-28T13:29:24Z</time>
      </trkpt>
      <trkpt lat="43.45862" lon="6.59303">
        <ele>50.703179731965</ele>
        <time>2021-11-28T13:29:26Z</time>
      </trkpt>
      <trkpt lat="43.45862" lon="6.59302">
        <ele>50.703121393919</ele>
        <time>2021-11-28T13:29:27Z</time>
      </trkpt>
      <trkpt lat="43.45862" lon="6.59301">
        <ele>50.703099600971</ele>
        <time>2021-11-28T13:29:30Z</time>
      </trkpt>
      <trkpt lat="43.45861" lon="6.593">
        <ele>50.703129775822</ele>
        <time>2021-11-28T13:29:31Z</time>
      </trkpt>
      <trkpt lat="43.4586" lon="6.59299">
        <ele>51.703133799136</ele>
        <time>2021-11-28T13:29:32Z</time>
      </trkpt>
      <trkpt lat="43.45859" lon="6.59297">
        <ele>51.703141845763</ele>
        <time>2021-11-28T13:29:34Z</time>
      </trkpt>
      <trkpt lat="43.45859" lon="6.59295">
        <ele>50.703122399747</ele>
        <time>2021-11-28T13:29:36Z</time>
      </trkpt>
      <trkpt lat="43.45859" lon="6.59294">
        <ele>50.70309188962</ele>
        <time>2021-11-28T13:29:37Z</time>
      </trkpt>
      <trkpt lat="43.4586" lon="6.59293">
        <ele>51.70293866843</ele>
        <time>2021-11-28T13:29:38Z</time>
      </trkpt>
      <trkpt lat="43.4586" lon="6.59293">
        <ele>51.70293263346</ele>
        <time>2021-11-28T13:29:39Z</time>
      </trkpt>
      <trkpt lat="43.4586" lon="6.59292">
        <ele>51.702908493578</ele>
        <time>2021-11-28T13:29:42Z</time>
      </trkpt>
      <trkpt lat="43.45861" lon="6.59292">
        <ele>50.702797181904</ele>
        <time>2021-11-28T13:29:43Z</time>
      </trkpt>
      <trkpt lat="43.45862" lon="6.59292">
        <ele>51.702765330672</ele>
        <time>2021-11-28T13:29:44Z</time>
      </trkpt>
      <trkpt lat="43.4586" lon="6.59291">
        <ele>50.702835068107</ele>
        <time>2021-11-28T13:29:46Z</time>
      </trkpt>
      <trkpt lat="43.4586" lon="6.59292">
        <ele>50.702904805541</ele>
        <time>2021-11-28T13:29:48Z</time>
      </trkpt>
      <trkpt lat="43.4586" lon="6.59293">
        <ele>52.702922575176</ele>
        <time>2021-11-28T13:29:56Z</time>
      </trkpt>
      <trkpt lat="43.4586" lon="6.59294">
        <ele>52.702973201871</ele>
        <time>2021-11-28T13:29:57Z</time>
      </trkpt>
      <trkpt lat="43.4586" lon="6.59295">
        <ele>53.703013435006</ele>
        <time>2021-11-28T13:30:00Z</time>
      </trkpt>
      <trkpt lat="43.45861" lon="6.59296">
        <ele>53.7029222399</ele>
        <time>2021-11-28T13:30:01Z</time>
      </trkpt>
      <trkpt lat="43.45862" lon="6.59296">
        <ele>52.702898435295</ele>
        <time>2021-11-28T13:30:02Z</time>
      </trkpt>
      <trkpt lat="43.45862" lon="6.59295">
        <ele>53.702831044793</ele>
        <time>2021-11-28T13:30:03Z</time>
      </trkpt>
      <trkpt lat="43.45862" lon="6.59294">
        <ele>54.702828362584</ele>
        <time>2021-11-28T13:30:05Z</time>
      </trkpt>
      <trkpt lat="43.45862" lon="6.59293">
        <ele>54.702795505524</ele>
        <time>2021-11-28T13:30:06Z</time>
      </trkpt>
      <trkpt lat="43.45862" lon="6.59292">
        <ele>54.702717386186</ele>
        <time>2021-11-28T13:30:08Z</time>
      </trkpt>
      <trkpt lat="43.45863" lon="6.59291">
        <ele>55.702586963773</ele>
        <time>2021-11-28T13:30:09Z</time>
      </trkpt>
      <trkpt lat="43.45864" lon="6.5929">
        <ele>55.702524937689</ele>
        <time>2021-11-28T13:30:10Z</time>
      </trkpt>
      <trkpt lat="43.45864" lon="6.59288">
        <ele>54.702456876636</ele>
        <time>2021-11-28T13:30:11Z</time>
      </trkpt>
      <trkpt lat="43.45864" lon="6.59288">
        <ele>54.702456876636</ele>
        <time>2021-11-28T13:30:14Z</time>
      </trkpt>
      <trkpt lat="43.45862" lon="6.59287">
        <ele>54.702517561615</ele>
        <time>2021-11-28T13:30:16Z</time>
      </trkpt>
      <trkpt lat="43.45862" lon="6.59287">
        <ele>53.702499121428</ele>
        <time>2021-11-28T13:30:20Z</time>
      </trkpt>
      <trkpt lat="43.45862" lon="6.59286">
        <ele>53.702479340136</ele>
        <time>2021-11-28T13:30:21Z</time>
      </trkpt>
      <trkpt lat="43.45862" lon="6.59285">
        <ele>52.702470622957</ele>
        <time>2021-11-28T13:30:22Z</time>
      </trkpt>
      <trkpt lat="43.45861" lon="6.59286">
        <ele>52.702575229108</ele>
        <time>2021-11-28T13:30:24Z</time>
      </trkpt>
      <trkpt lat="43.45861" lon="6.59286">
        <ele>52.702563494444</ele>
        <time>2021-11-28T13:30:27Z</time>
      </trkpt>
      <trkpt lat="43.45862" lon="6.59285">
        <ele>53.702463246882</ele>
        <time>2021-11-28T13:30:28Z</time>
      </trkpt>
      <trkpt lat="43.45861" lon="6.59282">
        <ele>53.702378757298</ele>
        <time>2021-11-28T13:30:30Z</time>
      </trkpt>
      <trkpt lat="43.45862" lon="6.59281">
        <ele>54.702264092863</ele>
        <time>2021-11-28T13:30:31Z</time>
      </trkpt>
      <trkpt lat="43.45862" lon="6.59281">
        <ele>54.702264092863</ele>
        <time>2021-11-28T13:30:33Z</time>
      </trkpt>
      <trkpt lat="43.4586" lon="6.59278">
        <ele>54.702316731215</ele>
        <time>2021-11-28T13:30:35Z</time>
      </trkpt>
      <trkpt lat="43.45859" lon="6.59278">
        <ele>55.702386133373</ele>
        <time>2021-11-28T13:30:36Z</time>
      </trkpt>
      <trkpt lat="43.45859" lon="6.59277">
        <ele>54.702415972948</ele>
        <time>2021-11-28T13:30:37Z</time>
      </trkpt>
      <trkpt lat="43.45858" lon="6.59278">
        <ele>55.702474310994</ele>
        <time>2021-11-28T13:30:39Z</time>
      </trkpt>
      <trkpt lat="43.45856" lon="6.5928">
        <ele>56.702675811946</ele>
        <time>2021-11-28T13:30:41Z</time>
      </trkpt>
      <trkpt lat="43.45856" lon="6.5928">
        <ele>56.702732808888</ele>
        <time>2021-11-28T13:30:42Z</time>
      </trkpt>
      <trkpt lat="43.45855" lon="6.5928">
        <ele>57.70280187577</ele>
        <time>2021-11-28T13:30:43Z</time>
      </trkpt>
      <trkpt lat="43.45855" lon="6.59281">
        <ele>58.702868930995</ele>
        <time>2021-11-28T13:30:46Z</time>
      </trkpt>
      <trkpt lat="43.45854" lon="6.59281">
        <ele>59.702929951251</ele>
        <time>2021-11-28T13:30:49Z</time>
      </trkpt>
      <trkpt lat="43.45853" lon="6.59282">
        <ele>59.70304595679</ele>
        <time>2021-11-28T13:30:51Z</time>
      </trkpt>
      <trkpt lat="43.45853" lon="6.59283">
        <ele>59.7030711025</ele>
        <time>2021-11-28T13:30:52Z</time>
      </trkpt>
      <trkpt lat="43.45853" lon="6.59283">
        <ele>59.703124411404</ele>
        <time>2021-11-28T13:30:53Z</time>
      </trkpt>
      <trkpt lat="43.45851" lon="6.59281">
        <ele>59.703144863248</ele>
        <time>2021-11-28T13:30:55Z</time>
      </trkpt>
      <trkpt lat="43.45851" lon="6.5928">
        <ele>58.703149221838</ele>
        <time>2021-11-28T13:30:56Z</time>
      </trkpt>
      <trkpt lat="43.4585" lon="6.5928">
        <ele>58.703190796077</ele>
        <time>2021-11-28T13:30:57Z</time>
      </trkpt>
      <trkpt lat="43.45847" lon="6.59281">
        <ele>57.703465387225</ele>
        <time>2021-11-28T13:30:59Z</time>
      </trkpt>
      <trkpt lat="43.45846" lon="6.59283">
        <ele>58.703649453819</ele>
        <time>2021-11-28T13:31:01Z</time>
      </trkpt>
      <trkpt lat="43.45846" lon="6.59282">
        <ele>58.703644424677</ele>
        <time>2021-11-28T13:31:03Z</time>
      </trkpt>
      <trkpt lat="43.45845" lon="6.5928">
        <ele>58.703589439392</ele>
        <time>2021-11-28T13:31:05Z</time>
      </trkpt>
      <trkpt lat="43.45845" lon="6.5928">
        <ele>58.703552223742</ele>
        <time>2021-11-28T13:31:07Z</time>
      </trkpt>
      <trkpt lat="43.45846" lon="6.59279">
        <ele>59.703502602875</ele>
        <time>2021-11-28T13:31:12Z</time>
      </trkpt>
      <trkpt lat="43.45844" lon="6.5928">
        <ele>59.703663535416</ele>
        <time>2021-11-28T13:31:13Z</time>
      </trkpt>
      <trkpt lat="43.45843" lon="6.5928">
        <ele>58.703778870404</ele>
        <time>2021-11-28T13:31:15Z</time>
      </trkpt>
      <trkpt lat="43.45842" lon="6.5928">
        <ele>58.703833520412</ele>
        <time>2021-11-28T13:31:16Z</time>
      </trkpt>
      <trkpt lat="43.45842" lon="6.59281">
        <ele>57.703904934227</ele>
        <time>2021-11-28T13:31:17Z</time>
      </trkpt>
      <trkpt lat="43.45841" lon="6.59281">
        <ele>57.703964948654</ele>
        <time>2021-11-28T13:31:18Z</time>
      </trkpt>
      <trkpt lat="43.4584" lon="6.59281">
        <ele>57.704043738544</ele>
        <time>2021-11-28T13:31:28Z</time>
      </trkpt>
      <trkpt lat="43.4584" lon="6.59282">
        <ele>57.704110793769</ele>
        <time>2021-11-28T13:31:29Z</time>
      </trkpt>
      <trkpt lat="43.4584" lon="6.59282">
        <ele>57.704044409096</ele>
        <time>2021-11-28T13:31:40Z</time>
      </trkpt>
      <trkpt lat="43.45841" lon="6.59282">
        <ele>57.703983388841</ele>
        <time>2021-11-28T13:31:41Z</time>
      </trkpt>
      <trkpt lat="43.45841" lon="6.59283">
        <ele>56.70401121676</ele>
        <time>2021-11-28T13:31:42Z</time>
      </trkpt>
      <trkpt lat="43.45842" lon="6.59284">
        <ele>56.703968636692</ele>
        <time>2021-11-28T13:31:43Z</time>
      </trkpt>
      <trkpt lat="43.45841" lon="6.59283">
        <ele>56.704022951424</ele>
        <time>2021-11-28T13:31:45Z</time>
      </trkpt>
      <trkpt lat="43.45841" lon="6.59283">
        <ele>56.704047761858</ele>
        <time>2021-11-28T13:31:46Z</time>
      </trkpt>
      <trkpt lat="43.4584" lon="6.59282">
        <ele>56.70407089591</ele>
        <time>2021-11-28T13:31:47Z</time>
      </trkpt>
      <trkpt lat="43.45837" lon="6.59282">
        <ele>56.704295530915</ele>
        <time>2021-11-28T13:31:49Z</time>
      </trkpt>
      <trkpt lat="43.45836" lon="6.59283">
        <ele>56.704457469285</ele>
        <time>2021-11-28T13:31:51Z</time>
      </trkpt>
      <trkpt lat="43.45836" lon="6.59283">
        <ele>56.704394772649</ele>
        <time>2021-11-28T13:31:52Z</time>
      </trkpt>
      <trkpt lat="43.45836" lon="6.59282">
        <ele>56.704388067126</ele>
        <time>2021-11-28T13:31:55Z</time>
      </trkpt>
      <trkpt lat="43.45836" lon="6.59282">
        <ele>56.704412542284</ele>
        <time>2021-11-28T13:31:56Z</time>
      </trkpt>
      <trkpt lat="43.45835" lon="6.59282">
        <ele>55.704428635538</ele>
        <time>2021-11-28T13:31:57Z</time>
      </trkpt>
      <trkpt lat="43.45836" lon="6.59282">
        <ele>55.704408854246</ele>
        <time>2021-11-28T13:31:59Z</time>
      </trkpt>
      <trkpt lat="43.45834" lon="6.59283">
        <ele>55.704586215317</ele>
        <time>2021-11-28T13:32:01Z</time>
      </trkpt>
      <trkpt lat="43.45834" lon="6.59283">
        <ele>54.70461538434</ele>
        <time>2021-11-28T13:32:03Z</time>
      </trkpt>
      <trkpt lat="43.45833" lon="6.59282">
        <ele>54.704649917781</ele>
        <time>2021-11-28T13:32:04Z</time>
      </trkpt>
      <trkpt lat="43.45833" lon="6.59281">
        <ele>54.704623095691</ele>
        <time>2021-11-28T13:32:05Z</time>
      </trkpt>
      <trkpt lat="43.45834" lon="6.59281">
        <ele>54.704486973584</ele>
        <time>2021-11-28T13:32:06Z</time>
      </trkpt>
      <trkpt lat="43.45835" lon="6.59281">
        <ele>54.704427964985</ele>
        <time>2021-11-28T13:32:07Z</time>
      </trkpt>
      <trkpt lat="43.45835" lon="6.59279">
        <ele>53.704364597797</ele>
        <time>2021-11-28T13:32:09Z</time>
      </trkpt>
      <trkpt lat="43.45834" lon="6.59278">
        <ele>53.704417906702</ele>
        <time>2021-11-28T13:32:11Z</time>
      </trkpt>
      <trkpt lat="43.45834" lon="6.59276">
        <ele>53.704352192581</ele>
        <time>2021-11-28T13:32:12Z</time>
      </trkpt>
      <trkpt lat="43.45834" lon="6.59276">
        <ele>53.704352192581</ele>
        <time>2021-11-28T13:32:16Z</time>
      </trkpt>
      <trkpt lat="43.45835" lon="6.59272">
        <ele>53.704079948366</ele>
        <time>2021-11-28T13:32:17Z</time>
      </trkpt>
      <trkpt lat="43.45835" lon="6.5927">
        <ele>53.70399646461</ele>
        <time>2021-11-28T13:32:19Z</time>
      </trkpt>
      <trkpt lat="43.45834" lon="6.59268">
        <ele>54.703989423811</ele>
        <time>2021-11-28T13:32:21Z</time>
      </trkpt>
      <trkpt lat="43.45833" lon="6.59268">
        <ele>54.704066537321</ele>
        <time>2021-11-28T13:32:26Z</time>
      </trkpt>
      <trkpt lat="43.45833" lon="6.59269">
        <ele>55.704100064933</ele>
        <time>2021-11-28T13:32:27Z</time>
      </trkpt>
      <trkpt lat="43.45833" lon="6.59269">
        <ele>55.704151697457</ele>
        <time>2021-11-28T13:32:28Z</time>
      </trkpt>
      <trkpt lat="43.45832" lon="6.5927">
        <ele>55.70420332998</ele>
        <time>2021-11-28T13:32:30Z</time>
      </trkpt>
      <trkpt lat="43.45831" lon="6.59269">
        <ele>55.704269044101</ele>
        <time>2021-11-28T13:32:31Z</time>
      </trkpt>
      <trkpt lat="43.45831" lon="6.59269">
        <ele>55.704272061586</ele>
        <time>2021-11-28T13:32:33Z</time>
      </trkpt>
      <trkpt lat="43.45831" lon="6.59268">
        <ele>55.704226464033</ele>
        <time>2021-11-28T13:32:35Z</time>
      </trkpt>
      <trkpt lat="43.45832" lon="6.59268">
        <ele>56.704151697457</ele>
        <time>2021-11-28T13:32:36Z</time>
      </trkpt>
      <trkpt lat="43.45832" lon="6.59267">
        <ele>56.704096376896</ele>
        <time>2021-11-28T13:32:37Z</time>
      </trkpt>
      <trkpt lat="43.45832" lon="6.59265">
        <ele>56.704057820141</ele>
        <time>2021-11-28T13:32:39Z</time>
      </trkpt>
      <trkpt lat="43.45827" lon="6.59262">
        <ele>57.70428647846</ele>
        <time>2021-11-28T13:32:41Z</time>
      </trkpt>
      <trkpt lat="43.45827" lon="6.59261">
        <ele>58.704276755452</ele>
        <time>2021-11-28T13:32:42Z</time>
      </trkpt>
      <trkpt lat="43.45827" lon="6.5926">
        <ele>58.704253286123</ele>
        <time>2021-11-28T13:32:43Z</time>
      </trkpt>
      <trkpt lat="43.45832" lon="6.59258">
        <ele>57.703753389418</ele>
        <time>2021-11-28T13:32:45Z</time>
      </trkpt>
      <trkpt lat="43.45835" lon="6.59256">
        <ele>57.703477457166</ele>
        <time>2021-11-28T13:32:46Z</time>
      </trkpt>
      <trkpt lat="43.45835" lon="6.59254">
        <ele>57.703378885984</ele>
        <time>2021-11-28T13:32:47Z</time>
      </trkpt>
      <trkpt lat="43.45836" lon="6.59253">
        <ele>57.703269250691</ele>
        <time>2021-11-28T13:32:48Z</time>
      </trkpt>
      <trkpt lat="43.45837" lon="6.59251">
        <ele>57.703056015074</ele>
        <time>2021-11-28T13:32:50Z</time>
      </trkpt>
      <trkpt lat="43.45838" lon="6.5925">
        <ele>57.702976554632</ele>
        <time>2021-11-28T13:32:51Z</time>
      </trkpt>
      <trkpt lat="43.45837" lon="6.59249">
        <ele>57.702959790826</ele>
        <time>2021-11-28T13:32:52Z</time>
      </trkpt>
      <trkpt lat="43.45836" lon="6.59248">
        <ele>57.703014776111</ele>
        <time>2021-11-28T13:32:54Z</time>
      </trkpt>
      <trkpt lat="43.45836" lon="6.59248">
        <ele>56.703041262925</ele>
        <time>2021-11-28T13:32:56Z</time>
      </trkpt>
      <trkpt lat="43.45837" lon="6.59247">
        <ele>56.70292827487</ele>
        <time>2021-11-28T13:32:57Z</time>
      </trkpt>
      <trkpt lat="43.45839" lon="6.59247">
        <ele>55.702767677605</ele>
        <time>2021-11-28T13:32:58Z</time>
      </trkpt>
      <trkpt lat="43.45839" lon="6.59246">
        <ele>55.702684529126</ele>
        <time>2021-11-28T13:33:00Z</time>
      </trkpt>
      <trkpt lat="43.45838" lon="6.59246">
        <ele>54.702807575464</ele>
        <time>2021-11-28T13:33:01Z</time>
      </trkpt>
      <trkpt lat="43.45836" lon="6.59245">
        <ele>54.702905476093</ele>
        <time>2021-11-28T13:33:02Z</time>
      </trkpt>
      <trkpt lat="43.45836" lon="6.59244">
        <ele>55.702870942652</ele>
        <time>2021-11-28T13:33:03Z</time>
      </trkpt>
      <trkpt lat="43.45834" lon="6.59243">
        <ele>55.703012093902</ele>
        <time>2021-11-28T13:33:05Z</time>
      </trkpt>
      <trkpt lat="43.45832" lon="6.59242">
        <ele>55.703101947904</ele>
        <time>2021-11-28T13:33:06Z</time>
      </trkpt>
      <trkpt lat="43.45831" lon="6.59241">
        <ele>55.703109994531</ele>
        <time>2021-11-28T13:33:07Z</time>
      </trkpt>
      <trkpt lat="43.45832" lon="6.5924">
        <ele>53.703069761395</ele>
        <time>2021-11-28T13:33:12Z</time>
      </trkpt>
      <trkpt lat="43.45831" lon="6.59242">
        <ele>53.703192472458</ele>
        <time>2021-11-28T13:33:13Z</time>
      </trkpt>
      <trkpt lat="43.4583" lon="6.59242">
        <ele>53.703284002841</ele>
        <time>2021-11-28T13:33:14Z</time>
      </trkpt>
      <trkpt lat="43.45828" lon="6.59241">
        <ele>53.703415431082</ele>
        <time>2021-11-28T13:33:16Z</time>
      </trkpt>
      <trkpt lat="43.45828" lon="6.59241">
        <ele>53.703444600105</ele>
        <time>2021-11-28T13:33:17Z</time>
      </trkpt>
      <trkpt lat="43.45827" lon="6.59241">
        <ele>53.703480474651</ele>
        <time>2021-11-28T13:33:18Z</time>
      </trkpt>
      <trkpt lat="43.45825" lon="6.5924">
        <ele>52.703577034175</ele>
        <time>2021-11-28T13:33:19Z</time>
      </trkpt>
      <trkpt lat="43.45823" lon="6.59238">
        <ele>52.703693710268</ele>
        <time>2021-11-28T13:33:21Z</time>
      </trkpt>
      <trkpt lat="43.45821" lon="6.59237">
        <ele>52.703824467957</ele>
        <time>2021-11-28T13:33:22Z</time>
      </trkpt>
      <trkpt lat="43.4582" lon="6.59237">
        <ele>53.703858666122</ele>
        <time>2021-11-28T13:33:23Z</time>
      </trkpt>
      <trkpt lat="43.45819" lon="6.59236">
        <ele>53.703903928399</ele>
        <time>2021-11-28T13:33:25Z</time>
      </trkpt>
      <trkpt lat="43.45818" lon="6.59235">
        <ele>53.703958578408</ele>
        <time>2021-11-28T13:33:26Z</time>
      </trkpt>
      <trkpt lat="43.45819" lon="6.59235">
        <ele>53.703869730234</ele>
        <time>2021-11-28T13:33:27Z</time>
      </trkpt>
      <trkpt lat="43.45822" lon="6.59235">
        <ele>54.703663535416</ele>
        <time>2021-11-28T13:33:29Z</time>
      </trkpt>
      <trkpt lat="43.45824" lon="6.59233">
        <ele>54.703382574022</ele>
        <time>2021-11-28T13:33:31Z</time>
      </trkpt>
      <trkpt lat="43.45824" lon="6.59233">
        <ele>53.703405037522</ele>
        <time>2021-11-28T13:33:32Z</time>
      </trkpt>
      <trkpt lat="43.45825" lon="6.59234">
        <ele>53.703333288431</ele>
        <time>2021-11-28T13:33:33Z</time>
      </trkpt>
      <trkpt lat="43.45826" lon="6.59234">
        <ele>53.703270591795</ele>
        <time>2021-11-28T13:33:34Z</time>
      </trkpt>
      <trkpt lat="43.45827" lon="6.59235">
        <ele>52.703253492713</ele>
        <time>2021-11-28T13:33:35Z</time>
      </trkpt>
      <trkpt lat="43.45828" lon="6.59236">
        <ele>52.703169003129</ele>
        <time>2021-11-28T13:33:36Z</time>
      </trkpt>
      <trkpt lat="43.4583" lon="6.59236">
        <ele>52.703078478575</ele>
        <time>2021-11-28T13:33:37Z</time>
      </trkpt>
      <trkpt lat="43.4583" lon="6.59237">
        <ele>52.703121729195</ele>
        <time>2021-11-28T13:33:38Z</time>
      </trkpt>
      <trkpt lat="43.4583" lon="6.59237">
        <ele>52.703093901277</ele>
        <time>2021-11-28T13:33:39Z</time>
      </trkpt>
      <trkpt lat="43.45831" lon="6.59236">
        <ele>53.70299063623</ele>
        <time>2021-11-28T13:33:40Z</time>
      </trkpt>
      <trkpt lat="43.45831" lon="6.59236">
        <ele>54.702979572117</ele>
        <time>2021-11-28T13:33:41Z</time>
      </trkpt>
      <trkpt lat="43.45831" lon="6.59235">
        <ele>54.702872619033</ele>
        <time>2021-11-28T13:33:42Z</time>
      </trkpt>
      <trkpt lat="43.45831" lon="6.59234">
        <ele>54.702877312899</ele>
        <time>2021-11-28T13:33:43Z</time>
      </trkpt>
      <trkpt lat="43.45831" lon="6.59233">
        <ele>54.702877983451</ele>
        <time>2021-11-28T13:33:47Z</time>
      </trkpt>
      <trkpt lat="43.45829" lon="6.59232">
        <ele>54.702941350639</ele>
        <time>2021-11-28T13:33:48Z</time>
      </trkpt>
      <trkpt lat="43.45828" lon="6.59232">
        <ele>54.703029863536</ele>
        <time>2021-11-28T13:33:50Z</time>
      </trkpt>
      <trkpt lat="43.4583" lon="6.59231">
        <ele>54.702876977623</ele>
        <time>2021-11-28T13:33:51Z</time>
      </trkpt>
      <trkpt lat="43.45831" lon="6.59231">
        <ele>54.702741861343</ele>
        <time>2021-11-28T13:33:52Z</time>
      </trkpt>
      <trkpt lat="43.45832" lon="6.59231">
        <ele>54.702659718692</ele>
        <time>2021-11-28T13:33:54Z</time>
      </trkpt>
      <trkpt lat="43.45833" lon="6.5923">
        <ele>54.702607415617</ele>
        <time>2021-11-28T13:33:57Z</time>
      </trkpt>
      <trkpt lat="43.45833" lon="6.5923">
        <ele>54.702601715922</ele>
        <time>2021-11-28T13:34:02Z</time>
      </trkpt>
      <trkpt lat="43.45829" lon="6.59231">
        <ele>54.702946379781</ele>
        <time>2021-11-28T13:34:03Z</time>
      </trkpt>
      <trkpt lat="43.45827" lon="6.59229">
        <ele>54.703015111387</ele>
        <time>2021-11-28T13:34:05Z</time>
      </trkpt>
      <trkpt lat="43.45827" lon="6.59229">
        <ele>54.703009411693</ele>
        <time>2021-11-28T13:34:07Z</time>
      </trkpt>
      <trkpt lat="43.45826" lon="6.59231">
        <ele>54.703166991472</ele>
        <time>2021-11-28T13:34:09Z</time>
      </trkpt>
      <trkpt lat="43.45822" lon="6.59232">
        <ele>53.703525066376</ele>
        <time>2021-11-28T13:34:11Z</time>
      </trkpt>
      <trkpt lat="43.45821" lon="6.59231">
        <ele>53.703563958406</ele>
        <time>2021-11-28T13:34:13Z</time>
      </trkpt>
      <trkpt lat="43.45822" lon="6.5923">
        <ele>53.703483492136</ele>
        <time>2021-11-28T13:34:15Z</time>
      </trkpt>
      <trkpt lat="43.45822" lon="6.5923">
        <ele>53.703405037522</ele>
        <time>2021-11-28T13:34:16Z</time>
      </trkpt>
      <trkpt lat="43.45823" lon="6.59228">
        <ele>52.703250810504</ele>
        <time>2021-11-28T13:34:17Z</time>
      </trkpt>
      <trkpt lat="43.45825" lon="6.59228">
        <ele>52.703136816621</ele>
        <time>2021-11-28T13:34:19Z</time>
      </trkpt>
      <trkpt lat="43.45823" lon="6.59227">
        <ele>52.703273944557</ele>
        <time>2021-11-28T13:34:21Z</time>
      </trkpt>
      <trkpt lat="43.45822" lon="6.59227">
        <ele>52.703284002841</ele>
        <time>2021-11-28T13:34:22Z</time>
      </trkpt>
      <trkpt lat="43.4582" lon="6.59227">
        <ele>52.703506290913</ele>
        <time>2021-11-28T13:34:23Z</time>
      </trkpt>
      <trkpt lat="43.4582" lon="6.59229">
        <ele>52.703600168228</ele>
        <time>2021-11-28T13:34:25Z</time>
      </trkpt>
      <trkpt lat="43.45818" lon="6.59231">
        <ele>52.703822121024</ele>
        <time>2021-11-28T13:34:26Z</time>
      </trkpt>
      <trkpt lat="43.45818" lon="6.59232">
        <ele>52.703819103539</ele>
        <time>2021-11-28T13:34:27Z</time>
      </trkpt>
      <trkpt lat="43.45816" lon="6.59233">
        <ele>52.704019598663</ele>
        <time>2021-11-28T13:34:29Z</time>
      </trkpt>
      <trkpt lat="43.45814" lon="6.59233">
        <ele>52.704243563116</ele>
        <time>2021-11-28T13:34:31Z</time>
      </trkpt>
      <trkpt lat="43.45812" lon="6.59234">
        <ele>52.704379014671</ele>
        <time>2021-11-28T13:34:32Z</time>
      </trkpt>
      <trkpt lat="43.45812" lon="6.59233">
        <ele>52.704402148724</ele>
        <time>2021-11-28T13:34:33Z</time>
      </trkpt>
      <trkpt lat="43.45811" lon="6.59231">
        <ele>52.704395443201</ele>
        <time>2021-11-28T13:34:35Z</time>
      </trkpt>
      <trkpt lat="43.45811" lon="6.59229">
        <ele>52.704308271408</ele>
        <time>2021-11-28T13:34:36Z</time>
      </trkpt>
      <trkpt lat="43.4581" lon="6.59227">
        <ele>53.704300560057</ele>
        <time>2021-11-28T13:34:37Z</time>
      </trkpt>
      <trkpt lat="43.45809" lon="6.59225">
        <ele>53.704297542572</ele>
        <time>2021-11-28T13:34:38Z</time>
      </trkpt>
      <trkpt lat="43.45807" lon="6.59225">
        <ele>53.704455792904</ele>
        <time>2021-11-28T13:34:39Z</time>
      </trkpt>
      <trkpt lat="43.45806" lon="6.59226">
        <ele>53.704516477883</ele>
        <time>2021-11-28T13:34:40Z</time>
      </trkpt>
      <trkpt lat="43.45809" lon="6.59226">
        <ele>53.704366609454</ele>
        <time>2021-11-28T13:34:41Z</time>
      </trkpt>
      <trkpt lat="43.45811" lon="6.59226">
        <ele>54.704158067703</ele>
        <time>2021-11-28T13:34:42Z</time>
      </trkpt>
      <trkpt lat="43.45815" lon="6.59227">
        <ele>53.703831844032</ele>
        <time>2021-11-28T13:34:43Z</time>
      </trkpt>
      <trkpt lat="43.45817" lon="6.59227">
        <ele>53.703746348619</ele>
        <time>2021-11-28T13:34:44Z</time>
      </trkpt>
      <trkpt lat="43.45818" lon="6.59228">
        <ele>53.703640736639</ele>
        <time>2021-11-28T13:34:45Z</time>
      </trkpt>
      <trkpt lat="43.45818" lon="6.59229">
        <ele>52.703706786036</ele>
        <time>2021-11-28T13:34:47Z</time>
      </trkpt>
      <trkpt lat="43.4582" lon="6.5923">
        <ele>52.703591786325</ele>
        <time>2021-11-28T13:34:48Z</time>
      </trkpt>
      <trkpt lat="43.45822" lon="6.5923">
        <ele>51.703495897353</ele>
        <time>2021-11-28T13:34:49Z</time>
      </trkpt>
      <trkpt lat="43.45824" lon="6.5923">
        <ele>51.703324906528</ele>
        <time>2021-11-28T13:34:50Z</time>
      </trkpt>
      <trkpt lat="43.45824" lon="6.5923">
        <ele>52.703242093325</ele>
        <time>2021-11-28T13:34:53Z</time>
      </trkpt>
      <trkpt lat="43.45829" lon="6.59228">
        <ele>52.702835403383</ele>
        <time>2021-11-28T13:34:55Z</time>
      </trkpt>
      <trkpt lat="43.45829" lon="6.59227">
        <ele>51.702752590179</ele>
        <time>2021-11-28T13:34:57Z</time>
      </trkpt>
      <trkpt lat="43.45829" lon="6.59227">
        <ele>51.702716045082</ele>
        <time>2021-11-28T13:34:58Z</time>
      </trkpt>
      <trkpt lat="43.4583" lon="6.59227">
        <ele>51.702673465014</ele>
        <time>2021-11-28T13:34:59Z</time>
      </trkpt>
      <trkpt lat="43.45833" lon="6.59231">
        <ele>50.702573888004</ele>
        <time>2021-11-28T13:35:01Z</time>
      </trkpt>
      <trkpt lat="43.45832" lon="6.59233">
        <ele>51.702763989568</ele>
        <time>2021-11-28T13:35:02Z</time>
      </trkpt>
      <trkpt lat="43.45828" lon="6.59235">
        <ele>51.703180402517</ele>
        <time>2021-11-28T13:35:03Z</time>
      </trkpt>
      <trkpt lat="43.45825" lon="6.59236">
        <ele>52.703404702246</ele>
        <time>2021-11-28T13:35:04Z</time>
      </trkpt>
      <trkpt lat="43.45824" lon="6.59239">
        <ele>51.703623637557</ele>
        <time>2021-11-28T13:35:06Z</time>
      </trkpt>
      <trkpt lat="43.45824" lon="6.5924">
        <ele>51.703647442162</ele>
        <time>2021-11-28T13:35:08Z</time>
      </trkpt>
      <trkpt lat="43.45826" lon="6.5924">
        <ele>51.703565634787</ele>
        <time>2021-11-28T13:35:09Z</time>
      </trkpt>
      <trkpt lat="43.45828" lon="6.59244">
        <ele>52.70351601392</ele>
        <time>2021-11-28T13:35:11Z</time>
      </trkpt>
      <trkpt lat="43.45828" lon="6.59246">
        <ele>53.703606538475</ele>
        <time>2021-11-28T13:35:12Z</time>
      </trkpt>
      <trkpt lat="43.45827" lon="6.59249">
        <ele>54.703783899546</ele>
        <time>2021-11-28T13:35:13Z</time>
      </trkpt>
      <trkpt lat="43.45819" lon="6.59255">
        <ele>54.704635165632</ele>
        <time>2021-11-28T13:35:15Z</time>
      </trkpt>
      <trkpt lat="43.45813" lon="6.59258">
        <ele>54.70527420193</ele>
        <time>2021-11-28T13:35:17Z</time>
      </trkpt>
      <trkpt lat="43.45811" lon="6.5926">
        <ele>53.705504536629</ele>
        <time>2021-11-28T13:35:18Z</time>
      </trkpt>
      <trkpt lat="43.45811" lon="6.5926">
        <ele>53.705519624054</ele>
        <time>2021-11-28T13:35:21Z</time>
      </trkpt>
      <trkpt lat="43.45811" lon="6.59262">
        <ele>52.70561953634</ele>
        <time>2021-11-28T13:35:22Z</time>
      </trkpt>
      <trkpt lat="43.45814" lon="6.59263">
        <ele>50.705435469747</ele>
        <time>2021-11-28T13:35:24Z</time>
      </trkpt>
      <trkpt lat="43.45815" lon="6.59264">
        <ele>49.705363050103</ele>
        <time>2021-11-28T13:35:26Z</time>
      </trkpt>
      <trkpt lat="43.45817" lon="6.59266">
        <ele>48.705286607146</ele>
        <time>2021-11-28T13:35:27Z</time>
      </trkpt>
      <trkpt lat="43.45819" lon="6.59268">
        <ele>47.70523866266</ele>
        <time>2021-11-28T13:35:28Z</time>
      </trkpt>
      <trkpt lat="43.45822" lon="6.59272">
        <ele>45.705099858344</ele>
        <time>2021-11-28T13:35:30Z</time>
      </trkpt>
      <trkpt lat="43.45823" lon="6.59275">
        <ele>44.705176971853</ele>
        <time>2021-11-28T13:35:32Z</time>
      </trkpt>
      <trkpt lat="43.45824" lon="6.59278">
        <ele>43.705207146704</ele>
        <time>2021-11-28T13:35:33Z</time>
      </trkpt>
      <trkpt lat="43.45825" lon="6.59279">
        <ele>43.705157525837</ele>
        <time>2021-11-28T13:35:34Z</time>
      </trkpt>
      <trkpt lat="43.45825" lon="6.5928">
        <ele>44.705217540264</ele>
        <time>2021-11-28T13:35:36Z</time>
      </trkpt>
      <trkpt lat="43.45825" lon="6.59281">
        <ele>44.705248720944</ele>
        <time>2021-11-28T13:35:37Z</time>
      </trkpt>
      <trkpt lat="43.45826" lon="6.59281">
        <ele>44.705175295472</ele>
        <time>2021-11-28T13:35:38Z</time>
      </trkpt>
      <trkpt lat="43.45828" lon="6.59279">
        <ele>44.704945631325</ele>
        <time>2021-11-28T13:35:40Z</time>
      </trkpt>
      <trkpt lat="43.45829" lon="6.59279">
        <ele>45.704838007689</ele>
        <time>2021-11-28T13:35:41Z</time>
      </trkpt>
      <trkpt lat="43.4583" lon="6.59278">
        <ele>45.704730384052</ele>
        <time>2021-11-28T13:35:42Z</time>
      </trkpt>
      <trkpt lat="43.45831" lon="6.59277">
        <ele>46.704640194774</ele>
        <time>2021-11-28T13:35:43Z</time>
      </trkpt>
      <trkpt lat="43.45834" lon="6.59277">
        <ele>48.70437733829</ele>
        <time>2021-11-28T13:35:45Z</time>
      </trkpt>
      <trkpt lat="43.45834" lon="6.59277">
        <ele>47.704383708537</ele>
        <time>2021-11-28T13:35:46Z</time>
      </trkpt>
      <trkpt lat="43.45834" lon="6.59276">
        <ele>47.704310283065</ele>
        <time>2021-11-28T13:35:47Z</time>
      </trkpt>
      <trkpt lat="43.45834" lon="6.59275">
        <ele>47.704273737967</ele>
        <time>2021-11-28T13:35:49Z</time>
      </trkpt>
      <trkpt lat="43.45836" lon="6.59275">
        <ele>48.704131580889</ele>
        <time>2021-11-28T13:35:51Z</time>
      </trkpt>
      <trkpt lat="43.45837" lon="6.59274">
        <ele>47.704011552036</ele>
        <time>2021-11-28T13:35:52Z</time>
      </trkpt>
      <trkpt lat="43.45838" lon="6.59274">
        <ele>48.70392203331</ele>
        <time>2021-11-28T13:35:53Z</time>
      </trkpt>
      <trkpt lat="43.45839" lon="6.59274">
        <ele>49.703845590353</ele>
        <time>2021-11-28T13:35:55Z</time>
      </trkpt>
      <trkpt lat="43.45837" lon="6.59273">
        <ele>50.703977689147</ele>
        <time>2021-11-28T13:35:56Z</time>
      </trkpt>
      <trkpt lat="43.45837" lon="6.59273">
        <ele>49.703968636692</ele>
        <time>2021-11-28T13:36:00Z</time>
      </trkpt>
      <trkpt lat="43.45839" lon="6.59272">
        <ele>49.703802004457</ele>
        <time>2021-11-28T13:36:02Z</time>
      </trkpt>
      <trkpt lat="43.4584" lon="6.59271">
        <ele>49.703688681126</ele>
        <time>2021-11-28T13:36:03Z</time>
      </trkpt>
      <trkpt lat="43.45839" lon="6.59272">
        <ele>49.703747019172</ele>
        <time>2021-11-28T13:36:08Z</time>
      </trkpt>
      <trkpt lat="43.45839" lon="6.59273">
        <ele>48.703763112426</ele>
        <time>2021-11-28T13:36:10Z</time>
      </trkpt>
      <trkpt lat="43.45839" lon="6.59273">
        <ele>48.703781217337</ele>
        <time>2021-11-28T13:36:14Z</time>
      </trkpt>
      <trkpt lat="43.4584" lon="6.59271">
        <ele>48.703675270081</ele>
        <time>2021-11-28T13:36:16Z</time>
      </trkpt>
      <trkpt lat="43.4584" lon="6.5927">
        <ele>49.703620955348</ele>
        <time>2021-11-28T13:36:17Z</time>
      </trkpt>
      <trkpt lat="43.4584" lon="6.59269">
        <ele>49.703566975892</ele>
        <time>2021-11-28T13:36:18Z</time>
      </trkpt>
      <trkpt lat="43.45841" lon="6.59268">
        <ele>49.7034727633</ele>
        <time>2021-11-28T13:36:20Z</time>
      </trkpt>
      <trkpt lat="43.45841" lon="6.59267">
        <ele>50.703406713903</ele>
        <time>2021-11-28T13:36:22Z</time>
      </trkpt>
      <trkpt lat="43.45842" lon="6.59266">
        <ele>49.703301437199</ele>
        <time>2021-11-28T13:36:23Z</time>
      </trkpt>
      <trkpt lat="43.45842" lon="6.59265">
        <ele>49.703278638422</ele>
        <time>2021-11-28T13:36:24Z</time>
      </trkpt>
      <trkpt lat="43.45842" lon="6.59264">
        <ele>48.703229017556</ele>
        <time>2021-11-28T13:36:26Z</time>
      </trkpt>
      <trkpt lat="43.45842" lon="6.59264">
        <ele>48.703179061413</ele>
        <time>2021-11-28T13:36:27Z</time>
      </trkpt>
      <trkpt lat="43.45843" lon="6.59264">
        <ele>49.703104965389</ele>
        <time>2021-11-28T13:36:28Z</time>
      </trkpt>
      <trkpt lat="43.45844" lon="6.59263">
        <ele>48.703025504947</ele>
        <time>2021-11-28T13:36:30Z</time>
      </trkpt>
      <trkpt lat="43.45844" lon="6.59263">
        <ele>48.702986612916</ele>
        <time>2021-11-28T13:36:33Z</time>
      </trkpt>
      <trkpt lat="43.45846" lon="6.59261">
        <ele>48.702763319016</ele>
        <time>2021-11-28T13:36:35Z</time>
      </trkpt>
      <trkpt lat="43.45847" lon="6.59259">
        <ele>49.702610433102</ele>
        <time>2021-11-28T13:36:36Z</time>
      </trkpt>
      <trkpt lat="43.45848" lon="6.59258">
        <ele>49.702477999032</ele>
        <time>2021-11-28T13:36:37Z</time>
      </trkpt>
      <trkpt lat="43.45848" lon="6.59256">
        <ele>49.702399879694</ele>
        <time>2021-11-28T13:36:39Z</time>
      </trkpt>
      <trkpt lat="43.45848" lon="6.59256">
        <ele>50.702398203313</ele>
        <time>2021-11-28T13:36:41Z</time>
      </trkpt>
      <trkpt lat="43.45848" lon="6.59255">
        <ele>50.702343553305</ele>
        <time>2021-11-28T13:36:42Z</time>
      </trkpt>
      <trkpt lat="43.45849" lon="6.59254">
        <ele>51.702281527221</ele>
        <time>2021-11-28T13:36:43Z</time>
      </trkpt>
      <trkpt lat="43.4585" lon="6.59253">
        <ele>53.702113218606</ele>
        <time>2021-11-28T13:36:45Z</time>
      </trkpt>
      <trkpt lat="43.4585" lon="6.59251">
        <ele>53.702063597739</ele>
        <time>2021-11-28T13:36:46Z</time>
      </trkpt>
      <trkpt lat="43.4585" lon="6.59251">
        <ele>54.702022694051</ele>
        <time>2021-11-28T13:36:47Z</time>
      </trkpt>
      <trkpt lat="43.4585" lon="6.5925">
        <ele>53.70198648423</ele>
        <time>2021-11-28T13:36:48Z</time>
      </trkpt>
      <trkpt lat="43.4585" lon="6.59249">
        <ele>53.701959662139</ele>
        <time>2021-11-28T13:36:50Z</time>
      </trkpt>
      <trkpt lat="43.45849" lon="6.59248">
        <ele>52.701977096498</ele>
        <time>2021-11-28T13:36:52Z</time>
      </trkpt>
      <trkpt lat="43.4585" lon="6.59247">
        <ele>52.701876848936</ele>
        <time>2021-11-28T13:36:53Z</time>
      </trkpt>
      <trkpt lat="43.45851" lon="6.59246">
        <ele>52.7017172575</ele>
        <time>2021-11-28T13:36:54Z</time>
      </trkpt>
      <trkpt lat="43.45853" lon="6.59244">
        <ele>52.70155967772</ele>
        <time>2021-11-28T13:36:55Z</time>
      </trkpt>
      <trkpt lat="43.45853" lon="6.59244">
        <ele>51.701490275562</ele>
        <time>2021-11-28T13:36:56Z</time>
      </trkpt>
      <trkpt lat="43.45854" lon="6.59243">
        <ele>52.701445348561</ele>
        <time>2021-11-28T13:37:01Z</time>
      </trkpt>
      <trkpt lat="43.45852" lon="6.59243">
        <ele>51.701593540609</ele>
        <time>2021-11-28T13:37:02Z</time>
      </trkpt>
      <trkpt lat="43.45852" lon="6.59244">
        <ele>51.701639473438</ele>
        <time>2021-11-28T13:37:03Z</time>
      </trkpt>
      <trkpt lat="43.45851" lon="6.59244">
        <ele>51.701684065163</ele>
        <time>2021-11-28T13:37:04Z</time>
      </trkpt>
      <trkpt lat="43.4585" lon="6.59244">
        <ele>50.701790347695</ele>
        <time>2021-11-28T13:37:05Z</time>
      </trkpt>
      <trkpt lat="43.45848" lon="6.59244">
        <ele>49.701940216124</ele>
        <time>2021-11-28T13:37:07Z</time>
      </trkpt>
      <trkpt lat="43.45848" lon="6.59243">
        <ele>50.701925463974</ele>
        <time>2021-11-28T13:37:09Z</time>
      </trkpt>
      <trkpt lat="43.45848" lon="6.59242">
        <ele>49.701825216413</ele>
        <time>2021-11-28T13:37:11Z</time>
      </trkpt>
      <trkpt lat="43.45849" lon="6.59241">
        <ele>50.701719269156</ele>
        <time>2021-11-28T13:37:12Z</time>
      </trkpt>
      <trkpt lat="43.4585" lon="6.59241">
        <ele>49.701643161476</ele>
        <time>2021-11-28T13:37:13Z</time>
      </trkpt>
      <trkpt lat="43.45854" lon="6.59239">
        <ele>49.701203949749</ele>
        <time>2021-11-28T13:37:15Z</time>
      </trkpt>
      <trkpt lat="43.4586" lon="6.59235">
        <ele>49.700636997819</ele>
        <time>2021-11-28T13:37:17Z</time>
      </trkpt>
      <trkpt lat="43.45861" lon="6.59233">
        <ele>49.700420409441</ele>
        <time>2021-11-28T13:37:18Z</time>
      </trkpt>
      <trkpt lat="43.45863" lon="6.59232">
        <ele>49.700268864632</ele>
        <time>2021-11-28T13:37:19Z</time>
      </trkpt>
      <trkpt lat="43.45865" lon="6.59227">
        <ele>49.699854128063</ele>
        <time>2021-11-28T13:37:21Z</time>
      </trkpt>
      <trkpt lat="43.45867" lon="6.59223">
        <ele>49.699555061758</ele>
        <time>2021-11-28T13:37:22Z</time>
      </trkpt>
      <trkpt lat="43.45869" lon="6.59221">
        <ele>49.699339479208</ele>
        <time>2021-11-28T13:37:23Z</time>
      </trkpt>
      <trkpt lat="43.45872" lon="6.59217">
        <ele>50.698950558901</ele>
        <time>2021-11-28T13:37:25Z</time>
      </trkpt>
      <trkpt lat="43.4587" lon="6.59216">
        <ele>49.699045442045</ele>
        <time>2021-11-28T13:37:27Z</time>
      </trkpt>
      <trkpt lat="43.45869" lon="6.59218">
        <ele>49.699153065681</ele>
        <time>2021-11-28T13:37:28Z</time>
      </trkpt>
      <trkpt lat="43.45869" lon="6.59218">
        <ele>49.699181564152</ele>
        <time>2021-11-28T13:37:29Z</time>
      </trkpt>
      <trkpt lat="43.45869" lon="6.59221">
        <ele>49.699312321842</ele>
        <time>2021-11-28T13:37:31Z</time>
      </trkpt>
      <trkpt lat="43.45863" lon="6.59222">
        <ele>49.699833340943</ele>
        <time>2021-11-28T13:37:32Z</time>
      </trkpt>
      <trkpt lat="43.45862" lon="6.59223">
        <ele>49.699960410595</ele>
        <time>2021-11-28T13:37:33Z</time>
      </trkpt>
      <trkpt lat="43.45862" lon="6.59225">
        <ele>49.700038194656</ele>
        <time>2021-11-28T13:37:35Z</time>
      </trkpt>
      <trkpt lat="43.45863" lon="6.59226">
        <ele>49.700025454164</ele>
        <time>2021-11-28T13:37:36Z</time>
      </trkpt>
      <trkpt lat="43.45864" lon="6.59227">
        <ele>49.699991255999</ele>
        <time>2021-11-28T13:37:37Z</time>
      </trkpt>
      <trkpt lat="43.45864" lon="6.59228">
        <ele>50.699984550476</ele>
        <time>2021-11-28T13:37:38Z</time>
      </trkpt>
      <trkpt lat="43.45866" lon="6.59232">
        <ele>50.700000308454</ele>
        <time>2021-11-28T13:37:40Z</time>
      </trkpt>
      <trkpt lat="43.45866" lon="6.59236">
        <ele>50.700181692839</ele>
        <time>2021-11-28T13:37:42Z</time>
      </trkpt>
      <trkpt lat="43.45865" lon="6.59239">
        <ele>50.700329214334</ele>
        <time>2021-11-28T13:37:43Z</time>
      </trkpt>
      <trkpt lat="43.45864" lon="6.5924">
        <ele>50.700501546264</ele>
        <time>2021-11-28T13:37:44Z</time>
      </trkpt>
      <trkpt lat="43.45863" lon="6.59237">
        <ele>49.700462989509</ele>
        <time>2021-11-28T13:37:46Z</time>
      </trkpt>
      <trkpt lat="43.45862" lon="6.59238">
        <ele>49.700580000877</ele>
        <time>2021-11-28T13:37:47Z</time>
      </trkpt>
      <trkpt lat="43.45862" lon="6.59237">
        <ele>49.700540773571</ele>
        <time>2021-11-28T13:37:48Z</time>
      </trkpt>
      <trkpt lat="43.45862" lon="6.59237">
        <ele>51.700498864055</ele>
        <time>2021-11-28T13:37:53Z</time>
      </trkpt>
      <trkpt lat="43.45863" lon="6.59236">
        <ele>51.70044991374</ele>
        <time>2021-11-28T13:37:54Z</time>
      </trkpt>
      <trkpt lat="43.45864" lon="6.59236">
        <ele>51.700365424156</ele>
        <time>2021-11-28T13:37:56Z</time>
      </trkpt>
      <trkpt lat="43.45864" lon="6.59236">
        <ele>52.700287304819</ele>
        <time>2021-11-28T13:37:57Z</time>
      </trkpt>
      <trkpt lat="43.45864" lon="6.59235">
        <ele>52.70026383549</ele>
        <time>2021-11-28T13:37:58Z</time>
      </trkpt>
      <trkpt lat="43.45863" lon="6.59234">
        <ele>51.700281940401</ele>
        <time>2021-11-28T13:38:00Z</time>
      </trkpt>
      <trkpt lat="43.45863" lon="6.59233">
        <ele>52.700299710035</ele>
        <time>2021-11-28T13:38:01Z</time>
      </trkpt>
      <trkpt lat="43.45862" lon="6.59233">
        <ele>52.70032351464</ele>
        <time>2021-11-28T13:38:05Z</time>
      </trkpt>
      <trkpt lat="43.4586" lon="6.59234">
        <ele>53.700594417751</ele>
        <time>2021-11-28T13:38:06Z</time>
      </trkpt>
      <trkpt lat="43.45859" lon="6.59236">
        <ele>54.700724504888</ele>
        <time>2021-11-28T13:38:07Z</time>
      </trkpt>
      <trkpt lat="43.4586" lon="6.59236">
        <ele>54.700664490461</ele>
        <time>2021-11-28T13:38:08Z</time>
      </trkpt>
      <trkpt lat="43.45859" lon="6.59235">
        <ele>55.70068795979</ele>
        <time>2021-11-28T13:38:11Z</time>
      </trkpt>
      <trkpt lat="43.45858" lon="6.59235">
        <ele>55.700765743852</ele>
        <time>2021-11-28T13:38:12Z</time>
      </trkpt>
      <trkpt lat="43.45857" lon="6.59236">
        <ele>55.700860962272</ele>
        <time>2021-11-28T13:38:13Z</time>
      </trkpt>
      <trkpt lat="43.45856" lon="6.59236">
        <ele>54.700960204005</ele>
        <time>2021-11-28T13:38:14Z</time>
      </trkpt>
      <trkpt lat="43.45854" lon="6.59237">
        <ele>54.701135888696</ele>
        <time>2021-11-28T13:38:15Z</time>
      </trkpt>
      <trkpt lat="43.45854" lon="6.59238">
        <ele>54.701215013862</ele>
        <time>2021-11-28T13:38:16Z</time>
      </trkpt>
      <trkpt lat="43.45854" lon="6.59239">
        <ele>54.701200261712</ele>
        <time>2021-11-28T13:38:18Z</time>
      </trkpt>
      <trkpt lat="43.45854" lon="6.59239">
        <ele>54.701240494847</ele>
        <time>2021-11-28T13:38:20Z</time>
      </trkpt>
      <trkpt lat="43.45854" lon="6.5924">
        <ele>54.701269999146</ele>
        <time>2021-11-28T13:38:24Z</time>
      </trkpt>
      <trkpt lat="43.45856" lon="6.59242">
        <ele>55.701179809868</ele>
        <time>2021-11-28T13:38:26Z</time>
      </trkpt>
      <trkpt lat="43.45856" lon="6.59242">
        <ele>56.701200596988</ele>
        <time>2021-11-28T13:38:32Z</time>
      </trkpt>
      <trkpt lat="43.45857" lon="6.59242">
        <ele>57.701170086861</ele>
        <time>2021-11-28T13:38:33Z</time>
      </trkpt>
      <trkpt lat="43.45857" lon="6.59243">
        <ele>58.701133206487</ele>
        <time>2021-11-28T13:38:38Z</time>
      </trkpt>
      <trkpt lat="43.45857" lon="6.59244">
        <ele>58.701199926436</ele>
        <time>2021-11-28T13:38:40Z</time>
      </trkpt>
      <trkpt lat="43.45856" lon="6.59245">
        <ele>57.701301850379</ele>
        <time>2021-11-28T13:38:42Z</time>
      </trkpt>
      <trkpt lat="43.45856" lon="6.59244">
        <ele>58.701242171228</ele>
        <time>2021-11-28T13:38:46Z</time>
      </trkpt>
      <trkpt lat="43.45858" lon="6.59243">
        <ele>58.701097667217</ele>
        <time>2021-11-28T13:38:47Z</time>
      </trkpt>
      <trkpt lat="43.45858" lon="6.59242">
        <ele>58.701096661389</ele>
        <time>2021-11-28T13:38:52Z</time>
      </trkpt>
      <trkpt lat="43.45859" lon="6.59243">
        <ele>59.701028265059</ele>
        <time>2021-11-28T13:38:53Z</time>
      </trkpt>
      <trkpt lat="43.45858" lon="6.59243">
        <ele>59.70102994144</ele>
        <time>2021-11-28T13:38:54Z</time>
      </trkpt>
      <trkpt lat="43.45858" lon="6.59244">
        <ele>59.701139912009</ele>
        <time>2021-11-28T13:38:56Z</time>
      </trkpt>
      <trkpt lat="43.45858" lon="6.59244">
        <ele>60.701101355255</ele>
        <time>2021-11-28T13:38:58Z</time>
      </trkpt>
      <trkpt lat="43.45858" lon="6.59242">
        <ele>60.701033294201</ele>
        <time>2021-11-28T13:39:00Z</time>
      </trkpt>
      <trkpt lat="43.45857" lon="6.5924">
        <ele>61.701014854014</ele>
        <time>2021-11-28T13:39:02Z</time>
      </trkpt>
      <trkpt lat="43.45856" lon="6.59239">
        <ele>62.701055087149</ele>
        <time>2021-11-28T13:39:03Z</time>
      </trkpt>
      <trkpt lat="43.45857" lon="6.59238">
        <ele>61.700979650021</ele>
        <time>2021-11-28T13:39:07Z</time>
      </trkpt>
      <trkpt lat="43.45857" lon="6.59238">
        <ele>62.700975961983</ele>
        <time>2021-11-28T13:39:08Z</time>
      </trkpt>
      <trkpt lat="43.45858" lon="6.59237">
        <ele>62.700871020555</ele>
        <time>2021-11-28T13:39:09Z</time>
      </trkpt>
      <trkpt lat="43.45858" lon="6.59236">
        <ele>63.700828440487</ele>
        <time>2021-11-28T13:39:10Z</time>
      </trkpt>
      <trkpt lat="43.45857" lon="6.59236">
        <ele>63.700897842646</ele>
        <time>2021-11-28T13:39:11Z</time>
      </trkpt>
      <trkpt lat="43.45856" lon="6.59235">
        <ele>63.70088879019</ele>
        <time>2021-11-28T13:39:12Z</time>
      </trkpt>
      <trkpt lat="43.45858" lon="6.59233">
        <ele>64.700690641999</ele>
        <time>2021-11-28T13:39:13Z</time>
      </trkpt>
      <trkpt lat="43.45857" lon="6.59232">
        <ele>64.700689300895</ele>
        <time>2021-11-28T13:39:14Z</time>
      </trkpt>
      <trkpt lat="43.45857" lon="6.59231">
        <ele>63.700711093843</ele>
        <time>2021-11-28T13:39:15Z</time>
      </trkpt>
      <trkpt lat="43.45856" lon="6.59231">
        <ele>62.700750991702</ele>
        <time>2021-11-28T13:39:17Z</time>
      </trkpt>
      <trkpt lat="43.45856" lon="6.59228">
        <ele>62.700612857938</ele>
        <time>2021-11-28T13:39:19Z</time>
      </trkpt>
      <trkpt lat="43.45857" lon="6.59227">
        <ele>63.700527027249</ele>
        <time>2021-11-28T13:39:20Z</time>
      </trkpt>
      <trkpt lat="43.45857" lon="6.59226">
        <ele>63.700484782457</ele>
        <time>2021-11-28T13:39:21Z</time>
      </trkpt>
      <trkpt lat="43.45857" lon="6.59225">
        <ele>62.700443543494</ele>
        <time>2021-11-28T13:39:23Z</time>
      </trkpt>
      <trkpt lat="43.45856" lon="6.59224">
        <ele>61.700444549322</ele>
        <time>2021-11-28T13:39:24Z</time>
      </trkpt>
      <trkpt lat="43.45856" lon="6.59223">
        <ele>61.700420074165</ele>
        <time>2021-11-28T13:39:26Z</time>
      </trkpt>
      <trkpt lat="43.45856" lon="6.59222">
        <ele>61.700391240418</ele>
        <time>2021-11-28T13:39:28Z</time>
      </trkpt>
      <trkpt lat="43.45855" lon="6.59221">
        <ele>62.700420074165</ele>
        <time>2021-11-28T13:39:30Z</time>
      </trkpt>
      <trkpt lat="43.45855" lon="6.59219">
        <ele>61.700380176306</ele>
        <time>2021-11-28T13:39:32Z</time>
      </trkpt>
      <trkpt lat="43.45855" lon="6.59218">
        <ele>61.700329549611</ele>
        <time>2021-11-28T13:39:33Z</time>
      </trkpt>
      <trkpt lat="43.45855" lon="6.59218">
        <ele>61.700329549611</ele>
        <time>2021-11-28T13:39:34Z</time>
      </trkpt>
      <trkpt lat="43.45855" lon="6.59215">
        <ele>59.700206167996</ele>
        <time>2021-11-28T13:39:36Z</time>
      </trkpt>
      <trkpt lat="43.45854" lon="6.59215">
        <ele>59.700263500214</ele>
        <time>2021-11-28T13:39:37Z</time>
      </trkpt>
      <trkpt lat="43.45854" lon="6.59215">
        <ele>59.700284957886</ele>
        <time>2021-11-28T13:39:40Z</time>
      </trkpt>
      <trkpt lat="43.45853" lon="6.59214">
        <ele>59.700330220163</ele>
        <time>2021-11-28T13:39:42Z</time>
      </trkpt>
      <trkpt lat="43.45853" lon="6.59213">
        <ele>60.700278922915</ele>
        <time>2021-11-28T13:39:43Z</time>
      </trkpt>
      <trkpt lat="43.45853" lon="6.59212">
        <ele>60.700272217393</ele>
        <time>2021-11-28T13:39:44Z</time>
      </trkpt>
      <trkpt lat="43.45852" lon="6.5921">
        <ele>60.700227290392</ele>
        <time>2021-11-28T13:39:46Z</time>
      </trkpt>
      <trkpt lat="43.45852" lon="6.59209">
        <ele>60.700236007571</ele>
        <time>2021-11-28T13:39:47Z</time>
      </trkpt>
      <trkpt lat="43.45852" lon="6.59208">
        <ele>61.700157888234</ele>
        <time>2021-11-28T13:39:56Z</time>
      </trkpt>
      <trkpt lat="43.45852" lon="6.59208">
        <ele>61.70015989989</ele>
        <time>2021-11-28T13:39:57Z</time>
      </trkpt>
      <trkpt lat="43.45853" lon="6.59208">
        <ele>62.700082786381</ele>
        <time>2021-11-28T13:39:58Z</time>
      </trkpt>
      <trkpt lat="43.45853" lon="6.59209">
        <ele>62.700080104172</ele>
        <time>2021-11-28T13:40:00Z</time>
      </trkpt>
      <trkpt lat="43.45855" lon="6.5921">
        <ele>64.699957057834</ele>
        <time>2021-11-28T13:40:02Z</time>
      </trkpt>
      <trkpt lat="43.45856" lon="6.59209">
        <ele>64.699877262115</ele>
        <time>2021-11-28T13:40:06Z</time>
      </trkpt>
      <trkpt lat="43.45856" lon="6.59208">
        <ele>64.699852451682</ele>
        <time>2021-11-28T13:40:08Z</time>
      </trkpt>
      <trkpt lat="43.45856" lon="6.59208">
        <ele>64.699859492481</ele>
        <time>2021-11-28T13:40:09Z</time>
      </trkpt>
      <trkpt lat="43.45856" lon="6.59207">
        <ele>63.699780702591</ele>
        <time>2021-11-28T13:40:12Z</time>
      </trkpt>
      <trkpt lat="43.45856" lon="6.59206">
        <ele>63.699751198292</ele>
        <time>2021-11-28T13:40:13Z</time>
      </trkpt>
      <trkpt lat="43.45858" lon="6.59207">
        <ele>63.699659667909</ele>
        <time>2021-11-28T13:40:15Z</time>
      </trkpt>
      <trkpt lat="43.45858" lon="6.59207">
        <ele>63.699640221894</ele>
        <time>2021-11-28T13:40:16Z</time>
      </trkpt>
      <trkpt lat="43.45859" lon="6.59207">
        <ele>63.699584230781</ele>
        <time>2021-11-28T13:40:17Z</time>
      </trkpt>
      <trkpt lat="43.4586" lon="6.59206">
        <ele>62.69945179671</ele>
        <time>2021-11-28T13:40:18Z</time>
      </trkpt>
      <trkpt lat="43.45861" lon="6.59203">
        <ele>60.699232526124</ele>
        <time>2021-11-28T13:40:19Z</time>
      </trkpt>
      <trkpt lat="43.45862" lon="6.59202">
        <ele>59.699078299105</ele>
        <time>2021-11-28T13:40:20Z</time>
      </trkpt>
      <trkpt lat="43.45863" lon="6.59201">
        <ele>58.699015267193</ele>
        <time>2021-11-28T13:40:21Z</time>
      </trkpt>
      <trkpt lat="43.45864" lon="6.592">
        <ele>58.698898926377</ele>
        <time>2021-11-28T13:40:22Z</time>
      </trkpt>
      <trkpt lat="43.45864" lon="6.59199">
        <ele>58.698877468705</ele>
        <time>2021-11-28T13:40:24Z</time>
      </trkpt>
      <trkpt lat="43.45861" lon="6.59198">
        <ele>57.699013926089</ele>
        <time>2021-11-28T13:40:26Z</time>
      </trkpt>
      <trkpt lat="43.45861" lon="6.59197">
        <ele>57.698976710439</ele>
        <time>2021-11-28T13:40:27Z</time>
      </trkpt>
      <trkpt lat="43.45861" lon="6.59196">
        <ele>56.698985427618</ele>
        <time>2021-11-28T13:40:29Z</time>
      </trkpt>
      <trkpt lat="43.4586" lon="6.59194">
        <ele>55.698971346021</ele>
        <time>2021-11-28T13:40:31Z</time>
      </trkpt>
      <trkpt lat="43.45861" lon="6.59194">
        <ele>55.698897249997</ele>
        <time>2021-11-28T13:40:32Z</time>
      </trkpt>
      <trkpt lat="43.45861" lon="6.59193">
        <ele>55.698803037405</ele>
        <time>2021-11-28T13:40:33Z</time>
      </trkpt>
      <trkpt lat="43.4586" lon="6.5919">
        <ele>55.698779903352</ele>
        <time>2021-11-28T13:40:35Z</time>
      </trkpt>
      <trkpt lat="43.4586" lon="6.59189">
        <ele>55.698795326054</ele>
        <time>2021-11-28T13:40:37Z</time>
      </trkpt>
      <trkpt lat="43.45859" lon="6.59188">
        <ele>54.698788620532</ele>
        <time>2021-11-28T13:40:38Z</time>
      </trkpt>
      <trkpt lat="43.45859" lon="6.59187">
        <ele>55.698761798441</ele>
        <time>2021-11-28T13:40:41Z</time>
      </trkpt>
      <trkpt lat="43.45861" lon="6.59186">
        <ele>55.698548562825</ele>
        <time>2021-11-28T13:40:42Z</time>
      </trkpt>
      <trkpt lat="43.45862" lon="6.59186">
        <ele>55.69846843183</ele>
        <time>2021-11-28T13:40:43Z</time>
      </trkpt>
      <trkpt lat="43.45862" lon="6.59185">
        <ele>56.698443621397</ele>
        <time>2021-11-28T13:40:44Z</time>
      </trkpt>
      <trkpt lat="43.45863" lon="6.59184">
        <ele>55.698300123215</ele>
        <time>2021-11-28T13:40:46Z</time>
      </trkpt>
      <trkpt lat="43.45865" lon="6.59184">
        <ele>56.69814991951</ele>
        <time>2021-11-28T13:40:47Z</time>
      </trkpt>
      <trkpt lat="43.45866" lon="6.59184">
        <ele>57.698030561209</ele>
        <time>2021-11-28T13:40:48Z</time>
      </trkpt>
      <trkpt lat="43.45868" lon="6.59183">
        <ele>58.697896786034</ele>
        <time>2021-11-28T13:40:50Z</time>
      </trkpt>
      <trkpt lat="43.45867" lon="6.59183">
        <ele>58.697924278677</ele>
        <time>2021-11-28T13:40:52Z</time>
      </trkpt>
      <trkpt lat="43.45867" lon="6.59183">
        <ele>58.69795948267</ele>
        <time>2021-11-28T13:40:53Z</time>
      </trkpt>
      <trkpt lat="43.45867" lon="6.59181">
        <ele>57.697915561497</ele>
        <time>2021-11-28T13:40:54Z</time>
      </trkpt>
      <trkpt lat="43.45867" lon="6.59179">
        <ele>58.69782872498</ele>
        <time>2021-11-28T13:40:56Z</time>
      </trkpt>
      <trkpt lat="43.45867" lon="6.59179">
        <ele>58.69782872498</ele>
        <time>2021-11-28T13:40:58Z</time>
      </trkpt>
      <trkpt lat="43.45865" lon="6.59177">
        <ele>57.697863258421</ele>
        <time>2021-11-28T13:41:00Z</time>
      </trkpt>
      <trkpt lat="43.45866" lon="6.59176">
        <ele>57.697743564844</ele>
        <time>2021-11-28T13:41:02Z</time>
      </trkpt>
      <trkpt lat="43.45866" lon="6.59175">
        <ele>57.697736859322</ele>
        <time>2021-11-28T13:41:04Z</time>
      </trkpt>
      <trkpt lat="43.45865" lon="6.59175">
        <ele>57.69780626148</ele>
        <time>2021-11-28T13:41:06Z</time>
      </trkpt>
      <trkpt lat="43.45866" lon="6.59175">
        <ele>57.697718754411</ele>
        <time>2021-11-28T13:41:07Z</time>
      </trkpt>
      <trkpt lat="43.45866" lon="6.59173">
        <ele>57.697643652558</ele>
        <time>2021-11-28T13:41:08Z</time>
      </trkpt>
      <trkpt lat="43.45866" lon="6.59173">
        <ele>56.697639293969</ele>
        <time>2021-11-28T13:41:10Z</time>
      </trkpt>
      <trkpt lat="43.45867" lon="6.59172">
        <ele>56.69754306972</ele>
        <time>2021-11-28T13:41:12Z</time>
      </trkpt>
      <trkpt lat="43.45867" lon="6.59172">
        <ele>56.69754306972</ele>
        <time>2021-11-28T13:41:14Z</time>
      </trkpt>
      <trkpt lat="43.45869" lon="6.59172">
        <ele>57.697384819388</ele>
        <time>2021-11-28T13:41:16Z</time>
      </trkpt>
      <trkpt lat="43.45868" lon="6.59172">
        <ele>55.697450868785</ele>
        <time>2021-11-28T13:41:40Z</time>
      </trkpt>
      <trkpt lat="43.45869" lon="6.59172">
        <ele>53.697416335344</ele>
        <time>2021-11-28T13:41:45Z</time>
      </trkpt>
      <trkpt lat="43.45869" lon="6.59171">
        <ele>52.697355315089</ele>
        <time>2021-11-28T13:41:47Z</time>
      </trkpt>
      <trkpt lat="43.45869" lon="6.59171">
        <ele>52.697331175208</ele>
        <time>2021-11-28T13:42:29Z</time>
      </trkpt>
      <trkpt lat="43.4587" lon="6.59172">
        <ele>50.697287589312</ele>
        <time>2021-11-28T13:43:39Z</time>
      </trkpt>
      <trkpt lat="43.4587" lon="6.59173">
        <ele>51.697305694222</ele>
        <time>2021-11-28T13:43:55Z</time>
      </trkpt>
      <trkpt lat="43.4587" lon="6.59174">
        <ele>52.697352297604</ele>
        <time>2021-11-28T13:44:18Z</time>
      </trkpt>
      <trkpt lat="43.4587" lon="6.59175">
        <ele>53.69736302644</ele>
        <time>2021-11-28T13:44:19Z</time>
      </trkpt>
      <trkpt lat="43.4587" lon="6.59176">
        <ele>55.697411306202</ele>
        <time>2021-11-28T13:44:25Z</time>
      </trkpt>
      <trkpt lat="43.4587" lon="6.59176">
        <ele>55.697476685047</ele>
        <time>2021-11-28T13:44:27Z</time>
      </trkpt>
      <trkpt lat="43.45869" lon="6.59177">
        <ele>54.697521947324</ele>
        <time>2021-11-28T13:44:29Z</time>
      </trkpt>
      <trkpt lat="43.45868" lon="6.59177">
        <ele>55.697641305625</ele>
        <time>2021-11-28T13:44:31Z</time>
      </trkpt>
      <trkpt lat="43.45868" lon="6.59177">
        <ele>55.69769025594</ele>
        <time>2021-11-28T13:44:32Z</time>
      </trkpt>
      <trkpt lat="43.45868" lon="6.59179">
        <ele>55.69772747159</ele>
        <time>2021-11-28T13:44:33Z</time>
      </trkpt>
      <trkpt lat="43.45868" lon="6.5918">
        <ele>55.697781786323</ele>
        <time>2021-11-28T13:44:34Z</time>
      </trkpt>
      <trkpt lat="43.45867" lon="6.59181">
        <ele>55.697851859033</ele>
        <time>2021-11-28T13:44:35Z</time>
      </trkpt>
      <trkpt lat="43.45867" lon="6.59183">
        <ele>55.697972223163</ele>
        <time>2021-11-28T13:44:37Z</time>
      </trkpt>
      <trkpt lat="43.45867" lon="6.59184">
        <ele>55.698034249246</ele>
        <time>2021-11-28T13:44:38Z</time>
      </trkpt>
      <trkpt lat="43.45866" lon="6.59185">
        <ele>55.698116056621</ele>
        <time>2021-11-28T13:44:39Z</time>
      </trkpt>
      <trkpt lat="43.45866" lon="6.59186">
        <ele>56.698165006936</ele>
        <time>2021-11-28T13:44:40Z</time>
      </trkpt>
      <trkpt lat="43.45866" lon="6.59187">
        <ele>55.698202893138</ele>
        <time>2021-11-28T13:44:42Z</time>
      </trkpt>
      <trkpt lat="43.45867" lon="6.59188">
        <ele>55.698179088533</ele>
        <time>2021-11-28T13:44:44Z</time>
      </trkpt>
      <trkpt lat="43.45866" lon="6.59189">
        <ele>54.69826156646</ele>
        <time>2021-11-28T13:44:46Z</time>
      </trkpt>
      <trkpt lat="43.45866" lon="6.59191">
        <ele>55.698321916163</ele>
        <time>2021-11-28T13:44:47Z</time>
      </trkpt>
      <trkpt lat="43.45867" lon="6.59192">
        <ele>55.698362149298</ele>
        <time>2021-11-28T13:44:48Z</time>
      </trkpt>
      <trkpt lat="43.45868" lon="6.59194">
        <ele>55.698287717998</ele>
        <time>2021-11-28T13:44:50Z</time>
      </trkpt>
      <trkpt lat="43.45866" lon="6.59196">
        <ele>56.698579408228</ele>
        <time>2021-11-28T13:44:52Z</time>
      </trkpt>
      <trkpt lat="43.45865" lon="6.59197">
        <ele>56.698672950268</ele>
        <time>2021-11-28T13:44:53Z</time>
      </trkpt>
      <trkpt lat="43.45864" lon="6.59198">
        <ele>57.698759451509</ele>
        <time>2021-11-28T13:44:54Z</time>
      </trkpt>
      <trkpt lat="43.45864" lon="6.59199">
        <ele>57.698841929436</ele>
        <time>2021-11-28T13:44:56Z</time>
      </trkpt>
      <trkpt lat="43.45863" lon="6.592">
        <ele>57.698934465647</ele>
        <time>2021-11-28T13:44:57Z</time>
      </trkpt>
      <trkpt lat="43.45862" lon="6.59201">
        <ele>57.699075616896</ele>
        <time>2021-11-28T13:44:58Z</time>
      </trkpt>
      <trkpt lat="43.4586" lon="6.59201">
        <ele>57.699223473668</ele>
        <time>2021-11-28T13:44:59Z</time>
      </trkpt>
      <trkpt lat="43.45859" lon="6.59201">
        <ele>57.699301593006</ele>
        <time>2021-11-28T13:45:00Z</time>
      </trkpt>
      <trkpt lat="43.45859" lon="6.59202">
        <ele>56.699350208044</ele>
        <time>2021-11-28T13:45:01Z</time>
      </trkpt>
      <trkpt lat="43.4586" lon="6.59203">
        <ele>56.699339143932</ele>
        <time>2021-11-28T13:45:02Z</time>
      </trkpt>
      <trkpt lat="43.4586" lon="6.59204">
        <ele>56.699366301298</ele>
        <time>2021-11-28T13:45:03Z</time>
      </trkpt>
      <trkpt lat="43.45861" lon="6.59205">
        <ele>56.699374012649</ele>
        <time>2021-11-28T13:45:04Z</time>
      </trkpt>
      <trkpt lat="43.45861" lon="6.59206">
        <ele>55.699380382895</ele>
        <time>2021-11-28T13:45:05Z</time>
      </trkpt>
      <trkpt lat="43.45861" lon="6.59207">
        <ele>55.699421286583</ele>
        <time>2021-11-28T13:45:07Z</time>
      </trkpt>
      <trkpt lat="43.45861" lon="6.59208">
        <ele>56.699423968792</ele>
        <time>2021-11-28T13:45:08Z</time>
      </trkpt>
      <trkpt lat="43.45862" lon="6.59208">
        <ele>56.699396811426</ele>
        <time>2021-11-28T13:45:09Z</time>
      </trkpt>
      <trkpt lat="43.45863" lon="6.59209">
        <ele>55.69934014976</ele>
        <time>2021-11-28T13:45:11Z</time>
      </trkpt>
      <trkpt lat="43.45863" lon="6.59209">
        <ele>55.699300922453</ele>
        <time>2021-11-28T13:45:13Z</time>
      </trkpt>
      <trkpt lat="43.45864" lon="6.59209">
        <ele>54.699291534722</ele>
        <time>2021-11-28T13:45:15Z</time>
      </trkpt>
      <trkpt lat="43.45866" lon="6.5921">
        <ele>54.699097409844</ele>
        <time>2021-11-28T13:45:17Z</time>
      </trkpt>
      <trkpt lat="43.45869" lon="6.5921">
        <ele>54.698891215026</ele>
        <time>2021-11-28T13:45:18Z</time>
      </trkpt>
      <trkpt lat="43.4587" lon="6.5921">
        <ele>54.698826506734</ele>
        <time>2021-11-28T13:45:19Z</time>
      </trkpt>
      <trkpt lat="43.45869" lon="6.5921">
        <ele>55.69888048619</ele>
        <time>2021-11-28T13:45:28Z</time>
      </trkpt>
      <trkpt lat="43.45868" lon="6.5921">
        <ele>55.698988780379</ele>
        <time>2021-11-28T13:45:29Z</time>
      </trkpt>
      <trkpt lat="43.45867" lon="6.5921">
        <ele>55.699021302164</ele>
        <time>2021-11-28T13:45:32Z</time>
      </trkpt>
      <trkpt lat="43.45869" lon="6.59212">
        <ele>55.698957934976</ele>
        <time>2021-11-28T13:45:33Z</time>
      </trkpt>
      <trkpt lat="43.45869" lon="6.59212">
        <ele>55.698972016573</ele>
        <time>2021-11-28T13:45:34Z</time>
      </trkpt>
      <trkpt lat="43.4587" lon="6.59212">
        <ele>55.698916360736</ele>
        <time>2021-11-28T13:45:35Z</time>
      </trkpt>
      <trkpt lat="43.4587" lon="6.59214">
        <ele>55.698942512274</ele>
        <time>2021-11-28T13:45:36Z</time>
      </trkpt>
      <trkpt lat="43.4587" lon="6.59213">
        <ele>55.698910996318</ele>
        <time>2021-11-28T13:45:40Z</time>
      </trkpt>
      <trkpt lat="43.45872" lon="6.59214">
        <ele>56.698762133718</ele>
        <time>2021-11-28T13:45:42Z</time>
      </trkpt>
      <trkpt lat="43.45871" lon="6.59215">
        <ele>55.69893681258</ele>
        <time>2021-11-28T13:45:43Z</time>
      </trkpt>
      <trkpt lat="43.45872" lon="6.59216">
        <ele>56.698888197541</ele>
        <time>2021-11-28T13:45:44Z</time>
      </trkpt>
      <trkpt lat="43.45869" lon="6.59217">
        <ele>56.699144683778</ele>
        <time>2021-11-28T13:45:46Z</time>
      </trkpt>
      <trkpt lat="43.45867" lon="6.59218">
        <ele>56.699352890253</ele>
        <time>2021-11-28T13:45:47Z</time>
      </trkpt>
      <trkpt lat="43.45866" lon="6.59218">
        <ele>56.699469566345</ele>
        <time>2021-11-28T13:45:48Z</time>
      </trkpt>
      <trkpt lat="43.45864" lon="6.59219">
        <ele>56.699633851647</ele>
        <time>2021-11-28T13:45:50Z</time>
      </trkpt>
      <trkpt lat="43.45863" lon="6.59219">
        <ele>56.69967341423</ele>
        <time>2021-11-28T13:45:51Z</time>
      </trkpt>
      <trkpt lat="43.45861" lon="6.59218">
        <ele>56.699834011495</ele>
        <time>2021-11-28T13:45:52Z</time>
      </trkpt>
      <trkpt lat="43.45863" lon="6.59217">
        <ele>56.699648939073</ele>
        <time>2021-11-28T13:45:53Z</time>
      </trkpt>
      <trkpt lat="43.45869" lon="6.5922">
        <ele>55.699312321842</ele>
        <time>2021-11-28T13:45:55Z</time>
      </trkpt>
      <trkpt lat="43.45871" lon="6.59224">
        <ele>55.69924493134</ele>
        <time>2021-11-28T13:45:57Z</time>
      </trkpt>
      <trkpt lat="43.45876" lon="6.59226">
        <ele>55.698960952461</ele>
        <time>2021-11-28T13:45:58Z</time>
      </trkpt>
      <trkpt lat="43.45876" lon="6.59226">
        <ele>55.698930442333</ele>
        <time>2021-11-28T13:45:59Z</time>
      </trkpt>
      <trkpt lat="43.45879" lon="6.59225">
        <ele>54.698731288314</ele>
        <time>2021-11-28T13:46:00Z</time>
      </trkpt>
      <trkpt lat="43.45878" lon="6.59225">
        <ele>54.698757439852</ele>
        <time>2021-11-28T13:46:02Z</time>
      </trkpt>
      <trkpt lat="43.45879" lon="6.59227">
        <ele>54.698740340769</ele>
        <time>2021-11-28T13:46:03Z</time>
      </trkpt>
      <trkpt lat="43.4588" lon="6.59227">
        <ele>54.698693737388</ele>
        <time>2021-11-28T13:46:04Z</time>
      </trkpt>
      <trkpt lat="43.45882" lon="6.59225">
        <ele>54.6984520033</ele>
        <time>2021-11-28T13:46:05Z</time>
      </trkpt>
      <trkpt lat="43.45878" lon="6.59216">
        <ele>54.698448650539</ele>
        <time>2021-11-28T13:46:07Z</time>
      </trkpt>
      <trkpt lat="43.45877" lon="6.59212">
        <ele>54.69831353426</ele>
        <time>2021-11-28T13:46:08Z</time>
      </trkpt>
      <trkpt lat="43.45876" lon="6.5921">
        <ele>54.698342703283</ele>
        <time>2021-11-28T13:46:09Z</time>
      </trkpt>
      <trkpt lat="43.45876" lon="6.59207">
        <ele>54.698209933937</ele>
        <time>2021-11-28T13:46:10Z</time>
      </trkpt>
      <trkpt lat="43.45879" lon="6.59207">
        <ele>55.697974905372</ele>
        <time>2021-11-28T13:46:11Z</time>
      </trkpt>
      <trkpt lat="43.4588" lon="6.59205">
        <ele>55.697810955346</ele>
        <time>2021-11-28T13:46:12Z</time>
      </trkpt>
      <trkpt lat="43.45882" lon="6.59205">
        <ele>55.69760978967</ele>
        <time>2021-11-28T13:46:13Z</time>
      </trkpt>
      <trkpt lat="43.45883" lon="6.59203">
        <ele>56.697458580136</ele>
        <time>2021-11-28T13:46:15Z</time>
      </trkpt>
      <trkpt lat="43.45884" lon="6.59209">
        <ele>56.697668798268</ele>
        <time>2021-11-28T13:46:22Z</time>
      </trkpt>
      <trkpt lat="43.45874" lon="6.59211">
        <ele>56.698539175093</ele>
        <time>2021-11-28T13:46:23Z</time>
      </trkpt>
      <trkpt lat="43.45867" lon="6.5921">
        <ele>56.699003197253</ele>
        <time>2021-11-28T13:46:24Z</time>
      </trkpt>
      <trkpt lat="43.45877" lon="6.59208">
        <ele>54.698146231472</ele>
        <time>2021-11-28T13:46:26Z</time>
      </trkpt>
      <trkpt lat="43.45877" lon="6.59211">
        <ele>54.698241785169</ele>
        <time>2021-11-28T13:46:27Z</time>
      </trkpt>
      <trkpt lat="43.45877" lon="6.59214">
        <ele>53.698421828449</ele>
        <time>2021-11-28T13:46:28Z</time>
      </trkpt>
      <trkpt lat="43.45878" lon="6.59217">
        <ele>55.698450662196</ele>
        <time>2021-11-28T13:46:30Z</time>
      </trkpt>
      <trkpt lat="43.45879" lon="6.59219">
        <ele>57.69842518121</ele>
        <time>2021-11-28T13:46:31Z</time>
      </trkpt>
      <trkpt lat="43.4588" lon="6.5922">
        <ele>58.698407076299</ele>
        <time>2021-11-28T13:46:32Z</time>
      </trkpt>
      <trkpt lat="43.4588" lon="6.59221">
        <ele>59.698459714651</ele>
        <time>2021-11-28T13:46:33Z</time>
      </trkpt>
      <trkpt lat="43.4588" lon="6.59222">
        <ele>59.698460720479</ele>
        <time>2021-11-28T13:46:35Z</time>
      </trkpt>
      <trkpt lat="43.4588" lon="6.59223">
        <ele>60.698532469571</ele>
        <time>2021-11-28T13:46:37Z</time>
      </trkpt>
      <trkpt lat="43.4588" lon="6.59224">
        <ele>62.698577731848</ele>
        <time>2021-11-28T13:46:38Z</time>
      </trkpt>
      <trkpt lat="43.4588" lon="6.59224">
        <ele>62.698550574481</ele>
        <time>2021-11-28T13:46:39Z</time>
      </trkpt>
      <trkpt lat="43.45881" lon="6.59225">
        <ele>60.69854554534</ele>
        <time>2021-11-28T13:46:42Z</time>
      </trkpt>
      <trkpt lat="43.4588" lon="6.59226">
        <ele>60.698606900871</ele>
        <time>2021-11-28T13:46:43Z</time>
      </trkpt>
      <trkpt lat="43.45879" lon="6.59227">
        <ele>60.698718547821</ele>
        <time>2021-11-28T13:46:44Z</time>
      </trkpt>
      <trkpt lat="43.45879" lon="6.59228">
        <ele>60.698763139546</ele>
        <time>2021-11-28T13:46:45Z</time>
      </trkpt>
      <trkpt lat="43.45879" lon="6.59229">
        <ele>59.698809742928</ele>
        <time>2021-11-28T13:46:47Z</time>
      </trkpt>
      <trkpt lat="43.45879" lon="6.5923">
        <ele>59.698859028518</ele>
        <time>2021-11-28T13:46:48Z</time>
      </trkpt>
      <trkpt lat="43.45879" lon="6.59231">
        <ele>59.698905296624</ele>
        <time>2021-11-28T13:46:49Z</time>
      </trkpt>
      <trkpt lat="43.45879" lon="6.59232">
        <ele>60.698967657983</ele>
        <time>2021-11-28T13:46:52Z</time>
      </trkpt>
      <trkpt lat="43.45879" lon="6.59233">
        <ele>60.698971346021</ele>
        <time>2021-11-28T13:46:53Z</time>
      </trkpt>
      <trkpt lat="43.4588" lon="6.59234">
        <ele>60.699007220566</ele>
        <time>2021-11-28T13:46:54Z</time>
      </trkpt>
      <trkpt lat="43.45878" lon="6.59235">
        <ele>60.699170164764</ele>
        <time>2021-11-28T13:46:56Z</time>
      </trkpt>
      <trkpt lat="43.45879" lon="6.59236">
        <ele>61.699155412614</ele>
        <time>2021-11-28T13:46:58Z</time>
      </trkpt>
      <trkpt lat="43.45878" lon="6.59238">
        <ele>60.699250966311</ele>
        <time>2021-11-28T13:47:00Z</time>
      </trkpt>
      <trkpt lat="43.45878" lon="6.5924">
        <ele>60.699328750372</ele>
        <time>2021-11-28T13:47:02Z</time>
      </trkpt>
      <trkpt lat="43.45878" lon="6.59241">
        <ele>60.699405193329</ele>
        <time>2021-11-28T13:47:03Z</time>
      </trkpt>
      <trkpt lat="43.45878" lon="6.59242">
        <ele>61.69947090745</ele>
        <time>2021-11-28T13:47:09Z</time>
      </trkpt>
      <trkpt lat="43.45878" lon="6.59243">
        <ele>62.699485324323</ele>
        <time>2021-11-28T13:47:10Z</time>
      </trkpt>
      <trkpt lat="43.45877" lon="6.59243">
        <ele>62.699577189982</ele>
        <time>2021-11-28T13:47:11Z</time>
      </trkpt>
      <trkpt lat="43.45876" lon="6.59243">
        <ele>62.699666708708</ele>
        <time>2021-11-28T13:47:12Z</time>
      </trkpt>
      <trkpt lat="43.45876" lon="6.59244">
        <ele>61.699706941843</ele>
        <time>2021-11-28T13:47:13Z</time>
      </trkpt>
      <trkpt lat="43.45874" lon="6.59245">
        <ele>62.699852786958</ele>
        <time>2021-11-28T13:47:14Z</time>
      </trkpt>
      <trkpt lat="43.45874" lon="6.59247">
        <ele>60.699953705072</ele>
        <time>2021-11-28T13:47:15Z</time>
      </trkpt>
      <trkpt lat="43.45874" lon="6.59247">
        <ele>60.699953705072</ele>
        <time>2021-11-28T13:47:17Z</time>
      </trkpt>
      <trkpt lat="43.45872" lon="6.5925">
        <ele>60.700236007571</ele>
        <time>2021-11-28T13:47:18Z</time>
      </trkpt>
      <trkpt lat="43.45871" lon="6.59251">
        <ele>60.700343631208</ele>
        <time>2021-11-28T13:47:19Z</time>
      </trkpt>
      <trkpt lat="43.45871" lon="6.59252">
        <ele>60.700427785516</ele>
        <time>2021-11-28T13:47:20Z</time>
      </trkpt>
      <trkpt lat="43.45871" lon="6.59253">
        <ele>61.700466006994</ele>
        <time>2021-11-28T13:47:23Z</time>
      </trkpt>
      <trkpt lat="43.45869" lon="6.59253">
        <ele>62.700603470206</ele>
        <time>2021-11-28T13:47:24Z</time>
      </trkpt>
      <trkpt lat="43.45869" lon="6.59254">
        <ele>61.700671866536</ele>
        <time>2021-11-28T13:47:26Z</time>
      </trkpt>
      <trkpt lat="43.45868" lon="6.59254">
        <ele>62.700695671141</ele>
        <time>2021-11-28T13:47:28Z</time>
      </trkpt>
      <trkpt lat="43.4587" lon="6.59254">
        <ele>63.700579665601</ele>
        <time>2021-11-28T13:47:30Z</time>
      </trkpt>
      <trkpt lat="43.45871" lon="6.59254">
        <ele>61.700511604548</ele>
        <time>2021-11-28T13:47:32Z</time>
      </trkpt>
      <trkpt lat="43.45871" lon="6.59255">
        <ele>61.700557872653</ele>
        <time>2021-11-28T13:47:33Z</time>
      </trkpt>
      <trkpt lat="43.4587" lon="6.59256">
        <ele>62.700633309782</ele>
        <time>2021-11-28T13:47:53Z</time>
      </trkpt>
      <trkpt lat="43.45871" lon="6.59255">
        <ele>60.700519651175</ele>
        <time>2021-11-28T13:47:54Z</time>
      </trkpt>
      <trkpt lat="43.45871" lon="6.59254">
        <ele>61.700513616204</ele>
        <time>2021-11-28T13:47:57Z</time>
      </trkpt>
      <trkpt lat="43.45871" lon="6.59254">
        <ele>60.700509928167</ele>
        <time>2021-11-28T13:47:59Z</time>
      </trkpt>
      <trkpt lat="43.45871" lon="6.59255">
        <ele>61.700520992279</ele>
        <time>2021-11-28T13:48:01Z</time>
      </trkpt>
      <trkpt lat="43.45872" lon="6.59255">
        <ele>60.700463660061</ele>
        <time>2021-11-28T13:48:03Z</time>
      </trkpt>
      <trkpt lat="43.45872" lon="6.59255">
        <ele>58.700404316187</ele>
        <time>2021-11-28T13:48:05Z</time>
      </trkpt>
      <trkpt lat="43.45873" lon="6.59253">
        <ele>58.700289987028</ele>
        <time>2021-11-28T13:48:07Z</time>
      </trkpt>
      <trkpt lat="43.45873" lon="6.59252">
        <ele>58.700225949287</ele>
        <time>2021-11-28T13:48:08Z</time>
      </trkpt>
      <trkpt lat="43.45873" lon="6.59251">
        <ele>56.700229972601</ele>
        <time>2021-11-28T13:48:09Z</time>
      </trkpt>
      <trkpt lat="43.45872" lon="6.59249">
        <ele>55.700177669525</ele>
        <time>2021-11-28T13:48:11Z</time>
      </trkpt>
      <trkpt lat="43.45873" lon="6.59248">
        <ele>54.700078092515</ele>
        <time>2021-11-28T13:48:12Z</time>
      </trkpt>
      <trkpt lat="43.45874" lon="6.59248">
        <ele>54.699982203543</ele>
        <time>2021-11-28T13:48:13Z</time>
      </trkpt>
      <trkpt lat="43.45875" lon="6.59246">
        <ele>53.699835687876</ele>
        <time>2021-11-28T13:48:14Z</time>
      </trkpt>
      <trkpt lat="43.45875" lon="6.59246">
        <ele>53.699793107808</ele>
        <time>2021-11-28T13:48:15Z</time>
      </trkpt>
      <trkpt lat="43.45875" lon="6.59245">
        <ele>53.699758574367</ele>
        <time>2021-11-28T13:48:16Z</time>
      </trkpt>
      <trkpt lat="43.45876" lon="6.59244">
        <ele>53.699658997357</ele>
        <time>2021-11-28T13:48:17Z</time>
      </trkpt>
      <trkpt lat="43.45877" lon="6.59243">
        <ele>53.699576184154</ele>
        <time>2021-11-28T13:48:18Z</time>
      </trkpt>
      <trkpt lat="43.45878" lon="6.59243">
        <ele>53.69948733598</ele>
        <time>2021-11-28T13:48:19Z</time>
      </trkpt>
      <trkpt lat="43.45878" lon="6.59242">
        <ele>52.699419274926</ele>
        <time>2021-11-28T13:48:20Z</time>
      </trkpt>
      <trkpt lat="43.45879" lon="6.59242">
        <ele>52.69936093688</ele>
        <time>2021-11-28T13:48:21Z</time>
      </trkpt>
      <trkpt lat="43.4588" lon="6.59241">
        <ele>52.699271082878</ele>
        <time>2021-11-28T13:48:22Z</time>
      </trkpt>
      <trkpt lat="43.4588" lon="6.59241">
        <ele>53.699247278273</ele>
        <time>2021-11-28T13:48:23Z</time>
      </trkpt>
      <trkpt lat="43.4588" lon="6.59242">
        <ele>52.699262700975</ele>
        <time>2021-11-28T13:48:27Z</time>
      </trkpt>
      <trkpt lat="43.45881" lon="6.59241">
        <ele>52.699200004339</ele>
        <time>2021-11-28T13:48:28Z</time>
      </trkpt>
      <trkpt lat="43.45881" lon="6.5924">
        <ele>52.69914367795</ele>
        <time>2021-11-28T13:48:29Z</time>
      </trkpt>
      <trkpt lat="43.45882" lon="6.59237">
        <ele>51.698906302452</ele>
        <time>2021-11-28T13:48:31Z</time>
      </trkpt>
      <trkpt lat="43.45883" lon="6.59236">
        <ele>51.698799684644</ele>
        <time>2021-11-28T13:48:32Z</time>
      </trkpt>
      <trkpt lat="43.45884" lon="6.59237">
        <ele>50.698731288314</ele>
        <time>2021-11-28T13:48:33Z</time>
      </trkpt>
      <trkpt lat="43.45884" lon="6.59237">
        <ele>49.698722571135</ele>
        <time>2021-11-28T13:48:35Z</time>
      </trkpt>
      <trkpt lat="43.45885" lon="6.59237">
        <ele>48.698655515909</ele>
        <time>2021-11-28T13:48:37Z</time>
      </trkpt>
      <trkpt lat="43.45885" lon="6.59236">
        <ele>46.69864244014</ele>
        <time>2021-11-28T13:48:41Z</time>
      </trkpt>
      <trkpt lat="43.45885" lon="6.59235">
        <ele>46.698565326631</ele>
        <time>2021-11-28T13:48:42Z</time>
      </trkpt>
      <trkpt lat="43.45886" lon="6.59233">
        <ele>47.698443956673</ele>
        <time>2021-11-28T13:48:43Z</time>
      </trkpt>
      <trkpt lat="43.45886" lon="6.59233">
        <ele>46.698413446546</ele>
        <time>2021-11-28T13:48:45Z</time>
      </trkpt>
      <trkpt lat="43.45886" lon="6.59235">
        <ele>46.698521740735</ele>
        <time>2021-11-28T13:48:46Z</time>
      </trkpt>
      <trkpt lat="43.45886" lon="6.59235">
        <ele>46.698521070182</ele>
        <time>2021-11-28T13:48:47Z</time>
      </trkpt>
      <trkpt lat="43.45886" lon="6.59236">
        <ele>47.698564320803</ele>
        <time>2021-11-28T13:48:48Z</time>
      </trkpt>
      <trkpt lat="43.45887" lon="6.59237">
        <ele>47.698500283062</ele>
        <time>2021-11-28T13:48:50Z</time>
      </trkpt>
      <trkpt lat="43.45888" lon="6.59236">
        <ele>46.698370195925</ele>
        <time>2021-11-28T13:48:52Z</time>
      </trkpt>
      <trkpt lat="43.45889" lon="6.59236">
        <ele>46.698326274753</ele>
        <time>2021-11-28T13:48:53Z</time>
      </trkpt>
      <trkpt lat="43.4589" lon="6.59236">
        <ele>45.698275648057</ele>
        <time>2021-11-28T13:48:55Z</time>
      </trkpt>
      <trkpt lat="43.4589" lon="6.59237">
        <ele>45.698285035789</ele>
        <time>2021-11-28T13:48:57Z</time>
      </trkpt>
      <trkpt lat="43.4589" lon="6.59237">
        <ele>45.698258884251</ele>
        <time>2021-11-28T13:48:58Z</time>
      </trkpt>
      <trkpt lat="43.45891" lon="6.59237">
        <ele>45.698223344982</ele>
        <time>2021-11-28T13:48:59Z</time>
      </trkpt>
      <trkpt lat="43.45892" lon="6.59237">
        <ele>45.698107004166</ele>
        <time>2021-11-28T13:49:00Z</time>
      </trkpt>
      <trkpt lat="43.45894" lon="6.59236">
        <ele>45.697904162109</ele>
        <time>2021-11-28T13:49:01Z</time>
      </trkpt>
      <trkpt lat="43.45897" lon="6.59236">
        <ele>46.697706013918</ele>
        <time>2021-11-28T13:49:02Z</time>
      </trkpt>
      <trkpt lat="43.45899" lon="6.59236">
        <ele>45.697509877384</ele>
        <time>2021-11-28T13:49:03Z</time>
      </trkpt>
      <trkpt lat="43.45901" lon="6.59235">
        <ele>45.697345927358</ele>
        <time>2021-11-28T13:49:04Z</time>
      </trkpt>
      <trkpt lat="43.45904" lon="6.59235">
        <ele>46.697111234069</ele>
        <time>2021-11-28T13:49:06Z</time>
      </trkpt>
      <trkpt lat="43.45905" lon="6.59235">
        <ele>47.697001934052</ele>
        <time>2021-11-28T13:49:07Z</time>
      </trkpt>
      <trkpt lat="43.45906" lon="6.59234">
        <ele>46.696881905198</ele>
        <time>2021-11-28T13:49:08Z</time>
      </trkpt>
      <trkpt lat="43.45907" lon="6.59233">
        <ele>47.696736730635</ele>
        <time>2021-11-28T13:49:09Z</time>
      </trkpt>
      <trkpt lat="43.45909" lon="6.59232">
        <ele>46.696542605758</ele>
        <time>2021-11-28T13:49:11Z</time>
      </trkpt>
      <trkpt lat="43.45911" lon="6.59232">
        <ele>47.696449063718</ele>
        <time>2021-11-28T13:49:12Z</time>
      </trkpt>
      <trkpt lat="43.45912" lon="6.59234">
        <ele>47.69641687721</ele>
        <time>2021-11-28T13:49:13Z</time>
      </trkpt>
      <trkpt lat="43.45912" lon="6.59234">
        <ele>47.696391731501</ele>
        <time>2021-11-28T13:49:14Z</time>
      </trkpt>
      <trkpt lat="43.45912" lon="6.59235">
        <ele>48.696407154202</ele>
        <time>2021-11-28T13:49:18Z</time>
      </trkpt>
      <trkpt lat="43.45913" lon="6.59236">
        <ele>48.696402795613</ele>
        <time>2021-11-28T13:49:19Z</time>
      </trkpt>
      <trkpt lat="43.45914" lon="6.59236">
        <ele>48.696359209716</ele>
        <time>2021-11-28T13:49:20Z</time>
      </trkpt>
      <trkpt lat="43.45914" lon="6.59237">
        <ele>49.696382343769</ele>
        <time>2021-11-28T13:49:24Z</time>
      </trkpt>
      <trkpt lat="43.45915" lon="6.59239">
        <ele>49.696393072605</ele>
        <time>2021-11-28T13:49:25Z</time>
      </trkpt>
      <trkpt lat="43.45915" lon="6.59239">
        <ele>49.696395754814</ele>
        <time>2021-11-28T13:49:26Z</time>
      </trkpt>
      <trkpt lat="43.45915" lon="6.59241">
        <ele>49.696425929666</ele>
        <time>2021-11-28T13:49:27Z</time>
      </trkpt>
      <trkpt lat="43.45915" lon="6.59241">
        <ele>49.696457445621</ele>
        <time>2021-11-28T13:49:28Z</time>
      </trkpt>
      <trkpt lat="43.45914" lon="6.59241">
        <ele>49.696545958519</ele>
        <time>2021-11-28T13:49:29Z</time>
      </trkpt>
      <trkpt lat="43.45913" lon="6.5924">
        <ele>49.69657445699</ele>
        <time>2021-11-28T13:49:30Z</time>
      </trkpt>
      <trkpt lat="43.45913" lon="6.59239">
        <ele>49.69656406343</ele>
        <time>2021-11-28T13:49:31Z</time>
      </trkpt>
      <trkpt lat="43.45911" lon="6.59238">
        <ele>49.696629106998</ele>
        <time>2021-11-28T13:49:32Z</time>
      </trkpt>
      <trkpt lat="43.4591" lon="6.59236">
        <ele>49.696681074798</ele>
        <time>2021-11-28T13:49:33Z</time>
      </trkpt>
      <trkpt lat="43.45909" lon="6.59236">
        <ele>50.696722984314</ele>
        <time>2021-11-28T13:49:34Z</time>
      </trkpt>
      <trkpt lat="43.45908" lon="6.59236">
        <ele>50.696760199964</ele>
        <time>2021-11-28T13:49:35Z</time>
      </trkpt>
      <trkpt lat="43.45908" lon="6.59237">
        <ele>51.69685575366</ele>
        <time>2021-11-28T13:49:36Z</time>
      </trkpt>
      <trkpt lat="43.45907" lon="6.59238">
        <ele>51.696985170245</ele>
        <time>2021-11-28T13:49:37Z</time>
      </trkpt>
      <trkpt lat="43.45906" lon="6.59238">
        <ele>51.697018697858</ele>
        <time>2021-11-28T13:49:38Z</time>
      </trkpt>
      <trkpt lat="43.45906" lon="6.59238">
        <ele>50.697070330381</ele>
        <time>2021-11-28T13:49:39Z</time>
      </trkpt>
      <trkpt lat="43.45905" lon="6.59238">
        <ele>50.697136379778</ele>
        <time>2021-11-28T13:49:40Z</time>
      </trkpt>
      <trkpt lat="43.45904" lon="6.59237">
        <ele>50.697212487459</ele>
        <time>2021-11-28T13:49:42Z</time>
      </trkpt>
      <trkpt lat="43.45902" lon="6.59238">
        <ele>50.697332516313</ele>
        <time>2021-11-28T13:49:43Z</time>
      </trkpt>
      <trkpt lat="43.459" lon="6.59238">
        <ele>49.697526976466</ele>
        <time>2021-11-28T13:49:45Z</time>
      </trkpt>
      <trkpt lat="43.45899" lon="6.59239">
        <ele>49.697655387223</ele>
        <time>2021-11-28T13:49:47Z</time>
      </trkpt>
      <trkpt lat="43.45898" lon="6.59239">
        <ele>49.697746247053</ele>
        <time>2021-11-28T13:49:48Z</time>
      </trkpt>
      <trkpt lat="43.45897" lon="6.59239">
        <ele>48.697788491845</ele>
        <time>2021-11-28T13:49:52Z</time>
      </trkpt>
      <trkpt lat="43.45897" lon="6.59237">
        <ele>48.697747588158</ele>
        <time>2021-11-28T13:49:53Z</time>
      </trkpt>
      <trkpt lat="43.45897" lon="6.59235">
        <ele>48.69769461453</ele>
        <time>2021-11-28T13:49:54Z</time>
      </trkpt>
      <trkpt lat="43.45896" lon="6.59234">
        <ele>48.697662428021</ele>
        <time>2021-11-28T13:49:55Z</time>
      </trkpt>
      <trkpt lat="43.45896" lon="6.59236">
        <ele>48.697806932032</ele>
        <time>2021-11-28T13:49:57Z</time>
      </trkpt>
      <trkpt lat="43.45894" lon="6.59237">
        <ele>48.697973564267</ele>
        <time>2021-11-28T13:49:58Z</time>
      </trkpt>
      <trkpt lat="43.45892" lon="6.59237">
        <ele>48.698095269501</ele>
        <time>2021-11-28T13:49:59Z</time>
      </trkpt>
      <trkpt lat="43.45892" lon="6.59238">
        <ele>48.698165342212</ele>
        <time>2021-11-28T13:50:00Z</time>
      </trkpt>
      <trkpt lat="43.45891" lon="6.59238">
        <ele>49.698232062161</ele>
        <time>2021-11-28T13:50:01Z</time>
      </trkpt>
      <trkpt lat="43.45891" lon="6.59239">
        <ele>49.69830917567</ele>
        <time>2021-11-28T13:50:02Z</time>
      </trkpt>
      <trkpt lat="43.45889" lon="6.59239">
        <ele>50.698459044099</ele>
        <time>2021-11-28T13:50:03Z</time>
      </trkpt>
      <trkpt lat="43.45888" lon="6.59241">
        <ele>50.698608241975</ele>
        <time>2021-11-28T13:50:04Z</time>
      </trkpt>
      <trkpt lat="43.45886" lon="6.59242">
        <ele>50.698776550591</ele>
        <time>2021-11-28T13:50:05Z</time>
      </trkpt>
      <trkpt lat="43.45884" lon="6.59244">
        <ele>51.699031025171</ele>
        <time>2021-11-28T13:50:07Z</time>
      </trkpt>
      <trkpt lat="43.45883" lon="6.59246">
        <ele>51.69921207428</ele>
        <time>2021-11-28T13:50:08Z</time>
      </trkpt>
      <trkpt lat="43.45882" lon="6.59248">
        <ele>52.699371665716</ele>
        <time>2021-11-28T13:50:09Z</time>
      </trkpt>
      <trkpt lat="43.4588" lon="6.59249">
        <ele>51.699510805309</ele>
        <time>2021-11-28T13:50:10Z</time>
      </trkpt>
      <trkpt lat="43.45879" lon="6.5925">
        <ele>52.699674420059</ele>
        <time>2021-11-28T13:50:11Z</time>
      </trkpt>
      <trkpt lat="43.45878" lon="6.59252">
        <ele>53.699884973466</ele>
        <time>2021-11-28T13:50:13Z</time>
      </trkpt>
      <trkpt lat="43.45876" lon="6.59256">
        <ele>54.700114637613</ele>
        <time>2021-11-28T13:50:15Z</time>
      </trkpt>
      <trkpt lat="43.45876" lon="6.59257">
        <ele>54.700212202966</ele>
        <time>2021-11-28T13:50:16Z</time>
      </trkpt>
      <trkpt lat="43.45875" lon="6.59259">
        <ele>55.700325526297</ele>
        <time>2021-11-28T13:50:17Z</time>
      </trkpt>
      <trkpt lat="43.45875" lon="6.5926">
        <ele>55.70035033673</ele>
        <time>2021-11-28T13:50:19Z</time>
      </trkpt>
      <trkpt lat="43.45876" lon="6.59261">
        <ele>56.700414374471</ele>
        <time>2021-11-28T13:50:20Z</time>
      </trkpt>
      <trkpt lat="43.45875" lon="6.59263">
        <ele>57.700488135219</ele>
        <time>2021-11-28T13:50:21Z</time>
      </trkpt>
      <trkpt lat="43.45875" lon="6.59263">
        <ele>56.700548820198</ele>
        <time>2021-11-28T13:50:23Z</time>
      </trkpt>
      <trkpt lat="43.45874" lon="6.59264">
        <ele>56.700618892908</ele>
        <time>2021-11-28T13:50:27Z</time>
      </trkpt>
      <trkpt lat="43.45874" lon="6.59265">
        <ele>56.700699694455</ele>
        <time>2021-11-28T13:50:28Z</time>
      </trkpt>
      <trkpt lat="43.45874" lon="6.59265">
        <ele>56.700706735253</ele>
        <time>2021-11-28T13:50:29Z</time>
      </trkpt>
      <trkpt lat="43.45873" lon="6.59265">
        <ele>56.700766079128</ele>
        <time>2021-11-28T13:50:30Z</time>
      </trkpt>
      <trkpt lat="43.45873" lon="6.59266">
        <ele>56.700812011957</ele>
        <time>2021-11-28T13:50:34Z</time>
      </trkpt>
      <trkpt lat="43.45872" lon="6.59266">
        <ele>56.700853586197</ele>
        <time>2021-11-28T13:50:35Z</time>
      </trkpt>
      <trkpt lat="43.45872" lon="6.59267">
        <ele>56.70089750737</ele>
        <time>2021-11-28T13:50:36Z</time>
      </trkpt>
      <trkpt lat="43.45872" lon="6.59268">
        <ele>56.700949139893</ele>
        <time>2021-11-28T13:50:38Z</time>
      </trkpt>
      <trkpt lat="43.45871" lon="6.59268">
        <ele>56.701016865671</ele>
        <time>2021-11-28T13:50:40Z</time>
      </trkpt>
      <trkpt lat="43.45871" lon="6.59268">
        <ele>57.701050728559</ele>
        <time>2021-11-28T13:50:41Z</time>
      </trkpt>
      <trkpt lat="43.4587" lon="6.59269">
        <ele>57.701127842069</ele>
        <time>2021-11-28T13:50:42Z</time>
      </trkpt>
      <trkpt lat="43.4587" lon="6.59271">
        <ele>58.701255246997</ele>
        <time>2021-11-28T13:50:43Z</time>
      </trkpt>
      <trkpt lat="43.45869" lon="6.59272">
        <ele>58.701362200081</ele>
        <time>2021-11-28T13:50:44Z</time>
      </trkpt>
      <trkpt lat="43.45868" lon="6.59273">
        <ele>58.701452389359</ele>
        <time>2021-11-28T13:50:45Z</time>
      </trkpt>
      <trkpt lat="43.45867" lon="6.59272">
        <ele>58.701510392129</ele>
        <time>2021-11-28T13:50:46Z</time>
      </trkpt>
      <trkpt lat="43.45867" lon="6.59273">
        <ele>58.701588176191</ele>
        <time>2021-11-28T13:50:47Z</time>
      </trkpt>
      <trkpt lat="43.45866" lon="6.59274">
        <ele>57.701646178961</ele>
        <time>2021-11-28T13:50:48Z</time>
      </trkpt>
      <trkpt lat="43.45866" lon="6.59274">
        <ele>56.701673001051</ele>
        <time>2021-11-28T13:50:49Z</time>
      </trkpt>
      <trkpt lat="43.45865" lon="6.59272">
        <ele>57.701721616089</ele>
        <time>2021-11-28T13:50:51Z</time>
      </trkpt>
      <trkpt lat="43.45863" lon="6.59271">
        <ele>57.701786659658</ele>
        <time>2021-11-28T13:50:52Z</time>
      </trkpt>
      <trkpt lat="43.45863" lon="6.59271">
        <ele>58.701783977449</ele>
        <time>2021-11-28T13:50:57Z</time>
      </trkpt>
      <trkpt lat="43.45862" lon="6.5927">
        <ele>58.701834604144</ele>
        <time>2021-11-28T13:50:58Z</time>
      </trkpt>
      <trkpt lat="43.45861" lon="6.5927">
        <ele>59.70189897716</ele>
        <time>2021-11-28T13:50:59Z</time>
      </trkpt>
      <trkpt lat="43.45861" lon="6.59269">
        <ele>59.701893277466</ele>
        <time>2021-11-28T13:51:00Z</time>
      </trkpt>
      <trkpt lat="43.45861" lon="6.59269">
        <ele>58.701906353235</ele>
        <time>2021-11-28T13:51:03Z</time>
      </trkpt>
      <trkpt lat="43.45862" lon="6.5927">
        <ele>58.701886571944</ele>
        <time>2021-11-28T13:51:04Z</time>
      </trkpt>
      <trkpt lat="43.45862" lon="6.59271">
        <ele>58.701893277466</ele>
        <time>2021-11-28T13:51:06Z</time>
      </trkpt>
      <trkpt lat="43.4586" lon="6.59271">
        <ele>57.702032752335</ele>
        <time>2021-11-28T13:51:07Z</time>
      </trkpt>
      <trkpt lat="43.4586" lon="6.59271">
        <ele>57.70208337903</ele>
        <time>2021-11-28T13:51:08Z</time>
      </trkpt>
      <trkpt lat="43.45859" lon="6.59271">
        <ele>57.702149763703</ele>
        <time>2021-11-28T13:51:09Z</time>
      </trkpt>
      <trkpt lat="43.45857" lon="6.59271">
        <ele>58.702233918011</ele>
        <time>2021-11-28T13:51:11Z</time>
      </trkpt>
      <trkpt lat="43.45857" lon="6.5927">
        <ele>59.702255040407</ele>
        <time>2021-11-28T13:51:12Z</time>
      </trkpt>
      <trkpt lat="43.45857" lon="6.5927">
        <ele>59.702243976295</ele>
        <time>2021-11-28T13:51:15Z</time>
      </trkpt>
      <trkpt lat="43.45856" lon="6.59269">
        <ele>59.702265769243</ele>
        <time>2021-11-28T13:51:17Z</time>
      </trkpt>
      <trkpt lat="43.45856" lon="6.5927">
        <ele>60.702340871096</ele>
        <time>2021-11-28T13:51:19Z</time>
      </trkpt>
      <trkpt lat="43.45856" lon="6.5927">
        <ele>60.702345229685</ele>
        <time>2021-11-28T13:51:21Z</time>
      </trkpt>
      <trkpt lat="43.45857" lon="6.59269">
        <ele>60.702252693474</ele>
        <time>2021-11-28T13:51:22Z</time>
      </trkpt>
      <trkpt lat="43.45857" lon="6.59268">
        <ele>58.70217859745</ele>
        <time>2021-11-28T13:51:23Z</time>
      </trkpt>
      <trkpt lat="43.45857" lon="6.59266">
        <ele>57.702067285776</ele>
        <time>2021-11-28T13:51:25Z</time>
      </trkpt>
      <trkpt lat="43.45858" lon="6.59265">
        <ele>58.701959662139</ele>
        <time>2021-11-28T13:51:27Z</time>
      </trkpt>
      <trkpt lat="43.45858" lon="6.59265">
        <ele>58.701959662139</ele>
        <time>2021-11-28T13:51:29Z</time>
      </trkpt>
      <trkpt lat="43.4586" lon="6.59266">
        <ele>56.701821528375</ele>
        <time>2021-11-28T13:51:31Z</time>
      </trkpt>
      <trkpt lat="43.45861" lon="6.59266">
        <ele>56.701768890023</ele>
        <time>2021-11-28T13:51:32Z</time>
      </trkpt>
      <trkpt lat="43.45861" lon="6.59267">
        <ele>56.701773919165</ele>
        <time>2021-11-28T13:51:33Z</time>
      </trkpt>
      <trkpt lat="43.45862" lon="6.59268">
        <ele>56.701748773456</ele>
        <time>2021-11-28T13:51:34Z</time>
      </trkpt>
      <trkpt lat="43.45863" lon="6.59269">
        <ele>56.701727315784</ele>
        <time>2021-11-28T13:51:35Z</time>
      </trkpt>
      <trkpt lat="43.45863" lon="6.5927">
        <ele>57.701742738485</ele>
        <time>2021-11-28T13:51:36Z</time>
      </trkpt>
      <trkpt lat="43.45863" lon="6.59271">
        <ele>56.701809458435</ele>
        <time>2021-11-28T13:51:37Z</time>
      </trkpt>
      <trkpt lat="43.45863" lon="6.59273">
        <ele>57.701910376549</ele>
        <time>2021-11-28T13:51:38Z</time>
      </trkpt>
      <trkpt lat="43.45862" lon="6.59274">
        <ele>57.702010624111</ele>
        <time>2021-11-28T13:51:39Z</time>
      </trkpt>
      <trkpt lat="43.45861" lon="6.59275">
        <ele>57.702105171978</ele>
        <time>2021-11-28T13:51:40Z</time>
      </trkpt>
      <trkpt lat="43.45861" lon="6.59276">
        <ele>58.702203072608</ele>
        <time>2021-11-28T13:51:41Z</time>
      </trkpt>
      <trkpt lat="43.4586" lon="6.59278">
        <ele>57.702299967408</ele>
        <time>2021-11-28T13:51:42Z</time>
      </trkpt>
      <trkpt lat="43.4586" lon="6.59279">
        <ele>57.702361993492</ele>
        <time>2021-11-28T13:51:43Z</time>
      </trkpt>
      <trkpt lat="43.45859" lon="6.59279">
        <ele>57.702439777553</ele>
        <time>2021-11-28T13:51:44Z</time>
      </trkpt>
      <trkpt lat="43.45858" lon="6.59279">
        <ele>56.702516555786</ele>
        <time>2021-11-28T13:51:46Z</time>
      </trkpt>
      <trkpt lat="43.45858" lon="6.5928">
        <ele>56.70256382972</ele>
        <time>2021-11-28T13:51:47Z</time>
      </trkpt>
      <trkpt lat="43.45857" lon="6.5928">
        <ele>57.702637590468</ele>
        <time>2021-11-28T13:51:48Z</time>
      </trkpt>
      <trkpt lat="43.45857" lon="6.5928">
        <ele>58.702669776976</ele>
        <time>2021-11-28T13:51:50Z</time>
      </trkpt>
      <trkpt lat="43.45856" lon="6.5928">
        <ele>58.702719062567</ele>
        <time>2021-11-28T13:51:51Z</time>
      </trkpt>
      <trkpt lat="43.45856" lon="6.59281">
        <ele>58.702782094479</ele>
        <time>2021-11-28T13:51:52Z</time>
      </trkpt>
      <trkpt lat="43.45855" lon="6.5928">
        <ele>60.702782094479</ele>
        <time>2021-11-28T13:51:55Z</time>
      </trkpt>
      <trkpt lat="43.45855" lon="6.5928">
        <ele>60.702817969024</ele>
        <time>2021-11-28T13:51:56Z</time>
      </trkpt>
      <trkpt lat="43.45854" lon="6.59277">
        <ele>60.702800534666</ele>
        <time>2021-11-28T13:51:58Z</time>
      </trkpt>
      <trkpt lat="43.45854" lon="6.59279">
        <ele>60.702831715345</ele>
        <time>2021-11-28T13:51:59Z</time>
      </trkpt>
      <trkpt lat="43.45853" lon="6.59279">
        <ele>60.702907823026</ele>
        <time>2021-11-28T13:52:00Z</time>
      </trkpt>
      <trkpt lat="43.45852" lon="6.59279">
        <ele>60.702980577946</ele>
        <time>2021-11-28T13:52:01Z</time>
      </trkpt>
      <trkpt lat="43.45851" lon="6.5928">
        <ele>61.703132122755</ele>
        <time>2021-11-28T13:52:03Z</time>
      </trkpt>
      <trkpt lat="43.45851" lon="6.59281">
        <ele>61.703173361719</ele>
        <time>2021-11-28T13:52:04Z</time>
      </trkpt>
      <trkpt lat="43.45851" lon="6.59282">
        <ele>62.703242093325</ele>
        <time>2021-11-28T13:52:06Z</time>
      </trkpt>
      <trkpt lat="43.4585" lon="6.59283">
        <ele>62.70329272002</ele>
        <time>2021-11-28T13:52:09Z</time>
      </trkpt>
      <trkpt lat="43.4585" lon="6.59281">
        <ele>63.703271597624</ele>
        <time>2021-11-28T13:52:11Z</time>
      </trkpt>
      <trkpt lat="43.45849" lon="6.59281">
        <ele>63.703306466341</ele>
        <time>2021-11-28T13:52:19Z</time>
      </trkpt>
      <trkpt lat="43.4585" lon="6.59282">
        <ele>61.703314848244</ele>
        <time>2021-11-28T13:52:21Z</time>
      </trkpt>
      <trkpt lat="43.4585" lon="6.59283">
        <ele>61.703322894871</ele>
        <time>2021-11-28T13:52:22Z</time>
      </trkpt>
      <trkpt lat="43.4585" lon="6.59284">
        <ele>62.703351728618</ele>
        <time>2021-11-28T13:52:23Z</time>
      </trkpt>
      <trkpt lat="43.4585" lon="6.59286">
        <ele>62.703397326171</ele>
        <time>2021-11-28T13:52:24Z</time>
      </trkpt>
      <trkpt lat="43.4585" lon="6.59288">
        <ele>62.703502267599</ele>
        <time>2021-11-28T13:52:26Z</time>
      </trkpt>
      <trkpt lat="43.4585" lon="6.59288">
        <ele>63.703568316996</ele>
        <time>2021-11-28T13:52:28Z</time>
      </trkpt>
      <trkpt lat="43.45849" lon="6.59288">
        <ele>63.703595474362</ele>
        <time>2021-11-28T13:52:29Z</time>
      </trkpt>
      <trkpt lat="43.45848" lon="6.59289">
        <ele>63.703686334193</ele>
        <time>2021-11-28T13:52:31Z</time>
      </trkpt>
      <trkpt lat="43.45848" lon="6.59288">
        <ele>63.703670576215</ele>
        <time>2021-11-28T13:52:32Z</time>
      </trkpt>
      <trkpt lat="43.45849" lon="6.59287">
        <ele>63.703593462706</ele>
        <time>2021-11-28T13:52:34Z</time>
      </trkpt>
      <trkpt lat="43.45851" lon="6.59287">
        <ele>62.703419789672</ele>
        <time>2021-11-28T13:52:36Z</time>
      </trkpt>
      <trkpt lat="43.45851" lon="6.59286">
        <ele>63.703333958983</ele>
        <time>2021-11-28T13:52:37Z</time>
      </trkpt>
      <trkpt lat="43.45852" lon="6.59286">
        <ele>63.703279308975</ele>
        <time>2021-11-28T13:52:38Z</time>
      </trkpt>
      <trkpt lat="43.45853" lon="6.59287">
        <ele>63.703258857131</ele>
        <time>2021-11-28T13:52:39Z</time>
      </trkpt>
      <trkpt lat="43.45853" lon="6.59288">
        <ele>64.703238405287</ele>
        <time>2021-11-28T13:52:40Z</time>
      </trkpt>
      <trkpt lat="43.45855" lon="6.59288">
        <ele>63.703174367547</ele>
        <time>2021-11-28T13:52:41Z</time>
      </trkpt>
      <trkpt lat="43.45855" lon="6.59289">
        <ele>62.703115358949</ele>
        <time>2021-11-28T13:52:43Z</time>
      </trkpt>
      <trkpt lat="43.45855" lon="6.59289">
        <ele>62.703130446374</ele>
        <time>2021-11-28T13:52:53Z</time>
      </trkpt>
      <trkpt lat="43.45855" lon="6.5929">
        <ele>61.703233711421</ele>
        <time>2021-11-28T13:52:55Z</time>
      </trkpt>
      <trkpt lat="43.45854" lon="6.5929">
        <ele>59.703296743333</ele>
        <time>2021-11-28T13:52:57Z</time>
      </trkpt>
      <trkpt lat="43.45853" lon="6.5929">
        <ele>59.70336715132</ele>
        <time>2021-11-28T13:52:58Z</time>
      </trkpt>
      <trkpt lat="43.45853" lon="6.5929">
        <ele>57.703330270946</ele>
        <time>2021-11-28T13:53:03Z</time>
      </trkpt>
      <trkpt lat="43.45854" lon="6.59289">
        <ele>57.703278303146</ele>
        <time>2021-11-28T13:53:05Z</time>
      </trkpt>
      <trkpt lat="43.45853" lon="6.59288">
        <ele>57.703274615109</ele>
        <time>2021-11-28T13:53:07Z</time>
      </trkpt>
      <trkpt lat="43.45853" lon="6.59288">
        <ele>56.703267239034</ele>
        <time>2021-11-28T13:53:09Z</time>
      </trkpt>
      <trkpt lat="43.45852" lon="6.59288">
        <ele>55.703354075551</ele>
        <time>2021-11-28T13:53:11Z</time>
      </trkpt>
      <trkpt lat="43.45852" lon="6.59288">
        <ele>55.703354075551</ele>
        <time>2021-11-28T13:53:15Z</time>
      </trkpt>
      <trkpt lat="43.45853" lon="6.59291">
        <ele>56.70340436697</ele>
        <time>2021-11-28T13:53:17Z</time>
      </trkpt>
      <trkpt lat="43.45854" lon="6.59294">
        <ele>56.70338793844</ele>
        <time>2021-11-28T13:53:18Z</time>
      </trkpt>
      <trkpt lat="43.45858" lon="6.59296">
        <ele>56.703208565712</ele>
        <time>2021-11-28T13:53:20Z</time>
      </trkpt>
      <trkpt lat="43.4586" lon="6.59297">
        <ele>56.703070767224</ele>
        <time>2021-11-28T13:53:22Z</time>
      </trkpt>
      <trkpt lat="43.45861" lon="6.59297">
        <ele>56.702997677028</ele>
        <time>2021-11-28T13:53:23Z</time>
      </trkpt>
      <trkpt lat="43.45862" lon="6.59297">
        <ele>56.702965825796</ele>
        <time>2021-11-28T13:53:24Z</time>
      </trkpt>
      <trkpt lat="43.45861" lon="6.59298">
        <ele>56.70302349329</ele>
        <time>2021-11-28T13:53:25Z</time>
      </trkpt>
      <trkpt lat="43.4586" lon="6.59299">
        <ele>55.703118041158</ele>
        <time>2021-11-28T13:53:26Z</time>
      </trkpt>
      <trkpt lat="43.45858" lon="6.59298">
        <ele>55.70326757431</ele>
        <time>2021-11-28T13:53:27Z</time>
      </trkpt>
      <trkpt lat="43.45858" lon="6.59297">
        <ele>55.703282997012</ele>
        <time>2021-11-28T13:53:28Z</time>
      </trkpt>
      <trkpt lat="43.45859" lon="6.59296">
        <ele>55.703127428889</ele>
        <time>2021-11-28T13:53:29Z</time>
      </trkpt>
      <trkpt lat="43.45861" lon="6.59295">
        <ele>55.702889047563</ele>
        <time>2021-11-28T13:53:30Z</time>
      </trkpt>
      <trkpt lat="43.45862" lon="6.59293">
        <ele>56.702754601836</ele>
        <time>2021-11-28T13:53:31Z</time>
      </trkpt>
      <trkpt lat="43.4586" lon="6.59292">
        <ele>55.702917546034</ele>
        <time>2021-11-28T13:53:33Z</time>
      </trkpt>
      <trkpt lat="43.45858" lon="6.59291">
        <ele>56.702971860766</ele>
        <time>2021-11-28T13:53:35Z</time>
      </trkpt>
      <trkpt lat="43.45859" lon="6.59292">
        <ele>55.702933974564</ele>
        <time>2021-11-28T13:53:36Z</time>
      </trkpt>
      <trkpt lat="43.45858" lon="6.59292">
        <ele>55.703004047275</ele>
        <time>2021-11-28T13:53:38Z</time>
      </trkpt>
      <trkpt lat="43.45861" lon="6.5929">
        <ele>55.702701963484</ele>
        <time>2021-11-28T13:53:39Z</time>
      </trkpt>
      <trkpt lat="43.45861" lon="6.59291">
        <ele>55.702750578523</ele>
        <time>2021-11-28T13:53:42Z</time>
      </trkpt>
      <trkpt lat="43.45862" lon="6.5929">
        <ele>55.702649995685</ele>
        <time>2021-11-28T13:53:43Z</time>
      </trkpt>
      <trkpt lat="43.45863" lon="6.59291">
        <ele>56.702578917146</ele>
        <time>2021-11-28T13:53:44Z</time>
      </trkpt>
      <trkpt lat="43.45863" lon="6.59291">
        <ele>56.702580928802</ele>
        <time>2021-11-28T13:53:47Z</time>
      </trkpt>
      <trkpt lat="43.45865" lon="6.59293">
        <ele>56.702567517757</ele>
        <time>2021-11-28T13:53:48Z</time>
      </trkpt>
      <trkpt lat="43.45864" lon="6.59293">
        <ele>56.702625855803</ele>
        <time>2021-11-28T13:53:50Z</time>
      </trkpt>
      <trkpt lat="43.45864" lon="6.59293">
        <ele>57.702591992915</ele>
        <time>2021-11-28T13:53:55Z</time>
      </trkpt>
      <trkpt lat="43.45865" lon="6.59292">
        <ele>57.702530302107</ele>
        <time>2021-11-28T13:53:56Z</time>
      </trkpt>
      <trkpt lat="43.45865" lon="6.59292">
        <ele>54.702502474189</ele>
        <time>2021-11-28T13:54:03Z</time>
      </trkpt>
      <trkpt lat="43.45866" lon="6.59293">
        <ele>53.702475316823</ele>
        <time>2021-11-28T13:54:05Z</time>
      </trkpt>
      <trkpt lat="43.45866" lon="6.59293">
        <ele>54.702439107001</ele>
        <time>2021-11-28T13:54:09Z</time>
      </trkpt>
      <trkpt lat="43.45865" lon="6.59293">
        <ele>54.702536001801</ele>
        <time>2021-11-28T13:54:11Z</time>
      </trkpt>
      <trkpt lat="43.45865" lon="6.59294">
        <ele>54.702607750893</ele>
        <time>2021-11-28T13:54:15Z</time>
      </trkpt>
      <trkpt lat="43.45864" lon="6.59297">
        <ele>54.7027214095</ele>
        <time>2021-11-28T13:54:17Z</time>
      </trkpt>
      <trkpt lat="43.45864" lon="6.59297">
        <ele>54.702774383128</ele>
        <time>2021-11-28T13:54:20Z</time>
      </trkpt>
      <trkpt lat="43.45863" lon="6.59297">
        <ele>55.702828362584</ele>
        <time>2021-11-28T13:54:25Z</time>
      </trkpt>
      <trkpt lat="43.45863" lon="6.59297">
        <ele>56.702854849398</ele>
        <time>2021-11-28T13:54:38Z</time>
      </trkpt>
      <trkpt lat="43.45862" lon="6.59296">
        <ele>55.702911511064</ele>
        <time>2021-11-28T13:54:40Z</time>
      </trkpt>
      <trkpt lat="43.4586" lon="6.59297">
        <ele>55.703058026731</ele>
        <time>2021-11-28T13:54:42Z</time>
      </trkpt>
      <trkpt lat="43.45859" lon="6.59297">
        <ele>57.703124411404</ele>
        <time>2021-11-28T13:54:44Z</time>
      </trkpt>
      <trkpt lat="43.45859" lon="6.59297">
        <ele>57.703151904047</ele>
        <time>2021-11-28T13:54:48Z</time>
      </trkpt>
      <trkpt lat="43.45857" lon="6.59296">
        <ele>56.703306801617</ele>
        <time>2021-11-28T13:54:50Z</time>
      </trkpt>
      <trkpt lat="43.45856" lon="6.59297">
        <ele>56.703380227089</ele>
        <time>2021-11-28T13:54:59Z</time>
      </trkpt>
      <trkpt lat="43.45856" lon="6.59295">
        <ele>55.703330606222</ele>
        <time>2021-11-28T13:55:00Z</time>
      </trkpt>
      <trkpt lat="43.45855" lon="6.59294">
        <ele>55.703367486596</ele>
        <time>2021-11-28T13:55:05Z</time>
      </trkpt>
      <trkpt lat="43.45856" lon="6.59293">
        <ele>55.703289367259</ele>
        <time>2021-11-28T13:55:07Z</time>
      </trkpt>
      <trkpt lat="43.45855" lon="6.59293">
        <ele>54.703351058066</ele>
        <time>2021-11-28T13:55:10Z</time>
      </trkpt>
      <trkpt lat="43.45854" lon="6.59293">
        <ele>54.703364804387</ele>
        <time>2021-11-28T13:55:11Z</time>
      </trkpt>
      <trkpt lat="43.45854" lon="6.59292">
        <ele>54.703374862671</ele>
        <time>2021-11-28T13:55:12Z</time>
      </trkpt>
      <trkpt lat="43.45853" lon="6.59291">
        <ele>54.703400343657</ele>
        <time>2021-11-28T13:55:13Z</time>
      </trkpt>
      <trkpt lat="43.45851" lon="6.5929">
        <ele>55.703491538763</ele>
        <time>2021-11-28T13:55:14Z</time>
      </trkpt>
      <trkpt lat="43.4585" lon="6.5929">
        <ele>55.703608550131</ele>
        <time>2021-11-28T13:55:15Z</time>
      </trkpt>
      <trkpt lat="43.45849" lon="6.5929">
        <ele>55.703723214567</ele>
        <time>2021-11-28T13:55:16Z</time>
      </trkpt>
      <trkpt lat="43.45846" lon="6.5929">
        <ele>55.703885488212</ele>
        <time>2021-11-28T13:55:17Z</time>
      </trkpt>
      <trkpt lat="43.45834" lon="6.59285">
        <ele>45.704641200602</ele>
        <time>2021-11-28T13:55:32Z</time>
      </trkpt>
      <trkpt lat="43.45835" lon="6.59286">
        <ele>43.704662658274</ele>
        <time>2021-11-28T13:55:33Z</time>
      </trkpt>
      <trkpt lat="43.45835" lon="6.59285">
        <ele>43.70456609875</ele>
        <time>2021-11-28T13:55:34Z</time>
      </trkpt>
      <trkpt lat="43.45836" lon="6.59286">
        <ele>43.704554364085</ele>
        <time>2021-11-28T13:55:35Z</time>
      </trkpt>
      <trkpt lat="43.45836" lon="6.59286">
        <ele>44.704537265003</ele>
        <time>2021-11-28T13:55:37Z</time>
      </trkpt>
      <trkpt lat="43.45836" lon="6.59287">
        <ele>44.704589232802</ele>
        <time>2021-11-28T13:55:38Z</time>
      </trkpt>
      <trkpt lat="43.45836" lon="6.59288">
        <ele>44.704615049064</ele>
        <time>2021-11-28T13:55:39Z</time>
      </trkpt>
      <trkpt lat="43.45836" lon="6.59289">
        <ele>44.704644553363</ele>
        <time>2021-11-28T13:55:40Z</time>
      </trkpt>
      <trkpt lat="43.45836" lon="6.59289">
        <ele>45.704660311341</ele>
        <time>2021-11-28T13:55:42Z</time>
      </trkpt>
      <trkpt lat="43.45836" lon="6.5929">
        <ele>46.704735413194</ele>
        <time>2021-11-28T13:55:43Z</time>
      </trkpt>
      <trkpt lat="43.45836" lon="6.59291">
        <ele>47.704722002149</ele>
        <time>2021-11-28T13:55:44Z</time>
      </trkpt>
      <trkpt lat="43.45837" lon="6.5929">
        <ele>46.704654946923</ele>
        <time>2021-11-28T13:55:46Z</time>
      </trkpt>
      <trkpt lat="43.45836" lon="6.59291">
        <ele>45.704740442336</ele>
        <time>2021-11-28T13:55:49Z</time>
      </trkpt>
      <trkpt lat="43.45835" lon="6.59291">
        <ele>46.704811185598</ele>
        <time>2021-11-28T13:55:50Z</time>
      </trkpt>
      <trkpt lat="43.45834" lon="6.59291">
        <ele>45.704886287451</ele>
        <time>2021-11-28T13:55:51Z</time>
      </trkpt>
      <trkpt lat="43.45835" lon="6.5929">
        <ele>47.704804815352</ele>
        <time>2021-11-28T13:55:53Z</time>
      </trkpt>
      <trkpt lat="43.45835" lon="6.5929">
        <ele>48.704760223627</ele>
        <time>2021-11-28T13:55:58Z</time>
      </trkpt>
      <trkpt lat="43.45836" lon="6.5929">
        <ele>48.704681433737</ele>
        <time>2021-11-28T13:55:59Z</time>
      </trkpt>
      <trkpt lat="43.45837" lon="6.59289">
        <ele>49.704608678818</ele>
        <time>2021-11-28T13:56:01Z</time>
      </trkpt>
      <trkpt lat="43.45837" lon="6.5929">
        <ele>51.704644888639</ele>
        <time>2021-11-28T13:56:05Z</time>
      </trkpt>
      <trkpt lat="43.45837" lon="6.59291">
        <ele>51.704674728215</ele>
        <time>2021-11-28T13:56:06Z</time>
      </trkpt>
      <trkpt lat="43.45838" lon="6.59291">
        <ele>53.704615719616</ele>
        <time>2021-11-28T13:56:11Z</time>
      </trkpt>
      <trkpt lat="43.45838" lon="6.59291">
        <ele>53.704572804272</ele>
        <time>2021-11-28T13:56:14Z</time>
      </trkpt>
      <trkpt lat="43.45839" lon="6.5929">
        <ele>53.704501725733</ele>
        <time>2021-11-28T13:56:16Z</time>
      </trkpt>
      <trkpt lat="43.45839" lon="6.59289">
        <ele>54.704458475113</ele>
        <time>2021-11-28T13:56:19Z</time>
      </trkpt>
      <trkpt lat="43.45838" lon="6.59289">
        <ele>54.704536929727</ele>
        <time>2021-11-28T13:56:20Z</time>
      </trkpt>
      <trkpt lat="43.45838" lon="6.59288">
        <ele>55.70446048677</ele>
        <time>2021-11-28T13:56:24Z</time>
      </trkpt>
      <trkpt lat="43.45839" lon="6.59289">
        <ele>56.704440705478</ele>
        <time>2021-11-28T13:56:25Z</time>
      </trkpt>
      <trkpt lat="43.4584" lon="6.59289">
        <ele>57.704366609454</ele>
        <time>2021-11-28T13:56:26Z</time>
      </trkpt>
      <trkpt lat="43.45841" lon="6.59289">
        <ele>57.704310283065</ele>
        <time>2021-11-28T13:56:27Z</time>
      </trkpt>
      <trkpt lat="43.45842" lon="6.59289">
        <ele>58.704248592257</ele>
        <time>2021-11-28T13:56:28Z</time>
      </trkpt>
      <trkpt lat="43.45843" lon="6.5929">
        <ele>59.704169131815</ele>
        <time>2021-11-28T13:56:30Z</time>
      </trkpt>
      <trkpt lat="43.45845" lon="6.5929">
        <ele>59.704027310014</ele>
        <time>2021-11-28T13:56:32Z</time>
      </trkpt>
      <trkpt lat="43.45846" lon="6.5929">
        <ele>59.703963272274</ele>
        <time>2021-11-28T13:56:33Z</time>
      </trkpt>
      <trkpt lat="43.45847" lon="6.5929">
        <ele>59.703890182078</ele>
        <time>2021-11-28T13:56:34Z</time>
      </trkpt>
      <trkpt lat="43.45847" lon="6.59291">
        <ele>59.703848607838</ele>
        <time>2021-11-28T13:56:36Z</time>
      </trkpt>
      <trkpt lat="43.45848" lon="6.5929">
        <ele>59.703778870404</ele>
        <time>2021-11-28T13:56:37Z</time>
      </trkpt>
      <trkpt lat="43.45848" lon="6.59289">
        <ele>59.703739643097</ele>
        <time>2021-11-28T13:56:38Z</time>
      </trkpt>
      <trkpt lat="43.45848" lon="6.59288">
        <ele>59.70366755873</ele>
        <time>2021-11-28T13:56:39Z</time>
      </trkpt>
      <trkpt lat="43.45849" lon="6.59289">
        <ele>59.703658170998</ele>
        <time>2021-11-28T13:56:42Z</time>
      </trkpt>
      <trkpt lat="43.45849" lon="6.59289">
        <ele>59.703656829894</ele>
        <time>2021-11-28T13:56:44Z</time>
      </trkpt>
      <trkpt lat="43.4585" lon="6.59288">
        <ele>59.703510314226</ele>
        <time>2021-11-28T13:56:46Z</time>
      </trkpt>
      <trkpt lat="43.4585" lon="6.59288">
        <ele>60.703557923436</ele>
        <time>2021-11-28T13:56:48Z</time>
      </trkpt>
      <trkpt lat="43.45849" lon="6.59287">
        <ele>60.703573010862</ele>
        <time>2021-11-28T13:56:50Z</time>
      </trkpt>
      <trkpt lat="43.45849" lon="6.59286">
        <ele>61.703536465764</ele>
        <time>2021-11-28T13:56:52Z</time>
      </trkpt>
      <trkpt lat="43.45849" lon="6.59285">
        <ele>61.703453652561</ele>
        <time>2021-11-28T13:56:53Z</time>
      </trkpt>
      <trkpt lat="43.4585" lon="6.59284">
        <ele>61.703396655619</ele>
        <time>2021-11-28T13:56:54Z</time>
      </trkpt>
      <trkpt lat="43.45852" lon="6.59282">
        <ele>62.703156933188</ele>
        <time>2021-11-28T13:56:56Z</time>
      </trkpt>
      <trkpt lat="43.45854" lon="6.59281">
        <ele>62.702953755856</ele>
        <time>2021-11-28T13:56:57Z</time>
      </trkpt>
      <trkpt lat="43.45855" lon="6.5928">
        <ele>62.702764995396</ele>
        <time>2021-11-28T13:56:58Z</time>
      </trkpt>
      <trkpt lat="43.45857" lon="6.59279">
        <ele>62.702598363161</ele>
        <time>2021-11-28T13:56:59Z</time>
      </trkpt>
      <trkpt lat="43.45861" lon="6.59278">
        <ele>63.702284544706</ele>
        <time>2021-11-28T13:57:01Z</time>
      </trkpt>
      <trkpt lat="43.45863" lon="6.59278">
        <ele>63.70208337903</ele>
        <time>2021-11-28T13:57:02Z</time>
      </trkpt>
      <trkpt lat="43.45865" lon="6.59278">
        <ele>63.701896630228</ele>
        <time>2021-11-28T13:57:03Z</time>
      </trkpt>
      <trkpt lat="43.4587" lon="6.59278">
        <ele>64.701573088765</ele>
        <time>2021-11-28T13:57:05Z</time>
      </trkpt>
      <trkpt lat="43.45872" lon="6.59279">
        <ele>64.701408468187</ele>
        <time>2021-11-28T13:57:07Z</time>
      </trkpt>
      <trkpt lat="43.45873" lon="6.5928">
        <ele>64.701387010515</ele>
        <time>2021-11-28T13:57:08Z</time>
      </trkpt>
      <trkpt lat="43.45873" lon="6.59279">
        <ele>65.701336048543</ele>
        <time>2021-11-28T13:57:12Z</time>
      </trkpt>
      <trkpt lat="43.45873" lon="6.59279">
        <ele>65.701263293624</ele>
        <time>2021-11-28T13:57:13Z</time>
      </trkpt>
      <trkpt lat="43.45874" lon="6.59278">
        <ele>66.701237142086</ele>
        <time>2021-11-28T13:57:15Z</time>
      </trkpt>
      <trkpt lat="43.45874" lon="6.5928">
        <ele>66.701276704669</ele>
        <time>2021-11-28T13:57:16Z</time>
      </trkpt>
      <trkpt lat="43.45877" lon="6.59283">
        <ele>67.701152317226</ele>
        <time>2021-11-28T13:57:17Z</time>
      </trkpt>
      <trkpt lat="43.45878" lon="6.59284">
        <ele>67.701179139316</ele>
        <time>2021-11-28T13:57:18Z</time>
      </trkpt>
      <trkpt lat="43.45877" lon="6.59286">
        <ele>67.701254576445</ele>
        <time>2021-11-28T13:57:19Z</time>
      </trkpt>
      <trkpt lat="43.45876" lon="6.59286">
        <ele>67.701372928917</ele>
        <time>2021-11-28T13:57:20Z</time>
      </trkpt>
      <trkpt lat="43.45874" lon="6.59286">
        <ele>68.701542243361</ele>
        <time>2021-11-28T13:57:21Z</time>
      </trkpt>
      <trkpt lat="43.45871" lon="6.59286">
        <ele>69.701784312725</ele>
        <time>2021-11-28T13:57:22Z</time>
      </trkpt>
      <trkpt lat="43.45868" lon="6.59286">
        <ele>69.702001571655</ele>
        <time>2021-11-28T13:57:23Z</time>
      </trkpt>
      <trkpt lat="43.45865" lon="6.59286">
        <ele>70.702229894698</ele>
        <time>2021-11-28T13:57:25Z</time>
      </trkpt>
      <trkpt lat="43.45863" lon="6.59284">
        <ele>70.702351935208</ele>
        <time>2021-11-28T13:57:27Z</time>
      </trkpt>
      <trkpt lat="43.45861" lon="6.59282">
        <ele>70.702393174171</ele>
        <time>2021-11-28T13:57:28Z</time>
      </trkpt>
      <trkpt lat="43.4586" lon="6.59281">
        <ele>70.702413626015</ele>
        <time>2021-11-28T13:57:29Z</time>
      </trkpt>
      <trkpt lat="43.45859" lon="6.59278">
        <ele>70.702382780612</ele>
        <time>2021-11-28T13:57:31Z</time>
      </trkpt>
      <trkpt lat="43.45859" lon="6.59276">
        <ele>70.702266104519</ele>
        <time>2021-11-28T13:57:32Z</time>
      </trkpt>
      <trkpt lat="43.4586" lon="6.59273">
        <ele>70.702149763703</ele>
        <time>2021-11-28T13:57:33Z</time>
      </trkpt>
      <trkpt lat="43.45859" lon="6.5927">
        <ele>71.702088408172</ele>
        <time>2021-11-28T13:57:34Z</time>
      </trkpt>
      <trkpt lat="43.45858" lon="6.59266">
        <ele>71.702011629939</ele>
        <time>2021-11-28T13:57:36Z</time>
      </trkpt>
      <trkpt lat="43.45858" lon="6.59265">
        <ele>72.701962344348</ele>
        <time>2021-11-28T13:57:37Z</time>
      </trkpt>
      <trkpt lat="43.45858" lon="6.59264">
        <ele>72.701929822564</ele>
        <time>2021-11-28T13:57:38Z</time>
      </trkpt>
      <trkpt lat="43.45858" lon="6.59263">
        <ele>72.701894953847</ele>
        <time>2021-11-28T13:57:39Z</time>
      </trkpt>
      <trkpt lat="43.45857" lon="6.59305">
        <ele>73.703659847379</ele>
        <time>2021-11-28T13:57:48Z</time>
      </trkpt>
      <trkpt lat="43.45854" lon="6.59308">
        <ele>72.703994788229</ele>
        <time>2021-11-28T13:57:49Z</time>
      </trkpt>
      <trkpt lat="43.45847" lon="6.59313">
        <ele>71.704719655216</ele>
        <time>2021-11-28T13:57:51Z</time>
      </trkpt>
      <trkpt lat="43.45846" lon="6.59314">
        <ele>72.704828955233</ele>
        <time>2021-11-28T13:57:52Z</time>
      </trkpt>
      <trkpt lat="43.45844" lon="6.59314">
        <ele>72.705027103424</ele>
        <time>2021-11-28T13:57:53Z</time>
      </trkpt>
      <trkpt lat="43.45844" lon="6.59313">
        <ele>71.705030791461</ele>
        <time>2021-11-28T13:57:54Z</time>
      </trkpt>
      <trkpt lat="43.45842" lon="6.59314">
        <ele>71.705176301301</ele>
        <time>2021-11-28T13:57:55Z</time>
      </trkpt>
      <trkpt lat="43.45841" lon="6.59315">
        <ele>70.705340586603</ele>
        <time>2021-11-28T13:57:56Z</time>
      </trkpt>
      <trkpt lat="43.45839" lon="6.59314">
        <ele>69.705404959619</ele>
        <time>2021-11-28T13:57:58Z</time>
      </trkpt>
      <trkpt lat="43.4584" lon="6.59314">
        <ele>69.705406636</ele>
        <time>2021-11-28T13:57:59Z</time>
      </trkpt>
      <trkpt lat="43.45838" lon="6.59316">
        <ele>71.705587685108</ele>
        <time>2021-11-28T13:58:01Z</time>
      </trkpt>
      <trkpt lat="43.45839" lon="6.59317">
        <ele>71.705584667623</ele>
        <time>2021-11-28T13:58:03Z</time>
      </trkpt>
      <trkpt lat="43.45838" lon="6.59318">
        <ele>70.70569832623</ele>
        <time>2021-11-28T13:58:04Z</time>
      </trkpt>
      <trkpt lat="43.45837" lon="6.5932">
        <ele>70.705845847726</ele>
        <time>2021-11-28T13:58:05Z</time>
      </trkpt>
      <trkpt lat="43.45836" lon="6.59321">
        <ele>70.705908209085</ele>
        <time>2021-11-28T13:58:14Z</time>
      </trkpt>
      <trkpt lat="43.45836" lon="6.5932">
        <ele>68.705911561847</ele>
        <time>2021-11-28T13:58:17Z</time>
      </trkpt>
      <trkpt lat="43.45836" lon="6.59319">
        <ele>67.705916590989</ele>
        <time>2021-11-28T13:58:18Z</time>
      </trkpt>
      <trkpt lat="43.45834" lon="6.59319">
        <ele>67.706018179655</ele>
        <time>2021-11-28T13:58:19Z</time>
      </trkpt>
      <trkpt lat="43.45832" lon="6.59318">
        <ele>67.70617441833</ele>
        <time>2021-11-28T13:58:20Z</time>
      </trkpt>
      <trkpt lat="43.45831" lon="6.59317">
        <ele>67.706221356988</ele>
        <time>2021-11-28T13:58:21Z</time>
      </trkpt>
      <trkpt lat="43.4583" lon="6.59316">
        <ele>67.706297799945</ele>
        <time>2021-11-28T13:58:22Z</time>
      </trkpt>
      <trkpt lat="43.45828" lon="6.59316">
        <ele>67.706422522664</ele>
        <time>2021-11-28T13:58:23Z</time>
      </trkpt>
      <trkpt lat="43.45828" lon="6.59317">
        <ele>66.706404753029</ele>
        <time>2021-11-28T13:58:26Z</time>
      </trkpt>
      <trkpt lat="43.45828" lon="6.59318">
        <ele>65.706429563463</ele>
        <time>2021-11-28T13:58:30Z</time>
      </trkpt>
      <trkpt lat="43.45828" lon="6.59317">
        <ele>64.706437274814</ele>
        <time>2021-11-28T13:58:33Z</time>
      </trkpt>
      <trkpt lat="43.45827" lon="6.59317">
        <ele>64.706509694457</ele>
        <time>2021-11-28T13:58:34Z</time>
      </trkpt>
      <trkpt lat="43.45824" lon="6.59317">
        <ele>63.706776574254</ele>
        <time>2021-11-28T13:58:36Z</time>
      </trkpt>
      <trkpt lat="43.45821" lon="6.59318">
        <ele>63.707072287798</ele>
        <time>2021-11-28T13:58:38Z</time>
      </trkpt>
      <trkpt lat="43.45819" lon="6.59318">
        <ele>63.707169182599</ele>
        <time>2021-11-28T13:58:39Z</time>
      </trkpt>
      <trkpt lat="43.45819" lon="6.59318">
        <ele>64.707150407135</ele>
        <time>2021-11-28T13:58:43Z</time>
      </trkpt>
      <trkpt lat="43.4582" lon="6.59318">
        <ele>64.707092069089</ele>
        <time>2021-11-28T13:58:44Z</time>
      </trkpt>
      <trkpt lat="43.45822" lon="6.59318">
        <ele>64.706991150975</ele>
        <time>2021-11-28T13:58:46Z</time>
      </trkpt>
      <trkpt lat="43.45821" lon="6.59319">
        <ele>64.7070357427</ele>
        <time>2021-11-28T13:58:50Z</time>
      </trkpt>
      <trkpt lat="43.45822" lon="6.59318">
        <ele>64.706953600049</ele>
        <time>2021-11-28T13:58:52Z</time>
      </trkpt>
      <trkpt lat="43.45824" lon="6.59319">
        <ele>63.706867769361</ele>
        <time>2021-11-28T13:58:53Z</time>
      </trkpt>
      <trkpt lat="43.45825" lon="6.59319">
        <ele>64.706748075783</ele>
        <time>2021-11-28T13:58:54Z</time>
      </trkpt>
      <trkpt lat="43.45826" lon="6.59318">
        <ele>64.706626035273</ele>
        <time>2021-11-28T13:58:55Z</time>
      </trkpt>
      <trkpt lat="43.45827" lon="6.59315">
        <ele>64.706446997821</ele>
        <time>2021-11-28T13:58:57Z</time>
      </trkpt>
      <trkpt lat="43.45826" lon="6.59314">
        <ele>64.706449009478</ele>
        <time>2021-11-28T13:58:58Z</time>
      </trkpt>
      <trkpt lat="43.45826" lon="6.59312">
        <ele>64.706453032792</ele>
        <time>2021-11-28T13:58:59Z</time>
      </trkpt>
      <trkpt lat="43.45822" lon="6.59313">
        <ele>64.706749081612</ele>
        <time>2021-11-28T13:59:01Z</time>
      </trkpt>
      <trkpt lat="43.45821" lon="6.59315">
        <ele>63.706917390227</ele>
        <time>2021-11-28T13:59:02Z</time>
      </trkpt>
      <trkpt lat="43.4582" lon="6.59316">
        <ele>64.707046471536</ele>
        <time>2021-11-28T13:59:04Z</time>
      </trkpt>
      <trkpt lat="43.45818" lon="6.59317">
        <ele>65.707204721868</ele>
        <time>2021-11-28T13:59:06Z</time>
      </trkpt>
      <trkpt lat="43.45817" lon="6.59319">
        <ele>65.707376383245</ele>
        <time>2021-11-28T13:59:08Z</time>
      </trkpt>
      <trkpt lat="43.45817" lon="6.5932">
        <ele>66.707398511469</ele>
        <time>2021-11-28T13:59:09Z</time>
      </trkpt>
      <trkpt lat="43.45818" lon="6.5932">
        <ele>66.707396499813</ele>
        <time>2021-11-28T13:59:10Z</time>
      </trkpt>
      <trkpt lat="43.45817" lon="6.59319">
        <ele>66.707368001342</ele>
        <time>2021-11-28T13:59:12Z</time>
      </trkpt>
      <trkpt lat="43.45817" lon="6.59318">
        <ele>66.707343526185</ele>
        <time>2021-11-28T13:59:13Z</time>
      </trkpt>
      <trkpt lat="43.45818" lon="6.59317">
        <ele>66.707293570042</ele>
        <time>2021-11-28T13:59:14Z</time>
      </trkpt>
      <trkpt lat="43.45819" lon="6.59316">
        <ele>67.707149736583</ele>
        <time>2021-11-28T13:59:16Z</time>
      </trkpt>
      <trkpt lat="43.45821" lon="6.59314">
        <ele>66.706869781017</ele>
        <time>2021-11-28T13:59:18Z</time>
      </trkpt>
      <trkpt lat="43.45823" lon="6.59314">
        <ele>66.70671723038</ele>
        <time>2021-11-28T13:59:19Z</time>
      </trkpt>
      <trkpt lat="43.45825" lon="6.59313">
        <ele>66.706563673913</ele>
        <time>2021-11-28T13:59:20Z</time>
      </trkpt>
      <trkpt lat="43.45827" lon="6.59313">
        <ele>65.706349432468</ele>
        <time>2021-11-28T13:59:22Z</time>
      </trkpt>
      <trkpt lat="43.45828" lon="6.59313">
        <ele>65.706253543496</ele>
        <time>2021-11-28T13:59:23Z</time>
      </trkpt>
      <trkpt lat="43.45829" lon="6.59313">
        <ele>65.706176765263</ele>
        <time>2021-11-28T13:59:24Z</time>
      </trkpt>
      <trkpt lat="43.4583" lon="6.59313">
        <ele>65.706130497158</ele>
        <time>2021-11-28T13:59:26Z</time>
      </trkpt>
      <trkpt lat="43.45828" lon="6.59312">
        <ele>65.706219010055</ele>
        <time>2021-11-28T13:59:28Z</time>
      </trkpt>
      <trkpt lat="43.45827" lon="6.59311">
        <ele>65.706292100251</ele>
        <time>2021-11-28T13:59:29Z</time>
      </trkpt>
      <trkpt lat="43.45825" lon="6.59311">
        <ele>65.706413134933</ele>
        <time>2021-11-28T13:59:30Z</time>
      </trkpt>
      <trkpt lat="43.45824" lon="6.59311">
        <ele>65.706490583718</ele>
        <time>2021-11-28T13:59:31Z</time>
      </trkpt>
      <trkpt lat="43.45822" lon="6.59311">
        <ele>65.706640452147</ele>
        <time>2021-11-28T13:59:32Z</time>
      </trkpt>
      <trkpt lat="43.45821" lon="6.59311">
        <ele>65.706749081612</ele>
        <time>2021-11-28T13:59:33Z</time>
      </trkpt>
      <trkpt lat="43.4582" lon="6.5931">
        <ele>64.706811778247</ele>
        <time>2021-11-28T13:59:34Z</time>
      </trkpt>
      <trkpt lat="43.45819" lon="6.59309">
        <ele>64.706846311688</ele>
        <time>2021-11-28T13:59:35Z</time>
      </trkpt>
      <trkpt lat="43.45819" lon="6.59308">
        <ele>64.706830888987</ele>
        <time>2021-11-28T13:59:36Z</time>
      </trkpt>
      <trkpt lat="43.45818" lon="6.59306">
        <ele>64.706807754934</ele>
        <time>2021-11-28T13:59:38Z</time>
      </trkpt>
      <trkpt lat="43.45818" lon="6.59305">
        <ele>63.706740029156</ele>
        <time>2021-11-28T13:59:39Z</time>
      </trkpt>
      <trkpt lat="43.45819" lon="6.59305">
        <ele>63.706668950617</ele>
        <time>2021-11-28T13:59:40Z</time>
      </trkpt>
      <trkpt lat="43.45821" lon="6.59304">
        <ele>63.7064852193</ele>
        <time>2021-11-28T13:59:42Z</time>
      </trkpt>
      <trkpt lat="43.45822" lon="6.59304">
        <ele>62.706356473267</ele>
        <time>2021-11-28T13:59:43Z</time>
      </trkpt>
      <trkpt lat="43.45824" lon="6.59303">
        <ele>62.70621163398</ele>
        <time>2021-11-28T13:59:44Z</time>
      </trkpt>
      <trkpt lat="43.45828" lon="6.59302">
        <ele>63.705877698958</ele>
        <time>2021-11-28T13:59:46Z</time>
      </trkpt>
      <trkpt lat="43.45831" lon="6.59303">
        <ele>63.705622218549</ele>
        <time>2021-11-28T13:59:48Z</time>
      </trkpt>
      <trkpt lat="43.45832" lon="6.59303">
        <ele>63.705585002899</ele>
        <time>2021-11-28T13:59:49Z</time>
      </trkpt>
      <trkpt lat="43.45832" lon="6.59304">
        <ele>63.705577626824</ele>
        <time>2021-11-28T13:59:51Z</time>
      </trkpt>
      <trkpt lat="43.45833" lon="6.59304">
        <ele>64.705471344292</ele>
        <time>2021-11-28T13:59:53Z</time>
      </trkpt>
      <trkpt lat="43.45834" lon="6.59303">
        <ele>64.705409318209</ele>
        <time>2021-11-28T13:59:57Z</time>
      </trkpt>
      <trkpt lat="43.45835" lon="6.59302">
        <ele>64.705316446722</ele>
        <time>2021-11-28T13:59:58Z</time>
      </trkpt>
      <trkpt lat="43.45835" lon="6.59302">
        <ele>64.705242015421</ele>
        <time>2021-11-28T13:59:59Z</time>
      </trkpt>
      <trkpt lat="43.45836" lon="6.59301">
        <ele>64.705194406211</ele>
        <time>2021-11-28T14:00:00Z</time>
      </trkpt>
      <trkpt lat="43.45835" lon="6.59298">
        <ele>65.705106899142</ele>
        <time>2021-11-28T14:00:02Z</time>
      </trkpt>
      <trkpt lat="43.45836" lon="6.59297">
        <ele>64.704986870289</ele>
        <time>2021-11-28T14:00:03Z</time>
      </trkpt>
      <trkpt lat="43.45837" lon="6.59297">
        <ele>64.704903721809</ele>
        <time>2021-11-28T14:00:04Z</time>
      </trkpt>
      <trkpt lat="43.45843" lon="6.59296">
        <ele>63.704413212836</ele>
        <time>2021-11-28T14:00:06Z</time>
      </trkpt>
      <trkpt lat="43.45846" lon="6.59294">
        <ele>63.704108782113</ele>
        <time>2021-11-28T14:00:08Z</time>
      </trkpt>
      <trkpt lat="43.45848" lon="6.59292">
        <ele>63.703891858459</ele>
        <time>2021-11-28T14:00:09Z</time>
      </trkpt>
      <trkpt lat="43.45849" lon="6.59291">
        <ele>63.703745678067</ele>
        <time>2021-11-28T14:00:10Z</time>
      </trkpt>
      <trkpt lat="43.45849" lon="6.59287">
        <ele>63.703562952578</ele>
        <time>2021-11-28T14:00:12Z</time>
      </trkpt>
      <trkpt lat="43.45848" lon="6.59287">
        <ele>63.703611902893</ele>
        <time>2021-11-28T14:00:13Z</time>
      </trkpt>
      <trkpt lat="43.45848" lon="6.59287">
        <ele>62.703666888177</ele>
        <time>2021-11-28T14:00:14Z</time>
      </trkpt>
      <trkpt lat="43.45844" lon="6.59288">
        <ele>62.704025633633</ele>
        <time>2021-11-28T14:00:16Z</time>
      </trkpt>
      <trkpt lat="43.45838" lon="6.59292">
        <ele>62.704654611647</ele>
        <time>2021-11-28T14:00:18Z</time>
      </trkpt>
      <trkpt lat="43.45834" lon="6.59294">
        <ele>62.705070018768</ele>
        <time>2021-11-28T14:00:19Z</time>
      </trkpt>
      <trkpt lat="43.4583" lon="6.59296">
        <ele>62.705403618515</ele>
        <time>2021-11-28T14:00:20Z</time>
      </trkpt>
      <trkpt lat="43.45824" lon="6.593">
        <ele>62.706136867404</ele>
        <time>2021-11-28T14:00:22Z</time>
      </trkpt>
      <trkpt lat="43.45819" lon="6.59302">
        <ele>62.706531487405</ele>
        <time>2021-11-28T14:00:23Z</time>
      </trkpt>
      <trkpt lat="43.45815" lon="6.59304">
        <ele>62.706914037466</ele>
        <time>2021-11-28T14:00:24Z</time>
      </trkpt>
      <trkpt lat="43.45811" lon="6.59305">
        <ele>62.707331120968</ele>
        <time>2021-11-28T14:00:26Z</time>
      </trkpt>
      <trkpt lat="43.4581" lon="6.59308">
        <ele>62.707542009652</ele>
        <time>2021-11-28T14:00:28Z</time>
      </trkpt>
      <trkpt lat="43.4581" lon="6.5931">
        <ele>61.707570843399</ele>
        <time>2021-11-28T14:00:29Z</time>
      </trkpt>
      <trkpt lat="43.45814" lon="6.59309">
        <ele>60.707235567272</ele>
        <time>2021-11-28T14:00:30Z</time>
      </trkpt>
      <trkpt lat="43.45815" lon="6.5931">
        <ele>60.707152418792</ele>
        <time>2021-11-28T14:00:31Z</time>
      </trkpt>
      <trkpt lat="43.45815" lon="6.59312">
        <ele>59.707275129855</ele>
        <time>2021-11-28T14:00:32Z</time>
      </trkpt>
      <trkpt lat="43.45815" lon="6.59312">
        <ele>59.707277476788</ele>
        <time>2021-11-28T14:00:33Z</time>
      </trkpt>
      <trkpt lat="43.45814" lon="6.59313">
        <ele>59.707406558096</ele>
        <time>2021-11-28T14:00:34Z</time>
      </trkpt>
      <trkpt lat="43.45814" lon="6.59312">
        <ele>58.707348555326</ele>
        <time>2021-11-28T14:00:42Z</time>
      </trkpt>
      <trkpt lat="43.45816" lon="6.5931">
        <ele>57.707133978605</ele>
        <time>2021-11-28T14:00:44Z</time>
      </trkpt>
      <trkpt lat="43.45817" lon="6.59311">
        <ele>57.707044459879</ele>
        <time>2021-11-28T14:00:46Z</time>
      </trkpt>
      <trkpt lat="43.45817" lon="6.5931">
        <ele>57.707023337483</ele>
        <time>2021-11-28T14:00:49Z</time>
      </trkpt>
      <trkpt lat="43.45818" lon="6.59309">
        <ele>58.706942200661</ele>
        <time>2021-11-28T14:00:51Z</time>
      </trkpt>
      <trkpt lat="43.45818" lon="6.5931">
        <ele>58.706919066608</ele>
        <time>2021-11-28T14:00:56Z</time>
      </trkpt>
      <trkpt lat="43.45817" lon="6.59311">
        <ele>58.70707295835</ele>
        <time>2021-11-28T14:00:58Z</time>
      </trkpt>
      <trkpt lat="43.45817" lon="6.59312">
        <ele>58.707153759897</ele>
        <time>2021-11-28T14:00:59Z</time>
      </trkpt>
      <trkpt lat="43.45817" lon="6.59313">
        <ele>57.707202039659</ele>
        <time>2021-11-28T14:01:00Z</time>
      </trkpt>
      <trkpt lat="43.45818" lon="6.59313">
        <ele>58.707109838724</ele>
        <time>2021-11-28T14:01:02Z</time>
      </trkpt>
      <trkpt lat="43.45818" lon="6.59314">
        <ele>58.707095086575</ele>
        <time>2021-11-28T14:01:12Z</time>
      </trkpt>
      <trkpt lat="43.45818" lon="6.59314">
        <ele>58.707104474306</ele>
        <time>2021-11-28T14:01:14Z</time>
      </trkpt>
      <trkpt lat="43.45818" lon="6.59315">
        <ele>58.707137331367</ele>
        <time>2021-11-28T14:01:15Z</time>
      </trkpt>
      <trkpt lat="43.45817" lon="6.59315">
        <ele>58.707241266966</ele>
        <time>2021-11-28T14:01:17Z</time>
      </trkpt>
      <trkpt lat="43.45817" lon="6.59314">
        <ele>59.707203045487</ele>
        <time>2021-11-28T14:01:20Z</time>
      </trkpt>
      <trkpt lat="43.45819" lon="6.59312">
        <ele>59.706989139318</ele>
        <time>2021-11-28T14:01:22Z</time>
      </trkpt>
      <trkpt lat="43.45821" lon="6.59312">
        <ele>59.706822171807</ele>
        <time>2021-11-28T14:01:23Z</time>
      </trkpt>
      <trkpt lat="43.45822" lon="6.5931">
        <ele>59.70664883405</ele>
        <time>2021-11-28T14:01:24Z</time>
      </trkpt>
      <trkpt lat="43.45825" lon="6.59309">
        <ele>60.706371895969</ele>
        <time>2021-11-28T14:01:26Z</time>
      </trkpt>
      <trkpt lat="43.45827" lon="6.59309">
        <ele>60.706182129681</ele>
        <time>2021-11-28T14:01:28Z</time>
      </trkpt>
      <trkpt lat="43.45827" lon="6.5931">
        <ele>60.706243149936</ele>
        <time>2021-11-28T14:01:29Z</time>
      </trkpt>
      <trkpt lat="43.45826" lon="6.5931">
        <ele>60.706287741661</ele>
        <time>2021-11-28T14:01:30Z</time>
      </trkpt>
      <trkpt lat="43.45825" lon="6.59308">
        <ele>60.706349097192</ele>
        <time>2021-11-28T14:01:32Z</time>
      </trkpt>
      <trkpt lat="43.45824" lon="6.59308">
        <ele>60.706413134933</ele>
        <time>2021-11-28T14:01:33Z</time>
      </trkpt>
      <trkpt lat="43.45823" lon="6.59308">
        <ele>60.706521764398</ele>
        <time>2021-11-28T14:01:34Z</time>
      </trkpt>
      <trkpt lat="43.45821" lon="6.59308">
        <ele>60.706604242325</ele>
        <time>2021-11-28T14:01:35Z</time>
      </trkpt>
      <trkpt lat="43.45821" lon="6.59307">
        <ele>61.706606253982</ele>
        <time>2021-11-28T14:01:42Z</time>
      </trkpt>
      <trkpt lat="43.45821" lon="6.59308">
        <ele>61.706685379148</ele>
        <time>2021-11-28T14:01:43Z</time>
      </trkpt>
      <trkpt lat="43.4582" lon="6.59308">
        <ele>61.706725277007</ele>
        <time>2021-11-28T14:01:45Z</time>
      </trkpt>
      <trkpt lat="43.45823" lon="6.5931">
        <ele>61.706612959504</ele>
        <time>2021-11-28T14:01:47Z</time>
      </trkpt>
      <trkpt lat="43.45823" lon="6.5931">
        <ele>61.706594854593</ele>
        <time>2021-11-28T14:01:53Z</time>
      </trkpt>
      <trkpt lat="43.45824" lon="6.59313">
        <ele>61.706589154899</ele>
        <time>2021-11-28T14:01:54Z</time>
      </trkpt>
      <trkpt lat="43.45823" lon="6.59313">
        <ele>62.706664592028</ele>
        <time>2021-11-28T14:01:55Z</time>
      </trkpt>
      <trkpt lat="43.45824" lon="6.59312">
        <ele>62.706546574831</ele>
        <time>2021-11-28T14:01:57Z</time>
      </trkpt>
      <trkpt lat="43.45826" lon="6.59311">
        <ele>62.706374578178</ele>
        <time>2021-11-28T14:01:58Z</time>
      </trkpt>
      <trkpt lat="43.45828" lon="6.59311">
        <ele>62.706221021712</ele>
        <time>2021-11-28T14:01:59Z</time>
      </trkpt>
      <trkpt lat="43.45828" lon="6.59311">
        <ele>62.706177435815</ele>
        <time>2021-11-28T14:02:01Z</time>
      </trkpt>
      <trkpt lat="43.45826" lon="6.59312">
        <ele>62.706407770514</ele>
        <time>2021-11-28T14:02:03Z</time>
      </trkpt>
      <trkpt lat="43.45824" lon="6.59312">
        <ele>62.706609942019</ele>
        <time>2021-11-28T14:02:04Z</time>
      </trkpt>
      <trkpt lat="43.45821" lon="6.59313">
        <ele>62.706839941442</ele>
        <time>2021-11-28T14:02:05Z</time>
      </trkpt>
      <trkpt lat="43.45817" lon="6.59314">
        <ele>62.707167170942</ele>
        <time>2021-11-28T14:02:07Z</time>
      </trkpt>
      <trkpt lat="43.45815" lon="6.59317">
        <ele>61.707469254732</ele>
        <time>2021-11-28T14:02:08Z</time>
      </trkpt>
      <trkpt lat="43.45815" lon="6.59318">
        <ele>61.707513175905</ele>
        <time>2021-11-28T14:02:09Z</time>
      </trkpt>
      <trkpt lat="43.45816" lon="6.59317">
        <ele>61.707418963313</ele>
        <time>2021-11-28T14:02:11Z</time>
      </trkpt>
      <trkpt lat="43.45816" lon="6.59316">
        <ele>60.707397170365</ele>
        <time>2021-11-28T14:02:13Z</time>
      </trkpt>
      <trkpt lat="43.45817" lon="6.59316">
        <ele>60.707306981087</ele>
        <time>2021-11-28T14:02:14Z</time>
      </trkpt>
      <trkpt lat="43.45817" lon="6.59317">
        <ele>60.707303628325</ele>
        <time>2021-11-28T14:02:15Z</time>
      </trkpt>
      <trkpt lat="43.45818" lon="6.59317">
        <ele>60.707204386592</ele>
        <time>2021-11-28T14:02:17Z</time>
      </trkpt>
      <trkpt lat="43.45819" lon="6.59318">
        <ele>60.707239255309</ele>
        <time>2021-11-28T14:02:18Z</time>
      </trkpt>
      <trkpt lat="43.4582" lon="6.59319">
        <ele>61.707194663584</ele>
        <time>2021-11-28T14:02:19Z</time>
      </trkpt>
      <trkpt lat="43.4582" lon="6.5932">
        <ele>61.707198016346</ele>
        <time>2021-11-28T14:02:21Z</time>
      </trkpt>
      <trkpt lat="43.45819" lon="6.5932">
        <ele>60.707324080169</ele>
        <time>2021-11-28T14:02:22Z</time>
      </trkpt>
      <trkpt lat="43.45818" lon="6.59321">
        <ele>60.707354925573</ele>
        <time>2021-11-28T14:02:23Z</time>
      </trkpt>
      <trkpt lat="43.45817" lon="6.59321">
        <ele>61.70751619339</ele>
        <time>2021-11-28T14:02:24Z</time>
      </trkpt>
      <trkpt lat="43.45814" lon="6.59322">
        <ele>61.707744516432</ele>
        <time>2021-11-28T14:02:26Z</time>
      </trkpt>
      <trkpt lat="43.45813" lon="6.59326">
        <ele>62.708011060953</ele>
        <time>2021-11-28T14:02:28Z</time>
      </trkpt>
      <trkpt lat="43.45812" lon="6.59327">
        <ele>62.708114996552</ele>
        <time>2021-11-28T14:02:29Z</time>
      </trkpt>
      <trkpt lat="43.45811" lon="6.59327">
        <ele>62.708220943809</ele>
        <time>2021-11-28T14:02:30Z</time>
      </trkpt>
      <trkpt lat="43.45809" lon="6.59328">
        <ele>62.708357065916</ele>
        <time>2021-11-28T14:02:31Z</time>
      </trkpt>
      <trkpt lat="43.45806" lon="6.59325">
        <ele>61.708524703979</ele>
        <time>2021-11-28T14:02:33Z</time>
      </trkpt>
      <trkpt lat="43.45806" lon="6.59321">
        <ele>61.708371147513</ele>
        <time>2021-11-28T14:02:34Z</time>
      </trkpt>
      <trkpt lat="43.45807" lon="6.59318">
        <ele>61.708217255771</ele>
        <time>2021-11-28T14:02:35Z</time>
      </trkpt>
      <trkpt lat="43.45812" lon="6.59313">
        <ele>61.707591630518</ele>
        <time>2021-11-28T14:02:37Z</time>
      </trkpt>
      <trkpt lat="43.45814" lon="6.59311">
        <ele>61.707313686609</ele>
        <time>2021-11-28T14:02:38Z</time>
      </trkpt>
      <trkpt lat="43.45816" lon="6.59311">
        <ele>61.707154765725</ele>
        <time>2021-11-28T14:02:39Z</time>
      </trkpt>
      <trkpt lat="43.45817" lon="6.59312">
        <ele>61.707121238112</ele>
        <time>2021-11-28T14:02:40Z</time>
      </trkpt>
      <trkpt lat="43.45818" lon="6.59312">
        <ele>61.707067258656</ele>
        <time>2021-11-28T14:02:41Z</time>
      </trkpt>
      <trkpt lat="43.45818" lon="6.59314">
        <ele>61.707075975835</ele>
        <time>2021-11-28T14:02:42Z</time>
      </trkpt>
      <trkpt lat="43.45821" lon="6.59314">
        <ele>61.70688855648</ele>
        <time>2021-11-28T14:02:43Z</time>
      </trkpt>
      <trkpt lat="43.45823" lon="6.59314">
        <ele>61.706710860133</ele>
        <time>2021-11-28T14:02:44Z</time>
      </trkpt>
      <trkpt lat="43.45824" lon="6.59315">
        <ele>61.706701807678</ele>
        <time>2021-11-28T14:02:45Z</time>
      </trkpt>
      <trkpt lat="43.45824" lon="6.59315">
        <ele>60.706709519029</ele>
        <time>2021-11-28T14:02:56Z</time>
      </trkpt>
      <trkpt lat="43.45822" lon="6.59316">
        <ele>60.706893250346</ele>
        <time>2021-11-28T14:02:58Z</time>
      </trkpt>
      <trkpt lat="43.45822" lon="6.59315">
        <ele>60.706863746047</ele>
        <time>2021-11-28T14:03:00Z</time>
      </trkpt>
      <trkpt lat="43.45823" lon="6.59311">
        <ele>60.706622682512</ele>
        <time>2021-11-28T14:03:02Z</time>
      </trkpt>
      <trkpt lat="43.45823" lon="6.59311">
        <ele>60.706608936191</ele>
        <time>2021-11-28T14:03:04Z</time>
      </trkpt>
      <trkpt lat="43.45823" lon="6.59307">
        <ele>60.706426545978</ele>
        <time>2021-11-28T14:03:06Z</time>
      </trkpt>
      <trkpt lat="43.45825" lon="6.59305">
        <ele>60.706169053912</ele>
        <time>2021-11-28T14:03:07Z</time>
      </trkpt>
      <trkpt lat="43.45825" lon="6.59304">
        <ele>60.706131502986</ele>
        <time>2021-11-28T14:03:10Z</time>
      </trkpt>
      <trkpt lat="43.45825" lon="6.59302">
        <ele>60.706100322306</ele>
        <time>2021-11-28T14:03:12Z</time>
      </trkpt>
      <trkpt lat="43.45825" lon="6.59302">
        <ele>60.706082552671</ele>
        <time>2021-11-28T14:03:15Z</time>
      </trkpt>
      <trkpt lat="43.45828" lon="6.593">
        <ele>60.705747611821</ele>
        <time>2021-11-28T14:03:17Z</time>
      </trkpt>
      <trkpt lat="43.45828" lon="6.593">
        <ele>60.705740906298</ele>
        <time>2021-11-28T14:03:19Z</time>
      </trkpt>
      <trkpt lat="43.45829" lon="6.59302">
        <ele>60.705760352314</ele>
        <time>2021-11-28T14:03:21Z</time>
      </trkpt>
      <trkpt lat="43.4583" lon="6.59303">
        <ele>60.705716766417</ele>
        <time>2021-11-28T14:03:23Z</time>
      </trkpt>
      <trkpt lat="43.45828" lon="6.593">
        <ele>61.705739565194</ele>
        <time>2021-11-28T14:03:24Z</time>
      </trkpt>
      <trkpt lat="43.45828" lon="6.593">
        <ele>60.70573990047</ele>
        <time>2021-11-28T14:03:27Z</time>
      </trkpt>
      <trkpt lat="43.45827" lon="6.59299">
        <ele>60.705838136375</ele>
        <time>2021-11-28T14:03:28Z</time>
      </trkpt>
      <trkpt lat="43.45825" lon="6.59299">
        <ele>60.705953471363</ele>
        <time>2021-11-28T14:03:29Z</time>
      </trkpt>
      <trkpt lat="43.45824" lon="6.59301">
        <ele>59.70614156127</ele>
        <time>2021-11-28T14:03:31Z</time>
      </trkpt>
      <trkpt lat="43.45823" lon="6.59302">
        <ele>59.706235438585</ele>
        <time>2021-11-28T14:03:33Z</time>
      </trkpt>
      <trkpt lat="43.45823" lon="6.59302">
        <ele>59.706233091652</ele>
        <time>2021-11-28T14:03:35Z</time>
      </trkpt>
      <trkpt lat="43.4582" lon="6.59297">
        <ele>59.706270642579</ele>
        <time>2021-11-28T14:03:37Z</time>
      </trkpt>
      <trkpt lat="43.4582" lon="6.59297">
        <ele>59.706277683377</ele>
        <time>2021-11-28T14:03:39Z</time>
      </trkpt>
      <trkpt lat="43.45821" lon="6.59293">
        <ele>59.706065453589</ele>
        <time>2021-11-28T14:03:41Z</time>
      </trkpt>
      <trkpt lat="43.45823" lon="6.59292">
        <ele>59.705885745585</ele>
        <time>2021-11-28T14:03:43Z</time>
      </trkpt>
      <trkpt lat="43.45822" lon="6.59291">
        <ele>59.705879375339</ele>
        <time>2021-11-28T14:03:54Z</time>
      </trkpt>
      <trkpt lat="43.45822" lon="6.59291">
        <ele>59.705851882696</ele>
        <time>2021-11-28T14:03:55Z</time>
      </trkpt>
      <trkpt lat="43.45822" lon="6.59288">
        <ele>59.705756999552</ele>
        <time>2021-11-28T14:03:57Z</time>
      </trkpt>
      <trkpt lat="43.45822" lon="6.59287">
        <ele>59.705730512738</ele>
        <time>2021-11-28T14:03:59Z</time>
      </trkpt>
      <trkpt lat="43.45826" lon="6.59284">
        <ele>59.705320805311</ele>
        <time>2021-11-28T14:04:01Z</time>
      </trkpt>
      <trkpt lat="43.45823" lon="6.59285">
        <ele>59.705607801676</ele>
        <time>2021-11-28T14:04:03Z</time>
      </trkpt>
      <trkpt lat="43.4582" lon="6.59285">
        <ele>59.705821372569</ele>
        <time>2021-11-28T14:04:04Z</time>
      </trkpt>
      <trkpt lat="43.45821" lon="6.59285">
        <ele>59.705726824701</ele>
        <time>2021-11-28T14:04:05Z</time>
      </trkpt>
      <trkpt lat="43.45818" lon="6.59283">
        <ele>60.705902844667</ele>
        <time>2021-11-28T14:04:07Z</time>
      </trkpt>
      <trkpt lat="43.45817" lon="6.59281">
        <ele>60.705879040062</ele>
        <time>2021-11-28T14:04:08Z</time>
      </trkpt>
      <trkpt lat="43.45817" lon="6.59281">
        <ele>60.705841824412</ele>
        <time>2021-11-28T14:04:09Z</time>
      </trkpt>
      <trkpt lat="43.45818" lon="6.59279">
        <ele>60.705692626536</ele>
        <time>2021-11-28T14:04:11Z</time>
      </trkpt>
      <trkpt lat="43.45817" lon="6.59277">
        <ele>60.705690614879</ele>
        <time>2021-11-28T14:04:13Z</time>
      </trkpt>
      <trkpt lat="43.45815" lon="6.59276">
        <ele>60.705806285143</ele>
        <time>2021-11-28T14:04:14Z</time>
      </trkpt>
      <trkpt lat="43.45815" lon="6.59275">
        <ele>60.705778457224</ele>
        <time>2021-11-28T14:04:15Z</time>
      </trkpt>
      <trkpt lat="43.45815" lon="6.59275">
        <ele>60.705813996494</ele>
        <time>2021-11-28T14:04:16Z</time>
      </trkpt>
      <trkpt lat="43.45816" lon="6.59275">
        <ele>60.705759681761</ele>
        <time>2021-11-28T14:04:18Z</time>
      </trkpt>
      <trkpt lat="43.45816" lon="6.59275">
        <ele>60.705754652619</ele>
        <time>2021-11-28T14:04:20Z</time>
      </trkpt>
      <trkpt lat="43.45815" lon="6.59276">
        <ele>59.705864958465</ele>
        <time>2021-11-28T14:04:22Z</time>
      </trkpt>
      <trkpt lat="43.45815" lon="6.59276">
        <ele>59.705863282084</ele>
        <time>2021-11-28T14:04:24Z</time>
      </trkpt>
      <trkpt lat="43.45816" lon="6.59275">
        <ele>60.705748282373</ele>
        <time>2021-11-28T14:04:26Z</time>
      </trkpt>
      <trkpt lat="43.45817" lon="6.59276">
        <ele>60.705717436969</ele>
        <time>2021-11-28T14:04:28Z</time>
      </trkpt>
      <trkpt lat="43.45817" lon="6.59276">
        <ele>60.70572514832</ele>
        <time>2021-11-28T14:04:30Z</time>
      </trkpt>
      <trkpt lat="43.45812" lon="6.59276">
        <ele>60.706076182425</ele>
        <time>2021-11-28T14:04:32Z</time>
      </trkpt>
      <trkpt lat="43.45812" lon="6.59276">
        <ele>60.70608523488</ele>
        <time>2021-11-28T14:04:34Z</time>
      </trkpt>
      <trkpt lat="43.45808" lon="6.59275">
        <ele>61.706387653947</ele>
        <time>2021-11-28T14:04:36Z</time>
      </trkpt>
      <trkpt lat="43.45804" lon="6.59272">
        <ele>61.70654925704</ele>
        <time>2021-11-28T14:04:38Z</time>
      </trkpt>
      <trkpt lat="43.45803" lon="6.59272">
        <ele>61.706618323922</ele>
        <time>2021-11-28T14:04:39Z</time>
      </trkpt>
      <trkpt lat="43.45802" lon="6.59271">
        <ele>61.706664927304</ele>
        <time>2021-11-28T14:04:40Z</time>
      </trkpt>
      <trkpt lat="43.45804" lon="6.59269">
        <ele>61.70648689568</ele>
        <time>2021-11-28T14:04:42Z</time>
      </trkpt>
      <trkpt lat="43.45804" lon="6.59268">
        <ele>61.706446997821</ele>
        <time>2021-11-28T14:04:44Z</time>
      </trkpt>
      <trkpt lat="43.45803" lon="6.5927">
        <ele>61.706573396921</ele>
        <time>2021-11-28T14:04:46Z</time>
      </trkpt>
      <trkpt lat="43.45801" lon="6.59271">
        <ele>61.706787638366</ele>
        <time>2021-11-28T14:04:48Z</time>
      </trkpt>
      <trkpt lat="43.458" lon="6.59272">
        <ele>61.706894256175</ele>
        <time>2021-11-28T14:04:49Z</time>
      </trkpt>
      <trkpt lat="43.45799" lon="6.59271">
        <ele>61.706914037466</ele>
        <time>2021-11-28T14:04:50Z</time>
      </trkpt>
      <trkpt lat="43.45798" lon="6.59273">
        <ele>61.707074970007</ele>
        <time>2021-11-28T14:04:52Z</time>
      </trkpt>
      <trkpt lat="43.45797" lon="6.59273">
        <ele>61.707163482904</ele>
        <time>2021-11-28T14:04:53Z</time>
      </trkpt>
      <trkpt lat="43.45796" lon="6.59274">
        <ele>61.707248978317</ele>
        <time>2021-11-28T14:04:54Z</time>
      </trkpt>
      <trkpt lat="43.45795" lon="6.59274">
        <ele>62.707389459014</ele>
        <time>2021-11-28T14:04:55Z</time>
      </trkpt>
      <trkpt lat="43.45794" lon="6.59274">
        <ele>62.707402870059</ele>
        <time>2021-11-28T14:04:56Z</time>
      </trkpt>
      <trkpt lat="43.45793" lon="6.59273">
        <ele>61.707507811487</ele>
        <time>2021-11-28T14:04:57Z</time>
      </trkpt>
      <trkpt lat="43.45792" lon="6.59273">
        <ele>61.707574531436</ele>
        <time>2021-11-28T14:04:59Z</time>
      </trkpt>
      <trkpt lat="43.45791" lon="6.59273">
        <ele>61.707609400153</ele>
        <time>2021-11-28T14:05:00Z</time>
      </trkpt>
      <trkpt lat="43.45791" lon="6.59273">
        <ele>61.70764862746</ele>
        <time>2021-11-28T14:05:01Z</time>
      </trkpt>
      <trkpt lat="43.4579" lon="6.59273">
        <ele>61.707708641887</ele>
        <time>2021-11-28T14:05:03Z</time>
      </trkpt>
      <trkpt lat="43.4579" lon="6.59272">
        <ele>61.707693219185</ele>
        <time>2021-11-28T14:05:11Z</time>
      </trkpt>
      <trkpt lat="43.45791" lon="6.59271">
        <ele>61.707608059049</ele>
        <time>2021-11-28T14:05:15Z</time>
      </trkpt>
      <trkpt lat="43.45793" lon="6.59272">
        <ele>61.707387447357</ele>
        <time>2021-11-28T14:05:17Z</time>
      </trkpt>
      <trkpt lat="43.45793" lon="6.59272">
        <ele>61.707386106253</ele>
        <time>2021-11-28T14:05:18Z</time>
      </trkpt>
      <trkpt lat="43.45796" lon="6.59272">
        <ele>62.707236908376</ele>
        <time>2021-11-28T14:05:19Z</time>
      </trkpt>
      <trkpt lat="43.45798" lon="6.59272">
        <ele>62.707033731043</ele>
        <time>2021-11-28T14:05:20Z</time>
      </trkpt>
      <trkpt lat="43.45798" lon="6.59272">
        <ele>62.707049824297</ele>
        <time>2021-11-28T14:05:22Z</time>
      </trkpt>
      <trkpt lat="43.458" lon="6.59272">
        <ele>62.706835247576</ele>
        <time>2021-11-28T14:05:23Z</time>
      </trkpt>
      <trkpt lat="43.45804" lon="6.59271">
        <ele>62.706577420235</ele>
        <time>2021-11-28T14:05:24Z</time>
      </trkpt>
      <trkpt lat="43.45806" lon="6.5927">
        <ele>63.706303164363</ele>
        <time>2021-11-28T14:05:26Z</time>
      </trkpt>
      <trkpt lat="43.45809" lon="6.59271">
        <ele>64.706103004515</ele>
        <time>2021-11-28T14:05:28Z</time>
      </trkpt>
      <trkpt lat="43.4581" lon="6.5927">
        <ele>64.706051036716</ele>
        <time>2021-11-28T14:05:30Z</time>
      </trkpt>
      <trkpt lat="43.45811" lon="6.59271">
        <ele>64.705984987319</ele>
        <time>2021-11-28T14:05:32Z</time>
      </trkpt>
      <trkpt lat="43.45811" lon="6.59272">
        <ele>64.706017509103</ele>
        <time>2021-11-28T14:05:34Z</time>
      </trkpt>
      <trkpt lat="43.4581" lon="6.59273">
        <ele>64.706117421389</ele>
        <time>2021-11-28T14:05:35Z</time>
      </trkpt>
      <trkpt lat="43.45811" lon="6.59272">
        <ele>63.70597191155</ele>
        <time>2021-11-28T14:05:37Z</time>
      </trkpt>
      <trkpt lat="43.45813" lon="6.5927">
        <ele>64.70578918606</ele>
        <time>2021-11-28T14:05:38Z</time>
      </trkpt>
      <trkpt lat="43.45812" lon="6.59269">
        <ele>63.705812990665</ele>
        <time>2021-11-28T14:05:39Z</time>
      </trkpt>
      <trkpt lat="43.4581" lon="6.59269">
        <ele>63.705956488848</ele>
        <time>2021-11-28T14:05:41Z</time>
      </trkpt>
      <trkpt lat="43.45802" lon="6.59267">
        <ele>63.706492260098</ele>
        <time>2021-11-28T14:05:43Z</time>
      </trkpt>
      <trkpt lat="43.45802" lon="6.59266">
        <ele>62.70649125427</ele>
        <time>2021-11-28T14:05:44Z</time>
      </trkpt>
      <trkpt lat="43.45801" lon="6.59265">
        <ele>62.706563338637</ele>
        <time>2021-11-28T14:05:45Z</time>
      </trkpt>
      <trkpt lat="43.458" lon="6.59265">
        <ele>62.706600219011</ele>
        <time>2021-11-28T14:05:47Z</time>
      </trkpt>
      <trkpt lat="43.45802" lon="6.59266">
        <ele>61.706469461322</ele>
        <time>2021-11-28T14:05:48Z</time>
      </trkpt>
      <trkpt lat="43.45802" lon="6.59268">
        <ele>61.706551939249</ele>
        <time>2021-11-28T14:05:49Z</time>
      </trkpt>
      <trkpt lat="43.45801" lon="6.59272">
        <ele>61.70682887733</ele>
        <time>2021-11-28T14:05:51Z</time>
      </trkpt>
      <trkpt lat="43.45801" lon="6.59272">
        <ele>61.706765845418</ele>
        <time>2021-11-28T14:05:53Z</time>
      </trkpt>
      <trkpt lat="43.45803" lon="6.59272">
        <ele>61.70664011687</ele>
        <time>2021-11-28T14:05:54Z</time>
      </trkpt>
      <trkpt lat="43.45804" lon="6.59274">
        <ele>60.706618323922</ele>
        <time>2021-11-28T14:05:56Z</time>
      </trkpt>
      <trkpt lat="43.45807" lon="6.59275">
        <ele>60.706430234015</ele>
        <time>2021-11-28T14:05:58Z</time>
      </trkpt>
      <trkpt lat="43.45808" lon="6.59276">
        <ele>60.706405423582</ele>
        <time>2021-11-28T14:05:59Z</time>
      </trkpt>
      <trkpt lat="43.45809" lon="6.59276">
        <ele>60.706340380013</ele>
        <time>2021-11-28T14:06:00Z</time>
      </trkpt>
      <trkpt lat="43.4581" lon="6.59278">
        <ele>60.706275671721</ele>
        <time>2021-11-28T14:06:01Z</time>
      </trkpt>
      <trkpt lat="43.4581" lon="6.59278">
        <ele>60.706338703632</ele>
        <time>2021-11-28T14:06:03Z</time>
      </trkpt>
      <trkpt lat="43.4581" lon="6.59279">
        <ele>60.706404753029</ele>
        <time>2021-11-28T14:06:05Z</time>
      </trkpt>
      <trkpt lat="43.45809" lon="6.59279">
        <ele>59.706444986165</ele>
        <time>2021-11-28T14:06:10Z</time>
      </trkpt>
      <trkpt lat="43.45809" lon="6.5928">
        <ele>58.706453032792</ele>
        <time>2021-11-28T14:06:13Z</time>
      </trkpt>
      <trkpt lat="43.45809" lon="6.59281">
        <ele>58.706514053047</ele>
        <time>2021-11-28T14:06:16Z</time>
      </trkpt>
      <trkpt lat="43.45811" lon="6.5928">
        <ele>57.706343732774</ele>
        <time>2021-11-28T14:06:17Z</time>
      </trkpt>
      <trkpt lat="43.45811" lon="6.5928">
        <ele>57.706302493811</ele>
        <time>2021-11-28T14:06:18Z</time>
      </trkpt>
      <trkpt lat="43.45811" lon="6.59279">
        <ele>57.706274665892</ele>
        <time>2021-11-28T14:06:19Z</time>
      </trkpt>
      <trkpt lat="43.45812" lon="6.59278">
        <ele>58.706218339503</ele>
        <time>2021-11-28T14:06:20Z</time>
      </trkpt>
      <trkpt lat="43.45812" lon="6.59279">
        <ele>58.706182800233</ele>
        <time>2021-11-28T14:06:21Z</time>
      </trkpt>
      <trkpt lat="43.45813" lon="6.59279">
        <ele>58.706152960658</ele>
        <time>2021-11-28T14:06:24Z</time>
      </trkpt>
      <trkpt lat="43.45815" lon="6.5928">
        <ele>58.705966547132</ele>
        <time>2021-11-28T14:06:25Z</time>
      </trkpt>
      <trkpt lat="43.45815" lon="6.59279">
        <ele>58.705956153572</ele>
        <time>2021-11-28T14:06:26Z</time>
      </trkpt>
      <trkpt lat="43.45811" lon="6.59279">
        <ele>58.706273324788</ele>
        <time>2021-11-28T14:06:28Z</time>
      </trkpt>
      <trkpt lat="43.45811" lon="6.59278">
        <ele>58.706251196563</ele>
        <time>2021-11-28T14:06:29Z</time>
      </trkpt>
      <trkpt lat="43.45808" lon="6.59278">
        <ele>58.706447668374</ele>
        <time>2021-11-28T14:06:30Z</time>
      </trkpt>
      <trkpt lat="43.45807" lon="6.59278">
        <ele>58.706556633115</ele>
        <time>2021-11-28T14:06:32Z</time>
      </trkpt>
      <trkpt lat="43.45807" lon="6.59278">
        <ele>58.706569708884</ele>
        <time>2021-11-28T14:06:33Z</time>
      </trkpt>
      <trkpt lat="43.45808" lon="6.59276">
        <ele>58.706428222358</ele>
        <time>2021-11-28T14:06:34Z</time>
      </trkpt>
      <trkpt lat="43.45805" lon="6.59278">
        <ele>58.706740029156</ele>
        <time>2021-11-28T14:06:36Z</time>
      </trkpt>
      <trkpt lat="43.45806" lon="6.5928">
        <ele>58.706701137125</ele>
        <time>2021-11-28T14:06:38Z</time>
      </trkpt>
      <trkpt lat="43.45807" lon="6.59281">
        <ele>58.706652522087</ele>
        <time>2021-11-28T14:06:39Z</time>
      </trkpt>
      <trkpt lat="43.45806" lon="6.59282">
        <ele>58.706759139895</ele>
        <time>2021-11-28T14:06:40Z</time>
      </trkpt>
      <trkpt lat="43.45806" lon="6.59283">
        <ele>57.706843294203</ele>
        <time>2021-11-28T14:06:42Z</time>
      </trkpt>
      <trkpt lat="43.45807" lon="6.59283">
        <ele>58.706704825163</ele>
        <time>2021-11-28T14:06:43Z</time>
      </trkpt>
      <trkpt lat="43.45808" lon="6.59282">
        <ele>57.706615641713</ele>
        <time>2021-11-28T14:06:44Z</time>
      </trkpt>
      <trkpt lat="43.45814" lon="6.5928">
        <ele>57.706113733351</ele>
        <time>2021-11-28T14:06:46Z</time>
      </trkpt>
      <trkpt lat="43.45816" lon="6.59281">
        <ele>57.705967888236</ele>
        <time>2021-11-28T14:06:47Z</time>
      </trkpt>
      <trkpt lat="43.45817" lon="6.59282">
        <ele>57.705899827182</ele>
        <time>2021-11-28T14:06:48Z</time>
      </trkpt>
      <trkpt lat="43.45819" lon="6.59281">
        <ele>57.705758005381</ele>
        <time>2021-11-28T14:06:49Z</time>
      </trkpt>
      <trkpt lat="43.45821" lon="6.59282">
        <ele>57.705620542169</ele>
        <time>2021-11-28T14:06:51Z</time>
      </trkpt>
      <trkpt lat="43.4582" lon="6.59284">
        <ele>57.705760017037</ele>
        <time>2021-11-28T14:06:52Z</time>
      </trkpt>
      <trkpt lat="43.4582" lon="6.59285">
        <ele>57.705810979009</ele>
        <time>2021-11-28T14:06:53Z</time>
      </trkpt>
      <trkpt lat="43.45819" lon="6.59286">
        <ele>57.705939389765</ele>
        <time>2021-11-28T14:06:54Z</time>
      </trkpt>
      <trkpt lat="43.45817" lon="6.5929">
        <ele>57.706202916801</ele>
        <time>2021-11-28T14:06:56Z</time>
      </trkpt>
      <trkpt lat="43.45818" lon="6.59294">
        <ele>57.706292100251</ele>
        <time>2021-11-28T14:06:58Z</time>
      </trkpt>
      <trkpt lat="43.45821" lon="6.59297">
        <ele>57.706231750548</ele>
        <time>2021-11-28T14:06:59Z</time>
      </trkpt>
      <trkpt lat="43.45821" lon="6.593">
        <ele>57.706304840744</ele>
        <time>2021-11-28T14:07:00Z</time>
      </trkpt>
      <trkpt lat="43.45827" lon="6.59309">
        <ele>58.706212975085</ele>
        <time>2021-11-28T14:07:02Z</time>
      </trkpt>
      <trkpt lat="43.45783" lon="6.59405">
        <ele>34.713567592204</ele>
        <time>2021-11-28T14:30:51Z</time>
      </trkpt>
      <trkpt lat="43.45782" lon="6.59403">
        <ele>33.71354278177</ele>
        <time>2021-11-28T14:30:53Z</time>
      </trkpt>
      <trkpt lat="43.45787" lon="6.59411">
        <ele>41.713534399867</ele>
        <time>2021-11-28T14:30:55Z</time>
      </trkpt>
      <trkpt lat="43.45786" lon="6.59414">
        <ele>45.713693991303</ele>
        <time>2021-11-28T14:30:56Z</time>
      </trkpt>
      <trkpt lat="43.45784" lon="6.59416">
        <ele>49.713896498084</ele>
        <time>2021-11-28T14:30:57Z</time>
      </trkpt>
      <trkpt lat="43.45786" lon="6.59419">
        <ele>51.713875040412</ele>
        <time>2021-11-28T14:30:58Z</time>
      </trkpt>
      <trkpt lat="43.45786" lon="6.59421">
        <ele>55.713963553309</ele>
        <time>2021-11-28T14:30:59Z</time>
      </trkpt>
      <trkpt lat="43.45785" lon="6.59421">
        <ele>55.714054748416</ele>
        <time>2021-11-28T14:31:01Z</time>
      </trkpt>
      <trkpt lat="43.45783" lon="6.59422">
        <ele>60.714253231883</ele>
        <time>2021-11-28T14:31:02Z</time>
      </trkpt>
      <trkpt lat="43.45782" lon="6.59424">
        <ele>67.714398741722</ele>
        <time>2021-11-28T14:31:03Z</time>
      </trkpt>
      <trkpt lat="43.4578" lon="6.5943">
        <ele>76.714819177985</ele>
        <time>2021-11-28T14:31:05Z</time>
      </trkpt>
      <trkpt lat="43.45776" lon="6.59428">
        <ele>78.715065605938</ele>
        <time>2021-11-28T14:31:06Z</time>
      </trkpt>
      <trkpt lat="43.45775" lon="6.5943">
        <ele>82.715245649219</ele>
        <time>2021-11-28T14:31:07Z</time>
      </trkpt>
      <trkpt lat="43.45771" lon="6.59433">
        <ele>90.715620487928</ele>
        <time>2021-11-28T14:31:09Z</time>
      </trkpt>
      <trkpt lat="43.45771" lon="6.59435">
        <ele>92.715721741319</ele>
        <time>2021-11-28T14:31:10Z</time>
      </trkpt>
      <trkpt lat="43.45771" lon="6.59441">
        <ele>100.71595710516</ele>
        <time>2021-11-28T14:31:11Z</time>
      </trkpt>
      <trkpt lat="43.45771" lon="6.5944">
        <ele>99.715922906995</ele>
        <time>2021-11-28T14:31:12Z</time>
      </trkpt>
      <trkpt lat="43.45774" lon="6.59439">
        <ele>94.715633898973</ele>
        <time>2021-11-28T14:31:14Z</time>
      </trkpt>
      <trkpt lat="43.45775" lon="6.59447">
        <ele>103.71589206159</ele>
        <time>2021-11-28T14:31:16Z</time>
      </trkpt>
      <trkpt lat="43.45774" lon="6.59446">
        <ele>103.71591418982</ele>
        <time>2021-11-28T14:31:17Z</time>
      </trkpt>
      <trkpt lat="43.45774" lon="6.59448">
        <ele>105.71596615762</ele>
        <time>2021-11-28T14:31:18Z</time>
      </trkpt>
      <trkpt lat="43.45774" lon="6.59446">
        <ele>105.7159101665</ele>
        <time>2021-11-28T14:31:20Z</time>
      </trkpt>
      <trkpt lat="43.45774" lon="6.59446">
        <ele>105.71591519564</ele>
        <time>2021-11-28T14:31:22Z</time>
      </trkpt>
      <trkpt lat="43.45774" lon="6.5944">
        <ele>101.71567748487</ele>
        <time>2021-11-28T14:31:24Z</time>
      </trkpt>
      <trkpt lat="43.45775" lon="6.59437">
        <ele>98.715495429933</ele>
        <time>2021-11-28T14:31:26Z</time>
      </trkpt>
      <trkpt lat="43.45775" lon="6.59436">
        <ele>98.715457879007</ele>
        <time>2021-11-28T14:31:27Z</time>
      </trkpt>
      <trkpt lat="43.45775" lon="6.59435">
        <ele>98.71542301029</ele>
        <time>2021-11-28T14:31:28Z</time>
      </trkpt>
      <trkpt lat="43.45774" lon="6.59433">
        <ele>97.715352937579</ele>
        <time>2021-11-28T14:31:30Z</time>
      </trkpt>
      <trkpt lat="43.45774" lon="6.59432">
        <ele>94.715336509049</ele>
        <time>2021-11-28T14:31:50Z</time>
      </trkpt>
      <trkpt lat="43.45775" lon="6.5943">
        <ele>92.715185634792</ele>
        <time>2021-11-28T14:31:51Z</time>
      </trkpt>
      <trkpt lat="43.45775" lon="6.5943">
        <ele>92.715198040009</ele>
        <time>2021-11-28T14:31:54Z</time>
      </trkpt>
      <trkpt lat="43.45774" lon="6.5943">
        <ele>91.715240284801</ele>
        <time>2021-11-28T14:31:56Z</time>
      </trkpt>
      <trkpt lat="43.45774" lon="6.5943">
        <ele>91.71527582407</ele>
        <time>2021-11-28T14:31:58Z</time>
      </trkpt>
      <trkpt lat="43.45773" lon="6.5943">
        <ele>91.715379424393</ele>
        <time>2021-11-28T14:32:00Z</time>
      </trkpt>
      <trkpt lat="43.45772" lon="6.59431">
        <ele>91.715468943119</ele>
        <time>2021-11-28T14:32:01Z</time>
      </trkpt>
      <trkpt lat="43.45772" lon="6.59431">
        <ele>91.715500794351</ele>
        <time>2021-11-28T14:32:03Z</time>
      </trkpt>
      <trkpt lat="43.45771" lon="6.59431">
        <ele>90.715541362762</ele>
        <time>2021-11-28T14:32:05Z</time>
      </trkpt>
      <trkpt lat="43.45771" lon="6.59432">
        <ele>90.715584613383</ele>
        <time>2021-11-28T14:32:06Z</time>
      </trkpt>
      <trkpt lat="43.45772" lon="6.59433">
        <ele>91.715572878718</ele>
        <time>2021-11-28T14:32:07Z</time>
      </trkpt>
      <trkpt lat="43.45773" lon="6.59437">
        <ele>93.715653009713</ele>
        <time>2021-11-28T14:32:09Z</time>
      </trkpt>
      <trkpt lat="43.45773" lon="6.59438">
        <ele>94.715698607266</ele>
        <time>2021-11-28T14:32:11Z</time>
      </trkpt>
      <trkpt lat="43.45772" lon="6.5944">
        <ele>95.715801537037</ele>
        <time>2021-11-28T14:32:12Z</time>
      </trkpt>
      <trkpt lat="43.45772" lon="6.59441">
        <ele>95.715902455151</ele>
        <time>2021-11-28T14:32:13Z</time>
      </trkpt>
      <trkpt lat="43.45772" lon="6.59441">
        <ele>94.715888373554</ele>
        <time>2021-11-28T14:32:17Z</time>
      </trkpt>
      <trkpt lat="43.45773" lon="6.59442">
        <ele>93.715858869255</ele>
        <time>2021-11-28T14:32:18Z</time>
      </trkpt>
      <trkpt lat="43.45773" lon="6.59443">
        <ele>92.715844452381</ele>
        <time>2021-11-28T14:32:21Z</time>
      </trkpt>
      <trkpt lat="43.45774" lon="6.59443">
        <ele>92.71583674103</ele>
        <time>2021-11-28T14:32:22Z</time>
      </trkpt>
      <trkpt lat="43.45774" lon="6.59444">
        <ele>91.715823665261</ele>
        <time>2021-11-28T14:32:23Z</time>
      </trkpt>
      <trkpt lat="43.45774" lon="6.59444">
        <ele>91.715864568949</ele>
        <time>2021-11-28T14:32:24Z</time>
      </trkpt>
      <trkpt lat="43.45775" lon="6.59445">
        <ele>91.715803213418</ele>
        <time>2021-11-28T14:32:26Z</time>
      </trkpt>
      <trkpt lat="43.45775" lon="6.59444">
        <ele>90.715730793774</ele>
        <time>2021-11-28T14:32:27Z</time>
      </trkpt>
      <trkpt lat="43.45775" lon="6.59445">
        <ele>90.715829364955</ele>
        <time>2021-11-28T14:32:29Z</time>
      </trkpt>
      <trkpt lat="43.45774" lon="6.59445">
        <ele>90.71590077877</ele>
        <time>2021-11-28T14:32:31Z</time>
      </trkpt>
      <trkpt lat="43.45773" lon="6.59445">
        <ele>91.715924248099</ele>
        <time>2021-11-28T14:32:33Z</time>
      </trkpt>
      <trkpt lat="43.45775" lon="6.59444">
        <ele>90.715792484581</ele>
        <time>2021-11-28T14:32:35Z</time>
      </trkpt>
      <trkpt lat="43.45776" lon="6.59445">
        <ele>91.715754933655</ele>
        <time>2021-11-28T14:32:36Z</time>
      </trkpt>
      <trkpt lat="43.45776" lon="6.59445">
        <ele>91.715750575066</ele>
        <time>2021-11-28T14:32:37Z</time>
      </trkpt>
      <trkpt lat="43.45777" lon="6.59445">
        <ele>90.715655691922</ele>
        <time>2021-11-28T14:32:38Z</time>
      </trkpt>
      <trkpt lat="43.45776" lon="6.59444">
        <ele>90.715643621981</ele>
        <time>2021-11-28T14:32:41Z</time>
      </trkpt>
      <trkpt lat="43.45776" lon="6.59443">
        <ele>90.715663738549</ele>
        <time>2021-11-28T14:32:46Z</time>
      </trkpt>
      <trkpt lat="43.45776" lon="6.59442">
        <ele>89.715589307249</ele>
        <time>2021-11-28T14:32:47Z</time>
      </trkpt>
      <trkpt lat="43.45776" lon="6.59441">
        <ele>89.715554438531</ele>
        <time>2021-11-28T14:32:50Z</time>
      </trkpt>
      <trkpt lat="43.45775" lon="6.59442">
        <ele>89.715653009713</ele>
        <time>2021-11-28T14:32:51Z</time>
      </trkpt>
      <trkpt lat="43.45774" lon="6.59442">
        <ele>89.7157683447</ele>
        <time>2021-11-28T14:32:52Z</time>
      </trkpt>
      <trkpt lat="43.45773" lon="6.59443">
        <ele>89.715837746859</ele>
        <time>2021-11-28T14:32:53Z</time>
      </trkpt>
      <trkpt lat="43.45773" lon="6.59442">
        <ele>89.715845122933</ele>
        <time>2021-11-28T14:32:55Z</time>
      </trkpt>
      <trkpt lat="43.45773" lon="6.59441">
        <ele>89.715775050223</ele>
        <time>2021-11-28T14:32:56Z</time>
      </trkpt>
      <trkpt lat="43.45774" lon="6.5944">
        <ele>89.715703971684</ele>
        <time>2021-11-28T14:32:59Z</time>
      </trkpt>
      <trkpt lat="43.45774" lon="6.59439">
        <ele>89.715636581182</ele>
        <time>2021-11-28T14:33:01Z</time>
      </trkpt>
      <trkpt lat="43.45774" lon="6.59438">
        <ele>89.715630546212</ele>
        <time>2021-11-28T14:33:03Z</time>
      </trkpt>
      <trkpt lat="43.45774" lon="6.59437">
        <ele>89.715595342219</ele>
        <time>2021-11-28T14:33:05Z</time>
      </trkpt>
      <trkpt lat="43.45774" lon="6.59436">
        <ele>89.715503141284</ele>
        <time>2021-11-28T14:33:06Z</time>
      </trkpt>
      <trkpt lat="43.45775" lon="6.59437">
        <ele>88.715462237597</ele>
        <time>2021-11-28T14:33:09Z</time>
      </trkpt>
      <trkpt lat="43.45776" lon="6.59437">
        <ele>88.715392164886</ele>
        <time>2021-11-28T14:33:13Z</time>
      </trkpt>
      <trkpt lat="43.45776" lon="6.59438">
        <ele>87.71548101306</ele>
        <time>2021-11-28T14:33:15Z</time>
      </trkpt>
      <trkpt lat="43.45775" lon="6.59439">
        <ele>87.715530969203</ele>
        <time>2021-11-28T14:33:16Z</time>
      </trkpt>
      <trkpt lat="43.45775" lon="6.5944">
        <ele>86.715618476272</ele>
        <time>2021-11-28T14:33:17Z</time>
      </trkpt>
      <trkpt lat="43.45775" lon="6.59441">
        <ele>83.715625181794</ele>
        <time>2021-11-28T14:33:22Z</time>
      </trkpt>
      <trkpt lat="43.45775" lon="6.59442">
        <ele>82.715653009713</ele>
        <time>2021-11-28T14:33:23Z</time>
      </trkpt>
      <trkpt lat="43.45776" lon="6.59442">
        <ele>81.715556450188</ele>
        <time>2021-11-28T14:33:25Z</time>
      </trkpt>
      <trkpt lat="43.45778" lon="6.59441">
        <ele>81.715383782983</ele>
        <time>2021-11-28T14:33:26Z</time>
      </trkpt>
      <trkpt lat="43.45779" lon="6.5944">
        <ele>80.715274147689</ele>
        <time>2021-11-28T14:33:27Z</time>
      </trkpt>
      <trkpt lat="43.4578" lon="6.59438">
        <ele>79.715093769133</ele>
        <time>2021-11-28T14:33:29Z</time>
      </trkpt>
      <trkpt lat="43.45782" lon="6.59437">
        <ele>79.714902661741</ele>
        <time>2021-11-28T14:33:31Z</time>
      </trkpt>
      <trkpt lat="43.45783" lon="6.59436">
        <ele>79.714821189642</ele>
        <time>2021-11-28T14:33:32Z</time>
      </trkpt>
      <trkpt lat="43.45784" lon="6.59435">
        <ele>79.71473133564</ele>
        <time>2021-11-28T14:33:33Z</time>
      </trkpt>
      <trkpt lat="43.45785" lon="6.59434">
        <ele>77.714550286531</ele>
        <time>2021-11-28T14:33:35Z</time>
      </trkpt>
      <trkpt lat="43.45786" lon="6.59435">
        <ele>77.714512400329</ele>
        <time>2021-11-28T14:33:36Z</time>
      </trkpt>
      <trkpt lat="43.45786" lon="6.59436">
        <ele>77.714542239904</ele>
        <time>2021-11-28T14:33:37Z</time>
      </trkpt>
      <trkpt lat="43.45787" lon="6.59437">
        <ele>76.714517764747</ele>
        <time>2021-11-28T14:33:40Z</time>
      </trkpt>
      <trkpt lat="43.45787" lon="6.59436">
        <ele>75.714457079768</ele>
        <time>2021-11-28T14:33:41Z</time>
      </trkpt>
      <trkpt lat="43.45788" lon="6.59436">
        <ele>74.714398741722</ele>
        <time>2021-11-28T14:33:42Z</time>
      </trkpt>
      <trkpt lat="43.45789" lon="6.59435">
        <ele>74.714302517474</ele>
        <time>2021-11-28T14:33:44Z</time>
      </trkpt>
      <trkpt lat="43.45789" lon="6.59434">
        <ele>74.714231438935</ele>
        <time>2021-11-28T14:33:46Z</time>
      </trkpt>
      <trkpt lat="43.4579" lon="6.59434">
        <ele>73.714130856097</ele>
        <time>2021-11-28T14:33:47Z</time>
      </trkpt>
      <trkpt lat="43.4579" lon="6.59434">
        <ele>73.71411845088</ele>
        <time>2021-11-28T14:33:48Z</time>
      </trkpt>
      <trkpt lat="43.45791" lon="6.59433">
        <ele>73.714037649333</ele>
        <time>2021-11-28T14:33:50Z</time>
      </trkpt>
      <trkpt lat="43.45792" lon="6.59434">
        <ele>72.71402926743</ele>
        <time>2021-11-28T14:33:51Z</time>
      </trkpt>
      <trkpt lat="43.45792" lon="6.59435">
        <ele>72.714066147804</ele>
        <time>2021-11-28T14:33:52Z</time>
      </trkpt>
      <trkpt lat="43.45793" lon="6.59437">
        <ele>72.7140872702</ele>
        <time>2021-11-28T14:33:53Z</time>
      </trkpt>
      <trkpt lat="43.45793" lon="6.59439">
        <ele>72.714117445052</ele>
        <time>2021-11-28T14:33:54Z</time>
      </trkpt>
      <trkpt lat="43.45794" lon="6.5944">
        <ele>71.714086934924</ele>
        <time>2021-11-28T14:33:55Z</time>
      </trkpt>
      <trkpt lat="43.45795" lon="6.5944">
        <ele>71.714015521109</ele>
        <time>2021-11-28T14:33:56Z</time>
      </trkpt>
      <trkpt lat="43.45795" lon="6.59439">
        <ele>70.713933043182</ele>
        <time>2021-11-28T14:33:58Z</time>
      </trkpt>
      <trkpt lat="43.45796" lon="6.59438">
        <ele>69.713865987957</ele>
        <time>2021-11-28T14:34:00Z</time>
      </trkpt>
      <trkpt lat="43.45796" lon="6.59437">
        <ele>68.713814690709</ele>
        <time>2021-11-28T14:34:01Z</time>
      </trkpt>
      <trkpt lat="43.45797" lon="6.59437">
        <ele>68.713737912476</ele>
        <time>2021-11-28T14:34:02Z</time>
      </trkpt>
      <trkpt lat="43.45798" lon="6.59437">
        <ele>68.71366918087</ele>
        <time>2021-11-28T14:34:04Z</time>
      </trkpt>
      <trkpt lat="43.45797" lon="6.59437">
        <ele>67.713693320751</ele>
        <time>2021-11-28T14:34:09Z</time>
      </trkpt>
      <trkpt lat="43.45798" lon="6.59436">
        <ele>65.713650070131</ele>
        <time>2021-11-28T14:34:13Z</time>
      </trkpt>
      <trkpt lat="43.45799" lon="6.59436">
        <ele>65.713548816741</ele>
        <time>2021-11-28T14:34:15Z</time>
      </trkpt>
      <trkpt lat="43.45799" lon="6.59436">
        <ele>65.713500872254</ele>
        <time>2021-11-28T14:34:16Z</time>
      </trkpt>
      <trkpt lat="43.458" lon="6.59435">
        <ele>65.71339827776</ele>
        <time>2021-11-28T14:34:17Z</time>
      </trkpt>
      <trkpt lat="43.45801" lon="6.59435">
        <ele>64.713297694921</ele>
        <time>2021-11-28T14:34:18Z</time>
      </trkpt>
      <trkpt lat="43.45801" lon="6.59433">
        <ele>63.713278584182</ele>
        <time>2021-11-28T14:34:20Z</time>
      </trkpt>
      <trkpt lat="43.45801" lon="6.59433">
        <ele>62.71322426945</ele>
        <time>2021-11-28T14:34:22Z</time>
      </trkpt>
      <trkpt lat="43.45802" lon="6.59432">
        <ele>62.713152185082</ele>
        <time>2021-11-28T14:34:24Z</time>
      </trkpt>
      <trkpt lat="43.45803" lon="6.59431">
        <ele>61.713014386594</ele>
        <time>2021-11-28T14:34:26Z</time>
      </trkpt>
      <trkpt lat="43.45804" lon="6.59431">
        <ele>61.712911121547</ele>
        <time>2021-11-28T14:34:27Z</time>
      </trkpt>
      <trkpt lat="43.45806" lon="6.59432">
        <ele>62.712829984725</ele>
        <time>2021-11-28T14:34:28Z</time>
      </trkpt>
      <trkpt lat="43.45808" lon="6.59432">
        <ele>62.712690845132</ele>
        <time>2021-11-28T14:34:30Z</time>
      </trkpt>
      <trkpt lat="43.45808" lon="6.59432">
        <ele>61.712655976415</ele>
        <time>2021-11-28T14:34:32Z</time>
      </trkpt>
      <trkpt lat="43.45808" lon="6.59434">
        <ele>61.712719678879</ele>
        <time>2021-11-28T14:34:34Z</time>
      </trkpt>
      <trkpt lat="43.45807" lon="6.59434">
        <ele>61.712795116007</ele>
        <time>2021-11-28T14:34:36Z</time>
      </trkpt>
      <trkpt lat="43.45808" lon="6.59435">
        <ele>60.712770305574</ele>
        <time>2021-11-28T14:34:39Z</time>
      </trkpt>
      <trkpt lat="43.45809" lon="6.59435">
        <ele>61.712677434087</ele>
        <time>2021-11-28T14:34:41Z</time>
      </trkpt>
      <trkpt lat="43.4581" lon="6.59436">
        <ele>61.712654300034</ele>
        <time>2021-11-28T14:34:42Z</time>
      </trkpt>
      <trkpt lat="43.4581" lon="6.59435">
        <ele>61.712606355548</ele>
        <time>2021-11-28T14:34:46Z</time>
      </trkpt>
      <trkpt lat="43.45811" lon="6.59437">
        <ele>59.712625801563</ele>
        <time>2021-11-28T14:34:47Z</time>
      </trkpt>
      <trkpt lat="43.45811" lon="6.59438">
        <ele>58.712620101869</ele>
        <time>2021-11-28T14:34:49Z</time>
      </trkpt>
      <trkpt lat="43.45812" lon="6.59439">
        <ele>58.712614737451</ele>
        <time>2021-11-28T14:34:51Z</time>
      </trkpt>
      <trkpt lat="43.45812" lon="6.5944">
        <ele>57.712661676109</ele>
        <time>2021-11-28T14:34:55Z</time>
      </trkpt>
      <trkpt lat="43.45811" lon="6.59441">
        <ele>56.712721690536</ele>
        <time>2021-11-28T14:34:56Z</time>
      </trkpt>
      <trkpt lat="43.45811" lon="6.59442">
        <ele>56.712794780731</ele>
        <time>2021-11-28T14:34:57Z</time>
      </trkpt>
      <trkpt lat="43.4581" lon="6.59442">
        <ele>54.712831996381</ele>
        <time>2021-11-28T14:35:28Z</time>
      </trkpt>
      <trkpt lat="43.4581" lon="6.59444">
        <ele>55.712923526764</ele>
        <time>2021-11-28T14:35:29Z</time>
      </trkpt>
      <trkpt lat="43.4581" lon="6.59445">
        <ele>56.712970800698</ele>
        <time>2021-11-28T14:35:31Z</time>
      </trkpt>
      <trkpt lat="43.4581" lon="6.59445">
        <ele>57.712971806526</ele>
        <time>2021-11-28T14:35:35Z</time>
      </trkpt>
      <trkpt lat="43.4581" lon="6.59446">
        <ele>56.71304422617</ele>
        <time>2021-11-28T14:35:36Z</time>
      </trkpt>
      <trkpt lat="43.4581" lon="6.59447">
        <ele>56.71307104826</ele>
        <time>2021-11-28T14:35:37Z</time>
      </trkpt>
      <trkpt lat="43.4581" lon="6.59448">
        <ele>57.713084459305</ele>
        <time>2021-11-28T14:35:46Z</time>
      </trkpt>
      <trkpt lat="43.45811" lon="6.59449">
        <ele>56.713098540902</ele>
        <time>2021-11-28T14:35:47Z</time>
      </trkpt>
      <trkpt lat="43.45812" lon="6.59449">
        <ele>56.713022097945</ele>
        <time>2021-11-28T14:35:49Z</time>
      </trkpt>
      <trkpt lat="43.45812" lon="6.5945">
        <ele>57.71301908046</ele>
        <time>2021-11-28T14:35:50Z</time>
      </trkpt>
      <trkpt lat="43.45812" lon="6.5945">
        <ele>58.713017068803</ele>
        <time>2021-11-28T14:35:51Z</time>
      </trkpt>
      <trkpt lat="43.45813" lon="6.59451">
        <ele>58.713043220341</ele>
        <time>2021-11-28T14:35:52Z</time>
      </trkpt>
      <trkpt lat="43.45813" lon="6.59452">
        <ele>57.713027797639</ele>
        <time>2021-11-28T14:35:55Z</time>
      </trkpt>
      <trkpt lat="43.45814" lon="6.59452">
        <ele>57.712983205914</ele>
        <time>2021-11-28T14:35:56Z</time>
      </trkpt>
      <trkpt lat="43.45814" lon="6.59453">
        <ele>58.712979517877</ele>
        <time>2021-11-28T14:35:57Z</time>
      </trkpt>
      <trkpt lat="43.45815" lon="6.59454">
        <ele>58.712929226458</ele>
        <time>2021-11-28T14:35:58Z</time>
      </trkpt>
      <trkpt lat="43.45815" lon="6.59453">
        <ele>57.712919838727</ele>
        <time>2021-11-28T14:35:59Z</time>
      </trkpt>
      <trkpt lat="43.45816" lon="6.59454">
        <ele>57.712858147919</ele>
        <time>2021-11-28T14:36:01Z</time>
      </trkpt>
      <trkpt lat="43.45817" lon="6.59455">
        <ele>57.712791763246</ele>
        <time>2021-11-28T14:36:02Z</time>
      </trkpt>
      <trkpt lat="43.45818" lon="6.59454">
        <ele>57.712713979185</ele>
        <time>2021-11-28T14:36:03Z</time>
      </trkpt>
      <trkpt lat="43.45819" lon="6.59454">
        <ele>57.712661005557</ele>
        <time>2021-11-28T14:36:04Z</time>
      </trkpt>
      <trkpt lat="43.4582" lon="6.59454">
        <ele>57.712554387748</ele>
        <time>2021-11-28T14:36:06Z</time>
      </trkpt>
      <trkpt lat="43.4582" lon="6.59453">
        <ele>57.712503090501</ele>
        <time>2021-11-28T14:36:14Z</time>
      </trkpt>
      <trkpt lat="43.45822" lon="6.59452">
        <ele>56.712280467153</ele>
        <time>2021-11-28T14:36:16Z</time>
      </trkpt>
      <trkpt lat="43.45823" lon="6.59451">
        <ele>55.712220452726</ele>
        <time>2021-11-28T14:36:17Z</time>
      </trkpt>
      <trkpt lat="43.45823" lon="6.5945">
        <ele>55.712138980627</ele>
        <time>2021-11-28T14:36:19Z</time>
      </trkpt>
      <trkpt lat="43.45825" lon="6.5945">
        <ele>56.712007887661</ele>
        <time>2021-11-28T14:36:21Z</time>
      </trkpt>
      <trkpt lat="43.45825" lon="6.59449">
        <ele>56.71197335422</ele>
        <time>2021-11-28T14:36:22Z</time>
      </trkpt>
      <trkpt lat="43.45826" lon="6.59449">
        <ele>56.711897581816</ele>
        <time>2021-11-28T14:36:23Z</time>
      </trkpt>
      <trkpt lat="43.45826" lon="6.59449">
        <ele>57.711859025061</ele>
        <time>2021-11-28T14:36:26Z</time>
      </trkpt>
      <trkpt lat="43.45827" lon="6.59449">
        <ele>56.711777552962</ele>
        <time>2021-11-28T14:36:27Z</time>
      </trkpt>
      <trkpt lat="43.45828" lon="6.59449">
        <ele>55.711721897125</ele>
        <time>2021-11-28T14:36:29Z</time>
      </trkpt>
      <trkpt lat="43.45829" lon="6.5945">
        <ele>56.71170848608</ele>
        <time>2021-11-28T14:36:31Z</time>
      </trkpt>
      <trkpt lat="43.4583" lon="6.5945">
        <ele>56.711619973183</ele>
        <time>2021-11-28T14:36:32Z</time>
      </trkpt>
      <trkpt lat="43.4583" lon="6.5945">
        <ele>55.711563646793</ele>
        <time>2021-11-28T14:36:33Z</time>
      </trkpt>
      <trkpt lat="43.45831" lon="6.59449">
        <ele>55.711479157209</ele>
        <time>2021-11-28T14:36:35Z</time>
      </trkpt>
      <trkpt lat="43.45832" lon="6.59449">
        <ele>55.711393326521</ele>
        <time>2021-11-28T14:36:36Z</time>
      </trkpt>
      <trkpt lat="43.45833" lon="6.59449">
        <ele>55.711338676512</ele>
        <time>2021-11-28T14:36:37Z</time>
      </trkpt>
      <trkpt lat="43.45834" lon="6.59449">
        <ele>54.711212947965</ele>
        <time>2021-11-28T14:36:39Z</time>
      </trkpt>
      <trkpt lat="43.45836" lon="6.59449">
        <ele>53.711081184447</ele>
        <time>2021-11-28T14:36:41Z</time>
      </trkpt>
      <trkpt lat="43.45836" lon="6.59452">
        <ele>52.711160980165</ele>
        <time>2021-11-28T14:36:42Z</time>
      </trkpt>
      <trkpt lat="43.45837" lon="6.59454">
        <ele>52.711234740913</ele>
        <time>2021-11-28T14:36:43Z</time>
      </trkpt>
      <trkpt lat="43.45837" lon="6.59457">
        <ele>51.711305484176</ele>
        <time>2021-11-28T14:36:45Z</time>
      </trkpt>
      <trkpt lat="43.45838" lon="6.59459">
        <ele>50.711346723139</ele>
        <time>2021-11-28T14:36:46Z</time>
      </trkpt>
      <trkpt lat="43.45838" lon="6.59461">
        <ele>49.711413443089</ele>
        <time>2021-11-28T14:36:47Z</time>
      </trkpt>
      <trkpt lat="43.45839" lon="6.59463">
        <ele>48.711431547999</ele>
        <time>2021-11-28T14:36:49Z</time>
      </trkpt>
      <trkpt lat="43.45839" lon="6.59466">
        <ele>47.711475469172</ele>
        <time>2021-11-28T14:36:51Z</time>
      </trkpt>
      <trkpt lat="43.4584" lon="6.59465">
        <ele>47.711399361491</ele>
        <time>2021-11-28T14:36:54Z</time>
      </trkpt>
      <trkpt lat="43.45841" lon="6.59467">
        <ele>48.711371533573</ele>
        <time>2021-11-28T14:36:56Z</time>
      </trkpt>
      <trkpt lat="43.45842" lon="6.59468">
        <ele>48.711371198297</ele>
        <time>2021-11-28T14:36:57Z</time>
      </trkpt>
      <trkpt lat="43.45843" lon="6.5947">
        <ele>48.711359798908</ele>
        <time>2021-11-28T14:36:58Z</time>
      </trkpt>
      <trkpt lat="43.45844" lon="6.59472">
        <ele>47.711386620998</ele>
        <time>2021-11-28T14:37:00Z</time>
      </trkpt>
      <trkpt lat="43.45845" lon="6.59474">
        <ele>47.711391314864</ele>
        <time>2021-11-28T14:37:01Z</time>
      </trkpt>
      <trkpt lat="43.45845" lon="6.59476">
        <ele>46.711490891874</ele>
        <time>2021-11-28T14:37:02Z</time>
      </trkpt>
      <trkpt lat="43.45845" lon="6.59478">
        <ele>45.71153883636</ele>
        <time>2021-11-28T14:37:04Z</time>
      </trkpt>
      <trkpt lat="43.45846" lon="6.5948">
        <ele>45.711540177464</ele>
        <time>2021-11-28T14:37:05Z</time>
      </trkpt>
      <trkpt lat="43.45846" lon="6.59482">
        <ele>46.711554259062</ele>
        <time>2021-11-28T14:37:07Z</time>
      </trkpt>
      <trkpt lat="43.45847" lon="6.59483">
        <ele>46.711541518569</ele>
        <time>2021-11-28T14:37:08Z</time>
      </trkpt>
      <trkpt lat="43.45848" lon="6.59485">
        <ele>47.711582757533</ele>
        <time>2021-11-28T14:37:09Z</time>
      </trkpt>
      <trkpt lat="43.45849" lon="6.59486">
        <ele>47.711550571024</ele>
        <time>2021-11-28T14:37:10Z</time>
      </trkpt>
      <trkpt lat="43.45849" lon="6.59488">
        <ele>47.711569011211</ele>
        <time>2021-11-28T14:37:11Z</time>
      </trkpt>
      <trkpt lat="43.4585" lon="6.59489">
        <ele>47.71159248054</ele>
        <time>2021-11-28T14:37:12Z</time>
      </trkpt>
      <trkpt lat="43.45851" lon="6.5949">
        <ele>47.711551576853</ele>
        <time>2021-11-28T14:37:13Z</time>
      </trkpt>
      <trkpt lat="43.45852" lon="6.59491">
        <ele>47.711527101696</ele>
        <time>2021-11-28T14:37:14Z</time>
      </trkpt>
      <trkpt lat="43.45852" lon="6.59492">
        <ele>47.711506985128</ele>
        <time>2021-11-28T14:37:15Z</time>
      </trkpt>
      <trkpt lat="43.45853" lon="6.59492">
        <ele>46.711453340948</ele>
        <time>2021-11-28T14:37:16Z</time>
      </trkpt>
      <trkpt lat="43.45853" lon="6.59493">
        <ele>46.711442612112</ele>
        <time>2021-11-28T14:37:17Z</time>
      </trkpt>
      <trkpt lat="43.45854" lon="6.59494">
        <ele>46.71141076088</ele>
        <time>2021-11-28T14:37:18Z</time>
      </trkpt>
      <trkpt lat="43.45855" lon="6.59494">
        <ele>45.711389303207</ele>
        <time>2021-11-28T14:37:19Z</time>
      </trkpt>
      <trkpt lat="43.45856" lon="6.59496">
        <ele>45.711346052587</ele>
        <time>2021-11-28T14:37:20Z</time>
      </trkpt>
      <trkpt lat="43.45857" lon="6.59497">
        <ele>46.71132325381</ele>
        <time>2021-11-28T14:37:21Z</time>
      </trkpt>
      <trkpt lat="43.45858" lon="6.59499">
        <ele>46.711347058415</ele>
        <time>2021-11-28T14:37:22Z</time>
      </trkpt>
      <trkpt lat="43.45858" lon="6.59501">
        <ele>46.711433559656</ele>
        <time>2021-11-28T14:37:23Z</time>
      </trkpt>
      <trkpt lat="43.45857" lon="6.59503">
        <ele>46.711507990956</ele>
        <time>2021-11-28T14:37:24Z</time>
      </trkpt>
      <trkpt lat="43.45857" lon="6.59504">
        <ele>46.711565993726</ele>
        <time>2021-11-28T14:37:25Z</time>
      </trkpt>
      <trkpt lat="43.45857" lon="6.59504">
        <ele>46.711582422256</ele>
        <time>2021-11-28T14:37:26Z</time>
      </trkpt>
      <trkpt lat="43.45857" lon="6.59506">
        <ele>46.711633384228</ele>
        <time>2021-11-28T14:37:27Z</time>
      </trkpt>
      <trkpt lat="43.45857" lon="6.59507">
        <ele>46.711676634848</ele>
        <time>2021-11-28T14:37:28Z</time>
      </trkpt>
      <trkpt lat="43.45857" lon="6.59507">
        <ele>46.711689375341</ele>
        <time>2021-11-28T14:37:29Z</time>
      </trkpt>
      <trkpt lat="43.45858" lon="6.59508">
        <ele>45.711669258773</ele>
        <time>2021-11-28T14:37:30Z</time>
      </trkpt>
      <trkpt lat="43.45859" lon="6.59509">
        <ele>45.711678646505</ele>
        <time>2021-11-28T14:37:31Z</time>
      </trkpt>
      <trkpt lat="43.45859" lon="6.5951">
        <ele>45.711647130549</ele>
        <time>2021-11-28T14:37:32Z</time>
      </trkpt>
      <trkpt lat="43.4586" lon="6.59511">
        <ele>45.711603209376</ele>
        <time>2021-11-28T14:37:33Z</time>
      </trkpt>
      <trkpt lat="43.45861" lon="6.59512">
        <ele>45.711620643735</ele>
        <time>2021-11-28T14:37:34Z</time>
      </trkpt>
      <trkpt lat="43.45861" lon="6.59515">
        <ele>45.711693733931</ele>
        <time>2021-11-28T14:37:36Z</time>
      </trkpt>
      <trkpt lat="43.45862" lon="6.59517">
        <ele>46.711728602648</ele>
        <time>2021-11-28T14:37:37Z</time>
      </trkpt>
      <trkpt lat="43.45863" lon="6.59518">
        <ele>46.711701445282</ele>
        <time>2021-11-28T14:37:38Z</time>
      </trkpt>
      <trkpt lat="43.45863" lon="6.59519">
        <ele>45.711674287915</ele>
        <time>2021-11-28T14:37:39Z</time>
      </trkpt>
      <trkpt lat="43.45864" lon="6.59519">
        <ele>45.711631372571</ele>
        <time>2021-11-28T14:37:40Z</time>
      </trkpt>
      <trkpt lat="43.45865" lon="6.5952">
        <ele>45.711587116122</ele>
        <time>2021-11-28T14:37:41Z</time>
      </trkpt>
      <trkpt lat="43.45866" lon="6.59521">
        <ele>45.71157001704</ele>
        <time>2021-11-28T14:37:42Z</time>
      </trkpt>
      <trkpt lat="43.45867" lon="6.59523">
        <ele>44.711570687592</ele>
        <time>2021-11-28T14:37:43Z</time>
      </trkpt>
      <trkpt lat="43.45867" lon="6.59525">
        <ele>45.71158644557</ele>
        <time>2021-11-28T14:37:44Z</time>
      </trkpt>
      <trkpt lat="43.45868" lon="6.59526">
        <ele>44.711580745876</ele>
        <time>2021-11-28T14:37:45Z</time>
      </trkpt>
      <trkpt lat="43.45869" lon="6.59528">
        <ele>44.711562305689</ele>
        <time>2021-11-28T14:37:46Z</time>
      </trkpt>
      <trkpt lat="43.4587" lon="6.5953">
        <ele>43.71162366122</ele>
        <time>2021-11-28T14:37:47Z</time>
      </trkpt>
      <trkpt lat="43.4587" lon="6.59531">
        <ele>43.711673282087</ele>
        <time>2021-11-28T14:37:48Z</time>
      </trkpt>
      <trkpt lat="43.4587" lon="6.59533">
        <ele>43.711717538536</ele>
        <time>2021-11-28T14:37:49Z</time>
      </trkpt>
      <trkpt lat="43.4587" lon="6.59534">
        <ele>43.711720556021</ele>
        <time>2021-11-28T14:37:50Z</time>
      </trkpt>
      <trkpt lat="43.45873" lon="6.59536">
        <ele>43.711621649563</ele>
        <time>2021-11-28T14:37:52Z</time>
      </trkpt>
      <trkpt lat="43.45873" lon="6.59536">
        <ele>43.711578734219</ele>
        <time>2021-11-28T14:37:53Z</time>
      </trkpt>
      <trkpt lat="43.45875" lon="6.59537">
        <ele>42.711484856904</ele>
        <time>2021-11-28T14:37:55Z</time>
      </trkpt>
      <trkpt lat="43.45876" lon="6.59537">
        <ele>42.711421489716</ele>
        <time>2021-11-28T14:37:56Z</time>
      </trkpt>
      <trkpt lat="43.45877" lon="6.59537">
        <ele>42.711347728968</ele>
        <time>2021-11-28T14:37:57Z</time>
      </trkpt>
      <trkpt lat="43.45879" lon="6.59537">
        <ele>42.711161985993</ele>
        <time>2021-11-28T14:37:59Z</time>
      </trkpt>
      <trkpt lat="43.45881" lon="6.59536">
        <ele>41.711005747318</ele>
        <time>2021-11-28T14:38:01Z</time>
      </trkpt>
      <trkpt lat="43.45881" lon="6.59537">
        <ele>41.710953108966</ele>
        <time>2021-11-28T14:38:02Z</time>
      </trkpt>
      <trkpt lat="43.45882" lon="6.59538">
        <ele>41.710943050683</ele>
        <time>2021-11-28T14:38:03Z</time>
      </trkpt>
      <trkpt lat="43.45884" lon="6.59539">
        <ele>40.710879012942</ele>
        <time>2021-11-28T14:38:05Z</time>
      </trkpt>
      <trkpt lat="43.45884" lon="6.59541">
        <ele>40.710883036256</ele>
        <time>2021-11-28T14:38:06Z</time>
      </trkpt>
      <trkpt lat="43.45885" lon="6.59542">
        <ele>40.710868284106</ele>
        <time>2021-11-28T14:38:07Z</time>
      </trkpt>
      <trkpt lat="43.45886" lon="6.59543">
        <ele>39.710856549442</ele>
        <time>2021-11-28T14:38:08Z</time>
      </trkpt>
      <trkpt lat="43.45887" lon="6.59545">
        <ele>39.710838779807</ele>
        <time>2021-11-28T14:38:09Z</time>
      </trkpt>
      <trkpt lat="43.45888" lon="6.59547">
        <ele>38.710894435644</ele>
        <time>2021-11-28T14:38:10Z</time>
      </trkpt>
      <trkpt lat="43.45888" lon="6.59549">
        <ele>38.710963502526</ele>
        <time>2021-11-28T14:38:11Z</time>
      </trkpt>
      <trkpt lat="43.45888" lon="6.59551">
        <ele>38.710978925228</ele>
        <time>2021-11-28T14:38:12Z</time>
      </trkpt>
      <trkpt lat="43.45889" lon="6.59553">
        <ele>38.711037263274</ele>
        <time>2021-11-28T14:38:13Z</time>
      </trkpt>
      <trkpt lat="43.45889" lon="6.59556">
        <ele>38.711109012365</ele>
        <time>2021-11-28T14:38:15Z</time>
      </trkpt>
      <trkpt lat="43.4589" lon="6.59558">
        <ele>36.71113281697</ele>
        <time>2021-11-28T14:38:17Z</time>
      </trkpt>
      <trkpt lat="43.45891" lon="6.5956">
        <ele>36.711178414524</ele>
        <time>2021-11-28T14:38:18Z</time>
      </trkpt>
      <trkpt lat="43.45891" lon="6.59564">
        <ele>36.711272627115</ele>
        <time>2021-11-28T14:38:20Z</time>
      </trkpt>
      <trkpt lat="43.45891" lon="6.59567">
        <ele>36.711386620998</ele>
        <time>2021-11-28T14:38:21Z</time>
      </trkpt>
      <trkpt lat="43.45891" lon="6.59569">
        <ele>36.711473792791</ele>
        <time>2021-11-28T14:38:22Z</time>
      </trkpt>
      <trkpt lat="43.45891" lon="6.59571">
        <ele>35.711504638195</ele>
        <time>2021-11-28T14:38:23Z</time>
      </trkpt>
      <trkpt lat="43.45892" lon="6.59572">
        <ele>34.711524754763</ele>
        <time>2021-11-28T14:38:24Z</time>
      </trkpt>
      <trkpt lat="43.45893" lon="6.59573">
        <ele>35.711517713964</ele>
        <time>2021-11-28T14:38:25Z</time>
      </trkpt>
      <trkpt lat="43.45893" lon="6.59575">
        <ele>35.711526766419</ele>
        <time>2021-11-28T14:38:26Z</time>
      </trkpt>
      <trkpt lat="43.45894" lon="6.59576">
        <ele>35.711503632367</ele>
        <time>2021-11-28T14:38:27Z</time>
      </trkpt>
      <trkpt lat="43.45894" lon="6.59577">
        <ele>35.711560964584</ele>
        <time>2021-11-28T14:38:28Z</time>
      </trkpt>
      <trkpt lat="43.45894" lon="6.59579">
        <ele>34.711622990668</ele>
        <time>2021-11-28T14:38:29Z</time>
      </trkpt>
      <trkpt lat="43.45894" lon="6.59581">
        <ele>35.71167562902</ele>
        <time>2021-11-28T14:38:30Z</time>
      </trkpt>
      <trkpt lat="43.45895" lon="6.59582">
        <ele>34.711655512452</ele>
        <time>2021-11-28T14:38:31Z</time>
      </trkpt>
      <trkpt lat="43.45896" lon="6.59582">
        <ele>33.711576387286</ele>
        <time>2021-11-28T14:38:32Z</time>
      </trkpt>
      <trkpt lat="43.45897" lon="6.59581">
        <ele>33.71152240783</ele>
        <time>2021-11-28T14:38:33Z</time>
      </trkpt>
      <trkpt lat="43.45897" lon="6.59581">
        <ele>32.711455687881</ele>
        <time>2021-11-28T14:38:55Z</time>
      </trkpt>
      <trkpt lat="43.45897" lon="6.5958">
        <ele>33.711478151381</ele>
        <time>2021-11-28T14:39:01Z</time>
      </trkpt>
      <trkpt lat="43.45898" lon="6.5958">
        <ele>33.711393661797</ele>
        <time>2021-11-28T14:39:02Z</time>
      </trkpt>
      <trkpt lat="43.45897" lon="6.5958">
        <ele>35.711432889104</ele>
        <time>2021-11-28T14:39:40Z</time>
      </trkpt>
      <trkpt lat="43.45897" lon="6.59581">
        <ele>36.711502961814</ele>
        <time>2021-11-28T14:39:41Z</time>
      </trkpt>
      <trkpt lat="43.45896" lon="6.59583">
        <ele>36.711596168578</ele>
        <time>2021-11-28T14:39:42Z</time>
      </trkpt>
      <trkpt lat="43.45896" lon="6.59584">
        <ele>36.711668923497</ele>
        <time>2021-11-28T14:39:43Z</time>
      </trkpt>
      <trkpt lat="43.45896" lon="6.59586">
        <ele>36.711745031178</ele>
        <time>2021-11-28T14:39:44Z</time>
      </trkpt>
      <trkpt lat="43.45896" lon="6.59588">
        <ele>36.711818121374</ele>
        <time>2021-11-28T14:39:45Z</time>
      </trkpt>
      <trkpt lat="43.45896" lon="6.5959">
        <ele>36.711883164942</ele>
        <time>2021-11-28T14:39:46Z</time>
      </trkpt>
      <trkpt lat="43.45897" lon="6.59592">
        <ele>35.711952902377</ele>
        <time>2021-11-28T14:39:47Z</time>
      </trkpt>
      <trkpt lat="43.45896" lon="6.59595">
        <ele>34.712100759149</ele>
        <time>2021-11-28T14:39:48Z</time>
      </trkpt>
      <trkpt lat="43.45896" lon="6.59598">
        <ele>34.7122053653</ele>
        <time>2021-11-28T14:39:49Z</time>
      </trkpt>
      <trkpt lat="43.45896" lon="6.59599">
        <ele>33.712266385555</ele>
        <time>2021-11-28T14:39:50Z</time>
      </trkpt>
      <trkpt lat="43.45897" lon="6.596">
        <ele>33.712264373899</ele>
        <time>2021-11-28T14:39:51Z</time>
      </trkpt>
      <trkpt lat="43.45897" lon="6.59602">
        <ele>33.712266385555</ele>
        <time>2021-11-28T14:39:52Z</time>
      </trkpt>
      <trkpt lat="43.45898" lon="6.59602">
        <ele>33.712292537093</ele>
        <time>2021-11-28T14:39:53Z</time>
      </trkpt>
      <trkpt lat="43.45898" lon="6.59605">
        <ele>33.712343163788</ele>
        <time>2021-11-28T14:39:55Z</time>
      </trkpt>
      <trkpt lat="43.459" lon="6.59609">
        <ele>33.71237501502</ele>
        <time>2021-11-28T14:39:57Z</time>
      </trkpt>
      <trkpt lat="43.459" lon="6.5961">
        <ele>33.712379038334</ele>
        <time>2021-11-28T14:39:58Z</time>
      </trkpt>
      <trkpt lat="43.45901" lon="6.59612">
        <ele>33.712413236499</ele>
        <time>2021-11-28T14:39:59Z</time>
      </trkpt>
      <trkpt lat="43.459" lon="6.59616">
        <ele>33.712605014443</ele>
        <time>2021-11-28T14:40:01Z</time>
      </trkpt>
      <trkpt lat="43.459" lon="6.59617">
        <ele>33.712654300034</ele>
        <time>2021-11-28T14:40:02Z</time>
      </trkpt>
      <trkpt lat="43.459" lon="6.59618">
        <ele>33.712713308632</ele>
        <time>2021-11-28T14:40:03Z</time>
      </trkpt>
      <trkpt lat="43.459" lon="6.59621">
        <ele>34.712824620306</ele>
        <time>2021-11-28T14:40:05Z</time>
      </trkpt>
      <trkpt lat="43.459" lon="6.59623">
        <ele>33.712923526764</ele>
        <time>2021-11-28T14:40:06Z</time>
      </trkpt>
      <trkpt lat="43.459" lon="6.59625">
        <ele>32.712995611131</ele>
        <time>2021-11-28T14:40:07Z</time>
      </trkpt>
      <trkpt lat="43.459" lon="6.59627">
        <ele>32.713088817894</ele>
        <time>2021-11-28T14:40:08Z</time>
      </trkpt>
      <trkpt lat="43.45899" lon="6.59632">
        <ele>32.713327534497</ele>
        <time>2021-11-28T14:40:10Z</time>
      </trkpt>
      <trkpt lat="43.45898" lon="6.59634">
        <ele>32.713494166732</ele>
        <time>2021-11-28T14:40:11Z</time>
      </trkpt>
      <trkpt lat="43.45898" lon="6.59636">
        <ele>32.713608831167</ele>
        <time>2021-11-28T14:40:12Z</time>
      </trkpt>
      <trkpt lat="43.45898" lon="6.59637">
        <ele>32.713694997132</ele>
        <time>2021-11-28T14:40:13Z</time>
      </trkpt>
      <trkpt lat="43.45898" lon="6.59638">
        <ele>32.713732548058</ele>
        <time>2021-11-28T14:40:14Z</time>
      </trkpt>
      <trkpt lat="43.45898" lon="6.59639">
        <ele>33.713749647141</ele>
        <time>2021-11-28T14:40:15Z</time>
      </trkpt>
      <trkpt lat="43.45898" lon="6.5964">
        <ele>33.713786527514</ele>
        <time>2021-11-28T14:40:16Z</time>
      </trkpt>
      <trkpt lat="43.45897" lon="6.59641">
        <ele>33.713878393173</ele>
        <time>2021-11-28T14:40:17Z</time>
      </trkpt>
      <trkpt lat="43.45896" lon="6.59642">
        <ele>33.714006468654</ele>
        <time>2021-11-28T14:40:18Z</time>
      </trkpt>
      <trkpt lat="43.45894" lon="6.59645">
        <ele>33.714237809181</ele>
        <time>2021-11-28T14:40:20Z</time>
      </trkpt>
      <trkpt lat="43.45894" lon="6.59646">
        <ele>34.714347779751</ele>
        <time>2021-11-28T14:40:21Z</time>
      </trkpt>
      <trkpt lat="43.45893" lon="6.59648">
        <ele>34.71447250247</ele>
        <time>2021-11-28T14:40:22Z</time>
      </trkpt>
      <trkpt lat="43.45893" lon="6.59649">
        <ele>34.714518770576</ele>
        <time>2021-11-28T14:40:23Z</time>
      </trkpt>
      <trkpt lat="43.45893" lon="6.5965">
        <ele>34.714579120278</ele>
        <time>2021-11-28T14:40:24Z</time>
      </trkpt>
      <trkpt lat="43.45891" lon="6.59653">
        <ele>34.714804761112</ele>
        <time>2021-11-28T14:40:26Z</time>
      </trkpt>
      <trkpt lat="43.45891" lon="6.59654">
        <ele>34.714908696711</ele>
        <time>2021-11-28T14:40:27Z</time>
      </trkpt>
      <trkpt lat="43.4589" lon="6.59655">
        <ele>34.715021014214</ele>
        <time>2021-11-28T14:40:28Z</time>
      </trkpt>
      <trkpt lat="43.4589" lon="6.59656">
        <ele>34.71508974582</ele>
        <time>2021-11-28T14:40:29Z</time>
      </trkpt>
      <trkpt lat="43.45889" lon="6.59658">
        <ele>34.715182282031</ele>
        <time>2021-11-28T14:40:30Z</time>
      </trkpt>
      <trkpt lat="43.45889" lon="6.59659">
        <ele>34.71528185904</ele>
        <time>2021-11-28T14:40:31Z</time>
      </trkpt>
      <trkpt lat="43.45888" lon="6.59661">
        <ele>34.715396523476</ele>
        <time>2021-11-28T14:40:32Z</time>
      </trkpt>
      <trkpt lat="43.45887" lon="6.59662">
        <ele>35.715523928404</ele>
        <time>2021-11-28T14:40:33Z</time>
      </trkpt>
      <trkpt lat="43.45887" lon="6.59664">
        <ele>35.715617470443</ele>
        <time>2021-11-28T14:40:34Z</time>
      </trkpt>
      <trkpt lat="43.45887" lon="6.59666">
        <ele>35.71570866555</ele>
        <time>2021-11-28T14:40:35Z</time>
      </trkpt>
      <trkpt lat="43.45886" lon="6.59667">
        <ele>36.715821653605</ele>
        <time>2021-11-28T14:40:36Z</time>
      </trkpt>
      <trkpt lat="43.45885" lon="6.59669">
        <ele>36.715943023562</ele>
        <time>2021-11-28T14:40:37Z</time>
      </trkpt>
      <trkpt lat="43.45885" lon="6.5967">
        <ele>36.716048300266</ele>
        <time>2021-11-28T14:40:38Z</time>
      </trkpt>
      <trkpt lat="43.45884" lon="6.59672">
        <ele>36.716146536171</ele>
        <time>2021-11-28T14:40:39Z</time>
      </trkpt>
      <trkpt lat="43.45883" lon="6.59673">
        <ele>37.716260530055</ele>
        <time>2021-11-28T14:40:40Z</time>
      </trkpt>
      <trkpt lat="43.45882" lon="6.59676">
        <ele>37.71649120003</ele>
        <time>2021-11-28T14:40:42Z</time>
      </trkpt>
      <trkpt lat="43.4588" lon="6.59679">
        <ele>37.71671449393</ele>
        <time>2021-11-28T14:40:44Z</time>
      </trkpt>
      <trkpt lat="43.4588" lon="6.5968">
        <ele>37.716785237193</ele>
        <time>2021-11-28T14:40:45Z</time>
      </trkpt>
      <trkpt lat="43.4588" lon="6.5968">
        <ele>37.716837875545</ele>
        <time>2021-11-28T14:40:46Z</time>
      </trkpt>
      <trkpt lat="43.45879" lon="6.59681">
        <ele>37.716947175562</ele>
        <time>2021-11-28T14:40:47Z</time>
      </trkpt>
      <trkpt lat="43.45878" lon="6.59684">
        <ele>37.717143647373</ele>
        <time>2021-11-28T14:40:49Z</time>
      </trkpt>
      <trkpt lat="43.45877" lon="6.59685">
        <ele>37.717243559659</ele>
        <time>2021-11-28T14:40:50Z</time>
      </trkpt>
      <trkpt lat="43.45876" lon="6.59687">
        <ele>37.717408180237</ele>
        <time>2021-11-28T14:40:52Z</time>
      </trkpt>
      <trkpt lat="43.45876" lon="6.59689">
        <ele>37.717476911843</ele>
        <time>2021-11-28T14:40:53Z</time>
      </trkpt>
      <trkpt lat="43.45875" lon="6.59691">
        <ele>38.71764421463</ele>
        <time>2021-11-28T14:40:55Z</time>
      </trkpt>
      <trkpt lat="43.45875" lon="6.59693">
        <ele>38.717711940408</ele>
        <time>2021-11-28T14:40:56Z</time>
      </trkpt>
      <trkpt lat="43.45874" lon="6.59694">
        <ele>38.717817552388</ele>
        <time>2021-11-28T14:40:57Z</time>
      </trkpt>
      <trkpt lat="43.45874" lon="6.59696">
        <ele>38.71796105057</ele>
        <time>2021-11-28T14:40:58Z</time>
      </trkpt>
      <trkpt lat="43.45873" lon="6.59698">
        <ele>38.71807705611</ele>
        <time>2021-11-28T14:40:59Z</time>
      </trkpt>
      <trkpt lat="43.45871" lon="6.59701">
        <ele>39.718342259526</ele>
        <time>2021-11-28T14:41:01Z</time>
      </trkpt>
      <trkpt lat="43.45871" lon="6.59702">
        <ele>39.718442842364</ele>
        <time>2021-11-28T14:41:02Z</time>
      </trkpt>
      <trkpt lat="43.4587" lon="6.59703">
        <ele>39.718565553427</ele>
        <time>2021-11-28T14:41:03Z</time>
      </trkpt>
      <trkpt lat="43.45869" lon="6.59704">
        <ele>39.718668483198</ele>
        <time>2021-11-28T14:41:04Z</time>
      </trkpt>
      <trkpt lat="43.45868" lon="6.59705">
        <ele>39.718770071864</ele>
        <time>2021-11-28T14:41:05Z</time>
      </trkpt>
      <trkpt lat="43.45868" lon="6.59706">
        <ele>39.71883712709</ele>
        <time>2021-11-28T14:41:06Z</time>
      </trkpt>
      <trkpt lat="43.45868" lon="6.59707">
        <ele>39.718885742128</ele>
        <time>2021-11-28T14:41:07Z</time>
      </trkpt>
      <trkpt lat="43.45868" lon="6.59708">
        <ele>39.718910552561</ele>
        <time>2021-11-28T14:41:08Z</time>
      </trkpt>
      <trkpt lat="43.45868" lon="6.59709">
        <ele>38.718942403793</ele>
        <time>2021-11-28T14:41:09Z</time>
      </trkpt>
      <trkpt lat="43.45868" lon="6.5971">
        <ele>38.718957826495</ele>
        <time>2021-11-28T14:41:10Z</time>
      </trkpt>
      <trkpt lat="43.45868" lon="6.59713">
        <ele>38.719073496759</ele>
        <time>2021-11-28T14:41:12Z</time>
      </trkpt>
      <trkpt lat="43.45868" lon="6.59715">
        <ele>39.719154633582</ele>
        <time>2021-11-28T14:41:13Z</time>
      </trkpt>
      <trkpt lat="43.45868" lon="6.59716">
        <ele>39.719244152308</ele>
        <time>2021-11-28T14:41:14Z</time>
      </trkpt>
      <trkpt lat="43.45867" lon="6.59718">
        <ele>39.719367533922</ele>
        <time>2021-11-28T14:41:15Z</time>
      </trkpt>
      <trkpt lat="43.45866" lon="6.59719">
        <ele>39.719482198358</ele>
        <time>2021-11-28T14:41:16Z</time>
      </trkpt>
      <trkpt lat="43.45866" lon="6.59721">
        <ele>39.719572387636</ele>
        <time>2021-11-28T14:41:17Z</time>
      </trkpt>
      <trkpt lat="43.45865" lon="6.59722">
        <ele>39.719662576914</ele>
        <time>2021-11-28T14:41:18Z</time>
      </trkpt>
      <trkpt lat="43.45864" lon="6.59724">
        <ele>39.719835914671</ele>
        <time>2021-11-28T14:41:20Z</time>
      </trkpt>
      <trkpt lat="43.45864" lon="6.59726">
        <ele>38.719951249659</ele>
        <time>2021-11-28T14:41:21Z</time>
      </trkpt>
      <trkpt lat="43.45863" lon="6.59728">
        <ele>38.720070272684</ele>
        <time>2021-11-28T14:41:22Z</time>
      </trkpt>
      <trkpt lat="43.45863" lon="6.5973">
        <ele>38.720182590187</ele>
        <time>2021-11-28T14:41:23Z</time>
      </trkpt>
      <trkpt lat="43.45863" lon="6.59732">
        <ele>38.720273114741</ele>
        <time>2021-11-28T14:41:24Z</time>
      </trkpt>
      <trkpt lat="43.45863" lon="6.59735">
        <ele>38.720393143594</ele>
        <time>2021-11-28T14:41:26Z</time>
      </trkpt>
      <trkpt lat="43.45862" lon="6.59736">
        <ele>38.720473945141</ele>
        <time>2021-11-28T14:41:27Z</time>
      </trkpt>
      <trkpt lat="43.45862" lon="6.59737">
        <ele>38.720506466925</ele>
        <time>2021-11-28T14:41:28Z</time>
      </trkpt>
      <trkpt lat="43.45862" lon="6.59739">
        <ele>38.720564804971</ele>
        <time>2021-11-28T14:41:29Z</time>
      </trkpt>
      <trkpt lat="43.45862" lon="6.5974">
        <ele>38.720628172159</ele>
        <time>2021-11-28T14:41:30Z</time>
      </trkpt>
      <trkpt lat="43.45861" lon="6.59742">
        <ele>39.720784410834</ele>
        <time>2021-11-28T14:41:32Z</time>
      </trkpt>
      <trkpt lat="43.45861" lon="6.59743">
        <ele>39.720812574029</ele>
        <time>2021-11-28T14:41:33Z</time>
      </trkpt>
      <trkpt lat="43.45861" lon="6.59745">
        <ele>39.720886334777</ele>
        <time>2021-11-28T14:41:34Z</time>
      </trkpt>
      <trkpt lat="43.45861" lon="6.59746">
        <ele>40.720982223749</ele>
        <time>2021-11-28T14:41:35Z</time>
      </trkpt>
      <trkpt lat="43.45861" lon="6.59748">
        <ele>40.721081130207</ele>
        <time>2021-11-28T14:41:36Z</time>
      </trkpt>
      <trkpt lat="43.4586" lon="6.5975">
        <ele>40.721177689731</ele>
        <time>2021-11-28T14:41:37Z</time>
      </trkpt>
      <trkpt lat="43.4586" lon="6.59751">
        <ele>40.72125916183</ele>
        <time>2021-11-28T14:41:38Z</time>
      </trkpt>
      <trkpt lat="43.4586" lon="6.59753">
        <ele>40.721348680556</ele>
        <time>2021-11-28T14:41:39Z</time>
      </trkpt>
      <trkpt lat="43.4586" lon="6.59754">
        <ele>40.721409700811</ele>
        <time>2021-11-28T14:41:40Z</time>
      </trkpt>
      <trkpt lat="43.4586" lon="6.59756">
        <ele>40.721451275051</ele>
        <time>2021-11-28T14:41:41Z</time>
      </trkpt>
      <trkpt lat="43.4586" lon="6.59758">
        <ele>40.721521683037</ele>
        <time>2021-11-28T14:41:42Z</time>
      </trkpt>
      <trkpt lat="43.4586" lon="6.59759">
        <ele>40.721590079367</ele>
        <time>2021-11-28T14:41:43Z</time>
      </trkpt>
      <trkpt lat="43.4586" lon="6.59761">
        <ele>40.721666187048</ele>
        <time>2021-11-28T14:41:44Z</time>
      </trkpt>
      <trkpt lat="43.45859" lon="6.59762">
        <ele>40.721728548408</ele>
        <time>2021-11-28T14:41:45Z</time>
      </trkpt>
      <trkpt lat="43.45859" lon="6.59764">
        <ele>40.721805326641</ele>
        <time>2021-11-28T14:41:46Z</time>
      </trkpt>
      <trkpt lat="43.45859" lon="6.59765">
        <ele>40.721880763769</ele>
        <time>2021-11-28T14:41:47Z</time>
      </trkpt>
      <trkpt lat="43.45859" lon="6.59766">
        <ele>41.721930719912</ele>
        <time>2021-11-28T14:41:48Z</time>
      </trkpt>
      <trkpt lat="43.45859" lon="6.59767">
        <ele>40.721988387406</ele>
        <time>2021-11-28T14:41:49Z</time>
      </trkpt>
      <trkpt lat="43.45859" lon="6.59769">
        <ele>40.722050413489</ele>
        <time>2021-11-28T14:41:50Z</time>
      </trkpt>
      <trkpt lat="43.45859" lon="6.59771">
        <ele>39.722140602767</ele>
        <time>2021-11-28T14:41:51Z</time>
      </trkpt>
      <trkpt lat="43.45858" lon="6.59773">
        <ele>40.722247555852</ele>
        <time>2021-11-28T14:41:52Z</time>
      </trkpt>
      <trkpt lat="43.45858" lon="6.59774">
        <ele>40.722286783159</ele>
        <time>2021-11-28T14:41:53Z</time>
      </trkpt>
      <trkpt lat="43.45858" lon="6.59775">
        <ele>40.722350485623</ele>
        <time>2021-11-28T14:41:54Z</time>
      </trkpt>
      <trkpt lat="43.45858" lon="6.59777">
        <ele>40.722454756498</ele>
        <time>2021-11-28T14:41:55Z</time>
      </trkpt>
      <trkpt lat="43.45858" lon="6.59779">
        <ele>40.722529187799</ele>
        <time>2021-11-28T14:41:56Z</time>
      </trkpt>
      <trkpt lat="43.45858" lon="6.59781">
        <ele>40.722581490874</ele>
        <time>2021-11-28T14:41:57Z</time>
      </trkpt>
      <trkpt lat="43.45859" lon="6.59783">
        <ele>40.722614683211</ele>
        <time>2021-11-28T14:41:58Z</time>
      </trkpt>
      <trkpt lat="43.45859" lon="6.59785">
        <ele>40.722700178623</ele>
        <time>2021-11-28T14:41:59Z</time>
      </trkpt>
      <trkpt lat="43.45859" lon="6.59788">
        <ele>41.722844682634</ele>
        <time>2021-11-28T14:42:01Z</time>
      </trkpt>
      <trkpt lat="43.45858" lon="6.5979">
        <ele>42.722957000136</ele>
        <time>2021-11-28T14:42:02Z</time>
      </trkpt>
      <trkpt lat="43.45857" lon="6.59791">
        <ele>42.723115921021</ele>
        <time>2021-11-28T14:42:03Z</time>
      </trkpt>
      <trkpt lat="43.45855" lon="6.59794">
        <ele>41.723341561854</ele>
        <time>2021-11-28T14:42:05Z</time>
      </trkpt>
      <trkpt lat="43.45855" lon="6.59795">
        <ele>41.723425045609</ele>
        <time>2021-11-28T14:42:06Z</time>
      </trkpt>
      <trkpt lat="43.45855" lon="6.59797">
        <ele>40.723503835499</ele>
        <time>2021-11-28T14:42:07Z</time>
      </trkpt>
      <trkpt lat="43.45854" lon="6.59798">
        <ele>41.723608106375</ele>
        <time>2021-11-28T14:42:08Z</time>
      </trkpt>
      <trkpt lat="43.45853" lon="6.59798">
        <ele>41.723674826324</ele>
        <time>2021-11-28T14:42:09Z</time>
      </trkpt>
      <trkpt lat="43.45852" lon="6.59799">
        <ele>40.723765686154</ele>
        <time>2021-11-28T14:42:11Z</time>
      </trkpt>
      <trkpt lat="43.45852" lon="6.598">
        <ele>39.72382838279</ele>
        <time>2021-11-28T14:42:12Z</time>
      </trkpt>
      <trkpt lat="43.45852" lon="6.59801">
        <ele>39.723846822977</ele>
        <time>2021-11-28T14:42:14Z</time>
      </trkpt>
      <trkpt lat="43.45853" lon="6.59801">
        <ele>39.723842799664</ele>
        <time>2021-11-28T14:42:15Z</time>
      </trkpt>
      <trkpt lat="43.45854" lon="6.59804">
        <ele>39.723816648126</ele>
        <time>2021-11-28T14:42:17Z</time>
      </trkpt>
      <trkpt lat="43.45855" lon="6.59806">
        <ele>39.723841458559</ele>
        <time>2021-11-28T14:42:18Z</time>
      </trkpt>
      <trkpt lat="43.45855" lon="6.59808">
        <ele>39.723879344761</ele>
        <time>2021-11-28T14:42:19Z</time>
      </trkpt>
      <trkpt lat="43.45856" lon="6.59809">
        <ele>38.723908849061</ele>
        <time>2021-11-28T14:42:20Z</time>
      </trkpt>
      <trkpt lat="43.45856" lon="6.59811">
        <ele>38.723939023912</ele>
        <time>2021-11-28T14:42:22Z</time>
      </trkpt>
      <trkpt lat="43.45857" lon="6.59811">
        <ele>39.723900802433</ele>
        <time>2021-11-28T14:42:29Z</time>
      </trkpt>
      <trkpt lat="43.45857" lon="6.5981">
        <ele>38.723832070827</ele>
        <time>2021-11-28T14:42:31Z</time>
      </trkpt>
      <trkpt lat="43.45858" lon="6.59811">
        <ele>38.723809607327</ele>
        <time>2021-11-28T14:42:32Z</time>
      </trkpt>
      <trkpt lat="43.45858" lon="6.59811">
        <ele>39.723788484931</ele>
        <time>2021-11-28T14:42:33Z</time>
      </trkpt>
      <trkpt lat="43.45859" lon="6.59812">
        <ele>40.723768033087</ele>
        <time>2021-11-28T14:42:34Z</time>
      </trkpt>
      <trkpt lat="43.45859" lon="6.59812">
        <ele>40.72376602143</ele>
        <time>2021-11-28T14:42:35Z</time>
      </trkpt>
      <trkpt lat="43.4586" lon="6.59812">
        <ele>39.72368991375</ele>
        <time>2021-11-28T14:42:37Z</time>
      </trkpt>
      <trkpt lat="43.45861" lon="6.59812">
        <ele>39.72363794595</ele>
        <time>2021-11-28T14:42:38Z</time>
      </trkpt>
      <trkpt lat="43.45862" lon="6.59814">
        <ele>38.723614141345</ele>
        <time>2021-11-28T14:42:39Z</time>
      </trkpt>
      <trkpt lat="43.45863" lon="6.59815">
        <ele>38.723574243486</ele>
        <time>2021-11-28T14:42:40Z</time>
      </trkpt>
      <trkpt lat="43.45863" lon="6.59815">
        <ele>38.723544739187</ele>
        <time>2021-11-28T14:42:41Z</time>
      </trkpt>
      <trkpt lat="43.45864" lon="6.59816">
        <ele>38.723510205746</ele>
        <time>2021-11-28T14:42:42Z</time>
      </trkpt>
      <trkpt lat="43.45865" lon="6.59816">
        <ele>38.723432421684</ele>
        <time>2021-11-28T14:42:43Z</time>
      </trkpt>
      <trkpt lat="43.45866" lon="6.59816">
        <ele>38.723379783332</ele>
        <time>2021-11-28T14:42:44Z</time>
      </trkpt>
      <trkpt lat="43.45867" lon="6.59817">
        <ele>38.723352961242</ele>
        <time>2021-11-28T14:42:45Z</time>
      </trkpt>
      <trkpt lat="43.45867" lon="6.59817">
        <ele>38.723312728107</ele>
        <time>2021-11-28T14:42:46Z</time>
      </trkpt>
      <trkpt lat="43.45868" lon="6.59817">
        <ele>38.72324064374</ele>
        <time>2021-11-28T14:42:47Z</time>
      </trkpt>
      <trkpt lat="43.45869" lon="6.59818">
        <ele>38.72318867594</ele>
        <time>2021-11-28T14:42:48Z</time>
      </trkpt>
      <trkpt lat="43.4587" lon="6.59819">
        <ele>38.723158165812</ele>
        <time>2021-11-28T14:42:49Z</time>
      </trkpt>
      <trkpt lat="43.45871" lon="6.59819">
        <ele>38.723127655685</ele>
        <time>2021-11-28T14:42:50Z</time>
      </trkpt>
      <trkpt lat="43.45871" lon="6.5982">
        <ele>36.723114579916</ele>
        <time>2021-11-28T14:43:02Z</time>
      </trkpt>
      <trkpt lat="43.45872" lon="6.5982">
        <ele>36.723056577146</ele>
        <time>2021-11-28T14:43:03Z</time>
      </trkpt>
      <trkpt lat="43.45872" lon="6.59821">
        <ele>35.723033107817</ele>
        <time>2021-11-28T14:43:17Z</time>
      </trkpt>
      <trkpt lat="43.45873" lon="6.59822">
        <ele>36.723043836653</ele>
        <time>2021-11-28T14:43:20Z</time>
      </trkpt>
      <trkpt lat="43.45873" lon="6.59821">
        <ele>34.722968399525</ele>
        <time>2021-11-28T14:43:24Z</time>
      </trkpt>
      <trkpt lat="43.45873" lon="6.5982">
        <ele>34.722938224673</ele>
        <time>2021-11-28T14:43:26Z</time>
      </trkpt>
      <trkpt lat="43.45873" lon="6.59819">
        <ele>35.722945265472</ele>
        <time>2021-11-28T14:43:27Z</time>
      </trkpt>
      <trkpt lat="43.45873" lon="6.59819">
        <ele>36.722868487239</ele>
        <time>2021-11-28T14:46:24Z</time>
      </trkpt>
      <trkpt lat="43.45874" lon="6.59819">
        <ele>35.722873851657</ele>
        <time>2021-11-28T14:46:26Z</time>
      </trkpt>
      <trkpt lat="43.45874" lon="6.59821">
        <ele>36.722919784486</ele>
        <time>2021-11-28T14:46:27Z</time>
      </trkpt>
      <trkpt lat="43.45875" lon="6.59821">
        <ele>36.72284065932</ele>
        <time>2021-11-28T14:46:43Z</time>
      </trkpt>
      <trkpt lat="43.45875" lon="6.59822">
        <ele>36.722903355956</ele>
        <time>2021-11-28T14:46:48Z</time>
      </trkpt>
      <trkpt lat="43.45875" lon="6.59821">
        <ele>35.722821883857</ele>
        <time>2021-11-28T14:46:53Z</time>
      </trkpt>
      <trkpt lat="43.45876" lon="6.59821">
        <ele>35.722728341818</ele>
        <time>2021-11-28T14:46:55Z</time>
      </trkpt>
      <trkpt lat="43.45876" lon="6.5982">
        <ele>35.722706213593</ele>
        <time>2021-11-28T14:47:05Z</time>
      </trkpt>
      <trkpt lat="43.45876" lon="6.59821">
        <ele>35.722759857774</ele>
        <time>2021-11-28T14:47:07Z</time>
      </trkpt>
      <trkpt lat="43.45876" lon="6.59822">
        <ele>35.722786344588</ele>
        <time>2021-11-28T14:47:08Z</time>
      </trkpt>
      <trkpt lat="43.45877" lon="6.59824">
        <ele>35.72280344367</ele>
        <time>2021-11-28T14:47:09Z</time>
      </trkpt>
      <trkpt lat="43.45877" lon="6.59826">
        <ele>34.722871169448</ele>
        <time>2021-11-28T14:47:11Z</time>
      </trkpt>
      <trkpt lat="43.45877" lon="6.59828">
        <ele>35.722927160561</ele>
        <time>2021-11-28T14:47:12Z</time>
      </trkpt>
      <trkpt lat="43.45878" lon="6.59829">
        <ele>35.722915425897</ele>
        <time>2021-11-28T14:47:16Z</time>
      </trkpt>
      <trkpt lat="43.45879" lon="6.59829">
        <ele>36.722866810858</ele>
        <time>2021-11-28T14:47:17Z</time>
      </trkpt>
      <trkpt lat="43.45879" lon="6.59829">
        <ele>36.722843341529</ele>
        <time>2021-11-28T14:47:18Z</time>
      </trkpt>
      <trkpt lat="43.4588" lon="6.59829">
        <ele>35.722781985998</ele>
        <time>2021-11-28T14:47:20Z</time>
      </trkpt>
      <trkpt lat="43.4588" lon="6.59829">
        <ele>35.722756169736</ele>
        <time>2021-11-28T14:47:21Z</time>
      </trkpt>
      <trkpt lat="43.45881" lon="6.59829">
        <ele>35.722689114511</ele>
        <time>2021-11-28T14:47:22Z</time>
      </trkpt>
      <trkpt lat="43.45882" lon="6.59829">
        <ele>34.722619377077</ele>
        <time>2021-11-28T14:47:23Z</time>
      </trkpt>
      <trkpt lat="43.45882" lon="6.59829">
        <ele>34.722550310194</ele>
        <time>2021-11-28T14:47:24Z</time>
      </trkpt>
      <trkpt lat="43.45884" lon="6.5983">
        <ele>34.722484596074</ele>
        <time>2021-11-28T14:47:26Z</time>
      </trkpt>
      <trkpt lat="43.45885" lon="6.59831">
        <ele>34.722454085946</ele>
        <time>2021-11-28T14:47:27Z</time>
      </trkpt>
      <trkpt lat="43.45886" lon="6.59832">
        <ele>34.722403459251</ele>
        <time>2021-11-28T14:47:28Z</time>
      </trkpt>
      <trkpt lat="43.45887" lon="6.59832">
        <ele>34.722336068749</ele>
        <time>2021-11-28T14:47:29Z</time>
      </trkpt>
      <trkpt lat="43.45887" lon="6.59831">
        <ele>34.722262978554</ele>
        <time>2021-11-28T14:47:31Z</time>
      </trkpt>
      <trkpt lat="43.45888" lon="6.59831">
        <ele>34.722177483141</ele>
        <time>2021-11-28T14:47:32Z</time>
      </trkpt>
      <trkpt lat="43.45889" lon="6.5983">
        <ele>34.722113780677</ele>
        <time>2021-11-28T14:47:33Z</time>
      </trkpt>
      <trkpt lat="43.4589" lon="6.5983">
        <ele>33.721995428205</ele>
        <time>2021-11-28T14:47:35Z</time>
      </trkpt>
      <trkpt lat="43.45891" lon="6.59831">
        <ele>33.721951507032</ele>
        <time>2021-11-28T14:47:37Z</time>
      </trkpt>
      <trkpt lat="43.45891" lon="6.59833">
        <ele>32.722001463175</ele>
        <time>2021-11-28T14:47:38Z</time>
      </trkpt>
      <trkpt lat="43.45891" lon="6.59834">
        <ele>32.722054436803</ele>
        <time>2021-11-28T14:47:39Z</time>
      </trkpt>
      <trkpt lat="43.45891" lon="6.59835">
        <ele>32.722115121782</ele>
        <time>2021-11-28T14:47:40Z</time>
      </trkpt>
      <trkpt lat="43.4589" lon="6.59837">
        <ele>32.722226433456</ele>
        <time>2021-11-28T14:47:42Z</time>
      </trkpt>
      <trkpt lat="43.45891" lon="6.59838">
        <ele>33.722295835614</ele>
        <time>2021-11-28T14:47:43Z</time>
      </trkpt>
      <trkpt lat="43.45891" lon="6.5984">
        <ele>32.72231528163</ele>
        <time>2021-11-28T14:47:44Z</time>
      </trkpt>
      <trkpt lat="43.45893" lon="6.59842">
        <ele>32.722221404314</ele>
        <time>2021-11-28T14:47:46Z</time>
      </trkpt>
      <trkpt lat="43.45894" lon="6.59843">
        <ele>32.722171112895</ele>
        <time>2021-11-28T14:47:47Z</time>
      </trkpt>
      <trkpt lat="43.45895" lon="6.59843">
        <ele>32.722101040184</ele>
        <time>2021-11-28T14:47:48Z</time>
      </trkpt>
      <trkpt lat="43.45897" lon="6.59844">
        <ele>32.722038678825</ele>
        <time>2021-11-28T14:47:49Z</time>
      </trkpt>
      <trkpt lat="43.45898" lon="6.59846">
        <ele>31.721962571144</ele>
        <time>2021-11-28T14:47:51Z</time>
      </trkpt>
      <trkpt lat="43.45899" lon="6.59845">
        <ele>31.721893839538</ele>
        <time>2021-11-28T14:47:52Z</time>
      </trkpt>
      <trkpt lat="43.459" lon="6.59845">
        <ele>31.721829466522</ele>
        <time>2021-11-28T14:47:53Z</time>
      </trkpt>
      <trkpt lat="43.45901" lon="6.59846">
        <ele>31.721737936139</ele>
        <time>2021-11-28T14:47:55Z</time>
      </trkpt>
      <trkpt lat="43.45904" lon="6.59847">
        <ele>31.721547834575</ele>
        <time>2021-11-28T14:47:57Z</time>
      </trkpt>
      <trkpt lat="43.45905" lon="6.59847">
        <ele>32.721504919231</ele>
        <time>2021-11-28T14:47:58Z</time>
      </trkpt>
      <trkpt lat="43.45905" lon="6.59848">
        <ele>31.721517324448</ele>
        <time>2021-11-28T14:47:59Z</time>
      </trkpt>
      <trkpt lat="43.45906" lon="6.5985">
        <ele>30.721542470157</ele>
        <time>2021-11-28T14:48:00Z</time>
      </trkpt>
      <trkpt lat="43.45906" lon="6.5985">
        <ele>30.721520677209</ele>
        <time>2021-11-28T14:48:01Z</time>
      </trkpt>
      <trkpt lat="43.45907" lon="6.59851">
        <ele>29.721520677209</ele>
        <time>2021-11-28T14:48:02Z</time>
      </trkpt>
      <trkpt lat="43.45907" lon="6.59853">
        <ele>29.721525371075</ele>
        <time>2021-11-28T14:48:03Z</time>
      </trkpt>
      <trkpt lat="43.45908" lon="6.59854">
        <ele>28.721555545926</ele>
        <time>2021-11-28T14:48:04Z</time>
      </trkpt>
      <trkpt lat="43.45908" lon="6.59855">
        <ele>27.721523694694</ele>
        <time>2021-11-28T14:48:05Z</time>
      </trkpt>
      <trkpt lat="43.45909" lon="6.59856">
        <ele>27.721468038857</ele>
        <time>2021-11-28T14:48:06Z</time>
      </trkpt>
      <trkpt lat="43.45911" lon="6.59856">
        <ele>27.721384219825</ele>
        <time>2021-11-28T14:48:07Z</time>
      </trkpt>
      <trkpt lat="43.45912" lon="6.59856">
        <ele>26.721309117973</ele>
        <time>2021-11-28T14:48:08Z</time>
      </trkpt>
      <trkpt lat="43.45913" lon="6.59857">
        <ele>26.721262179315</ele>
        <time>2021-11-28T14:48:09Z</time>
      </trkpt>
      <trkpt lat="43.45913" lon="6.59858">
        <ele>26.7212427333</ele>
        <time>2021-11-28T14:48:10Z</time>
      </trkpt>
      <trkpt lat="43.45914" lon="6.59859">
        <ele>25.721198141575</ele>
        <time>2021-11-28T14:48:11Z</time>
      </trkpt>
      <trkpt lat="43.45915" lon="6.5986">
        <ele>25.721167631447</ele>
        <time>2021-11-28T14:48:12Z</time>
      </trkpt>
      <trkpt lat="43.45916" lon="6.5986">
        <ele>25.721131421626</ele>
        <time>2021-11-28T14:48:13Z</time>
      </trkpt>
      <trkpt lat="43.45917" lon="6.59862">
        <ele>25.721133433282</ele>
        <time>2021-11-28T14:48:14Z</time>
      </trkpt>
      <trkpt lat="43.45917" lon="6.59864">
        <ele>24.721232004464</ele>
        <time>2021-11-28T14:48:16Z</time>
      </trkpt>
      <trkpt lat="43.45916" lon="6.59865">
        <ele>24.721271231771</ele>
        <time>2021-11-28T14:48:17Z</time>
      </trkpt>
      <trkpt lat="43.45916" lon="6.59866">
        <ele>24.721341639757</ele>
        <time>2021-11-28T14:48:18Z</time>
      </trkpt>
      <trkpt lat="43.45916" lon="6.59869">
        <ele>24.721439875662</ele>
        <time>2021-11-28T14:48:20Z</time>
      </trkpt>
      <trkpt lat="43.45917" lon="6.59872">
        <ele>24.721529729664</ele>
        <time>2021-11-28T14:48:22Z</time>
      </trkpt>
      <trkpt lat="43.45917" lon="6.59873">
        <ele>24.721563257277</ele>
        <time>2021-11-28T14:48:23Z</time>
      </trkpt>
      <trkpt lat="43.45917" lon="6.59874">
        <ele>23.721583038568</ele>
        <time>2021-11-28T14:48:24Z</time>
      </trkpt>
      <trkpt lat="43.45918" lon="6.59874">
        <ele>22.721572980285</ele>
        <time>2021-11-28T14:48:26Z</time>
      </trkpt>
      <trkpt lat="43.45918" lon="6.59874">
        <ele>21.721506595612</ele>
        <time>2021-11-28T14:48:27Z</time>
      </trkpt>
      <trkpt lat="43.45919" lon="6.59874">
        <ele>21.721421770751</ele>
        <time>2021-11-28T14:48:28Z</time>
      </trkpt>
      <trkpt lat="43.4592" lon="6.59873">
        <ele>21.721349015832</ele>
        <time>2021-11-28T14:48:29Z</time>
      </trkpt>
      <trkpt lat="43.45922" lon="6.59874">
        <ele>20.721253462136</ele>
        <time>2021-11-28T14:48:31Z</time>
      </trkpt>
      <trkpt lat="43.45923" lon="6.59876">
        <ele>21.721183724701</ele>
        <time>2021-11-28T14:48:32Z</time>
      </trkpt>
      <trkpt lat="43.45924" lon="6.59877">
        <ele>21.721180707216</ele>
        <time>2021-11-28T14:48:33Z</time>
      </trkpt>
      <trkpt lat="43.45924" lon="6.59879">
        <ele>21.721241392195</ele>
        <time>2021-11-28T14:48:34Z</time>
      </trkpt>
      <trkpt lat="43.45923" lon="6.59882">
        <ele>21.721466697752</ele>
        <time>2021-11-28T14:48:36Z</time>
      </trkpt>
      <trkpt lat="43.45922" lon="6.59884">
        <ele>20.721584714949</ele>
        <time>2021-11-28T14:48:37Z</time>
      </trkpt>
      <trkpt lat="43.45922" lon="6.59886">
        <ele>21.721680268645</ele>
        <time>2021-11-28T14:48:38Z</time>
      </trkpt>
      <trkpt lat="43.4592" lon="6.5989">
        <ele>21.721978664398</ele>
        <time>2021-11-28T14:48:40Z</time>
      </trkpt>
      <trkpt lat="43.4592" lon="6.59892">
        <ele>20.72210405767</ele>
        <time>2021-11-28T14:48:41Z</time>
      </trkpt>
      <trkpt lat="43.45919" lon="6.59894">
        <ele>20.72222609818</ele>
        <time>2021-11-28T14:48:42Z</time>
      </trkpt>
      <trkpt lat="43.45919" lon="6.59896">
        <ele>20.722332715988</ele>
        <time>2021-11-28T14:48:43Z</time>
      </trkpt>
      <trkpt lat="43.45918" lon="6.599">
        <ele>20.722541257739</ele>
        <time>2021-11-28T14:48:45Z</time>
      </trkpt>
      <trkpt lat="43.45917" lon="6.59903">
        <ele>20.722760863602</ele>
        <time>2021-11-28T14:48:47Z</time>
      </trkpt>
      <trkpt lat="43.45917" lon="6.59905">
        <ele>20.722868151963</ele>
        <time>2021-11-28T14:48:48Z</time>
      </trkpt>
      <trkpt lat="43.45916" lon="6.59907">
        <ele>20.72295666486</ele>
        <time>2021-11-28T14:48:49Z</time>
      </trkpt>
      <trkpt lat="43.45916" lon="6.59908">
        <ele>20.723038807511</ele>
        <time>2021-11-28T14:48:50Z</time>
      </trkpt>
      <trkpt lat="43.45916" lon="6.59911">
        <ele>20.723145760596</ele>
        <time>2021-11-28T14:48:51Z</time>
      </trkpt>
      <trkpt lat="43.45916" lon="6.59913">
        <ele>20.723249696195</ele>
        <time>2021-11-28T14:48:52Z</time>
      </trkpt>
      <trkpt lat="43.45915" lon="6.59915">
        <ele>19.723380453885</ele>
        <time>2021-11-28T14:48:53Z</time>
      </trkpt>
      <trkpt lat="43.45914" lon="6.59918">
        <ele>19.723595030606</ele>
        <time>2021-11-28T14:48:55Z</time>
      </trkpt>
      <trkpt lat="43.45914" lon="6.59922">
        <ele>20.723741210997</ele>
        <time>2021-11-28T14:48:57Z</time>
      </trkpt>
      <trkpt lat="43.45915" lon="6.59924">
        <ele>20.723803907633</ele>
        <time>2021-11-28T14:48:58Z</time>
      </trkpt>
      <trkpt lat="43.45914" lon="6.59926">
        <ele>20.723920248449</ele>
        <time>2021-11-28T14:48:59Z</time>
      </trkpt>
      <trkpt lat="43.45913" lon="6.5993">
        <ele>20.724166676402</ele>
        <time>2021-11-28T14:49:01Z</time>
      </trkpt>
      <trkpt lat="43.45912" lon="6.59932">
        <ele>21.724300786853</ele>
        <time>2021-11-28T14:49:02Z</time>
      </trkpt>
      <trkpt lat="43.45912" lon="6.59934">
        <ele>21.724424168468</ele>
        <time>2021-11-28T14:49:03Z</time>
      </trkpt>
      <trkpt lat="43.45911" lon="6.59936">
        <ele>21.724539838731</ele>
        <time>2021-11-28T14:49:04Z</time>
      </trkpt>
      <trkpt lat="43.45911" lon="6.59939">
        <ele>21.724702447653</ele>
        <time>2021-11-28T14:49:06Z</time>
      </trkpt>
      <trkpt lat="43.4591" lon="6.59941">
        <ele>22.72481778264</ele>
        <time>2021-11-28T14:49:07Z</time>
      </trkpt>
      <trkpt lat="43.4591" lon="6.59943">
        <ele>22.724921382964</ele>
        <time>2021-11-28T14:49:08Z</time>
      </trkpt>
      <trkpt lat="43.4591" lon="6.59945">
        <ele>21.725020289421</ele>
        <time>2021-11-28T14:49:09Z</time>
      </trkpt>
      <trkpt lat="43.45909" lon="6.59946">
        <ele>21.725136965513</ele>
        <time>2021-11-28T14:49:10Z</time>
      </trkpt>
      <trkpt lat="43.45908" lon="6.5995">
        <ele>21.725348860025</ele>
        <time>2021-11-28T14:49:12Z</time>
      </trkpt>
      <trkpt lat="43.45908" lon="6.59952">
        <ele>20.725443743169</ele>
        <time>2021-11-28T14:49:13Z</time>
      </trkpt>
      <trkpt lat="43.45908" lon="6.59954">
        <ele>21.725554719567</ele>
        <time>2021-11-28T14:49:14Z</time>
      </trkpt>
      <trkpt lat="43.45908" lon="6.59956">
        <ele>21.725647591054</ele>
        <time>2021-11-28T14:49:15Z</time>
      </trkpt>
      <trkpt lat="43.45907" lon="6.5996">
        <ele>21.725884966552</ele>
        <time>2021-11-28T14:49:17Z</time>
      </trkpt>
      <trkpt lat="43.45906" lon="6.59962">
        <ele>21.725984543562</ele>
        <time>2021-11-28T14:49:18Z</time>
      </trkpt>
      <trkpt lat="43.45906" lon="6.59963">
        <ele>21.726088479161</ele>
        <time>2021-11-28T14:49:19Z</time>
      </trkpt>
      <trkpt lat="43.45904" lon="6.59967">
        <ele>21.726346977055</ele>
        <time>2021-11-28T14:49:21Z</time>
      </trkpt>
      <trkpt lat="43.45904" lon="6.59968">
        <ele>21.726424090564</ele>
        <time>2021-11-28T14:49:22Z</time>
      </trkpt>
      <trkpt lat="43.45904" lon="6.59969">
        <ele>20.726452253759</ele>
        <time>2021-11-28T14:49:23Z</time>
      </trkpt>
      <trkpt lat="43.45904" lon="6.59971">
        <ele>20.726528026164</ele>
        <time>2021-11-28T14:49:24Z</time>
      </trkpt>
      <trkpt lat="43.45903" lon="6.59974">
        <ele>20.726693987846</ele>
        <time>2021-11-28T14:49:26Z</time>
      </trkpt>
      <trkpt lat="43.45903" lon="6.59976">
        <ele>19.726773113012</ele>
        <time>2021-11-28T14:49:27Z</time>
      </trkpt>
      <trkpt lat="43.45903" lon="6.59978">
        <ele>18.72687805444</ele>
        <time>2021-11-28T14:49:28Z</time>
      </trkpt>
      <trkpt lat="43.45902" lon="6.59979">
        <ele>18.726992383599</ele>
        <time>2021-11-28T14:49:29Z</time>
      </trkpt>
      <trkpt lat="43.45901" lon="6.59983">
        <ele>17.727201260626</ele>
        <time>2021-11-28T14:49:31Z</time>
      </trkpt>
      <trkpt lat="43.45901" lon="6.59985">
        <ele>18.727298155427</ele>
        <time>2021-11-28T14:49:32Z</time>
      </trkpt>
      <trkpt lat="43.45901" lon="6.59987">
        <ele>17.727410472929</ele>
        <time>2021-11-28T14:49:33Z</time>
      </trkpt>
      <trkpt lat="43.45899" lon="6.59991">
        <ele>17.727689087391</ele>
        <time>2021-11-28T14:49:35Z</time>
      </trkpt>
      <trkpt lat="43.45899" lon="6.59995">
        <ele>17.727898970246</ele>
        <time>2021-11-28T14:49:37Z</time>
      </trkpt>
      <trkpt lat="43.45899" lon="6.59997">
        <ele>17.727975077927</ele>
        <time>2021-11-28T14:49:38Z</time>
      </trkpt>
      <trkpt lat="43.45899" lon="6.6">
        <ele>17.728073649108</ele>
        <time>2021-11-28T14:49:39Z</time>
      </trkpt>
      <trkpt lat="43.45898" lon="6.60003">
        <ele>17.728296943009</ele>
        <time>2021-11-28T14:49:41Z</time>
      </trkpt>
      <trkpt lat="43.45897" lon="6.60005">
        <ele>17.728387132287</ele>
        <time>2021-11-28T14:49:42Z</time>
      </trkpt>
      <trkpt lat="43.45897" lon="6.60006">
        <ele>17.728492744267</ele>
        <time>2021-11-28T14:49:43Z</time>
      </trkpt>
      <trkpt lat="43.45897" lon="6.60009">
        <ele>16.728650659323</ele>
        <time>2021-11-28T14:49:45Z</time>
      </trkpt>
      <trkpt lat="43.45896" lon="6.60013">
        <ele>16.72881192714</ele>
        <time>2021-11-28T14:49:47Z</time>
      </trkpt>
      <trkpt lat="43.45896" lon="6.60014">
        <ele>16.728879317641</ele>
        <time>2021-11-28T14:49:48Z</time>
      </trkpt>
      <trkpt lat="43.45896" lon="6.60016">
        <ele>16.728965818882</ele>
        <time>2021-11-28T14:49:49Z</time>
      </trkpt>
      <trkpt lat="43.45895" lon="6.60019">
        <ele>16.729164302349</ele>
        <time>2021-11-28T14:49:51Z</time>
      </trkpt>
      <trkpt lat="43.45895" lon="6.60021">
        <ele>16.72926723212</ele>
        <time>2021-11-28T14:49:52Z</time>
      </trkpt>
      <trkpt lat="43.45894" lon="6.60022">
        <ele>16.729349374771</ele>
        <time>2021-11-28T14:49:53Z</time>
      </trkpt>
      <trkpt lat="43.45894" lon="6.60026">
        <ele>15.729525394738</ele>
        <time>2021-11-28T14:49:55Z</time>
      </trkpt>
      <trkpt lat="43.45894" lon="6.60028">
        <ele>15.729615584016</ele>
        <time>2021-11-28T14:49:56Z</time>
      </trkpt>
      <trkpt lat="43.45893" lon="6.60029">
        <ele>15.729716837406</ele>
        <time>2021-11-28T14:49:57Z</time>
      </trkpt>
      <trkpt lat="43.45893" lon="6.6003">
        <ele>15.729803338647</ele>
        <time>2021-11-28T14:49:58Z</time>
      </trkpt>
      <trkpt lat="43.45892" lon="6.60032">
        <ele>15.729907944798</ele>
        <time>2021-11-28T14:49:59Z</time>
      </trkpt>
      <trkpt lat="43.45891" lon="6.60035">
        <ele>16.730156384408</ele>
        <time>2021-11-28T14:50:01Z</time>
      </trkpt>
      <trkpt lat="43.4589" lon="6.60037">
        <ele>16.730274401605</ele>
        <time>2021-11-28T14:50:02Z</time>
      </trkpt>
      <trkpt lat="43.45889" lon="6.60038">
        <ele>16.730375654995</ele>
        <time>2021-11-28T14:50:03Z</time>
      </trkpt>
      <trkpt lat="43.45889" lon="6.6004">
        <ele>15.730491660535</ele>
        <time>2021-11-28T14:50:04Z</time>
      </trkpt>
      <trkpt lat="43.45889" lon="6.60044">
        <ele>15.730668015778</ele>
        <time>2021-11-28T14:50:06Z</time>
      </trkpt>
      <trkpt lat="43.45888" lon="6.60046">
        <ele>15.730752170086</ele>
        <time>2021-11-28T14:50:07Z</time>
      </trkpt>
      <trkpt lat="43.45888" lon="6.60047">
        <ele>15.730866163969</ele>
        <time>2021-11-28T14:50:08Z</time>
      </trkpt>
      <trkpt lat="43.45887" lon="6.60049">
        <ele>15.730976469815</ele>
        <time>2021-11-28T14:50:09Z</time>
      </trkpt>
      <trkpt lat="43.45887" lon="6.60051">
        <ele>15.731080070138</ele>
        <time>2021-11-28T14:50:10Z</time>
      </trkpt>
      <trkpt lat="43.45887" lon="6.60053">
        <ele>15.731159865856</ele>
        <time>2021-11-28T14:50:11Z</time>
      </trkpt>
      <trkpt lat="43.45887" lon="6.60055">
        <ele>15.731254749</ele>
        <time>2021-11-28T14:50:12Z</time>
      </trkpt>
      <trkpt lat="43.45886" lon="6.60056">
        <ele>15.731341585517</ele>
        <time>2021-11-28T14:50:13Z</time>
      </trkpt>
      <trkpt lat="43.45886" lon="6.60058">
        <ele>15.73142875731</ele>
        <time>2021-11-28T14:50:14Z</time>
      </trkpt>
      <trkpt lat="43.45885" lon="6.60059">
        <ele>16.73154040426</ele>
        <time>2021-11-28T14:50:15Z</time>
      </trkpt>
      <trkpt lat="43.45885" lon="6.60061">
        <ele>16.731642328203</ele>
        <time>2021-11-28T14:50:16Z</time>
      </trkpt>
      <trkpt lat="43.45885" lon="6.60063">
        <ele>16.73174559325</ele>
        <time>2021-11-28T14:50:17Z</time>
      </trkpt>
      <trkpt lat="43.45885" lon="6.60064">
        <ele>16.731807619333</ele>
        <time>2021-11-28T14:50:18Z</time>
      </trkpt>
      <trkpt lat="43.45884" lon="6.60067">
        <ele>15.731987327337</ele>
        <time>2021-11-28T14:50:20Z</time>
      </trkpt>
      <trkpt lat="43.45883" lon="6.60071">
        <ele>14.732190839946</ele>
        <time>2021-11-28T14:50:22Z</time>
      </trkpt>
      <trkpt lat="43.45883" lon="6.60074">
        <ele>14.73227968812</ele>
        <time>2021-11-28T14:50:23Z</time>
      </trkpt>
      <trkpt lat="43.45883" lon="6.60075">
        <ele>14.732394687831</ele>
        <time>2021-11-28T14:50:24Z</time>
      </trkpt>
      <trkpt lat="43.45882" lon="6.60079">
        <ele>14.73258177191</ele>
        <time>2021-11-28T14:50:26Z</time>
      </trkpt>
      <trkpt lat="43.45883" lon="6.60081">
        <ele>15.732615634799</ele>
        <time>2021-11-28T14:50:27Z</time>
      </trkpt>
      <trkpt lat="43.45882" lon="6.60082">
        <ele>15.73271420598</ele>
        <time>2021-11-28T14:50:28Z</time>
      </trkpt>
      <trkpt lat="43.45881" lon="6.60086">
        <ele>17.732922412455</ele>
        <time>2021-11-28T14:50:30Z</time>
      </trkpt>
      <trkpt lat="43.45881" lon="6.60089">
        <ele>17.733092732728</ele>
        <time>2021-11-28T14:50:32Z</time>
      </trkpt>
      <trkpt lat="43.45881" lon="6.60091">
        <ele>17.733190633357</ele>
        <time>2021-11-28T14:50:33Z</time>
      </trkpt>
      <trkpt lat="43.4588" lon="6.60093">
        <ele>16.733300603926</ele>
        <time>2021-11-28T14:50:34Z</time>
      </trkpt>
      <trkpt lat="43.45879" lon="6.60095">
        <ele>15.733474612236</ele>
        <time>2021-11-28T14:50:36Z</time>
      </trkpt>
      <trkpt lat="43.45879" lon="6.60097">
        <ele>15.733551390469</ele>
        <time>2021-11-28T14:50:37Z</time>
      </trkpt>
      <trkpt lat="43.45879" lon="6.601">
        <ele>15.733676783741</ele>
        <time>2021-11-28T14:50:38Z</time>
      </trkpt>
      <trkpt lat="43.45878" lon="6.60104">
        <ele>16.733889348805</ele>
        <time>2021-11-28T14:50:40Z</time>
      </trkpt>
      <trkpt lat="43.45878" lon="6.60106">
        <ele>16.734003007412</ele>
        <time>2021-11-28T14:50:41Z</time>
      </trkpt>
      <trkpt lat="43.45878" lon="6.60108">
        <ele>16.734096549451</ele>
        <time>2021-11-28T14:50:42Z</time>
      </trkpt>
      <trkpt lat="43.45877" lon="6.6011">
        <ele>17.734226636589</ele>
        <time>2021-11-28T14:50:43Z</time>
      </trkpt>
      <trkpt lat="43.45876" lon="6.60112">
        <ele>17.734378181398</ele>
        <time>2021-11-28T14:50:44Z</time>
      </trkpt>
      <trkpt lat="43.45875" lon="6.60115">
        <ele>17.734591417015</ele>
        <time>2021-11-28T14:50:46Z</time>
      </trkpt>
      <trkpt lat="43.45875" lon="6.60117">
        <ele>17.734655454755</ele>
        <time>2021-11-28T14:50:47Z</time>
      </trkpt>
      <trkpt lat="43.45875" lon="6.60119">
        <ele>17.734720163047</ele>
        <time>2021-11-28T14:50:48Z</time>
      </trkpt>
      <trkpt lat="43.45874" lon="6.60122">
        <ele>17.734919652343</ele>
        <time>2021-11-28T14:50:50Z</time>
      </trkpt>
      <trkpt lat="43.45874" lon="6.60125">
        <ele>17.735054768622</ele>
        <time>2021-11-28T14:50:52Z</time>
      </trkpt>
      <trkpt lat="43.45874" lon="6.60126">
        <ele>17.735115453601</ele>
        <time>2021-11-28T14:50:53Z</time>
      </trkpt>
      <trkpt lat="43.45874" lon="6.60128">
        <ele>18.735199943185</ele>
        <time>2021-11-28T14:50:54Z</time>
      </trkpt>
      <trkpt lat="43.45873" lon="6.60131">
        <ele>18.735394068062</ele>
        <time>2021-11-28T14:50:56Z</time>
      </trkpt>
      <trkpt lat="43.45872" lon="6.60131">
        <ele>18.735477551818</ele>
        <time>2021-11-28T14:50:57Z</time>
      </trkpt>
      <trkpt lat="43.45872" lon="6.6013">
        <ele>16.735490627587</ele>
        <time>2021-11-28T14:51:00Z</time>
      </trkpt>
      <trkpt lat="43.45871" lon="6.60129">
        <ele>15.735493980348</ele>
        <time>2021-11-28T14:51:01Z</time>
      </trkpt>
      <trkpt lat="43.45871" lon="6.60129">
        <ele>14.735459446907</ele>
        <time>2021-11-28T14:51:03Z</time>
      </trkpt>
      <trkpt lat="43.45872" lon="6.60131">
        <ele>15.73546615243</ele>
        <time>2021-11-28T14:51:04Z</time>
      </trkpt>
      <trkpt lat="43.45872" lon="6.60135">
        <ele>15.735592886806</ele>
        <time>2021-11-28T14:51:06Z</time>
      </trkpt>
      <trkpt lat="43.45873" lon="6.60136">
        <ele>16.735633119941</ele>
        <time>2021-11-28T14:51:07Z</time>
      </trkpt>
      <trkpt lat="43.45873" lon="6.60138">
        <ele>15.73569983989</ele>
        <time>2021-11-28T14:51:08Z</time>
      </trkpt>
      <trkpt lat="43.45872" lon="6.60141">
        <ele>16.735868819058</ele>
        <time>2021-11-28T14:51:10Z</time>
      </trkpt>
      <trkpt lat="43.45872" lon="6.60145">
        <ele>17.736030422151</ele>
        <time>2021-11-28T14:51:12Z</time>
      </trkpt>
      <trkpt lat="43.45872" lon="6.60146">
        <ele>17.73610753566</ele>
        <time>2021-11-28T14:51:13Z</time>
      </trkpt>
      <trkpt lat="43.45872" lon="6.60148">
        <ele>17.736196383834</ele>
        <time>2021-11-28T14:51:14Z</time>
      </trkpt>
      <trkpt lat="43.45871" lon="6.6015">
        <ele>17.736319765449</ele>
        <time>2021-11-28T14:51:15Z</time>
      </trkpt>
      <trkpt lat="43.45871" lon="6.60153">
        <ele>18.736420683563</ele>
        <time>2021-11-28T14:51:16Z</time>
      </trkpt>
      <trkpt lat="43.45871" lon="6.60155">
        <ele>18.736505173147</ele>
        <time>2021-11-28T14:51:17Z</time>
      </trkpt>
      <trkpt lat="43.45871" lon="6.60157">
        <ele>18.736603744328</ele>
        <time>2021-11-28T14:51:18Z</time>
      </trkpt>
      <trkpt lat="43.45871" lon="6.60159">
        <ele>18.736674822867</ele>
        <time>2021-11-28T14:51:19Z</time>
      </trkpt>
      <trkpt lat="43.45871" lon="6.6016">
        <ele>18.736698962748</ele>
        <time>2021-11-28T14:51:20Z</time>
      </trkpt>
      <trkpt lat="43.45871" lon="6.60162">
        <ele>18.736786134541</ele>
        <time>2021-11-28T14:51:21Z</time>
      </trkpt>
      <trkpt lat="43.45871" lon="6.60164">
        <ele>19.736866600811</ele>
        <time>2021-11-28T14:51:22Z</time>
      </trkpt>
      <trkpt lat="43.45871" lon="6.60166">
        <ele>19.736936673522</ele>
        <time>2021-11-28T14:51:23Z</time>
      </trkpt>
      <trkpt lat="43.45871" lon="6.60168">
        <ele>19.737029209733</ele>
        <time>2021-11-28T14:51:24Z</time>
      </trkpt>
      <trkpt lat="43.4587" lon="6.60171">
        <ele>19.737204559147</ele>
        <time>2021-11-28T14:51:26Z</time>
      </trkpt>
      <trkpt lat="43.4587" lon="6.60173">
        <ele>19.737326934934</ele>
        <time>2021-11-28T14:51:27Z</time>
      </trkpt>
      <trkpt lat="43.4587" lon="6.60174">
        <ele>19.737402372062</ele>
        <time>2021-11-28T14:51:28Z</time>
      </trkpt>
      <trkpt lat="43.45869" lon="6.60178">
        <ele>19.737561963499</ele>
        <time>2021-11-28T14:51:30Z</time>
      </trkpt>
      <trkpt lat="43.4587" lon="6.60182">
        <ele>19.737690709531</ele>
        <time>2021-11-28T14:51:32Z</time>
      </trkpt>
      <trkpt lat="43.45869" lon="6.60184">
        <ele>18.737825155258</ele>
        <time>2021-11-28T14:51:33Z</time>
      </trkpt>
      <trkpt lat="43.45869" lon="6.60186">
        <ele>18.737935125828</ele>
        <time>2021-11-28T14:51:34Z</time>
      </trkpt>
      <trkpt lat="43.45868" lon="6.60189">
        <ele>19.738104440272</ele>
        <time>2021-11-28T14:51:36Z</time>
      </trkpt>
      <trkpt lat="43.45868" lon="6.60191">
        <ele>18.738190941513</ele>
        <time>2021-11-28T14:51:37Z</time>
      </trkpt>
      <trkpt lat="43.45868" lon="6.60193">
        <ele>18.738284483552</ele>
        <time>2021-11-28T14:51:38Z</time>
      </trkpt>
      <trkpt lat="43.45867" lon="6.60195">
        <ele>18.738436363637</ele>
        <time>2021-11-28T14:51:40Z</time>
      </trkpt>
      <trkpt lat="43.45867" lon="6.602">
        <ele>17.738647922873</ele>
        <time>2021-11-28T14:51:42Z</time>
      </trkpt>
      <trkpt lat="43.45867" lon="6.60202">
        <ele>18.738723695278</ele>
        <time>2021-11-28T14:51:43Z</time>
      </trkpt>
      <trkpt lat="43.45867" lon="6.60204">
        <ele>18.738816902041</ele>
        <time>2021-11-28T14:51:44Z</time>
      </trkpt>
      <trkpt lat="43.45866" lon="6.60205">
        <ele>17.738909102976</ele>
        <time>2021-11-28T14:51:45Z</time>
      </trkpt>
      <trkpt lat="43.45866" lon="6.60207">
        <ele>17.738982193172</ele>
        <time>2021-11-28T14:51:46Z</time>
      </trkpt>
      <trkpt lat="43.45866" lon="6.60208">
        <ele>17.73905595392</ele>
        <time>2021-11-28T14:51:47Z</time>
      </trkpt>
      <trkpt lat="43.45866" lon="6.6021">
        <ele>17.739141784608</ele>
        <time>2021-11-28T14:51:48Z</time>
      </trkpt>
      <trkpt lat="43.45865" lon="6.60212">
        <ele>17.73925242573</ele>
        <time>2021-11-28T14:51:49Z</time>
      </trkpt>
      <trkpt lat="43.45865" lon="6.60216">
        <ele>18.739449568093</ele>
        <time>2021-11-28T14:51:51Z</time>
      </trkpt>
      <trkpt lat="43.45865" lon="6.60217">
        <ele>18.739519640803</ele>
        <time>2021-11-28T14:51:52Z</time>
      </trkpt>
      <trkpt lat="43.45864" lon="6.60219">
        <ele>18.739595413208</ele>
        <time>2021-11-28T14:51:53Z</time>
      </trkpt>
      <trkpt lat="43.45864" lon="6.60221">
        <ele>18.739673532546</ele>
        <time>2021-11-28T14:51:54Z</time>
      </trkpt>
      <trkpt lat="43.45864" lon="6.60222">
        <ele>17.739742934704</ele>
        <time>2021-11-28T14:51:55Z</time>
      </trkpt>
      <trkpt lat="43.45864" lon="6.60224">
        <ele>18.739833123982</ele>
        <time>2021-11-28T14:51:56Z</time>
      </trkpt>
      <trkpt lat="43.45864" lon="6.60225">
        <ele>18.739914596081</ele>
        <time>2021-11-28T14:51:57Z</time>
      </trkpt>
      <trkpt lat="43.45864" lon="6.60227">
        <ele>18.739998750389</ele>
        <time>2021-11-28T14:51:58Z</time>
      </trkpt>
      <trkpt lat="43.45863" lon="6.60231">
        <ele>18.740168735385</ele>
        <time>2021-11-28T14:52:00Z</time>
      </trkpt>
      <trkpt lat="43.45864" lon="6.60233">
        <ele>18.740229085088</ele>
        <time>2021-11-28T14:52:01Z</time>
      </trkpt>
      <trkpt lat="43.45864" lon="6.60235">
        <ele>19.74029379338</ele>
        <time>2021-11-28T14:52:02Z</time>
      </trkpt>
      <trkpt lat="43.45863" lon="6.60236">
        <ele>19.740382641554</ele>
        <time>2021-11-28T14:52:03Z</time>
      </trkpt>
      <trkpt lat="43.45864" lon="6.6024">
        <ele>19.740486912429</ele>
        <time>2021-11-28T14:52:05Z</time>
      </trkpt>
      <trkpt lat="43.45864" lon="6.60243">
        <ele>19.740592189133</ele>
        <time>2021-11-28T14:52:07Z</time>
      </trkpt>
      <trkpt lat="43.45864" lon="6.60244">
        <ele>19.740628063679</ele>
        <time>2021-11-28T14:52:08Z</time>
      </trkpt>
      <trkpt lat="43.45864" lon="6.60246">
        <ele>20.740715570748</ele>
        <time>2021-11-28T14:52:09Z</time>
      </trkpt>
      <trkpt lat="43.45864" lon="6.6025">
        <ele>21.740905672312</ele>
        <time>2021-11-28T14:52:11Z</time>
      </trkpt>
      <trkpt lat="43.45863" lon="6.60252">
        <ele>21.741023018956</ele>
        <time>2021-11-28T14:52:12Z</time>
      </trkpt>
      <trkpt lat="43.45863" lon="6.60254">
        <ele>22.741112202406</ele>
        <time>2021-11-28T14:52:13Z</time>
      </trkpt>
      <trkpt lat="43.45863" lon="6.60256">
        <ele>22.741189986467</ele>
        <time>2021-11-28T14:52:15Z</time>
      </trkpt>
      <trkpt lat="43.45863" lon="6.60257">
        <ele>22.741227202117</ele>
        <time>2021-11-28T14:52:16Z</time>
      </trkpt>
      <trkpt lat="43.45863" lon="6.60259">
        <ele>22.741320744157</ele>
        <time>2021-11-28T14:52:17Z</time>
      </trkpt>
      <trkpt lat="43.45863" lon="6.60261">
        <ele>22.741433732212</ele>
        <time>2021-11-28T14:52:18Z</time>
      </trkpt>
      <trkpt lat="43.45863" lon="6.60264">
        <ele>22.741532638669</ele>
        <time>2021-11-28T14:52:19Z</time>
      </trkpt>
      <trkpt lat="43.45864" lon="6.60268">
        <ele>22.741592653096</ele>
        <time>2021-11-28T14:52:21Z</time>
      </trkpt>
      <trkpt lat="43.45864" lon="6.60269">
        <ele>22.74166674912</ele>
        <time>2021-11-28T14:52:22Z</time>
      </trkpt>
      <trkpt lat="43.45863" lon="6.60271">
        <ele>23.741756267846</ele>
        <time>2021-11-28T14:52:23Z</time>
      </trkpt>
      <trkpt lat="43.45863" lon="6.60272">
        <ele>23.74181997031</ele>
        <time>2021-11-28T14:52:24Z</time>
      </trkpt>
      <trkpt lat="43.45863" lon="6.60276">
        <ele>23.74201208353</ele>
        <time>2021-11-28T14:52:26Z</time>
      </trkpt>
      <trkpt lat="43.45863" lon="6.60278">
        <ele>23.742105960846</ele>
        <time>2021-11-28T14:52:27Z</time>
      </trkpt>
      <trkpt lat="43.45862" lon="6.60279">
        <ele>23.742192797363</ele>
        <time>2021-11-28T14:52:28Z</time>
      </trkpt>
      <trkpt lat="43.45862" lon="6.60281">
        <ele>23.742286004126</ele>
        <time>2021-11-28T14:52:29Z</time>
      </trkpt>
      <trkpt lat="43.45862" lon="6.60283">
        <ele>23.74238692224</ele>
        <time>2021-11-28T14:52:30Z</time>
      </trkpt>
      <trkpt lat="43.45861" lon="6.60284">
        <ele>23.742489516735</ele>
        <time>2021-11-28T14:52:31Z</time>
      </trkpt>
      <trkpt lat="43.45861" lon="6.60286">
        <ele>23.742589764297</ele>
        <time>2021-11-28T14:52:32Z</time>
      </trkpt>
      <trkpt lat="43.4586" lon="6.60287">
        <ele>23.742644749582</ele>
        <time>2021-11-28T14:52:33Z</time>
      </trkpt>
      <trkpt lat="43.4586" lon="6.60288">
        <ele>24.742691352963</ele>
        <time>2021-11-28T14:52:34Z</time>
      </trkpt>
      <trkpt lat="43.4586" lon="6.60289">
        <ele>23.742751032114</ele>
        <time>2021-11-28T14:52:35Z</time>
      </trkpt>
      <trkpt lat="43.4586" lon="6.60292">
        <ele>23.742881789804</ele>
        <time>2021-11-28T14:52:37Z</time>
      </trkpt>
      <trkpt lat="43.4586" lon="6.60294">
        <ele>23.742981702089</ele>
        <time>2021-11-28T14:52:38Z</time>
      </trkpt>
      <trkpt lat="43.45859" lon="6.60295">
        <ele>24.743059486151</ele>
        <time>2021-11-28T14:52:39Z</time>
      </trkpt>
      <trkpt lat="43.45859" lon="6.60296">
        <ele>24.743158727884</ele>
        <time>2021-11-28T14:52:40Z</time>
      </trkpt>
      <trkpt lat="43.45858" lon="6.603">
        <ele>23.743333742023</ele>
        <time>2021-11-28T14:52:42Z</time>
      </trkpt>
      <trkpt lat="43.45858" lon="6.60302">
        <ele>23.743423596025</ele>
        <time>2021-11-28T14:52:43Z</time>
      </trkpt>
      <trkpt lat="43.45858" lon="6.60303">
        <ele>23.743513450027</ele>
        <time>2021-11-28T14:52:44Z</time>
      </trkpt>
      <trkpt lat="43.45857" lon="6.60305">
        <ele>23.743628449738</ele>
        <time>2021-11-28T14:52:45Z</time>
      </trkpt>
      <trkpt lat="43.45857" lon="6.60309">
        <ele>23.743807151914</ele>
        <time>2021-11-28T14:52:47Z</time>
      </trkpt>
      <trkpt lat="43.45857" lon="6.60311">
        <ele>23.743903040886</ele>
        <time>2021-11-28T14:52:48Z</time>
      </trkpt>
      <trkpt lat="43.45856" lon="6.60312">
        <ele>23.744001612067</ele>
        <time>2021-11-28T14:52:49Z</time>
      </trkpt>
      <trkpt lat="43.45856" lon="6.60316">
        <ele>23.744164556265</ele>
        <time>2021-11-28T14:52:51Z</time>
      </trkpt>
      <trkpt lat="43.45856" lon="6.60318">
        <ele>23.744232617319</ele>
        <time>2021-11-28T14:52:52Z</time>
      </trkpt>
      <trkpt lat="43.45856" lon="6.6032">
        <ele>23.744287267327</ele>
        <time>2021-11-28T14:52:53Z</time>
      </trkpt>
      <trkpt lat="43.45857" lon="6.60323">
        <ele>23.744385503232</ele>
        <time>2021-11-28T14:52:55Z</time>
      </trkpt>
      <trkpt lat="43.45856" lon="6.60326">
        <ele>22.744558170438</ele>
        <time>2021-11-28T14:52:57Z</time>
      </trkpt>
      <trkpt lat="43.45856" lon="6.60328">
        <ele>22.744604438543</ele>
        <time>2021-11-28T14:52:58Z</time>
      </trkpt>
      <trkpt lat="43.45856" lon="6.60329">
        <ele>23.744695968926</ele>
        <time>2021-11-28T14:52:59Z</time>
      </trkpt>
      <trkpt lat="43.45856" lon="6.60333">
        <ele>23.744837790728</ele>
        <time>2021-11-28T14:53:01Z</time>
      </trkpt>
      <trkpt lat="43.45856" lon="6.60334">
        <ele>23.744877353311</ele>
        <time>2021-11-28T14:53:02Z</time>
      </trkpt>
      <trkpt lat="43.45856" lon="6.60336">
        <ele>23.744945414364</ele>
        <time>2021-11-28T14:53:03Z</time>
      </trkpt>
      <trkpt lat="43.45856" lon="6.6034">
        <ele>23.745099641383</ele>
        <time>2021-11-28T14:53:05Z</time>
      </trkpt>
      <trkpt lat="43.45856" lon="6.60343">
        <ele>22.745254538953</ele>
        <time>2021-11-28T14:53:07Z</time>
      </trkpt>
      <trkpt lat="43.45856" lon="6.60345">
        <ele>23.745355121791</ele>
        <time>2021-11-28T14:53:08Z</time>
      </trkpt>
      <trkpt lat="43.45855" lon="6.60347">
        <ele>23.745440617204</ele>
        <time>2021-11-28T14:53:09Z</time>
      </trkpt>
      <trkpt lat="43.45855" lon="6.60351">
        <ele>23.745617978275</ele>
        <time>2021-11-28T14:53:11Z</time>
      </trkpt>
      <trkpt lat="43.45855" lon="6.60352">
        <ele>23.745702803135</ele>
        <time>2021-11-28T14:53:12Z</time>
      </trkpt>
      <trkpt lat="43.45855" lon="6.60354">
        <ele>23.745779246092</ele>
        <time>2021-11-28T14:53:13Z</time>
      </trkpt>
      <trkpt lat="43.45854" lon="6.60358">
        <ele>23.745968341827</ele>
        <time>2021-11-28T14:53:15Z</time>
      </trkpt>
      <trkpt lat="43.45854" lon="6.60362">
        <ele>24.746184594929</ele>
        <time>2021-11-28T14:53:17Z</time>
      </trkpt>
      <trkpt lat="43.45854" lon="6.60363">
        <ele>23.746235892177</ele>
        <time>2021-11-28T14:53:18Z</time>
      </trkpt>
      <trkpt lat="43.45854" lon="6.60365">
        <ele>22.746248967946</ele>
        <time>2021-11-28T14:53:19Z</time>
      </trkpt>
      <trkpt lat="43.45854" lon="6.60367">
        <ele>22.746309988201</ele>
        <time>2021-11-28T14:53:20Z</time>
      </trkpt>
      <trkpt lat="43.45855" lon="6.60368">
        <ele>21.746354915202</ele>
        <time>2021-11-28T14:53:21Z</time>
      </trkpt>
      <trkpt lat="43.45855" lon="6.6037">
        <ele>21.746413253248</ele>
        <time>2021-11-28T14:53:22Z</time>
      </trkpt>
      <trkpt lat="43.45855" lon="6.60372">
        <ele>21.746475279331</ele>
        <time>2021-11-28T14:53:23Z</time>
      </trkpt>
      <trkpt lat="43.45855" lon="6.60374">
        <ele>21.746544681489</ele>
        <time>2021-11-28T14:53:24Z</time>
      </trkpt>
      <trkpt lat="43.45855" lon="6.60375">
        <ele>21.74660000205</ele>
        <time>2021-11-28T14:53:25Z</time>
      </trkpt>
      <trkpt lat="43.45854" lon="6.60375">
        <ele>20.746653981507</ele>
        <time>2021-11-28T14:53:29Z</time>
      </trkpt>
      <trkpt lat="43.45854" lon="6.60375">
        <ele>20.746640905738</ele>
        <time>2021-11-28T14:53:30Z</time>
      </trkpt>
      <trkpt lat="43.45855" lon="6.60374">
        <ele>20.746587261558</ele>
        <time>2021-11-28T14:53:31Z</time>
      </trkpt>
      <trkpt lat="43.45855" lon="6.60374">
        <ele>21.746552057564</ele>
        <time>2021-11-28T14:53:32Z</time>
      </trkpt>
      <trkpt lat="43.45856" lon="6.60376">
        <ele>21.746567480266</ele>
        <time>2021-11-28T14:53:33Z</time>
      </trkpt>
      <trkpt lat="43.45856" lon="6.60377">
        <ele>21.746605366468</ele>
        <time>2021-11-28T14:53:34Z</time>
      </trkpt>
      <trkpt lat="43.45856" lon="6.60379">
        <ele>21.746673092246</ele>
        <time>2021-11-28T14:53:35Z</time>
      </trkpt>
      <trkpt lat="43.45856" lon="6.60381">
        <ele>21.746766969562</ele>
        <time>2021-11-28T14:53:36Z</time>
      </trkpt>
      <trkpt lat="43.45856" lon="6.60383">
        <ele>21.74682161957</ele>
        <time>2021-11-28T14:53:37Z</time>
      </trkpt>
      <trkpt lat="43.45856" lon="6.60385">
        <ele>21.746902756393</ele>
        <time>2021-11-28T14:53:38Z</time>
      </trkpt>
      <trkpt lat="43.45856" lon="6.60386">
        <ele>21.746977858245</ele>
        <time>2021-11-28T14:53:39Z</time>
      </trkpt>
      <trkpt lat="43.45856" lon="6.6039">
        <ele>21.747168295085</ele>
        <time>2021-11-28T14:53:41Z</time>
      </trkpt>
      <trkpt lat="43.45855" lon="6.60392">
        <ele>21.747253455222</ele>
        <time>2021-11-28T14:53:42Z</time>
      </trkpt>
      <trkpt lat="43.45856" lon="6.60394">
        <ele>20.747308440506</ele>
        <time>2021-11-28T14:53:43Z</time>
      </trkpt>
      <trkpt lat="43.45855" lon="6.60397">
        <ele>20.747465349734</ele>
        <time>2021-11-28T14:53:45Z</time>
      </trkpt>
      <trkpt lat="43.45855" lon="6.60401">
        <ele>20.747679255903</ele>
        <time>2021-11-28T14:53:47Z</time>
      </trkpt>
      <trkpt lat="43.45855" lon="6.60403">
        <ele>20.747759386897</ele>
        <time>2021-11-28T14:53:48Z</time>
      </trkpt>
      <trkpt lat="43.45855" lon="6.60405">
        <ele>20.747798614204</ele>
        <time>2021-11-28T14:53:49Z</time>
      </trkpt>
      <trkpt lat="43.45855" lon="6.60408">
        <ele>19.747932054102</ele>
        <time>2021-11-28T14:53:51Z</time>
      </trkpt>
      <trkpt lat="43.45855" lon="6.60411">
        <ele>20.74802492559</ele>
        <time>2021-11-28T14:53:52Z</time>
      </trkpt>
      <trkpt lat="43.45855" lon="6.60413">
        <ele>20.748115450144</ele>
        <time>2021-11-28T14:53:53Z</time>
      </trkpt>
      <trkpt lat="43.45855" lon="6.60416">
        <ele>20.748228773475</ele>
        <time>2021-11-28T14:53:55Z</time>
      </trkpt>
      <trkpt lat="43.45856" lon="6.60421">
        <ele>20.748369254172</ele>
        <time>2021-11-28T14:53:57Z</time>
      </trkpt>
      <trkpt lat="43.45856" lon="6.60423">
        <ele>20.748429603875</ele>
        <time>2021-11-28T14:53:58Z</time>
      </trkpt>
      <trkpt lat="43.45856" lon="6.60425">
        <ele>19.748554326594</ele>
        <time>2021-11-28T14:53:59Z</time>
      </trkpt>
      <trkpt lat="43.45855" lon="6.6043">
        <ele>19.748773597181</ele>
        <time>2021-11-28T14:54:01Z</time>
      </trkpt>
      <trkpt lat="43.45856" lon="6.60432">
        <ele>19.748813830316</ele>
        <time>2021-11-28T14:54:02Z</time>
      </trkpt>
      <trkpt lat="43.45855" lon="6.60433">
        <ele>18.748898655176</ele>
        <time>2021-11-28T14:54:03Z</time>
      </trkpt>
      <trkpt lat="43.45855" lon="6.60435">
        <ele>18.748976103961</ele>
        <time>2021-11-28T14:54:04Z</time>
      </trkpt>
      <trkpt lat="43.45855" lon="6.60439">
        <ele>17.749154135585</ele>
        <time>2021-11-28T14:54:06Z</time>
      </trkpt>
      <trkpt lat="43.45855" lon="6.60441">
        <ele>17.749230913818</ele>
        <time>2021-11-28T14:54:07Z</time>
      </trkpt>
      <trkpt lat="43.45855" lon="6.60443">
        <ele>17.749335519969</ele>
        <time>2021-11-28T14:54:08Z</time>
      </trkpt>
      <trkpt lat="43.45855" lon="6.60445">
        <ele>17.749419339001</ele>
        <time>2021-11-28T14:54:09Z</time>
      </trkpt>
      <trkpt lat="43.45855" lon="6.60447">
        <ele>17.749470636249</ele>
        <time>2021-11-28T14:54:10Z</time>
      </trkpt>
      <trkpt lat="43.45855" lon="6.6045">
        <ele>16.749609105289</ele>
        <time>2021-11-28T14:54:12Z</time>
      </trkpt>
      <trkpt lat="43.45856" lon="6.60452">
        <ele>16.749623186886</ele>
        <time>2021-11-28T14:54:13Z</time>
      </trkpt>
      <trkpt lat="43.45856" lon="6.60454">
        <ele>16.749661743641</ele>
        <time>2021-11-28T14:54:14Z</time>
      </trkpt>
      <trkpt lat="43.45857" lon="6.60457">
        <ele>16.749750927091</ele>
        <time>2021-11-28T14:54:16Z</time>
      </trkpt>
      <trkpt lat="43.45857" lon="6.60459">
        <ele>16.749833069742</ele>
        <time>2021-11-28T14:54:17Z</time>
      </trkpt>
      <trkpt lat="43.45856" lon="6.60462">
        <ele>16.749967180192</ele>
        <time>2021-11-28T14:54:18Z</time>
      </trkpt>
      <trkpt lat="43.45856" lon="6.60464">
        <ele>16.750055022538</ele>
        <time>2021-11-28T14:54:19Z</time>
      </trkpt>
      <trkpt lat="43.45856" lon="6.60467">
        <ele>17.750185780227</ele>
        <time>2021-11-28T14:54:21Z</time>
      </trkpt>
      <trkpt lat="43.45856" lon="6.60469">
        <ele>17.750258870423</ele>
        <time>2021-11-28T14:54:22Z</time>
      </trkpt>
      <trkpt lat="43.45856" lon="6.60471">
        <ele>17.750335983932</ele>
        <time>2021-11-28T14:54:23Z</time>
      </trkpt>
      <trkpt lat="43.45856" lon="6.60475">
        <ele>16.750511333346</ele>
        <time>2021-11-28T14:54:25Z</time>
      </trkpt>
      <trkpt lat="43.45856" lon="6.60476">
        <ele>16.750558942556</ele>
        <time>2021-11-28T14:54:26Z</time>
      </trkpt>
      <trkpt lat="43.45856" lon="6.60478">
        <ele>16.750624656677</ele>
        <time>2021-11-28T14:54:27Z</time>
      </trkpt>
      <trkpt lat="43.45857" lon="6.6048">
        <ele>15.750688023865</ele>
        <time>2021-11-28T14:54:28Z</time>
      </trkpt>
      <trkpt lat="43.45857" lon="6.60483">
        <ele>15.750776201487</ele>
        <time>2021-11-28T14:54:29Z</time>
      </trkpt>
      <trkpt lat="43.45857" lon="6.60485">
        <ele>16.750857673585</ele>
        <time>2021-11-28T14:54:30Z</time>
      </trkpt>
      <trkpt lat="43.45857" lon="6.60486">
        <ele>15.750927746296</ele>
        <time>2021-11-28T14:54:31Z</time>
      </trkpt>
      <trkpt lat="43.45857" lon="6.60488">
        <ele>15.750969320536</ele>
        <time>2021-11-28T14:54:32Z</time>
      </trkpt>
      <trkpt lat="43.45857" lon="6.6049">
        <ele>15.751017600298</ele>
        <time>2021-11-28T14:54:33Z</time>
      </trkpt>
      <trkpt lat="43.45858" lon="6.60492">
        <ele>15.751044757664</ele>
        <time>2021-11-28T14:54:34Z</time>
      </trkpt>
      <trkpt lat="43.45858" lon="6.60495">
        <ele>15.751108124852</ele>
        <time>2021-11-28T14:54:36Z</time>
      </trkpt>
      <trkpt lat="43.45859" lon="6.60497">
        <ele>15.751155398786</ele>
        <time>2021-11-28T14:54:37Z</time>
      </trkpt>
      <trkpt lat="43.45859" lon="6.60499">
        <ele>15.751218765974</ele>
        <time>2021-11-28T14:54:38Z</time>
      </trkpt>
      <trkpt lat="43.45859" lon="6.60502">
        <ele>16.75133510679</ele>
        <time>2021-11-28T14:54:40Z</time>
      </trkpt>
      <trkpt lat="43.4586" lon="6.60505">
        <ele>16.751412555575</ele>
        <time>2021-11-28T14:54:42Z</time>
      </trkpt>
      <trkpt lat="43.4586" lon="6.60506">
        <ele>16.7514571473</ele>
        <time>2021-11-28T14:54:43Z</time>
      </trkpt>
      <trkpt lat="43.4586" lon="6.60508">
        <ele>16.75149268657</ele>
        <time>2021-11-28T14:54:44Z</time>
      </trkpt>
      <trkpt lat="43.45861" lon="6.60512">
        <ele>17.751629814506</ele>
        <time>2021-11-28T14:54:46Z</time>
      </trkpt>
      <trkpt lat="43.45861" lon="6.60514">
        <ele>17.751697875559</ele>
        <time>2021-11-28T14:54:47Z</time>
      </trkpt>
      <trkpt lat="43.45861" lon="6.60516">
        <ele>17.751765266061</ele>
        <time>2021-11-28T14:54:48Z</time>
      </trkpt>
      <trkpt lat="43.45861" lon="6.60518">
        <ele>18.751833662391</ele>
        <time>2021-11-28T14:54:49Z</time>
      </trkpt>
      <trkpt lat="43.45861" lon="6.60521">
        <ele>17.751988224685</ele>
        <time>2021-11-28T14:54:51Z</time>
      </trkpt>
      <trkpt lat="43.45861" lon="6.60523">
        <ele>17.752036504447</ele>
        <time>2021-11-28T14:54:52Z</time>
      </trkpt>
      <trkpt lat="43.45861" lon="6.60524">
        <ele>18.752077408135</ele>
        <time>2021-11-28T14:54:53Z</time>
      </trkpt>
      <trkpt lat="43.45861" lon="6.60528">
        <ele>17.752205818892</ele>
        <time>2021-11-28T14:54:55Z</time>
      </trkpt>
      <trkpt lat="43.45862" lon="6.60531">
        <ele>17.752301707864</ele>
        <time>2021-11-28T14:54:57Z</time>
      </trkpt>
      <trkpt lat="43.45862" lon="6.60532">
        <ele>17.752359710634</ele>
        <time>2021-11-28T14:54:58Z</time>
      </trkpt>
      <trkpt lat="43.45862" lon="6.60534">
        <ele>17.752416372299</ele>
        <time>2021-11-28T14:54:59Z</time>
      </trkpt>
      <trkpt lat="43.45862" lon="6.60536">
        <ele>17.752487786114</ele>
        <time>2021-11-28T14:55:00Z</time>
      </trkpt>
      <trkpt lat="43.45862" lon="6.60537">
        <ele>17.75255048275</ele>
        <time>2021-11-28T14:55:01Z</time>
      </trkpt>
      <trkpt lat="43.45862" lon="6.60539">
        <ele>17.752611838281</ele>
        <time>2021-11-28T14:55:02Z</time>
      </trkpt>
      <trkpt lat="43.45862" lon="6.6054">
        <ele>17.752658106387</ele>
        <time>2021-11-28T14:55:03Z</time>
      </trkpt>
      <trkpt lat="43.45862" lon="6.60543">
        <ele>17.752782158554</ele>
        <time>2021-11-28T14:55:05Z</time>
      </trkpt>
      <trkpt lat="43.45862" lon="6.60546">
        <ele>17.752899840474</ele>
        <time>2021-11-28T14:55:07Z</time>
      </trkpt>
      <trkpt lat="43.45861" lon="6.60547">
        <ele>17.752975612879</ele>
        <time>2021-11-28T14:55:08Z</time>
      </trkpt>
      <trkpt lat="43.45861" lon="6.60549">
        <ele>17.753051050007</ele>
        <time>2021-11-28T14:55:09Z</time>
      </trkpt>
      <trkpt lat="43.45861" lon="6.6055">
        <ele>17.753130845726</ele>
        <time>2021-11-28T14:55:11Z</time>
      </trkpt>
      <trkpt lat="43.45861" lon="6.60551">
        <ele>17.75317979604</ele>
        <time>2021-11-28T14:55:12Z</time>
      </trkpt>
      <trkpt lat="43.45861" lon="6.60553">
        <ele>16.753246515989</ele>
        <time>2021-11-28T14:55:13Z</time>
      </trkpt>
      <trkpt lat="43.45861" lon="6.60556">
        <ele>16.753371238708</ele>
        <time>2021-11-28T14:55:15Z</time>
      </trkpt>
      <trkpt lat="43.45861" lon="6.6056">
        <ele>16.753517754376</ele>
        <time>2021-11-28T14:55:17Z</time>
      </trkpt>
      <trkpt lat="43.45861" lon="6.60562">
        <ele>16.753564693034</ele>
        <time>2021-11-28T14:55:18Z</time>
      </trkpt>
      <trkpt lat="43.45861" lon="6.60564">
        <ele>16.753626383841</ele>
        <time>2021-11-28T14:55:19Z</time>
      </trkpt>
      <trkpt lat="43.45862" lon="6.60567">
        <ele>16.75372864306</ele>
        <time>2021-11-28T14:55:21Z</time>
      </trkpt>
      <trkpt lat="43.45862" lon="6.60569">
        <ele>16.753766864538</ele>
        <time>2021-11-28T14:55:22Z</time>
      </trkpt>
      <trkpt lat="43.45863" lon="6.60571">
        <ele>16.753845989704</ele>
        <time>2021-11-28T14:55:23Z</time>
      </trkpt>
      <trkpt lat="43.45863" lon="6.60575">
        <ele>16.753967024386</ele>
        <time>2021-11-28T14:55:25Z</time>
      </trkpt>
      <trkpt lat="43.45863" lon="6.60579">
        <ele>16.754104822874</ele>
        <time>2021-11-28T14:55:27Z</time>
      </trkpt>
      <trkpt lat="43.45863" lon="6.60581">
        <ele>16.75416751951</ele>
        <time>2021-11-28T14:55:28Z</time>
      </trkpt>
      <trkpt lat="43.45863" lon="6.60582">
        <ele>16.754223510623</ele>
        <time>2021-11-28T14:55:29Z</time>
      </trkpt>
      <trkpt lat="43.45864" lon="6.60584">
        <ele>16.754265420139</ele>
        <time>2021-11-28T14:55:30Z</time>
      </trkpt>
      <trkpt lat="43.45864" lon="6.60586">
        <ele>17.754319734871</ele>
        <time>2021-11-28T14:55:31Z</time>
      </trkpt>
      <trkpt lat="43.45864" lon="6.60587">
        <ele>17.754385448992</ele>
        <time>2021-11-28T14:55:32Z</time>
      </trkpt>
      <trkpt lat="43.45864" lon="6.60589">
        <ele>17.754442110658</ele>
        <time>2021-11-28T14:55:33Z</time>
      </trkpt>
      <trkpt lat="43.45864" lon="6.6059">
        <ele>16.754504807293</ele>
        <time>2021-11-28T14:55:34Z</time>
      </trkpt>
      <trkpt lat="43.45864" lon="6.60592">
        <ele>16.754524588585</ele>
        <time>2021-11-28T14:55:35Z</time>
      </trkpt>
      <trkpt lat="43.45865" lon="6.60594">
        <ele>17.754576891661</ele>
        <time>2021-11-28T14:55:36Z</time>
      </trkpt>
      <trkpt lat="43.45865" lon="6.60596">
        <ele>16.754620142281</ele>
        <time>2021-11-28T14:55:37Z</time>
      </trkpt>
      <trkpt lat="43.45865" lon="6.60598">
        <ele>17.754667416215</ele>
        <time>2021-11-28T14:55:38Z</time>
      </trkpt>
      <trkpt lat="43.45865" lon="6.60601">
        <ele>16.754830025136</ele>
        <time>2021-11-28T14:55:40Z</time>
      </trkpt>
      <trkpt lat="43.45865" lon="6.60604">
        <ele>15.754929602146</ele>
        <time>2021-11-28T14:55:42Z</time>
      </trkpt>
      <trkpt lat="43.45865" lon="6.60606">
        <ele>15.754986934364</ele>
        <time>2021-11-28T14:55:43Z</time>
      </trkpt>
      <trkpt lat="43.45866" lon="6.60607">
        <ele>15.755033202469</ele>
        <time>2021-11-28T14:55:44Z</time>
      </trkpt>
      <trkpt lat="43.45866" lon="6.60609">
        <ele>16.755086511374</ele>
        <time>2021-11-28T14:55:46Z</time>
      </trkpt>
      <trkpt lat="43.45866" lon="6.60612">
        <ele>16.755166642368</ele>
        <time>2021-11-28T14:55:47Z</time>
      </trkpt>
      <trkpt lat="43.45866" lon="6.60613">
        <ele>16.755233027041</ele>
        <time>2021-11-28T14:55:48Z</time>
      </trkpt>
      <trkpt lat="43.45867" lon="6.60617">
        <ele>16.75528935343</ele>
        <time>2021-11-28T14:55:50Z</time>
      </trkpt>
      <trkpt lat="43.45868" lon="6.6062">
        <ele>16.755350708961</ele>
        <time>2021-11-28T14:55:52Z</time>
      </trkpt>
      <trkpt lat="43.45868" lon="6.60621">
        <ele>16.755393624306</ele>
        <time>2021-11-28T14:55:53Z</time>
      </trkpt>
      <trkpt lat="43.45869" lon="6.60625">
        <ele>16.755498565733</ele>
        <time>2021-11-28T14:55:55Z</time>
      </trkpt>
      <trkpt lat="43.4587" lon="6.60627">
        <ele>17.755502924323</ele>
        <time>2021-11-28T14:55:57Z</time>
      </trkpt>
      <trkpt lat="43.4587" lon="6.60629">
        <ele>17.755546845496</ele>
        <time>2021-11-28T14:55:58Z</time>
      </trkpt>
      <trkpt lat="43.4587" lon="6.6063">
        <ele>17.755595460534</ele>
        <time>2021-11-28T14:55:59Z</time>
      </trkpt>
      <trkpt lat="43.45871" lon="6.60633">
        <ele>19.755681291223</ele>
        <time>2021-11-28T14:56:01Z</time>
      </trkpt>
      <trkpt lat="43.45871" lon="6.60635">
        <ele>19.75573258847</ele>
        <time>2021-11-28T14:56:02Z</time>
      </trkpt>
      <trkpt lat="43.45871" lon="6.60637">
        <ele>19.755772821605</ele>
        <time>2021-11-28T14:56:03Z</time>
      </trkpt>
      <trkpt lat="43.45871" lon="6.60638">
        <ele>19.755829147995</ele>
        <time>2021-11-28T14:56:04Z</time>
      </trkpt>
      <trkpt lat="43.45872" lon="6.60641">
        <ele>19.755884133279</ele>
        <time>2021-11-28T14:56:06Z</time>
      </trkpt>
      <trkpt lat="43.45873" lon="6.60643">
        <ele>19.755916319788</ele>
        <time>2021-11-28T14:56:07Z</time>
      </trkpt>
      <trkpt lat="43.45873" lon="6.60645">
        <ele>19.755977340043</ele>
        <time>2021-11-28T14:56:08Z</time>
      </trkpt>
      <trkpt lat="43.45873" lon="6.60647">
        <ele>18.755993433297</ele>
        <time>2021-11-28T14:56:09Z</time>
      </trkpt>
      <trkpt lat="43.45873" lon="6.60649">
        <ele>18.756085298955</ele>
        <time>2021-11-28T14:56:11Z</time>
      </trkpt>
      <trkpt lat="43.45874" lon="6.60651">
        <ele>19.756151013076</ele>
        <time>2021-11-28T14:56:12Z</time>
      </trkpt>
      <trkpt lat="43.45874" lon="6.60653">
        <ele>18.756192922592</ele>
        <time>2021-11-28T14:56:13Z</time>
      </trkpt>
      <trkpt lat="43.45874" lon="6.60656">
        <ele>18.756282776594</ele>
        <time>2021-11-28T14:56:15Z</time>
      </trkpt>
      <trkpt lat="43.45875" lon="6.60658">
        <ele>18.756323345006</ele>
        <time>2021-11-28T14:56:16Z</time>
      </trkpt>
      <trkpt lat="43.45875" lon="6.60659">
        <ele>19.756371960044</ele>
        <time>2021-11-28T14:56:17Z</time>
      </trkpt>
      <trkpt lat="43.45876" lon="6.60661">
        <ele>19.756410181522</ele>
        <time>2021-11-28T14:56:18Z</time>
      </trkpt>
      <trkpt lat="43.45876" lon="6.60665">
        <ele>18.756492324173</ele>
        <time>2021-11-28T14:56:20Z</time>
      </trkpt>
      <trkpt lat="43.45877" lon="6.60668">
        <ele>18.756565079093</ele>
        <time>2021-11-28T14:56:22Z</time>
      </trkpt>
      <trkpt lat="43.45878" lon="6.60669">
        <ele>18.756542950869</ele>
        <time>2021-11-28T14:56:23Z</time>
      </trkpt>
      <trkpt lat="43.45878" lon="6.60671">
        <ele>18.756578825414</ele>
        <time>2021-11-28T14:56:24Z</time>
      </trkpt>
      <trkpt lat="43.45879" lon="6.60674">
        <ele>17.756653256714</ele>
        <time>2021-11-28T14:56:26Z</time>
      </trkpt>
      <trkpt lat="43.4588" lon="6.60675">
        <ele>18.756650574505</ele>
        <time>2021-11-28T14:56:27Z</time>
      </trkpt>
      <trkpt lat="43.4588" lon="6.60677">
        <ele>18.756665997207</ele>
        <time>2021-11-28T14:56:28Z</time>
      </trkpt>
      <trkpt lat="43.45881" lon="6.6068">
        <ele>18.7567307055</ele>
        <time>2021-11-28T14:56:30Z</time>
      </trkpt>
      <trkpt lat="43.45882" lon="6.60683">
        <ele>17.756793066859</ele>
        <time>2021-11-28T14:56:32Z</time>
      </trkpt>
      <trkpt lat="43.45882" lon="6.60685">
        <ele>18.756818212569</ele>
        <time>2021-11-28T14:56:33Z</time>
      </trkpt>
      <trkpt lat="43.45883" lon="6.60687">
        <ele>18.756863810122</ele>
        <time>2021-11-28T14:56:34Z</time>
      </trkpt>
      <trkpt lat="43.45883" lon="6.60688">
        <ele>18.756894990802</ele>
        <time>2021-11-28T14:56:35Z</time>
      </trkpt>
      <trkpt lat="43.45883" lon="6.6069">
        <ele>18.756920471787</ele>
        <time>2021-11-28T14:56:36Z</time>
      </trkpt>
      <trkpt lat="43.45884" lon="6.60691">
        <ele>18.756938576698</ele>
        <time>2021-11-28T14:56:37Z</time>
      </trkpt>
      <trkpt lat="43.45884" lon="6.60693">
        <ele>18.75700160861</ele>
        <time>2021-11-28T14:56:38Z</time>
      </trkpt>
      <trkpt lat="43.45884" lon="6.60695">
        <ele>19.757054917514</ele>
        <time>2021-11-28T14:56:39Z</time>
      </trkpt>
      <trkpt lat="43.45884" lon="6.60696">
        <ele>19.757103532553</ele>
        <time>2021-11-28T14:56:40Z</time>
      </trkpt>
      <trkpt lat="43.45885" lon="6.60698">
        <ele>19.757175281644</ele>
        <time>2021-11-28T14:56:41Z</time>
      </trkpt>
      <trkpt lat="43.45885" lon="6.607">
        <ele>20.757196739316</ele>
        <time>2021-11-28T14:56:42Z</time>
      </trkpt>
      <trkpt lat="43.45885" lon="6.60702">
        <ele>20.757234290242</ele>
        <time>2021-11-28T14:56:43Z</time>
      </trkpt>
      <trkpt lat="43.45886" lon="6.60705">
        <ele>19.757342584431</ele>
        <time>2021-11-28T14:56:45Z</time>
      </trkpt>
      <trkpt lat="43.45887" lon="6.60709">
        <ele>19.75739287585</ele>
        <time>2021-11-28T14:56:47Z</time>
      </trkpt>
      <trkpt lat="43.45887" lon="6.60711">
        <ele>18.757479041815</ele>
        <time>2021-11-28T14:56:48Z</time>
      </trkpt>
      <trkpt lat="43.45887" lon="6.60713">
        <ele>18.75752363354</ele>
        <time>2021-11-28T14:56:49Z</time>
      </trkpt>
      <trkpt lat="43.45888" lon="6.60716">
        <ele>18.75759974122</ele>
        <time>2021-11-28T14:56:51Z</time>
      </trkpt>
      <trkpt lat="43.45888" lon="6.60718">
        <ele>18.757644668221</ele>
        <time>2021-11-28T14:56:52Z</time>
      </trkpt>
      <trkpt lat="43.45889" lon="6.6072">
        <ele>18.757669813931</ele>
        <time>2021-11-28T14:56:53Z</time>
      </trkpt>
      <trkpt lat="43.45889" lon="6.60721">
        <ele>18.757685236633</ele>
        <time>2021-11-28T14:56:54Z</time>
      </trkpt>
      <trkpt lat="43.4589" lon="6.60724">
        <ele>17.757728487253</ele>
        <time>2021-11-28T14:56:56Z</time>
      </trkpt>
      <trkpt lat="43.45891" lon="6.60725">
        <ele>17.757744915783</ele>
        <time>2021-11-28T14:56:57Z</time>
      </trkpt>
      <trkpt lat="43.45891" lon="6.60727">
        <ele>17.757784478366</ele>
        <time>2021-11-28T14:56:58Z</time>
      </trkpt>
      <trkpt lat="43.45892" lon="6.60729">
        <ele>17.757832087576</ele>
        <time>2021-11-28T14:56:59Z</time>
      </trkpt>
      <trkpt lat="43.45893" lon="6.60732">
        <ele>18.757851868868</ele>
        <time>2021-11-28T14:57:01Z</time>
      </trkpt>
      <trkpt lat="43.45893" lon="6.60733">
        <ele>18.757866285741</ele>
        <time>2021-11-28T14:57:02Z</time>
      </trkpt>
      <trkpt lat="43.45893" lon="6.60734">
        <ele>18.757909536362</ele>
        <time>2021-11-28T14:57:03Z</time>
      </trkpt>
      <trkpt lat="43.45894" lon="6.60737">
        <ele>17.757980614901</ele>
        <time>2021-11-28T14:57:05Z</time>
      </trkpt>
      <trkpt lat="43.45894" lon="6.60739">
        <ele>17.758002743125</ele>
        <time>2021-11-28T14:57:06Z</time>
      </trkpt>
      <trkpt lat="43.45895" lon="6.6074">
        <ele>17.758031241596</ele>
        <time>2021-11-28T14:57:07Z</time>
      </trkpt>
      <trkpt lat="43.45895" lon="6.60742">
        <ele>17.758089914918</ele>
        <time>2021-11-28T14:57:08Z</time>
      </trkpt>
      <trkpt lat="43.45895" lon="6.60744">
        <ele>17.758116066456</ele>
        <time>2021-11-28T14:57:09Z</time>
      </trkpt>
      <trkpt lat="43.45896" lon="6.60746">
        <ele>16.758179098368</ele>
        <time>2021-11-28T14:57:11Z</time>
      </trkpt>
      <trkpt lat="43.45897" lon="6.60748">
        <ele>17.758163675666</ele>
        <time>2021-11-28T14:57:12Z</time>
      </trkpt>
      <trkpt lat="43.45897" lon="6.60749">
        <ele>17.758200220764</ele>
        <time>2021-11-28T14:57:13Z</time>
      </trkpt>
      <trkpt lat="43.45898" lon="6.60753">
        <ele>16.758274316788</ele>
        <time>2021-11-28T14:57:15Z</time>
      </trkpt>
      <trkpt lat="43.45898" lon="6.60756">
        <ele>17.758410103619</ele>
        <time>2021-11-28T14:57:17Z</time>
      </trkpt>
      <trkpt lat="43.45898" lon="6.60758">
        <ele>17.758454024792</ele>
        <time>2021-11-28T14:57:18Z</time>
      </trkpt>
      <trkpt lat="43.45899" lon="6.6076">
        <ele>17.758512027562</ele>
        <time>2021-11-28T14:57:19Z</time>
      </trkpt>
      <trkpt lat="43.45899" lon="6.60762">
        <ele>17.758552260697</ele>
        <time>2021-11-28T14:57:20Z</time>
      </trkpt>
      <trkpt lat="43.459" lon="6.60765">
        <ele>17.758636079729</ele>
        <time>2021-11-28T14:57:22Z</time>
      </trkpt>
      <trkpt lat="43.459" lon="6.60767">
        <ele>17.758651167154</ele>
        <time>2021-11-28T14:57:23Z</time>
      </trkpt>
      <trkpt lat="43.45901" lon="6.60768">
        <ele>17.758689388633</ele>
        <time>2021-11-28T14:57:24Z</time>
      </trkpt>
      <trkpt lat="43.45901" lon="6.60771">
        <ele>17.758746050298</ele>
        <time>2021-11-28T14:57:26Z</time>
      </trkpt>
      <trkpt lat="43.45902" lon="6.60773">
        <ele>16.758770525455</ele>
        <time>2021-11-28T14:57:27Z</time>
      </trkpt>
      <trkpt lat="43.45902" lon="6.60774">
        <ele>16.758800700307</ele>
        <time>2021-11-28T14:57:28Z</time>
      </trkpt>
      <trkpt lat="43.45902" lon="6.60776">
        <ele>16.758836574852</ele>
        <time>2021-11-28T14:57:29Z</time>
      </trkpt>
      <trkpt lat="43.45903" lon="6.60777">
        <ele>16.758860714734</ele>
        <time>2021-11-28T14:57:30Z</time>
      </trkpt>
      <trkpt lat="43.45903" lon="6.6078">
        <ele>15.758950233459</ele>
        <time>2021-11-28T14:57:32Z</time>
      </trkpt>
      <trkpt lat="43.45904" lon="6.60782">
        <ele>16.758963979781</ele>
        <time>2021-11-28T14:57:33Z</time>
      </trkpt>
      <trkpt lat="43.45904" lon="6.60783">
        <ele>16.759008236229</ele>
        <time>2021-11-28T14:57:34Z</time>
      </trkpt>
      <trkpt lat="43.45905" lon="6.60785">
        <ele>15.759010247886</ele>
        <time>2021-11-28T14:57:35Z</time>
      </trkpt>
      <trkpt lat="43.45906" lon="6.60787">
        <ele>16.759021982551</ele>
        <time>2021-11-28T14:57:36Z</time>
      </trkpt>
      <trkpt lat="43.45906" lon="6.60788">
        <ele>16.759039752185</ele>
        <time>2021-11-28T14:57:37Z</time>
      </trkpt>
      <trkpt lat="43.45906" lon="6.6079">
        <ele>16.75909306109</ele>
        <time>2021-11-28T14:57:38Z</time>
      </trkpt>
      <trkpt lat="43.45907" lon="6.60792">
        <ele>17.759138993919</ele>
        <time>2021-11-28T14:57:39Z</time>
      </trkpt>
      <trkpt lat="43.45907" lon="6.60794">
        <ele>17.759165480733</ele>
        <time>2021-11-28T14:57:40Z</time>
      </trkpt>
      <trkpt lat="43.45908" lon="6.60795">
        <ele>17.759187608957</ele>
        <time>2021-11-28T14:57:41Z</time>
      </trkpt>
      <trkpt lat="43.45908" lon="6.60796">
        <ele>17.759188950062</ele>
        <time>2021-11-28T14:57:42Z</time>
      </trkpt>
      <trkpt lat="43.45909" lon="6.60798">
        <ele>17.759177215397</ele>
        <time>2021-11-28T14:57:43Z</time>
      </trkpt>
      <trkpt lat="43.4591" lon="6.60799">
        <ele>17.759173862636</ele>
        <time>2021-11-28T14:57:44Z</time>
      </trkpt>
      <trkpt lat="43.4591" lon="6.60801">
        <ele>17.759207390249</ele>
        <time>2021-11-28T14:57:45Z</time>
      </trkpt>
      <trkpt lat="43.45911" lon="6.60803">
        <ele>16.759238235652</ele>
        <time>2021-11-28T14:57:46Z</time>
      </trkpt>
      <trkpt lat="43.45912" lon="6.60805">
        <ele>17.759259022772</ele>
        <time>2021-11-28T14:57:47Z</time>
      </trkpt>
      <trkpt lat="43.45912" lon="6.60806">
        <ele>17.75928517431</ele>
        <time>2021-11-28T14:57:48Z</time>
      </trkpt>
      <trkpt lat="43.45913" lon="6.60808">
        <ele>17.759294226766</ele>
        <time>2021-11-28T14:57:49Z</time>
      </trkpt>
      <trkpt lat="43.45913" lon="6.6081">
        <ele>16.759329095483</ele>
        <time>2021-11-28T14:57:50Z</time>
      </trkpt>
      <trkpt lat="43.45914" lon="6.60811">
        <ele>16.759353235364</ele>
        <time>2021-11-28T14:57:51Z</time>
      </trkpt>
      <trkpt lat="43.45914" lon="6.60813">
        <ele>16.759393468499</ele>
        <time>2021-11-28T14:57:52Z</time>
      </trkpt>
      <trkpt lat="43.45914" lon="6.60814">
        <ele>16.759419955313</ele>
        <time>2021-11-28T14:57:53Z</time>
      </trkpt>
      <trkpt lat="43.45915" lon="6.60816">
        <ele>17.759443424642</ele>
        <time>2021-11-28T14:57:54Z</time>
      </trkpt>
      <trkpt lat="43.45915" lon="6.60818">
        <ele>17.759506456554</ele>
        <time>2021-11-28T14:57:55Z</time>
      </trkpt>
      <trkpt lat="43.45916" lon="6.60819">
        <ele>17.759518191218</ele>
        <time>2021-11-28T14:57:56Z</time>
      </trkpt>
      <trkpt lat="43.45916" lon="6.60821">
        <ele>17.759563453496</ele>
        <time>2021-11-28T14:57:57Z</time>
      </trkpt>
      <trkpt lat="43.45917" lon="6.60823">
        <ele>17.759580217302</ele>
        <time>2021-11-28T14:57:58Z</time>
      </trkpt>
      <trkpt lat="43.45917" lon="6.60824">
        <ele>17.759622462094</ele>
        <time>2021-11-28T14:57:59Z</time>
      </trkpt>
      <trkpt lat="43.45917" lon="6.60826">
        <ele>17.759663365781</ele>
        <time>2021-11-28T14:58:00Z</time>
      </trkpt>
      <trkpt lat="43.45917" lon="6.60827">
        <ele>17.75970762223</ele>
        <time>2021-11-28T14:58:01Z</time>
      </trkpt>
      <trkpt lat="43.45918" lon="6.60829">
        <ele>17.759748190641</ele>
        <time>2021-11-28T14:58:02Z</time>
      </trkpt>
      <trkpt lat="43.45918" lon="6.60831">
        <ele>17.759785406291</ele>
        <time>2021-11-28T14:58:03Z</time>
      </trkpt>
      <trkpt lat="43.45919" lon="6.60832">
        <ele>17.759788759053</ele>
        <time>2021-11-28T14:58:04Z</time>
      </trkpt>
      <trkpt lat="43.45919" lon="6.60834">
        <ele>16.759806193411</ele>
        <time>2021-11-28T14:58:05Z</time>
      </trkpt>
      <trkpt lat="43.4592" lon="6.60836">
        <ele>16.759823292494</ele>
        <time>2021-11-28T14:58:06Z</time>
      </trkpt>
      <trkpt lat="43.45921" lon="6.60837">
        <ele>16.759840391576</ele>
        <time>2021-11-28T14:58:07Z</time>
      </trkpt>
      <trkpt lat="43.45921" lon="6.60838">
        <ele>16.759849444032</ele>
        <time>2021-11-28T14:58:08Z</time>
      </trkpt>
      <trkpt lat="43.45922" lon="6.6084">
        <ele>16.759861178696</ele>
        <time>2021-11-28T14:58:09Z</time>
      </trkpt>
      <trkpt lat="43.45922" lon="6.60841">
        <ele>16.759865872562</ele>
        <time>2021-11-28T14:58:10Z</time>
      </trkpt>
      <trkpt lat="43.45923" lon="6.60845">
        <ele>16.759925551713</ele>
        <time>2021-11-28T14:58:12Z</time>
      </trkpt>
      <trkpt lat="43.45924" lon="6.60846">
        <ele>16.759952709079</ele>
        <time>2021-11-28T14:58:13Z</time>
      </trkpt>
      <trkpt lat="43.45924" lon="6.60848">
        <ele>16.759988248348</ele>
        <time>2021-11-28T14:58:14Z</time>
      </trkpt>
      <trkpt lat="43.45924" lon="6.6085">
        <ele>16.760092519224</ele>
        <time>2021-11-28T14:58:16Z</time>
      </trkpt>
      <trkpt lat="43.45925" lon="6.60854">
        <ele>16.760165609419</ele>
        <time>2021-11-28T14:58:18Z</time>
      </trkpt>
      <trkpt lat="43.45926" lon="6.60856">
        <ele>16.760187737644</ele>
        <time>2021-11-28T14:58:20Z</time>
      </trkpt>
      <trkpt lat="43.45927" lon="6.6086">
        <ele>16.760240375996</ele>
        <time>2021-11-28T14:58:22Z</time>
      </trkpt>
      <trkpt lat="43.45927" lon="6.60861">
        <ele>16.760273233056</ele>
        <time>2021-11-28T14:58:23Z</time>
      </trkpt>
      <trkpt lat="43.45928" lon="6.60862">
        <ele>16.760300725698</ele>
        <time>2021-11-28T14:58:24Z</time>
      </trkpt>
      <trkpt lat="43.45928" lon="6.60866">
        <ele>16.760384209454</ele>
        <time>2021-11-28T14:58:26Z</time>
      </trkpt>
      <trkpt lat="43.45929" lon="6.60869">
        <ele>16.760481104255</ele>
        <time>2021-11-28T14:58:28Z</time>
      </trkpt>
      <trkpt lat="43.45929" lon="6.60871">
        <ele>16.760499209166</ele>
        <time>2021-11-28T14:58:29Z</time>
      </trkpt>
      <trkpt lat="43.45929" lon="6.60872">
        <ele>16.76054212451</ele>
        <time>2021-11-28T14:58:30Z</time>
      </trkpt>
      <trkpt lat="43.4593" lon="6.60875">
        <ele>17.760636672378</ele>
        <time>2021-11-28T14:58:32Z</time>
      </trkpt>
      <trkpt lat="43.4593" lon="6.60877">
        <ele>16.760673217475</ele>
        <time>2021-11-28T14:58:33Z</time>
      </trkpt>
      <trkpt lat="43.4593" lon="6.60879">
        <ele>16.760712780058</ele>
        <time>2021-11-28T14:58:34Z</time>
      </trkpt>
      <trkpt lat="43.45931" lon="6.60881">
        <ele>16.760771788657</ele>
        <time>2021-11-28T14:58:35Z</time>
      </trkpt>
      <trkpt lat="43.45931" lon="6.60882">
        <ele>16.76083213836</ele>
        <time>2021-11-28T14:58:36Z</time>
      </trkpt>
      <trkpt lat="43.45931" lon="6.60884">
        <ele>16.760888800025</ele>
        <time>2021-11-28T14:58:37Z</time>
      </trkpt>
      <trkpt lat="43.45931" lon="6.60886">
        <ele>16.760931715369</ele>
        <time>2021-11-28T14:58:38Z</time>
      </trkpt>
      <trkpt lat="43.45932" lon="6.60887">
        <ele>16.760954514146</ele>
        <time>2021-11-28T14:58:39Z</time>
      </trkpt>
      <trkpt lat="43.45932" lon="6.60888">
        <ele>16.760982677341</ele>
        <time>2021-11-28T14:58:40Z</time>
      </trkpt>
      <trkpt lat="43.45933" lon="6.6089">
        <ele>16.760987706482</ele>
        <time>2021-11-28T14:58:41Z</time>
      </trkpt>
      <trkpt lat="43.45933" lon="6.60891">
        <ele>16.761027939618</ele>
        <time>2021-11-28T14:58:42Z</time>
      </trkpt>
      <trkpt lat="43.45933" lon="6.60893">
        <ele>17.761043697596</ele>
        <time>2021-11-28T14:58:43Z</time>
      </trkpt>
      <trkpt lat="43.45934" lon="6.60894">
        <ele>17.761085271835</ele>
        <time>2021-11-28T14:58:44Z</time>
      </trkpt>
      <trkpt lat="43.45934" lon="6.60896">
        <ele>17.761116117239</ele>
        <time>2021-11-28T14:58:45Z</time>
      </trkpt>
      <trkpt lat="43.45934" lon="6.60898">
        <ele>17.761158362031</ele>
        <time>2021-11-28T14:58:46Z</time>
      </trkpt>
      <trkpt lat="43.45935" lon="6.609">
        <ele>16.761217370629</ele>
        <time>2021-11-28T14:58:47Z</time>
      </trkpt>
      <trkpt lat="43.45935" lon="6.60901">
        <ele>16.761232793331</ele>
        <time>2021-11-28T14:58:48Z</time>
      </trkpt>
      <trkpt lat="43.45935" lon="6.60903">
        <ele>17.761292137206</ele>
        <time>2021-11-28T14:58:49Z</time>
      </trkpt>
      <trkpt lat="43.45936" lon="6.60905">
        <ele>16.761324323714</ele>
        <time>2021-11-28T14:58:50Z</time>
      </trkpt>
      <trkpt lat="43.45936" lon="6.60906">
        <ele>16.761359192431</ele>
        <time>2021-11-28T14:58:51Z</time>
      </trkpt>
      <trkpt lat="43.45936" lon="6.60908">
        <ele>16.761406466365</ele>
        <time>2021-11-28T14:58:52Z</time>
      </trkpt>
      <trkpt lat="43.45937" lon="6.60909">
        <ele>16.761430941522</ele>
        <time>2021-11-28T14:58:53Z</time>
      </trkpt>
      <trkpt lat="43.45937" lon="6.6091">
        <ele>17.761462122202</ele>
        <time>2021-11-28T14:58:54Z</time>
      </trkpt>
      <trkpt lat="43.45938" lon="6.60911">
        <ele>17.761424236</ele>
        <time>2021-11-28T14:58:57Z</time>
      </trkpt>
      <trkpt lat="43.45938" lon="6.60911">
        <ele>16.761407472193</ele>
        <time>2021-11-28T14:58:58Z</time>
      </trkpt>
      <trkpt lat="43.45938" lon="6.60912">
        <ele>16.761439993978</ele>
        <time>2021-11-28T14:58:59Z</time>
      </trkpt>
      <trkpt lat="43.45938" lon="6.60913">
        <ele>16.761457428336</ele>
        <time>2021-11-28T14:59:03Z</time>
      </trkpt>
      <trkpt lat="43.45939" lon="6.60915">
        <ele>17.761485591531</ele>
        <time>2021-11-28T14:59:04Z</time>
      </trkpt>
      <trkpt lat="43.45939" lon="6.60916">
        <ele>17.761506713927</ele>
        <time>2021-11-28T14:59:05Z</time>
      </trkpt>
      <trkpt lat="43.45939" lon="6.60917">
        <ele>18.761524483562</ele>
        <time>2021-11-28T14:59:06Z</time>
      </trkpt>
      <trkpt lat="43.4594" lon="6.60918">
        <ele>17.761558681726</ele>
        <time>2021-11-28T14:59:07Z</time>
      </trkpt>
      <trkpt lat="43.4594" lon="6.60919">
        <ele>17.761577792466</ele>
        <time>2021-11-28T14:59:08Z</time>
      </trkpt>
      <trkpt lat="43.4594" lon="6.60921">
        <ele>18.761604949832</ele>
        <time>2021-11-28T14:59:09Z</time>
      </trkpt>
      <trkpt lat="43.45941" lon="6.60922">
        <ele>18.761610649526</ele>
        <time>2021-11-28T14:59:10Z</time>
      </trkpt>
      <trkpt lat="43.45941" lon="6.60922">
        <ele>18.761639818549</ele>
        <time>2021-11-28T14:59:11Z</time>
      </trkpt>
      <trkpt lat="43.45941" lon="6.60924">
        <ele>18.761697821319</ele>
        <time>2021-11-28T14:59:13Z</time>
      </trkpt>
      <trkpt lat="43.45941" lon="6.60925">
        <ele>19.761724978685</ele>
        <time>2021-11-28T14:59:14Z</time>
      </trkpt>
      <trkpt lat="43.45941" lon="6.60926">
        <ele>19.761741407216</ele>
        <time>2021-11-28T14:59:15Z</time>
      </trkpt>
      <trkpt lat="43.45942" lon="6.60928">
        <ele>18.761781305075</ele>
        <time>2021-11-28T14:59:17Z</time>
      </trkpt>
      <trkpt lat="43.45942" lon="6.6093">
        <ele>19.761806115508</ele>
        <time>2021-11-28T14:59:18Z</time>
      </trkpt>
      <trkpt lat="43.45943" lon="6.60931">
        <ele>18.76179035753</ele>
        <time>2021-11-28T14:59:19Z</time>
      </trkpt>
      <trkpt lat="43.45942" lon="6.60932">
        <ele>18.761906698346</ele>
        <time>2021-11-28T14:59:21Z</time>
      </trkpt>
      <trkpt lat="43.45943" lon="6.60933">
        <ele>18.761900663376</ele>
        <time>2021-11-28T14:59:23Z</time>
      </trkpt>
      <trkpt lat="43.45943" lon="6.60934">
        <ele>18.761923126876</ele>
        <time>2021-11-28T14:59:25Z</time>
      </trkpt>
      <trkpt lat="43.45943" lon="6.60935">
        <ele>18.76199554652</ele>
        <time>2021-11-28T14:59:27Z</time>
      </trkpt>
      <trkpt lat="43.45942" lon="6.60935">
        <ele>18.762061595917</ele>
        <time>2021-11-28T14:59:29Z</time>
      </trkpt>
      <trkpt lat="43.45942" lon="6.60937">
        <ele>17.762092776597</ele>
        <time>2021-11-28T14:59:31Z</time>
      </trkpt>
      <trkpt lat="43.45943" lon="6.6094">
        <ele>17.762137703598</ele>
        <time>2021-11-28T14:59:33Z</time>
      </trkpt>
      <trkpt lat="43.45944" lon="6.60943">
        <ele>18.762164525688</ele>
        <time>2021-11-28T14:59:35Z</time>
      </trkpt>
      <trkpt lat="43.45945" lon="6.60946">
        <ele>19.762213140726</ele>
        <time>2021-11-28T14:59:37Z</time>
      </trkpt>
      <trkpt lat="43.45945" lon="6.60947">
        <ele>20.762271478772</ele>
        <time>2021-11-28T14:59:38Z</time>
      </trkpt>
      <trkpt lat="43.45945" lon="6.60949">
        <ele>21.762394189835</ele>
        <time>2021-11-28T14:59:39Z</time>
      </trkpt>
      <trkpt lat="43.45945" lon="6.60952">
        <ele>20.762496449053</ele>
        <time>2021-11-28T14:59:41Z</time>
      </trkpt>
      <trkpt lat="43.45945" lon="6.60953">
        <ele>20.762490414083</ele>
        <time>2021-11-28T14:59:42Z</time>
      </trkpt>
      <trkpt lat="43.45946" lon="6.60953">
        <ele>19.762472644448</ele>
        <time>2021-11-28T14:59:43Z</time>
      </trkpt>
      <trkpt lat="43.45946" lon="6.60955">
        <ele>20.762487061322</ele>
        <time>2021-11-28T14:59:45Z</time>
      </trkpt>
      <trkpt lat="43.45947" lon="6.60957">
        <ele>20.76255646348</ele>
        <time>2021-11-28T14:59:47Z</time>
      </trkpt>
      <trkpt lat="43.45946" lon="6.60959">
        <ele>21.7626292184</ele>
        <time>2021-11-28T14:59:48Z</time>
      </trkpt>
      <trkpt lat="43.45947" lon="6.6096">
        <ele>21.76268286258</ele>
        <time>2021-11-28T14:59:49Z</time>
      </trkpt>
      <trkpt lat="43.45947" lon="6.60962">
        <ele>21.762740530074</ele>
        <time>2021-11-28T14:59:50Z</time>
      </trkpt>
      <trkpt lat="43.45947" lon="6.60963">
        <ele>21.762776739895</ele>
        <time>2021-11-28T14:59:51Z</time>
      </trkpt>
      <trkpt lat="43.45948" lon="6.60965">
        <ele>21.762802891433</ele>
        <time>2021-11-28T14:59:52Z</time>
      </trkpt>
      <trkpt lat="43.45948" lon="6.60967">
        <ele>21.762864246964</ele>
        <time>2021-11-28T14:59:53Z</time>
      </trkpt>
      <trkpt lat="43.45947" lon="6.60968">
        <ele>21.762962818146</ele>
        <time>2021-11-28T14:59:54Z</time>
      </trkpt>
      <trkpt lat="43.45946" lon="6.6097">
        <ele>21.76313816756</ele>
        <time>2021-11-28T14:59:56Z</time>
      </trkpt>
      <trkpt lat="43.45944" lon="6.60973">
        <ele>21.763414770365</ele>
        <time>2021-11-28T14:59:58Z</time>
      </trkpt>
      <trkpt lat="43.45943" lon="6.60974">
        <ele>21.763535805047</ele>
        <time>2021-11-28T14:59:59Z</time>
      </trkpt>
      <trkpt lat="43.45942" lon="6.60975">
        <ele>21.763640075922</ele>
        <time>2021-11-28T15:00:00Z</time>
      </trkpt>
      <trkpt lat="43.4594" lon="6.60976">
        <ele>20.763820789754</ele>
        <time>2021-11-28T15:00:02Z</time>
      </trkpt>
      <trkpt lat="43.45939" lon="6.60976">
        <ele>20.763928748667</ele>
        <time>2021-11-28T15:00:03Z</time>
      </trkpt>
      <trkpt lat="43.45936" lon="6.60977">
        <ele>21.764208033681</ele>
        <time>2021-11-28T15:00:05Z</time>
      </trkpt>
      <trkpt lat="43.45935" lon="6.60978">
        <ele>21.764335103333</ele>
        <time>2021-11-28T15:00:06Z</time>
      </trkpt>
      <trkpt lat="43.45934" lon="6.60979">
        <ele>22.764454126358</ele>
        <time>2021-11-28T15:00:07Z</time>
      </trkpt>
      <trkpt lat="43.45933" lon="6.60979">
        <ele>22.764536269009</ele>
        <time>2021-11-28T15:00:08Z</time>
      </trkpt>
      <trkpt lat="43.45932" lon="6.6098">
        <ele>21.764641210437</ele>
        <time>2021-11-28T15:00:09Z</time>
      </trkpt>
      <trkpt lat="43.45931" lon="6.6098">
        <ele>21.764742463827</ele>
        <time>2021-11-28T15:00:10Z</time>
      </trkpt>
      <trkpt lat="43.45929" lon="6.60981">
        <ele>21.764921501279</ele>
        <time>2021-11-28T15:00:12Z</time>
      </trkpt>
      <trkpt lat="43.45928" lon="6.60983">
        <ele>20.765060976148</ele>
        <time>2021-11-28T15:00:13Z</time>
      </trkpt>
      <trkpt lat="43.45927" lon="6.60984">
        <ele>20.765184693038</ele>
        <time>2021-11-28T15:00:14Z</time>
      </trkpt>
      <trkpt lat="43.45925" lon="6.60984">
        <ele>19.765389211476</ele>
        <time>2021-11-28T15:00:16Z</time>
      </trkpt>
      <trkpt lat="43.45923" lon="6.60986">
        <ele>19.765570931137</ele>
        <time>2021-11-28T15:00:18Z</time>
      </trkpt>
      <trkpt lat="43.45922" lon="6.60987">
        <ele>20.765712417662</ele>
        <time>2021-11-28T15:00:19Z</time>
      </trkpt>
      <trkpt lat="43.45921" lon="6.60988">
        <ele>19.765846863389</ele>
        <time>2021-11-28T15:00:20Z</time>
      </trkpt>
      <trkpt lat="43.45918" lon="6.60989">
        <ele>19.766120783985</ele>
        <time>2021-11-28T15:00:22Z</time>
      </trkpt>
      <trkpt lat="43.45917" lon="6.6099">
        <ele>19.76625623554</ele>
        <time>2021-11-28T15:00:23Z</time>
      </trkpt>
      <trkpt lat="43.45916" lon="6.60991">
        <ele>19.766391687095</ele>
        <time>2021-11-28T15:00:24Z</time>
      </trkpt>
      <trkpt lat="43.45914" lon="6.60992">
        <ele>19.766568377614</ele>
        <time>2021-11-28T15:00:26Z</time>
      </trkpt>
      <trkpt lat="43.45912" lon="6.60993">
        <ele>19.766769878566</ele>
        <time>2021-11-28T15:00:28Z</time>
      </trkpt>
      <trkpt lat="43.4591" lon="6.60994">
        <ele>19.766954280436</ele>
        <time>2021-11-28T15:00:29Z</time>
      </trkpt>
      <trkpt lat="43.45909" lon="6.60995">
        <ele>19.767089061439</ele>
        <time>2021-11-28T15:00:30Z</time>
      </trkpt>
      <trkpt lat="43.45907" lon="6.60997">
        <ele>19.76729760319</ele>
        <time>2021-11-28T15:00:32Z</time>
      </trkpt>
      <trkpt lat="43.45906" lon="6.60997">
        <ele>19.767442442477</ele>
        <time>2021-11-28T15:00:33Z</time>
      </trkpt>
      <trkpt lat="43.45904" lon="6.60998">
        <ele>19.767594322562</ele>
        <time>2021-11-28T15:00:34Z</time>
      </trkpt>
      <trkpt lat="43.45902" lon="6.60999">
        <ele>19.767801187932</ele>
        <time>2021-11-28T15:00:36Z</time>
      </trkpt>
      <trkpt lat="43.45899" lon="6.61">
        <ele>19.768054656684</ele>
        <time>2021-11-28T15:00:38Z</time>
      </trkpt>
      <trkpt lat="43.45898" lon="6.61">
        <ele>20.768155239522</ele>
        <time>2021-11-28T15:00:39Z</time>
      </trkpt>
      <trkpt lat="43.45897" lon="6.61001">
        <ele>19.768295049667</ele>
        <time>2021-11-28T15:00:40Z</time>
      </trkpt>
      <trkpt lat="43.45894" lon="6.61003">
        <ele>19.768563270569</ele>
        <time>2021-11-28T15:00:42Z</time>
      </trkpt>
      <trkpt lat="43.45893" lon="6.61003">
        <ele>19.76870945096</ele>
        <time>2021-11-28T15:00:43Z</time>
      </trkpt>
      <trkpt lat="43.45892" lon="6.61004">
        <ele>19.768832832575</ele>
        <time>2021-11-28T15:00:44Z</time>
      </trkpt>
      <trkpt lat="43.4589" lon="6.61004">
        <ele>19.769008852541</ele>
        <time>2021-11-28T15:00:46Z</time>
      </trkpt>
      <trkpt lat="43.45887" lon="6.61006">
        <ele>19.769238181412</ele>
        <time>2021-11-28T15:00:48Z</time>
      </trkpt>
      <trkpt lat="43.45886" lon="6.61007">
        <ele>19.769376315176</ele>
        <time>2021-11-28T15:00:49Z</time>
      </trkpt>
      <trkpt lat="43.45885" lon="6.61007">
        <ele>19.769488297403</ele>
        <time>2021-11-28T15:00:50Z</time>
      </trkpt>
      <trkpt lat="43.45884" lon="6.61007">
        <ele>19.769587539136</ele>
        <time>2021-11-28T15:00:51Z</time>
      </trkpt>
      <trkpt lat="43.45883" lon="6.61008">
        <ele>19.769706897438</ele>
        <time>2021-11-28T15:00:52Z</time>
      </trkpt>
      <trkpt lat="43.45882" lon="6.61009">
        <ele>19.769840672612</ele>
        <time>2021-11-28T15:00:53Z</time>
      </trkpt>
      <trkpt lat="43.45881" lon="6.6101">
        <ele>19.769953995943</ele>
        <time>2021-11-28T15:00:54Z</time>
      </trkpt>
      <trkpt lat="43.4588" lon="6.6101">
        <ele>18.770045861602</ele>
        <time>2021-11-28T15:00:55Z</time>
      </trkpt>
      <trkpt lat="43.45878" lon="6.61011">
        <ele>18.770176284015</ele>
        <time>2021-11-28T15:00:56Z</time>
      </trkpt>
      <trkpt lat="43.45877" lon="6.61012">
        <ele>18.770292289555</ele>
        <time>2021-11-28T15:00:57Z</time>
      </trkpt>
      <trkpt lat="43.45876" lon="6.61012">
        <ele>18.77040527761</ele>
        <time>2021-11-28T15:00:58Z</time>
      </trkpt>
      <trkpt lat="43.45875" lon="6.61012">
        <ele>17.770498819649</ele>
        <time>2021-11-28T15:00:59Z</time>
      </trkpt>
      <trkpt lat="43.45873" lon="6.61013">
        <ele>17.770708031952</ele>
        <time>2021-11-28T15:01:01Z</time>
      </trkpt>
      <trkpt lat="43.45871" lon="6.61013">
        <ele>17.77081900835</ele>
        <time>2021-11-28T15:01:02Z</time>
      </trkpt>
      <trkpt lat="43.4587" lon="6.61014">
        <ele>17.770924285054</ele>
        <time>2021-11-28T15:01:03Z</time>
      </trkpt>
      <trkpt lat="43.45869" lon="6.61014">
        <ele>17.771048337221</ele>
        <time>2021-11-28T15:01:04Z</time>
      </trkpt>
      <trkpt lat="43.45867" lon="6.61014">
        <ele>17.771235086024</ele>
        <time>2021-11-28T15:01:06Z</time>
      </trkpt>
      <trkpt lat="43.45865" lon="6.61014">
        <ele>17.771348074079</ele>
        <time>2021-11-28T15:01:07Z</time>
      </trkpt>
      <trkpt lat="43.45863" lon="6.61014">
        <ele>16.771537840366</ele>
        <time>2021-11-28T15:01:09Z</time>
      </trkpt>
      <trkpt lat="43.45861" lon="6.61014">
        <ele>16.771650157869</ele>
        <time>2021-11-28T15:01:10Z</time>
      </trkpt>
      <trkpt lat="43.4586" lon="6.61013">
        <ele>16.771722242236</ele>
        <time>2021-11-28T15:01:11Z</time>
      </trkpt>
      <trkpt lat="43.45859" lon="6.61013">
        <ele>16.77182316035</ele>
        <time>2021-11-28T15:01:12Z</time>
      </trkpt>
      <trkpt lat="43.45858" lon="6.61013">
        <ele>16.771923072636</ele>
        <time>2021-11-28T15:01:13Z</time>
      </trkpt>
      <trkpt lat="43.45856" lon="6.61012">
        <ele>15.772019296885</ele>
        <time>2021-11-28T15:01:14Z</time>
      </trkpt>
      <trkpt lat="43.45855" lon="6.61012">
        <ele>15.77209238708</ele>
        <time>2021-11-28T15:01:15Z</time>
      </trkpt>
      <trkpt lat="43.45854" lon="6.61011">
        <ele>15.772159107029</ele>
        <time>2021-11-28T15:01:16Z</time>
      </trkpt>
      <trkpt lat="43.45852" lon="6.61011">
        <ele>15.772225491703</ele>
        <time>2021-11-28T15:01:17Z</time>
      </trkpt>
      <trkpt lat="43.45852" lon="6.6101">
        <ele>14.77227243036</ele>
        <time>2021-11-28T15:01:18Z</time>
      </trkpt>
      <trkpt lat="43.45851" lon="6.6101">
        <ele>14.772338479757</ele>
        <time>2021-11-28T15:01:19Z</time>
      </trkpt>
      <trkpt lat="43.4585" lon="6.61009">
        <ele>14.772399164736</ele>
        <time>2021-11-28T15:01:20Z</time>
      </trkpt>
      <trkpt lat="43.45848" lon="6.61009">
        <ele>14.772493042052</ele>
        <time>2021-11-28T15:01:21Z</time>
      </trkpt>
      <trkpt lat="43.45847" lon="6.61008">
        <ele>14.772555068135</ele>
        <time>2021-11-28T15:01:22Z</time>
      </trkpt>
      <trkpt lat="43.45846" lon="6.61007">
        <ele>14.772619776428</ele>
        <time>2021-11-28T15:01:23Z</time>
      </trkpt>
      <trkpt lat="43.45845" lon="6.61007">
        <ele>14.772699572146</ele>
        <time>2021-11-28T15:01:24Z</time>
      </trkpt>
      <trkpt lat="43.45843" lon="6.61006">
        <ele>14.772784397006</ele>
        <time>2021-11-28T15:01:25Z</time>
      </trkpt>
      <trkpt lat="43.45842" lon="6.61006">
        <ele>13.772882297635</ele>
        <time>2021-11-28T15:01:26Z</time>
      </trkpt>
      <trkpt lat="43.45841" lon="6.61006">
        <ele>13.772976174951</ele>
        <time>2021-11-28T15:01:27Z</time>
      </trkpt>
      <trkpt lat="43.45839" lon="6.61005">
        <ele>13.773062340915</ele>
        <time>2021-11-28T15:01:28Z</time>
      </trkpt>
      <trkpt lat="43.45838" lon="6.61004">
        <ele>13.773139454424</ele>
        <time>2021-11-28T15:01:29Z</time>
      </trkpt>
      <trkpt lat="43.45837" lon="6.61004">
        <ele>13.773211538792</ele>
        <time>2021-11-28T15:01:30Z</time>
      </trkpt>
      <trkpt lat="43.45836" lon="6.61003">
        <ele>13.773268200457</ele>
        <time>2021-11-28T15:01:31Z</time>
      </trkpt>
      <trkpt lat="43.45835" lon="6.61002">
        <ele>13.773287981749</ele>
        <time>2021-11-28T15:01:34Z</time>
      </trkpt>
      <trkpt lat="43.45835" lon="6.61002">
        <ele>12.773314133286</ele>
        <time>2021-11-28T15:01:35Z</time>
      </trkpt>
      <trkpt lat="43.45834" lon="6.61002">
        <ele>12.773398287594</ele>
        <time>2021-11-28T15:01:36Z</time>
      </trkpt>
      <trkpt lat="43.45832" lon="6.61002">
        <ele>12.773499876261</ele>
        <time>2021-11-28T15:01:37Z</time>
      </trkpt>
      <trkpt lat="43.45831" lon="6.61001">
        <ele>12.773593753576</ele>
        <time>2021-11-28T15:01:38Z</time>
      </trkpt>
      <trkpt lat="43.45829" lon="6.61001">
        <ele>12.773687966168</ele>
        <time>2021-11-28T15:01:39Z</time>
      </trkpt>
      <trkpt lat="43.45828" lon="6.61001">
        <ele>12.773787543178</ele>
        <time>2021-11-28T15:01:40Z</time>
      </trkpt>
      <trkpt lat="43.45827" lon="6.61">
        <ele>12.773864656687</ele>
        <time>2021-11-28T15:01:41Z</time>
      </trkpt>
      <trkpt lat="43.45826" lon="6.61">
        <ele>11.773903883994</ele>
        <time>2021-11-28T15:01:42Z</time>
      </trkpt>
      <trkpt lat="43.45825" lon="6.60999">
        <ele>11.77394746989</ele>
        <time>2021-11-28T15:01:43Z</time>
      </trkpt>
      <trkpt lat="43.45824" lon="6.60999">
        <ele>11.774014860392</ele>
        <time>2021-11-28T15:01:44Z</time>
      </trkpt>
      <trkpt lat="43.45823" lon="6.60999">
        <ele>11.774118125439</ele>
        <time>2021-11-28T15:01:45Z</time>
      </trkpt>
      <trkpt lat="43.45822" lon="6.60998">
        <ele>11.774188868701</ele>
        <time>2021-11-28T15:01:46Z</time>
      </trkpt>
      <trkpt lat="43.45821" lon="6.60998">
        <ele>11.774261958897</ele>
        <time>2021-11-28T15:01:47Z</time>
      </trkpt>
      <trkpt lat="43.4582" lon="6.60997">
        <ele>11.774331696332</ele>
        <time>2021-11-28T15:01:48Z</time>
      </trkpt>
      <trkpt lat="43.45818" lon="6.60997">
        <ele>11.774432949722</ele>
        <time>2021-11-28T15:01:49Z</time>
      </trkpt>
      <trkpt lat="43.45817" lon="6.60996">
        <ele>11.774517439306</ele>
        <time>2021-11-28T15:01:50Z</time>
      </trkpt>
      <trkpt lat="43.45815" lon="6.60996">
        <ele>10.774636127055</ele>
        <time>2021-11-28T15:01:51Z</time>
      </trkpt>
      <trkpt lat="43.45814" lon="6.60997">
        <ele>10.774739056826</ele>
        <time>2021-11-28T15:01:52Z</time>
      </trkpt>
      <trkpt lat="43.45813" lon="6.60997">
        <ele>10.774890601635</ele>
        <time>2021-11-28T15:01:53Z</time>
      </trkpt>
      <trkpt lat="43.45811" lon="6.60998">
        <ele>10.775039128959</ele>
        <time>2021-11-28T15:01:54Z</time>
      </trkpt>
      <trkpt lat="43.4581" lon="6.60999">
        <ele>10.775177598</ele>
        <time>2021-11-28T15:01:55Z</time>
      </trkpt>
      <trkpt lat="43.45808" lon="6.60999">
        <ele>10.775308020413</ele>
        <time>2021-11-28T15:01:56Z</time>
      </trkpt>
      <trkpt lat="43.45807" lon="6.61">
        <ele>11.775453865528</ele>
        <time>2021-11-28T15:01:57Z</time>
      </trkpt>
      <trkpt lat="43.45806" lon="6.61001">
        <ele>11.775586634874</ele>
        <time>2021-11-28T15:01:58Z</time>
      </trkpt>
      <trkpt lat="43.45804" lon="6.61002">
        <ele>11.775741867721</ele>
        <time>2021-11-28T15:01:59Z</time>
      </trkpt>
      <trkpt lat="43.45803" lon="6.61003">
        <ele>12.775875978172</ele>
        <time>2021-11-28T15:02:00Z</time>
      </trkpt>
      <trkpt lat="43.45802" lon="6.61003">
        <ele>12.775981590152</ele>
        <time>2021-11-28T15:02:01Z</time>
      </trkpt>
      <trkpt lat="43.458" lon="6.61003">
        <ele>12.776114359498</ele>
        <time>2021-11-28T15:02:02Z</time>
      </trkpt>
      <trkpt lat="43.45799" lon="6.61003">
        <ele>12.776212595403</ele>
        <time>2021-11-28T15:02:03Z</time>
      </trkpt>
      <trkpt lat="43.45798" lon="6.61004">
        <ele>12.776316866279</ele>
        <time>2021-11-28T15:02:04Z</time>
      </trkpt>
      <trkpt lat="43.45797" lon="6.61005">
        <ele>12.77643622458</ele>
        <time>2021-11-28T15:02:05Z</time>
      </trkpt>
      <trkpt lat="43.45795" lon="6.61005">
        <ele>12.776586763561</ele>
        <time>2021-11-28T15:02:06Z</time>
      </trkpt>
      <trkpt lat="43.45794" lon="6.61006">
        <ele>12.776725903153</ele>
        <time>2021-11-28T15:02:07Z</time>
      </trkpt>
      <trkpt lat="43.45793" lon="6.61007">
        <ele>12.77687074244</ele>
        <time>2021-11-28T15:02:08Z</time>
      </trkpt>
      <trkpt lat="43.45791" lon="6.61008">
        <ele>12.777041733265</ele>
        <time>2021-11-28T15:02:10Z</time>
      </trkpt>
      <trkpt lat="43.4579" lon="6.61008">
        <ele>11.777148686349</ele>
        <time>2021-11-28T15:02:11Z</time>
      </trkpt>
      <trkpt lat="43.45789" lon="6.6101">
        <ele>12.777291513979</ele>
        <time>2021-11-28T15:02:12Z</time>
      </trkpt>
      <trkpt lat="43.45788" lon="6.61011">
        <ele>12.777443394065</ele>
        <time>2021-11-28T15:02:13Z</time>
      </trkpt>
      <trkpt lat="43.45787" lon="6.61013">
        <ele>12.777584210038</ele>
        <time>2021-11-28T15:02:14Z</time>
      </trkpt>
      <trkpt lat="43.45785" lon="6.61014">
        <ele>12.777711614966</ele>
        <time>2021-11-28T15:02:15Z</time>
      </trkpt>
      <trkpt lat="43.45784" lon="6.61015">
        <ele>12.777867518365</ele>
        <time>2021-11-28T15:02:16Z</time>
      </trkpt>
      <trkpt lat="43.45783" lon="6.61016">
        <ele>12.778032809496</ele>
        <time>2021-11-28T15:02:17Z</time>
      </trkpt>
      <trkpt lat="43.45782" lon="6.61018">
        <ele>12.778169937432</ele>
        <time>2021-11-28T15:02:18Z</time>
      </trkpt>
      <trkpt lat="43.45781" lon="6.61019">
        <ele>12.778313435614</ele>
        <time>2021-11-28T15:02:19Z</time>
      </trkpt>
      <trkpt lat="43.4578" lon="6.61021">
        <ele>12.778442852199</ele>
        <time>2021-11-28T15:02:20Z</time>
      </trkpt>
      <trkpt lat="43.45779" lon="6.61022">
        <ele>12.778589367867</ele>
        <time>2021-11-28T15:02:21Z</time>
      </trkpt>
      <trkpt lat="43.45778" lon="6.61023">
        <ele>12.778717778623</ele>
        <time>2021-11-28T15:02:22Z</time>
      </trkpt>
      <trkpt lat="43.45777" lon="6.61024">
        <ele>12.778836801648</ele>
        <time>2021-11-28T15:02:23Z</time>
      </trkpt>
      <trkpt lat="43.45775" lon="6.61025">
        <ele>12.778976276517</ele>
        <time>2021-11-28T15:02:24Z</time>
      </trkpt>
      <trkpt lat="43.45774" lon="6.61027">
        <ele>12.779174759984</ele>
        <time>2021-11-28T15:02:26Z</time>
      </trkpt>
      <trkpt lat="43.45773" lon="6.61028">
        <ele>11.779315575957</ele>
        <time>2021-11-28T15:02:27Z</time>
      </trkpt>
      <trkpt lat="43.45772" lon="6.6103">
        <ele>11.779460415244</ele>
        <time>2021-11-28T15:02:28Z</time>
      </trkpt>
      <trkpt lat="43.4577" lon="6.61031">
        <ele>11.779594190419</ele>
        <time>2021-11-28T15:02:29Z</time>
      </trkpt>
      <trkpt lat="43.45769" lon="6.61032">
        <ele>11.779741711915</ele>
        <time>2021-11-28T15:02:30Z</time>
      </trkpt>
      <trkpt lat="43.45767" lon="6.61035">
        <ele>12.780033737421</ele>
        <time>2021-11-28T15:02:32Z</time>
      </trkpt>
      <trkpt lat="43.45766" lon="6.61036">
        <ele>11.780162483454</ele>
        <time>2021-11-28T15:02:33Z</time>
      </trkpt>
      <trkpt lat="43.45765" lon="6.61037">
        <ele>11.780296593904</ele>
        <time>2021-11-28T15:02:34Z</time>
      </trkpt>
      <trkpt lat="43.45764" lon="6.61038">
        <ele>11.780423663557</ele>
        <time>2021-11-28T15:02:35Z</time>
      </trkpt>
      <trkpt lat="43.45762" lon="6.6104">
        <ele>11.78067612648</ele>
        <time>2021-11-28T15:02:37Z</time>
      </trkpt>
      <trkpt lat="43.45761" lon="6.61042">
        <ele>11.780807889998</ele>
        <time>2021-11-28T15:02:38Z</time>
      </trkpt>
      <trkpt lat="43.4576" lon="6.61044">
        <ele>10.780958093703</ele>
        <time>2021-11-28T15:02:39Z</time>
      </trkpt>
      <trkpt lat="43.45759" lon="6.61045">
        <ele>11.78110896796</ele>
        <time>2021-11-28T15:02:40Z</time>
      </trkpt>
      <trkpt lat="43.45756" lon="6.61046">
        <ele>11.781361430883</ele>
        <time>2021-11-28T15:02:42Z</time>
      </trkpt>
      <trkpt lat="43.45755" lon="6.61048">
        <ele>11.781503587961</ele>
        <time>2021-11-28T15:02:43Z</time>
      </trkpt>
      <trkpt lat="43.45754" lon="6.61049">
        <ele>11.781635351479</ele>
        <time>2021-11-28T15:02:44Z</time>
      </trkpt>
      <trkpt lat="43.45753" lon="6.6105">
        <ele>11.781755045056</ele>
        <time>2021-11-28T15:02:45Z</time>
      </trkpt>
      <trkpt lat="43.45751" lon="6.61053">
        <ele>11.782028630376</ele>
        <time>2021-11-28T15:02:47Z</time>
      </trkpt>
      <trkpt lat="43.4575" lon="6.61053">
        <ele>11.782148323953</ele>
        <time>2021-11-28T15:02:48Z</time>
      </trkpt>
      <trkpt lat="43.45749" lon="6.61055">
        <ele>11.782281428576</ele>
        <time>2021-11-28T15:02:49Z</time>
      </trkpt>
      <trkpt lat="43.45748" lon="6.61056">
        <ele>11.782394081354</ele>
        <time>2021-11-28T15:02:50Z</time>
      </trkpt>
      <trkpt lat="43.45746" lon="6.61057">
        <ele>10.782604970038</ele>
        <time>2021-11-28T15:02:52Z</time>
      </trkpt>
      <trkpt lat="43.45745" lon="6.61058">
        <ele>10.782718293369</ele>
        <time>2021-11-28T15:02:53Z</time>
      </trkpt>
      <trkpt lat="43.45744" lon="6.61059">
        <ele>10.782857432961</ele>
        <time>2021-11-28T15:02:54Z</time>
      </trkpt>
      <trkpt lat="43.45743" lon="6.6106">
        <ele>10.782999254763</ele>
        <time>2021-11-28T15:02:55Z</time>
      </trkpt>
      <trkpt lat="43.45741" lon="6.61061">
        <ele>10.783149793744</ele>
        <time>2021-11-28T15:02:56Z</time>
      </trkpt>
      <trkpt lat="43.4574" lon="6.61062">
        <ele>10.783265464008</ele>
        <time>2021-11-28T15:02:57Z</time>
      </trkpt>
      <trkpt lat="43.45739" lon="6.61064">
        <ele>10.78340728581</ele>
        <time>2021-11-28T15:02:58Z</time>
      </trkpt>
      <trkpt lat="43.45738" lon="6.61065">
        <ele>10.783543407917</ele>
        <time>2021-11-28T15:02:59Z</time>
      </trkpt>
      <trkpt lat="43.45737" lon="6.61066">
        <ele>10.783670812845</ele>
        <time>2021-11-28T15:03:00Z</time>
      </trkpt>
      <trkpt lat="43.45736" lon="6.61067">
        <ele>10.783817328513</ele>
        <time>2021-11-28T15:03:01Z</time>
      </trkpt>
      <trkpt lat="43.45735" lon="6.61068">
        <ele>10.783942051232</ele>
        <time>2021-11-28T15:03:02Z</time>
      </trkpt>
      <trkpt lat="43.45734" lon="6.61068">
        <ele>10.784049004316</ele>
        <time>2021-11-28T15:03:03Z</time>
      </trkpt>
      <trkpt lat="43.45732" lon="6.61068">
        <ele>10.784170038998</ele>
        <time>2021-11-28T15:03:04Z</time>
      </trkpt>
      <trkpt lat="43.45731" lon="6.61069">
        <ele>9.784288726747</ele>
        <time>2021-11-28T15:03:05Z</time>
      </trkpt>
      <trkpt lat="43.4573" lon="6.61069">
        <ele>9.7843695282936</ele>
        <time>2021-11-28T15:03:06Z</time>
      </trkpt>
      <trkpt lat="43.45729" lon="6.6107">
        <ele>9.7844945862889</ele>
        <time>2021-11-28T15:03:07Z</time>
      </trkpt>
      <trkpt lat="43.45728" lon="6.6107">
        <ele>9.7846129387617</ele>
        <time>2021-11-28T15:03:08Z</time>
      </trkpt>
      <trkpt lat="43.45726" lon="6.61071">
        <ele>9.7847265973687</ele>
        <time>2021-11-28T15:03:09Z</time>
      </trkpt>
      <trkpt lat="43.45725" lon="6.61071">
        <ele>9.7848385795951</ele>
        <time>2021-11-28T15:03:10Z</time>
      </trkpt>
      <trkpt lat="43.45724" lon="6.61072">
        <ele>9.7849488854408</ele>
        <time>2021-11-28T15:03:11Z</time>
      </trkpt>
      <trkpt lat="43.45723" lon="6.61072">
        <ele>9.7850585207343</ele>
        <time>2021-11-28T15:03:12Z</time>
      </trkpt>
      <trkpt lat="43.45722" lon="6.61072">
        <ele>9.7851574271917</ele>
        <time>2021-11-28T15:03:13Z</time>
      </trkpt>
      <trkpt lat="43.4572" lon="6.61073">
        <ele>9.7852828204632</ele>
        <time>2021-11-28T15:03:14Z</time>
      </trkpt>
      <trkpt lat="43.45718" lon="6.61073">
        <ele>9.7855111435056</ele>
        <time>2021-11-28T15:03:16Z</time>
      </trkpt>
      <trkpt lat="43.45717" lon="6.61074">
        <ele>9.7856355309486</ele>
        <time>2021-11-28T15:03:17Z</time>
      </trkpt>
      <trkpt lat="43.45715" lon="6.61075">
        <ele>9.7857572361827</ele>
        <time>2021-11-28T15:03:18Z</time>
      </trkpt>
      <trkpt lat="43.45714" lon="6.61075">
        <ele>9.7858839705586</ele>
        <time>2021-11-28T15:03:19Z</time>
      </trkpt>
      <trkpt lat="43.45713" lon="6.61075">
        <ele>9.7859982997179</ele>
        <time>2021-11-28T15:03:20Z</time>
      </trkpt>
      <trkpt lat="43.4571" lon="6.61075">
        <ele>9.7862400338054</ele>
        <time>2021-11-28T15:03:22Z</time>
      </trkpt>
      <trkpt lat="43.45708" lon="6.61076">
        <ele>9.7863801792264</ele>
        <time>2021-11-28T15:03:23Z</time>
      </trkpt>
      <trkpt lat="43.45707" lon="6.61076">
        <ele>9.7865049019456</ele>
        <time>2021-11-28T15:03:24Z</time>
      </trkpt>
      <trkpt lat="43.45704" lon="6.61075">
        <ele>9.7866601347923</ele>
        <time>2021-11-28T15:03:26Z</time>
      </trkpt>
      <trkpt lat="43.45703" lon="6.61075">
        <ele>9.7867489829659</ele>
        <time>2021-11-28T15:03:27Z</time>
      </trkpt>
      <trkpt lat="43.45702" lon="6.61074">
        <ele>9.7868287786841</ele>
        <time>2021-11-28T15:03:28Z</time>
      </trkpt>
      <trkpt lat="43.457" lon="6.61074">
        <ele>9.7869250029325</ele>
        <time>2021-11-28T15:03:29Z</time>
      </trkpt>
      <trkpt lat="43.45699" lon="6.61074">
        <ele>8.7870118394494</ele>
        <time>2021-11-28T15:03:30Z</time>
      </trkpt>
      <trkpt lat="43.45697" lon="6.61074">
        <ele>8.787187859416</ele>
        <time>2021-11-28T15:03:32Z</time>
      </trkpt>
      <trkpt lat="43.45696" lon="6.61075">
        <ele>8.7872968241572</ele>
        <time>2021-11-28T15:03:33Z</time>
      </trkpt>
      <trkpt lat="43.45695" lon="6.61075">
        <ele>9.7873880192637</ele>
        <time>2021-11-28T15:03:34Z</time>
      </trkpt>
      <trkpt lat="43.45694" lon="6.61075">
        <ele>9.7874617800117</ele>
        <time>2021-11-28T15:03:36Z</time>
      </trkpt>
      <trkpt lat="43.45695" lon="6.61076">
        <ele>9.7874788790941</ele>
        <time>2021-11-28T15:03:37Z</time>
      </trkpt>
      <trkpt lat="43.45695" lon="6.61077">
        <ele>9.7875046953559</ele>
        <time>2021-11-28T15:03:38Z</time>
      </trkpt>
      <trkpt lat="43.45694" lon="6.61077">
        <ele>9.7875774502754</ele>
        <time>2021-11-28T15:03:39Z</time>
      </trkpt>
      <trkpt lat="43.45693" lon="6.61078">
        <ele>9.7876505404711</ele>
        <time>2021-11-28T15:03:40Z</time>
      </trkpt>
      <trkpt lat="43.45692" lon="6.61077">
        <ele>8.7877742573619</ele>
        <time>2021-11-28T15:03:42Z</time>
      </trkpt>
      <trkpt lat="43.4569" lon="6.61077">
        <ele>9.7878627702594</ele>
        <time>2021-11-28T15:03:43Z</time>
      </trkpt>
      <trkpt lat="43.45689" lon="6.61076">
        <ele>10.787902668118</ele>
        <time>2021-11-28T15:03:44Z</time>
      </trkpt>
      <trkpt lat="43.4569" lon="6.61075">
        <ele>10.787776269019</ele>
        <time>2021-11-28T15:03:46Z</time>
      </trkpt>
      <trkpt lat="43.45688" lon="6.61073">
        <ele>10.787888921797</ele>
        <time>2021-11-28T15:03:48Z</time>
      </trkpt>
      <trkpt lat="43.45687" lon="6.61073">
        <ele>9.7879177555442</ele>
        <time>2021-11-28T15:03:49Z</time>
      </trkpt>
      <trkpt lat="43.45686" lon="6.61073">
        <ele>9.7880089506507</ele>
        <time>2021-11-28T15:03:50Z</time>
      </trkpt>
      <trkpt lat="43.45686" lon="6.61073">
        <ele>9.7880750000477</ele>
        <time>2021-11-28T15:03:51Z</time>
      </trkpt>
      <trkpt lat="43.45683" lon="6.61072">
        <ele>9.7882168218493</ele>
        <time>2021-11-28T15:03:53Z</time>
      </trkpt>
      <trkpt lat="43.45682" lon="6.61072">
        <ele>9.7882959470153</ele>
        <time>2021-11-28T15:03:54Z</time>
      </trkpt>
      <trkpt lat="43.45681" lon="6.61072">
        <ele>9.7883774191141</ele>
        <time>2021-11-28T15:03:55Z</time>
      </trkpt>
      <trkpt lat="43.45679" lon="6.61072">
        <ele>10.788531646132</ele>
        <time>2021-11-28T15:03:57Z</time>
      </trkpt>
      <trkpt lat="43.45678" lon="6.61072">
        <ele>10.788615129888</ele>
        <time>2021-11-28T15:03:58Z</time>
      </trkpt>
      <trkpt lat="43.45677" lon="6.61072">
        <ele>10.788718730211</ele>
        <time>2021-11-28T15:03:59Z</time>
      </trkpt>
      <trkpt lat="43.45676" lon="6.61072">
        <ele>10.78882534802</ele>
        <time>2021-11-28T15:04:00Z</time>
      </trkpt>
      <trkpt lat="43.45675" lon="6.61073">
        <ele>10.788938000798</ele>
        <time>2021-11-28T15:04:01Z</time>
      </trkpt>
      <trkpt lat="43.45674" lon="6.61074">
        <ele>10.789062723517</ele>
        <time>2021-11-28T15:04:02Z</time>
      </trkpt>
      <trkpt lat="43.45672" lon="6.61074">
        <ele>10.789186775684</ele>
        <time>2021-11-28T15:04:03Z</time>
      </trkpt>
      <trkpt lat="43.45671" lon="6.61075">
        <ele>10.789312504232</ele>
        <time>2021-11-28T15:04:04Z</time>
      </trkpt>
      <trkpt lat="43.4567" lon="6.61076">
        <ele>10.789448291063</ele>
        <time>2021-11-28T15:04:05Z</time>
      </trkpt>
      <trkpt lat="43.45669" lon="6.61076">
        <ele>10.789564631879</ele>
        <time>2021-11-28T15:04:06Z</time>
      </trkpt>
      <trkpt lat="43.45667" lon="6.61077">
        <ele>10.78969438374</ele>
        <time>2021-11-28T15:04:07Z</time>
      </trkpt>
      <trkpt lat="43.45666" lon="6.61077">
        <ele>10.789812065661</ele>
        <time>2021-11-28T15:04:08Z</time>
      </trkpt>
      <trkpt lat="43.45665" lon="6.61078">
        <ele>10.789923712611</ele>
        <time>2021-11-28T15:04:09Z</time>
      </trkpt>
      <trkpt lat="43.45662" lon="6.61079">
        <ele>10.790163435042</ele>
        <time>2021-11-28T15:04:11Z</time>
      </trkpt>
      <trkpt lat="43.45661" lon="6.61079">
        <ele>10.790291510522</ele>
        <time>2021-11-28T15:04:12Z</time>
      </trkpt>
      <trkpt lat="43.4566" lon="6.6108">
        <ele>10.790419250727</ele>
        <time>2021-11-28T15:04:13Z</time>
      </trkpt>
      <trkpt lat="43.45658" lon="6.6108">
        <ele>10.790537603199</ele>
        <time>2021-11-28T15:04:14Z</time>
      </trkpt>
      <trkpt lat="43.45657" lon="6.6108">
        <ele>10.790631815791</ele>
        <time>2021-11-28T15:04:15Z</time>
      </trkpt>
      <trkpt lat="43.45656" lon="6.6108">
        <ele>9.7906978651881</ele>
        <time>2021-11-28T15:04:16Z</time>
      </trkpt>
      <trkpt lat="43.45656" lon="6.61081">
        <ele>9.7907813489437</ele>
        <time>2021-11-28T15:04:17Z</time>
      </trkpt>
      <trkpt lat="43.45655" lon="6.61081">
        <ele>9.7908752262592</ele>
        <time>2021-11-28T15:04:18Z</time>
      </trkpt>
      <trkpt lat="43.45654" lon="6.61082">
        <ele>8.7909986078739</ele>
        <time>2021-11-28T15:04:19Z</time>
      </trkpt>
      <trkpt lat="43.45652" lon="6.61084">
        <ele>8.791149482131</ele>
        <time>2021-11-28T15:04:20Z</time>
      </trkpt>
      <trkpt lat="43.45651" lon="6.61085">
        <ele>8.7912866100669</ele>
        <time>2021-11-28T15:04:21Z</time>
      </trkpt>
      <trkpt lat="43.45649" lon="6.61086">
        <ele>8.7915528193116</ele>
        <time>2021-11-28T15:04:23Z</time>
      </trkpt>
      <trkpt lat="43.45646" lon="6.61089">
        <ele>9.7918616086245</ele>
        <time>2021-11-28T15:04:25Z</time>
      </trkpt>
      <trkpt lat="43.45645" lon="6.6109">
        <ele>9.792008459568</ele>
        <time>2021-11-28T15:04:26Z</time>
      </trkpt>
      <trkpt lat="43.45644" lon="6.61091">
        <ele>9.7921251356602</ele>
        <time>2021-11-28T15:04:27Z</time>
      </trkpt>
      <trkpt lat="43.45643" lon="6.61091">
        <ele>9.7922213599086</ele>
        <time>2021-11-28T15:04:28Z</time>
      </trkpt>
      <trkpt lat="43.45642" lon="6.61092">
        <ele>9.7923159077764</ele>
        <time>2021-11-28T15:04:29Z</time>
      </trkpt>
      <trkpt lat="43.4564" lon="6.61094">
        <ele>9.7925821170211</ele>
        <time>2021-11-28T15:04:31Z</time>
      </trkpt>
      <trkpt lat="43.45638" lon="6.61096">
        <ele>9.7928208336234</ele>
        <time>2021-11-28T15:04:33Z</time>
      </trkpt>
      <trkpt lat="43.45637" lon="6.61098">
        <ele>9.7929743900895</ele>
        <time>2021-11-28T15:04:34Z</time>
      </trkpt>
      <trkpt lat="43.45636" lon="6.61099">
        <ele>8.7931319698691</ele>
        <time>2021-11-28T15:04:35Z</time>
      </trkpt>
      <trkpt lat="43.45634" lon="6.611">
        <ele>8.793271780014</ele>
        <time>2021-11-28T15:04:36Z</time>
      </trkpt>
      <trkpt lat="43.45633" lon="6.61101">
        <ele>9.7933938205242</ele>
        <time>2021-11-28T15:04:37Z</time>
      </trkpt>
      <trkpt lat="43.45632" lon="6.61102">
        <ele>9.793535977602</ele>
        <time>2021-11-28T15:04:38Z</time>
      </trkpt>
      <trkpt lat="43.45631" lon="6.61104">
        <ele>8.7936596944928</ele>
        <time>2021-11-28T15:04:39Z</time>
      </trkpt>
      <trkpt lat="43.45629" lon="6.61107">
        <ele>9.7939279153943</ele>
        <time>2021-11-28T15:04:41Z</time>
      </trkpt>
      <trkpt lat="43.45628" lon="6.61108">
        <ele>9.794053979218</ele>
        <time>2021-11-28T15:04:42Z</time>
      </trkpt>
      <trkpt lat="43.45627" lon="6.61109">
        <ele>8.7941817194223</ele>
        <time>2021-11-28T15:04:43Z</time>
      </trkpt>
      <trkpt lat="43.45626" lon="6.61111">
        <ele>8.7943470105529</ele>
        <time>2021-11-28T15:04:44Z</time>
      </trkpt>
      <trkpt lat="43.45625" lon="6.61113">
        <ele>8.7944834679365</ele>
        <time>2021-11-28T15:04:45Z</time>
      </trkpt>
      <trkpt lat="43.45623" lon="6.61115">
        <ele>9.7947372719646</ele>
        <time>2021-11-28T15:04:47Z</time>
      </trkpt>
      <trkpt lat="43.45622" lon="6.61116">
        <ele>9.7948750704527</ele>
        <time>2021-11-28T15:04:48Z</time>
      </trkpt>
      <trkpt lat="43.45621" lon="6.61117">
        <ele>9.7949877232313</ele>
        <time>2021-11-28T15:04:49Z</time>
      </trkpt>
      <trkpt lat="43.45621" lon="6.61118">
        <ele>8.7950728833675</ele>
        <time>2021-11-28T15:04:50Z</time>
      </trkpt>
      <trkpt lat="43.4562" lon="6.61119">
        <ele>8.7951768189669</ele>
        <time>2021-11-28T15:04:51Z</time>
      </trkpt>
      <trkpt lat="43.45618" lon="6.61122">
        <ele>9.7954185530543</ele>
        <time>2021-11-28T15:04:53Z</time>
      </trkpt>
      <trkpt lat="43.45617" lon="6.61123">
        <ele>9.7955546751618</ele>
        <time>2021-11-28T15:04:54Z</time>
      </trkpt>
      <trkpt lat="43.45616" lon="6.61124">
        <ele>9.7956901267171</ele>
        <time>2021-11-28T15:04:55Z</time>
      </trkpt>
      <trkpt lat="43.45614" lon="6.61126">
        <ele>8.7959167733788</ele>
        <time>2021-11-28T15:04:57Z</time>
      </trkpt>
      <trkpt lat="43.45613" lon="6.61128">
        <ele>9.7960368022323</ele>
        <time>2021-11-28T15:04:58Z</time>
      </trkpt>
      <trkpt lat="43.45613" lon="6.61129">
        <ele>8.7961511313915</ele>
        <time>2021-11-28T15:04:59Z</time>
      </trkpt>
      <trkpt lat="43.45612" lon="6.6113">
        <ele>8.7962721660733</ele>
        <time>2021-11-28T15:05:00Z</time>
      </trkpt>
      <trkpt lat="43.4561" lon="6.61131">
        <ele>8.7963945418596</ele>
        <time>2021-11-28T15:05:01Z</time>
      </trkpt>
      <trkpt lat="43.4561" lon="6.61132">
        <ele>9.7964843958616</ele>
        <time>2021-11-28T15:05:02Z</time>
      </trkpt>
      <trkpt lat="43.45609" lon="6.61133">
        <ele>9.7966141477227</ele>
        <time>2021-11-28T15:05:03Z</time>
      </trkpt>
      <trkpt lat="43.45608" lon="6.61135">
        <ele>8.7967291474342</ele>
        <time>2021-11-28T15:05:04Z</time>
      </trkpt>
      <trkpt lat="43.45608" lon="6.61136">
        <ele>8.7968109548092</ele>
        <time>2021-11-28T15:05:05Z</time>
      </trkpt>
      <trkpt lat="43.45607" lon="6.61138">
        <ele>7.796971552074</ele>
        <time>2021-11-28T15:05:06Z</time>
      </trkpt>
      <trkpt lat="43.45606" lon="6.61139">
        <ele>7.7970929220319</ele>
        <time>2021-11-28T15:05:07Z</time>
      </trkpt>
      <trkpt lat="43.45605" lon="6.61141">
        <ele>8.7972277030349</ele>
        <time>2021-11-28T15:05:08Z</time>
      </trkpt>
      <trkpt lat="43.45604" lon="6.61143">
        <ele>8.7973779067397</ele>
        <time>2021-11-28T15:05:09Z</time>
      </trkpt>
      <trkpt lat="43.45604" lon="6.61146">
        <ele>6.7975462153554</ele>
        <time>2021-11-28T15:05:11Z</time>
      </trkpt>
      <trkpt lat="43.45602" lon="6.6115">
        <ele>6.7978187948465</ele>
        <time>2021-11-28T15:05:13Z</time>
      </trkpt>
      <trkpt lat="43.45602" lon="6.61151">
        <ele>7.7979334592819</ele>
        <time>2021-11-28T15:05:14Z</time>
      </trkpt>
      <trkpt lat="43.45601" lon="6.61153">
        <ele>7.7980330362916</ele>
        <time>2021-11-28T15:05:15Z</time>
      </trkpt>
      <trkpt lat="43.45601" lon="6.61157">
        <ele>7.7982181087136</ele>
        <time>2021-11-28T15:05:17Z</time>
      </trkpt>
      <trkpt lat="43.456" lon="6.6116">
        <ele>7.7984088808298</ele>
        <time>2021-11-28T15:05:18Z</time>
      </trkpt>
      <trkpt lat="43.45599" lon="6.61162">
        <ele>7.7985503673553</ele>
        <time>2021-11-28T15:05:19Z</time>
      </trkpt>
      <trkpt lat="43.45598" lon="6.61163">
        <ele>7.7986925244331</ele>
        <time>2021-11-28T15:05:20Z</time>
      </trkpt>
      <trkpt lat="43.45597" lon="6.61165">
        <ele>7.7988366931677</ele>
        <time>2021-11-28T15:05:21Z</time>
      </trkpt>
      <trkpt lat="43.45596" lon="6.61166">
        <ele>7.7989637628198</ele>
        <time>2021-11-28T15:05:22Z</time>
      </trkpt>
      <trkpt lat="43.45595" lon="6.61167">
        <ele>6.7990656867623</ele>
        <time>2021-11-28T15:05:23Z</time>
      </trkpt>
      <trkpt lat="43.45594" lon="6.61168">
        <ele>6.7991904094815</ele>
        <time>2021-11-28T15:05:24Z</time>
      </trkpt>
      <trkpt lat="43.45592" lon="6.61171">
        <ele>7.7994764000177</ele>
        <time>2021-11-28T15:05:26Z</time>
      </trkpt>
      <trkpt lat="43.45591" lon="6.61172">
        <ele>8.7995997816324</ele>
        <time>2021-11-28T15:05:27Z</time>
      </trkpt>
      <trkpt lat="43.4559" lon="6.61174">
        <ele>7.7997566908598</ele>
        <time>2021-11-28T15:05:28Z</time>
      </trkpt>
      <trkpt lat="43.45589" lon="6.61175">
        <ele>7.7998606264591</ele>
        <time>2021-11-28T15:05:29Z</time>
      </trkpt>
      <trkpt lat="43.45588" lon="6.61177">
        <ele>7.799997754395</ele>
        <time>2021-11-28T15:05:30Z</time>
      </trkpt>
      <trkpt lat="43.45587" lon="6.61178">
        <ele>6.8001469522715</ele>
        <time>2021-11-28T15:05:31Z</time>
      </trkpt>
      <trkpt lat="43.45584" lon="6.61181">
        <ele>7.8004721701145</ele>
        <time>2021-11-28T15:05:33Z</time>
      </trkpt>
      <trkpt lat="43.45583" lon="6.61182">
        <ele>7.8006357848644</ele>
        <time>2021-11-28T15:05:34Z</time>
      </trkpt>
      <trkpt lat="43.45582" lon="6.61184">
        <ele>8.8008138164878</ele>
        <time>2021-11-28T15:05:35Z</time>
      </trkpt>
      <trkpt lat="43.45579" lon="6.61187">
        <ele>7.8011423870921</ele>
        <time>2021-11-28T15:05:37Z</time>
      </trkpt>
      <trkpt lat="43.45578" lon="6.61188">
        <ele>7.8012647628784</ele>
        <time>2021-11-28T15:05:38Z</time>
      </trkpt>
      <trkpt lat="43.45577" lon="6.61188">
        <ele>7.8014005497098</ele>
        <time>2021-11-28T15:05:39Z</time>
      </trkpt>
      <trkpt lat="43.45574" lon="6.6119">
        <ele>6.8016486540437</ele>
        <time>2021-11-28T15:05:41Z</time>
      </trkpt>
      <trkpt lat="43.45573" lon="6.6119">
        <ele>7.8017522543669</ele>
        <time>2021-11-28T15:05:42Z</time>
      </trkpt>
      <trkpt lat="43.45572" lon="6.6119">
        <ele>7.8018179684877</ele>
        <time>2021-11-28T15:05:43Z</time>
      </trkpt>
      <trkpt lat="43.45572" lon="6.61191">
        <ele>7.8018803298473</ele>
        <time>2021-11-28T15:05:44Z</time>
      </trkpt>
      <trkpt lat="43.45571" lon="6.61191">
        <ele>6.8019510731101</ele>
        <time>2021-11-28T15:05:45Z</time>
      </trkpt>
      <trkpt lat="43.45569" lon="6.61193">
        <ele>7.8021995127201</ele>
        <time>2021-11-28T15:05:47Z</time>
      </trkpt>
      <trkpt lat="43.45568" lon="6.61195">
        <ele>6.8023594394326</ele>
        <time>2021-11-28T15:05:48Z</time>
      </trkpt>
      <trkpt lat="43.45566" lon="6.61195">
        <ele>6.8025143370032</ele>
        <time>2021-11-28T15:05:49Z</time>
      </trkpt>
      <trkpt lat="43.45565" lon="6.61196">
        <ele>5.802635371685</ele>
        <time>2021-11-28T15:05:50Z</time>
      </trkpt>
      <trkpt lat="43.45564" lon="6.61197">
        <ele>5.8027802109718</ele>
        <time>2021-11-28T15:05:51Z</time>
      </trkpt>
      <trkpt lat="43.4556" lon="6.61198">
        <ele>5.8031486794353</ele>
        <time>2021-11-28T15:05:53Z</time>
      </trkpt>
      <trkpt lat="43.45558" lon="6.61199">
        <ele>5.8032938539982</ele>
        <time>2021-11-28T15:05:54Z</time>
      </trkpt>
      <trkpt lat="43.45557" lon="6.612">
        <ele>5.8034215942025</ele>
        <time>2021-11-28T15:05:55Z</time>
      </trkpt>
      <trkpt lat="43.45555" lon="6.61202">
        <ele>5.8037152960896</ele>
        <time>2021-11-28T15:05:57Z</time>
      </trkpt>
      <trkpt lat="43.45553" lon="6.61203">
        <ele>6.8038782402873</ele>
        <time>2021-11-28T15:05:58Z</time>
      </trkpt>
      <trkpt lat="43.45551" lon="6.61203">
        <ele>6.8040150329471</ele>
        <time>2021-11-28T15:05:59Z</time>
      </trkpt>
      <trkpt lat="43.4555" lon="6.61204">
        <ele>6.8041300326586</ele>
        <time>2021-11-28T15:06:00Z</time>
      </trkpt>
      <trkpt lat="43.45548" lon="6.61204">
        <ele>6.8042748719454</ele>
        <time>2021-11-28T15:06:01Z</time>
      </trkpt>
      <trkpt lat="43.45546" lon="6.61204">
        <ele>7.8044341281056</ele>
        <time>2021-11-28T15:06:02Z</time>
      </trkpt>
      <trkpt lat="43.45545" lon="6.61203">
        <ele>7.8045608624816</ele>
        <time>2021-11-28T15:06:03Z</time>
      </trkpt>
      <trkpt lat="43.45543" lon="6.61203">
        <ele>7.8046497106552</ele>
        <time>2021-11-28T15:06:04Z</time>
      </trkpt>
      <trkpt lat="43.45542" lon="6.61203">
        <ele>6.8047559931874</ele>
        <time>2021-11-28T15:06:05Z</time>
      </trkpt>
      <trkpt lat="43.45541" lon="6.61202">
        <ele>5.8048522174358</ele>
        <time>2021-11-28T15:06:06Z</time>
      </trkpt>
      <trkpt lat="43.45539" lon="6.61202">
        <ele>5.8049511238933</ele>
        <time>2021-11-28T15:06:07Z</time>
      </trkpt>
      <trkpt lat="43.45538" lon="6.61202">
        <ele>5.8050389662385</ele>
        <time>2021-11-28T15:06:08Z</time>
      </trkpt>
      <trkpt lat="43.45536" lon="6.61201">
        <ele>5.8051603361964</ele>
        <time>2021-11-28T15:06:09Z</time>
      </trkpt>
      <trkpt lat="43.45535" lon="6.61201">
        <ele>5.8052773475647</ele>
        <time>2021-11-28T15:06:10Z</time>
      </trkpt>
      <trkpt lat="43.45533" lon="6.61201">
        <ele>5.805375918746</ele>
        <time>2021-11-28T15:06:11Z</time>
      </trkpt>
      <trkpt lat="43.45533" lon="6.61201">
        <ele>5.8054506853223</ele>
        <time>2021-11-28T15:06:12Z</time>
      </trkpt>
      <trkpt lat="43.45531" lon="6.61201">
        <ele>5.8055261224508</ele>
        <time>2021-11-28T15:06:13Z</time>
      </trkpt>
      <trkpt lat="43.4553" lon="6.61201">
        <ele>6.8056780025363</ele>
        <time>2021-11-28T15:06:14Z</time>
      </trkpt>
      <trkpt lat="43.45527" lon="6.612">
        <ele>6.8058084249496</ele>
        <time>2021-11-28T15:06:16Z</time>
      </trkpt>
      <trkpt lat="43.45526" lon="6.612">
        <ele>6.8058741390705</ele>
        <time>2021-11-28T15:06:17Z</time>
      </trkpt>
      <trkpt lat="43.45526" lon="6.612">
        <ele>6.8059425354004</ele>
        <time>2021-11-28T15:06:18Z</time>
      </trkpt>
      <trkpt lat="43.45524" lon="6.612">
        <ele>7.8060447946191</ele>
        <time>2021-11-28T15:06:19Z</time>
      </trkpt>
      <trkpt lat="43.45524" lon="6.612">
        <ele>7.8061299547553</ele>
        <time>2021-11-28T15:06:20Z</time>
      </trkpt>
      <trkpt lat="43.45523" lon="6.61201">
        <ele>7.8062345609069</ele>
        <time>2021-11-28T15:06:21Z</time>
      </trkpt>
      <trkpt lat="43.45521" lon="6.61202">
        <ele>7.806353919208</ele>
        <time>2021-11-28T15:06:22Z</time>
      </trkpt>
      <trkpt lat="43.4552" lon="6.61202">
        <ele>7.806486018002</ele>
        <time>2021-11-28T15:06:23Z</time>
      </trkpt>
      <trkpt lat="43.45519" lon="6.61202">
        <ele>7.8065822422504</ele>
        <time>2021-11-28T15:06:24Z</time>
      </trkpt>
      <trkpt lat="43.45516" lon="6.61203">
        <ele>8.8068209588528</ele>
        <time>2021-11-28T15:06:26Z</time>
      </trkpt>
      <trkpt lat="43.45515" lon="6.61204">
        <ele>8.806927241385</ele>
        <time>2021-11-28T15:06:27Z</time>
      </trkpt>
      <trkpt lat="43.45514" lon="6.61204">
        <ele>7.8070472702384</ele>
        <time>2021-11-28T15:06:28Z</time>
      </trkpt>
      <trkpt lat="43.45513" lon="6.61205">
        <ele>7.8071964681149</ele>
        <time>2021-11-28T15:06:29Z</time>
      </trkpt>
      <trkpt lat="43.45511" lon="6.61206">
        <ele>7.8073808699846</ele>
        <time>2021-11-28T15:06:30Z</time>
      </trkpt>
      <trkpt lat="43.45509" lon="6.61206">
        <ele>7.8075277209282</ele>
        <time>2021-11-28T15:06:31Z</time>
      </trkpt>
      <trkpt lat="43.45508" lon="6.61207">
        <ele>7.8076490908861</ele>
        <time>2021-11-28T15:06:32Z</time>
      </trkpt>
      <trkpt lat="43.45507" lon="6.61207">
        <ele>7.8077630847692</ele>
        <time>2021-11-28T15:06:33Z</time>
      </trkpt>
      <trkpt lat="43.45506" lon="6.61208">
        <ele>7.8078465685248</ele>
        <time>2021-11-28T15:06:34Z</time>
      </trkpt>
      <trkpt lat="43.45503" lon="6.61208">
        <ele>6.8081107661128</ele>
        <time>2021-11-28T15:06:36Z</time>
      </trkpt>
      <trkpt lat="43.45499" lon="6.61209">
        <ele>6.808407150209</ele>
        <time>2021-11-28T15:06:38Z</time>
      </trkpt>
      <trkpt lat="43.45498" lon="6.61209">
        <ele>6.8085489720106</ele>
        <time>2021-11-28T15:06:39Z</time>
      </trkpt>
      <trkpt lat="43.45496" lon="6.61209">
        <ele>6.8086455315351</ele>
        <time>2021-11-28T15:06:40Z</time>
      </trkpt>
      <trkpt lat="43.45494" lon="6.61208">
        <ele>6.8088477030396</ele>
        <time>2021-11-28T15:06:42Z</time>
      </trkpt>
      <trkpt lat="43.45492" lon="6.61208">
        <ele>6.8089714199305</ele>
        <time>2021-11-28T15:06:43Z</time>
      </trkpt>
      <trkpt lat="43.4549" lon="6.61208">
        <ele>5.8091259822249</ele>
        <time>2021-11-28T15:06:44Z</time>
      </trkpt>
      <trkpt lat="43.45487" lon="6.61209">
        <ele>5.8094022497535</ele>
        <time>2021-11-28T15:06:46Z</time>
      </trkpt>
      <trkpt lat="43.45486" lon="6.61209">
        <ele>5.809477686882</ele>
        <time>2021-11-28T15:06:47Z</time>
      </trkpt>
      <trkpt lat="43.45485" lon="6.61209">
        <ele>5.8095645233989</ele>
        <time>2021-11-28T15:06:48Z</time>
      </trkpt>
      <trkpt lat="43.45483" lon="6.61208">
        <ele>4.8096946105361</ele>
        <time>2021-11-28T15:06:49Z</time>
      </trkpt>
      <trkpt lat="43.45482" lon="6.61208">
        <ele>4.8097703829408</ele>
        <time>2021-11-28T15:06:50Z</time>
      </trkpt>
      <trkpt lat="43.4548" lon="6.61207">
        <ele>3.809863589704</ele>
        <time>2021-11-28T15:06:51Z</time>
      </trkpt>
      <trkpt lat="43.45479" lon="6.61207">
        <ele>3.8099363446236</ele>
        <time>2021-11-28T15:06:52Z</time>
      </trkpt>
      <trkpt lat="43.45478" lon="6.61206">
        <ele>4.8100292161107</ele>
        <time>2021-11-28T15:06:53Z</time>
      </trkpt>
      <trkpt lat="43.45477" lon="6.61206">
        <ele>4.8101297989488</ele>
        <time>2021-11-28T15:06:54Z</time>
      </trkpt>
      <trkpt lat="43.45474" lon="6.61206">
        <ele>5.8103618100286</ele>
        <time>2021-11-28T15:06:56Z</time>
      </trkpt>
      <trkpt lat="43.45472" lon="6.61206">
        <ele>5.8104855269194</ele>
        <time>2021-11-28T15:06:57Z</time>
      </trkpt>
      <trkpt lat="43.45471" lon="6.61206">
        <ele>6.8106085732579</ele>
        <time>2021-11-28T15:06:58Z</time>
      </trkpt>
      <trkpt lat="43.45469" lon="6.61206">
        <ele>6.8107168674469</ele>
        <time>2021-11-28T15:06:59Z</time>
      </trkpt>
      <trkpt lat="43.45467" lon="6.61206">
        <ele>6.8108261674643</ele>
        <time>2021-11-28T15:07:00Z</time>
      </trkpt>
      <trkpt lat="43.45465" lon="6.61205">
        <ele>5.8110454380512</ele>
        <time>2021-11-28T15:07:02Z</time>
      </trkpt>
      <trkpt lat="43.45462" lon="6.61205">
        <ele>6.8112023472786</ele>
        <time>2021-11-28T15:07:03Z</time>
      </trkpt>
      <trkpt lat="43.45461" lon="6.61204">
        <ele>6.8112948834896</ele>
        <time>2021-11-28T15:07:04Z</time>
      </trkpt>
      <trkpt lat="43.4546" lon="6.61203">
        <ele>6.811356574297</ele>
        <time>2021-11-28T15:07:05Z</time>
      </trkpt>
      <trkpt lat="43.45458" lon="6.61202">
        <ele>6.8114501163363</ele>
        <time>2021-11-28T15:07:06Z</time>
      </trkpt>
      <trkpt lat="43.45457" lon="6.61202">
        <ele>6.8115419819951</ele>
        <time>2021-11-28T15:07:07Z</time>
      </trkpt>
      <trkpt lat="43.45455" lon="6.61201">
        <ele>7.8115996494889</ele>
        <time>2021-11-28T15:07:08Z</time>
      </trkpt>
      <trkpt lat="43.45454" lon="6.612">
        <ele>7.8116770982742</ele>
        <time>2021-11-28T15:07:09Z</time>
      </trkpt>
      <trkpt lat="43.45453" lon="6.61199">
        <ele>7.8117495179176</ele>
        <time>2021-11-28T15:07:10Z</time>
      </trkpt>
      <trkpt lat="43.45451" lon="6.61198">
        <ele>8.8118169084191</ele>
        <time>2021-11-28T15:07:11Z</time>
      </trkpt>
      <trkpt lat="43.4545" lon="6.61197">
        <ele>8.8118796050549</ele>
        <time>2021-11-28T15:07:12Z</time>
      </trkpt>
      <trkpt lat="43.45449" lon="6.61196">
        <ele>8.8119583949447</ele>
        <time>2021-11-28T15:07:13Z</time>
      </trkpt>
      <trkpt lat="43.45447" lon="6.61195">
        <ele>9.8120314851403</ele>
        <time>2021-11-28T15:07:14Z</time>
      </trkpt>
      <trkpt lat="43.45446" lon="6.61194">
        <ele>9.812123015523</ele>
        <time>2021-11-28T15:07:15Z</time>
      </trkpt>
      <trkpt lat="43.45444" lon="6.61194">
        <ele>8.8122001290321</ele>
        <time>2021-11-28T15:07:16Z</time>
      </trkpt>
      <trkpt lat="43.45443" lon="6.61193">
        <ele>8.8122812658548</ele>
        <time>2021-11-28T15:07:17Z</time>
      </trkpt>
      <trkpt lat="43.45442" lon="6.61193">
        <ele>8.8123872131109</ele>
        <time>2021-11-28T15:07:18Z</time>
      </trkpt>
      <trkpt lat="43.45441" lon="6.61192">
        <ele>8.8124334812164</ele>
        <time>2021-11-28T15:07:19Z</time>
      </trkpt>
      <trkpt lat="43.4544" lon="6.61191">
        <ele>8.8124680146575</ele>
        <time>2021-11-28T15:07:20Z</time>
      </trkpt>
      <trkpt lat="43.45439" lon="6.6119">
        <ele>7.8125015422702</ele>
        <time>2021-11-28T15:07:21Z</time>
      </trkpt>
      <trkpt lat="43.45436" lon="6.61188">
        <ele>7.8126359879971</ele>
        <time>2021-11-28T15:07:23Z</time>
      </trkpt>
      <trkpt lat="43.45435" lon="6.61187">
        <ele>8.81272315979</ele>
        <time>2021-11-28T15:07:24Z</time>
      </trkpt>
      <trkpt lat="43.45433" lon="6.61187">
        <ele>8.8127992674708</ele>
        <time>2021-11-28T15:07:25Z</time>
      </trkpt>
      <trkpt lat="43.45432" lon="6.61186">
        <ele>8.8128508999944</ele>
        <time>2021-11-28T15:07:26Z</time>
      </trkpt>
      <trkpt lat="43.45431" lon="6.61185">
        <ele>8.8129420951009</ele>
        <time>2021-11-28T15:07:27Z</time>
      </trkpt>
      <trkpt lat="43.45429" lon="6.61185">
        <ele>8.8130497187376</ele>
        <time>2021-11-28T15:07:28Z</time>
      </trkpt>
      <trkpt lat="43.45428" lon="6.61185">
        <ele>9.8131704181433</ele>
        <time>2021-11-28T15:07:29Z</time>
      </trkpt>
      <trkpt lat="43.45426" lon="6.61185">
        <ele>8.813293799758</ele>
        <time>2021-11-28T15:07:30Z</time>
      </trkpt>
      <trkpt lat="43.45423" lon="6.61184">
        <ele>8.813499994576</ele>
        <time>2021-11-28T15:07:32Z</time>
      </trkpt>
      <trkpt lat="43.45422" lon="6.61184">
        <ele>8.8136267289519</ele>
        <time>2021-11-28T15:07:33Z</time>
      </trkpt>
      <trkpt lat="43.45421" lon="6.61184">
        <ele>8.8137192651629</ele>
        <time>2021-11-28T15:07:34Z</time>
      </trkpt>
      <trkpt lat="43.45419" lon="6.61184">
        <ele>7.8138299062848</ele>
        <time>2021-11-28T15:07:35Z</time>
      </trkpt>
      <trkpt lat="43.45418" lon="6.61184">
        <ele>7.8139298185706</ele>
        <time>2021-11-28T15:07:36Z</time>
      </trkpt>
      <trkpt lat="43.45417" lon="6.61184">
        <ele>7.8140421360731</ele>
        <time>2021-11-28T15:07:37Z</time>
      </trkpt>
      <trkpt lat="43.45415" lon="6.61185">
        <ele>7.8141671940684</ele>
        <time>2021-11-28T15:07:38Z</time>
      </trkpt>
      <trkpt lat="43.45414" lon="6.61185">
        <ele>7.8142701238394</ele>
        <time>2021-11-28T15:07:39Z</time>
      </trkpt>
      <trkpt lat="43.45412" lon="6.61187">
        <ele>7.8145289570093</ele>
        <time>2021-11-28T15:07:41Z</time>
      </trkpt>
      <trkpt lat="43.45411" lon="6.61189">
        <ele>7.8147304579616</ele>
        <time>2021-11-28T15:07:43Z</time>
      </trkpt>
      <trkpt lat="43.45409" lon="6.6119">
        <ele>7.8148645684123</ele>
        <time>2021-11-28T15:07:44Z</time>
      </trkpt>
      <trkpt lat="43.45408" lon="6.61192">
        <ele>8.8150110840797</ele>
        <time>2021-11-28T15:07:45Z</time>
      </trkpt>
      <trkpt lat="43.45406" lon="6.61194">
        <ele>8.815252147615</ele>
        <time>2021-11-28T15:07:47Z</time>
      </trkpt>
      <trkpt lat="43.45406" lon="6.61196">
        <ele>8.8153651356697</ele>
        <time>2021-11-28T15:07:48Z</time>
      </trkpt>
      <trkpt lat="43.45406" lon="6.61198">
        <ele>7.8154650479555</ele>
        <time>2021-11-28T15:07:49Z</time>
      </trkpt>
      <trkpt lat="43.45405" lon="6.61199">
        <ele>7.8155723363161</ele>
        <time>2021-11-28T15:07:50Z</time>
      </trkpt>
      <trkpt lat="43.45404" lon="6.61202">
        <ele>6.8157708197832</ele>
        <time>2021-11-28T15:07:52Z</time>
      </trkpt>
      <trkpt lat="43.45403" lon="6.61203">
        <ele>5.8158566504717</ele>
        <time>2021-11-28T15:07:53Z</time>
      </trkpt>
      <trkpt lat="43.45403" lon="6.61205">
        <ele>5.8159454986453</ele>
        <time>2021-11-28T15:07:54Z</time>
      </trkpt>
      <trkpt lat="43.45403" lon="6.61207">
        <ele>5.8160283118486</ele>
        <time>2021-11-28T15:07:55Z</time>
      </trkpt>
      <trkpt lat="43.45403" lon="6.61209">
        <ele>5.8161510229111</ele>
        <time>2021-11-28T15:07:56Z</time>
      </trkpt>
      <trkpt lat="43.45402" lon="6.6121">
        <ele>4.8162184134126</ele>
        <time>2021-11-28T15:07:57Z</time>
      </trkpt>
      <trkpt lat="43.45402" lon="6.61212">
        <ele>5.8163032382727</ele>
        <time>2021-11-28T15:07:58Z</time>
      </trkpt>
      <trkpt lat="43.45402" lon="6.61214">
        <ele>5.8163877278566</ele>
        <time>2021-11-28T15:07:59Z</time>
      </trkpt>
      <trkpt lat="43.45402" lon="6.61216">
        <ele>6.8164624944329</ele>
        <time>2021-11-28T15:08:00Z</time>
      </trkpt>
      <trkpt lat="43.45402" lon="6.61221">
        <ele>5.8166499137878</ele>
        <time>2021-11-28T15:08:02Z</time>
      </trkpt>
      <trkpt lat="43.45402" lon="6.61222">
        <ele>5.8167052343488</ele>
        <time>2021-11-28T15:08:03Z</time>
      </trkpt>
      <trkpt lat="43.45403" lon="6.61224">
        <ele>5.816774636507</ele>
        <time>2021-11-28T15:08:04Z</time>
      </trkpt>
      <trkpt lat="43.45403" lon="6.61226">
        <ele>4.8168494030833</ele>
        <time>2021-11-28T15:08:05Z</time>
      </trkpt>
      <trkpt lat="43.45403" lon="6.61228">
        <ele>4.8169084116817</ele>
        <time>2021-11-28T15:08:06Z</time>
      </trkpt>
      <trkpt lat="43.45403" lon="6.61232">
        <ele>4.8170006126165</ele>
        <time>2021-11-28T15:08:08Z</time>
      </trkpt>
      <trkpt lat="43.45404" lon="6.61234">
        <ele>4.8170706853271</ele>
        <time>2021-11-28T15:08:09Z</time>
      </trkpt>
      <trkpt lat="43.45404" lon="6.61235">
        <ele>4.8171142712235</ele>
        <time>2021-11-28T15:08:10Z</time>
      </trkpt>
      <trkpt lat="43.45404" lon="6.61237">
        <ele>3.8171907141805</ele>
        <time>2021-11-28T15:08:11Z</time>
      </trkpt>
      <trkpt lat="43.45404" lon="6.61239">
        <ele>4.8172530755401</ele>
        <time>2021-11-28T15:08:12Z</time>
      </trkpt>
      <trkpt lat="43.45404" lon="6.61241">
        <ele>4.8173496350646</ele>
        <time>2021-11-28T15:08:13Z</time>
      </trkpt>
      <trkpt lat="43.45404" lon="6.61243">
        <ele>4.8174119964242</ele>
        <time>2021-11-28T15:08:14Z</time>
      </trkpt>
      <trkpt lat="43.45404" lon="6.61245">
        <ele>4.817482739687</ele>
        <time>2021-11-28T15:08:15Z</time>
      </trkpt>
      <trkpt lat="43.45404" lon="6.61247">
        <ele>4.8175300136209</ele>
        <time>2021-11-28T15:08:16Z</time>
      </trkpt>
      <trkpt lat="43.45405" lon="6.61249">
        <ele>4.8175873458385</ele>
        <time>2021-11-28T15:08:17Z</time>
      </trkpt>
      <trkpt lat="43.45404" lon="6.61251">
        <ele>4.8177067041397</ele>
        <time>2021-11-28T15:08:18Z</time>
      </trkpt>
      <trkpt lat="43.45404" lon="6.61253">
        <ele>4.81780795753</ele>
        <time>2021-11-28T15:08:19Z</time>
      </trkpt>
      <trkpt lat="43.45404" lon="6.61257">
        <ele>4.8179725781083</ele>
        <time>2021-11-28T15:08:21Z</time>
      </trkpt>
      <trkpt lat="43.45404" lon="6.6126">
        <ele>3.8181019946933</ele>
        <time>2021-11-28T15:08:23Z</time>
      </trkpt>
      <trkpt lat="43.45404" lon="6.61261">
        <ele>3.8181335106492</ele>
        <time>2021-11-28T15:08:24Z</time>
      </trkpt>
      <trkpt lat="43.45404" lon="6.61263">
        <ele>3.8182039186358</ele>
        <time>2021-11-28T15:08:25Z</time>
      </trkpt>
      <trkpt lat="43.45403" lon="6.61266">
        <ele>2.8183849677444</ele>
        <time>2021-11-28T15:08:27Z</time>
      </trkpt>
      <trkpt lat="43.45403" lon="6.61268">
        <ele>3.8184694573283</ele>
        <time>2021-11-28T15:08:28Z</time>
      </trkpt>
      <trkpt lat="43.45403" lon="6.61271">
        <ele>3.8185921683908</ele>
        <time>2021-11-28T15:08:29Z</time>
      </trkpt>
      <trkpt lat="43.45403" lon="6.61273">
        <ele>3.8187007978559</ele>
        <time>2021-11-28T15:08:30Z</time>
      </trkpt>
      <trkpt lat="43.45401" lon="6.61277">
        <ele>4.8189824298024</ele>
        <time>2021-11-28T15:08:32Z</time>
      </trkpt>
      <trkpt lat="43.454" lon="6.61279">
        <ele>5.819140009582</ele>
        <time>2021-11-28T15:08:33Z</time>
      </trkpt>
      <trkpt lat="43.454" lon="6.6128">
        <ele>5.8192358985543</ele>
        <time>2021-11-28T15:08:34Z</time>
      </trkpt>
      <trkpt lat="43.45399" lon="6.61282">
        <ele>4.8193824142218</ele>
        <time>2021-11-28T15:08:36Z</time>
      </trkpt>
      <trkpt lat="43.45398" lon="6.61283">
        <ele>4.8194930553436</ele>
        <time>2021-11-28T15:08:37Z</time>
      </trkpt>
      <trkpt lat="43.45397" lon="6.61285">
        <ele>4.8196432590485</ele>
        <time>2021-11-28T15:08:38Z</time>
      </trkpt>
      <trkpt lat="43.45396" lon="6.61287">
        <ele>3.8198015093803</ele>
        <time>2021-11-28T15:08:39Z</time>
      </trkpt>
      <trkpt lat="43.45395" lon="6.61288">
        <ele>4.8199235498905</ele>
        <time>2021-11-28T15:08:40Z</time>
      </trkpt>
      <trkpt lat="43.45393" lon="6.6129">
        <ele>3.8201280683279</ele>
        <time>2021-11-28T15:08:42Z</time>
      </trkpt>
      <trkpt lat="43.45392" lon="6.61292">
        <ele>4.8203205168247</ele>
        <time>2021-11-28T15:08:43Z</time>
      </trkpt>
      <trkpt lat="43.45391" lon="6.61294">
        <ele>4.8204811140895</ele>
        <time>2021-11-28T15:08:44Z</time>
      </trkpt>
      <trkpt lat="43.45389" lon="6.61296">
        <ele>5.820736259222</ele>
        <time>2021-11-28T15:08:46Z</time>
      </trkpt>
      <trkpt lat="43.45387" lon="6.61297">
        <ele>4.8208753988147</ele>
        <time>2021-11-28T15:08:47Z</time>
      </trkpt>
      <trkpt lat="43.45386" lon="6.61298">
        <ele>5.8210584595799</ele>
        <time>2021-11-28T15:08:48Z</time>
      </trkpt>
      <trkpt lat="43.45384" lon="6.61299">
        <ele>5.8211992755532</ele>
        <time>2021-11-28T15:08:49Z</time>
      </trkpt>
      <trkpt lat="43.45383" lon="6.613">
        <ele>6.8213511556387</ele>
        <time>2021-11-28T15:08:50Z</time>
      </trkpt>
      <trkpt lat="43.4538" lon="6.613">
        <ele>6.8215771317482</ele>
        <time>2021-11-28T15:08:52Z</time>
      </trkpt>
      <trkpt lat="43.45379" lon="6.61301">
        <ele>6.8216917961836</ele>
        <time>2021-11-28T15:08:53Z</time>
      </trkpt>
      <trkpt lat="43.45378" lon="6.61302">
        <ele>7.8218403235078</ele>
        <time>2021-11-28T15:08:54Z</time>
      </trkpt>
      <trkpt lat="43.45376" lon="6.61302">
        <ele>6.822031095624</ele>
        <time>2021-11-28T15:08:56Z</time>
      </trkpt>
      <trkpt lat="43.45373" lon="6.61302">
        <ele>7.8222339376807</ele>
        <time>2021-11-28T15:08:58Z</time>
      </trkpt>
      <trkpt lat="43.45371" lon="6.61301">
        <ele>7.8223593309522</ele>
        <time>2021-11-28T15:08:59Z</time>
      </trkpt>
      <trkpt lat="43.45369" lon="6.613">
        <ele>7.8224729895592</ele>
        <time>2021-11-28T15:09:00Z</time>
      </trkpt>
      <trkpt lat="43.45367" lon="6.613">
        <ele>7.8226221874356</ele>
        <time>2021-11-28T15:09:01Z</time>
      </trkpt>
      <trkpt lat="43.45366" lon="6.61301">
        <ele>7.8227864727378</ele>
        <time>2021-11-28T15:09:02Z</time>
      </trkpt>
      <trkpt lat="43.45364" lon="6.61301">
        <ele>8.8229115307331</ele>
        <time>2021-11-28T15:09:03Z</time>
      </trkpt>
      <trkpt lat="43.45363" lon="6.613">
        <ele>8.8230003789067</ele>
        <time>2021-11-28T15:09:04Z</time>
      </trkpt>
      <trkpt lat="43.45361" lon="6.61299">
        <ele>8.8230878859758</ele>
        <time>2021-11-28T15:09:05Z</time>
      </trkpt>
      <trkpt lat="43.4536" lon="6.61299">
        <ele>8.8231717050076</ele>
        <time>2021-11-28T15:09:06Z</time>
      </trkpt>
      <trkpt lat="43.45357" lon="6.61297">
        <ele>9.8232900574803</ele>
        <time>2021-11-28T15:09:08Z</time>
      </trkpt>
      <trkpt lat="43.45356" lon="6.61296">
        <ele>9.8233430311084</ele>
        <time>2021-11-28T15:09:09Z</time>
      </trkpt>
      <trkpt lat="43.45355" lon="6.61295">
        <ele>9.8233976811171</ele>
        <time>2021-11-28T15:09:10Z</time>
      </trkpt>
      <trkpt lat="43.45354" lon="6.61295">
        <ele>9.8234996050596</ele>
        <time>2021-11-28T15:09:11Z</time>
      </trkpt>
      <trkpt lat="43.45353" lon="6.61295">
        <ele>9.8235690072179</ele>
        <time>2021-11-28T15:09:12Z</time>
      </trkpt>
      <trkpt lat="43.45352" lon="6.61295">
        <ele>9.8236367329955</ele>
        <time>2021-11-28T15:09:13Z</time>
      </trkpt>
      <trkpt lat="43.4535" lon="6.61295">
        <ele>9.8237510621548</ele>
        <time>2021-11-28T15:09:14Z</time>
      </trkpt>
      <trkpt lat="43.45349" lon="6.61294">
        <ele>9.8238345459104</ele>
        <time>2021-11-28T15:09:15Z</time>
      </trkpt>
      <trkpt lat="43.45348" lon="6.61294">
        <ele>9.8239428400993</ele>
        <time>2021-11-28T15:09:16Z</time>
      </trkpt>
      <trkpt lat="43.45347" lon="6.61294">
        <ele>10.824040405452</ele>
        <time>2021-11-28T15:09:17Z</time>
      </trkpt>
      <trkpt lat="43.45345" lon="6.61295">
        <ele>10.824180215597</ele>
        <time>2021-11-28T15:09:18Z</time>
      </trkpt>
      <trkpt lat="43.45344" lon="6.61294">
        <ele>10.824294880033</ele>
        <time>2021-11-28T15:09:19Z</time>
      </trkpt>
      <trkpt lat="43.45342" lon="6.61294">
        <ele>10.824396803975</ele>
        <time>2021-11-28T15:09:20Z</time>
      </trkpt>
      <trkpt lat="43.45341" lon="6.61294">
        <ele>11.824488334358</ele>
        <time>2021-11-28T15:09:21Z</time>
      </trkpt>
      <trkpt lat="43.4534" lon="6.61294">
        <ele>11.824586234987</ele>
        <time>2021-11-28T15:09:22Z</time>
      </trkpt>
      <trkpt lat="43.45338" lon="6.61294">
        <ele>11.824703246355</ele>
        <time>2021-11-28T15:09:23Z</time>
      </trkpt>
      <trkpt lat="43.45337" lon="6.61294">
        <ele>11.824783042073</ele>
        <time>2021-11-28T15:09:24Z</time>
      </trkpt>
      <trkpt lat="43.45334" lon="6.61293">
        <ele>10.824977166951</ele>
        <time>2021-11-28T15:09:26Z</time>
      </trkpt>
      <trkpt lat="43.45333" lon="6.61293">
        <ele>10.825043551624</ele>
        <time>2021-11-28T15:09:27Z</time>
      </trkpt>
      <trkpt lat="43.45332" lon="6.61293">
        <ele>10.825143799186</ele>
        <time>2021-11-28T15:09:28Z</time>
      </trkpt>
      <trkpt lat="43.45331" lon="6.61293">
        <ele>10.825259804726</ele>
        <time>2021-11-28T15:09:29Z</time>
      </trkpt>
      <trkpt lat="43.45329" lon="6.61293">
        <ele>11.825372122228</ele>
        <time>2021-11-28T15:09:30Z</time>
      </trkpt>
      <trkpt lat="43.45328" lon="6.61294">
        <ele>11.825476057827</ele>
        <time>2021-11-28T15:09:31Z</time>
      </trkpt>
      <trkpt lat="43.45328" lon="6.61294">
        <ele>10.82554680109</ele>
        <time>2021-11-28T15:09:32Z</time>
      </trkpt>
      <trkpt lat="43.45327" lon="6.61294">
        <ele>10.825641684234</ele>
        <time>2021-11-28T15:09:33Z</time>
      </trkpt>
      <trkpt lat="43.45326" lon="6.61295">
        <ele>10.825756013393</ele>
        <time>2021-11-28T15:09:34Z</time>
      </trkpt>
      <trkpt lat="43.45324" lon="6.61296">
        <ele>10.825887776911</ele>
        <time>2021-11-28T15:09:35Z</time>
      </trkpt>
      <trkpt lat="43.45323" lon="6.61297">
        <ele>10.826011829078</ele>
        <time>2021-11-28T15:09:36Z</time>
      </trkpt>
      <trkpt lat="43.45321" lon="6.61297">
        <ele>10.82618047297</ele>
        <time>2021-11-28T15:09:38Z</time>
      </trkpt>
      <trkpt lat="43.4532" lon="6.61297">
        <ele>10.826275020838</ele>
        <time>2021-11-28T15:09:39Z</time>
      </trkpt>
      <trkpt lat="43.45319" lon="6.61298">
        <ele>10.826364204288</ele>
        <time>2021-11-28T15:09:40Z</time>
      </trkpt>
      <trkpt lat="43.45319" lon="6.61299">
        <ele>9.8264429941773</ele>
        <time>2021-11-28T15:09:41Z</time>
      </trkpt>
      <trkpt lat="43.45318" lon="6.61299">
        <ele>9.8265040144324</ele>
        <time>2021-11-28T15:09:42Z</time>
      </trkpt>
      <trkpt lat="43.45317" lon="6.61301">
        <ele>10.826655894518</ele>
        <time>2021-11-28T15:09:43Z</time>
      </trkpt>
      <trkpt lat="43.45317" lon="6.61303">
        <ele>10.826769888401</ele>
        <time>2021-11-28T15:09:44Z</time>
      </trkpt>
      <trkpt lat="43.45316" lon="6.61304">
        <ele>10.826876506209</ele>
        <time>2021-11-28T15:09:45Z</time>
      </trkpt>
      <trkpt lat="43.45315" lon="6.61306">
        <ele>10.827076666057</ele>
        <time>2021-11-28T15:09:47Z</time>
      </trkpt>
      <trkpt lat="43.45313" lon="6.61307">
        <ele>10.827240280807</ele>
        <time>2021-11-28T15:09:48Z</time>
      </trkpt>
      <trkpt lat="43.45312" lon="6.61309">
        <ele>10.82739584893</ele>
        <time>2021-11-28T15:09:49Z</time>
      </trkpt>
      <trkpt lat="43.45311" lon="6.6131">
        <ele>10.827503807843</ele>
        <time>2021-11-28T15:09:50Z</time>
      </trkpt>
      <trkpt lat="43.4531" lon="6.61312">
        <ele>10.827637583017</ele>
        <time>2021-11-28T15:09:51Z</time>
      </trkpt>
      <trkpt lat="43.45309" lon="6.61315">
        <ele>11.827880322933</ele>
        <time>2021-11-28T15:09:53Z</time>
      </trkpt>
      <trkpt lat="43.45308" lon="6.61316">
        <ele>11.82800873369</ele>
        <time>2021-11-28T15:09:54Z</time>
      </trkpt>
      <trkpt lat="43.45307" lon="6.61317">
        <ele>11.828100599349</ele>
        <time>2021-11-28T15:09:55Z</time>
      </trkpt>
      <trkpt lat="43.45306" lon="6.61319">
        <ele>10.828325904906</ele>
        <time>2021-11-28T15:09:57Z</time>
      </trkpt>
      <trkpt lat="43.45305" lon="6.61321">
        <ele>10.828451968729</ele>
        <time>2021-11-28T15:09:58Z</time>
      </trkpt>
      <trkpt lat="43.45304" lon="6.61323">
        <ele>10.828571997583</ele>
        <time>2021-11-28T15:09:59Z</time>
      </trkpt>
      <trkpt lat="43.45303" lon="6.61324">
        <ele>11.828711472452</ele>
        <time>2021-11-28T15:10:00Z</time>
      </trkpt>
      <trkpt lat="43.45303" lon="6.61326">
        <ele>11.828820101917</ele>
        <time>2021-11-28T15:10:01Z</time>
      </trkpt>
      <trkpt lat="43.45302" lon="6.61328">
        <ele>10.829001151025</ele>
        <time>2021-11-28T15:10:03Z</time>
      </trkpt>
      <trkpt lat="43.45301" lon="6.61329">
        <ele>10.829071223736</ele>
        <time>2021-11-28T15:10:04Z</time>
      </trkpt>
      <trkpt lat="43.453" lon="6.6133">
        <ele>10.829176165164</ele>
        <time>2021-11-28T15:10:05Z</time>
      </trkpt>
      <trkpt lat="43.453" lon="6.61332">
        <ele>10.829299546778</ele>
        <time>2021-11-28T15:10:07Z</time>
      </trkpt>
      <trkpt lat="43.45299" lon="6.61333">
        <ele>9.8293803483248</ele>
        <time>2021-11-28T15:10:08Z</time>
      </trkpt>
      <trkpt lat="43.45298" lon="6.61334">
        <ele>9.8294936716557</ele>
        <time>2021-11-28T15:10:09Z</time>
      </trkpt>
      <trkpt lat="43.45297" lon="6.61337">
        <ele>9.8297313824296</ele>
        <time>2021-11-28T15:10:11Z</time>
      </trkpt>
      <trkpt lat="43.45295" lon="6.61339">
        <ele>8.8299141079187</ele>
        <time>2021-11-28T15:10:13Z</time>
      </trkpt>
      <trkpt lat="43.45295" lon="6.6134">
        <ele>8.8300163671374</ele>
        <time>2021-11-28T15:10:14Z</time>
      </trkpt>
      <trkpt lat="43.45293" lon="6.61342">
        <ele>8.8301957398653</ele>
        <time>2021-11-28T15:10:15Z</time>
      </trkpt>
      <trkpt lat="43.45293" lon="6.61343">
        <ele>8.8303355500102</ele>
        <time>2021-11-28T15:10:16Z</time>
      </trkpt>
      <trkpt lat="43.45291" lon="6.61345">
        <ele>8.8304720073938</ele>
        <time>2021-11-28T15:10:17Z</time>
      </trkpt>
      <trkpt lat="43.45291" lon="6.61346">
        <ele>9.8305900245905</ele>
        <time>2021-11-28T15:10:18Z</time>
      </trkpt>
      <trkpt lat="43.4529" lon="6.61348">
        <ele>9.8307134062052</ele>
        <time>2021-11-28T15:10:19Z</time>
      </trkpt>
      <trkpt lat="43.4529" lon="6.6135">
        <ele>9.8308166712523</ele>
        <time>2021-11-28T15:10:20Z</time>
      </trkpt>
      <trkpt lat="43.45289" lon="6.61353">
        <ele>8.8310057669878</ele>
        <time>2021-11-28T15:10:22Z</time>
      </trkpt>
      <trkpt lat="43.45288" lon="6.61354">
        <ele>8.831104002893</ele>
        <time>2021-11-28T15:10:23Z</time>
      </trkpt>
      <trkpt lat="43.45288" lon="6.61356">
        <ele>8.8312109559774</ele>
        <time>2021-11-28T15:10:24Z</time>
      </trkpt>
      <trkpt lat="43.45287" lon="6.61358">
        <ele>8.8313108682632</ele>
        <time>2021-11-28T15:10:25Z</time>
      </trkpt>
      <trkpt lat="43.45287" lon="6.61359">
        <ele>8.8313970342278</ele>
        <time>2021-11-28T15:10:26Z</time>
      </trkpt>
      <trkpt lat="43.45287" lon="6.61361">
        <ele>8.8314878940582</ele>
        <time>2021-11-28T15:10:27Z</time>
      </trkpt>
      <trkpt lat="43.45287" lon="6.61363">
        <ele>8.8315754011273</ele>
        <time>2021-11-28T15:10:28Z</time>
      </trkpt>
      <trkpt lat="43.45286" lon="6.61364">
        <ele>8.8316595554352</ele>
        <time>2021-11-28T15:10:29Z</time>
      </trkpt>
      <trkpt lat="43.45285" lon="6.61367">
        <ele>7.8318248465657</ele>
        <time>2021-11-28T15:10:31Z</time>
      </trkpt>
      <trkpt lat="43.45285" lon="6.61369">
        <ele>8.8319941610098</ele>
        <time>2021-11-28T15:10:32Z</time>
      </trkpt>
      <trkpt lat="43.45284" lon="6.6137">
        <ele>7.8321255892515</ele>
        <time>2021-11-28T15:10:33Z</time>
      </trkpt>
      <trkpt lat="43.45283" lon="6.61372">
        <ele>8.8322633877397</ele>
        <time>2021-11-28T15:10:34Z</time>
      </trkpt>
      <trkpt lat="43.45281" lon="6.61374">
        <ele>9.8324457779527</ele>
        <time>2021-11-28T15:10:35Z</time>
      </trkpt>
      <trkpt lat="43.45279" lon="6.61376">
        <ele>9.8327277451754</ele>
        <time>2021-11-28T15:10:37Z</time>
      </trkpt>
      <trkpt lat="43.45278" lon="6.61378">
        <ele>10.832899741828</ele>
        <time>2021-11-28T15:10:38Z</time>
      </trkpt>
      <trkpt lat="43.45276" lon="6.61379">
        <ele>10.833059333265</ele>
        <time>2021-11-28T15:10:39Z</time>
      </trkpt>
      <trkpt lat="43.45275" lon="6.61379">
        <ele>10.833190761507</ele>
        <time>2021-11-28T15:10:40Z</time>
      </trkpt>
      <trkpt lat="43.45274" lon="6.6138">
        <ele>11.833286650479</ele>
        <time>2021-11-28T15:10:41Z</time>
      </trkpt>
      <trkpt lat="43.45271" lon="6.6138">
        <ele>11.833508267999</ele>
        <time>2021-11-28T15:10:43Z</time>
      </trkpt>
      <trkpt lat="43.4527" lon="6.61381">
        <ele>10.833643049002</ele>
        <time>2021-11-28T15:10:44Z</time>
      </trkpt>
      <trkpt lat="43.45269" lon="6.61382">
        <ele>11.833793587983</ele>
        <time>2021-11-28T15:10:45Z</time>
      </trkpt>
      <trkpt lat="43.45268" lon="6.61383">
        <ele>10.833890147507</ele>
        <time>2021-11-28T15:10:46Z</time>
      </trkpt>
      <trkpt lat="43.45266" lon="6.61383">
        <ele>10.834034316242</ele>
        <time>2021-11-28T15:10:47Z</time>
      </trkpt>
      <trkpt lat="43.45265" lon="6.61383">
        <ele>11.83413054049</ele>
        <time>2021-11-28T15:10:48Z</time>
      </trkpt>
      <trkpt lat="43.45264" lon="6.61383">
        <ele>10.834197930992</ele>
        <time>2021-11-28T15:10:49Z</time>
      </trkpt>
      <trkpt lat="43.45263" lon="6.61382">
        <ele>10.834256269038</ele>
        <time>2021-11-28T15:10:50Z</time>
      </trkpt>
      <trkpt lat="43.45262" lon="6.61383">
        <ele>10.834363892674</ele>
        <time>2021-11-28T15:10:51Z</time>
      </trkpt>
      <trkpt lat="43.45259" lon="6.61383">
        <ele>10.834596909583</ele>
        <time>2021-11-28T15:10:53Z</time>
      </trkpt>
      <trkpt lat="43.45258" lon="6.61384">
        <ele>10.83471660316</ele>
        <time>2021-11-28T15:10:54Z</time>
      </trkpt>
      <trkpt lat="43.45257" lon="6.61384">
        <ele>10.834842666984</ele>
        <time>2021-11-28T15:10:55Z</time>
      </trkpt>
      <trkpt lat="43.45256" lon="6.61385">
        <ele>10.834968060255</ele>
        <time>2021-11-28T15:10:56Z</time>
      </trkpt>
      <trkpt lat="43.45255" lon="6.61386">
        <ele>10.835083730519</ele>
        <time>2021-11-28T15:10:57Z</time>
      </trkpt>
      <trkpt lat="43.45254" lon="6.61388">
        <ele>10.835192024708</ele>
        <time>2021-11-28T15:10:58Z</time>
      </trkpt>
      <trkpt lat="43.45253" lon="6.61389">
        <ele>10.835317082703</ele>
        <time>2021-11-28T15:10:59Z</time>
      </trkpt>
      <trkpt lat="43.45251" lon="6.61391">
        <ele>9.8355487585068</ele>
        <time>2021-11-28T15:11:01Z</time>
      </trkpt>
      <trkpt lat="43.45251" lon="6.61393">
        <ele>9.8356520235538</ele>
        <time>2021-11-28T15:11:02Z</time>
      </trkpt>
      <trkpt lat="43.4525" lon="6.61394">
        <ele>8.8357579708099</ele>
        <time>2021-11-28T15:11:03Z</time>
      </trkpt>
      <trkpt lat="43.4525" lon="6.61395">
        <ele>8.8358397781849</ele>
        <time>2021-11-28T15:11:04Z</time>
      </trkpt>
      <trkpt lat="43.45249" lon="6.61396">
        <ele>8.8359360024333</ele>
        <time>2021-11-28T15:11:05Z</time>
      </trkpt>
      <trkpt lat="43.45248" lon="6.614">
        <ele>9.8361723721027</ele>
        <time>2021-11-28T15:11:07Z</time>
      </trkpt>
      <trkpt lat="43.45248" lon="6.61402">
        <ele>9.8362689316273</ele>
        <time>2021-11-28T15:11:08Z</time>
      </trkpt>
      <trkpt lat="43.45247" lon="6.61404">
        <ele>9.8363658264279</ele>
        <time>2021-11-28T15:11:09Z</time>
      </trkpt>
      <trkpt lat="43.45247" lon="6.61406">
        <ele>8.8364865258336</ele>
        <time>2021-11-28T15:11:11Z</time>
      </trkpt>
      <trkpt lat="43.45247" lon="6.61408">
        <ele>7.8365783914924</ele>
        <time>2021-11-28T15:11:12Z</time>
      </trkpt>
      <trkpt lat="43.45247" lon="6.6141">
        <ele>7.8366658985615</ele>
        <time>2021-11-28T15:11:13Z</time>
      </trkpt>
      <trkpt lat="43.45246" lon="6.61412">
        <ele>8.8367708399892</ele>
        <time>2021-11-28T15:11:14Z</time>
      </trkpt>
      <trkpt lat="43.45246" lon="6.61414">
        <ele>8.8368831574917</ele>
        <time>2021-11-28T15:11:15Z</time>
      </trkpt>
      <trkpt lat="43.45245" lon="6.61415">
        <ele>7.8369653001428</ele>
        <time>2021-11-28T15:11:16Z</time>
      </trkpt>
      <trkpt lat="43.45245" lon="6.61416">
        <ele>7.8370474427938</ele>
        <time>2021-11-28T15:11:17Z</time>
      </trkpt>
      <trkpt lat="43.45245" lon="6.61418">
        <ele>8.8371379673481</ele>
        <time>2021-11-28T15:11:18Z</time>
      </trkpt>
      <trkpt lat="43.45245" lon="6.6142">
        <ele>8.837193287909</ele>
        <time>2021-11-28T15:11:19Z</time>
      </trkpt>
      <trkpt lat="43.45245" lon="6.61421">
        <ele>8.8372449204326</ele>
        <time>2021-11-28T15:11:20Z</time>
      </trkpt>
      <trkpt lat="43.45245" lon="6.61423">
        <ele>7.8373237103224</ele>
        <time>2021-11-28T15:11:21Z</time>
      </trkpt>
      <trkpt lat="43.45245" lon="6.61425">
        <ele>7.8373793661594</ele>
        <time>2021-11-28T15:11:22Z</time>
      </trkpt>
      <trkpt lat="43.45246" lon="6.61427">
        <ele>7.8374159112573</ele>
        <time>2021-11-28T15:11:23Z</time>
      </trkpt>
      <trkpt lat="43.45245" lon="6.61429">
        <ele>7.8375161588192</ele>
        <time>2021-11-28T15:11:24Z</time>
      </trkpt>
      <trkpt lat="43.45245" lon="6.61431">
        <ele>8.8376207649708</ele>
        <time>2021-11-28T15:11:25Z</time>
      </trkpt>
      <trkpt lat="43.45245" lon="6.61433">
        <ele>8.8377190008759</ele>
        <time>2021-11-28T15:11:26Z</time>
      </trkpt>
      <trkpt lat="43.45245" lon="6.61434">
        <ele>8.8377947732806</ele>
        <time>2021-11-28T15:11:27Z</time>
      </trkpt>
      <trkpt lat="43.45245" lon="6.61436">
        <ele>8.8378648459911</ele>
        <time>2021-11-28T15:11:28Z</time>
      </trkpt>
      <trkpt lat="43.45244" lon="6.61438">
        <ele>8.8379560410976</ele>
        <time>2021-11-28T15:11:29Z</time>
      </trkpt>
      <trkpt lat="43.45244" lon="6.6144">
        <ele>8.8380579650402</ele>
        <time>2021-11-28T15:11:30Z</time>
      </trkpt>
      <trkpt lat="43.45244" lon="6.61443">
        <ele>8.8382427021861</ele>
        <time>2021-11-28T15:11:32Z</time>
      </trkpt>
      <trkpt lat="43.45243" lon="6.61444">
        <ele>8.8383298739791</ele>
        <time>2021-11-28T15:11:33Z</time>
      </trkpt>
      <trkpt lat="43.45242" lon="6.61446">
        <ele>8.8384462147951</ele>
        <time>2021-11-28T15:11:34Z</time>
      </trkpt>
      <trkpt lat="43.45242" lon="6.61447">
        <ele>8.8385095819831</ele>
        <time>2021-11-28T15:11:35Z</time>
      </trkpt>
      <trkpt lat="43.45242" lon="6.61449">
        <ele>7.8385816663504</ele>
        <time>2021-11-28T15:11:36Z</time>
      </trkpt>
      <trkpt lat="43.4524" lon="6.61451">
        <ele>8.8388522341847</ele>
        <time>2021-11-28T15:11:38Z</time>
      </trkpt>
      <trkpt lat="43.45239" lon="6.61454">
        <ele>8.8390436768532</ele>
        <time>2021-11-28T15:11:39Z</time>
      </trkpt>
      <trkpt lat="43.45238" lon="6.61455">
        <ele>8.8391375541687</ele>
        <time>2021-11-28T15:11:40Z</time>
      </trkpt>
      <trkpt lat="43.45236" lon="6.61457">
        <ele>9.8393960520625</ele>
        <time>2021-11-28T15:11:42Z</time>
      </trkpt>
      <trkpt lat="43.45235" lon="6.61459">
        <ele>9.8395626842976</ele>
        <time>2021-11-28T15:11:43Z</time>
      </trkpt>
      <trkpt lat="43.45234" lon="6.6146">
        <ele>9.8396830484271</ele>
        <time>2021-11-28T15:11:44Z</time>
      </trkpt>
      <trkpt lat="43.45233" lon="6.61461">
        <ele>8.8398181647062</ele>
        <time>2021-11-28T15:11:45Z</time>
      </trkpt>
      <trkpt lat="43.45232" lon="6.61463">
        <ele>9.8399526104331</ele>
        <time>2021-11-28T15:11:46Z</time>
      </trkpt>
      <trkpt lat="43.45231" lon="6.61464">
        <ele>8.8401038199663</ele>
        <time>2021-11-28T15:11:47Z</time>
      </trkpt>
      <trkpt lat="43.4523" lon="6.61465">
        <ele>8.8402225077152</ele>
        <time>2021-11-28T15:11:48Z</time>
      </trkpt>
      <trkpt lat="43.45229" lon="6.61466">
        <ele>8.8403341546655</ele>
        <time>2021-11-28T15:11:49Z</time>
      </trkpt>
      <trkpt lat="43.45228" lon="6.61467">
        <ele>8.8404682651162</ele>
        <time>2021-11-28T15:11:51Z</time>
      </trkpt>
      <trkpt lat="43.45225" lon="6.61469">
        <ele>8.8407680019736</ele>
        <time>2021-11-28T15:11:53Z</time>
      </trkpt>
      <trkpt lat="43.45224" lon="6.6147">
        <ele>9.8408990949392</ele>
        <time>2021-11-28T15:11:54Z</time>
      </trkpt>
      <trkpt lat="43.45223" lon="6.61471">
        <ele>9.8409859314561</ele>
        <time>2021-11-28T15:11:55Z</time>
      </trkpt>
      <trkpt lat="43.45221" lon="6.61473">
        <ele>9.8412303477526</ele>
        <time>2021-11-28T15:11:57Z</time>
      </trkpt>
      <trkpt lat="43.4522" lon="6.61474">
        <ele>8.8413617759943</ele>
        <time>2021-11-28T15:11:58Z</time>
      </trkpt>
      <trkpt lat="43.45219" lon="6.61475">
        <ele>8.8415039330721</ele>
        <time>2021-11-28T15:11:59Z</time>
      </trkpt>
      <trkpt lat="43.45216" lon="6.61477">
        <ele>7.841847255826</ele>
        <time>2021-11-28T15:12:01Z</time>
      </trkpt>
      <trkpt lat="43.45213" lon="6.61479">
        <ele>7.8421151414514</ele>
        <time>2021-11-28T15:12:03Z</time>
      </trkpt>
      <trkpt lat="43.45212" lon="6.6148">
        <ele>7.8422344997525</ele>
        <time>2021-11-28T15:12:04Z</time>
      </trkpt>
      <trkpt lat="43.45211" lon="6.61481">
        <ele>6.8423270359635</ele>
        <time>2021-11-28T15:12:05Z</time>
      </trkpt>
      <trkpt lat="43.4521" lon="6.61482">
        <ele>6.8424480706453</ele>
        <time>2021-11-28T15:12:06Z</time>
      </trkpt>
      <trkpt lat="43.4521" lon="6.61483">
        <ele>5.8425392657518</ele>
        <time>2021-11-28T15:12:07Z</time>
      </trkpt>
      <trkpt lat="43.45209" lon="6.61483">
        <ele>5.842621743679</ele>
        <time>2021-11-28T15:12:08Z</time>
      </trkpt>
      <trkpt lat="43.45208" lon="6.61484">
        <ele>5.8427112624049</ele>
        <time>2021-11-28T15:12:09Z</time>
      </trkpt>
      <trkpt lat="43.45207" lon="6.61485">
        <ele>5.842822574079</ele>
        <time>2021-11-28T15:12:10Z</time>
      </trkpt>
      <trkpt lat="43.45206" lon="6.61486">
        <ele>5.8429291918874</ele>
        <time>2021-11-28T15:12:11Z</time>
      </trkpt>
      <trkpt lat="43.45204" lon="6.61488">
        <ele>6.8432192057371</ele>
        <time>2021-11-28T15:12:13Z</time>
      </trkpt>
      <trkpt lat="43.45203" lon="6.61489">
        <ele>5.8433335348964</ele>
        <time>2021-11-28T15:12:14Z</time>
      </trkpt>
      <trkpt lat="43.45203" lon="6.61489">
        <ele>5.843353651464</ele>
        <time>2021-11-28T15:12:15Z</time>
      </trkpt>
      <trkpt lat="43.45201" lon="6.61491">
        <ele>5.8435792922974</ele>
        <time>2021-11-28T15:12:17Z</time>
      </trkpt>
      <trkpt lat="43.452" lon="6.61492">
        <ele>5.843707703054</ele>
        <time>2021-11-28T15:12:18Z</time>
      </trkpt>
      <trkpt lat="43.45199" lon="6.61494">
        <ele>6.8438522070646</ele>
        <time>2021-11-28T15:12:19Z</time>
      </trkpt>
      <trkpt lat="43.45197" lon="6.61495">
        <ele>6.8440024107695</ele>
        <time>2021-11-28T15:12:20Z</time>
      </trkpt>
      <trkpt lat="43.45196" lon="6.61496">
        <ele>6.8441583141685</ele>
        <time>2021-11-28T15:12:21Z</time>
      </trkpt>
      <trkpt lat="43.45195" lon="6.61497">
        <ele>6.8443044945598</ele>
        <time>2021-11-28T15:12:22Z</time>
      </trkpt>
      <trkpt lat="43.45193" lon="6.61497">
        <ele>6.8444322347641</ele>
        <time>2021-11-28T15:12:23Z</time>
      </trkpt>
      <trkpt lat="43.45192" lon="6.61498">
        <ele>6.8445408642292</ele>
        <time>2021-11-28T15:12:24Z</time>
      </trkpt>
      <trkpt lat="43.45191" lon="6.61499">
        <ele>6.8446810096502</ele>
        <time>2021-11-28T15:12:25Z</time>
      </trkpt>
      <trkpt lat="43.4519" lon="6.61499">
        <ele>6.844799362123</ele>
        <time>2021-11-28T15:12:26Z</time>
      </trkpt>
      <trkpt lat="43.45189" lon="6.615">
        <ele>6.8448808342218</ele>
        <time>2021-11-28T15:12:27Z</time>
      </trkpt>
      <trkpt lat="43.45188" lon="6.615">
        <ele>6.8449891284108</ele>
        <time>2021-11-28T15:12:28Z</time>
      </trkpt>
      <trkpt lat="43.45186" lon="6.61501">
        <ele>6.8451309502125</ele>
        <time>2021-11-28T15:12:29Z</time>
      </trkpt>
      <trkpt lat="43.45185" lon="6.61502">
        <ele>6.845264390111</ele>
        <time>2021-11-28T15:12:30Z</time>
      </trkpt>
      <trkpt lat="43.45184" lon="6.61502">
        <ele>7.8453532382846</ele>
        <time>2021-11-28T15:12:31Z</time>
      </trkpt>
      <trkpt lat="43.45183" lon="6.61503">
        <ele>7.8454776257277</ele>
        <time>2021-11-28T15:12:32Z</time>
      </trkpt>
      <trkpt lat="43.45182" lon="6.61504">
        <ele>8.8456194475293</ele>
        <time>2021-11-28T15:12:33Z</time>
      </trkpt>
      <trkpt lat="43.4518" lon="6.61504">
        <ele>8.8457468524575</ele>
        <time>2021-11-28T15:12:34Z</time>
      </trkpt>
      <trkpt lat="43.45179" lon="6.61505">
        <ele>8.8458692282438</ele>
        <time>2021-11-28T15:12:35Z</time>
      </trkpt>
      <trkpt lat="43.45178" lon="6.61505">
        <ele>8.8459818810225</ele>
        <time>2021-11-28T15:12:36Z</time>
      </trkpt>
      <trkpt lat="43.45176" lon="6.61505">
        <ele>9.8461099565029</ele>
        <time>2021-11-28T15:12:37Z</time>
      </trkpt>
      <trkpt lat="43.45175" lon="6.61505">
        <ele>9.8461977988482</ele>
        <time>2021-11-28T15:12:38Z</time>
      </trkpt>
      <trkpt lat="43.45174" lon="6.61505">
        <ele>9.8462893292308</ele>
        <time>2021-11-28T15:12:39Z</time>
      </trkpt>
      <trkpt lat="43.45173" lon="6.61505">
        <ele>9.8463661074638</ele>
        <time>2021-11-28T15:12:40Z</time>
      </trkpt>
      <trkpt lat="43.45172" lon="6.61505">
        <ele>9.8464690372348</ele>
        <time>2021-11-28T15:12:41Z</time>
      </trkpt>
      <trkpt lat="43.4517" lon="6.61505">
        <ele>9.8465951010585</ele>
        <time>2021-11-28T15:12:42Z</time>
      </trkpt>
      <trkpt lat="43.45168" lon="6.61504">
        <ele>9.8466956838965</ele>
        <time>2021-11-28T15:12:43Z</time>
      </trkpt>
      <trkpt lat="43.45167" lon="6.61504">
        <ele>8.8467835262418</ele>
        <time>2021-11-28T15:12:44Z</time>
      </trkpt>
      <trkpt lat="43.45165" lon="6.61503">
        <ele>8.8468861207366</ele>
        <time>2021-11-28T15:12:45Z</time>
      </trkpt>
      <trkpt lat="43.45164" lon="6.61503">
        <ele>9.8470225781202</ele>
        <time>2021-11-28T15:12:46Z</time>
      </trkpt>
      <trkpt lat="43.45162" lon="6.61503">
        <ele>9.8471449539065</ele>
        <time>2021-11-28T15:12:47Z</time>
      </trkpt>
      <trkpt lat="43.45161" lon="6.61502">
        <ele>9.8472485542297</ele>
        <time>2021-11-28T15:12:48Z</time>
      </trkpt>
      <trkpt lat="43.45159" lon="6.61502">
        <ele>9.847370930016</ele>
        <time>2021-11-28T15:12:49Z</time>
      </trkpt>
      <trkpt lat="43.45157" lon="6.61502">
        <ele>9.8474859297276</ele>
        <time>2021-11-28T15:12:50Z</time>
      </trkpt>
      <trkpt lat="43.45156" lon="6.61502">
        <ele>9.8475878536701</ele>
        <time>2021-11-28T15:12:51Z</time>
      </trkpt>
      <trkpt lat="43.45155" lon="6.61503">
        <ele>9.8476941362023</ele>
        <time>2021-11-28T15:12:52Z</time>
      </trkpt>
      <trkpt lat="43.45154" lon="6.61503">
        <ele>9.8477950543165</ele>
        <time>2021-11-28T15:12:53Z</time>
      </trkpt>
      <trkpt lat="43.45153" lon="6.61504">
        <ele>9.8479060307145</ele>
        <time>2021-11-28T15:12:54Z</time>
      </trkpt>
      <trkpt lat="43.45153" lon="6.61505">
        <ele>8.8479606807232</ele>
        <time>2021-11-28T15:12:55Z</time>
      </trkpt>
      <trkpt lat="43.45152" lon="6.61505">
        <ele>8.8480374589562</ele>
        <time>2021-11-28T15:12:56Z</time>
      </trkpt>
      <trkpt lat="43.45151" lon="6.61505">
        <ele>8.8481182605028</ele>
        <time>2021-11-28T15:12:57Z</time>
      </trkpt>
      <trkpt lat="43.4515" lon="6.61505">
        <ele>8.8481990620494</ele>
        <time>2021-11-28T15:12:58Z</time>
      </trkpt>
      <trkpt lat="43.45149" lon="6.61505">
        <ele>8.8482610881329</ele>
        <time>2021-11-28T15:12:59Z</time>
      </trkpt>
      <trkpt lat="43.45148" lon="6.61505">
        <ele>8.8483502715826</ele>
        <time>2021-11-28T15:13:00Z</time>
      </trkpt>
      <trkpt lat="43.45147" lon="6.61506">
        <ele>9.848470300436</ele>
        <time>2021-11-28T15:13:01Z</time>
      </trkpt>
      <trkpt lat="43.45146" lon="6.61506">
        <ele>9.8485423848033</ele>
        <time>2021-11-28T15:13:02Z</time>
      </trkpt>
      <trkpt lat="43.45145" lon="6.61507">
        <ele>9.8486533612013</ele>
        <time>2021-11-28T15:13:03Z</time>
      </trkpt>
      <trkpt lat="43.45144" lon="6.61508">
        <ele>9.8487680256367</ele>
        <time>2021-11-28T15:13:04Z</time>
      </trkpt>
      <trkpt lat="43.45143" lon="6.61508">
        <ele>9.8489199057221</ele>
        <time>2021-11-28T15:13:05Z</time>
      </trkpt>
      <trkpt lat="43.45142" lon="6.6151">
        <ele>9.8490650802851</ele>
        <time>2021-11-28T15:13:06Z</time>
      </trkpt>
      <trkpt lat="43.4514" lon="6.6151">
        <ele>9.8492092490196</ele>
        <time>2021-11-28T15:13:07Z</time>
      </trkpt>
      <trkpt lat="43.45139" lon="6.61511">
        <ele>9.8493470475078</ele>
        <time>2021-11-28T15:13:08Z</time>
      </trkpt>
      <trkpt lat="43.45137" lon="6.61512">
        <ele>9.8494865223765</ele>
        <time>2021-11-28T15:13:09Z</time>
      </trkpt>
      <trkpt lat="43.45136" lon="6.61513">
        <ele>9.8496424257755</ele>
        <time>2021-11-28T15:13:10Z</time>
      </trkpt>
      <trkpt lat="43.45134" lon="6.61514">
        <ele>8.8498593494296</ele>
        <time>2021-11-28T15:13:12Z</time>
      </trkpt>
      <trkpt lat="43.45133" lon="6.61515">
        <ele>9.8499522209167</ele>
        <time>2021-11-28T15:13:13Z</time>
      </trkpt>
      <trkpt lat="43.45131" lon="6.61515">
        <ele>9.8500762730837</ele>
        <time>2021-11-28T15:13:14Z</time>
      </trkpt>
      <trkpt lat="43.45131" lon="6.61515">
        <ele>9.8501030951738</ele>
        <time>2021-11-28T15:13:16Z</time>
      </trkpt>
      <trkpt lat="43.4513" lon="6.61515">
        <ele>9.8501765206456</ele>
        <time>2021-11-28T15:13:17Z</time>
      </trkpt>
      <trkpt lat="43.45129" lon="6.61514">
        <ele>9.8502744212747</ele>
        <time>2021-11-28T15:13:18Z</time>
      </trkpt>
      <trkpt lat="43.45128" lon="6.61514">
        <ele>10.850336782634</ele>
        <time>2021-11-28T15:13:19Z</time>
      </trkpt>
      <trkpt lat="43.45127" lon="6.61514">
        <ele>11.850439041853</ele>
        <time>2021-11-28T15:13:20Z</time>
      </trkpt>
      <trkpt lat="43.45125" lon="6.61515">
        <ele>11.850578181446</ele>
        <time>2021-11-28T15:13:21Z</time>
      </trkpt>
      <trkpt lat="43.45123" lon="6.61518">
        <ele>11.850842043757</ele>
        <time>2021-11-28T15:13:23Z</time>
      </trkpt>
      <trkpt lat="43.45122" lon="6.6152">
        <ele>11.850990571082</ele>
        <time>2021-11-28T15:13:24Z</time>
      </trkpt>
      <trkpt lat="43.45121" lon="6.6152">
        <ele>11.851104229689</ele>
        <time>2021-11-28T15:13:25Z</time>
      </trkpt>
      <trkpt lat="43.4512" lon="6.6152">
        <ele>11.851173631847</ele>
        <time>2021-11-28T15:13:26Z</time>
      </trkpt>
      <trkpt lat="43.4512" lon="6.6152">
        <ele>11.851244710386</ele>
        <time>2021-11-28T15:13:27Z</time>
      </trkpt>
      <trkpt lat="43.45118" lon="6.61521">
        <ele>11.851379156113</ele>
        <time>2021-11-28T15:13:28Z</time>
      </trkpt>
      <trkpt lat="43.45118" lon="6.61522">
        <ele>11.851485438645</ele>
        <time>2021-11-28T15:13:29Z</time>
      </trkpt>
      <trkpt lat="43.45117" lon="6.61524">
        <ele>11.851622901857</ele>
        <time>2021-11-28T15:13:30Z</time>
      </trkpt>
      <trkpt lat="43.45114" lon="6.61526">
        <ele>11.851900845766</ele>
        <time>2021-11-28T15:13:32Z</time>
      </trkpt>
      <trkpt lat="43.45113" lon="6.61527">
        <ele>11.852011822164</ele>
        <time>2021-11-28T15:13:33Z</time>
      </trkpt>
      <trkpt lat="43.45112" lon="6.61528">
        <ele>12.852161355317</ele>
        <time>2021-11-28T15:13:34Z</time>
      </trkpt>
      <trkpt lat="43.45111" lon="6.61529">
        <ele>12.852309547365</ele>
        <time>2021-11-28T15:13:35Z</time>
      </trkpt>
      <trkpt lat="43.4511" lon="6.6153">
        <ele>12.852422535419</ele>
        <time>2021-11-28T15:13:36Z</time>
      </trkpt>
      <trkpt lat="43.45109" lon="6.6153">
        <ele>11.852497972548</ele>
        <time>2021-11-28T15:13:37Z</time>
      </trkpt>
      <trkpt lat="43.45108" lon="6.6153">
        <ele>11.852594196796</ele>
        <time>2021-11-28T15:13:38Z</time>
      </trkpt>
      <trkpt lat="43.45107" lon="6.61531">
        <ele>11.852685727179</ele>
        <time>2021-11-28T15:13:39Z</time>
      </trkpt>
      <trkpt lat="43.45106" lon="6.61531">
        <ele>11.852784968913</ele>
        <time>2021-11-28T15:13:40Z</time>
      </trkpt>
      <trkpt lat="43.45104" lon="6.61531">
        <ele>11.852887563407</ele>
        <time>2021-11-28T15:13:41Z</time>
      </trkpt>
      <trkpt lat="43.45103" lon="6.61531">
        <ele>11.853018321097</ele>
        <time>2021-11-28T15:13:42Z</time>
      </trkpt>
      <trkpt lat="43.45102" lon="6.61531">
        <ele>11.853130973876</ele>
        <time>2021-11-28T15:13:43Z</time>
      </trkpt>
      <trkpt lat="43.451" lon="6.61531">
        <ele>11.853235580027</ele>
        <time>2021-11-28T15:13:44Z</time>
      </trkpt>
      <trkpt lat="43.45098" lon="6.6153">
        <ele>11.853409923613</ele>
        <time>2021-11-28T15:13:46Z</time>
      </trkpt>
      <trkpt lat="43.45097" lon="6.6153">
        <ele>10.853476643562</ele>
        <time>2021-11-28T15:13:47Z</time>
      </trkpt>
      <trkpt lat="43.45095" lon="6.6153">
        <ele>10.853601701558</ele>
        <time>2021-11-28T15:13:48Z</time>
      </trkpt>
      <trkpt lat="43.45093" lon="6.61529">
        <ele>10.853722400963</ele>
        <time>2021-11-28T15:13:49Z</time>
      </trkpt>
      <trkpt lat="43.45092" lon="6.61529">
        <ele>11.853813260794</ele>
        <time>2021-11-28T15:13:50Z</time>
      </trkpt>
      <trkpt lat="43.45089" lon="6.61527">
        <ele>11.85397721082</ele>
        <time>2021-11-28T15:13:52Z</time>
      </trkpt>
      <trkpt lat="43.45087" lon="6.61525">
        <ele>11.854030184448</ele>
        <time>2021-11-28T15:13:53Z</time>
      </trkpt>
      <trkpt lat="43.45086" lon="6.61525">
        <ele>11.854098916054</ele>
        <time>2021-11-28T15:13:54Z</time>
      </trkpt>
      <trkpt lat="43.45084" lon="6.61525">
        <ele>11.854272589087</ele>
        <time>2021-11-28T15:13:56Z</time>
      </trkpt>
      <trkpt lat="43.45083" lon="6.61525">
        <ele>11.854367136955</ele>
        <time>2021-11-28T15:13:57Z</time>
      </trkpt>
      <trkpt lat="43.45082" lon="6.61524">
        <ele>10.85443687439</ele>
        <time>2021-11-28T15:13:58Z</time>
      </trkpt>
      <trkpt lat="43.4508" lon="6.61523">
        <ele>10.854501917958</ele>
        <time>2021-11-28T15:13:59Z</time>
      </trkpt>
      <trkpt lat="43.45079" lon="6.61522">
        <ele>10.85454852134</ele>
        <time>2021-11-28T15:14:00Z</time>
      </trkpt>
      <trkpt lat="43.45077" lon="6.61521">
        <ele>9.8546527922153</ele>
        <time>2021-11-28T15:14:02Z</time>
      </trkpt>
      <trkpt lat="43.45076" lon="6.61521">
        <ele>9.8547781854868</ele>
        <time>2021-11-28T15:14:03Z</time>
      </trkpt>
      <trkpt lat="43.45074" lon="6.61521">
        <ele>9.8548985496163</ele>
        <time>2021-11-28T15:14:04Z</time>
      </trkpt>
      <trkpt lat="43.45073" lon="6.61521">
        <ele>9.8549736514688</ele>
        <time>2021-11-28T15:14:05Z</time>
      </trkpt>
      <trkpt lat="43.45072" lon="6.61521">
        <ele>8.855079934001</ele>
        <time>2021-11-28T15:14:06Z</time>
      </trkpt>
      <trkpt lat="43.45069" lon="6.61521">
        <ele>9.8553240150213</ele>
        <time>2021-11-28T15:14:08Z</time>
      </trkpt>
      <trkpt lat="43.45068" lon="6.61522">
        <ele>9.8554373383522</ele>
        <time>2021-11-28T15:14:09Z</time>
      </trkpt>
      <trkpt lat="43.45067" lon="6.61522">
        <ele>10.855560384691</ele>
        <time>2021-11-28T15:14:10Z</time>
      </trkpt>
      <trkpt lat="43.45065" lon="6.61522">
        <ele>10.855644874275</ele>
        <time>2021-11-28T15:14:11Z</time>
      </trkpt>
      <trkpt lat="43.45064" lon="6.61522">
        <ele>10.855746127665</ele>
        <time>2021-11-28T15:14:12Z</time>
      </trkpt>
      <trkpt lat="43.45063" lon="6.61523">
        <ele>9.8558621332049</ele>
        <time>2021-11-28T15:14:13Z</time>
      </trkpt>
      <trkpt lat="43.45062" lon="6.61523">
        <ele>9.8559734448791</ele>
        <time>2021-11-28T15:14:14Z</time>
      </trkpt>
      <trkpt lat="43.45061" lon="6.61524">
        <ele>9.8560807332397</ele>
        <time>2021-11-28T15:14:15Z</time>
      </trkpt>
      <trkpt lat="43.4506" lon="6.61524">
        <ele>9.856187351048</ele>
        <time>2021-11-28T15:14:16Z</time>
      </trkpt>
      <trkpt lat="43.45059" lon="6.61525">
        <ele>8.8562922924757</ele>
        <time>2021-11-28T15:14:17Z</time>
      </trkpt>
      <trkpt lat="43.45058" lon="6.61526">
        <ele>8.8564002513885</ele>
        <time>2021-11-28T15:14:18Z</time>
      </trkpt>
      <trkpt lat="43.45057" lon="6.61527">
        <ele>7.8565196096897</ele>
        <time>2021-11-28T15:14:19Z</time>
      </trkpt>
      <trkpt lat="43.45056" lon="6.61528">
        <ele>7.8566590845585</ele>
        <time>2021-11-28T15:14:20Z</time>
      </trkpt>
      <trkpt lat="43.45055" lon="6.61529">
        <ele>7.8567885011435</ele>
        <time>2021-11-28T15:14:21Z</time>
      </trkpt>
      <trkpt lat="43.45054" lon="6.6153">
        <ele>7.8568927720189</ele>
        <time>2021-11-28T15:14:22Z</time>
      </trkpt>
      <trkpt lat="43.45053" lon="6.61532">
        <ele>6.8570235297084</ele>
        <time>2021-11-28T15:14:23Z</time>
      </trkpt>
      <trkpt lat="43.45053" lon="6.61534">
        <ele>6.8571452349424</ele>
        <time>2021-11-28T15:14:24Z</time>
      </trkpt>
      <trkpt lat="43.45052" lon="6.61537">
        <ele>6.8573262840509</ele>
        <time>2021-11-28T15:14:26Z</time>
      </trkpt>
      <trkpt lat="43.45052" lon="6.6154">
        <ele>6.8574550300837</ele>
        <time>2021-11-28T15:14:28Z</time>
      </trkpt>
      <trkpt lat="43.45052" lon="6.61541">
        <ele>6.8575103506446</ele>
        <time>2021-11-28T15:14:29Z</time>
      </trkpt>
      <trkpt lat="43.45051" lon="6.61543">
        <ele>6.8575924932957</ele>
        <time>2021-11-28T15:14:30Z</time>
      </trkpt>
      <trkpt lat="43.45051" lon="6.61546">
        <ele>5.857735991478</ele>
        <time>2021-11-28T15:14:32Z</time>
      </trkpt>
      <trkpt lat="43.45051" lon="6.61548">
        <ele>5.8578228279948</ele>
        <time>2021-11-28T15:14:33Z</time>
      </trkpt>
      <trkpt lat="43.45051" lon="6.6155">
        <ele>5.8579160347581</ele>
        <time>2021-11-28T15:14:34Z</time>
      </trkpt>
      <trkpt lat="43.45051" lon="6.61552">
        <ele>4.8579911366105</ele>
        <time>2021-11-28T15:14:35Z</time>
      </trkpt>
      <trkpt lat="43.45051" lon="6.61553">
        <ele>4.8580514863133</ele>
        <time>2021-11-28T15:14:36Z</time>
      </trkpt>
      <trkpt lat="43.45051" lon="6.61555">
        <ele>4.858106136322</ele>
        <time>2021-11-28T15:14:37Z</time>
      </trkpt>
      <trkpt lat="43.45051" lon="6.61557">
        <ele>5.8582265004516</ele>
        <time>2021-11-28T15:14:38Z</time>
      </trkpt>
      <trkpt lat="43.4505" lon="6.61559">
        <ele>5.8583498820662</ele>
        <time>2021-11-28T15:14:39Z</time>
      </trkpt>
      <trkpt lat="43.4505" lon="6.61561">
        <ele>5.8584494590759</ele>
        <time>2021-11-28T15:14:40Z</time>
      </trkpt>
      <trkpt lat="43.4505" lon="6.61565">
        <ele>5.8586090505123</ele>
        <time>2021-11-28T15:14:42Z</time>
      </trkpt>
      <trkpt lat="43.4505" lon="6.61567">
        <ele>5.8586952164769</ele>
        <time>2021-11-28T15:14:43Z</time>
      </trkpt>
      <trkpt lat="43.4505" lon="6.61569">
        <ele>5.8587659597397</ele>
        <time>2021-11-28T15:14:44Z</time>
      </trkpt>
      <trkpt lat="43.4505" lon="6.61571">
        <ele>5.8588584959507</ele>
        <time>2021-11-28T15:14:46Z</time>
      </trkpt>
      <trkpt lat="43.4505" lon="6.6157">
        <ele>5.8588340207934</ele>
        <time>2021-11-28T15:14:48Z</time>
      </trkpt>
      <trkpt lat="43.4505" lon="6.61569">
        <ele>5.8587451726198</ele>
        <time>2021-11-28T15:14:49Z</time>
      </trkpt>
      <trkpt lat="43.45051" lon="6.6157">
        <ele>5.8586807996035</ele>
        <time>2021-11-28T15:14:50Z</time>
      </trkpt>
      <trkpt lat="43.45052" lon="6.61571">
        <ele>4.8586586713791</ele>
        <time>2021-11-28T15:14:51Z</time>
      </trkpt>
      <trkpt lat="43.45053" lon="6.61571">
        <ele>4.8586308434606</ele>
        <time>2021-11-28T15:14:53Z</time>
      </trkpt>
      <trkpt lat="43.45053" lon="6.61572">
        <ele>4.8586060330272</ele>
        <time>2021-11-28T15:14:54Z</time>
      </trkpt>
      <trkpt lat="43.45056" lon="6.61572">
        <ele>5.8584102317691</ele>
        <time>2021-11-28T15:14:56Z</time>
      </trkpt>
      <trkpt lat="43.45058" lon="6.61573">
        <ele>5.8582667335868</ele>
        <time>2021-11-28T15:14:58Z</time>
      </trkpt>
      <trkpt lat="43.45059" lon="6.61573">
        <ele>5.8581835851073</ele>
        <time>2021-11-28T15:14:59Z</time>
      </trkpt>
      <trkpt lat="43.4506" lon="6.61574">
        <ele>5.858103454113</ele>
        <time>2021-11-28T15:15:00Z</time>
      </trkpt>
      <trkpt lat="43.45063" lon="6.61576">
        <ele>4.857997842133</ele>
        <time>2021-11-28T15:15:02Z</time>
      </trkpt>
      <trkpt lat="43.45064" lon="6.61577">
        <ele>5.8579643145204</ele>
        <time>2021-11-28T15:15:03Z</time>
      </trkpt>
      <trkpt lat="43.45065" lon="6.61578">
        <ele>5.8579371571541</ele>
        <time>2021-11-28T15:15:04Z</time>
      </trkpt>
      <trkpt lat="43.45066" lon="6.6158">
        <ele>5.8579073175788</ele>
        <time>2021-11-28T15:15:06Z</time>
      </trkpt>
      <trkpt lat="43.45067" lon="6.61581">
        <ele>5.8578580319881</ele>
        <time>2021-11-28T15:15:08Z</time>
      </trkpt>
      <trkpt lat="43.45069" lon="6.61582">
        <ele>6.8577822595835</ele>
        <time>2021-11-28T15:15:09Z</time>
      </trkpt>
      <trkpt lat="43.45069" lon="6.61582">
        <ele>6.8577410206199</ele>
        <time>2021-11-28T15:15:10Z</time>
      </trkpt>
      <trkpt lat="43.45071" lon="6.61585">
        <ele>6.857701793313</ele>
        <time>2021-11-28T15:15:12Z</time>
      </trkpt>
      <trkpt lat="43.45073" lon="6.61587">
        <ele>5.8576642423868</ele>
        <time>2021-11-28T15:15:13Z</time>
      </trkpt>
      <trkpt lat="43.45074" lon="6.61589">
        <ele>4.8576696068048</ele>
        <time>2021-11-28T15:15:14Z</time>
      </trkpt>
      <trkpt lat="43.45074" lon="6.61593">
        <ele>4.8577852770686</ele>
        <time>2021-11-28T15:15:16Z</time>
      </trkpt>
      <trkpt lat="43.45075" lon="6.61596">
        <ele>4.8578597083688</ele>
        <time>2021-11-28T15:15:18Z</time>
      </trkpt>
      <trkpt lat="43.45075" lon="6.61596">
        <ele>4.8578399270773</ele>
        <time>2021-11-28T15:15:19Z</time>
      </trkpt>
      <trkpt lat="43.45076" lon="6.61599">
        <ele>4.8578704372048</ele>
        <time>2021-11-28T15:15:21Z</time>
      </trkpt>
      <trkpt lat="43.45077" lon="6.61603">
        <ele>5.8579737022519</ele>
        <time>2021-11-28T15:15:23Z</time>
      </trkpt>
      <trkpt lat="43.45077" lon="6.61605">
        <ele>5.8580786436796</ele>
        <time>2021-11-28T15:15:24Z</time>
      </trkpt>
      <trkpt lat="43.45076" lon="6.61607">
        <ele>5.858177550137</ele>
        <time>2021-11-28T15:15:25Z</time>
      </trkpt>
      <trkpt lat="43.45076" lon="6.61608">
        <ele>5.8582617044449</ele>
        <time>2021-11-28T15:15:26Z</time>
      </trkpt>
      <trkpt lat="43.45075" lon="6.6161">
        <ele>6.8583716750145</ele>
        <time>2021-11-28T15:15:27Z</time>
      </trkpt>
      <trkpt lat="43.45075" lon="6.61611">
        <ele>6.8584561645985</ele>
        <time>2021-11-28T15:15:28Z</time>
      </trkpt>
      <trkpt lat="43.45075" lon="6.61612">
        <ele>6.8584974035621</ele>
        <time>2021-11-28T15:15:29Z</time>
      </trkpt>
      <trkpt lat="43.45074" lon="6.61612">
        <ele>6.8585476949811</ele>
        <time>2021-11-28T15:15:30Z</time>
      </trkpt>
      <trkpt lat="43.45074" lon="6.61613">
        <ele>6.8586140796542</ele>
        <time>2021-11-28T15:15:35Z</time>
      </trkpt>
      <trkpt lat="43.45072" lon="6.61612">
        <ele>5.8586740940809</ele>
        <time>2021-11-28T15:15:37Z</time>
      </trkpt>
      <trkpt lat="43.45072" lon="6.61611">
        <ele>8.8586519658566</ele>
        <time>2021-11-28T15:16:04Z</time>
      </trkpt>
      <trkpt lat="43.45073" lon="6.61608">
        <ele>9.8585171848536</ele>
        <time>2021-11-28T15:16:05Z</time>
      </trkpt>
      <trkpt lat="43.45072" lon="6.61608">
        <ele>9.8585403189063</ele>
        <time>2021-11-28T15:16:29Z</time>
      </trkpt>
      <trkpt lat="43.45072" lon="6.61608">
        <ele>9.8585802167654</ele>
        <time>2021-11-28T15:16:41Z</time>
      </trkpt>
      <trkpt lat="43.45072" lon="6.61608">
        <ele>9.8585775345564</ele>
        <time>2021-11-28T15:16:57Z</time>
      </trkpt>
      <trkpt lat="43.45072" lon="6.61608">
        <ele>9.8585775345564</ele>
        <time>2021-11-28T15:16:57Z</time>
      </trkpt>
    </trkseg>
  </trk>
</gpx>